<?xml version="1.0" encoding="UTF-8" standalone="no" ?>
<gpx xmlns="http://www.topografix.com/GPX/1/1" xmlns:xsi="http://www.w3.org/2001/XMLSchema-instance" xsi:schemaLocation="http://www.topografix.com/GPX/1/1 http://www.topografix.com/GPX/1/1/gpx.xsd" version="1.1" creator="VisuGPX - https://www.visugpx.com">
  <metadata>
    <name>Course à pied en soirée</name>
  </metadata>
  <trk>
    <name><![CDATA[Course à pied en soirée_1]]></name>
    <trkseg>
      <trkpt lat="43.64747" lon="1.37633">
        <ele>151</ele>
        <time>2024-04-09T16:06:27Z</time>
      </trkpt>
      <trkpt lat="43.64751" lon="1.37631">
        <ele>151</ele>
        <time>2024-04-09T16:06:28Z</time>
      </trkpt>
      <trkpt lat="43.64752" lon="1.3763">
        <ele>151</ele>
        <time>2024-04-09T16:06:29Z</time>
      </trkpt>
      <trkpt lat="43.64754" lon="1.37629">
        <ele>151</ele>
        <time>2024-04-09T16:06:30Z</time>
      </trkpt>
      <trkpt lat="43.64756" lon="1.37627">
        <ele>151</ele>
        <time>2024-04-09T16:06:31Z</time>
      </trkpt>
      <trkpt lat="43.64758" lon="1.37624">
        <ele>151</ele>
        <time>2024-04-09T16:06:32Z</time>
      </trkpt>
      <trkpt lat="43.64759" lon="1.37623">
        <ele>151</ele>
        <time>2024-04-09T16:06:33Z</time>
      </trkpt>
      <trkpt lat="43.64761" lon="1.37621">
        <ele>151</ele>
        <time>2024-04-09T16:06:34Z</time>
      </trkpt>
      <trkpt lat="43.64763" lon="1.37618">
        <ele>151</ele>
        <time>2024-04-09T16:06:35Z</time>
      </trkpt>
      <trkpt lat="43.64765" lon="1.37616">
        <ele>151</ele>
        <time>2024-04-09T16:06:36Z</time>
      </trkpt>
      <trkpt lat="43.64767" lon="1.37615">
        <ele>152</ele>
        <time>2024-04-09T16:06:37Z</time>
      </trkpt>
      <trkpt lat="43.6477" lon="1.37613">
        <ele>152</ele>
        <time>2024-04-09T16:06:38Z</time>
      </trkpt>
      <trkpt lat="43.64773" lon="1.3761">
        <ele>152</ele>
        <time>2024-04-09T16:06:39Z</time>
      </trkpt>
      <trkpt lat="43.64774" lon="1.3761">
        <ele>152</ele>
        <time>2024-04-09T16:06:40Z</time>
      </trkpt>
      <trkpt lat="43.64775" lon="1.37608">
        <ele>152</ele>
        <time>2024-04-09T16:06:41Z</time>
      </trkpt>
      <trkpt lat="43.64777" lon="1.37607">
        <ele>153</ele>
        <time>2024-04-09T16:06:42Z</time>
      </trkpt>
      <trkpt lat="43.64779" lon="1.37605">
        <ele>153</ele>
        <time>2024-04-09T16:06:43Z</time>
      </trkpt>
      <trkpt lat="43.64781" lon="1.37603">
        <ele>152</ele>
        <time>2024-04-09T16:06:44Z</time>
      </trkpt>
      <trkpt lat="43.64783" lon="1.37602">
        <ele>152</ele>
        <time>2024-04-09T16:06:45Z</time>
      </trkpt>
      <trkpt lat="43.64785" lon="1.37601">
        <ele>152</ele>
        <time>2024-04-09T16:06:46Z</time>
      </trkpt>
      <trkpt lat="43.64787" lon="1.376">
        <ele>152</ele>
        <time>2024-04-09T16:06:47Z</time>
      </trkpt>
      <trkpt lat="43.6479" lon="1.37599">
        <ele>151</ele>
        <time>2024-04-09T16:06:48Z</time>
      </trkpt>
      <trkpt lat="43.64792" lon="1.37598">
        <ele>151</ele>
        <time>2024-04-09T16:06:49Z</time>
      </trkpt>
      <trkpt lat="43.64794" lon="1.37597">
        <ele>151</ele>
        <time>2024-04-09T16:06:50Z</time>
      </trkpt>
      <trkpt lat="43.64797" lon="1.37597">
        <ele>152</ele>
        <time>2024-04-09T16:06:51Z</time>
      </trkpt>
      <trkpt lat="43.64799" lon="1.37597">
        <ele>152</ele>
        <time>2024-04-09T16:06:52Z</time>
      </trkpt>
      <trkpt lat="43.64803" lon="1.37598">
        <ele>152</ele>
        <time>2024-04-09T16:06:53Z</time>
      </trkpt>
      <trkpt lat="43.64805" lon="1.376">
        <ele>152</ele>
        <time>2024-04-09T16:06:54Z</time>
      </trkpt>
      <trkpt lat="43.6481" lon="1.37603">
        <ele>152</ele>
        <time>2024-04-09T16:06:55Z</time>
      </trkpt>
      <trkpt lat="43.64813" lon="1.37604">
        <ele>152</ele>
        <time>2024-04-09T16:06:56Z</time>
      </trkpt>
      <trkpt lat="43.64813" lon="1.37604">
        <ele>151</ele>
        <time>2024-04-09T16:06:57Z</time>
      </trkpt>
      <trkpt lat="43.64815" lon="1.37605">
        <ele>151</ele>
        <time>2024-04-09T16:06:58Z</time>
      </trkpt>
      <trkpt lat="43.64815" lon="1.37605">
        <ele>151</ele>
        <time>2024-04-09T16:06:59Z</time>
      </trkpt>
      <trkpt lat="43.64821" lon="1.37607">
        <ele>151</ele>
        <time>2024-04-09T16:07:00Z</time>
      </trkpt>
      <trkpt lat="43.64823" lon="1.37608">
        <ele>151</ele>
        <time>2024-04-09T16:07:01Z</time>
      </trkpt>
      <trkpt lat="43.64826" lon="1.3761">
        <ele>151</ele>
        <time>2024-04-09T16:07:02Z</time>
      </trkpt>
      <trkpt lat="43.6483" lon="1.37613">
        <ele>151</ele>
        <time>2024-04-09T16:07:03Z</time>
      </trkpt>
      <trkpt lat="43.64831" lon="1.37614">
        <ele>151</ele>
        <time>2024-04-09T16:07:04Z</time>
      </trkpt>
      <trkpt lat="43.64833" lon="1.37615">
        <ele>151</ele>
        <time>2024-04-09T16:07:05Z</time>
      </trkpt>
      <trkpt lat="43.64835" lon="1.37616">
        <ele>151</ele>
        <time>2024-04-09T16:07:06Z</time>
      </trkpt>
      <trkpt lat="43.64836" lon="1.37618">
        <ele>151</ele>
        <time>2024-04-09T16:07:07Z</time>
      </trkpt>
      <trkpt lat="43.64836" lon="1.37618">
        <ele>151</ele>
        <time>2024-04-09T16:07:08Z</time>
      </trkpt>
      <trkpt lat="43.6484" lon="1.3762">
        <ele>151</ele>
        <time>2024-04-09T16:07:09Z</time>
      </trkpt>
      <trkpt lat="43.64841" lon="1.37621">
        <ele>151</ele>
        <time>2024-04-09T16:07:10Z</time>
      </trkpt>
      <trkpt lat="43.64845" lon="1.37624">
        <ele>150</ele>
        <time>2024-04-09T16:07:11Z</time>
      </trkpt>
      <trkpt lat="43.64849" lon="1.37626">
        <ele>151</ele>
        <time>2024-04-09T16:07:12Z</time>
      </trkpt>
      <trkpt lat="43.6485" lon="1.37627">
        <ele>151</ele>
        <time>2024-04-09T16:07:13Z</time>
      </trkpt>
      <trkpt lat="43.64852" lon="1.37629">
        <ele>151</ele>
        <time>2024-04-09T16:07:14Z</time>
      </trkpt>
      <trkpt lat="43.64854" lon="1.37631">
        <ele>151</ele>
        <time>2024-04-09T16:07:15Z</time>
      </trkpt>
      <trkpt lat="43.64857" lon="1.37634">
        <ele>151</ele>
        <time>2024-04-09T16:07:16Z</time>
      </trkpt>
      <trkpt lat="43.64858" lon="1.37636">
        <ele>151</ele>
        <time>2024-04-09T16:07:17Z</time>
      </trkpt>
      <trkpt lat="43.6486" lon="1.37637">
        <ele>151</ele>
        <time>2024-04-09T16:07:18Z</time>
      </trkpt>
      <trkpt lat="43.64862" lon="1.37641">
        <ele>151</ele>
        <time>2024-04-09T16:07:19Z</time>
      </trkpt>
      <trkpt lat="43.64863" lon="1.37642">
        <ele>151</ele>
        <time>2024-04-09T16:07:20Z</time>
      </trkpt>
      <trkpt lat="43.64866" lon="1.37644">
        <ele>151</ele>
        <time>2024-04-09T16:07:21Z</time>
      </trkpt>
      <trkpt lat="43.64868" lon="1.37645">
        <ele>151</ele>
        <time>2024-04-09T16:07:22Z</time>
      </trkpt>
      <trkpt lat="43.64872" lon="1.37648">
        <ele>151</ele>
        <time>2024-04-09T16:07:23Z</time>
      </trkpt>
      <trkpt lat="43.64872" lon="1.37648">
        <ele>151</ele>
        <time>2024-04-09T16:07:24Z</time>
      </trkpt>
      <trkpt lat="43.64873" lon="1.37649">
        <ele>150</ele>
        <time>2024-04-09T16:07:25Z</time>
      </trkpt>
      <trkpt lat="43.64876" lon="1.3765">
        <ele>151</ele>
        <time>2024-04-09T16:07:26Z</time>
      </trkpt>
      <trkpt lat="43.64878" lon="1.37649">
        <ele>151</ele>
        <time>2024-04-09T16:07:27Z</time>
      </trkpt>
      <trkpt lat="43.6488" lon="1.37648">
        <ele>151</ele>
        <time>2024-04-09T16:07:28Z</time>
      </trkpt>
      <trkpt lat="43.64882" lon="1.3765">
        <ele>151</ele>
        <time>2024-04-09T16:07:29Z</time>
      </trkpt>
      <trkpt lat="43.64885" lon="1.37652">
        <ele>151</ele>
        <time>2024-04-09T16:07:30Z</time>
      </trkpt>
      <trkpt lat="43.64887" lon="1.37653">
        <ele>151</ele>
        <time>2024-04-09T16:07:31Z</time>
      </trkpt>
      <trkpt lat="43.64889" lon="1.37655">
        <ele>150</ele>
        <time>2024-04-09T16:07:32Z</time>
      </trkpt>
      <trkpt lat="43.64889" lon="1.37658">
        <ele>150</ele>
        <time>2024-04-09T16:07:33Z</time>
      </trkpt>
      <trkpt lat="43.6489" lon="1.37662">
        <ele>150</ele>
        <time>2024-04-09T16:07:34Z</time>
      </trkpt>
      <trkpt lat="43.6489" lon="1.37665">
        <ele>150</ele>
        <time>2024-04-09T16:07:35Z</time>
      </trkpt>
      <trkpt lat="43.64891" lon="1.37668">
        <ele>150</ele>
        <time>2024-04-09T16:07:36Z</time>
      </trkpt>
      <trkpt lat="43.64892" lon="1.37672">
        <ele>150</ele>
        <time>2024-04-09T16:07:37Z</time>
      </trkpt>
      <trkpt lat="43.64892" lon="1.37675">
        <ele>150</ele>
        <time>2024-04-09T16:07:38Z</time>
      </trkpt>
      <trkpt lat="43.64892" lon="1.37678">
        <ele>150</ele>
        <time>2024-04-09T16:07:39Z</time>
      </trkpt>
      <trkpt lat="43.64892" lon="1.3768">
        <ele>150</ele>
        <time>2024-04-09T16:07:40Z</time>
      </trkpt>
      <trkpt lat="43.64892" lon="1.37682">
        <ele>150</ele>
        <time>2024-04-09T16:07:41Z</time>
      </trkpt>
      <trkpt lat="43.64892" lon="1.37684">
        <ele>150</ele>
        <time>2024-04-09T16:07:42Z</time>
      </trkpt>
      <trkpt lat="43.64892" lon="1.37686">
        <ele>150</ele>
        <time>2024-04-09T16:07:43Z</time>
      </trkpt>
      <trkpt lat="43.64893" lon="1.37691">
        <ele>150</ele>
        <time>2024-04-09T16:07:44Z</time>
      </trkpt>
      <trkpt lat="43.64894" lon="1.37695">
        <ele>150</ele>
        <time>2024-04-09T16:07:45Z</time>
      </trkpt>
      <trkpt lat="43.64895" lon="1.37699">
        <ele>150</ele>
        <time>2024-04-09T16:07:46Z</time>
      </trkpt>
      <trkpt lat="43.64895" lon="1.37703">
        <ele>150</ele>
        <time>2024-04-09T16:07:47Z</time>
      </trkpt>
      <trkpt lat="43.64896" lon="1.37707">
        <ele>151</ele>
        <time>2024-04-09T16:07:48Z</time>
      </trkpt>
      <trkpt lat="43.64897" lon="1.3771">
        <ele>151</ele>
        <time>2024-04-09T16:07:49Z</time>
      </trkpt>
      <trkpt lat="43.64898" lon="1.37717">
        <ele>151</ele>
        <time>2024-04-09T16:07:50Z</time>
      </trkpt>
      <trkpt lat="43.64898" lon="1.37719">
        <ele>150</ele>
        <time>2024-04-09T16:07:51Z</time>
      </trkpt>
      <trkpt lat="43.649" lon="1.37723">
        <ele>150</ele>
        <time>2024-04-09T16:07:52Z</time>
      </trkpt>
      <trkpt lat="43.64901" lon="1.37726">
        <ele>150</ele>
        <time>2024-04-09T16:07:53Z</time>
      </trkpt>
      <trkpt lat="43.64902" lon="1.37728">
        <ele>150</ele>
        <time>2024-04-09T16:07:54Z</time>
      </trkpt>
      <trkpt lat="43.64903" lon="1.37732">
        <ele>150</ele>
        <time>2024-04-09T16:07:55Z</time>
      </trkpt>
      <trkpt lat="43.64904" lon="1.37734">
        <ele>150</ele>
        <time>2024-04-09T16:07:56Z</time>
      </trkpt>
      <trkpt lat="43.64904" lon="1.37739">
        <ele>150</ele>
        <time>2024-04-09T16:07:57Z</time>
      </trkpt>
      <trkpt lat="43.64904" lon="1.3774">
        <ele>149</ele>
        <time>2024-04-09T16:07:58Z</time>
      </trkpt>
      <trkpt lat="43.64905" lon="1.37744">
        <ele>149</ele>
        <time>2024-04-09T16:07:59Z</time>
      </trkpt>
      <trkpt lat="43.64905" lon="1.37746">
        <ele>149</ele>
        <time>2024-04-09T16:08:00Z</time>
      </trkpt>
      <trkpt lat="43.64907" lon="1.37751">
        <ele>149</ele>
        <time>2024-04-09T16:08:01Z</time>
      </trkpt>
      <trkpt lat="43.64907" lon="1.37751">
        <ele>149</ele>
        <time>2024-04-09T16:08:02Z</time>
      </trkpt>
      <trkpt lat="43.64907" lon="1.37756">
        <ele>149</ele>
        <time>2024-04-09T16:08:03Z</time>
      </trkpt>
      <trkpt lat="43.64907" lon="1.37758">
        <ele>149</ele>
        <time>2024-04-09T16:08:04Z</time>
      </trkpt>
      <trkpt lat="43.64908" lon="1.3776">
        <ele>149</ele>
        <time>2024-04-09T16:08:05Z</time>
      </trkpt>
      <trkpt lat="43.64908" lon="1.37763">
        <ele>150</ele>
        <time>2024-04-09T16:08:06Z</time>
      </trkpt>
      <trkpt lat="43.64909" lon="1.37766">
        <ele>150</ele>
        <time>2024-04-09T16:08:07Z</time>
      </trkpt>
      <trkpt lat="43.6491" lon="1.37768">
        <ele>150</ele>
        <time>2024-04-09T16:08:08Z</time>
      </trkpt>
      <trkpt lat="43.6491" lon="1.37771">
        <ele>149</ele>
        <time>2024-04-09T16:08:09Z</time>
      </trkpt>
      <trkpt lat="43.64911" lon="1.37773">
        <ele>149</ele>
        <time>2024-04-09T16:08:10Z</time>
      </trkpt>
      <trkpt lat="43.64911" lon="1.37775">
        <ele>149</ele>
        <time>2024-04-09T16:08:11Z</time>
      </trkpt>
      <trkpt lat="43.64911" lon="1.3778">
        <ele>149</ele>
        <time>2024-04-09T16:08:12Z</time>
      </trkpt>
      <trkpt lat="43.64912" lon="1.37784">
        <ele>149</ele>
        <time>2024-04-09T16:08:13Z</time>
      </trkpt>
      <trkpt lat="43.64912" lon="1.37788">
        <ele>149</ele>
        <time>2024-04-09T16:08:14Z</time>
      </trkpt>
      <trkpt lat="43.64912" lon="1.37792">
        <ele>149</ele>
        <time>2024-04-09T16:08:15Z</time>
      </trkpt>
      <trkpt lat="43.64912" lon="1.37795">
        <ele>149</ele>
        <time>2024-04-09T16:08:16Z</time>
      </trkpt>
      <trkpt lat="43.64912" lon="1.37799">
        <ele>149</ele>
        <time>2024-04-09T16:08:17Z</time>
      </trkpt>
      <trkpt lat="43.64912" lon="1.37802">
        <ele>149</ele>
        <time>2024-04-09T16:08:18Z</time>
      </trkpt>
      <trkpt lat="43.64913" lon="1.37805">
        <ele>149</ele>
        <time>2024-04-09T16:08:19Z</time>
      </trkpt>
      <trkpt lat="43.64913" lon="1.37811">
        <ele>149</ele>
        <time>2024-04-09T16:08:20Z</time>
      </trkpt>
      <trkpt lat="43.64913" lon="1.37811">
        <ele>149</ele>
        <time>2024-04-09T16:08:21Z</time>
      </trkpt>
      <trkpt lat="43.64913" lon="1.37816">
        <ele>149</ele>
        <time>2024-04-09T16:08:22Z</time>
      </trkpt>
      <trkpt lat="43.64913" lon="1.37817">
        <ele>149</ele>
        <time>2024-04-09T16:08:23Z</time>
      </trkpt>
      <trkpt lat="43.64915" lon="1.37823">
        <ele>149</ele>
        <time>2024-04-09T16:08:24Z</time>
      </trkpt>
      <trkpt lat="43.64915" lon="1.37825">
        <ele>149</ele>
        <time>2024-04-09T16:08:25Z</time>
      </trkpt>
      <trkpt lat="43.64916" lon="1.37828">
        <ele>149</ele>
        <time>2024-04-09T16:08:26Z</time>
      </trkpt>
      <trkpt lat="43.64918" lon="1.37831">
        <ele>149</ele>
        <time>2024-04-09T16:08:27Z</time>
      </trkpt>
      <trkpt lat="43.64919" lon="1.37834">
        <ele>149</ele>
        <time>2024-04-09T16:08:28Z</time>
      </trkpt>
      <trkpt lat="43.64921" lon="1.37839">
        <ele>149</ele>
        <time>2024-04-09T16:08:29Z</time>
      </trkpt>
      <trkpt lat="43.64922" lon="1.3784">
        <ele>149</ele>
        <time>2024-04-09T16:08:30Z</time>
      </trkpt>
      <trkpt lat="43.64924" lon="1.37843">
        <ele>149</ele>
        <time>2024-04-09T16:08:31Z</time>
      </trkpt>
      <trkpt lat="43.64925" lon="1.37846">
        <ele>149</ele>
        <time>2024-04-09T16:08:32Z</time>
      </trkpt>
      <trkpt lat="43.64925" lon="1.37846">
        <ele>149</ele>
        <time>2024-04-09T16:08:33Z</time>
      </trkpt>
      <trkpt lat="43.64926" lon="1.37849">
        <ele>149</ele>
        <time>2024-04-09T16:08:34Z</time>
      </trkpt>
      <trkpt lat="43.64928" lon="1.37852">
        <ele>149</ele>
        <time>2024-04-09T16:08:35Z</time>
      </trkpt>
      <trkpt lat="43.64929" lon="1.37854">
        <ele>149</ele>
        <time>2024-04-09T16:08:36Z</time>
      </trkpt>
      <trkpt lat="43.64933" lon="1.37862">
        <ele>149</ele>
        <time>2024-04-09T16:08:37Z</time>
      </trkpt>
      <trkpt lat="43.64934" lon="1.37866">
        <ele>149</ele>
        <time>2024-04-09T16:08:38Z</time>
      </trkpt>
      <trkpt lat="43.64936" lon="1.37873">
        <ele>149</ele>
        <time>2024-04-09T16:08:39Z</time>
      </trkpt>
      <trkpt lat="43.64936" lon="1.37873">
        <ele>149</ele>
        <time>2024-04-09T16:08:40Z</time>
      </trkpt>
      <trkpt lat="43.64937" lon="1.37877">
        <ele>149</ele>
        <time>2024-04-09T16:08:41Z</time>
      </trkpt>
      <trkpt lat="43.64938" lon="1.37878">
        <ele>149</ele>
        <time>2024-04-09T16:08:42Z</time>
      </trkpt>
      <trkpt lat="43.6494" lon="1.37879">
        <ele>149</ele>
        <time>2024-04-09T16:08:43Z</time>
      </trkpt>
      <trkpt lat="43.64944" lon="1.37881">
        <ele>149</ele>
        <time>2024-04-09T16:08:44Z</time>
      </trkpt>
      <trkpt lat="43.64944" lon="1.37883">
        <ele>149</ele>
        <time>2024-04-09T16:08:45Z</time>
      </trkpt>
      <trkpt lat="43.64947" lon="1.37887">
        <ele>149</ele>
        <time>2024-04-09T16:08:46Z</time>
      </trkpt>
      <trkpt lat="43.64948" lon="1.37889">
        <ele>149</ele>
        <time>2024-04-09T16:08:47Z</time>
      </trkpt>
      <trkpt lat="43.64949" lon="1.37894">
        <ele>149</ele>
        <time>2024-04-09T16:08:48Z</time>
      </trkpt>
      <trkpt lat="43.64949" lon="1.37896">
        <ele>149</ele>
        <time>2024-04-09T16:08:49Z</time>
      </trkpt>
      <trkpt lat="43.6495" lon="1.37899">
        <ele>149</ele>
        <time>2024-04-09T16:08:50Z</time>
      </trkpt>
      <trkpt lat="43.64951" lon="1.37903">
        <ele>149</ele>
        <time>2024-04-09T16:08:51Z</time>
      </trkpt>
      <trkpt lat="43.64952" lon="1.37906">
        <ele>149</ele>
        <time>2024-04-09T16:08:52Z</time>
      </trkpt>
      <trkpt lat="43.64953" lon="1.3791">
        <ele>149</ele>
        <time>2024-04-09T16:08:53Z</time>
      </trkpt>
      <trkpt lat="43.64954" lon="1.37913">
        <ele>149</ele>
        <time>2024-04-09T16:08:54Z</time>
      </trkpt>
      <trkpt lat="43.64955" lon="1.37917">
        <ele>149</ele>
        <time>2024-04-09T16:08:55Z</time>
      </trkpt>
      <trkpt lat="43.64956" lon="1.3792">
        <ele>149</ele>
        <time>2024-04-09T16:08:56Z</time>
      </trkpt>
      <trkpt lat="43.64957" lon="1.37924">
        <ele>149</ele>
        <time>2024-04-09T16:08:57Z</time>
      </trkpt>
      <trkpt lat="43.64959" lon="1.37927">
        <ele>149</ele>
        <time>2024-04-09T16:08:58Z</time>
      </trkpt>
      <trkpt lat="43.6496" lon="1.3793">
        <ele>149</ele>
        <time>2024-04-09T16:08:59Z</time>
      </trkpt>
      <trkpt lat="43.64962" lon="1.37933">
        <ele>149</ele>
        <time>2024-04-09T16:09:00Z</time>
      </trkpt>
      <trkpt lat="43.64964" lon="1.37936">
        <ele>148</ele>
        <time>2024-04-09T16:09:01Z</time>
      </trkpt>
      <trkpt lat="43.64967" lon="1.37938">
        <ele>148</ele>
        <time>2024-04-09T16:09:02Z</time>
      </trkpt>
      <trkpt lat="43.64969" lon="1.37941">
        <ele>148</ele>
        <time>2024-04-09T16:09:03Z</time>
      </trkpt>
      <trkpt lat="43.64971" lon="1.37944">
        <ele>148</ele>
        <time>2024-04-09T16:09:04Z</time>
      </trkpt>
      <trkpt lat="43.64974" lon="1.37947">
        <ele>148</ele>
        <time>2024-04-09T16:09:05Z</time>
      </trkpt>
      <trkpt lat="43.64975" lon="1.3795">
        <ele>148</ele>
        <time>2024-04-09T16:09:06Z</time>
      </trkpt>
      <trkpt lat="43.64978" lon="1.37952">
        <ele>148</ele>
        <time>2024-04-09T16:09:07Z</time>
      </trkpt>
      <trkpt lat="43.64979" lon="1.37955">
        <ele>148</ele>
        <time>2024-04-09T16:09:08Z</time>
      </trkpt>
      <trkpt lat="43.64981" lon="1.37958">
        <ele>148</ele>
        <time>2024-04-09T16:09:09Z</time>
      </trkpt>
      <trkpt lat="43.64982" lon="1.3796">
        <ele>148</ele>
        <time>2024-04-09T16:09:10Z</time>
      </trkpt>
      <trkpt lat="43.64984" lon="1.37964">
        <ele>148</ele>
        <time>2024-04-09T16:09:11Z</time>
      </trkpt>
      <trkpt lat="43.64985" lon="1.37967">
        <ele>148</ele>
        <time>2024-04-09T16:09:12Z</time>
      </trkpt>
      <trkpt lat="43.64987" lon="1.3797">
        <ele>148</ele>
        <time>2024-04-09T16:09:13Z</time>
      </trkpt>
      <trkpt lat="43.64989" lon="1.37973">
        <ele>148</ele>
        <time>2024-04-09T16:09:14Z</time>
      </trkpt>
      <trkpt lat="43.64991" lon="1.37976">
        <ele>148</ele>
        <time>2024-04-09T16:09:15Z</time>
      </trkpt>
      <trkpt lat="43.64992" lon="1.37978">
        <ele>148</ele>
        <time>2024-04-09T16:09:16Z</time>
      </trkpt>
      <trkpt lat="43.64996" lon="1.37983">
        <ele>147</ele>
        <time>2024-04-09T16:09:17Z</time>
      </trkpt>
      <trkpt lat="43.64996" lon="1.37983">
        <ele>147</ele>
        <time>2024-04-09T16:09:18Z</time>
      </trkpt>
      <trkpt lat="43.64998" lon="1.37987">
        <ele>147</ele>
        <time>2024-04-09T16:09:19Z</time>
      </trkpt>
      <trkpt lat="43.64999" lon="1.37988">
        <ele>147</ele>
        <time>2024-04-09T16:09:20Z</time>
      </trkpt>
      <trkpt lat="43.65001" lon="1.37992">
        <ele>147</ele>
        <time>2024-04-09T16:09:21Z</time>
      </trkpt>
      <trkpt lat="43.65001" lon="1.37994">
        <ele>147</ele>
        <time>2024-04-09T16:09:22Z</time>
      </trkpt>
      <trkpt lat="43.65003" lon="1.37996">
        <ele>147</ele>
        <time>2024-04-09T16:09:23Z</time>
      </trkpt>
      <trkpt lat="43.65005" lon="1.37998">
        <ele>147</ele>
        <time>2024-04-09T16:09:24Z</time>
      </trkpt>
      <trkpt lat="43.65006" lon="1.38001">
        <ele>147</ele>
        <time>2024-04-09T16:09:25Z</time>
      </trkpt>
      <trkpt lat="43.65008" lon="1.38003">
        <ele>147</ele>
        <time>2024-04-09T16:09:26Z</time>
      </trkpt>
      <trkpt lat="43.65009" lon="1.38006">
        <ele>147</ele>
        <time>2024-04-09T16:09:27Z</time>
      </trkpt>
      <trkpt lat="43.65011" lon="1.38009">
        <ele>147</ele>
        <time>2024-04-09T16:09:28Z</time>
      </trkpt>
      <trkpt lat="43.65012" lon="1.38011">
        <ele>147</ele>
        <time>2024-04-09T16:09:29Z</time>
      </trkpt>
      <trkpt lat="43.65013" lon="1.38013">
        <ele>147</ele>
        <time>2024-04-09T16:09:30Z</time>
      </trkpt>
      <trkpt lat="43.65016" lon="1.38017">
        <ele>147</ele>
        <time>2024-04-09T16:09:31Z</time>
      </trkpt>
      <trkpt lat="43.65017" lon="1.38018">
        <ele>147</ele>
        <time>2024-04-09T16:09:32Z</time>
      </trkpt>
      <trkpt lat="43.65018" lon="1.38021">
        <ele>147</ele>
        <time>2024-04-09T16:09:33Z</time>
      </trkpt>
      <trkpt lat="43.65018" lon="1.38021">
        <ele>147</ele>
        <time>2024-04-09T16:09:34Z</time>
      </trkpt>
      <trkpt lat="43.65023" lon="1.38028">
        <ele>147</ele>
        <time>2024-04-09T16:09:35Z</time>
      </trkpt>
      <trkpt lat="43.65025" lon="1.38031">
        <ele>147</ele>
        <time>2024-04-09T16:09:36Z</time>
      </trkpt>
      <trkpt lat="43.65025" lon="1.38031">
        <ele>147</ele>
        <time>2024-04-09T16:09:37Z</time>
      </trkpt>
      <trkpt lat="43.65026" lon="1.38033">
        <ele>147</ele>
        <time>2024-04-09T16:09:38Z</time>
      </trkpt>
      <trkpt lat="43.65028" lon="1.38036">
        <ele>147</ele>
        <time>2024-04-09T16:09:39Z</time>
      </trkpt>
      <trkpt lat="43.6503" lon="1.38038">
        <ele>147</ele>
        <time>2024-04-09T16:09:40Z</time>
      </trkpt>
      <trkpt lat="43.65032" lon="1.38041">
        <ele>147</ele>
        <time>2024-04-09T16:09:41Z</time>
      </trkpt>
      <trkpt lat="43.65033" lon="1.38044">
        <ele>147</ele>
        <time>2024-04-09T16:09:42Z</time>
      </trkpt>
      <trkpt lat="43.65035" lon="1.38047">
        <ele>147</ele>
        <time>2024-04-09T16:09:43Z</time>
      </trkpt>
      <trkpt lat="43.65037" lon="1.3805">
        <ele>147</ele>
        <time>2024-04-09T16:09:44Z</time>
      </trkpt>
      <trkpt lat="43.65038" lon="1.38053">
        <ele>147</ele>
        <time>2024-04-09T16:09:45Z</time>
      </trkpt>
      <trkpt lat="43.6504" lon="1.38055">
        <ele>147</ele>
        <time>2024-04-09T16:09:46Z</time>
      </trkpt>
      <trkpt lat="43.65042" lon="1.38059">
        <ele>147</ele>
        <time>2024-04-09T16:09:47Z</time>
      </trkpt>
      <trkpt lat="43.65044" lon="1.38062">
        <ele>147</ele>
        <time>2024-04-09T16:09:48Z</time>
      </trkpt>
      <trkpt lat="43.65045" lon="1.38065">
        <ele>147</ele>
        <time>2024-04-09T16:09:49Z</time>
      </trkpt>
      <trkpt lat="43.65046" lon="1.38067">
        <ele>147</ele>
        <time>2024-04-09T16:09:50Z</time>
      </trkpt>
      <trkpt lat="43.65047" lon="1.3807">
        <ele>147</ele>
        <time>2024-04-09T16:09:51Z</time>
      </trkpt>
      <trkpt lat="43.65049" lon="1.38073">
        <ele>147</ele>
        <time>2024-04-09T16:09:52Z</time>
      </trkpt>
      <trkpt lat="43.6505" lon="1.38077">
        <ele>147</ele>
        <time>2024-04-09T16:09:53Z</time>
      </trkpt>
      <trkpt lat="43.65052" lon="1.3808">
        <ele>147</ele>
        <time>2024-04-09T16:09:54Z</time>
      </trkpt>
      <trkpt lat="43.65055" lon="1.38086">
        <ele>147</ele>
        <time>2024-04-09T16:09:55Z</time>
      </trkpt>
      <trkpt lat="43.65055" lon="1.38086">
        <ele>147</ele>
        <time>2024-04-09T16:09:56Z</time>
      </trkpt>
      <trkpt lat="43.65057" lon="1.38091">
        <ele>147</ele>
        <time>2024-04-09T16:09:57Z</time>
      </trkpt>
      <trkpt lat="43.65057" lon="1.38092">
        <ele>147</ele>
        <time>2024-04-09T16:09:58Z</time>
      </trkpt>
      <trkpt lat="43.65059" lon="1.38095">
        <ele>147</ele>
        <time>2024-04-09T16:09:59Z</time>
      </trkpt>
      <trkpt lat="43.65059" lon="1.38097">
        <ele>147</ele>
        <time>2024-04-09T16:10:00Z</time>
      </trkpt>
      <trkpt lat="43.65061" lon="1.381">
        <ele>147</ele>
        <time>2024-04-09T16:10:01Z</time>
      </trkpt>
      <trkpt lat="43.65062" lon="1.38104">
        <ele>147</ele>
        <time>2024-04-09T16:10:02Z</time>
      </trkpt>
      <trkpt lat="43.65064" lon="1.38107">
        <ele>147</ele>
        <time>2024-04-09T16:10:03Z</time>
      </trkpt>
      <trkpt lat="43.65065" lon="1.38111">
        <ele>147</ele>
        <time>2024-04-09T16:10:04Z</time>
      </trkpt>
      <trkpt lat="43.65066" lon="1.38112">
        <ele>147</ele>
        <time>2024-04-09T16:10:05Z</time>
      </trkpt>
      <trkpt lat="43.65068" lon="1.38116">
        <ele>148</ele>
        <time>2024-04-09T16:10:06Z</time>
      </trkpt>
      <trkpt lat="43.6507" lon="1.38119">
        <ele>148</ele>
        <time>2024-04-09T16:10:07Z</time>
      </trkpt>
      <trkpt lat="43.65071" lon="1.38122">
        <ele>149</ele>
        <time>2024-04-09T16:10:08Z</time>
      </trkpt>
      <trkpt lat="43.65072" lon="1.38124">
        <ele>149</ele>
        <time>2024-04-09T16:10:09Z</time>
      </trkpt>
      <trkpt lat="43.65073" lon="1.38127">
        <ele>149</ele>
        <time>2024-04-09T16:10:10Z</time>
      </trkpt>
      <trkpt lat="43.65074" lon="1.3813">
        <ele>149</ele>
        <time>2024-04-09T16:10:11Z</time>
      </trkpt>
      <trkpt lat="43.65074" lon="1.38132">
        <ele>149</ele>
        <time>2024-04-09T16:10:12Z</time>
      </trkpt>
      <trkpt lat="43.65075" lon="1.38134">
        <ele>149</ele>
        <time>2024-04-09T16:10:13Z</time>
      </trkpt>
      <trkpt lat="43.65075" lon="1.38134">
        <ele>149</ele>
        <time>2024-04-09T16:10:14Z</time>
      </trkpt>
      <trkpt lat="43.65078" lon="1.38135">
        <ele>149</ele>
        <time>2024-04-09T16:10:15Z</time>
      </trkpt>
      <trkpt lat="43.65081" lon="1.38133">
        <ele>149</ele>
        <time>2024-04-09T16:10:16Z</time>
      </trkpt>
      <trkpt lat="43.65082" lon="1.38131">
        <ele>149</ele>
        <time>2024-04-09T16:10:17Z</time>
      </trkpt>
      <trkpt lat="43.65085" lon="1.38129">
        <ele>149</ele>
        <time>2024-04-09T16:10:18Z</time>
      </trkpt>
      <trkpt lat="43.65086" lon="1.38127">
        <ele>149</ele>
        <time>2024-04-09T16:10:19Z</time>
      </trkpt>
      <trkpt lat="43.65088" lon="1.38124">
        <ele>148</ele>
        <time>2024-04-09T16:10:20Z</time>
      </trkpt>
      <trkpt lat="43.6509" lon="1.38122">
        <ele>148</ele>
        <time>2024-04-09T16:10:21Z</time>
      </trkpt>
      <trkpt lat="43.65093" lon="1.38118">
        <ele>149</ele>
        <time>2024-04-09T16:10:22Z</time>
      </trkpt>
      <trkpt lat="43.65094" lon="1.38117">
        <ele>149</ele>
        <time>2024-04-09T16:10:23Z</time>
      </trkpt>
      <trkpt lat="43.65096" lon="1.38115">
        <ele>149</ele>
        <time>2024-04-09T16:10:24Z</time>
      </trkpt>
      <trkpt lat="43.65098" lon="1.38113">
        <ele>149</ele>
        <time>2024-04-09T16:10:25Z</time>
      </trkpt>
      <trkpt lat="43.651" lon="1.38112">
        <ele>149</ele>
        <time>2024-04-09T16:10:26Z</time>
      </trkpt>
      <trkpt lat="43.65103" lon="1.38109">
        <ele>149</ele>
        <time>2024-04-09T16:10:27Z</time>
      </trkpt>
      <trkpt lat="43.65104" lon="1.38108">
        <ele>149</ele>
        <time>2024-04-09T16:10:28Z</time>
      </trkpt>
      <trkpt lat="43.65106" lon="1.38106">
        <ele>149</ele>
        <time>2024-04-09T16:10:29Z</time>
      </trkpt>
      <trkpt lat="43.65109" lon="1.38103">
        <ele>149</ele>
        <time>2024-04-09T16:10:30Z</time>
      </trkpt>
      <trkpt lat="43.65111" lon="1.38102">
        <ele>149</ele>
        <time>2024-04-09T16:10:31Z</time>
      </trkpt>
      <trkpt lat="43.65113" lon="1.381">
        <ele>149</ele>
        <time>2024-04-09T16:10:32Z</time>
      </trkpt>
      <trkpt lat="43.65117" lon="1.38097">
        <ele>149</ele>
        <time>2024-04-09T16:10:33Z</time>
      </trkpt>
      <trkpt lat="43.65117" lon="1.38097">
        <ele>149</ele>
        <time>2024-04-09T16:10:34Z</time>
      </trkpt>
      <trkpt lat="43.65119" lon="1.38096">
        <ele>149</ele>
        <time>2024-04-09T16:10:35Z</time>
      </trkpt>
      <trkpt lat="43.65122" lon="1.38094">
        <ele>149</ele>
        <time>2024-04-09T16:10:36Z</time>
      </trkpt>
      <trkpt lat="43.65125" lon="1.38092">
        <ele>149</ele>
        <time>2024-04-09T16:10:37Z</time>
      </trkpt>
      <trkpt lat="43.65126" lon="1.38091">
        <ele>149</ele>
        <time>2024-04-09T16:10:38Z</time>
      </trkpt>
      <trkpt lat="43.65128" lon="1.3809">
        <ele>149</ele>
        <time>2024-04-09T16:10:39Z</time>
      </trkpt>
      <trkpt lat="43.6513" lon="1.38089">
        <ele>149</ele>
        <time>2024-04-09T16:10:40Z</time>
      </trkpt>
      <trkpt lat="43.65133" lon="1.38087">
        <ele>149</ele>
        <time>2024-04-09T16:10:41Z</time>
      </trkpt>
      <trkpt lat="43.65135" lon="1.38086">
        <ele>149</ele>
        <time>2024-04-09T16:10:42Z</time>
      </trkpt>
      <trkpt lat="43.65137" lon="1.38085">
        <ele>149</ele>
        <time>2024-04-09T16:10:43Z</time>
      </trkpt>
      <trkpt lat="43.65141" lon="1.38083">
        <ele>149</ele>
        <time>2024-04-09T16:10:44Z</time>
      </trkpt>
      <trkpt lat="43.65142" lon="1.38083">
        <ele>149</ele>
        <time>2024-04-09T16:10:45Z</time>
      </trkpt>
      <trkpt lat="43.65144" lon="1.3808">
        <ele>149</ele>
        <time>2024-04-09T16:10:46Z</time>
      </trkpt>
      <trkpt lat="43.65147" lon="1.38079">
        <ele>149</ele>
        <time>2024-04-09T16:10:47Z</time>
      </trkpt>
      <trkpt lat="43.65149" lon="1.38078">
        <ele>149</ele>
        <time>2024-04-09T16:10:48Z</time>
      </trkpt>
      <trkpt lat="43.65152" lon="1.38076">
        <ele>149</ele>
        <time>2024-04-09T16:10:49Z</time>
      </trkpt>
      <trkpt lat="43.65154" lon="1.38075">
        <ele>149</ele>
        <time>2024-04-09T16:10:50Z</time>
      </trkpt>
      <trkpt lat="43.65156" lon="1.38073">
        <ele>149</ele>
        <time>2024-04-09T16:10:51Z</time>
      </trkpt>
      <trkpt lat="43.65159" lon="1.38071">
        <ele>149</ele>
        <time>2024-04-09T16:10:52Z</time>
      </trkpt>
      <trkpt lat="43.6516" lon="1.3807">
        <ele>149</ele>
        <time>2024-04-09T16:10:53Z</time>
      </trkpt>
      <trkpt lat="43.65163" lon="1.38069">
        <ele>149</ele>
        <time>2024-04-09T16:10:54Z</time>
      </trkpt>
      <trkpt lat="43.65165" lon="1.38068">
        <ele>149</ele>
        <time>2024-04-09T16:10:55Z</time>
      </trkpt>
      <trkpt lat="43.65168" lon="1.38066">
        <ele>149</ele>
        <time>2024-04-09T16:10:56Z</time>
      </trkpt>
      <trkpt lat="43.65171" lon="1.38065">
        <ele>149</ele>
        <time>2024-04-09T16:10:57Z</time>
      </trkpt>
      <trkpt lat="43.65174" lon="1.38064">
        <ele>149</ele>
        <time>2024-04-09T16:10:58Z</time>
      </trkpt>
      <trkpt lat="43.65176" lon="1.38062">
        <ele>149</ele>
        <time>2024-04-09T16:10:59Z</time>
      </trkpt>
      <trkpt lat="43.65176" lon="1.38062">
        <ele>149</ele>
        <time>2024-04-09T16:11:00Z</time>
      </trkpt>
      <trkpt lat="43.6518" lon="1.3806">
        <ele>149</ele>
        <time>2024-04-09T16:11:01Z</time>
      </trkpt>
      <trkpt lat="43.65184" lon="1.38058">
        <ele>149</ele>
        <time>2024-04-09T16:11:02Z</time>
      </trkpt>
      <trkpt lat="43.65186" lon="1.38055">
        <ele>149</ele>
        <time>2024-04-09T16:11:03Z</time>
      </trkpt>
      <trkpt lat="43.65189" lon="1.38053">
        <ele>149</ele>
        <time>2024-04-09T16:11:04Z</time>
      </trkpt>
      <trkpt lat="43.6519" lon="1.38052">
        <ele>149</ele>
        <time>2024-04-09T16:11:05Z</time>
      </trkpt>
      <trkpt lat="43.65194" lon="1.3805">
        <ele>149</ele>
        <time>2024-04-09T16:11:06Z</time>
      </trkpt>
      <trkpt lat="43.65195" lon="1.3805">
        <ele>149</ele>
        <time>2024-04-09T16:11:07Z</time>
      </trkpt>
      <trkpt lat="43.65197" lon="1.38048">
        <ele>149</ele>
        <time>2024-04-09T16:11:08Z</time>
      </trkpt>
      <trkpt lat="43.65199" lon="1.38046">
        <ele>149</ele>
        <time>2024-04-09T16:11:09Z</time>
      </trkpt>
      <trkpt lat="43.65201" lon="1.38044">
        <ele>149</ele>
        <time>2024-04-09T16:11:10Z</time>
      </trkpt>
      <trkpt lat="43.65204" lon="1.38043">
        <ele>150</ele>
        <time>2024-04-09T16:11:11Z</time>
      </trkpt>
      <trkpt lat="43.65206" lon="1.38041">
        <ele>150</ele>
        <time>2024-04-09T16:11:12Z</time>
      </trkpt>
      <trkpt lat="43.65209" lon="1.3804">
        <ele>150</ele>
        <time>2024-04-09T16:11:13Z</time>
      </trkpt>
      <trkpt lat="43.65211" lon="1.38039">
        <ele>149</ele>
        <time>2024-04-09T16:11:14Z</time>
      </trkpt>
      <trkpt lat="43.65213" lon="1.38038">
        <ele>149</ele>
        <time>2024-04-09T16:11:15Z</time>
      </trkpt>
      <trkpt lat="43.65217" lon="1.38035">
        <ele>149</ele>
        <time>2024-04-09T16:11:16Z</time>
      </trkpt>
      <trkpt lat="43.65219" lon="1.38035">
        <ele>149</ele>
        <time>2024-04-09T16:11:17Z</time>
      </trkpt>
      <trkpt lat="43.65223" lon="1.38037">
        <ele>149</ele>
        <time>2024-04-09T16:11:18Z</time>
      </trkpt>
      <trkpt lat="43.65224" lon="1.38038">
        <ele>149</ele>
        <time>2024-04-09T16:11:19Z</time>
      </trkpt>
      <trkpt lat="43.65227" lon="1.38044">
        <ele>149</ele>
        <time>2024-04-09T16:11:20Z</time>
      </trkpt>
      <trkpt lat="43.65228" lon="1.38047">
        <ele>149</ele>
        <time>2024-04-09T16:11:21Z</time>
      </trkpt>
      <trkpt lat="43.65229" lon="1.38051">
        <ele>149</ele>
        <time>2024-04-09T16:11:22Z</time>
      </trkpt>
      <trkpt lat="43.6523" lon="1.38056">
        <ele>149</ele>
        <time>2024-04-09T16:11:23Z</time>
      </trkpt>
      <trkpt lat="43.65231" lon="1.38058">
        <ele>149</ele>
        <time>2024-04-09T16:11:24Z</time>
      </trkpt>
      <trkpt lat="43.65232" lon="1.38061">
        <ele>149</ele>
        <time>2024-04-09T16:11:25Z</time>
      </trkpt>
      <trkpt lat="43.65233" lon="1.38065">
        <ele>149</ele>
        <time>2024-04-09T16:11:26Z</time>
      </trkpt>
      <trkpt lat="43.65234" lon="1.38067">
        <ele>149</ele>
        <time>2024-04-09T16:11:27Z</time>
      </trkpt>
      <trkpt lat="43.65235" lon="1.3807">
        <ele>149</ele>
        <time>2024-04-09T16:11:28Z</time>
      </trkpt>
      <trkpt lat="43.65237" lon="1.38076">
        <ele>149</ele>
        <time>2024-04-09T16:11:29Z</time>
      </trkpt>
      <trkpt lat="43.65237" lon="1.38077">
        <ele>149</ele>
        <time>2024-04-09T16:11:30Z</time>
      </trkpt>
      <trkpt lat="43.65238" lon="1.3808">
        <ele>149</ele>
        <time>2024-04-09T16:11:31Z</time>
      </trkpt>
      <trkpt lat="43.65239" lon="1.38084">
        <ele>149</ele>
        <time>2024-04-09T16:11:32Z</time>
      </trkpt>
      <trkpt lat="43.65241" lon="1.38087">
        <ele>149</ele>
        <time>2024-04-09T16:11:33Z</time>
      </trkpt>
      <trkpt lat="43.65242" lon="1.3809">
        <ele>149</ele>
        <time>2024-04-09T16:11:34Z</time>
      </trkpt>
      <trkpt lat="43.65243" lon="1.38095">
        <ele>149</ele>
        <time>2024-04-09T16:11:35Z</time>
      </trkpt>
      <trkpt lat="43.65244" lon="1.38097">
        <ele>149</ele>
        <time>2024-04-09T16:11:36Z</time>
      </trkpt>
      <trkpt lat="43.65245" lon="1.38102">
        <ele>149</ele>
        <time>2024-04-09T16:11:37Z</time>
      </trkpt>
      <trkpt lat="43.65246" lon="1.38104">
        <ele>149</ele>
        <time>2024-04-09T16:11:38Z</time>
      </trkpt>
      <trkpt lat="43.65247" lon="1.38107">
        <ele>149</ele>
        <time>2024-04-09T16:11:39Z</time>
      </trkpt>
      <trkpt lat="43.65248" lon="1.38111">
        <ele>149</ele>
        <time>2024-04-09T16:11:40Z</time>
      </trkpt>
      <trkpt lat="43.65249" lon="1.38114">
        <ele>149</ele>
        <time>2024-04-09T16:11:41Z</time>
      </trkpt>
      <trkpt lat="43.6525" lon="1.38119">
        <ele>149</ele>
        <time>2024-04-09T16:11:42Z</time>
      </trkpt>
      <trkpt lat="43.65251" lon="1.3812">
        <ele>149</ele>
        <time>2024-04-09T16:11:43Z</time>
      </trkpt>
      <trkpt lat="43.65251" lon="1.38124">
        <ele>149</ele>
        <time>2024-04-09T16:11:44Z</time>
      </trkpt>
      <trkpt lat="43.65252" lon="1.38128">
        <ele>149</ele>
        <time>2024-04-09T16:11:45Z</time>
      </trkpt>
      <trkpt lat="43.65251" lon="1.38132">
        <ele>149</ele>
        <time>2024-04-09T16:11:46Z</time>
      </trkpt>
      <trkpt lat="43.65249" lon="1.38135">
        <ele>148</ele>
        <time>2024-04-09T16:11:47Z</time>
      </trkpt>
      <trkpt lat="43.65245" lon="1.38138">
        <ele>149</ele>
        <time>2024-04-09T16:11:48Z</time>
      </trkpt>
      <trkpt lat="43.65243" lon="1.38139">
        <ele>149</ele>
        <time>2024-04-09T16:11:49Z</time>
      </trkpt>
      <trkpt lat="43.65242" lon="1.3814">
        <ele>150</ele>
        <time>2024-04-09T16:11:50Z</time>
      </trkpt>
      <trkpt lat="43.65236" lon="1.38143">
        <ele>150</ele>
        <time>2024-04-09T16:11:51Z</time>
      </trkpt>
      <trkpt lat="43.65236" lon="1.38143">
        <ele>150</ele>
        <time>2024-04-09T16:11:52Z</time>
      </trkpt>
      <trkpt lat="43.65232" lon="1.38145">
        <ele>150</ele>
        <time>2024-04-09T16:11:53Z</time>
      </trkpt>
      <trkpt lat="43.65231" lon="1.38146">
        <ele>149</ele>
        <time>2024-04-09T16:11:54Z</time>
      </trkpt>
      <trkpt lat="43.65229" lon="1.38148">
        <ele>149</ele>
        <time>2024-04-09T16:11:55Z</time>
      </trkpt>
      <trkpt lat="43.65226" lon="1.38149">
        <ele>149</ele>
        <time>2024-04-09T16:11:56Z</time>
      </trkpt>
      <trkpt lat="43.65224" lon="1.38151">
        <ele>149</ele>
        <time>2024-04-09T16:11:57Z</time>
      </trkpt>
      <trkpt lat="43.65221" lon="1.38153">
        <ele>149</ele>
        <time>2024-04-09T16:11:58Z</time>
      </trkpt>
      <trkpt lat="43.65219" lon="1.38154">
        <ele>149</ele>
        <time>2024-04-09T16:11:59Z</time>
      </trkpt>
      <trkpt lat="43.65216" lon="1.38157">
        <ele>149</ele>
        <time>2024-04-09T16:12:00Z</time>
      </trkpt>
      <trkpt lat="43.65215" lon="1.38158">
        <ele>149</ele>
        <time>2024-04-09T16:12:01Z</time>
      </trkpt>
      <trkpt lat="43.65212" lon="1.38159">
        <ele>149</ele>
        <time>2024-04-09T16:12:02Z</time>
      </trkpt>
      <trkpt lat="43.6521" lon="1.38161">
        <ele>149</ele>
        <time>2024-04-09T16:12:03Z</time>
      </trkpt>
      <trkpt lat="43.65208" lon="1.38163">
        <ele>149</ele>
        <time>2024-04-09T16:12:04Z</time>
      </trkpt>
      <trkpt lat="43.65205" lon="1.38165">
        <ele>149</ele>
        <time>2024-04-09T16:12:05Z</time>
      </trkpt>
      <trkpt lat="43.65203" lon="1.38167">
        <ele>149</ele>
        <time>2024-04-09T16:12:06Z</time>
      </trkpt>
      <trkpt lat="43.65201" lon="1.38169">
        <ele>149</ele>
        <time>2024-04-09T16:12:07Z</time>
      </trkpt>
      <trkpt lat="43.65197" lon="1.38173">
        <ele>149</ele>
        <time>2024-04-09T16:12:08Z</time>
      </trkpt>
      <trkpt lat="43.65197" lon="1.38173">
        <ele>149</ele>
        <time>2024-04-09T16:12:09Z</time>
      </trkpt>
      <trkpt lat="43.65194" lon="1.38176">
        <ele>149</ele>
        <time>2024-04-09T16:12:10Z</time>
      </trkpt>
      <trkpt lat="43.65192" lon="1.38178">
        <ele>149</ele>
        <time>2024-04-09T16:12:11Z</time>
      </trkpt>
      <trkpt lat="43.6519" lon="1.3818">
        <ele>149</ele>
        <time>2024-04-09T16:12:12Z</time>
      </trkpt>
      <trkpt lat="43.65187" lon="1.38183">
        <ele>149</ele>
        <time>2024-04-09T16:12:13Z</time>
      </trkpt>
      <trkpt lat="43.65185" lon="1.38185">
        <ele>149</ele>
        <time>2024-04-09T16:12:14Z</time>
      </trkpt>
      <trkpt lat="43.65182" lon="1.38188">
        <ele>149</ele>
        <time>2024-04-09T16:12:15Z</time>
      </trkpt>
      <trkpt lat="43.65181" lon="1.38189">
        <ele>149</ele>
        <time>2024-04-09T16:12:16Z</time>
      </trkpt>
      <trkpt lat="43.65177" lon="1.38193">
        <ele>149</ele>
        <time>2024-04-09T16:12:17Z</time>
      </trkpt>
      <trkpt lat="43.65176" lon="1.38194">
        <ele>149</ele>
        <time>2024-04-09T16:12:18Z</time>
      </trkpt>
      <trkpt lat="43.65172" lon="1.38199">
        <ele>148</ele>
        <time>2024-04-09T16:12:19Z</time>
      </trkpt>
      <trkpt lat="43.65172" lon="1.38199">
        <ele>148</ele>
        <time>2024-04-09T16:12:20Z</time>
      </trkpt>
      <trkpt lat="43.65171" lon="1.38202">
        <ele>148</ele>
        <time>2024-04-09T16:12:21Z</time>
      </trkpt>
      <trkpt lat="43.65169" lon="1.38205">
        <ele>148</ele>
        <time>2024-04-09T16:12:22Z</time>
      </trkpt>
      <trkpt lat="43.65169" lon="1.38209">
        <ele>148</ele>
        <time>2024-04-09T16:12:23Z</time>
      </trkpt>
      <trkpt lat="43.65168" lon="1.38212">
        <ele>148</ele>
        <time>2024-04-09T16:12:24Z</time>
      </trkpt>
      <trkpt lat="43.65168" lon="1.38215">
        <ele>148</ele>
        <time>2024-04-09T16:12:25Z</time>
      </trkpt>
      <trkpt lat="43.65169" lon="1.38223">
        <ele>148</ele>
        <time>2024-04-09T16:12:26Z</time>
      </trkpt>
      <trkpt lat="43.65169" lon="1.38227">
        <ele>148</ele>
        <time>2024-04-09T16:12:27Z</time>
      </trkpt>
      <trkpt lat="43.65169" lon="1.38227">
        <ele>148</ele>
        <time>2024-04-09T16:12:28Z</time>
      </trkpt>
      <trkpt lat="43.6517" lon="1.38233">
        <ele>148</ele>
        <time>2024-04-09T16:12:29Z</time>
      </trkpt>
      <trkpt lat="43.6517" lon="1.38235">
        <ele>148</ele>
        <time>2024-04-09T16:12:30Z</time>
      </trkpt>
      <trkpt lat="43.65172" lon="1.3824">
        <ele>148</ele>
        <time>2024-04-09T16:12:31Z</time>
      </trkpt>
      <trkpt lat="43.65172" lon="1.38242">
        <ele>148</ele>
        <time>2024-04-09T16:12:32Z</time>
      </trkpt>
      <trkpt lat="43.65173" lon="1.38246">
        <ele>148</ele>
        <time>2024-04-09T16:12:33Z</time>
      </trkpt>
      <trkpt lat="43.65173" lon="1.3825">
        <ele>148</ele>
        <time>2024-04-09T16:12:34Z</time>
      </trkpt>
      <trkpt lat="43.65174" lon="1.38253">
        <ele>147</ele>
        <time>2024-04-09T16:12:35Z</time>
      </trkpt>
      <trkpt lat="43.65174" lon="1.38257">
        <ele>147</ele>
        <time>2024-04-09T16:12:36Z</time>
      </trkpt>
      <trkpt lat="43.65175" lon="1.3826">
        <ele>147</ele>
        <time>2024-04-09T16:12:37Z</time>
      </trkpt>
      <trkpt lat="43.65176" lon="1.38265">
        <ele>147</ele>
        <time>2024-04-09T16:12:38Z</time>
      </trkpt>
      <trkpt lat="43.65176" lon="1.38267">
        <ele>147</ele>
        <time>2024-04-09T16:12:39Z</time>
      </trkpt>
      <trkpt lat="43.65177" lon="1.3827">
        <ele>148</ele>
        <time>2024-04-09T16:12:40Z</time>
      </trkpt>
      <trkpt lat="43.65178" lon="1.38274">
        <ele>148</ele>
        <time>2024-04-09T16:12:41Z</time>
      </trkpt>
      <trkpt lat="43.65179" lon="1.38277">
        <ele>148</ele>
        <time>2024-04-09T16:12:42Z</time>
      </trkpt>
      <trkpt lat="43.6518" lon="1.38281">
        <ele>147</ele>
        <time>2024-04-09T16:12:43Z</time>
      </trkpt>
      <trkpt lat="43.6518" lon="1.38286">
        <ele>147</ele>
        <time>2024-04-09T16:12:44Z</time>
      </trkpt>
      <trkpt lat="43.65181" lon="1.38288">
        <ele>147</ele>
        <time>2024-04-09T16:12:45Z</time>
      </trkpt>
      <trkpt lat="43.65182" lon="1.38294">
        <ele>147</ele>
        <time>2024-04-09T16:12:46Z</time>
      </trkpt>
      <trkpt lat="43.65182" lon="1.38294">
        <ele>147</ele>
        <time>2024-04-09T16:12:47Z</time>
      </trkpt>
      <trkpt lat="43.65184" lon="1.383">
        <ele>147</ele>
        <time>2024-04-09T16:12:48Z</time>
      </trkpt>
      <trkpt lat="43.65185" lon="1.38301">
        <ele>147</ele>
        <time>2024-04-09T16:12:49Z</time>
      </trkpt>
      <trkpt lat="43.65185" lon="1.38305">
        <ele>147</ele>
        <time>2024-04-09T16:12:50Z</time>
      </trkpt>
      <trkpt lat="43.65186" lon="1.38309">
        <ele>147</ele>
        <time>2024-04-09T16:12:51Z</time>
      </trkpt>
      <trkpt lat="43.65187" lon="1.38312">
        <ele>147</ele>
        <time>2024-04-09T16:12:52Z</time>
      </trkpt>
      <trkpt lat="43.65188" lon="1.38317">
        <ele>147</ele>
        <time>2024-04-09T16:12:53Z</time>
      </trkpt>
      <trkpt lat="43.65188" lon="1.38319">
        <ele>147</ele>
        <time>2024-04-09T16:12:54Z</time>
      </trkpt>
      <trkpt lat="43.65189" lon="1.38324">
        <ele>147</ele>
        <time>2024-04-09T16:12:55Z</time>
      </trkpt>
      <trkpt lat="43.65189" lon="1.38326">
        <ele>147</ele>
        <time>2024-04-09T16:12:56Z</time>
      </trkpt>
      <trkpt lat="43.6519" lon="1.3833">
        <ele>147</ele>
        <time>2024-04-09T16:12:57Z</time>
      </trkpt>
      <trkpt lat="43.6519" lon="1.38335">
        <ele>147</ele>
        <time>2024-04-09T16:12:58Z</time>
      </trkpt>
      <trkpt lat="43.65191" lon="1.38337">
        <ele>147</ele>
        <time>2024-04-09T16:12:59Z</time>
      </trkpt>
      <trkpt lat="43.65191" lon="1.38342">
        <ele>147</ele>
        <time>2024-04-09T16:13:00Z</time>
      </trkpt>
      <trkpt lat="43.65192" lon="1.38344">
        <ele>147</ele>
        <time>2024-04-09T16:13:01Z</time>
      </trkpt>
      <trkpt lat="43.65192" lon="1.38349">
        <ele>147</ele>
        <time>2024-04-09T16:13:02Z</time>
      </trkpt>
      <trkpt lat="43.65192" lon="1.38351">
        <ele>147</ele>
        <time>2024-04-09T16:13:03Z</time>
      </trkpt>
      <trkpt lat="43.65192" lon="1.38355">
        <ele>147</ele>
        <time>2024-04-09T16:13:04Z</time>
      </trkpt>
      <trkpt lat="43.65193" lon="1.38362">
        <ele>147</ele>
        <time>2024-04-09T16:13:05Z</time>
      </trkpt>
      <trkpt lat="43.65193" lon="1.38362">
        <ele>147</ele>
        <time>2024-04-09T16:13:06Z</time>
      </trkpt>
      <trkpt lat="43.65193" lon="1.38365">
        <ele>147</ele>
        <time>2024-04-09T16:13:07Z</time>
      </trkpt>
      <trkpt lat="43.65193" lon="1.38368">
        <ele>147</ele>
        <time>2024-04-09T16:13:08Z</time>
      </trkpt>
      <trkpt lat="43.65194" lon="1.38374">
        <ele>148</ele>
        <time>2024-04-09T16:13:09Z</time>
      </trkpt>
      <trkpt lat="43.65194" lon="1.38376">
        <ele>148</ele>
        <time>2024-04-09T16:13:10Z</time>
      </trkpt>
      <trkpt lat="43.65195" lon="1.3838">
        <ele>148</ele>
        <time>2024-04-09T16:13:11Z</time>
      </trkpt>
      <trkpt lat="43.65196" lon="1.38383">
        <ele>148</ele>
        <time>2024-04-09T16:13:12Z</time>
      </trkpt>
      <trkpt lat="43.65197" lon="1.38387">
        <ele>148</ele>
        <time>2024-04-09T16:13:13Z</time>
      </trkpt>
      <trkpt lat="43.65198" lon="1.38391">
        <ele>147</ele>
        <time>2024-04-09T16:13:14Z</time>
      </trkpt>
      <trkpt lat="43.652" lon="1.38395">
        <ele>147</ele>
        <time>2024-04-09T16:13:15Z</time>
      </trkpt>
      <trkpt lat="43.65201" lon="1.38398">
        <ele>147</ele>
        <time>2024-04-09T16:13:16Z</time>
      </trkpt>
      <trkpt lat="43.65203" lon="1.38401">
        <ele>147</ele>
        <time>2024-04-09T16:13:17Z</time>
      </trkpt>
      <trkpt lat="43.65205" lon="1.38404">
        <ele>147</ele>
        <time>2024-04-09T16:13:18Z</time>
      </trkpt>
      <trkpt lat="43.65207" lon="1.38408">
        <ele>146</ele>
        <time>2024-04-09T16:13:19Z</time>
      </trkpt>
      <trkpt lat="43.6521" lon="1.38413">
        <ele>146</ele>
        <time>2024-04-09T16:13:20Z</time>
      </trkpt>
      <trkpt lat="43.65211" lon="1.38414">
        <ele>146</ele>
        <time>2024-04-09T16:13:21Z</time>
      </trkpt>
      <trkpt lat="43.65214" lon="1.38419">
        <ele>146</ele>
        <time>2024-04-09T16:13:22Z</time>
      </trkpt>
      <trkpt lat="43.65215" lon="1.38421">
        <ele>146</ele>
        <time>2024-04-09T16:13:23Z</time>
      </trkpt>
      <trkpt lat="43.65218" lon="1.38428">
        <ele>146</ele>
        <time>2024-04-09T16:13:24Z</time>
      </trkpt>
      <trkpt lat="43.65218" lon="1.38428">
        <ele>146</ele>
        <time>2024-04-09T16:13:25Z</time>
      </trkpt>
      <trkpt lat="43.65221" lon="1.38433">
        <ele>146</ele>
        <time>2024-04-09T16:13:26Z</time>
      </trkpt>
      <trkpt lat="43.65221" lon="1.38435">
        <ele>146</ele>
        <time>2024-04-09T16:13:27Z</time>
      </trkpt>
      <trkpt lat="43.65222" lon="1.38438">
        <ele>145</ele>
        <time>2024-04-09T16:13:28Z</time>
      </trkpt>
      <trkpt lat="43.65224" lon="1.38441">
        <ele>145</ele>
        <time>2024-04-09T16:13:29Z</time>
      </trkpt>
      <trkpt lat="43.65225" lon="1.38444">
        <ele>145</ele>
        <time>2024-04-09T16:13:30Z</time>
      </trkpt>
      <trkpt lat="43.65226" lon="1.38446">
        <ele>145</ele>
        <time>2024-04-09T16:13:31Z</time>
      </trkpt>
      <trkpt lat="43.65227" lon="1.38449">
        <ele>145</ele>
        <time>2024-04-09T16:13:32Z</time>
      </trkpt>
      <trkpt lat="43.65228" lon="1.38452">
        <ele>145</ele>
        <time>2024-04-09T16:13:33Z</time>
      </trkpt>
      <trkpt lat="43.65229" lon="1.38453">
        <ele>145</ele>
        <time>2024-04-09T16:13:34Z</time>
      </trkpt>
      <trkpt lat="43.65231" lon="1.38459">
        <ele>145</ele>
        <time>2024-04-09T16:13:35Z</time>
      </trkpt>
      <trkpt lat="43.65231" lon="1.38459">
        <ele>145</ele>
        <time>2024-04-09T16:13:36Z</time>
      </trkpt>
      <trkpt lat="43.65232" lon="1.38463">
        <ele>145</ele>
        <time>2024-04-09T16:13:37Z</time>
      </trkpt>
      <trkpt lat="43.65233" lon="1.38466">
        <ele>145</ele>
        <time>2024-04-09T16:13:38Z</time>
      </trkpt>
      <trkpt lat="43.65234" lon="1.38469">
        <ele>145</ele>
        <time>2024-04-09T16:13:39Z</time>
      </trkpt>
      <trkpt lat="43.65236" lon="1.38474">
        <ele>145</ele>
        <time>2024-04-09T16:13:40Z</time>
      </trkpt>
      <trkpt lat="43.65236" lon="1.38476">
        <ele>145</ele>
        <time>2024-04-09T16:13:41Z</time>
      </trkpt>
      <trkpt lat="43.65237" lon="1.38479">
        <ele>145</ele>
        <time>2024-04-09T16:13:42Z</time>
      </trkpt>
      <trkpt lat="43.65239" lon="1.38486">
        <ele>145</ele>
        <time>2024-04-09T16:13:43Z</time>
      </trkpt>
      <trkpt lat="43.65239" lon="1.38486">
        <ele>145</ele>
        <time>2024-04-09T16:13:44Z</time>
      </trkpt>
      <trkpt lat="43.6524" lon="1.38491">
        <ele>145</ele>
        <time>2024-04-09T16:13:45Z</time>
      </trkpt>
      <trkpt lat="43.65241" lon="1.38493">
        <ele>145</ele>
        <time>2024-04-09T16:13:46Z</time>
      </trkpt>
      <trkpt lat="43.65242" lon="1.38499">
        <ele>145</ele>
        <time>2024-04-09T16:13:47Z</time>
      </trkpt>
      <trkpt lat="43.65242" lon="1.385">
        <ele>145</ele>
        <time>2024-04-09T16:13:48Z</time>
      </trkpt>
      <trkpt lat="43.65243" lon="1.38503">
        <ele>145</ele>
        <time>2024-04-09T16:13:49Z</time>
      </trkpt>
      <trkpt lat="43.65245" lon="1.38507">
        <ele>145</ele>
        <time>2024-04-09T16:13:50Z</time>
      </trkpt>
      <trkpt lat="43.65246" lon="1.3851">
        <ele>145</ele>
        <time>2024-04-09T16:13:51Z</time>
      </trkpt>
      <trkpt lat="43.65248" lon="1.38514">
        <ele>145</ele>
        <time>2024-04-09T16:13:52Z</time>
      </trkpt>
      <trkpt lat="43.65249" lon="1.38518">
        <ele>145</ele>
        <time>2024-04-09T16:13:53Z</time>
      </trkpt>
      <trkpt lat="43.65251" lon="1.38523">
        <ele>145</ele>
        <time>2024-04-09T16:13:54Z</time>
      </trkpt>
      <trkpt lat="43.65251" lon="1.38524">
        <ele>145</ele>
        <time>2024-04-09T16:13:55Z</time>
      </trkpt>
      <trkpt lat="43.65252" lon="1.38527">
        <ele>145</ele>
        <time>2024-04-09T16:13:56Z</time>
      </trkpt>
      <trkpt lat="43.65255" lon="1.38533">
        <ele>145</ele>
        <time>2024-04-09T16:13:57Z</time>
      </trkpt>
      <trkpt lat="43.65255" lon="1.38535">
        <ele>144</ele>
        <time>2024-04-09T16:13:58Z</time>
      </trkpt>
      <trkpt lat="43.65257" lon="1.38538">
        <ele>144</ele>
        <time>2024-04-09T16:13:59Z</time>
      </trkpt>
      <trkpt lat="43.65258" lon="1.38542">
        <ele>144</ele>
        <time>2024-04-09T16:14:00Z</time>
      </trkpt>
      <trkpt lat="43.65259" lon="1.38546">
        <ele>144</ele>
        <time>2024-04-09T16:14:01Z</time>
      </trkpt>
      <trkpt lat="43.65261" lon="1.38552">
        <ele>144</ele>
        <time>2024-04-09T16:14:02Z</time>
      </trkpt>
      <trkpt lat="43.65261" lon="1.38552">
        <ele>144</ele>
        <time>2024-04-09T16:14:03Z</time>
      </trkpt>
      <trkpt lat="43.65262" lon="1.38557">
        <ele>144</ele>
        <time>2024-04-09T16:14:04Z</time>
      </trkpt>
      <trkpt lat="43.65263" lon="1.38559">
        <ele>144</ele>
        <time>2024-04-09T16:14:05Z</time>
      </trkpt>
      <trkpt lat="43.65264" lon="1.38562">
        <ele>144</ele>
        <time>2024-04-09T16:14:06Z</time>
      </trkpt>
      <trkpt lat="43.65265" lon="1.38565">
        <ele>144</ele>
        <time>2024-04-09T16:14:07Z</time>
      </trkpt>
      <trkpt lat="43.65266" lon="1.38569">
        <ele>144</ele>
        <time>2024-04-09T16:14:08Z</time>
      </trkpt>
      <trkpt lat="43.65267" lon="1.38572">
        <ele>144</ele>
        <time>2024-04-09T16:14:09Z</time>
      </trkpt>
      <trkpt lat="43.65268" lon="1.38575">
        <ele>144</ele>
        <time>2024-04-09T16:14:10Z</time>
      </trkpt>
      <trkpt lat="43.65268" lon="1.3858">
        <ele>144</ele>
        <time>2024-04-09T16:14:11Z</time>
      </trkpt>
      <trkpt lat="43.65269" lon="1.38582">
        <ele>144</ele>
        <time>2024-04-09T16:14:12Z</time>
      </trkpt>
      <trkpt lat="43.65269" lon="1.38585">
        <ele>144</ele>
        <time>2024-04-09T16:14:13Z</time>
      </trkpt>
      <trkpt lat="43.6527" lon="1.38589">
        <ele>144</ele>
        <time>2024-04-09T16:14:14Z</time>
      </trkpt>
      <trkpt lat="43.65271" lon="1.38593">
        <ele>144</ele>
        <time>2024-04-09T16:14:15Z</time>
      </trkpt>
      <trkpt lat="43.65272" lon="1.38596">
        <ele>144</ele>
        <time>2024-04-09T16:14:16Z</time>
      </trkpt>
      <trkpt lat="43.65275" lon="1.38601">
        <ele>145</ele>
        <time>2024-04-09T16:14:17Z</time>
      </trkpt>
      <trkpt lat="43.65276" lon="1.38603">
        <ele>145</ele>
        <time>2024-04-09T16:14:18Z</time>
      </trkpt>
      <trkpt lat="43.65278" lon="1.38606">
        <ele>145</ele>
        <time>2024-04-09T16:14:19Z</time>
      </trkpt>
      <trkpt lat="43.65279" lon="1.38609">
        <ele>145</ele>
        <time>2024-04-09T16:14:20Z</time>
      </trkpt>
      <trkpt lat="43.65283" lon="1.38613">
        <ele>144</ele>
        <time>2024-04-09T16:14:21Z</time>
      </trkpt>
      <trkpt lat="43.65283" lon="1.38613">
        <ele>144</ele>
        <time>2024-04-09T16:14:22Z</time>
      </trkpt>
      <trkpt lat="43.65286" lon="1.38616">
        <ele>144</ele>
        <time>2024-04-09T16:14:23Z</time>
      </trkpt>
      <trkpt lat="43.65287" lon="1.38618">
        <ele>144</ele>
        <time>2024-04-09T16:14:24Z</time>
      </trkpt>
      <trkpt lat="43.65289" lon="1.38621">
        <ele>144</ele>
        <time>2024-04-09T16:14:25Z</time>
      </trkpt>
      <trkpt lat="43.65292" lon="1.38625">
        <ele>145</ele>
        <time>2024-04-09T16:14:26Z</time>
      </trkpt>
      <trkpt lat="43.65292" lon="1.38627">
        <ele>145</ele>
        <time>2024-04-09T16:14:27Z</time>
      </trkpt>
      <trkpt lat="43.65294" lon="1.3863">
        <ele>145</ele>
        <time>2024-04-09T16:14:28Z</time>
      </trkpt>
      <trkpt lat="43.65296" lon="1.38633">
        <ele>145</ele>
        <time>2024-04-09T16:14:29Z</time>
      </trkpt>
      <trkpt lat="43.65297" lon="1.38636">
        <ele>145</ele>
        <time>2024-04-09T16:14:30Z</time>
      </trkpt>
      <trkpt lat="43.65298" lon="1.38639">
        <ele>145</ele>
        <time>2024-04-09T16:14:31Z</time>
      </trkpt>
      <trkpt lat="43.65299" lon="1.38642">
        <ele>145</ele>
        <time>2024-04-09T16:14:32Z</time>
      </trkpt>
      <trkpt lat="43.653" lon="1.38646">
        <ele>145</ele>
        <time>2024-04-09T16:14:33Z</time>
      </trkpt>
      <trkpt lat="43.65302" lon="1.38651">
        <ele>145</ele>
        <time>2024-04-09T16:14:34Z</time>
      </trkpt>
      <trkpt lat="43.65302" lon="1.38653">
        <ele>145</ele>
        <time>2024-04-09T16:14:35Z</time>
      </trkpt>
      <trkpt lat="43.65303" lon="1.38658">
        <ele>145</ele>
        <time>2024-04-09T16:14:36Z</time>
      </trkpt>
      <trkpt lat="43.65304" lon="1.3866">
        <ele>145</ele>
        <time>2024-04-09T16:14:37Z</time>
      </trkpt>
      <trkpt lat="43.65305" lon="1.38663">
        <ele>145</ele>
        <time>2024-04-09T16:14:38Z</time>
      </trkpt>
      <trkpt lat="43.65306" lon="1.38667">
        <ele>145</ele>
        <time>2024-04-09T16:14:39Z</time>
      </trkpt>
      <trkpt lat="43.65309" lon="1.38673">
        <ele>145</ele>
        <time>2024-04-09T16:14:40Z</time>
      </trkpt>
      <trkpt lat="43.65309" lon="1.38673">
        <ele>145</ele>
        <time>2024-04-09T16:14:41Z</time>
      </trkpt>
      <trkpt lat="43.65309" lon="1.38677">
        <ele>145</ele>
        <time>2024-04-09T16:14:42Z</time>
      </trkpt>
      <trkpt lat="43.65311" lon="1.38679">
        <ele>145</ele>
        <time>2024-04-09T16:14:43Z</time>
      </trkpt>
      <trkpt lat="43.65312" lon="1.38682">
        <ele>144</ele>
        <time>2024-04-09T16:14:44Z</time>
      </trkpt>
      <trkpt lat="43.65313" lon="1.38685">
        <ele>144</ele>
        <time>2024-04-09T16:14:45Z</time>
      </trkpt>
      <trkpt lat="43.65314" lon="1.3869">
        <ele>144</ele>
        <time>2024-04-09T16:14:46Z</time>
      </trkpt>
      <trkpt lat="43.65315" lon="1.38693">
        <ele>144</ele>
        <time>2024-04-09T16:14:47Z</time>
      </trkpt>
      <trkpt lat="43.65316" lon="1.38696">
        <ele>144</ele>
        <time>2024-04-09T16:14:48Z</time>
      </trkpt>
      <trkpt lat="43.65317" lon="1.387">
        <ele>144</ele>
        <time>2024-04-09T16:14:49Z</time>
      </trkpt>
      <trkpt lat="43.65317" lon="1.38703">
        <ele>144</ele>
        <time>2024-04-09T16:14:50Z</time>
      </trkpt>
      <trkpt lat="43.65318" lon="1.38706">
        <ele>144</ele>
        <time>2024-04-09T16:14:51Z</time>
      </trkpt>
      <trkpt lat="43.65318" lon="1.38709">
        <ele>144</ele>
        <time>2024-04-09T16:14:52Z</time>
      </trkpt>
      <trkpt lat="43.65319" lon="1.38712">
        <ele>144</ele>
        <time>2024-04-09T16:14:53Z</time>
      </trkpt>
      <trkpt lat="43.6532" lon="1.38715">
        <ele>144</ele>
        <time>2024-04-09T16:14:54Z</time>
      </trkpt>
      <trkpt lat="43.65322" lon="1.38718">
        <ele>144</ele>
        <time>2024-04-09T16:14:55Z</time>
      </trkpt>
      <trkpt lat="43.65322" lon="1.38722">
        <ele>144</ele>
        <time>2024-04-09T16:14:56Z</time>
      </trkpt>
      <trkpt lat="43.65323" lon="1.38725">
        <ele>144</ele>
        <time>2024-04-09T16:14:57Z</time>
      </trkpt>
      <trkpt lat="43.65324" lon="1.38728">
        <ele>144</ele>
        <time>2024-04-09T16:14:58Z</time>
      </trkpt>
      <trkpt lat="43.65324" lon="1.38732">
        <ele>144</ele>
        <time>2024-04-09T16:14:59Z</time>
      </trkpt>
      <trkpt lat="43.65325" lon="1.38735">
        <ele>144</ele>
        <time>2024-04-09T16:15:00Z</time>
      </trkpt>
      <trkpt lat="43.65326" lon="1.38738">
        <ele>144</ele>
        <time>2024-04-09T16:15:01Z</time>
      </trkpt>
      <trkpt lat="43.65327" lon="1.38742">
        <ele>144</ele>
        <time>2024-04-09T16:15:02Z</time>
      </trkpt>
      <trkpt lat="43.65328" lon="1.38745">
        <ele>144</ele>
        <time>2024-04-09T16:15:03Z</time>
      </trkpt>
      <trkpt lat="43.65329" lon="1.38748">
        <ele>145</ele>
        <time>2024-04-09T16:15:04Z</time>
      </trkpt>
      <trkpt lat="43.65331" lon="1.38754">
        <ele>145</ele>
        <time>2024-04-09T16:15:05Z</time>
      </trkpt>
      <trkpt lat="43.65331" lon="1.38755">
        <ele>145</ele>
        <time>2024-04-09T16:15:06Z</time>
      </trkpt>
      <trkpt lat="43.65332" lon="1.38758">
        <ele>145</ele>
        <time>2024-04-09T16:15:07Z</time>
      </trkpt>
      <trkpt lat="43.65333" lon="1.38761">
        <ele>145</ele>
        <time>2024-04-09T16:15:08Z</time>
      </trkpt>
      <trkpt lat="43.65333" lon="1.38763">
        <ele>145</ele>
        <time>2024-04-09T16:15:09Z</time>
      </trkpt>
      <trkpt lat="43.65334" lon="1.38766">
        <ele>145</ele>
        <time>2024-04-09T16:15:10Z</time>
      </trkpt>
      <trkpt lat="43.65335" lon="1.38769">
        <ele>145</ele>
        <time>2024-04-09T16:15:11Z</time>
      </trkpt>
      <trkpt lat="43.65336" lon="1.38773">
        <ele>145</ele>
        <time>2024-04-09T16:15:12Z</time>
      </trkpt>
      <trkpt lat="43.65336" lon="1.38778">
        <ele>145</ele>
        <time>2024-04-09T16:15:13Z</time>
      </trkpt>
      <trkpt lat="43.65337" lon="1.38782">
        <ele>145</ele>
        <time>2024-04-09T16:15:14Z</time>
      </trkpt>
      <trkpt lat="43.65338" lon="1.38786">
        <ele>145</ele>
        <time>2024-04-09T16:15:15Z</time>
      </trkpt>
      <trkpt lat="43.6534" lon="1.38789">
        <ele>145</ele>
        <time>2024-04-09T16:15:16Z</time>
      </trkpt>
      <trkpt lat="43.65341" lon="1.38793">
        <ele>145</ele>
        <time>2024-04-09T16:15:17Z</time>
      </trkpt>
      <trkpt lat="43.65343" lon="1.38797">
        <ele>145</ele>
        <time>2024-04-09T16:15:18Z</time>
      </trkpt>
      <trkpt lat="43.65344" lon="1.388">
        <ele>145</ele>
        <time>2024-04-09T16:15:19Z</time>
      </trkpt>
      <trkpt lat="43.65345" lon="1.38802">
        <ele>145</ele>
        <time>2024-04-09T16:15:20Z</time>
      </trkpt>
      <trkpt lat="43.65347" lon="1.38805">
        <ele>145</ele>
        <time>2024-04-09T16:15:21Z</time>
      </trkpt>
      <trkpt lat="43.65349" lon="1.38808">
        <ele>145</ele>
        <time>2024-04-09T16:15:22Z</time>
      </trkpt>
      <trkpt lat="43.65351" lon="1.38811">
        <ele>145</ele>
        <time>2024-04-09T16:15:23Z</time>
      </trkpt>
      <trkpt lat="43.65352" lon="1.38815">
        <ele>145</ele>
        <time>2024-04-09T16:15:24Z</time>
      </trkpt>
      <trkpt lat="43.65354" lon="1.38818">
        <ele>146</ele>
        <time>2024-04-09T16:15:25Z</time>
      </trkpt>
      <trkpt lat="43.65355" lon="1.3882">
        <ele>146</ele>
        <time>2024-04-09T16:15:26Z</time>
      </trkpt>
      <trkpt lat="43.65356" lon="1.38822">
        <ele>145</ele>
        <time>2024-04-09T16:15:27Z</time>
      </trkpt>
      <trkpt lat="43.65357" lon="1.38824">
        <ele>145</ele>
        <time>2024-04-09T16:15:28Z</time>
      </trkpt>
      <trkpt lat="43.65359" lon="1.38826">
        <ele>145</ele>
        <time>2024-04-09T16:15:29Z</time>
      </trkpt>
      <trkpt lat="43.65363" lon="1.38833">
        <ele>145</ele>
        <time>2024-04-09T16:15:30Z</time>
      </trkpt>
      <trkpt lat="43.65365" lon="1.38836">
        <ele>145</ele>
        <time>2024-04-09T16:15:31Z</time>
      </trkpt>
      <trkpt lat="43.65367" lon="1.38838">
        <ele>145</ele>
        <time>2024-04-09T16:15:32Z</time>
      </trkpt>
      <trkpt lat="43.65368" lon="1.38839">
        <ele>145</ele>
        <time>2024-04-09T16:15:33Z</time>
      </trkpt>
      <trkpt lat="43.6537" lon="1.38841">
        <ele>145</ele>
        <time>2024-04-09T16:15:34Z</time>
      </trkpt>
      <trkpt lat="43.65372" lon="1.38842">
        <ele>145</ele>
        <time>2024-04-09T16:15:35Z</time>
      </trkpt>
      <trkpt lat="43.65372" lon="1.38842">
        <ele>145</ele>
        <time>2024-04-09T16:15:36Z</time>
      </trkpt>
      <trkpt lat="43.65376" lon="1.38847">
        <ele>145</ele>
        <time>2024-04-09T16:15:37Z</time>
      </trkpt>
      <trkpt lat="43.65376" lon="1.38847">
        <ele>144</ele>
        <time>2024-04-09T16:15:38Z</time>
      </trkpt>
      <trkpt lat="43.65377" lon="1.38847">
        <ele>144</ele>
        <time>2024-04-09T16:15:39Z</time>
      </trkpt>
      <trkpt lat="43.65379" lon="1.38848">
        <ele>144</ele>
        <time>2024-04-09T16:15:40Z</time>
      </trkpt>
      <trkpt lat="43.65381" lon="1.38849">
        <ele>144</ele>
        <time>2024-04-09T16:15:41Z</time>
      </trkpt>
      <trkpt lat="43.65384" lon="1.38849">
        <ele>144</ele>
        <time>2024-04-09T16:15:42Z</time>
      </trkpt>
      <trkpt lat="43.65384" lon="1.38849">
        <ele>144</ele>
        <time>2024-04-09T16:15:43Z</time>
      </trkpt>
      <trkpt lat="43.65387" lon="1.38849">
        <ele>144</ele>
        <time>2024-04-09T16:15:44Z</time>
      </trkpt>
      <trkpt lat="43.65389" lon="1.38849">
        <ele>144</ele>
        <time>2024-04-09T16:15:45Z</time>
      </trkpt>
      <trkpt lat="43.65391" lon="1.38849">
        <ele>144</ele>
        <time>2024-04-09T16:15:46Z</time>
      </trkpt>
      <trkpt lat="43.65392" lon="1.38849">
        <ele>144</ele>
        <time>2024-04-09T16:15:47Z</time>
      </trkpt>
      <trkpt lat="43.65394" lon="1.38849">
        <ele>144</ele>
        <time>2024-04-09T16:15:48Z</time>
      </trkpt>
      <trkpt lat="43.65396" lon="1.38849">
        <ele>144</ele>
        <time>2024-04-09T16:15:49Z</time>
      </trkpt>
      <trkpt lat="43.65398" lon="1.38848">
        <ele>144</ele>
        <time>2024-04-09T16:15:50Z</time>
      </trkpt>
      <trkpt lat="43.65399" lon="1.38848">
        <ele>144</ele>
        <time>2024-04-09T16:15:51Z</time>
      </trkpt>
      <trkpt lat="43.65402" lon="1.3885">
        <ele>144</ele>
        <time>2024-04-09T16:15:52Z</time>
      </trkpt>
      <trkpt lat="43.65405" lon="1.38851">
        <ele>144</ele>
        <time>2024-04-09T16:15:53Z</time>
      </trkpt>
      <trkpt lat="43.65408" lon="1.38852">
        <ele>144</ele>
        <time>2024-04-09T16:15:54Z</time>
      </trkpt>
      <trkpt lat="43.6541" lon="1.38857">
        <ele>144</ele>
        <time>2024-04-09T16:15:55Z</time>
      </trkpt>
      <trkpt lat="43.65412" lon="1.38862">
        <ele>144</ele>
        <time>2024-04-09T16:15:56Z</time>
      </trkpt>
      <trkpt lat="43.65414" lon="1.38867">
        <ele>144</ele>
        <time>2024-04-09T16:15:57Z</time>
      </trkpt>
      <trkpt lat="43.65414" lon="1.3887">
        <ele>144</ele>
        <time>2024-04-09T16:15:58Z</time>
      </trkpt>
      <trkpt lat="43.65415" lon="1.38873">
        <ele>143</ele>
        <time>2024-04-09T16:15:59Z</time>
      </trkpt>
      <trkpt lat="43.65416" lon="1.38876">
        <ele>142</ele>
        <time>2024-04-09T16:16:00Z</time>
      </trkpt>
      <trkpt lat="43.65416" lon="1.38879">
        <ele>142</ele>
        <time>2024-04-09T16:16:01Z</time>
      </trkpt>
      <trkpt lat="43.65418" lon="1.38884">
        <ele>141</ele>
        <time>2024-04-09T16:16:02Z</time>
      </trkpt>
      <trkpt lat="43.65419" lon="1.38889">
        <ele>141</ele>
        <time>2024-04-09T16:16:03Z</time>
      </trkpt>
      <trkpt lat="43.65421" lon="1.38892">
        <ele>141</ele>
        <time>2024-04-09T16:16:04Z</time>
      </trkpt>
      <trkpt lat="43.65423" lon="1.38895">
        <ele>140</ele>
        <time>2024-04-09T16:16:05Z</time>
      </trkpt>
      <trkpt lat="43.65425" lon="1.38899">
        <ele>140</ele>
        <time>2024-04-09T16:16:06Z</time>
      </trkpt>
      <trkpt lat="43.65427" lon="1.38901">
        <ele>139</ele>
        <time>2024-04-09T16:16:07Z</time>
      </trkpt>
      <trkpt lat="43.65429" lon="1.38904">
        <ele>139</ele>
        <time>2024-04-09T16:16:08Z</time>
      </trkpt>
      <trkpt lat="43.65432" lon="1.38908">
        <ele>139</ele>
        <time>2024-04-09T16:16:09Z</time>
      </trkpt>
      <trkpt lat="43.65434" lon="1.38911">
        <ele>139</ele>
        <time>2024-04-09T16:16:10Z</time>
      </trkpt>
      <trkpt lat="43.65437" lon="1.38915">
        <ele>139</ele>
        <time>2024-04-09T16:16:11Z</time>
      </trkpt>
      <trkpt lat="43.65439" lon="1.38918">
        <ele>139</ele>
        <time>2024-04-09T16:16:12Z</time>
      </trkpt>
      <trkpt lat="43.65442" lon="1.38923">
        <ele>139</ele>
        <time>2024-04-09T16:16:13Z</time>
      </trkpt>
      <trkpt lat="43.65442" lon="1.38925">
        <ele>139</ele>
        <time>2024-04-09T16:16:14Z</time>
      </trkpt>
      <trkpt lat="43.65447" lon="1.38933">
        <ele>139</ele>
        <time>2024-04-09T16:16:15Z</time>
      </trkpt>
      <trkpt lat="43.65447" lon="1.38933">
        <ele>138</ele>
        <time>2024-04-09T16:16:16Z</time>
      </trkpt>
      <trkpt lat="43.6545" lon="1.38939">
        <ele>138</ele>
        <time>2024-04-09T16:16:17Z</time>
      </trkpt>
      <trkpt lat="43.65451" lon="1.38941">
        <ele>136</ele>
        <time>2024-04-09T16:16:18Z</time>
      </trkpt>
      <trkpt lat="43.65453" lon="1.38945">
        <ele>135</ele>
        <time>2024-04-09T16:16:19Z</time>
      </trkpt>
      <trkpt lat="43.65455" lon="1.3895">
        <ele>135</ele>
        <time>2024-04-09T16:16:20Z</time>
      </trkpt>
      <trkpt lat="43.65457" lon="1.38954">
        <ele>134</ele>
        <time>2024-04-09T16:16:21Z</time>
      </trkpt>
      <trkpt lat="43.65458" lon="1.38957">
        <ele>133</ele>
        <time>2024-04-09T16:16:22Z</time>
      </trkpt>
      <trkpt lat="43.6546" lon="1.38962">
        <ele>133</ele>
        <time>2024-04-09T16:16:23Z</time>
      </trkpt>
      <trkpt lat="43.65462" lon="1.38965">
        <ele>133</ele>
        <time>2024-04-09T16:16:24Z</time>
      </trkpt>
      <trkpt lat="43.65464" lon="1.38969">
        <ele>133</ele>
        <time>2024-04-09T16:16:25Z</time>
      </trkpt>
      <trkpt lat="43.65466" lon="1.38974">
        <ele>133</ele>
        <time>2024-04-09T16:16:26Z</time>
      </trkpt>
      <trkpt lat="43.65466" lon="1.38976">
        <ele>133</ele>
        <time>2024-04-09T16:16:27Z</time>
      </trkpt>
      <trkpt lat="43.65469" lon="1.38981">
        <ele>132</ele>
        <time>2024-04-09T16:16:28Z</time>
      </trkpt>
      <trkpt lat="43.6547" lon="1.38983">
        <ele>132</ele>
        <time>2024-04-09T16:16:29Z</time>
      </trkpt>
      <trkpt lat="43.65473" lon="1.38988">
        <ele>132</ele>
        <time>2024-04-09T16:16:30Z</time>
      </trkpt>
      <trkpt lat="43.65474" lon="1.38989">
        <ele>132</ele>
        <time>2024-04-09T16:16:31Z</time>
      </trkpt>
      <trkpt lat="43.65475" lon="1.38992">
        <ele>132</ele>
        <time>2024-04-09T16:16:32Z</time>
      </trkpt>
      <trkpt lat="43.65479" lon="1.38997">
        <ele>132</ele>
        <time>2024-04-09T16:16:33Z</time>
      </trkpt>
      <trkpt lat="43.6548" lon="1.38999">
        <ele>132</ele>
        <time>2024-04-09T16:16:34Z</time>
      </trkpt>
      <trkpt lat="43.6548" lon="1.38999">
        <ele>132</ele>
        <time>2024-04-09T16:16:35Z</time>
      </trkpt>
      <trkpt lat="43.65482" lon="1.39001">
        <ele>132</ele>
        <time>2024-04-09T16:16:36Z</time>
      </trkpt>
      <trkpt lat="43.65483" lon="1.39003">
        <ele>132</ele>
        <time>2024-04-09T16:16:37Z</time>
      </trkpt>
      <trkpt lat="43.65485" lon="1.39004">
        <ele>132</ele>
        <time>2024-04-09T16:16:38Z</time>
      </trkpt>
      <trkpt lat="43.65487" lon="1.39006">
        <ele>132</ele>
        <time>2024-04-09T16:16:39Z</time>
      </trkpt>
      <trkpt lat="43.65489" lon="1.39008">
        <ele>132</ele>
        <time>2024-04-09T16:16:40Z</time>
      </trkpt>
      <trkpt lat="43.65493" lon="1.39011">
        <ele>132</ele>
        <time>2024-04-09T16:16:41Z</time>
      </trkpt>
      <trkpt lat="43.65494" lon="1.39012">
        <ele>132</ele>
        <time>2024-04-09T16:16:42Z</time>
      </trkpt>
      <trkpt lat="43.65497" lon="1.39014">
        <ele>132</ele>
        <time>2024-04-09T16:16:43Z</time>
      </trkpt>
      <trkpt lat="43.65499" lon="1.39015">
        <ele>132</ele>
        <time>2024-04-09T16:16:44Z</time>
      </trkpt>
      <trkpt lat="43.65503" lon="1.39017">
        <ele>131</ele>
        <time>2024-04-09T16:16:45Z</time>
      </trkpt>
      <trkpt lat="43.65504" lon="1.39017">
        <ele>131</ele>
        <time>2024-04-09T16:16:46Z</time>
      </trkpt>
      <trkpt lat="43.65506" lon="1.39018">
        <ele>131</ele>
        <time>2024-04-09T16:16:47Z</time>
      </trkpt>
      <trkpt lat="43.65509" lon="1.39019">
        <ele>131</ele>
        <time>2024-04-09T16:16:48Z</time>
      </trkpt>
      <trkpt lat="43.6551" lon="1.3902">
        <ele>131</ele>
        <time>2024-04-09T16:16:49Z</time>
      </trkpt>
      <trkpt lat="43.65512" lon="1.39021">
        <ele>131</ele>
        <time>2024-04-09T16:16:50Z</time>
      </trkpt>
      <trkpt lat="43.65512" lon="1.39021">
        <ele>131</ele>
        <time>2024-04-09T16:16:51Z</time>
      </trkpt>
      <trkpt lat="43.65516" lon="1.39023">
        <ele>131</ele>
        <time>2024-04-09T16:16:52Z</time>
      </trkpt>
      <trkpt lat="43.6552" lon="1.39025">
        <ele>131</ele>
        <time>2024-04-09T16:16:53Z</time>
      </trkpt>
      <trkpt lat="43.6552" lon="1.39025">
        <ele>131</ele>
        <time>2024-04-09T16:16:54Z</time>
      </trkpt>
      <trkpt lat="43.65524" lon="1.39028">
        <ele>131</ele>
        <time>2024-04-09T16:16:55Z</time>
      </trkpt>
      <trkpt lat="43.65526" lon="1.39029">
        <ele>130</ele>
        <time>2024-04-09T16:16:56Z</time>
      </trkpt>
      <trkpt lat="43.65529" lon="1.3903">
        <ele>131</ele>
        <time>2024-04-09T16:16:57Z</time>
      </trkpt>
      <trkpt lat="43.65531" lon="1.39031">
        <ele>131</ele>
        <time>2024-04-09T16:16:58Z</time>
      </trkpt>
      <trkpt lat="43.65534" lon="1.39033">
        <ele>131</ele>
        <time>2024-04-09T16:16:59Z</time>
      </trkpt>
      <trkpt lat="43.65537" lon="1.39034">
        <ele>131</ele>
        <time>2024-04-09T16:17:00Z</time>
      </trkpt>
      <trkpt lat="43.6554" lon="1.39036">
        <ele>131</ele>
        <time>2024-04-09T16:17:01Z</time>
      </trkpt>
      <trkpt lat="43.65543" lon="1.39038">
        <ele>131</ele>
        <time>2024-04-09T16:17:02Z</time>
      </trkpt>
      <trkpt lat="43.65545" lon="1.3904">
        <ele>130</ele>
        <time>2024-04-09T16:17:03Z</time>
      </trkpt>
      <trkpt lat="43.6555" lon="1.39043">
        <ele>130</ele>
        <time>2024-04-09T16:17:04Z</time>
      </trkpt>
      <trkpt lat="43.6555" lon="1.39043">
        <ele>130</ele>
        <time>2024-04-09T16:17:05Z</time>
      </trkpt>
      <trkpt lat="43.65552" lon="1.39045">
        <ele>130</ele>
        <time>2024-04-09T16:17:06Z</time>
      </trkpt>
      <trkpt lat="43.65554" lon="1.39047">
        <ele>130</ele>
        <time>2024-04-09T16:17:07Z</time>
      </trkpt>
      <trkpt lat="43.65557" lon="1.39049">
        <ele>130</ele>
        <time>2024-04-09T16:17:08Z</time>
      </trkpt>
      <trkpt lat="43.65559" lon="1.3905">
        <ele>131</ele>
        <time>2024-04-09T16:17:09Z</time>
      </trkpt>
      <trkpt lat="43.65562" lon="1.39051">
        <ele>131</ele>
        <time>2024-04-09T16:17:10Z</time>
      </trkpt>
      <trkpt lat="43.65566" lon="1.39054">
        <ele>131</ele>
        <time>2024-04-09T16:17:11Z</time>
      </trkpt>
      <trkpt lat="43.65569" lon="1.39056">
        <ele>131</ele>
        <time>2024-04-09T16:17:12Z</time>
      </trkpt>
      <trkpt lat="43.65569" lon="1.39056">
        <ele>131</ele>
        <time>2024-04-09T16:17:13Z</time>
      </trkpt>
      <trkpt lat="43.65572" lon="1.39059">
        <ele>131</ele>
        <time>2024-04-09T16:17:14Z</time>
      </trkpt>
      <trkpt lat="43.65574" lon="1.3906">
        <ele>130</ele>
        <time>2024-04-09T16:17:15Z</time>
      </trkpt>
      <trkpt lat="43.65577" lon="1.39063">
        <ele>131</ele>
        <time>2024-04-09T16:17:16Z</time>
      </trkpt>
      <trkpt lat="43.65578" lon="1.39064">
        <ele>131</ele>
        <time>2024-04-09T16:17:17Z</time>
      </trkpt>
      <trkpt lat="43.6558" lon="1.39066">
        <ele>130</ele>
        <time>2024-04-09T16:17:18Z</time>
      </trkpt>
      <trkpt lat="43.65584" lon="1.39068">
        <ele>130</ele>
        <time>2024-04-09T16:17:19Z</time>
      </trkpt>
      <trkpt lat="43.65585" lon="1.39068">
        <ele>130</ele>
        <time>2024-04-09T16:17:20Z</time>
      </trkpt>
      <trkpt lat="43.65587" lon="1.3907">
        <ele>131</ele>
        <time>2024-04-09T16:17:21Z</time>
      </trkpt>
      <trkpt lat="43.6559" lon="1.39072">
        <ele>131</ele>
        <time>2024-04-09T16:17:22Z</time>
      </trkpt>
      <trkpt lat="43.65592" lon="1.39073">
        <ele>131</ele>
        <time>2024-04-09T16:17:23Z</time>
      </trkpt>
      <trkpt lat="43.65595" lon="1.39074">
        <ele>131</ele>
        <time>2024-04-09T16:17:24Z</time>
      </trkpt>
      <trkpt lat="43.65597" lon="1.39076">
        <ele>131</ele>
        <time>2024-04-09T16:17:25Z</time>
      </trkpt>
      <trkpt lat="43.65599" lon="1.39077">
        <ele>131</ele>
        <time>2024-04-09T16:17:26Z</time>
      </trkpt>
      <trkpt lat="43.65602" lon="1.39079">
        <ele>131</ele>
        <time>2024-04-09T16:17:27Z</time>
      </trkpt>
      <trkpt lat="43.65605" lon="1.3908">
        <ele>131</ele>
        <time>2024-04-09T16:17:28Z</time>
      </trkpt>
      <trkpt lat="43.65607" lon="1.39081">
        <ele>131</ele>
        <time>2024-04-09T16:17:29Z</time>
      </trkpt>
      <trkpt lat="43.6561" lon="1.39082">
        <ele>130</ele>
        <time>2024-04-09T16:17:30Z</time>
      </trkpt>
      <trkpt lat="43.65615" lon="1.39085">
        <ele>130</ele>
        <time>2024-04-09T16:17:31Z</time>
      </trkpt>
      <trkpt lat="43.65615" lon="1.39085">
        <ele>130</ele>
        <time>2024-04-09T16:17:32Z</time>
      </trkpt>
      <trkpt lat="43.65619" lon="1.39087">
        <ele>130</ele>
        <time>2024-04-09T16:17:33Z</time>
      </trkpt>
      <trkpt lat="43.6562" lon="1.39087">
        <ele>130</ele>
        <time>2024-04-09T16:17:34Z</time>
      </trkpt>
      <trkpt lat="43.65623" lon="1.3909">
        <ele>130</ele>
        <time>2024-04-09T16:17:35Z</time>
      </trkpt>
      <trkpt lat="43.65624" lon="1.39091">
        <ele>130</ele>
        <time>2024-04-09T16:17:36Z</time>
      </trkpt>
      <trkpt lat="43.65626" lon="1.39093">
        <ele>130</ele>
        <time>2024-04-09T16:17:37Z</time>
      </trkpt>
      <trkpt lat="43.65629" lon="1.39096">
        <ele>130</ele>
        <time>2024-04-09T16:17:38Z</time>
      </trkpt>
      <trkpt lat="43.6563" lon="1.39097">
        <ele>130</ele>
        <time>2024-04-09T16:17:39Z</time>
      </trkpt>
      <trkpt lat="43.65632" lon="1.39098">
        <ele>129</ele>
        <time>2024-04-09T16:17:40Z</time>
      </trkpt>
      <trkpt lat="43.65635" lon="1.391">
        <ele>129</ele>
        <time>2024-04-09T16:17:41Z</time>
      </trkpt>
      <trkpt lat="43.65636" lon="1.39101">
        <ele>130</ele>
        <time>2024-04-09T16:17:42Z</time>
      </trkpt>
      <trkpt lat="43.65639" lon="1.39102">
        <ele>130</ele>
        <time>2024-04-09T16:17:43Z</time>
      </trkpt>
      <trkpt lat="43.6564" lon="1.39103">
        <ele>130</ele>
        <time>2024-04-09T16:17:44Z</time>
      </trkpt>
      <trkpt lat="43.65644" lon="1.39105">
        <ele>130</ele>
        <time>2024-04-09T16:17:45Z</time>
      </trkpt>
      <trkpt lat="43.65645" lon="1.39106">
        <ele>130</ele>
        <time>2024-04-09T16:17:46Z</time>
      </trkpt>
      <trkpt lat="43.65648" lon="1.39108">
        <ele>130</ele>
        <time>2024-04-09T16:17:47Z</time>
      </trkpt>
      <trkpt lat="43.65652" lon="1.39111">
        <ele>130</ele>
        <time>2024-04-09T16:17:48Z</time>
      </trkpt>
      <trkpt lat="43.65654" lon="1.39112">
        <ele>130</ele>
        <time>2024-04-09T16:17:49Z</time>
      </trkpt>
      <trkpt lat="43.65659" lon="1.39115">
        <ele>130</ele>
        <time>2024-04-09T16:17:50Z</time>
      </trkpt>
      <trkpt lat="43.65659" lon="1.39115">
        <ele>130</ele>
        <time>2024-04-09T16:17:51Z</time>
      </trkpt>
      <trkpt lat="43.65662" lon="1.39117">
        <ele>130</ele>
        <time>2024-04-09T16:17:52Z</time>
      </trkpt>
      <trkpt lat="43.65664" lon="1.39119">
        <ele>130</ele>
        <time>2024-04-09T16:17:53Z</time>
      </trkpt>
      <trkpt lat="43.65667" lon="1.3912">
        <ele>130</ele>
        <time>2024-04-09T16:17:54Z</time>
      </trkpt>
      <trkpt lat="43.65671" lon="1.39122">
        <ele>129</ele>
        <time>2024-04-09T16:17:55Z</time>
      </trkpt>
      <trkpt lat="43.65671" lon="1.39122">
        <ele>129</ele>
        <time>2024-04-09T16:17:56Z</time>
      </trkpt>
      <trkpt lat="43.65673" lon="1.39123">
        <ele>129</ele>
        <time>2024-04-09T16:17:57Z</time>
      </trkpt>
      <trkpt lat="43.65676" lon="1.39124">
        <ele>129</ele>
        <time>2024-04-09T16:17:58Z</time>
      </trkpt>
      <trkpt lat="43.65679" lon="1.39125">
        <ele>129</ele>
        <time>2024-04-09T16:17:59Z</time>
      </trkpt>
      <trkpt lat="43.65681" lon="1.39126">
        <ele>129</ele>
        <time>2024-04-09T16:18:00Z</time>
      </trkpt>
      <trkpt lat="43.65683" lon="1.39127">
        <ele>129</ele>
        <time>2024-04-09T16:18:01Z</time>
      </trkpt>
      <trkpt lat="43.65683" lon="1.39127">
        <ele>129</ele>
        <time>2024-04-09T16:18:02Z</time>
      </trkpt>
      <trkpt lat="43.65686" lon="1.39129">
        <ele>129</ele>
        <time>2024-04-09T16:18:03Z</time>
      </trkpt>
      <trkpt lat="43.65688" lon="1.39131">
        <ele>129</ele>
        <time>2024-04-09T16:18:04Z</time>
      </trkpt>
      <trkpt lat="43.6569" lon="1.39133">
        <ele>129</ele>
        <time>2024-04-09T16:18:05Z</time>
      </trkpt>
      <trkpt lat="43.65693" lon="1.39135">
        <ele>129</ele>
        <time>2024-04-09T16:18:06Z</time>
      </trkpt>
      <trkpt lat="43.65695" lon="1.39136">
        <ele>129</ele>
        <time>2024-04-09T16:18:07Z</time>
      </trkpt>
      <trkpt lat="43.65697" lon="1.39137">
        <ele>129</ele>
        <time>2024-04-09T16:18:08Z</time>
      </trkpt>
      <trkpt lat="43.65702" lon="1.3914">
        <ele>129</ele>
        <time>2024-04-09T16:18:09Z</time>
      </trkpt>
      <trkpt lat="43.65702" lon="1.3914">
        <ele>130</ele>
        <time>2024-04-09T16:18:10Z</time>
      </trkpt>
      <trkpt lat="43.65705" lon="1.39142">
        <ele>130</ele>
        <time>2024-04-09T16:18:11Z</time>
      </trkpt>
      <trkpt lat="43.65706" lon="1.39144">
        <ele>130</ele>
        <time>2024-04-09T16:18:12Z</time>
      </trkpt>
      <trkpt lat="43.6571" lon="1.39147">
        <ele>130</ele>
        <time>2024-04-09T16:18:13Z</time>
      </trkpt>
      <trkpt lat="43.65711" lon="1.39148">
        <ele>130</ele>
        <time>2024-04-09T16:18:14Z</time>
      </trkpt>
      <trkpt lat="43.65714" lon="1.39149">
        <ele>130</ele>
        <time>2024-04-09T16:18:15Z</time>
      </trkpt>
      <trkpt lat="43.65717" lon="1.39152">
        <ele>130</ele>
        <time>2024-04-09T16:18:16Z</time>
      </trkpt>
      <trkpt lat="43.65719" lon="1.39153">
        <ele>130</ele>
        <time>2024-04-09T16:18:17Z</time>
      </trkpt>
      <trkpt lat="43.65722" lon="1.39156">
        <ele>129</ele>
        <time>2024-04-09T16:18:18Z</time>
      </trkpt>
      <trkpt lat="43.65723" lon="1.39157">
        <ele>129</ele>
        <time>2024-04-09T16:18:19Z</time>
      </trkpt>
      <trkpt lat="43.65725" lon="1.39159">
        <ele>129</ele>
        <time>2024-04-09T16:18:20Z</time>
      </trkpt>
      <trkpt lat="43.65727" lon="1.39161">
        <ele>129</ele>
        <time>2024-04-09T16:18:21Z</time>
      </trkpt>
      <trkpt lat="43.65729" lon="1.39163">
        <ele>129</ele>
        <time>2024-04-09T16:18:22Z</time>
      </trkpt>
      <trkpt lat="43.65733" lon="1.39166">
        <ele>129</ele>
        <time>2024-04-09T16:18:23Z</time>
      </trkpt>
      <trkpt lat="43.65734" lon="1.39167">
        <ele>129</ele>
        <time>2024-04-09T16:18:24Z</time>
      </trkpt>
      <trkpt lat="43.65737" lon="1.39169">
        <ele>129</ele>
        <time>2024-04-09T16:18:25Z</time>
      </trkpt>
      <trkpt lat="43.65738" lon="1.39169">
        <ele>129</ele>
        <time>2024-04-09T16:18:26Z</time>
      </trkpt>
      <trkpt lat="43.65742" lon="1.39171">
        <ele>129</ele>
        <time>2024-04-09T16:18:27Z</time>
      </trkpt>
      <trkpt lat="43.65743" lon="1.39172">
        <ele>130</ele>
        <time>2024-04-09T16:18:28Z</time>
      </trkpt>
      <trkpt lat="43.65744" lon="1.39173">
        <ele>130</ele>
        <time>2024-04-09T16:18:29Z</time>
      </trkpt>
      <trkpt lat="43.65746" lon="1.39175">
        <ele>130</ele>
        <time>2024-04-09T16:18:30Z</time>
      </trkpt>
      <trkpt lat="43.65748" lon="1.39176">
        <ele>130</ele>
        <time>2024-04-09T16:18:31Z</time>
      </trkpt>
      <trkpt lat="43.65751" lon="1.39178">
        <ele>130</ele>
        <time>2024-04-09T16:18:32Z</time>
      </trkpt>
      <trkpt lat="43.65753" lon="1.39179">
        <ele>130</ele>
        <time>2024-04-09T16:18:33Z</time>
      </trkpt>
      <trkpt lat="43.65756" lon="1.39181">
        <ele>130</ele>
        <time>2024-04-09T16:18:34Z</time>
      </trkpt>
      <trkpt lat="43.65758" lon="1.39183">
        <ele>130</ele>
        <time>2024-04-09T16:18:35Z</time>
      </trkpt>
      <trkpt lat="43.6576" lon="1.39185">
        <ele>131</ele>
        <time>2024-04-09T16:18:36Z</time>
      </trkpt>
      <trkpt lat="43.65762" lon="1.39187">
        <ele>131</ele>
        <time>2024-04-09T16:18:37Z</time>
      </trkpt>
      <trkpt lat="43.65764" lon="1.39189">
        <ele>131</ele>
        <time>2024-04-09T16:18:38Z</time>
      </trkpt>
      <trkpt lat="43.65766" lon="1.39191">
        <ele>131</ele>
        <time>2024-04-09T16:18:39Z</time>
      </trkpt>
      <trkpt lat="43.65773" lon="1.39198">
        <ele>130</ele>
        <time>2024-04-09T16:18:40Z</time>
      </trkpt>
      <trkpt lat="43.65774" lon="1.39199">
        <ele>130</ele>
        <time>2024-04-09T16:18:41Z</time>
      </trkpt>
      <trkpt lat="43.65777" lon="1.39202">
        <ele>130</ele>
        <time>2024-04-09T16:18:42Z</time>
      </trkpt>
      <trkpt lat="43.6578" lon="1.39205">
        <ele>130</ele>
        <time>2024-04-09T16:18:43Z</time>
      </trkpt>
      <trkpt lat="43.65782" lon="1.39208">
        <ele>130</ele>
        <time>2024-04-09T16:18:44Z</time>
      </trkpt>
      <trkpt lat="43.65785" lon="1.3921">
        <ele>130</ele>
        <time>2024-04-09T16:18:45Z</time>
      </trkpt>
      <trkpt lat="43.65787" lon="1.39211">
        <ele>130</ele>
        <time>2024-04-09T16:18:46Z</time>
      </trkpt>
      <trkpt lat="43.65793" lon="1.39213">
        <ele>130</ele>
        <time>2024-04-09T16:18:47Z</time>
      </trkpt>
      <trkpt lat="43.65793" lon="1.39213">
        <ele>130</ele>
        <time>2024-04-09T16:18:48Z</time>
      </trkpt>
      <trkpt lat="43.65797" lon="1.39214">
        <ele>130</ele>
        <time>2024-04-09T16:18:49Z</time>
      </trkpt>
      <trkpt lat="43.658" lon="1.39215">
        <ele>129</ele>
        <time>2024-04-09T16:18:50Z</time>
      </trkpt>
      <trkpt lat="43.65803" lon="1.39217">
        <ele>129</ele>
        <time>2024-04-09T16:18:51Z</time>
      </trkpt>
      <trkpt lat="43.65803" lon="1.39217">
        <ele>129</ele>
        <time>2024-04-09T16:18:52Z</time>
      </trkpt>
      <trkpt lat="43.65807" lon="1.39219">
        <ele>129</ele>
        <time>2024-04-09T16:18:53Z</time>
      </trkpt>
      <trkpt lat="43.6581" lon="1.3922">
        <ele>129</ele>
        <time>2024-04-09T16:18:54Z</time>
      </trkpt>
      <trkpt lat="43.65813" lon="1.39222">
        <ele>129</ele>
        <time>2024-04-09T16:18:55Z</time>
      </trkpt>
      <trkpt lat="43.65814" lon="1.39223">
        <ele>129</ele>
        <time>2024-04-09T16:18:56Z</time>
      </trkpt>
      <trkpt lat="43.65816" lon="1.39224">
        <ele>129</ele>
        <time>2024-04-09T16:18:57Z</time>
      </trkpt>
      <trkpt lat="43.65818" lon="1.39225">
        <ele>128</ele>
        <time>2024-04-09T16:18:58Z</time>
      </trkpt>
      <trkpt lat="43.65819" lon="1.39225">
        <ele>128</ele>
        <time>2024-04-09T16:18:59Z</time>
      </trkpt>
      <trkpt lat="43.65821" lon="1.39226">
        <ele>128</ele>
        <time>2024-04-09T16:19:00Z</time>
      </trkpt>
      <trkpt lat="43.65823" lon="1.39227">
        <ele>128</ele>
        <time>2024-04-09T16:19:01Z</time>
      </trkpt>
      <trkpt lat="43.65825" lon="1.39227">
        <ele>128</ele>
        <time>2024-04-09T16:19:02Z</time>
      </trkpt>
      <trkpt lat="43.65827" lon="1.39228">
        <ele>128</ele>
        <time>2024-04-09T16:19:03Z</time>
      </trkpt>
      <trkpt lat="43.65829" lon="1.39229">
        <ele>128</ele>
        <time>2024-04-09T16:19:04Z</time>
      </trkpt>
      <trkpt lat="43.65832" lon="1.39231">
        <ele>129</ele>
        <time>2024-04-09T16:19:05Z</time>
      </trkpt>
      <trkpt lat="43.65836" lon="1.39233">
        <ele>129</ele>
        <time>2024-04-09T16:19:06Z</time>
      </trkpt>
      <trkpt lat="43.65839" lon="1.39235">
        <ele>128</ele>
        <time>2024-04-09T16:19:07Z</time>
      </trkpt>
      <trkpt lat="43.65842" lon="1.39236">
        <ele>128</ele>
        <time>2024-04-09T16:19:08Z</time>
      </trkpt>
      <trkpt lat="43.65845" lon="1.39238">
        <ele>128</ele>
        <time>2024-04-09T16:19:09Z</time>
      </trkpt>
      <trkpt lat="43.65848" lon="1.39239">
        <ele>128</ele>
        <time>2024-04-09T16:19:10Z</time>
      </trkpt>
      <trkpt lat="43.6585" lon="1.39241">
        <ele>128</ele>
        <time>2024-04-09T16:19:11Z</time>
      </trkpt>
      <trkpt lat="43.65852" lon="1.39243">
        <ele>128</ele>
        <time>2024-04-09T16:19:12Z</time>
      </trkpt>
      <trkpt lat="43.65854" lon="1.39244">
        <ele>127</ele>
        <time>2024-04-09T16:19:13Z</time>
      </trkpt>
      <trkpt lat="43.65857" lon="1.39246">
        <ele>128</ele>
        <time>2024-04-09T16:19:14Z</time>
      </trkpt>
      <trkpt lat="43.65858" lon="1.39246">
        <ele>128</ele>
        <time>2024-04-09T16:19:15Z</time>
      </trkpt>
      <trkpt lat="43.65859" lon="1.39246">
        <ele>128</ele>
        <time>2024-04-09T16:19:16Z</time>
      </trkpt>
      <trkpt lat="43.6586" lon="1.39247">
        <ele>127</ele>
        <time>2024-04-09T16:19:17Z</time>
      </trkpt>
      <trkpt lat="43.65861" lon="1.39247">
        <ele>127</ele>
        <time>2024-04-09T16:19:18Z</time>
      </trkpt>
      <trkpt lat="43.65862" lon="1.39247">
        <ele>127</ele>
        <time>2024-04-09T16:19:19Z</time>
      </trkpt>
      <trkpt lat="43.65871" lon="1.39248">
        <ele>128</ele>
        <time>2024-04-09T16:19:20Z</time>
      </trkpt>
      <trkpt lat="43.65874" lon="1.39248">
        <ele>128</ele>
        <time>2024-04-09T16:19:21Z</time>
      </trkpt>
      <trkpt lat="43.65877" lon="1.39247">
        <ele>128</ele>
        <time>2024-04-09T16:19:22Z</time>
      </trkpt>
      <trkpt lat="43.6588" lon="1.39248">
        <ele>128</ele>
        <time>2024-04-09T16:19:23Z</time>
      </trkpt>
      <trkpt lat="43.65882" lon="1.39248">
        <ele>128</ele>
        <time>2024-04-09T16:19:24Z</time>
      </trkpt>
      <trkpt lat="43.65885" lon="1.39249">
        <ele>128</ele>
        <time>2024-04-09T16:19:25Z</time>
      </trkpt>
      <trkpt lat="43.65887" lon="1.39249">
        <ele>128</ele>
        <time>2024-04-09T16:19:26Z</time>
      </trkpt>
      <trkpt lat="43.65889" lon="1.3925">
        <ele>128</ele>
        <time>2024-04-09T16:19:27Z</time>
      </trkpt>
      <trkpt lat="43.6589" lon="1.3925">
        <ele>128</ele>
        <time>2024-04-09T16:19:28Z</time>
      </trkpt>
      <trkpt lat="43.65891" lon="1.39251">
        <ele>127</ele>
        <time>2024-04-09T16:19:29Z</time>
      </trkpt>
      <trkpt lat="43.65892" lon="1.39251">
        <ele>127</ele>
        <time>2024-04-09T16:19:30Z</time>
      </trkpt>
      <trkpt lat="43.659" lon="1.39253">
        <ele>127</ele>
        <time>2024-04-09T16:19:31Z</time>
      </trkpt>
      <trkpt lat="43.65902" lon="1.39254">
        <ele>127</ele>
        <time>2024-04-09T16:19:32Z</time>
      </trkpt>
      <trkpt lat="43.65905" lon="1.39254">
        <ele>127</ele>
        <time>2024-04-09T16:19:33Z</time>
      </trkpt>
      <trkpt lat="43.65908" lon="1.39254">
        <ele>127</ele>
        <time>2024-04-09T16:19:34Z</time>
      </trkpt>
      <trkpt lat="43.65911" lon="1.39254">
        <ele>127</ele>
        <time>2024-04-09T16:19:35Z</time>
      </trkpt>
      <trkpt lat="43.65914" lon="1.39254">
        <ele>128</ele>
        <time>2024-04-09T16:19:36Z</time>
      </trkpt>
      <trkpt lat="43.65917" lon="1.39253">
        <ele>128</ele>
        <time>2024-04-09T16:19:37Z</time>
      </trkpt>
      <trkpt lat="43.65918" lon="1.39253">
        <ele>128</ele>
        <time>2024-04-09T16:19:38Z</time>
      </trkpt>
      <trkpt lat="43.6592" lon="1.39253">
        <ele>128</ele>
        <time>2024-04-09T16:19:39Z</time>
      </trkpt>
      <trkpt lat="43.65921" lon="1.39253">
        <ele>128</ele>
        <time>2024-04-09T16:19:40Z</time>
      </trkpt>
      <trkpt lat="43.65922" lon="1.39253">
        <ele>128</ele>
        <time>2024-04-09T16:19:41Z</time>
      </trkpt>
      <trkpt lat="43.65931" lon="1.39253">
        <ele>128</ele>
        <time>2024-04-09T16:19:42Z</time>
      </trkpt>
      <trkpt lat="43.65934" lon="1.39253">
        <ele>128</ele>
        <time>2024-04-09T16:19:43Z</time>
      </trkpt>
      <trkpt lat="43.65936" lon="1.39253">
        <ele>128</ele>
        <time>2024-04-09T16:19:44Z</time>
      </trkpt>
      <trkpt lat="43.65939" lon="1.39253">
        <ele>128</ele>
        <time>2024-04-09T16:19:45Z</time>
      </trkpt>
      <trkpt lat="43.65942" lon="1.39253">
        <ele>128</ele>
        <time>2024-04-09T16:19:46Z</time>
      </trkpt>
      <trkpt lat="43.65944" lon="1.39252">
        <ele>127</ele>
        <time>2024-04-09T16:19:47Z</time>
      </trkpt>
      <trkpt lat="43.65947" lon="1.39252">
        <ele>127</ele>
        <time>2024-04-09T16:19:48Z</time>
      </trkpt>
      <trkpt lat="43.6595" lon="1.39252">
        <ele>127</ele>
        <time>2024-04-09T16:19:49Z</time>
      </trkpt>
      <trkpt lat="43.65951" lon="1.39251">
        <ele>127</ele>
        <time>2024-04-09T16:19:50Z</time>
      </trkpt>
      <trkpt lat="43.65952" lon="1.39251">
        <ele>127</ele>
        <time>2024-04-09T16:19:51Z</time>
      </trkpt>
      <trkpt lat="43.65954" lon="1.39251">
        <ele>127</ele>
        <time>2024-04-09T16:19:52Z</time>
      </trkpt>
      <trkpt lat="43.65955" lon="1.3925">
        <ele>127</ele>
        <time>2024-04-09T16:19:53Z</time>
      </trkpt>
      <trkpt lat="43.65963" lon="1.39248">
        <ele>127</ele>
        <time>2024-04-09T16:19:54Z</time>
      </trkpt>
      <trkpt lat="43.65965" lon="1.39247">
        <ele>127</ele>
        <time>2024-04-09T16:19:55Z</time>
      </trkpt>
      <trkpt lat="43.65968" lon="1.39245">
        <ele>127</ele>
        <time>2024-04-09T16:19:56Z</time>
      </trkpt>
      <trkpt lat="43.6597" lon="1.39244">
        <ele>127</ele>
        <time>2024-04-09T16:19:57Z</time>
      </trkpt>
      <trkpt lat="43.65972" lon="1.39244">
        <ele>127</ele>
        <time>2024-04-09T16:19:58Z</time>
      </trkpt>
      <trkpt lat="43.65974" lon="1.39243">
        <ele>127</ele>
        <time>2024-04-09T16:19:59Z</time>
      </trkpt>
      <trkpt lat="43.65977" lon="1.39243">
        <ele>127</ele>
        <time>2024-04-09T16:20:00Z</time>
      </trkpt>
      <trkpt lat="43.65979" lon="1.39242">
        <ele>127</ele>
        <time>2024-04-09T16:20:01Z</time>
      </trkpt>
      <trkpt lat="43.65981" lon="1.39242">
        <ele>127</ele>
        <time>2024-04-09T16:20:02Z</time>
      </trkpt>
      <trkpt lat="43.65984" lon="1.39241">
        <ele>127</ele>
        <time>2024-04-09T16:20:03Z</time>
      </trkpt>
      <trkpt lat="43.65986" lon="1.3924">
        <ele>127</ele>
        <time>2024-04-09T16:20:04Z</time>
      </trkpt>
      <trkpt lat="43.65989" lon="1.39239">
        <ele>127</ele>
        <time>2024-04-09T16:20:05Z</time>
      </trkpt>
      <trkpt lat="43.65992" lon="1.39238">
        <ele>127</ele>
        <time>2024-04-09T16:20:06Z</time>
      </trkpt>
      <trkpt lat="43.65995" lon="1.39235">
        <ele>127</ele>
        <time>2024-04-09T16:20:07Z</time>
      </trkpt>
      <trkpt lat="43.65999" lon="1.39232">
        <ele>127</ele>
        <time>2024-04-09T16:20:08Z</time>
      </trkpt>
      <trkpt lat="43.66001" lon="1.3923">
        <ele>128</ele>
        <time>2024-04-09T16:20:09Z</time>
      </trkpt>
      <trkpt lat="43.66004" lon="1.39227">
        <ele>128</ele>
        <time>2024-04-09T16:20:10Z</time>
      </trkpt>
      <trkpt lat="43.66005" lon="1.39226">
        <ele>128</ele>
        <time>2024-04-09T16:20:11Z</time>
      </trkpt>
      <trkpt lat="43.66007" lon="1.39224">
        <ele>127</ele>
        <time>2024-04-09T16:20:12Z</time>
      </trkpt>
      <trkpt lat="43.6601" lon="1.39222">
        <ele>127</ele>
        <time>2024-04-09T16:20:13Z</time>
      </trkpt>
      <trkpt lat="43.66011" lon="1.39221">
        <ele>127</ele>
        <time>2024-04-09T16:20:14Z</time>
      </trkpt>
      <trkpt lat="43.66012" lon="1.39221">
        <ele>127</ele>
        <time>2024-04-09T16:20:15Z</time>
      </trkpt>
      <trkpt lat="43.66014" lon="1.3922">
        <ele>127</ele>
        <time>2024-04-09T16:20:16Z</time>
      </trkpt>
      <trkpt lat="43.66015" lon="1.3922">
        <ele>127</ele>
        <time>2024-04-09T16:20:17Z</time>
      </trkpt>
      <trkpt lat="43.66016" lon="1.39219">
        <ele>127</ele>
        <time>2024-04-09T16:20:18Z</time>
      </trkpt>
      <trkpt lat="43.66017" lon="1.39219">
        <ele>127</ele>
        <time>2024-04-09T16:20:19Z</time>
      </trkpt>
      <trkpt lat="43.66025" lon="1.39216">
        <ele>127</ele>
        <time>2024-04-09T16:20:20Z</time>
      </trkpt>
      <trkpt lat="43.66028" lon="1.39216">
        <ele>127</ele>
        <time>2024-04-09T16:20:21Z</time>
      </trkpt>
      <trkpt lat="43.66032" lon="1.39216">
        <ele>127</ele>
        <time>2024-04-09T16:20:22Z</time>
      </trkpt>
      <trkpt lat="43.66035" lon="1.39216">
        <ele>128</ele>
        <time>2024-04-09T16:20:23Z</time>
      </trkpt>
      <trkpt lat="43.66037" lon="1.39216">
        <ele>128</ele>
        <time>2024-04-09T16:20:24Z</time>
      </trkpt>
      <trkpt lat="43.66038" lon="1.39215">
        <ele>128</ele>
        <time>2024-04-09T16:20:25Z</time>
      </trkpt>
      <trkpt lat="43.6604" lon="1.39215">
        <ele>127</ele>
        <time>2024-04-09T16:20:26Z</time>
      </trkpt>
      <trkpt lat="43.66047" lon="1.39214">
        <ele>127</ele>
        <time>2024-04-09T16:20:27Z</time>
      </trkpt>
      <trkpt lat="43.66049" lon="1.39214">
        <ele>127</ele>
        <time>2024-04-09T16:20:28Z</time>
      </trkpt>
      <trkpt lat="43.6605" lon="1.39213">
        <ele>127</ele>
        <time>2024-04-09T16:20:29Z</time>
      </trkpt>
      <trkpt lat="43.66052" lon="1.39213">
        <ele>127</ele>
        <time>2024-04-09T16:20:30Z</time>
      </trkpt>
      <trkpt lat="43.6606" lon="1.39212">
        <ele>127</ele>
        <time>2024-04-09T16:20:31Z</time>
      </trkpt>
      <trkpt lat="43.66062" lon="1.39211">
        <ele>127</ele>
        <time>2024-04-09T16:20:32Z</time>
      </trkpt>
      <trkpt lat="43.66065" lon="1.39211">
        <ele>127</ele>
        <time>2024-04-09T16:20:33Z</time>
      </trkpt>
      <trkpt lat="43.66067" lon="1.39211">
        <ele>127</ele>
        <time>2024-04-09T16:20:34Z</time>
      </trkpt>
      <trkpt lat="43.66069" lon="1.3921">
        <ele>127</ele>
        <time>2024-04-09T16:20:35Z</time>
      </trkpt>
      <trkpt lat="43.6607" lon="1.3921">
        <ele>127</ele>
        <time>2024-04-09T16:20:36Z</time>
      </trkpt>
      <trkpt lat="43.66071" lon="1.39209">
        <ele>127</ele>
        <time>2024-04-09T16:20:37Z</time>
      </trkpt>
      <trkpt lat="43.66072" lon="1.39208">
        <ele>127</ele>
        <time>2024-04-09T16:20:38Z</time>
      </trkpt>
      <trkpt lat="43.6608" lon="1.39204">
        <ele>127</ele>
        <time>2024-04-09T16:20:39Z</time>
      </trkpt>
      <trkpt lat="43.66082" lon="1.39203">
        <ele>127</ele>
        <time>2024-04-09T16:20:40Z</time>
      </trkpt>
      <trkpt lat="43.66084" lon="1.39202">
        <ele>127</ele>
        <time>2024-04-09T16:20:41Z</time>
      </trkpt>
      <trkpt lat="43.66086" lon="1.392">
        <ele>127</ele>
        <time>2024-04-09T16:20:42Z</time>
      </trkpt>
      <trkpt lat="43.66087" lon="1.39199">
        <ele>127</ele>
        <time>2024-04-09T16:20:43Z</time>
      </trkpt>
      <trkpt lat="43.66088" lon="1.39199">
        <ele>127</ele>
        <time>2024-04-09T16:20:44Z</time>
      </trkpt>
      <trkpt lat="43.66089" lon="1.39198">
        <ele>127</ele>
        <time>2024-04-09T16:20:45Z</time>
      </trkpt>
      <trkpt lat="43.66091" lon="1.39197">
        <ele>127</ele>
        <time>2024-04-09T16:20:46Z</time>
      </trkpt>
      <trkpt lat="43.66098" lon="1.39192">
        <ele>127</ele>
        <time>2024-04-09T16:20:47Z</time>
      </trkpt>
      <trkpt lat="43.66101" lon="1.39191">
        <ele>127</ele>
        <time>2024-04-09T16:20:48Z</time>
      </trkpt>
      <trkpt lat="43.66105" lon="1.39191">
        <ele>127</ele>
        <time>2024-04-09T16:20:49Z</time>
      </trkpt>
      <trkpt lat="43.66106" lon="1.3919">
        <ele>127</ele>
        <time>2024-04-09T16:20:50Z</time>
      </trkpt>
      <trkpt lat="43.66107" lon="1.3919">
        <ele>127</ele>
        <time>2024-04-09T16:20:51Z</time>
      </trkpt>
      <trkpt lat="43.66108" lon="1.3919">
        <ele>127</ele>
        <time>2024-04-09T16:20:52Z</time>
      </trkpt>
      <trkpt lat="43.6611" lon="1.39189">
        <ele>127</ele>
        <time>2024-04-09T16:20:53Z</time>
      </trkpt>
      <trkpt lat="43.66118" lon="1.39188">
        <ele>127</ele>
        <time>2024-04-09T16:20:54Z</time>
      </trkpt>
      <trkpt lat="43.66121" lon="1.39188">
        <ele>126</ele>
        <time>2024-04-09T16:20:55Z</time>
      </trkpt>
      <trkpt lat="43.66124" lon="1.39188">
        <ele>126</ele>
        <time>2024-04-09T16:20:56Z</time>
      </trkpt>
      <trkpt lat="43.66125" lon="1.39187">
        <ele>126</ele>
        <time>2024-04-09T16:20:57Z</time>
      </trkpt>
      <trkpt lat="43.66127" lon="1.39187">
        <ele>126</ele>
        <time>2024-04-09T16:20:58Z</time>
      </trkpt>
      <trkpt lat="43.66128" lon="1.39187">
        <ele>126</ele>
        <time>2024-04-09T16:20:59Z</time>
      </trkpt>
      <trkpt lat="43.66129" lon="1.39187">
        <ele>126</ele>
        <time>2024-04-09T16:21:00Z</time>
      </trkpt>
      <trkpt lat="43.66136" lon="1.39184">
        <ele>126</ele>
        <time>2024-04-09T16:21:01Z</time>
      </trkpt>
      <trkpt lat="43.66138" lon="1.39183">
        <ele>126</ele>
        <time>2024-04-09T16:21:02Z</time>
      </trkpt>
      <trkpt lat="43.66139" lon="1.39182">
        <ele>127</ele>
        <time>2024-04-09T16:21:03Z</time>
      </trkpt>
      <trkpt lat="43.66141" lon="1.39181">
        <ele>127</ele>
        <time>2024-04-09T16:21:04Z</time>
      </trkpt>
      <trkpt lat="43.66143" lon="1.39179">
        <ele>127</ele>
        <time>2024-04-09T16:21:05Z</time>
      </trkpt>
      <trkpt lat="43.66144" lon="1.39178">
        <ele>127</ele>
        <time>2024-04-09T16:21:06Z</time>
      </trkpt>
      <trkpt lat="43.66146" lon="1.39178">
        <ele>127</ele>
        <time>2024-04-09T16:21:07Z</time>
      </trkpt>
      <trkpt lat="43.66147" lon="1.39177">
        <ele>127</ele>
        <time>2024-04-09T16:21:08Z</time>
      </trkpt>
      <trkpt lat="43.66154" lon="1.39173">
        <ele>127</ele>
        <time>2024-04-09T16:21:09Z</time>
      </trkpt>
      <trkpt lat="43.66156" lon="1.39172">
        <ele>127</ele>
        <time>2024-04-09T16:21:10Z</time>
      </trkpt>
      <trkpt lat="43.66158" lon="1.39171">
        <ele>127</ele>
        <time>2024-04-09T16:21:11Z</time>
      </trkpt>
      <trkpt lat="43.6616" lon="1.3917">
        <ele>127</ele>
        <time>2024-04-09T16:21:12Z</time>
      </trkpt>
      <trkpt lat="43.66162" lon="1.39169">
        <ele>127</ele>
        <time>2024-04-09T16:21:13Z</time>
      </trkpt>
      <trkpt lat="43.66165" lon="1.39166">
        <ele>127</ele>
        <time>2024-04-09T16:21:14Z</time>
      </trkpt>
      <trkpt lat="43.66168" lon="1.39164">
        <ele>127</ele>
        <time>2024-04-09T16:21:15Z</time>
      </trkpt>
      <trkpt lat="43.6617" lon="1.39162">
        <ele>127</ele>
        <time>2024-04-09T16:21:16Z</time>
      </trkpt>
      <trkpt lat="43.66173" lon="1.3916">
        <ele>127</ele>
        <time>2024-04-09T16:21:17Z</time>
      </trkpt>
      <trkpt lat="43.66176" lon="1.39159">
        <ele>127</ele>
        <time>2024-04-09T16:21:18Z</time>
      </trkpt>
      <trkpt lat="43.66178" lon="1.39157">
        <ele>127</ele>
        <time>2024-04-09T16:21:19Z</time>
      </trkpt>
      <trkpt lat="43.66181" lon="1.39155">
        <ele>127</ele>
        <time>2024-04-09T16:21:20Z</time>
      </trkpt>
      <trkpt lat="43.66183" lon="1.39153">
        <ele>127</ele>
        <time>2024-04-09T16:21:21Z</time>
      </trkpt>
      <trkpt lat="43.66185" lon="1.39152">
        <ele>126</ele>
        <time>2024-04-09T16:21:22Z</time>
      </trkpt>
      <trkpt lat="43.66187" lon="1.3915">
        <ele>126</ele>
        <time>2024-04-09T16:21:23Z</time>
      </trkpt>
      <trkpt lat="43.6619" lon="1.39148">
        <ele>126</ele>
        <time>2024-04-09T16:21:24Z</time>
      </trkpt>
      <trkpt lat="43.66191" lon="1.39144">
        <ele>126</ele>
        <time>2024-04-09T16:21:25Z</time>
      </trkpt>
      <trkpt lat="43.66192" lon="1.39141">
        <ele>126</ele>
        <time>2024-04-09T16:21:26Z</time>
      </trkpt>
      <trkpt lat="43.66193" lon="1.39137">
        <ele>126</ele>
        <time>2024-04-09T16:21:27Z</time>
      </trkpt>
      <trkpt lat="43.66196" lon="1.39135">
        <ele>126</ele>
        <time>2024-04-09T16:21:28Z</time>
      </trkpt>
      <trkpt lat="43.66199" lon="1.39134">
        <ele>126</ele>
        <time>2024-04-09T16:21:29Z</time>
      </trkpt>
      <trkpt lat="43.66202" lon="1.39132">
        <ele>126</ele>
        <time>2024-04-09T16:21:30Z</time>
      </trkpt>
      <trkpt lat="43.66204" lon="1.39133">
        <ele>126</ele>
        <time>2024-04-09T16:21:31Z</time>
      </trkpt>
      <trkpt lat="43.66206" lon="1.39133">
        <ele>127</ele>
        <time>2024-04-09T16:21:32Z</time>
      </trkpt>
      <trkpt lat="43.66207" lon="1.39134">
        <ele>127</ele>
        <time>2024-04-09T16:21:33Z</time>
      </trkpt>
      <trkpt lat="43.66214" lon="1.39137">
        <ele>127</ele>
        <time>2024-04-09T16:21:34Z</time>
      </trkpt>
      <trkpt lat="43.66216" lon="1.39139">
        <ele>127</ele>
        <time>2024-04-09T16:21:35Z</time>
      </trkpt>
      <trkpt lat="43.66217" lon="1.39141">
        <ele>127</ele>
        <time>2024-04-09T16:21:36Z</time>
      </trkpt>
      <trkpt lat="43.66224" lon="1.39148">
        <ele>126</ele>
        <time>2024-04-09T16:21:37Z</time>
      </trkpt>
      <trkpt lat="43.66225" lon="1.39149">
        <ele>126</ele>
        <time>2024-04-09T16:21:38Z</time>
      </trkpt>
      <trkpt lat="43.66226" lon="1.39151">
        <ele>126</ele>
        <time>2024-04-09T16:21:39Z</time>
      </trkpt>
      <trkpt lat="43.66232" lon="1.39157">
        <ele>126</ele>
        <time>2024-04-09T16:21:40Z</time>
      </trkpt>
      <trkpt lat="43.66233" lon="1.39159">
        <ele>126</ele>
        <time>2024-04-09T16:21:41Z</time>
      </trkpt>
      <trkpt lat="43.66235" lon="1.3916">
        <ele>126</ele>
        <time>2024-04-09T16:21:42Z</time>
      </trkpt>
      <trkpt lat="43.66241" lon="1.39165">
        <ele>126</ele>
        <time>2024-04-09T16:21:43Z</time>
      </trkpt>
      <trkpt lat="43.66243" lon="1.39166">
        <ele>126</ele>
        <time>2024-04-09T16:21:44Z</time>
      </trkpt>
      <trkpt lat="43.66245" lon="1.39167">
        <ele>126</ele>
        <time>2024-04-09T16:21:45Z</time>
      </trkpt>
      <trkpt lat="43.66247" lon="1.39167">
        <ele>126</ele>
        <time>2024-04-09T16:21:46Z</time>
      </trkpt>
      <trkpt lat="43.66249" lon="1.39168">
        <ele>126</ele>
        <time>2024-04-09T16:21:47Z</time>
      </trkpt>
      <trkpt lat="43.6625" lon="1.39165">
        <ele>126</ele>
        <time>2024-04-09T16:21:48Z</time>
      </trkpt>
      <trkpt lat="43.66251" lon="1.39162">
        <ele>126</ele>
        <time>2024-04-09T16:21:49Z</time>
      </trkpt>
      <trkpt lat="43.66253" lon="1.3916">
        <ele>126</ele>
        <time>2024-04-09T16:21:50Z</time>
      </trkpt>
      <trkpt lat="43.66254" lon="1.39157">
        <ele>126</ele>
        <time>2024-04-09T16:21:51Z</time>
      </trkpt>
      <trkpt lat="43.66254" lon="1.39154">
        <ele>126</ele>
        <time>2024-04-09T16:21:52Z</time>
      </trkpt>
      <trkpt lat="43.66254" lon="1.3915">
        <ele>126</ele>
        <time>2024-04-09T16:21:53Z</time>
      </trkpt>
      <trkpt lat="43.66254" lon="1.39147">
        <ele>126</ele>
        <time>2024-04-09T16:21:54Z</time>
      </trkpt>
      <trkpt lat="43.66254" lon="1.39144">
        <ele>126</ele>
        <time>2024-04-09T16:21:55Z</time>
      </trkpt>
      <trkpt lat="43.66254" lon="1.3914">
        <ele>126</ele>
        <time>2024-04-09T16:21:56Z</time>
      </trkpt>
      <trkpt lat="43.66255" lon="1.39137">
        <ele>126</ele>
        <time>2024-04-09T16:21:57Z</time>
      </trkpt>
      <trkpt lat="43.66255" lon="1.39134">
        <ele>126</ele>
        <time>2024-04-09T16:21:58Z</time>
      </trkpt>
      <trkpt lat="43.66255" lon="1.3913">
        <ele>126</ele>
        <time>2024-04-09T16:21:59Z</time>
      </trkpt>
      <trkpt lat="43.66255" lon="1.39127">
        <ele>126</ele>
        <time>2024-04-09T16:22:00Z</time>
      </trkpt>
      <trkpt lat="43.66255" lon="1.39124">
        <ele>126</ele>
        <time>2024-04-09T16:22:01Z</time>
      </trkpt>
      <trkpt lat="43.66256" lon="1.39121">
        <ele>126</ele>
        <time>2024-04-09T16:22:02Z</time>
      </trkpt>
      <trkpt lat="43.66256" lon="1.39118">
        <ele>126</ele>
        <time>2024-04-09T16:22:03Z</time>
      </trkpt>
      <trkpt lat="43.66257" lon="1.39112">
        <ele>126</ele>
        <time>2024-04-09T16:22:04Z</time>
      </trkpt>
      <trkpt lat="43.66258" lon="1.39106">
        <ele>126</ele>
        <time>2024-04-09T16:22:05Z</time>
      </trkpt>
      <trkpt lat="43.66259" lon="1.39104">
        <ele>126</ele>
        <time>2024-04-09T16:22:06Z</time>
      </trkpt>
      <trkpt lat="43.6626" lon="1.39102">
        <ele>125</ele>
        <time>2024-04-09T16:22:07Z</time>
      </trkpt>
      <trkpt lat="43.66261" lon="1.39101">
        <ele>125</ele>
        <time>2024-04-09T16:22:08Z</time>
      </trkpt>
      <trkpt lat="43.66261" lon="1.39099">
        <ele>125</ele>
        <time>2024-04-09T16:22:09Z</time>
      </trkpt>
      <trkpt lat="43.66266" lon="1.3909">
        <ele>125</ele>
        <time>2024-04-09T16:22:10Z</time>
      </trkpt>
      <trkpt lat="43.66267" lon="1.39088">
        <ele>125</ele>
        <time>2024-04-09T16:22:11Z</time>
      </trkpt>
      <trkpt lat="43.66268" lon="1.39086">
        <ele>125</ele>
        <time>2024-04-09T16:22:12Z</time>
      </trkpt>
      <trkpt lat="43.66269" lon="1.39084">
        <ele>125</ele>
        <time>2024-04-09T16:22:13Z</time>
      </trkpt>
      <trkpt lat="43.6627" lon="1.39082">
        <ele>125</ele>
        <time>2024-04-09T16:22:14Z</time>
      </trkpt>
      <trkpt lat="43.66271" lon="1.3908">
        <ele>125</ele>
        <time>2024-04-09T16:22:15Z</time>
      </trkpt>
      <trkpt lat="43.66271" lon="1.39078">
        <ele>125</ele>
        <time>2024-04-09T16:22:16Z</time>
      </trkpt>
      <trkpt lat="43.66271" lon="1.39076">
        <ele>125</ele>
        <time>2024-04-09T16:22:17Z</time>
      </trkpt>
      <trkpt lat="43.66271" lon="1.39074">
        <ele>125</ele>
        <time>2024-04-09T16:22:18Z</time>
      </trkpt>
      <trkpt lat="43.66272" lon="1.39063">
        <ele>125</ele>
        <time>2024-04-09T16:22:19Z</time>
      </trkpt>
      <trkpt lat="43.66272" lon="1.3906">
        <ele>125</ele>
        <time>2024-04-09T16:22:20Z</time>
      </trkpt>
      <trkpt lat="43.66271" lon="1.39056">
        <ele>125</ele>
        <time>2024-04-09T16:22:21Z</time>
      </trkpt>
      <trkpt lat="43.66271" lon="1.39053">
        <ele>125</ele>
        <time>2024-04-09T16:22:22Z</time>
      </trkpt>
      <trkpt lat="43.66271" lon="1.3905">
        <ele>125</ele>
        <time>2024-04-09T16:22:23Z</time>
      </trkpt>
      <trkpt lat="43.66272" lon="1.39048">
        <ele>125</ele>
        <time>2024-04-09T16:22:24Z</time>
      </trkpt>
      <trkpt lat="43.66272" lon="1.39045">
        <ele>125</ele>
        <time>2024-04-09T16:22:25Z</time>
      </trkpt>
      <trkpt lat="43.66274" lon="1.39033">
        <ele>125</ele>
        <time>2024-04-09T16:22:26Z</time>
      </trkpt>
      <trkpt lat="43.66275" lon="1.39029">
        <ele>125</ele>
        <time>2024-04-09T16:22:27Z</time>
      </trkpt>
      <trkpt lat="43.66276" lon="1.39025">
        <ele>124</ele>
        <time>2024-04-09T16:22:28Z</time>
      </trkpt>
      <trkpt lat="43.66277" lon="1.39021">
        <ele>124</ele>
        <time>2024-04-09T16:22:29Z</time>
      </trkpt>
      <trkpt lat="43.66278" lon="1.39018">
        <ele>124</ele>
        <time>2024-04-09T16:22:30Z</time>
      </trkpt>
      <trkpt lat="43.66279" lon="1.39016">
        <ele>124</ele>
        <time>2024-04-09T16:22:31Z</time>
      </trkpt>
      <trkpt lat="43.6628" lon="1.39014">
        <ele>124</ele>
        <time>2024-04-09T16:22:32Z</time>
      </trkpt>
      <trkpt lat="43.66285" lon="1.39004">
        <ele>124</ele>
        <time>2024-04-09T16:22:33Z</time>
      </trkpt>
      <trkpt lat="43.66286" lon="1.39001">
        <ele>124</ele>
        <time>2024-04-09T16:22:34Z</time>
      </trkpt>
      <trkpt lat="43.66288" lon="1.38997">
        <ele>124</ele>
        <time>2024-04-09T16:22:35Z</time>
      </trkpt>
      <trkpt lat="43.66289" lon="1.38994">
        <ele>124</ele>
        <time>2024-04-09T16:22:36Z</time>
      </trkpt>
      <trkpt lat="43.6629" lon="1.38992">
        <ele>124</ele>
        <time>2024-04-09T16:22:37Z</time>
      </trkpt>
      <trkpt lat="43.6629" lon="1.3899">
        <ele>124</ele>
        <time>2024-04-09T16:22:38Z</time>
      </trkpt>
      <trkpt lat="43.66291" lon="1.38989">
        <ele>124</ele>
        <time>2024-04-09T16:22:39Z</time>
      </trkpt>
      <trkpt lat="43.66291" lon="1.38987">
        <ele>125</ele>
        <time>2024-04-09T16:22:40Z</time>
      </trkpt>
      <trkpt lat="43.66295" lon="1.38978">
        <ele>125</ele>
        <time>2024-04-09T16:22:41Z</time>
      </trkpt>
      <trkpt lat="43.66296" lon="1.38976">
        <ele>125</ele>
        <time>2024-04-09T16:22:42Z</time>
      </trkpt>
      <trkpt lat="43.66297" lon="1.38974">
        <ele>125</ele>
        <time>2024-04-09T16:22:43Z</time>
      </trkpt>
      <trkpt lat="43.66299" lon="1.38971">
        <ele>125</ele>
        <time>2024-04-09T16:22:44Z</time>
      </trkpt>
      <trkpt lat="43.663" lon="1.38969">
        <ele>125</ele>
        <time>2024-04-09T16:22:45Z</time>
      </trkpt>
      <trkpt lat="43.66301" lon="1.38967">
        <ele>125</ele>
        <time>2024-04-09T16:22:46Z</time>
      </trkpt>
      <trkpt lat="43.66302" lon="1.38965">
        <ele>124</ele>
        <time>2024-04-09T16:22:47Z</time>
      </trkpt>
      <trkpt lat="43.66303" lon="1.38962">
        <ele>124</ele>
        <time>2024-04-09T16:22:48Z</time>
      </trkpt>
      <trkpt lat="43.66307" lon="1.38955">
        <ele>124</ele>
        <time>2024-04-09T16:22:49Z</time>
      </trkpt>
      <trkpt lat="43.66309" lon="1.38954">
        <ele>124</ele>
        <time>2024-04-09T16:22:50Z</time>
      </trkpt>
      <trkpt lat="43.6631" lon="1.38953">
        <ele>124</ele>
        <time>2024-04-09T16:22:51Z</time>
      </trkpt>
      <trkpt lat="43.66312" lon="1.38952">
        <ele>124</ele>
        <time>2024-04-09T16:22:52Z</time>
      </trkpt>
      <trkpt lat="43.66314" lon="1.3895">
        <ele>123</ele>
        <time>2024-04-09T16:22:53Z</time>
      </trkpt>
      <trkpt lat="43.66315" lon="1.38949">
        <ele>124</ele>
        <time>2024-04-09T16:22:54Z</time>
      </trkpt>
      <trkpt lat="43.66317" lon="1.38948">
        <ele>124</ele>
        <time>2024-04-09T16:22:55Z</time>
      </trkpt>
      <trkpt lat="43.66318" lon="1.38946">
        <ele>124</ele>
        <time>2024-04-09T16:22:56Z</time>
      </trkpt>
      <trkpt lat="43.66319" lon="1.38944">
        <ele>124</ele>
        <time>2024-04-09T16:22:57Z</time>
      </trkpt>
      <trkpt lat="43.66324" lon="1.38938">
        <ele>124</ele>
        <time>2024-04-09T16:22:58Z</time>
      </trkpt>
      <trkpt lat="43.66325" lon="1.38936">
        <ele>124</ele>
        <time>2024-04-09T16:22:59Z</time>
      </trkpt>
      <trkpt lat="43.66327" lon="1.38935">
        <ele>124</ele>
        <time>2024-04-09T16:23:00Z</time>
      </trkpt>
      <trkpt lat="43.66328" lon="1.38934">
        <ele>124</ele>
        <time>2024-04-09T16:23:01Z</time>
      </trkpt>
      <trkpt lat="43.66335" lon="1.38927">
        <ele>124</ele>
        <time>2024-04-09T16:23:02Z</time>
      </trkpt>
      <trkpt lat="43.66337" lon="1.38924">
        <ele>124</ele>
        <time>2024-04-09T16:23:03Z</time>
      </trkpt>
      <trkpt lat="43.6634" lon="1.38921">
        <ele>124</ele>
        <time>2024-04-09T16:23:04Z</time>
      </trkpt>
      <trkpt lat="43.66341" lon="1.38918">
        <ele>124</ele>
        <time>2024-04-09T16:23:05Z</time>
      </trkpt>
      <trkpt lat="43.66343" lon="1.38915">
        <ele>124</ele>
        <time>2024-04-09T16:23:06Z</time>
      </trkpt>
      <trkpt lat="43.66344" lon="1.38912">
        <ele>124</ele>
        <time>2024-04-09T16:23:07Z</time>
      </trkpt>
      <trkpt lat="43.66345" lon="1.38909">
        <ele>124</ele>
        <time>2024-04-09T16:23:08Z</time>
      </trkpt>
      <trkpt lat="43.66346" lon="1.38907">
        <ele>124</ele>
        <time>2024-04-09T16:23:09Z</time>
      </trkpt>
      <trkpt lat="43.66347" lon="1.38906">
        <ele>124</ele>
        <time>2024-04-09T16:23:10Z</time>
      </trkpt>
      <trkpt lat="43.66348" lon="1.38904">
        <ele>124</ele>
        <time>2024-04-09T16:23:11Z</time>
      </trkpt>
      <trkpt lat="43.66348" lon="1.38902">
        <ele>124</ele>
        <time>2024-04-09T16:23:12Z</time>
      </trkpt>
      <trkpt lat="43.66352" lon="1.38894">
        <ele>124</ele>
        <time>2024-04-09T16:23:13Z</time>
      </trkpt>
      <trkpt lat="43.66353" lon="1.38893">
        <ele>124</ele>
        <time>2024-04-09T16:23:14Z</time>
      </trkpt>
      <trkpt lat="43.66354" lon="1.38892">
        <ele>124</ele>
        <time>2024-04-09T16:23:15Z</time>
      </trkpt>
      <trkpt lat="43.66355" lon="1.38891">
        <ele>124</ele>
        <time>2024-04-09T16:23:16Z</time>
      </trkpt>
      <trkpt lat="43.66361" lon="1.38884">
        <ele>124</ele>
        <time>2024-04-09T16:23:17Z</time>
      </trkpt>
      <trkpt lat="43.66362" lon="1.38883">
        <ele>124</ele>
        <time>2024-04-09T16:23:18Z</time>
      </trkpt>
      <trkpt lat="43.66363" lon="1.38882">
        <ele>124</ele>
        <time>2024-04-09T16:23:19Z</time>
      </trkpt>
      <trkpt lat="43.66364" lon="1.38881">
        <ele>124</ele>
        <time>2024-04-09T16:23:20Z</time>
      </trkpt>
      <trkpt lat="43.66369" lon="1.38875">
        <ele>124</ele>
        <time>2024-04-09T16:23:21Z</time>
      </trkpt>
      <trkpt lat="43.6637" lon="1.38874">
        <ele>124</ele>
        <time>2024-04-09T16:23:22Z</time>
      </trkpt>
      <trkpt lat="43.66371" lon="1.38873">
        <ele>124</ele>
        <time>2024-04-09T16:23:23Z</time>
      </trkpt>
      <trkpt lat="43.66372" lon="1.38871">
        <ele>124</ele>
        <time>2024-04-09T16:23:24Z</time>
      </trkpt>
      <trkpt lat="43.6638" lon="1.38865">
        <ele>124</ele>
        <time>2024-04-09T16:23:25Z</time>
      </trkpt>
      <trkpt lat="43.66382" lon="1.38863">
        <ele>124</ele>
        <time>2024-04-09T16:23:26Z</time>
      </trkpt>
      <trkpt lat="43.66385" lon="1.38861">
        <ele>124</ele>
        <time>2024-04-09T16:23:27Z</time>
      </trkpt>
      <trkpt lat="43.66386" lon="1.3886">
        <ele>124</ele>
        <time>2024-04-09T16:23:28Z</time>
      </trkpt>
      <trkpt lat="43.66387" lon="1.38859">
        <ele>124</ele>
        <time>2024-04-09T16:23:29Z</time>
      </trkpt>
      <trkpt lat="43.66388" lon="1.38858">
        <ele>124</ele>
        <time>2024-04-09T16:23:30Z</time>
      </trkpt>
      <trkpt lat="43.66389" lon="1.38857">
        <ele>124</ele>
        <time>2024-04-09T16:23:31Z</time>
      </trkpt>
      <trkpt lat="43.66395" lon="1.38851">
        <ele>124</ele>
        <time>2024-04-09T16:23:32Z</time>
      </trkpt>
      <trkpt lat="43.66396" lon="1.3885">
        <ele>124</ele>
        <time>2024-04-09T16:23:33Z</time>
      </trkpt>
      <trkpt lat="43.66397" lon="1.38849">
        <ele>124</ele>
        <time>2024-04-09T16:23:34Z</time>
      </trkpt>
      <trkpt lat="43.66398" lon="1.38848">
        <ele>124</ele>
        <time>2024-04-09T16:23:35Z</time>
      </trkpt>
      <trkpt lat="43.66403" lon="1.38841">
        <ele>124</ele>
        <time>2024-04-09T16:23:36Z</time>
      </trkpt>
      <trkpt lat="43.66405" lon="1.38838">
        <ele>125</ele>
        <time>2024-04-09T16:23:37Z</time>
      </trkpt>
      <trkpt lat="43.66407" lon="1.38836">
        <ele>125</ele>
        <time>2024-04-09T16:23:38Z</time>
      </trkpt>
      <trkpt lat="43.66409" lon="1.38834">
        <ele>125</ele>
        <time>2024-04-09T16:23:39Z</time>
      </trkpt>
      <trkpt lat="43.66411" lon="1.38833">
        <ele>125</ele>
        <time>2024-04-09T16:23:40Z</time>
      </trkpt>
      <trkpt lat="43.66412" lon="1.38831">
        <ele>124</ele>
        <time>2024-04-09T16:23:41Z</time>
      </trkpt>
      <trkpt lat="43.66414" lon="1.38829">
        <ele>124</ele>
        <time>2024-04-09T16:23:42Z</time>
      </trkpt>
      <trkpt lat="43.6642" lon="1.38824">
        <ele>124</ele>
        <time>2024-04-09T16:23:43Z</time>
      </trkpt>
      <trkpt lat="43.66421" lon="1.38823">
        <ele>124</ele>
        <time>2024-04-09T16:23:44Z</time>
      </trkpt>
      <trkpt lat="43.66422" lon="1.38822">
        <ele>125</ele>
        <time>2024-04-09T16:23:45Z</time>
      </trkpt>
      <trkpt lat="43.66424" lon="1.38821">
        <ele>125</ele>
        <time>2024-04-09T16:23:46Z</time>
      </trkpt>
      <trkpt lat="43.66431" lon="1.38816">
        <ele>125</ele>
        <time>2024-04-09T16:23:47Z</time>
      </trkpt>
      <trkpt lat="43.66433" lon="1.38815">
        <ele>125</ele>
        <time>2024-04-09T16:23:48Z</time>
      </trkpt>
      <trkpt lat="43.66435" lon="1.38814">
        <ele>125</ele>
        <time>2024-04-09T16:23:49Z</time>
      </trkpt>
      <trkpt lat="43.66437" lon="1.38813">
        <ele>125</ele>
        <time>2024-04-09T16:23:50Z</time>
      </trkpt>
      <trkpt lat="43.66439" lon="1.38811">
        <ele>125</ele>
        <time>2024-04-09T16:23:51Z</time>
      </trkpt>
      <trkpt lat="43.66441" lon="1.38809">
        <ele>125</ele>
        <time>2024-04-09T16:23:52Z</time>
      </trkpt>
      <trkpt lat="43.66443" lon="1.38808">
        <ele>125</ele>
        <time>2024-04-09T16:23:53Z</time>
      </trkpt>
      <trkpt lat="43.66445" lon="1.38806">
        <ele>125</ele>
        <time>2024-04-09T16:23:54Z</time>
      </trkpt>
      <trkpt lat="43.66446" lon="1.38804">
        <ele>125</ele>
        <time>2024-04-09T16:23:55Z</time>
      </trkpt>
      <trkpt lat="43.66448" lon="1.38803">
        <ele>125</ele>
        <time>2024-04-09T16:23:56Z</time>
      </trkpt>
      <trkpt lat="43.66449" lon="1.38802">
        <ele>125</ele>
        <time>2024-04-09T16:23:57Z</time>
      </trkpt>
      <trkpt lat="43.66451" lon="1.388">
        <ele>125</ele>
        <time>2024-04-09T16:23:58Z</time>
      </trkpt>
      <trkpt lat="43.66457" lon="1.38795">
        <ele>125</ele>
        <time>2024-04-09T16:23:59Z</time>
      </trkpt>
      <trkpt lat="43.66458" lon="1.38794">
        <ele>124</ele>
        <time>2024-04-09T16:24:00Z</time>
      </trkpt>
      <trkpt lat="43.66459" lon="1.38794">
        <ele>124</ele>
        <time>2024-04-09T16:24:01Z</time>
      </trkpt>
      <trkpt lat="43.66461" lon="1.38793">
        <ele>125</ele>
        <time>2024-04-09T16:24:02Z</time>
      </trkpt>
      <trkpt lat="43.66467" lon="1.38788">
        <ele>125</ele>
        <time>2024-04-09T16:24:03Z</time>
      </trkpt>
      <trkpt lat="43.66467" lon="1.38787">
        <ele>125</ele>
        <time>2024-04-09T16:24:04Z</time>
      </trkpt>
      <trkpt lat="43.66468" lon="1.38785">
        <ele>125</ele>
        <time>2024-04-09T16:24:05Z</time>
      </trkpt>
      <trkpt lat="43.66469" lon="1.38784">
        <ele>125</ele>
        <time>2024-04-09T16:24:06Z</time>
      </trkpt>
      <trkpt lat="43.66474" lon="1.38778">
        <ele>125</ele>
        <time>2024-04-09T16:24:07Z</time>
      </trkpt>
      <trkpt lat="43.66476" lon="1.38777">
        <ele>125</ele>
        <time>2024-04-09T16:24:08Z</time>
      </trkpt>
      <trkpt lat="43.66477" lon="1.38776">
        <ele>125</ele>
        <time>2024-04-09T16:24:09Z</time>
      </trkpt>
      <trkpt lat="43.66478" lon="1.38775">
        <ele>125</ele>
        <time>2024-04-09T16:24:10Z</time>
      </trkpt>
      <trkpt lat="43.66486" lon="1.38768">
        <ele>124</ele>
        <time>2024-04-09T16:24:11Z</time>
      </trkpt>
      <trkpt lat="43.66488" lon="1.38766">
        <ele>124</ele>
        <time>2024-04-09T16:24:12Z</time>
      </trkpt>
      <trkpt lat="43.66491" lon="1.38763">
        <ele>125</ele>
        <time>2024-04-09T16:24:13Z</time>
      </trkpt>
      <trkpt lat="43.66493" lon="1.38761">
        <ele>125</ele>
        <time>2024-04-09T16:24:14Z</time>
      </trkpt>
      <trkpt lat="43.66495" lon="1.38758">
        <ele>125</ele>
        <time>2024-04-09T16:24:15Z</time>
      </trkpt>
      <trkpt lat="43.66497" lon="1.38756">
        <ele>125</ele>
        <time>2024-04-09T16:24:16Z</time>
      </trkpt>
      <trkpt lat="43.66499" lon="1.38753">
        <ele>125</ele>
        <time>2024-04-09T16:24:17Z</time>
      </trkpt>
      <trkpt lat="43.66501" lon="1.38751">
        <ele>124</ele>
        <time>2024-04-09T16:24:18Z</time>
      </trkpt>
      <trkpt lat="43.66504" lon="1.38748">
        <ele>124</ele>
        <time>2024-04-09T16:24:19Z</time>
      </trkpt>
      <trkpt lat="43.66506" lon="1.38746">
        <ele>124</ele>
        <time>2024-04-09T16:24:20Z</time>
      </trkpt>
      <trkpt lat="43.66507" lon="1.38745">
        <ele>124</ele>
        <time>2024-04-09T16:24:21Z</time>
      </trkpt>
      <trkpt lat="43.66509" lon="1.38743">
        <ele>124</ele>
        <time>2024-04-09T16:24:22Z</time>
      </trkpt>
      <trkpt lat="43.6651" lon="1.38742">
        <ele>124</ele>
        <time>2024-04-09T16:24:23Z</time>
      </trkpt>
      <trkpt lat="43.66512" lon="1.38741">
        <ele>124</ele>
        <time>2024-04-09T16:24:24Z</time>
      </trkpt>
      <trkpt lat="43.66518" lon="1.38737">
        <ele>124</ele>
        <time>2024-04-09T16:24:25Z</time>
      </trkpt>
      <trkpt lat="43.66518" lon="1.38737">
        <ele>124</ele>
        <time>2024-04-09T16:24:26Z</time>
      </trkpt>
      <trkpt lat="43.66522" lon="1.38734">
        <ele>124</ele>
        <time>2024-04-09T16:24:27Z</time>
      </trkpt>
      <trkpt lat="43.66526" lon="1.38731">
        <ele>124</ele>
        <time>2024-04-09T16:24:28Z</time>
      </trkpt>
      <trkpt lat="43.66528" lon="1.38728">
        <ele>124</ele>
        <time>2024-04-09T16:24:29Z</time>
      </trkpt>
      <trkpt lat="43.66531" lon="1.38725">
        <ele>124</ele>
        <time>2024-04-09T16:24:30Z</time>
      </trkpt>
      <trkpt lat="43.66532" lon="1.38723">
        <ele>124</ele>
        <time>2024-04-09T16:24:31Z</time>
      </trkpt>
      <trkpt lat="43.66535" lon="1.3872">
        <ele>124</ele>
        <time>2024-04-09T16:24:32Z</time>
      </trkpt>
      <trkpt lat="43.66536" lon="1.38719">
        <ele>124</ele>
        <time>2024-04-09T16:24:33Z</time>
      </trkpt>
      <trkpt lat="43.66541" lon="1.38717">
        <ele>124</ele>
        <time>2024-04-09T16:24:34Z</time>
      </trkpt>
      <trkpt lat="43.66543" lon="1.38716">
        <ele>124</ele>
        <time>2024-04-09T16:24:35Z</time>
      </trkpt>
      <trkpt lat="43.66547" lon="1.38717">
        <ele>124</ele>
        <time>2024-04-09T16:24:36Z</time>
      </trkpt>
      <trkpt lat="43.66548" lon="1.38717">
        <ele>123</ele>
        <time>2024-04-09T16:24:37Z</time>
      </trkpt>
      <trkpt lat="43.6655" lon="1.38718">
        <ele>123</ele>
        <time>2024-04-09T16:24:38Z</time>
      </trkpt>
      <trkpt lat="43.66552" lon="1.38718">
        <ele>123</ele>
        <time>2024-04-09T16:24:39Z</time>
      </trkpt>
      <trkpt lat="43.6656" lon="1.38722">
        <ele>123</ele>
        <time>2024-04-09T16:24:40Z</time>
      </trkpt>
      <trkpt lat="43.66562" lon="1.38724">
        <ele>123</ele>
        <time>2024-04-09T16:24:41Z</time>
      </trkpt>
      <trkpt lat="43.66564" lon="1.38726">
        <ele>124</ele>
        <time>2024-04-09T16:24:42Z</time>
      </trkpt>
      <trkpt lat="43.6657" lon="1.38731">
        <ele>124</ele>
        <time>2024-04-09T16:24:43Z</time>
      </trkpt>
      <trkpt lat="43.66573" lon="1.38734">
        <ele>124</ele>
        <time>2024-04-09T16:24:44Z</time>
      </trkpt>
      <trkpt lat="43.66576" lon="1.38738">
        <ele>124</ele>
        <time>2024-04-09T16:24:45Z</time>
      </trkpt>
      <trkpt lat="43.66578" lon="1.38741">
        <ele>124</ele>
        <time>2024-04-09T16:24:46Z</time>
      </trkpt>
      <trkpt lat="43.66583" lon="1.38747">
        <ele>124</ele>
        <time>2024-04-09T16:24:47Z</time>
      </trkpt>
      <trkpt lat="43.66585" lon="1.3875">
        <ele>124</ele>
        <time>2024-04-09T16:24:48Z</time>
      </trkpt>
      <trkpt lat="43.66585" lon="1.3875">
        <ele>124</ele>
        <time>2024-04-09T16:24:49Z</time>
      </trkpt>
      <trkpt lat="43.66588" lon="1.38753">
        <ele>124</ele>
        <time>2024-04-09T16:24:50Z</time>
      </trkpt>
      <trkpt lat="43.66591" lon="1.38758">
        <ele>123</ele>
        <time>2024-04-09T16:24:51Z</time>
      </trkpt>
      <trkpt lat="43.66592" lon="1.38759">
        <ele>123</ele>
        <time>2024-04-09T16:24:52Z</time>
      </trkpt>
      <trkpt lat="43.66594" lon="1.38763">
        <ele>123</ele>
        <time>2024-04-09T16:24:53Z</time>
      </trkpt>
      <trkpt lat="43.66597" lon="1.38767">
        <ele>123</ele>
        <time>2024-04-09T16:24:54Z</time>
      </trkpt>
      <trkpt lat="43.66598" lon="1.38769">
        <ele>123</ele>
        <time>2024-04-09T16:24:55Z</time>
      </trkpt>
      <trkpt lat="43.666" lon="1.38774">
        <ele>124</ele>
        <time>2024-04-09T16:24:56Z</time>
      </trkpt>
      <trkpt lat="43.66601" lon="1.38775">
        <ele>124</ele>
        <time>2024-04-09T16:24:57Z</time>
      </trkpt>
      <trkpt lat="43.66602" lon="1.38779">
        <ele>124</ele>
        <time>2024-04-09T16:24:58Z</time>
      </trkpt>
      <trkpt lat="43.66604" lon="1.38784">
        <ele>124</ele>
        <time>2024-04-09T16:24:59Z</time>
      </trkpt>
      <trkpt lat="43.66604" lon="1.38786">
        <ele>124</ele>
        <time>2024-04-09T16:25:00Z</time>
      </trkpt>
      <trkpt lat="43.66606" lon="1.38794">
        <ele>124</ele>
        <time>2024-04-09T16:25:01Z</time>
      </trkpt>
      <trkpt lat="43.66607" lon="1.38798">
        <ele>124</ele>
        <time>2024-04-09T16:25:02Z</time>
      </trkpt>
      <trkpt lat="43.66607" lon="1.38798">
        <ele>125</ele>
        <time>2024-04-09T16:25:03Z</time>
      </trkpt>
      <trkpt lat="43.66608" lon="1.38802">
        <ele>125</ele>
        <time>2024-04-09T16:25:04Z</time>
      </trkpt>
      <trkpt lat="43.66609" lon="1.38806">
        <ele>125</ele>
        <time>2024-04-09T16:25:05Z</time>
      </trkpt>
      <trkpt lat="43.6661" lon="1.3881">
        <ele>125</ele>
        <time>2024-04-09T16:25:06Z</time>
      </trkpt>
      <trkpt lat="43.6661" lon="1.38814">
        <ele>125</ele>
        <time>2024-04-09T16:25:07Z</time>
      </trkpt>
      <trkpt lat="43.66611" lon="1.38818">
        <ele>125</ele>
        <time>2024-04-09T16:25:08Z</time>
      </trkpt>
      <trkpt lat="43.66612" lon="1.38821">
        <ele>125</ele>
        <time>2024-04-09T16:25:09Z</time>
      </trkpt>
      <trkpt lat="43.66613" lon="1.38825">
        <ele>125</ele>
        <time>2024-04-09T16:25:10Z</time>
      </trkpt>
      <trkpt lat="43.66613" lon="1.38829">
        <ele>125</ele>
        <time>2024-04-09T16:25:11Z</time>
      </trkpt>
      <trkpt lat="43.66614" lon="1.38834">
        <ele>125</ele>
        <time>2024-04-09T16:25:12Z</time>
      </trkpt>
      <trkpt lat="43.66614" lon="1.38836">
        <ele>125</ele>
        <time>2024-04-09T16:25:13Z</time>
      </trkpt>
      <trkpt lat="43.66616" lon="1.38842">
        <ele>125</ele>
        <time>2024-04-09T16:25:14Z</time>
      </trkpt>
      <trkpt lat="43.66617" lon="1.38843">
        <ele>125</ele>
        <time>2024-04-09T16:25:15Z</time>
      </trkpt>
      <trkpt lat="43.66617" lon="1.38849">
        <ele>124</ele>
        <time>2024-04-09T16:25:16Z</time>
      </trkpt>
      <trkpt lat="43.66617" lon="1.38851">
        <ele>124</ele>
        <time>2024-04-09T16:25:17Z</time>
      </trkpt>
      <trkpt lat="43.66617" lon="1.38855">
        <ele>124</ele>
        <time>2024-04-09T16:25:18Z</time>
      </trkpt>
      <trkpt lat="43.66617" lon="1.38861">
        <ele>124</ele>
        <time>2024-04-09T16:25:19Z</time>
      </trkpt>
      <trkpt lat="43.66617" lon="1.38863">
        <ele>124</ele>
        <time>2024-04-09T16:25:20Z</time>
      </trkpt>
      <trkpt lat="43.66617" lon="1.38866">
        <ele>124</ele>
        <time>2024-04-09T16:25:21Z</time>
      </trkpt>
      <trkpt lat="43.66617" lon="1.3887">
        <ele>124</ele>
        <time>2024-04-09T16:25:22Z</time>
      </trkpt>
      <trkpt lat="43.66617" lon="1.38876">
        <ele>124</ele>
        <time>2024-04-09T16:25:23Z</time>
      </trkpt>
      <trkpt lat="43.66617" lon="1.38878">
        <ele>124</ele>
        <time>2024-04-09T16:25:24Z</time>
      </trkpt>
      <trkpt lat="43.66617" lon="1.38882">
        <ele>124</ele>
        <time>2024-04-09T16:25:25Z</time>
      </trkpt>
      <trkpt lat="43.66617" lon="1.38886">
        <ele>124</ele>
        <time>2024-04-09T16:25:26Z</time>
      </trkpt>
      <trkpt lat="43.66616" lon="1.38891">
        <ele>125</ele>
        <time>2024-04-09T16:25:27Z</time>
      </trkpt>
      <trkpt lat="43.66616" lon="1.38893">
        <ele>125</ele>
        <time>2024-04-09T16:25:28Z</time>
      </trkpt>
      <trkpt lat="43.66614" lon="1.38898">
        <ele>125</ele>
        <time>2024-04-09T16:25:29Z</time>
      </trkpt>
      <trkpt lat="43.66614" lon="1.389">
        <ele>125</ele>
        <time>2024-04-09T16:25:30Z</time>
      </trkpt>
      <trkpt lat="43.66613" lon="1.38904">
        <ele>125</ele>
        <time>2024-04-09T16:25:31Z</time>
      </trkpt>
      <trkpt lat="43.66612" lon="1.38908">
        <ele>125</ele>
        <time>2024-04-09T16:25:32Z</time>
      </trkpt>
      <trkpt lat="43.66612" lon="1.38912">
        <ele>125</ele>
        <time>2024-04-09T16:25:33Z</time>
      </trkpt>
      <trkpt lat="43.66611" lon="1.38918">
        <ele>125</ele>
        <time>2024-04-09T16:25:34Z</time>
      </trkpt>
      <trkpt lat="43.66611" lon="1.38919">
        <ele>125</ele>
        <time>2024-04-09T16:25:35Z</time>
      </trkpt>
      <trkpt lat="43.66611" lon="1.38923">
        <ele>125</ele>
        <time>2024-04-09T16:25:36Z</time>
      </trkpt>
      <trkpt lat="43.66611" lon="1.38926">
        <ele>125</ele>
        <time>2024-04-09T16:25:37Z</time>
      </trkpt>
      <trkpt lat="43.66611" lon="1.3893">
        <ele>125</ele>
        <time>2024-04-09T16:25:38Z</time>
      </trkpt>
      <trkpt lat="43.66611" lon="1.38934">
        <ele>125</ele>
        <time>2024-04-09T16:25:39Z</time>
      </trkpt>
      <trkpt lat="43.66611" lon="1.38937">
        <ele>125</ele>
        <time>2024-04-09T16:25:40Z</time>
      </trkpt>
      <trkpt lat="43.66611" lon="1.38943">
        <ele>125</ele>
        <time>2024-04-09T16:25:41Z</time>
      </trkpt>
      <trkpt lat="43.66611" lon="1.38944">
        <ele>125</ele>
        <time>2024-04-09T16:25:42Z</time>
      </trkpt>
      <trkpt lat="43.66611" lon="1.38947">
        <ele>126</ele>
        <time>2024-04-09T16:25:43Z</time>
      </trkpt>
      <trkpt lat="43.66609" lon="1.38954">
        <ele>126</ele>
        <time>2024-04-09T16:25:44Z</time>
      </trkpt>
      <trkpt lat="43.66609" lon="1.38958">
        <ele>126</ele>
        <time>2024-04-09T16:25:45Z</time>
      </trkpt>
      <trkpt lat="43.66609" lon="1.38958">
        <ele>126</ele>
        <time>2024-04-09T16:25:46Z</time>
      </trkpt>
      <trkpt lat="43.66608" lon="1.38962">
        <ele>126</ele>
        <time>2024-04-09T16:25:47Z</time>
      </trkpt>
      <trkpt lat="43.66607" lon="1.38964">
        <ele>125</ele>
        <time>2024-04-09T16:25:48Z</time>
      </trkpt>
      <trkpt lat="43.66607" lon="1.38967">
        <ele>125</ele>
        <time>2024-04-09T16:25:49Z</time>
      </trkpt>
      <trkpt lat="43.66606" lon="1.38971">
        <ele>125</ele>
        <time>2024-04-09T16:25:50Z</time>
      </trkpt>
      <trkpt lat="43.66606" lon="1.38975">
        <ele>125</ele>
        <time>2024-04-09T16:25:51Z</time>
      </trkpt>
      <trkpt lat="43.66606" lon="1.38979">
        <ele>125</ele>
        <time>2024-04-09T16:25:52Z</time>
      </trkpt>
      <trkpt lat="43.66606" lon="1.38984">
        <ele>125</ele>
        <time>2024-04-09T16:25:53Z</time>
      </trkpt>
      <trkpt lat="43.66605" lon="1.38989">
        <ele>125</ele>
        <time>2024-04-09T16:25:54Z</time>
      </trkpt>
      <trkpt lat="43.66604" lon="1.38991">
        <ele>125</ele>
        <time>2024-04-09T16:25:55Z</time>
      </trkpt>
      <trkpt lat="43.66603" lon="1.38996">
        <ele>125</ele>
        <time>2024-04-09T16:25:56Z</time>
      </trkpt>
      <trkpt lat="43.66603" lon="1.38998">
        <ele>125</ele>
        <time>2024-04-09T16:25:57Z</time>
      </trkpt>
      <trkpt lat="43.66601" lon="1.39003">
        <ele>125</ele>
        <time>2024-04-09T16:25:58Z</time>
      </trkpt>
      <trkpt lat="43.66601" lon="1.39005">
        <ele>125</ele>
        <time>2024-04-09T16:25:59Z</time>
      </trkpt>
      <trkpt lat="43.666" lon="1.39009">
        <ele>125</ele>
        <time>2024-04-09T16:26:00Z</time>
      </trkpt>
      <trkpt lat="43.66599" lon="1.39013">
        <ele>125</ele>
        <time>2024-04-09T16:26:01Z</time>
      </trkpt>
      <trkpt lat="43.66599" lon="1.3902">
        <ele>125</ele>
        <time>2024-04-09T16:26:02Z</time>
      </trkpt>
      <trkpt lat="43.66598" lon="1.39022">
        <ele>125</ele>
        <time>2024-04-09T16:26:03Z</time>
      </trkpt>
      <trkpt lat="43.66598" lon="1.3903">
        <ele>125</ele>
        <time>2024-04-09T16:26:04Z</time>
      </trkpt>
      <trkpt lat="43.66598" lon="1.3903">
        <ele>126</ele>
        <time>2024-04-09T16:26:05Z</time>
      </trkpt>
      <trkpt lat="43.66597" lon="1.39036">
        <ele>126</ele>
        <time>2024-04-09T16:26:06Z</time>
      </trkpt>
      <trkpt lat="43.66597" lon="1.39038">
        <ele>126</ele>
        <time>2024-04-09T16:26:07Z</time>
      </trkpt>
      <trkpt lat="43.66595" lon="1.39044">
        <ele>125</ele>
        <time>2024-04-09T16:26:08Z</time>
      </trkpt>
      <trkpt lat="43.66595" lon="1.39046">
        <ele>125</ele>
        <time>2024-04-09T16:26:09Z</time>
      </trkpt>
      <trkpt lat="43.66594" lon="1.3905">
        <ele>125</ele>
        <time>2024-04-09T16:26:10Z</time>
      </trkpt>
      <trkpt lat="43.66592" lon="1.39054">
        <ele>126</ele>
        <time>2024-04-09T16:26:11Z</time>
      </trkpt>
      <trkpt lat="43.66591" lon="1.39058">
        <ele>126</ele>
        <time>2024-04-09T16:26:12Z</time>
      </trkpt>
      <trkpt lat="43.66589" lon="1.39061">
        <ele>126</ele>
        <time>2024-04-09T16:26:13Z</time>
      </trkpt>
      <trkpt lat="43.66588" lon="1.39064">
        <ele>126</ele>
        <time>2024-04-09T16:26:14Z</time>
      </trkpt>
      <trkpt lat="43.66586" lon="1.3907">
        <ele>126</ele>
        <time>2024-04-09T16:26:15Z</time>
      </trkpt>
      <trkpt lat="43.66586" lon="1.39072">
        <ele>126</ele>
        <time>2024-04-09T16:26:16Z</time>
      </trkpt>
      <trkpt lat="43.66585" lon="1.39077">
        <ele>126</ele>
        <time>2024-04-09T16:26:17Z</time>
      </trkpt>
      <trkpt lat="43.66584" lon="1.39079">
        <ele>126</ele>
        <time>2024-04-09T16:26:18Z</time>
      </trkpt>
      <trkpt lat="43.66583" lon="1.39082">
        <ele>126</ele>
        <time>2024-04-09T16:26:19Z</time>
      </trkpt>
      <trkpt lat="43.66582" lon="1.39088">
        <ele>126</ele>
        <time>2024-04-09T16:26:20Z</time>
      </trkpt>
      <trkpt lat="43.66582" lon="1.3909">
        <ele>126</ele>
        <time>2024-04-09T16:26:21Z</time>
      </trkpt>
      <trkpt lat="43.66581" lon="1.39093">
        <ele>126</ele>
        <time>2024-04-09T16:26:22Z</time>
      </trkpt>
      <trkpt lat="43.6658" lon="1.39101">
        <ele>126</ele>
        <time>2024-04-09T16:26:23Z</time>
      </trkpt>
      <trkpt lat="43.6658" lon="1.39101">
        <ele>126</ele>
        <time>2024-04-09T16:26:24Z</time>
      </trkpt>
      <trkpt lat="43.6658" lon="1.39104">
        <ele>126</ele>
        <time>2024-04-09T16:26:25Z</time>
      </trkpt>
      <trkpt lat="43.6658" lon="1.39108">
        <ele>126</ele>
        <time>2024-04-09T16:26:26Z</time>
      </trkpt>
      <trkpt lat="43.66578" lon="1.39114">
        <ele>126</ele>
        <time>2024-04-09T16:26:27Z</time>
      </trkpt>
      <trkpt lat="43.66578" lon="1.39115">
        <ele>126</ele>
        <time>2024-04-09T16:26:28Z</time>
      </trkpt>
      <trkpt lat="43.66577" lon="1.39121">
        <ele>126</ele>
        <time>2024-04-09T16:26:29Z</time>
      </trkpt>
      <trkpt lat="43.66577" lon="1.39122">
        <ele>126</ele>
        <time>2024-04-09T16:26:30Z</time>
      </trkpt>
      <trkpt lat="43.66577" lon="1.39126">
        <ele>126</ele>
        <time>2024-04-09T16:26:31Z</time>
      </trkpt>
      <trkpt lat="43.66576" lon="1.3913">
        <ele>126</ele>
        <time>2024-04-09T16:26:32Z</time>
      </trkpt>
      <trkpt lat="43.66576" lon="1.39135">
        <ele>126</ele>
        <time>2024-04-09T16:26:33Z</time>
      </trkpt>
      <trkpt lat="43.66575" lon="1.3914">
        <ele>126</ele>
        <time>2024-04-09T16:26:34Z</time>
      </trkpt>
      <trkpt lat="43.66575" lon="1.39142">
        <ele>126</ele>
        <time>2024-04-09T16:26:35Z</time>
      </trkpt>
      <trkpt lat="43.66575" lon="1.39146">
        <ele>126</ele>
        <time>2024-04-09T16:26:36Z</time>
      </trkpt>
      <trkpt lat="43.66575" lon="1.39149">
        <ele>126</ele>
        <time>2024-04-09T16:26:37Z</time>
      </trkpt>
      <trkpt lat="43.66574" lon="1.39153">
        <ele>126</ele>
        <time>2024-04-09T16:26:38Z</time>
      </trkpt>
      <trkpt lat="43.66574" lon="1.39157">
        <ele>126</ele>
        <time>2024-04-09T16:26:39Z</time>
      </trkpt>
      <trkpt lat="43.66574" lon="1.39162">
        <ele>126</ele>
        <time>2024-04-09T16:26:40Z</time>
      </trkpt>
      <trkpt lat="43.66573" lon="1.39164">
        <ele>126</ele>
        <time>2024-04-09T16:26:41Z</time>
      </trkpt>
      <trkpt lat="43.66571" lon="1.39172">
        <ele>126</ele>
        <time>2024-04-09T16:26:42Z</time>
      </trkpt>
      <trkpt lat="43.66571" lon="1.39172">
        <ele>126</ele>
        <time>2024-04-09T16:26:43Z</time>
      </trkpt>
      <trkpt lat="43.66571" lon="1.39178">
        <ele>126</ele>
        <time>2024-04-09T16:26:44Z</time>
      </trkpt>
      <trkpt lat="43.66571" lon="1.3918">
        <ele>126</ele>
        <time>2024-04-09T16:26:45Z</time>
      </trkpt>
      <trkpt lat="43.6657" lon="1.39184">
        <ele>126</ele>
        <time>2024-04-09T16:26:46Z</time>
      </trkpt>
      <trkpt lat="43.6657" lon="1.39188">
        <ele>126</ele>
        <time>2024-04-09T16:26:47Z</time>
      </trkpt>
      <trkpt lat="43.6657" lon="1.39192">
        <ele>126</ele>
        <time>2024-04-09T16:26:48Z</time>
      </trkpt>
      <trkpt lat="43.66569" lon="1.39196">
        <ele>126</ele>
        <time>2024-04-09T16:26:49Z</time>
      </trkpt>
      <trkpt lat="43.66569" lon="1.392">
        <ele>126</ele>
        <time>2024-04-09T16:26:50Z</time>
      </trkpt>
      <trkpt lat="43.66568" lon="1.39205">
        <ele>126</ele>
        <time>2024-04-09T16:26:51Z</time>
      </trkpt>
      <trkpt lat="43.66567" lon="1.39206">
        <ele>126</ele>
        <time>2024-04-09T16:26:52Z</time>
      </trkpt>
      <trkpt lat="43.66567" lon="1.39206">
        <ele>126</ele>
        <time>2024-04-09T16:26:53Z</time>
      </trkpt>
      <trkpt lat="43.66562" lon="1.39266">
        <ele>122</ele>
        <time>2024-04-09T16:40:48Z</time>
      </trkpt>
      <trkpt lat="43.66562" lon="1.39266">
        <ele>123</ele>
        <time>2024-04-09T16:40:49Z</time>
      </trkpt>
      <trkpt lat="43.66563" lon="1.39269">
        <ele>123</ele>
        <time>2024-04-09T16:40:50Z</time>
      </trkpt>
      <trkpt lat="43.66563" lon="1.39269">
        <ele>123</ele>
        <time>2024-04-09T16:40:51Z</time>
      </trkpt>
      <trkpt lat="43.66566" lon="1.39273">
        <ele>122</ele>
        <time>2024-04-09T16:40:52Z</time>
      </trkpt>
      <trkpt lat="43.66566" lon="1.39273">
        <ele>122</ele>
        <time>2024-04-09T16:40:53Z</time>
      </trkpt>
      <trkpt lat="43.66568" lon="1.39277">
        <ele>122</ele>
        <time>2024-04-09T16:40:54Z</time>
      </trkpt>
      <trkpt lat="43.6657" lon="1.3928">
        <ele>122</ele>
        <time>2024-04-09T16:40:55Z</time>
      </trkpt>
      <trkpt lat="43.66571" lon="1.39281">
        <ele>123</ele>
        <time>2024-04-09T16:40:56Z</time>
      </trkpt>
      <trkpt lat="43.66572" lon="1.39284">
        <ele>123</ele>
        <time>2024-04-09T16:40:57Z</time>
      </trkpt>
      <trkpt lat="43.66573" lon="1.39286">
        <ele>123</ele>
        <time>2024-04-09T16:40:58Z</time>
      </trkpt>
      <trkpt lat="43.66573" lon="1.3929">
        <ele>123</ele>
        <time>2024-04-09T16:40:59Z</time>
      </trkpt>
      <trkpt lat="43.66573" lon="1.39292">
        <ele>123</ele>
        <time>2024-04-09T16:41:00Z</time>
      </trkpt>
      <trkpt lat="43.66573" lon="1.39295">
        <ele>123</ele>
        <time>2024-04-09T16:41:01Z</time>
      </trkpt>
      <trkpt lat="43.66573" lon="1.39301">
        <ele>123</ele>
        <time>2024-04-09T16:41:02Z</time>
      </trkpt>
      <trkpt lat="43.66573" lon="1.39302">
        <ele>123</ele>
        <time>2024-04-09T16:41:03Z</time>
      </trkpt>
      <trkpt lat="43.66573" lon="1.39307">
        <ele>123</ele>
        <time>2024-04-09T16:41:04Z</time>
      </trkpt>
      <trkpt lat="43.66573" lon="1.39308">
        <ele>123</ele>
        <time>2024-04-09T16:41:05Z</time>
      </trkpt>
      <trkpt lat="43.66574" lon="1.39315">
        <ele>123</ele>
        <time>2024-04-09T16:41:06Z</time>
      </trkpt>
      <trkpt lat="43.66574" lon="1.39319">
        <ele>123</ele>
        <time>2024-04-09T16:41:07Z</time>
      </trkpt>
      <trkpt lat="43.66574" lon="1.39319">
        <ele>123</ele>
        <time>2024-04-09T16:41:08Z</time>
      </trkpt>
      <trkpt lat="43.66575" lon="1.39324">
        <ele>123</ele>
        <time>2024-04-09T16:41:09Z</time>
      </trkpt>
      <trkpt lat="43.66575" lon="1.39325">
        <ele>123</ele>
        <time>2024-04-09T16:41:10Z</time>
      </trkpt>
      <trkpt lat="43.66576" lon="1.39329">
        <ele>123</ele>
        <time>2024-04-09T16:41:11Z</time>
      </trkpt>
      <trkpt lat="43.66577" lon="1.39332">
        <ele>123</ele>
        <time>2024-04-09T16:41:12Z</time>
      </trkpt>
      <trkpt lat="43.66578" lon="1.39336">
        <ele>123</ele>
        <time>2024-04-09T16:41:13Z</time>
      </trkpt>
      <trkpt lat="43.66579" lon="1.39339">
        <ele>123</ele>
        <time>2024-04-09T16:41:14Z</time>
      </trkpt>
      <trkpt lat="43.66579" lon="1.39343">
        <ele>123</ele>
        <time>2024-04-09T16:41:15Z</time>
      </trkpt>
      <trkpt lat="43.66579" lon="1.39346">
        <ele>123</ele>
        <time>2024-04-09T16:41:16Z</time>
      </trkpt>
      <trkpt lat="43.66578" lon="1.39351">
        <ele>123</ele>
        <time>2024-04-09T16:41:17Z</time>
      </trkpt>
      <trkpt lat="43.66579" lon="1.39353">
        <ele>123</ele>
        <time>2024-04-09T16:41:18Z</time>
      </trkpt>
      <trkpt lat="43.66579" lon="1.39358">
        <ele>123</ele>
        <time>2024-04-09T16:41:19Z</time>
      </trkpt>
      <trkpt lat="43.6658" lon="1.3936">
        <ele>123</ele>
        <time>2024-04-09T16:41:20Z</time>
      </trkpt>
      <trkpt lat="43.6658" lon="1.39365">
        <ele>123</ele>
        <time>2024-04-09T16:41:21Z</time>
      </trkpt>
      <trkpt lat="43.66581" lon="1.39366">
        <ele>122</ele>
        <time>2024-04-09T16:41:22Z</time>
      </trkpt>
      <trkpt lat="43.66582" lon="1.3937">
        <ele>122</ele>
        <time>2024-04-09T16:41:23Z</time>
      </trkpt>
      <trkpt lat="43.66582" lon="1.39375">
        <ele>122</ele>
        <time>2024-04-09T16:41:24Z</time>
      </trkpt>
      <trkpt lat="43.66583" lon="1.39376">
        <ele>122</ele>
        <time>2024-04-09T16:41:25Z</time>
      </trkpt>
      <trkpt lat="43.66583" lon="1.39382">
        <ele>122</ele>
        <time>2024-04-09T16:41:26Z</time>
      </trkpt>
      <trkpt lat="43.66583" lon="1.39382">
        <ele>122</ele>
        <time>2024-04-09T16:41:27Z</time>
      </trkpt>
      <trkpt lat="43.66583" lon="1.39385">
        <ele>122</ele>
        <time>2024-04-09T16:41:28Z</time>
      </trkpt>
      <trkpt lat="43.66583" lon="1.39388">
        <ele>122</ele>
        <time>2024-04-09T16:41:29Z</time>
      </trkpt>
      <trkpt lat="43.66584" lon="1.39392">
        <ele>122</ele>
        <time>2024-04-09T16:41:30Z</time>
      </trkpt>
      <trkpt lat="43.66584" lon="1.39395">
        <ele>122</ele>
        <time>2024-04-09T16:41:31Z</time>
      </trkpt>
      <trkpt lat="43.66584" lon="1.39398">
        <ele>122</ele>
        <time>2024-04-09T16:41:32Z</time>
      </trkpt>
      <trkpt lat="43.66585" lon="1.39401">
        <ele>122</ele>
        <time>2024-04-09T16:41:33Z</time>
      </trkpt>
      <trkpt lat="43.66585" lon="1.39404">
        <ele>122</ele>
        <time>2024-04-09T16:41:34Z</time>
      </trkpt>
      <trkpt lat="43.66586" lon="1.39408">
        <ele>122</ele>
        <time>2024-04-09T16:41:35Z</time>
      </trkpt>
      <trkpt lat="43.66587" lon="1.39412">
        <ele>122</ele>
        <time>2024-04-09T16:41:36Z</time>
      </trkpt>
      <trkpt lat="43.66588" lon="1.39415">
        <ele>122</ele>
        <time>2024-04-09T16:41:37Z</time>
      </trkpt>
      <trkpt lat="43.66589" lon="1.3942">
        <ele>122</ele>
        <time>2024-04-09T16:41:38Z</time>
      </trkpt>
      <trkpt lat="43.66589" lon="1.39422">
        <ele>122</ele>
        <time>2024-04-09T16:41:39Z</time>
      </trkpt>
      <trkpt lat="43.66589" lon="1.39427">
        <ele>122</ele>
        <time>2024-04-09T16:41:40Z</time>
      </trkpt>
      <trkpt lat="43.66589" lon="1.39428">
        <ele>122</ele>
        <time>2024-04-09T16:41:41Z</time>
      </trkpt>
      <trkpt lat="43.6659" lon="1.39432">
        <ele>122</ele>
        <time>2024-04-09T16:41:42Z</time>
      </trkpt>
      <trkpt lat="43.66591" lon="1.39435">
        <ele>122</ele>
        <time>2024-04-09T16:41:43Z</time>
      </trkpt>
      <trkpt lat="43.66591" lon="1.39439">
        <ele>122</ele>
        <time>2024-04-09T16:41:44Z</time>
      </trkpt>
      <trkpt lat="43.66592" lon="1.39445">
        <ele>122</ele>
        <time>2024-04-09T16:41:45Z</time>
      </trkpt>
      <trkpt lat="43.66592" lon="1.39445">
        <ele>122</ele>
        <time>2024-04-09T16:41:46Z</time>
      </trkpt>
      <trkpt lat="43.66594" lon="1.39451">
        <ele>122</ele>
        <time>2024-04-09T16:41:47Z</time>
      </trkpt>
      <trkpt lat="43.66594" lon="1.39452">
        <ele>122</ele>
        <time>2024-04-09T16:41:48Z</time>
      </trkpt>
      <trkpt lat="43.66595" lon="1.39456">
        <ele>122</ele>
        <time>2024-04-09T16:41:49Z</time>
      </trkpt>
      <trkpt lat="43.66596" lon="1.39459">
        <ele>122</ele>
        <time>2024-04-09T16:41:50Z</time>
      </trkpt>
      <trkpt lat="43.66596" lon="1.39462">
        <ele>122</ele>
        <time>2024-04-09T16:41:51Z</time>
      </trkpt>
      <trkpt lat="43.66597" lon="1.39465">
        <ele>122</ele>
        <time>2024-04-09T16:41:52Z</time>
      </trkpt>
      <trkpt lat="43.66598" lon="1.39468">
        <ele>122</ele>
        <time>2024-04-09T16:41:53Z</time>
      </trkpt>
      <trkpt lat="43.66599" lon="1.39471">
        <ele>122</ele>
        <time>2024-04-09T16:41:54Z</time>
      </trkpt>
      <trkpt lat="43.66599" lon="1.39471">
        <ele>122</ele>
        <time>2024-04-09T16:41:55Z</time>
      </trkpt>
      <trkpt lat="43.666" lon="1.39475">
        <ele>122</ele>
        <time>2024-04-09T16:41:56Z</time>
      </trkpt>
      <trkpt lat="43.66601" lon="1.39477">
        <ele>122</ele>
        <time>2024-04-09T16:41:57Z</time>
      </trkpt>
      <trkpt lat="43.66601" lon="1.39479">
        <ele>122</ele>
        <time>2024-04-09T16:41:58Z</time>
      </trkpt>
      <trkpt lat="43.66602" lon="1.39482">
        <ele>122</ele>
        <time>2024-04-09T16:41:59Z</time>
      </trkpt>
      <trkpt lat="43.66601" lon="1.39487">
        <ele>122</ele>
        <time>2024-04-09T16:42:00Z</time>
      </trkpt>
      <trkpt lat="43.66601" lon="1.39489">
        <ele>122</ele>
        <time>2024-04-09T16:42:01Z</time>
      </trkpt>
      <trkpt lat="43.66601" lon="1.39492">
        <ele>122</ele>
        <time>2024-04-09T16:42:02Z</time>
      </trkpt>
      <trkpt lat="43.66602" lon="1.39496">
        <ele>122</ele>
        <time>2024-04-09T16:42:03Z</time>
      </trkpt>
      <trkpt lat="43.66601" lon="1.39502">
        <ele>122</ele>
        <time>2024-04-09T16:42:04Z</time>
      </trkpt>
      <trkpt lat="43.66601" lon="1.39502">
        <ele>122</ele>
        <time>2024-04-09T16:42:05Z</time>
      </trkpt>
      <trkpt lat="43.66601" lon="1.39505">
        <ele>122</ele>
        <time>2024-04-09T16:42:06Z</time>
      </trkpt>
      <trkpt lat="43.66601" lon="1.39509">
        <ele>121</ele>
        <time>2024-04-09T16:42:07Z</time>
      </trkpt>
      <trkpt lat="43.66601" lon="1.39512">
        <ele>120</ele>
        <time>2024-04-09T16:42:08Z</time>
      </trkpt>
      <trkpt lat="43.66601" lon="1.39518">
        <ele>121</ele>
        <time>2024-04-09T16:42:09Z</time>
      </trkpt>
      <trkpt lat="43.66601" lon="1.3952">
        <ele>121</ele>
        <time>2024-04-09T16:42:10Z</time>
      </trkpt>
      <trkpt lat="43.66602" lon="1.39523">
        <ele>121</ele>
        <time>2024-04-09T16:42:11Z</time>
      </trkpt>
      <trkpt lat="43.66603" lon="1.39528">
        <ele>121</ele>
        <time>2024-04-09T16:42:12Z</time>
      </trkpt>
      <trkpt lat="43.66603" lon="1.3953">
        <ele>121</ele>
        <time>2024-04-09T16:42:13Z</time>
      </trkpt>
      <trkpt lat="43.66604" lon="1.39535">
        <ele>121</ele>
        <time>2024-04-09T16:42:14Z</time>
      </trkpt>
      <trkpt lat="43.66605" lon="1.39536">
        <ele>121</ele>
        <time>2024-04-09T16:42:15Z</time>
      </trkpt>
      <trkpt lat="43.66605" lon="1.39538">
        <ele>121</ele>
        <time>2024-04-09T16:42:16Z</time>
      </trkpt>
      <trkpt lat="43.66606" lon="1.39541">
        <ele>121</ele>
        <time>2024-04-09T16:42:17Z</time>
      </trkpt>
      <trkpt lat="43.66607" lon="1.39543">
        <ele>121</ele>
        <time>2024-04-09T16:42:18Z</time>
      </trkpt>
      <trkpt lat="43.66607" lon="1.39545">
        <ele>121</ele>
        <time>2024-04-09T16:42:19Z</time>
      </trkpt>
      <trkpt lat="43.66608" lon="1.39547">
        <ele>121</ele>
        <time>2024-04-09T16:42:20Z</time>
      </trkpt>
      <trkpt lat="43.66608" lon="1.3955">
        <ele>121</ele>
        <time>2024-04-09T16:42:21Z</time>
      </trkpt>
      <trkpt lat="43.66609" lon="1.39551">
        <ele>121</ele>
        <time>2024-04-09T16:42:22Z</time>
      </trkpt>
      <trkpt lat="43.66609" lon="1.39553">
        <ele>122</ele>
        <time>2024-04-09T16:42:23Z</time>
      </trkpt>
      <trkpt lat="43.66609" lon="1.39554">
        <ele>122</ele>
        <time>2024-04-09T16:42:24Z</time>
      </trkpt>
      <trkpt lat="43.6661" lon="1.39555">
        <ele>122</ele>
        <time>2024-04-09T16:42:25Z</time>
      </trkpt>
      <trkpt lat="43.6661" lon="1.39557">
        <ele>122</ele>
        <time>2024-04-09T16:42:26Z</time>
      </trkpt>
      <trkpt lat="43.66612" lon="1.39566">
        <ele>122</ele>
        <time>2024-04-09T16:42:27Z</time>
      </trkpt>
      <trkpt lat="43.66612" lon="1.39569">
        <ele>122</ele>
        <time>2024-04-09T16:42:28Z</time>
      </trkpt>
      <trkpt lat="43.66612" lon="1.39572">
        <ele>122</ele>
        <time>2024-04-09T16:42:29Z</time>
      </trkpt>
      <trkpt lat="43.66613" lon="1.39575">
        <ele>122</ele>
        <time>2024-04-09T16:42:30Z</time>
      </trkpt>
      <trkpt lat="43.66613" lon="1.39578">
        <ele>122</ele>
        <time>2024-04-09T16:42:31Z</time>
      </trkpt>
      <trkpt lat="43.66613" lon="1.39581">
        <ele>122</ele>
        <time>2024-04-09T16:42:32Z</time>
      </trkpt>
      <trkpt lat="43.66612" lon="1.39584">
        <ele>122</ele>
        <time>2024-04-09T16:42:33Z</time>
      </trkpt>
      <trkpt lat="43.66612" lon="1.39587">
        <ele>122</ele>
        <time>2024-04-09T16:42:34Z</time>
      </trkpt>
      <trkpt lat="43.66612" lon="1.3959">
        <ele>122</ele>
        <time>2024-04-09T16:42:35Z</time>
      </trkpt>
      <trkpt lat="43.66613" lon="1.39592">
        <ele>122</ele>
        <time>2024-04-09T16:42:36Z</time>
      </trkpt>
      <trkpt lat="43.66613" lon="1.39594">
        <ele>122</ele>
        <time>2024-04-09T16:42:37Z</time>
      </trkpt>
      <trkpt lat="43.66614" lon="1.39595">
        <ele>122</ele>
        <time>2024-04-09T16:42:38Z</time>
      </trkpt>
      <trkpt lat="43.66614" lon="1.39597">
        <ele>122</ele>
        <time>2024-04-09T16:42:39Z</time>
      </trkpt>
      <trkpt lat="43.66618" lon="1.39607">
        <ele>122</ele>
        <time>2024-04-09T16:42:40Z</time>
      </trkpt>
      <trkpt lat="43.66619" lon="1.39611">
        <ele>122</ele>
        <time>2024-04-09T16:42:41Z</time>
      </trkpt>
      <trkpt lat="43.6662" lon="1.39615">
        <ele>122</ele>
        <time>2024-04-09T16:42:42Z</time>
      </trkpt>
      <trkpt lat="43.66621" lon="1.39619">
        <ele>122</ele>
        <time>2024-04-09T16:42:43Z</time>
      </trkpt>
      <trkpt lat="43.66621" lon="1.39621">
        <ele>122</ele>
        <time>2024-04-09T16:42:44Z</time>
      </trkpt>
      <trkpt lat="43.66622" lon="1.39624">
        <ele>122</ele>
        <time>2024-04-09T16:42:45Z</time>
      </trkpt>
      <trkpt lat="43.66622" lon="1.39626">
        <ele>122</ele>
        <time>2024-04-09T16:42:46Z</time>
      </trkpt>
      <trkpt lat="43.66622" lon="1.39629">
        <ele>122</ele>
        <time>2024-04-09T16:42:47Z</time>
      </trkpt>
      <trkpt lat="43.66623" lon="1.39631">
        <ele>122</ele>
        <time>2024-04-09T16:42:48Z</time>
      </trkpt>
      <trkpt lat="43.66623" lon="1.39633">
        <ele>122</ele>
        <time>2024-04-09T16:42:49Z</time>
      </trkpt>
      <trkpt lat="43.66624" lon="1.39636">
        <ele>122</ele>
        <time>2024-04-09T16:42:50Z</time>
      </trkpt>
      <trkpt lat="43.66624" lon="1.39639">
        <ele>123</ele>
        <time>2024-04-09T16:42:51Z</time>
      </trkpt>
      <trkpt lat="43.66625" lon="1.39642">
        <ele>123</ele>
        <time>2024-04-09T16:42:52Z</time>
      </trkpt>
      <trkpt lat="43.66627" lon="1.39652">
        <ele>123</ele>
        <time>2024-04-09T16:42:53Z</time>
      </trkpt>
      <trkpt lat="43.66628" lon="1.39654">
        <ele>123</ele>
        <time>2024-04-09T16:42:54Z</time>
      </trkpt>
      <trkpt lat="43.66629" lon="1.39657">
        <ele>123</ele>
        <time>2024-04-09T16:42:55Z</time>
      </trkpt>
      <trkpt lat="43.6663" lon="1.39659">
        <ele>123</ele>
        <time>2024-04-09T16:42:56Z</time>
      </trkpt>
      <trkpt lat="43.6663" lon="1.39662">
        <ele>123</ele>
        <time>2024-04-09T16:42:57Z</time>
      </trkpt>
      <trkpt lat="43.66631" lon="1.39664">
        <ele>123</ele>
        <time>2024-04-09T16:42:58Z</time>
      </trkpt>
      <trkpt lat="43.66631" lon="1.39668">
        <ele>123</ele>
        <time>2024-04-09T16:42:59Z</time>
      </trkpt>
      <trkpt lat="43.66632" lon="1.39671">
        <ele>123</ele>
        <time>2024-04-09T16:43:00Z</time>
      </trkpt>
      <trkpt lat="43.66633" lon="1.39674">
        <ele>123</ele>
        <time>2024-04-09T16:43:01Z</time>
      </trkpt>
      <trkpt lat="43.66633" lon="1.39677">
        <ele>122</ele>
        <time>2024-04-09T16:43:02Z</time>
      </trkpt>
      <trkpt lat="43.66633" lon="1.39681">
        <ele>122</ele>
        <time>2024-04-09T16:43:03Z</time>
      </trkpt>
      <trkpt lat="43.66634" lon="1.39684">
        <ele>122</ele>
        <time>2024-04-09T16:43:04Z</time>
      </trkpt>
      <trkpt lat="43.66634" lon="1.39687">
        <ele>122</ele>
        <time>2024-04-09T16:43:05Z</time>
      </trkpt>
      <trkpt lat="43.66634" lon="1.3969">
        <ele>122</ele>
        <time>2024-04-09T16:43:06Z</time>
      </trkpt>
      <trkpt lat="43.66634" lon="1.39692">
        <ele>122</ele>
        <time>2024-04-09T16:43:07Z</time>
      </trkpt>
      <trkpt lat="43.66634" lon="1.39693">
        <ele>122</ele>
        <time>2024-04-09T16:43:08Z</time>
      </trkpt>
      <trkpt lat="43.66634" lon="1.39695">
        <ele>122</ele>
        <time>2024-04-09T16:43:09Z</time>
      </trkpt>
      <trkpt lat="43.66634" lon="1.39696">
        <ele>123</ele>
        <time>2024-04-09T16:43:10Z</time>
      </trkpt>
      <trkpt lat="43.66635" lon="1.39698">
        <ele>123</ele>
        <time>2024-04-09T16:43:11Z</time>
      </trkpt>
      <trkpt lat="43.66635" lon="1.39708">
        <ele>123</ele>
        <time>2024-04-09T16:43:12Z</time>
      </trkpt>
      <trkpt lat="43.66635" lon="1.39712">
        <ele>123</ele>
        <time>2024-04-09T16:43:13Z</time>
      </trkpt>
      <trkpt lat="43.66636" lon="1.39714">
        <ele>122</ele>
        <time>2024-04-09T16:43:14Z</time>
      </trkpt>
      <trkpt lat="43.66636" lon="1.39718">
        <ele>122</ele>
        <time>2024-04-09T16:43:15Z</time>
      </trkpt>
      <trkpt lat="43.66636" lon="1.39721">
        <ele>122</ele>
        <time>2024-04-09T16:43:16Z</time>
      </trkpt>
      <trkpt lat="43.66636" lon="1.39725">
        <ele>122</ele>
        <time>2024-04-09T16:43:17Z</time>
      </trkpt>
      <trkpt lat="43.66636" lon="1.39728">
        <ele>122</ele>
        <time>2024-04-09T16:43:18Z</time>
      </trkpt>
      <trkpt lat="43.66636" lon="1.39731">
        <ele>122</ele>
        <time>2024-04-09T16:43:19Z</time>
      </trkpt>
      <trkpt lat="43.66636" lon="1.39731">
        <ele>122</ele>
        <time>2024-04-09T16:43:20Z</time>
      </trkpt>
      <trkpt lat="43.66637" lon="1.39736">
        <ele>122</ele>
        <time>2024-04-09T16:43:21Z</time>
      </trkpt>
      <trkpt lat="43.66638" lon="1.3974">
        <ele>122</ele>
        <time>2024-04-09T16:43:22Z</time>
      </trkpt>
      <trkpt lat="43.66638" lon="1.39745">
        <ele>123</ele>
        <time>2024-04-09T16:43:23Z</time>
      </trkpt>
      <trkpt lat="43.66639" lon="1.39749">
        <ele>123</ele>
        <time>2024-04-09T16:43:24Z</time>
      </trkpt>
      <trkpt lat="43.6664" lon="1.39753">
        <ele>123</ele>
        <time>2024-04-09T16:43:25Z</time>
      </trkpt>
      <trkpt lat="43.66639" lon="1.39755">
        <ele>123</ele>
        <time>2024-04-09T16:43:26Z</time>
      </trkpt>
      <trkpt lat="43.66639" lon="1.39757">
        <ele>123</ele>
        <time>2024-04-09T16:43:27Z</time>
      </trkpt>
      <trkpt lat="43.66638" lon="1.3976">
        <ele>123</ele>
        <time>2024-04-09T16:43:28Z</time>
      </trkpt>
      <trkpt lat="43.66637" lon="1.39762">
        <ele>123</ele>
        <time>2024-04-09T16:43:29Z</time>
      </trkpt>
      <trkpt lat="43.66635" lon="1.3977">
        <ele>123</ele>
        <time>2024-04-09T16:43:30Z</time>
      </trkpt>
      <trkpt lat="43.66635" lon="1.39774">
        <ele>123</ele>
        <time>2024-04-09T16:43:31Z</time>
      </trkpt>
      <trkpt lat="43.66635" lon="1.39779">
        <ele>123</ele>
        <time>2024-04-09T16:43:32Z</time>
      </trkpt>
      <trkpt lat="43.66635" lon="1.39783">
        <ele>123</ele>
        <time>2024-04-09T16:43:33Z</time>
      </trkpt>
      <trkpt lat="43.66635" lon="1.39787">
        <ele>123</ele>
        <time>2024-04-09T16:43:34Z</time>
      </trkpt>
      <trkpt lat="43.66633" lon="1.39792">
        <ele>123</ele>
        <time>2024-04-09T16:43:35Z</time>
      </trkpt>
      <trkpt lat="43.66632" lon="1.39794">
        <ele>123</ele>
        <time>2024-04-09T16:43:36Z</time>
      </trkpt>
      <trkpt lat="43.66632" lon="1.39796">
        <ele>123</ele>
        <time>2024-04-09T16:43:37Z</time>
      </trkpt>
      <trkpt lat="43.66631" lon="1.39799">
        <ele>123</ele>
        <time>2024-04-09T16:43:38Z</time>
      </trkpt>
      <trkpt lat="43.66632" lon="1.39804">
        <ele>123</ele>
        <time>2024-04-09T16:43:39Z</time>
      </trkpt>
      <trkpt lat="43.66632" lon="1.39804">
        <ele>123</ele>
        <time>2024-04-09T16:43:40Z</time>
      </trkpt>
      <trkpt lat="43.66633" lon="1.39809">
        <ele>123</ele>
        <time>2024-04-09T16:43:41Z</time>
      </trkpt>
      <trkpt lat="43.66634" lon="1.3981">
        <ele>122</ele>
        <time>2024-04-09T16:43:42Z</time>
      </trkpt>
      <trkpt lat="43.66635" lon="1.39815">
        <ele>123</ele>
        <time>2024-04-09T16:43:43Z</time>
      </trkpt>
      <trkpt lat="43.66635" lon="1.39816">
        <ele>123</ele>
        <time>2024-04-09T16:43:44Z</time>
      </trkpt>
      <trkpt lat="43.66635" lon="1.39819">
        <ele>123</ele>
        <time>2024-04-09T16:43:45Z</time>
      </trkpt>
      <trkpt lat="43.66635" lon="1.39822">
        <ele>123</ele>
        <time>2024-04-09T16:43:46Z</time>
      </trkpt>
      <trkpt lat="43.66634" lon="1.39825">
        <ele>123</ele>
        <time>2024-04-09T16:43:47Z</time>
      </trkpt>
      <trkpt lat="43.66633" lon="1.39829">
        <ele>123</ele>
        <time>2024-04-09T16:43:48Z</time>
      </trkpt>
      <trkpt lat="43.66634" lon="1.39832">
        <ele>123</ele>
        <time>2024-04-09T16:43:49Z</time>
      </trkpt>
      <trkpt lat="43.66634" lon="1.39835">
        <ele>123</ele>
        <time>2024-04-09T16:43:50Z</time>
      </trkpt>
      <trkpt lat="43.66635" lon="1.39839">
        <ele>122</ele>
        <time>2024-04-09T16:43:51Z</time>
      </trkpt>
      <trkpt lat="43.66636" lon="1.39845">
        <ele>122</ele>
        <time>2024-04-09T16:43:52Z</time>
      </trkpt>
      <trkpt lat="43.66636" lon="1.39846">
        <ele>122</ele>
        <time>2024-04-09T16:43:53Z</time>
      </trkpt>
      <trkpt lat="43.66637" lon="1.3985">
        <ele>122</ele>
        <time>2024-04-09T16:43:54Z</time>
      </trkpt>
      <trkpt lat="43.66638" lon="1.39854">
        <ele>122</ele>
        <time>2024-04-09T16:43:55Z</time>
      </trkpt>
      <trkpt lat="43.66639" lon="1.39857">
        <ele>122</ele>
        <time>2024-04-09T16:43:56Z</time>
      </trkpt>
      <trkpt lat="43.66639" lon="1.39863">
        <ele>122</ele>
        <time>2024-04-09T16:43:57Z</time>
      </trkpt>
      <trkpt lat="43.66639" lon="1.39864">
        <ele>122</ele>
        <time>2024-04-09T16:43:58Z</time>
      </trkpt>
      <trkpt lat="43.66638" lon="1.39869">
        <ele>122</ele>
        <time>2024-04-09T16:43:59Z</time>
      </trkpt>
      <trkpt lat="43.66638" lon="1.39871">
        <ele>122</ele>
        <time>2024-04-09T16:44:00Z</time>
      </trkpt>
      <trkpt lat="43.66638" lon="1.39875">
        <ele>120</ele>
        <time>2024-04-09T16:44:01Z</time>
      </trkpt>
      <trkpt lat="43.66636" lon="1.39879">
        <ele>120</ele>
        <time>2024-04-09T16:44:02Z</time>
      </trkpt>
      <trkpt lat="43.66636" lon="1.3988">
        <ele>120</ele>
        <time>2024-04-09T16:44:03Z</time>
      </trkpt>
      <trkpt lat="43.66635" lon="1.39883">
        <ele>120</ele>
        <time>2024-04-09T16:44:04Z</time>
      </trkpt>
      <trkpt lat="43.66634" lon="1.39886">
        <ele>120</ele>
        <time>2024-04-09T16:44:05Z</time>
      </trkpt>
      <trkpt lat="43.66633" lon="1.39889">
        <ele>120</ele>
        <time>2024-04-09T16:44:06Z</time>
      </trkpt>
      <trkpt lat="43.66631" lon="1.39891">
        <ele>121</ele>
        <time>2024-04-09T16:44:07Z</time>
      </trkpt>
      <trkpt lat="43.6663" lon="1.39894">
        <ele>122</ele>
        <time>2024-04-09T16:44:08Z</time>
      </trkpt>
      <trkpt lat="43.66628" lon="1.39897">
        <ele>122</ele>
        <time>2024-04-09T16:44:09Z</time>
      </trkpt>
      <trkpt lat="43.66627" lon="1.399">
        <ele>122</ele>
        <time>2024-04-09T16:44:10Z</time>
      </trkpt>
      <trkpt lat="43.66625" lon="1.39904">
        <ele>122</ele>
        <time>2024-04-09T16:44:11Z</time>
      </trkpt>
      <trkpt lat="43.66624" lon="1.39905">
        <ele>122</ele>
        <time>2024-04-09T16:44:12Z</time>
      </trkpt>
      <trkpt lat="43.66623" lon="1.39908">
        <ele>122</ele>
        <time>2024-04-09T16:44:13Z</time>
      </trkpt>
      <trkpt lat="43.66622" lon="1.39911">
        <ele>122</ele>
        <time>2024-04-09T16:44:14Z</time>
      </trkpt>
      <trkpt lat="43.66621" lon="1.39914">
        <ele>122</ele>
        <time>2024-04-09T16:44:15Z</time>
      </trkpt>
      <trkpt lat="43.6662" lon="1.39916">
        <ele>122</ele>
        <time>2024-04-09T16:44:16Z</time>
      </trkpt>
      <trkpt lat="43.66618" lon="1.39921">
        <ele>122</ele>
        <time>2024-04-09T16:44:17Z</time>
      </trkpt>
      <trkpt lat="43.66618" lon="1.39921">
        <ele>123</ele>
        <time>2024-04-09T16:44:18Z</time>
      </trkpt>
      <trkpt lat="43.66616" lon="1.39923">
        <ele>123</ele>
        <time>2024-04-09T16:44:19Z</time>
      </trkpt>
      <trkpt lat="43.66616" lon="1.39923">
        <ele>123</ele>
        <time>2024-04-09T16:44:20Z</time>
      </trkpt>
      <trkpt lat="43.66615" lon="1.39927">
        <ele>123</ele>
        <time>2024-04-09T16:44:21Z</time>
      </trkpt>
      <trkpt lat="43.66614" lon="1.3993">
        <ele>123</ele>
        <time>2024-04-09T16:44:22Z</time>
      </trkpt>
      <trkpt lat="43.66614" lon="1.39933">
        <ele>123</ele>
        <time>2024-04-09T16:44:23Z</time>
      </trkpt>
      <trkpt lat="43.66614" lon="1.39938">
        <ele>123</ele>
        <time>2024-04-09T16:44:24Z</time>
      </trkpt>
      <trkpt lat="43.66614" lon="1.39939">
        <ele>123</ele>
        <time>2024-04-09T16:44:25Z</time>
      </trkpt>
      <trkpt lat="43.66614" lon="1.39945">
        <ele>123</ele>
        <time>2024-04-09T16:44:26Z</time>
      </trkpt>
      <trkpt lat="43.66614" lon="1.39947">
        <ele>123</ele>
        <time>2024-04-09T16:44:27Z</time>
      </trkpt>
      <trkpt lat="43.66613" lon="1.3995">
        <ele>123</ele>
        <time>2024-04-09T16:44:28Z</time>
      </trkpt>
      <trkpt lat="43.66612" lon="1.39953">
        <ele>123</ele>
        <time>2024-04-09T16:44:29Z</time>
      </trkpt>
      <trkpt lat="43.66611" lon="1.39956">
        <ele>123</ele>
        <time>2024-04-09T16:44:30Z</time>
      </trkpt>
      <trkpt lat="43.66609" lon="1.39961">
        <ele>123</ele>
        <time>2024-04-09T16:44:31Z</time>
      </trkpt>
      <trkpt lat="43.66608" lon="1.39963">
        <ele>123</ele>
        <time>2024-04-09T16:44:32Z</time>
      </trkpt>
      <trkpt lat="43.66607" lon="1.39968">
        <ele>123</ele>
        <time>2024-04-09T16:44:33Z</time>
      </trkpt>
      <trkpt lat="43.66607" lon="1.39969">
        <ele>123</ele>
        <time>2024-04-09T16:44:34Z</time>
      </trkpt>
      <trkpt lat="43.66607" lon="1.39972">
        <ele>123</ele>
        <time>2024-04-09T16:44:35Z</time>
      </trkpt>
      <trkpt lat="43.66605" lon="1.39978">
        <ele>123</ele>
        <time>2024-04-09T16:44:36Z</time>
      </trkpt>
      <trkpt lat="43.66605" lon="1.39978">
        <ele>123</ele>
        <time>2024-04-09T16:44:37Z</time>
      </trkpt>
      <trkpt lat="43.66603" lon="1.3998">
        <ele>123</ele>
        <time>2024-04-09T16:44:38Z</time>
      </trkpt>
      <trkpt lat="43.66602" lon="1.39983">
        <ele>122</ele>
        <time>2024-04-09T16:44:39Z</time>
      </trkpt>
      <trkpt lat="43.66602" lon="1.39985">
        <ele>122</ele>
        <time>2024-04-09T16:44:40Z</time>
      </trkpt>
      <trkpt lat="43.666" lon="1.39988">
        <ele>123</ele>
        <time>2024-04-09T16:44:41Z</time>
      </trkpt>
      <trkpt lat="43.666" lon="1.39991">
        <ele>123</ele>
        <time>2024-04-09T16:44:42Z</time>
      </trkpt>
      <trkpt lat="43.66599" lon="1.39994">
        <ele>123</ele>
        <time>2024-04-09T16:44:43Z</time>
      </trkpt>
      <trkpt lat="43.66598" lon="1.39997">
        <ele>123</ele>
        <time>2024-04-09T16:44:44Z</time>
      </trkpt>
      <trkpt lat="43.66598" lon="1.39999">
        <ele>123</ele>
        <time>2024-04-09T16:44:45Z</time>
      </trkpt>
      <trkpt lat="43.66597" lon="1.40003">
        <ele>123</ele>
        <time>2024-04-09T16:44:46Z</time>
      </trkpt>
      <trkpt lat="43.66597" lon="1.40005">
        <ele>123</ele>
        <time>2024-04-09T16:44:47Z</time>
      </trkpt>
      <trkpt lat="43.66596" lon="1.40007">
        <ele>123</ele>
        <time>2024-04-09T16:44:48Z</time>
      </trkpt>
      <trkpt lat="43.66595" lon="1.4001">
        <ele>123</ele>
        <time>2024-04-09T16:44:49Z</time>
      </trkpt>
      <trkpt lat="43.66595" lon="1.40013">
        <ele>123</ele>
        <time>2024-04-09T16:44:50Z</time>
      </trkpt>
      <trkpt lat="43.66594" lon="1.40016">
        <ele>123</ele>
        <time>2024-04-09T16:44:51Z</time>
      </trkpt>
      <trkpt lat="43.66594" lon="1.4002">
        <ele>123</ele>
        <time>2024-04-09T16:44:52Z</time>
      </trkpt>
      <trkpt lat="43.66592" lon="1.40025">
        <ele>123</ele>
        <time>2024-04-09T16:44:53Z</time>
      </trkpt>
      <trkpt lat="43.66591" lon="1.40027">
        <ele>123</ele>
        <time>2024-04-09T16:44:54Z</time>
      </trkpt>
      <trkpt lat="43.66589" lon="1.40032">
        <ele>123</ele>
        <time>2024-04-09T16:44:55Z</time>
      </trkpt>
      <trkpt lat="43.66589" lon="1.40032">
        <ele>123</ele>
        <time>2024-04-09T16:44:56Z</time>
      </trkpt>
      <trkpt lat="43.66587" lon="1.40035">
        <ele>123</ele>
        <time>2024-04-09T16:44:57Z</time>
      </trkpt>
      <trkpt lat="43.66587" lon="1.40036">
        <ele>123</ele>
        <time>2024-04-09T16:44:58Z</time>
      </trkpt>
      <trkpt lat="43.66585" lon="1.40038">
        <ele>123</ele>
        <time>2024-04-09T16:44:59Z</time>
      </trkpt>
      <trkpt lat="43.66584" lon="1.40041">
        <ele>123</ele>
        <time>2024-04-09T16:45:00Z</time>
      </trkpt>
      <trkpt lat="43.66583" lon="1.40045">
        <ele>123</ele>
        <time>2024-04-09T16:45:01Z</time>
      </trkpt>
      <trkpt lat="43.66582" lon="1.40047">
        <ele>123</ele>
        <time>2024-04-09T16:45:02Z</time>
      </trkpt>
      <trkpt lat="43.6658" lon="1.40051">
        <ele>123</ele>
        <time>2024-04-09T16:45:03Z</time>
      </trkpt>
      <trkpt lat="43.66579" lon="1.40052">
        <ele>123</ele>
        <time>2024-04-09T16:45:04Z</time>
      </trkpt>
      <trkpt lat="43.66578" lon="1.40055">
        <ele>123</ele>
        <time>2024-04-09T16:45:05Z</time>
      </trkpt>
      <trkpt lat="43.66577" lon="1.40057">
        <ele>123</ele>
        <time>2024-04-09T16:45:06Z</time>
      </trkpt>
      <trkpt lat="43.66576" lon="1.4006">
        <ele>123</ele>
        <time>2024-04-09T16:45:07Z</time>
      </trkpt>
      <trkpt lat="43.66575" lon="1.40063">
        <ele>123</ele>
        <time>2024-04-09T16:45:08Z</time>
      </trkpt>
      <trkpt lat="43.66572" lon="1.40068">
        <ele>123</ele>
        <time>2024-04-09T16:45:09Z</time>
      </trkpt>
      <trkpt lat="43.66572" lon="1.40069">
        <ele>123</ele>
        <time>2024-04-09T16:45:10Z</time>
      </trkpt>
      <trkpt lat="43.66572" lon="1.40069">
        <ele>123</ele>
        <time>2024-04-09T16:45:11Z</time>
      </trkpt>
      <trkpt lat="43.6657" lon="1.40072">
        <ele>123</ele>
        <time>2024-04-09T16:45:12Z</time>
      </trkpt>
      <trkpt lat="43.66568" lon="1.40075">
        <ele>123</ele>
        <time>2024-04-09T16:45:13Z</time>
      </trkpt>
      <trkpt lat="43.66566" lon="1.40078">
        <ele>123</ele>
        <time>2024-04-09T16:45:14Z</time>
      </trkpt>
      <trkpt lat="43.66566" lon="1.40078">
        <ele>123</ele>
        <time>2024-04-09T16:45:15Z</time>
      </trkpt>
      <trkpt lat="43.66564" lon="1.4008">
        <ele>123</ele>
        <time>2024-04-09T16:45:16Z</time>
      </trkpt>
      <trkpt lat="43.66563" lon="1.40081">
        <ele>123</ele>
        <time>2024-04-09T16:45:17Z</time>
      </trkpt>
      <trkpt lat="43.6656" lon="1.40084">
        <ele>123</ele>
        <time>2024-04-09T16:45:18Z</time>
      </trkpt>
      <trkpt lat="43.6656" lon="1.40086">
        <ele>123</ele>
        <time>2024-04-09T16:45:19Z</time>
      </trkpt>
      <trkpt lat="43.66558" lon="1.40088">
        <ele>124</ele>
        <time>2024-04-09T16:45:20Z</time>
      </trkpt>
      <trkpt lat="43.66558" lon="1.40088">
        <ele>124</ele>
        <time>2024-04-09T16:45:21Z</time>
      </trkpt>
      <trkpt lat="43.66556" lon="1.40091">
        <ele>124</ele>
        <time>2024-04-09T16:45:22Z</time>
      </trkpt>
      <trkpt lat="43.66553" lon="1.40094">
        <ele>123</ele>
        <time>2024-04-09T16:45:23Z</time>
      </trkpt>
      <trkpt lat="43.66551" lon="1.40098">
        <ele>123</ele>
        <time>2024-04-09T16:45:24Z</time>
      </trkpt>
      <trkpt lat="43.6655" lon="1.401">
        <ele>123</ele>
        <time>2024-04-09T16:45:25Z</time>
      </trkpt>
      <trkpt lat="43.66549" lon="1.40103">
        <ele>123</ele>
        <time>2024-04-09T16:45:26Z</time>
      </trkpt>
      <trkpt lat="43.66548" lon="1.40106">
        <ele>123</ele>
        <time>2024-04-09T16:45:27Z</time>
      </trkpt>
      <trkpt lat="43.66547" lon="1.40109">
        <ele>123</ele>
        <time>2024-04-09T16:45:28Z</time>
      </trkpt>
      <trkpt lat="43.66546" lon="1.40112">
        <ele>123</ele>
        <time>2024-04-09T16:45:29Z</time>
      </trkpt>
      <trkpt lat="43.66545" lon="1.40117">
        <ele>123</ele>
        <time>2024-04-09T16:45:30Z</time>
      </trkpt>
      <trkpt lat="43.66545" lon="1.40118">
        <ele>123</ele>
        <time>2024-04-09T16:45:31Z</time>
      </trkpt>
      <trkpt lat="43.66543" lon="1.4012">
        <ele>123</ele>
        <time>2024-04-09T16:45:32Z</time>
      </trkpt>
      <trkpt lat="43.66541" lon="1.40125">
        <ele>123</ele>
        <time>2024-04-09T16:45:33Z</time>
      </trkpt>
      <trkpt lat="43.66541" lon="1.40125">
        <ele>123</ele>
        <time>2024-04-09T16:45:34Z</time>
      </trkpt>
      <trkpt lat="43.66537" lon="1.40128">
        <ele>123</ele>
        <time>2024-04-09T16:45:35Z</time>
      </trkpt>
      <trkpt lat="43.66536" lon="1.40129">
        <ele>123</ele>
        <time>2024-04-09T16:45:36Z</time>
      </trkpt>
      <trkpt lat="43.66533" lon="1.40132">
        <ele>123</ele>
        <time>2024-04-09T16:45:37Z</time>
      </trkpt>
      <trkpt lat="43.66533" lon="1.40133">
        <ele>123</ele>
        <time>2024-04-09T16:45:38Z</time>
      </trkpt>
      <trkpt lat="43.66529" lon="1.40137">
        <ele>123</ele>
        <time>2024-04-09T16:45:39Z</time>
      </trkpt>
      <trkpt lat="43.66529" lon="1.40137">
        <ele>123</ele>
        <time>2024-04-09T16:45:40Z</time>
      </trkpt>
      <trkpt lat="43.66527" lon="1.40139">
        <ele>123</ele>
        <time>2024-04-09T16:45:41Z</time>
      </trkpt>
      <trkpt lat="43.66526" lon="1.40141">
        <ele>123</ele>
        <time>2024-04-09T16:45:42Z</time>
      </trkpt>
      <trkpt lat="43.66524" lon="1.40144">
        <ele>123</ele>
        <time>2024-04-09T16:45:43Z</time>
      </trkpt>
      <trkpt lat="43.66522" lon="1.40146">
        <ele>123</ele>
        <time>2024-04-09T16:45:44Z</time>
      </trkpt>
      <trkpt lat="43.6652" lon="1.40148">
        <ele>123</ele>
        <time>2024-04-09T16:45:45Z</time>
      </trkpt>
      <trkpt lat="43.66518" lon="1.40151">
        <ele>123</ele>
        <time>2024-04-09T16:45:46Z</time>
      </trkpt>
      <trkpt lat="43.66518" lon="1.40154">
        <ele>123</ele>
        <time>2024-04-09T16:45:47Z</time>
      </trkpt>
      <trkpt lat="43.66517" lon="1.40158">
        <ele>123</ele>
        <time>2024-04-09T16:45:48Z</time>
      </trkpt>
      <trkpt lat="43.66516" lon="1.40161">
        <ele>123</ele>
        <time>2024-04-09T16:45:49Z</time>
      </trkpt>
      <trkpt lat="43.66515" lon="1.40165">
        <ele>123</ele>
        <time>2024-04-09T16:45:50Z</time>
      </trkpt>
      <trkpt lat="43.66514" lon="1.40166">
        <ele>123</ele>
        <time>2024-04-09T16:45:51Z</time>
      </trkpt>
      <trkpt lat="43.66512" lon="1.40171">
        <ele>123</ele>
        <time>2024-04-09T16:45:52Z</time>
      </trkpt>
      <trkpt lat="43.66512" lon="1.40171">
        <ele>123</ele>
        <time>2024-04-09T16:45:53Z</time>
      </trkpt>
      <trkpt lat="43.66509" lon="1.40174">
        <ele>123</ele>
        <time>2024-04-09T16:45:54Z</time>
      </trkpt>
      <trkpt lat="43.66508" lon="1.40175">
        <ele>123</ele>
        <time>2024-04-09T16:45:55Z</time>
      </trkpt>
      <trkpt lat="43.66506" lon="1.40176">
        <ele>123</ele>
        <time>2024-04-09T16:45:56Z</time>
      </trkpt>
      <trkpt lat="43.66506" lon="1.40176">
        <ele>123</ele>
        <time>2024-04-09T16:45:57Z</time>
      </trkpt>
      <trkpt lat="43.66503" lon="1.40179">
        <ele>123</ele>
        <time>2024-04-09T16:45:58Z</time>
      </trkpt>
      <trkpt lat="43.66502" lon="1.40181">
        <ele>123</ele>
        <time>2024-04-09T16:45:59Z</time>
      </trkpt>
      <trkpt lat="43.66501" lon="1.40184">
        <ele>123</ele>
        <time>2024-04-09T16:46:00Z</time>
      </trkpt>
      <trkpt lat="43.665" lon="1.40186">
        <ele>123</ele>
        <time>2024-04-09T16:46:01Z</time>
      </trkpt>
      <trkpt lat="43.66499" lon="1.40189">
        <ele>123</ele>
        <time>2024-04-09T16:46:02Z</time>
      </trkpt>
      <trkpt lat="43.66496" lon="1.40191">
        <ele>123</ele>
        <time>2024-04-09T16:46:03Z</time>
      </trkpt>
      <trkpt lat="43.66495" lon="1.40192">
        <ele>123</ele>
        <time>2024-04-09T16:46:04Z</time>
      </trkpt>
      <trkpt lat="43.66493" lon="1.40193">
        <ele>123</ele>
        <time>2024-04-09T16:46:05Z</time>
      </trkpt>
      <trkpt lat="43.66491" lon="1.40194">
        <ele>123</ele>
        <time>2024-04-09T16:46:06Z</time>
      </trkpt>
      <trkpt lat="43.66489" lon="1.40196">
        <ele>123</ele>
        <time>2024-04-09T16:46:07Z</time>
      </trkpt>
      <trkpt lat="43.66487" lon="1.40197">
        <ele>123</ele>
        <time>2024-04-09T16:46:08Z</time>
      </trkpt>
      <trkpt lat="43.66485" lon="1.40198">
        <ele>123</ele>
        <time>2024-04-09T16:46:09Z</time>
      </trkpt>
      <trkpt lat="43.66483" lon="1.40198">
        <ele>123</ele>
        <time>2024-04-09T16:46:10Z</time>
      </trkpt>
      <trkpt lat="43.66483" lon="1.40198">
        <ele>123</ele>
        <time>2024-04-09T16:46:11Z</time>
      </trkpt>
      <trkpt lat="43.66478" lon="1.40198">
        <ele>123</ele>
        <time>2024-04-09T16:46:12Z</time>
      </trkpt>
      <trkpt lat="43.66476" lon="1.402">
        <ele>123</ele>
        <time>2024-04-09T16:46:13Z</time>
      </trkpt>
      <trkpt lat="43.66475" lon="1.40202">
        <ele>123</ele>
        <time>2024-04-09T16:46:14Z</time>
      </trkpt>
      <trkpt lat="43.66472" lon="1.40205">
        <ele>122</ele>
        <time>2024-04-09T16:46:15Z</time>
      </trkpt>
      <trkpt lat="43.66471" lon="1.40206">
        <ele>122</ele>
        <time>2024-04-09T16:46:16Z</time>
      </trkpt>
      <trkpt lat="43.66469" lon="1.4021">
        <ele>122</ele>
        <time>2024-04-09T16:46:17Z</time>
      </trkpt>
      <trkpt lat="43.66469" lon="1.40211">
        <ele>122</ele>
        <time>2024-04-09T16:46:18Z</time>
      </trkpt>
      <trkpt lat="43.66468" lon="1.40214">
        <ele>122</ele>
        <time>2024-04-09T16:46:19Z</time>
      </trkpt>
      <trkpt lat="43.66466" lon="1.40216">
        <ele>122</ele>
        <time>2024-04-09T16:46:20Z</time>
      </trkpt>
      <trkpt lat="43.66465" lon="1.40218">
        <ele>122</ele>
        <time>2024-04-09T16:46:21Z</time>
      </trkpt>
      <trkpt lat="43.66464" lon="1.40221">
        <ele>122</ele>
        <time>2024-04-09T16:46:22Z</time>
      </trkpt>
      <trkpt lat="43.66462" lon="1.40223">
        <ele>122</ele>
        <time>2024-04-09T16:46:23Z</time>
      </trkpt>
      <trkpt lat="43.66461" lon="1.40225">
        <ele>122</ele>
        <time>2024-04-09T16:46:24Z</time>
      </trkpt>
      <trkpt lat="43.66459" lon="1.40227">
        <ele>122</ele>
        <time>2024-04-09T16:46:25Z</time>
      </trkpt>
      <trkpt lat="43.66458" lon="1.40229">
        <ele>122</ele>
        <time>2024-04-09T16:46:26Z</time>
      </trkpt>
      <trkpt lat="43.66456" lon="1.40232">
        <ele>122</ele>
        <time>2024-04-09T16:46:27Z</time>
      </trkpt>
      <trkpt lat="43.66456" lon="1.40233">
        <ele>122</ele>
        <time>2024-04-09T16:46:28Z</time>
      </trkpt>
      <trkpt lat="43.66454" lon="1.40236">
        <ele>122</ele>
        <time>2024-04-09T16:46:29Z</time>
      </trkpt>
      <trkpt lat="43.66449" lon="1.4024">
        <ele>122</ele>
        <time>2024-04-09T16:46:30Z</time>
      </trkpt>
      <trkpt lat="43.66449" lon="1.4024">
        <ele>122</ele>
        <time>2024-04-09T16:46:31Z</time>
      </trkpt>
      <trkpt lat="43.66446" lon="1.40243">
        <ele>122</ele>
        <time>2024-04-09T16:46:32Z</time>
      </trkpt>
      <trkpt lat="43.66445" lon="1.40244">
        <ele>122</ele>
        <time>2024-04-09T16:46:33Z</time>
      </trkpt>
      <trkpt lat="43.66443" lon="1.40246">
        <ele>122</ele>
        <time>2024-04-09T16:46:34Z</time>
      </trkpt>
      <trkpt lat="43.66441" lon="1.40246">
        <ele>122</ele>
        <time>2024-04-09T16:46:35Z</time>
      </trkpt>
      <trkpt lat="43.66439" lon="1.40247">
        <ele>122</ele>
        <time>2024-04-09T16:46:36Z</time>
      </trkpt>
      <trkpt lat="43.66437" lon="1.40248">
        <ele>122</ele>
        <time>2024-04-09T16:46:37Z</time>
      </trkpt>
      <trkpt lat="43.66433" lon="1.40251">
        <ele>122</ele>
        <time>2024-04-09T16:46:38Z</time>
      </trkpt>
      <trkpt lat="43.66432" lon="1.40252">
        <ele>122</ele>
        <time>2024-04-09T16:46:39Z</time>
      </trkpt>
      <trkpt lat="43.66429" lon="1.40254">
        <ele>122</ele>
        <time>2024-04-09T16:46:40Z</time>
      </trkpt>
      <trkpt lat="43.66428" lon="1.40256">
        <ele>122</ele>
        <time>2024-04-09T16:46:41Z</time>
      </trkpt>
      <trkpt lat="43.66426" lon="1.40258">
        <ele>122</ele>
        <time>2024-04-09T16:46:42Z</time>
      </trkpt>
      <trkpt lat="43.66425" lon="1.4026">
        <ele>122</ele>
        <time>2024-04-09T16:46:43Z</time>
      </trkpt>
      <trkpt lat="43.66423" lon="1.40264">
        <ele>122</ele>
        <time>2024-04-09T16:46:44Z</time>
      </trkpt>
      <trkpt lat="43.66422" lon="1.40268">
        <ele>122</ele>
        <time>2024-04-09T16:46:45Z</time>
      </trkpt>
      <trkpt lat="43.66421" lon="1.40269">
        <ele>122</ele>
        <time>2024-04-09T16:46:46Z</time>
      </trkpt>
      <trkpt lat="43.66419" lon="1.40271">
        <ele>122</ele>
        <time>2024-04-09T16:46:47Z</time>
      </trkpt>
      <trkpt lat="43.66418" lon="1.40274">
        <ele>122</ele>
        <time>2024-04-09T16:46:48Z</time>
      </trkpt>
      <trkpt lat="43.66416" lon="1.40279">
        <ele>122</ele>
        <time>2024-04-09T16:46:49Z</time>
      </trkpt>
      <trkpt lat="43.66416" lon="1.40279">
        <ele>122</ele>
        <time>2024-04-09T16:46:50Z</time>
      </trkpt>
      <trkpt lat="43.66413" lon="1.40282">
        <ele>122</ele>
        <time>2024-04-09T16:46:51Z</time>
      </trkpt>
      <trkpt lat="43.66412" lon="1.40283">
        <ele>122</ele>
        <time>2024-04-09T16:46:52Z</time>
      </trkpt>
      <trkpt lat="43.6641" lon="1.40285">
        <ele>122</ele>
        <time>2024-04-09T16:46:53Z</time>
      </trkpt>
      <trkpt lat="43.66408" lon="1.40287">
        <ele>122</ele>
        <time>2024-04-09T16:46:54Z</time>
      </trkpt>
      <trkpt lat="43.66407" lon="1.40289">
        <ele>122</ele>
        <time>2024-04-09T16:46:55Z</time>
      </trkpt>
      <trkpt lat="43.66405" lon="1.40291">
        <ele>122</ele>
        <time>2024-04-09T16:46:56Z</time>
      </trkpt>
      <trkpt lat="43.66405" lon="1.40291">
        <ele>122</ele>
        <time>2024-04-09T16:46:57Z</time>
      </trkpt>
      <trkpt lat="43.66403" lon="1.40295">
        <ele>122</ele>
        <time>2024-04-09T16:46:58Z</time>
      </trkpt>
      <trkpt lat="43.66403" lon="1.40298">
        <ele>122</ele>
        <time>2024-04-09T16:46:59Z</time>
      </trkpt>
      <trkpt lat="43.66403" lon="1.40301">
        <ele>122</ele>
        <time>2024-04-09T16:47:00Z</time>
      </trkpt>
      <trkpt lat="43.66402" lon="1.40305">
        <ele>122</ele>
        <time>2024-04-09T16:47:01Z</time>
      </trkpt>
      <trkpt lat="43.66401" lon="1.40307">
        <ele>122</ele>
        <time>2024-04-09T16:47:02Z</time>
      </trkpt>
      <trkpt lat="43.66399" lon="1.40308">
        <ele>122</ele>
        <time>2024-04-09T16:47:03Z</time>
      </trkpt>
      <trkpt lat="43.66398" lon="1.4031">
        <ele>122</ele>
        <time>2024-04-09T16:47:04Z</time>
      </trkpt>
      <trkpt lat="43.66396" lon="1.4031">
        <ele>122</ele>
        <time>2024-04-09T16:47:05Z</time>
      </trkpt>
      <trkpt lat="43.66394" lon="1.40311">
        <ele>122</ele>
        <time>2024-04-09T16:47:06Z</time>
      </trkpt>
      <trkpt lat="43.66392" lon="1.40311">
        <ele>123</ele>
        <time>2024-04-09T16:47:07Z</time>
      </trkpt>
      <trkpt lat="43.66389" lon="1.40312">
        <ele>123</ele>
        <time>2024-04-09T16:47:08Z</time>
      </trkpt>
      <trkpt lat="43.66388" lon="1.40313">
        <ele>123</ele>
        <time>2024-04-09T16:47:09Z</time>
      </trkpt>
      <trkpt lat="43.66387" lon="1.40318">
        <ele>123</ele>
        <time>2024-04-09T16:47:10Z</time>
      </trkpt>
      <trkpt lat="43.66386" lon="1.40319">
        <ele>123</ele>
        <time>2024-04-09T16:47:11Z</time>
      </trkpt>
      <trkpt lat="43.66385" lon="1.40322">
        <ele>123</ele>
        <time>2024-04-09T16:47:12Z</time>
      </trkpt>
      <trkpt lat="43.66383" lon="1.40324">
        <ele>123</ele>
        <time>2024-04-09T16:47:13Z</time>
      </trkpt>
      <trkpt lat="43.66381" lon="1.40325">
        <ele>123</ele>
        <time>2024-04-09T16:47:14Z</time>
      </trkpt>
      <trkpt lat="43.66377" lon="1.40327">
        <ele>123</ele>
        <time>2024-04-09T16:47:15Z</time>
      </trkpt>
      <trkpt lat="43.66376" lon="1.40327">
        <ele>123</ele>
        <time>2024-04-09T16:47:16Z</time>
      </trkpt>
      <trkpt lat="43.66374" lon="1.40329">
        <ele>123</ele>
        <time>2024-04-09T16:47:17Z</time>
      </trkpt>
      <trkpt lat="43.6637" lon="1.40331">
        <ele>123</ele>
        <time>2024-04-09T16:47:18Z</time>
      </trkpt>
      <trkpt lat="43.66369" lon="1.40331">
        <ele>123</ele>
        <time>2024-04-09T16:47:19Z</time>
      </trkpt>
      <trkpt lat="43.66367" lon="1.40332">
        <ele>123</ele>
        <time>2024-04-09T16:47:20Z</time>
      </trkpt>
      <trkpt lat="43.66364" lon="1.40333">
        <ele>123</ele>
        <time>2024-04-09T16:47:21Z</time>
      </trkpt>
      <trkpt lat="43.66363" lon="1.40334">
        <ele>123</ele>
        <time>2024-04-09T16:47:22Z</time>
      </trkpt>
      <trkpt lat="43.66361" lon="1.40334">
        <ele>123</ele>
        <time>2024-04-09T16:47:23Z</time>
      </trkpt>
      <trkpt lat="43.66361" lon="1.40334">
        <ele>123</ele>
        <time>2024-04-09T16:47:24Z</time>
      </trkpt>
      <trkpt lat="43.66358" lon="1.40337">
        <ele>123</ele>
        <time>2024-04-09T16:47:25Z</time>
      </trkpt>
      <trkpt lat="43.66356" lon="1.40341">
        <ele>123</ele>
        <time>2024-04-09T16:47:26Z</time>
      </trkpt>
      <trkpt lat="43.66355" lon="1.40345">
        <ele>123</ele>
        <time>2024-04-09T16:47:27Z</time>
      </trkpt>
      <trkpt lat="43.66355" lon="1.40345">
        <ele>123</ele>
        <time>2024-04-09T16:47:28Z</time>
      </trkpt>
      <trkpt lat="43.66353" lon="1.40349">
        <ele>123</ele>
        <time>2024-04-09T16:47:29Z</time>
      </trkpt>
      <trkpt lat="43.66353" lon="1.4035">
        <ele>123</ele>
        <time>2024-04-09T16:47:30Z</time>
      </trkpt>
      <trkpt lat="43.66352" lon="1.40352">
        <ele>123</ele>
        <time>2024-04-09T16:47:31Z</time>
      </trkpt>
      <trkpt lat="43.6635" lon="1.40354">
        <ele>123</ele>
        <time>2024-04-09T16:47:32Z</time>
      </trkpt>
      <trkpt lat="43.66346" lon="1.40356">
        <ele>123</ele>
        <time>2024-04-09T16:47:33Z</time>
      </trkpt>
      <trkpt lat="43.66345" lon="1.40356">
        <ele>123</ele>
        <time>2024-04-09T16:47:34Z</time>
      </trkpt>
      <trkpt lat="43.66342" lon="1.40358">
        <ele>123</ele>
        <time>2024-04-09T16:47:35Z</time>
      </trkpt>
      <trkpt lat="43.66339" lon="1.4036">
        <ele>123</ele>
        <time>2024-04-09T16:47:36Z</time>
      </trkpt>
      <trkpt lat="43.66337" lon="1.40361">
        <ele>123</ele>
        <time>2024-04-09T16:47:37Z</time>
      </trkpt>
      <trkpt lat="43.66333" lon="1.40362">
        <ele>123</ele>
        <time>2024-04-09T16:47:38Z</time>
      </trkpt>
      <trkpt lat="43.66332" lon="1.40363">
        <ele>123</ele>
        <time>2024-04-09T16:47:39Z</time>
      </trkpt>
      <trkpt lat="43.6633" lon="1.40365">
        <ele>123</ele>
        <time>2024-04-09T16:47:40Z</time>
      </trkpt>
      <trkpt lat="43.66328" lon="1.40366">
        <ele>123</ele>
        <time>2024-04-09T16:47:41Z</time>
      </trkpt>
      <trkpt lat="43.66327" lon="1.40369">
        <ele>123</ele>
        <time>2024-04-09T16:47:42Z</time>
      </trkpt>
      <trkpt lat="43.66325" lon="1.4037">
        <ele>123</ele>
        <time>2024-04-09T16:47:43Z</time>
      </trkpt>
      <trkpt lat="43.66323" lon="1.40373">
        <ele>123</ele>
        <time>2024-04-09T16:47:44Z</time>
      </trkpt>
      <trkpt lat="43.66322" lon="1.40375">
        <ele>123</ele>
        <time>2024-04-09T16:47:45Z</time>
      </trkpt>
      <trkpt lat="43.66319" lon="1.40379">
        <ele>123</ele>
        <time>2024-04-09T16:47:46Z</time>
      </trkpt>
      <trkpt lat="43.66319" lon="1.40379">
        <ele>123</ele>
        <time>2024-04-09T16:47:47Z</time>
      </trkpt>
      <trkpt lat="43.66317" lon="1.40382">
        <ele>123</ele>
        <time>2024-04-09T16:47:48Z</time>
      </trkpt>
      <trkpt lat="43.66316" lon="1.40384">
        <ele>123</ele>
        <time>2024-04-09T16:47:49Z</time>
      </trkpt>
      <trkpt lat="43.66313" lon="1.40387">
        <ele>123</ele>
        <time>2024-04-09T16:47:50Z</time>
      </trkpt>
      <trkpt lat="43.66312" lon="1.40388">
        <ele>123</ele>
        <time>2024-04-09T16:47:51Z</time>
      </trkpt>
      <trkpt lat="43.6631" lon="1.40389">
        <ele>123</ele>
        <time>2024-04-09T16:47:52Z</time>
      </trkpt>
      <trkpt lat="43.66307" lon="1.40391">
        <ele>123</ele>
        <time>2024-04-09T16:47:53Z</time>
      </trkpt>
      <trkpt lat="43.66305" lon="1.40392">
        <ele>123</ele>
        <time>2024-04-09T16:47:54Z</time>
      </trkpt>
      <trkpt lat="43.66303" lon="1.40393">
        <ele>123</ele>
        <time>2024-04-09T16:47:55Z</time>
      </trkpt>
      <trkpt lat="43.66301" lon="1.40394">
        <ele>123</ele>
        <time>2024-04-09T16:47:56Z</time>
      </trkpt>
      <trkpt lat="43.66299" lon="1.40396">
        <ele>123</ele>
        <time>2024-04-09T16:47:57Z</time>
      </trkpt>
      <trkpt lat="43.66298" lon="1.40398">
        <ele>123</ele>
        <time>2024-04-09T16:47:58Z</time>
      </trkpt>
      <trkpt lat="43.66297" lon="1.40401">
        <ele>123</ele>
        <time>2024-04-09T16:47:59Z</time>
      </trkpt>
      <trkpt lat="43.66297" lon="1.40403">
        <ele>123</ele>
        <time>2024-04-09T16:48:00Z</time>
      </trkpt>
      <trkpt lat="43.66296" lon="1.40406">
        <ele>123</ele>
        <time>2024-04-09T16:48:01Z</time>
      </trkpt>
      <trkpt lat="43.66294" lon="1.40411">
        <ele>122</ele>
        <time>2024-04-09T16:48:02Z</time>
      </trkpt>
      <trkpt lat="43.66293" lon="1.40412">
        <ele>122</ele>
        <time>2024-04-09T16:48:03Z</time>
      </trkpt>
      <trkpt lat="43.66291" lon="1.40415">
        <ele>122</ele>
        <time>2024-04-09T16:48:04Z</time>
      </trkpt>
      <trkpt lat="43.66288" lon="1.40418">
        <ele>122</ele>
        <time>2024-04-09T16:48:05Z</time>
      </trkpt>
      <trkpt lat="43.66288" lon="1.40418">
        <ele>122</ele>
        <time>2024-04-09T16:48:06Z</time>
      </trkpt>
      <trkpt lat="43.66285" lon="1.4042">
        <ele>122</ele>
        <time>2024-04-09T16:48:07Z</time>
      </trkpt>
      <trkpt lat="43.66284" lon="1.4042">
        <ele>122</ele>
        <time>2024-04-09T16:48:08Z</time>
      </trkpt>
      <trkpt lat="43.66281" lon="1.40422">
        <ele>122</ele>
        <time>2024-04-09T16:48:09Z</time>
      </trkpt>
      <trkpt lat="43.6628" lon="1.40423">
        <ele>122</ele>
        <time>2024-04-09T16:48:10Z</time>
      </trkpt>
      <trkpt lat="43.66278" lon="1.40424">
        <ele>122</ele>
        <time>2024-04-09T16:48:11Z</time>
      </trkpt>
      <trkpt lat="43.66278" lon="1.40424">
        <ele>122</ele>
        <time>2024-04-09T16:48:12Z</time>
      </trkpt>
      <trkpt lat="43.66275" lon="1.40427">
        <ele>122</ele>
        <time>2024-04-09T16:48:13Z</time>
      </trkpt>
      <trkpt lat="43.66272" lon="1.40429">
        <ele>122</ele>
        <time>2024-04-09T16:48:14Z</time>
      </trkpt>
      <trkpt lat="43.66271" lon="1.4043">
        <ele>122</ele>
        <time>2024-04-09T16:48:15Z</time>
      </trkpt>
      <trkpt lat="43.66269" lon="1.40431">
        <ele>122</ele>
        <time>2024-04-09T16:48:16Z</time>
      </trkpt>
      <trkpt lat="43.66267" lon="1.40432">
        <ele>122</ele>
        <time>2024-04-09T16:48:17Z</time>
      </trkpt>
      <trkpt lat="43.66264" lon="1.40434">
        <ele>122</ele>
        <time>2024-04-09T16:48:18Z</time>
      </trkpt>
      <trkpt lat="43.66263" lon="1.40435">
        <ele>122</ele>
        <time>2024-04-09T16:48:19Z</time>
      </trkpt>
      <trkpt lat="43.66261" lon="1.40436">
        <ele>122</ele>
        <time>2024-04-09T16:48:20Z</time>
      </trkpt>
      <trkpt lat="43.66259" lon="1.40436">
        <ele>122</ele>
        <time>2024-04-09T16:48:21Z</time>
      </trkpt>
      <trkpt lat="43.66257" lon="1.40437">
        <ele>122</ele>
        <time>2024-04-09T16:48:22Z</time>
      </trkpt>
      <trkpt lat="43.66256" lon="1.40438">
        <ele>122</ele>
        <time>2024-04-09T16:48:23Z</time>
      </trkpt>
      <trkpt lat="43.66254" lon="1.40439">
        <ele>122</ele>
        <time>2024-04-09T16:48:24Z</time>
      </trkpt>
      <trkpt lat="43.66252" lon="1.40441">
        <ele>122</ele>
        <time>2024-04-09T16:48:25Z</time>
      </trkpt>
      <trkpt lat="43.66249" lon="1.40444">
        <ele>122</ele>
        <time>2024-04-09T16:48:26Z</time>
      </trkpt>
      <trkpt lat="43.66248" lon="1.40445">
        <ele>122</ele>
        <time>2024-04-09T16:48:27Z</time>
      </trkpt>
      <trkpt lat="43.66246" lon="1.40446">
        <ele>122</ele>
        <time>2024-04-09T16:48:28Z</time>
      </trkpt>
      <trkpt lat="43.66244" lon="1.40447">
        <ele>122</ele>
        <time>2024-04-09T16:48:29Z</time>
      </trkpt>
      <trkpt lat="43.66241" lon="1.4045">
        <ele>122</ele>
        <time>2024-04-09T16:48:30Z</time>
      </trkpt>
      <trkpt lat="43.6624" lon="1.4045">
        <ele>122</ele>
        <time>2024-04-09T16:48:31Z</time>
      </trkpt>
      <trkpt lat="43.66238" lon="1.40452">
        <ele>122</ele>
        <time>2024-04-09T16:48:32Z</time>
      </trkpt>
      <trkpt lat="43.66234" lon="1.40453">
        <ele>122</ele>
        <time>2024-04-09T16:48:33Z</time>
      </trkpt>
      <trkpt lat="43.66233" lon="1.40454">
        <ele>122</ele>
        <time>2024-04-09T16:48:34Z</time>
      </trkpt>
      <trkpt lat="43.66229" lon="1.40455">
        <ele>122</ele>
        <time>2024-04-09T16:48:35Z</time>
      </trkpt>
      <trkpt lat="43.66228" lon="1.40456">
        <ele>123</ele>
        <time>2024-04-09T16:48:36Z</time>
      </trkpt>
      <trkpt lat="43.66224" lon="1.40458">
        <ele>123</ele>
        <time>2024-04-09T16:48:37Z</time>
      </trkpt>
      <trkpt lat="43.66223" lon="1.40459">
        <ele>123</ele>
        <time>2024-04-09T16:48:38Z</time>
      </trkpt>
      <trkpt lat="43.6622" lon="1.40461">
        <ele>123</ele>
        <time>2024-04-09T16:48:39Z</time>
      </trkpt>
      <trkpt lat="43.66217" lon="1.40463">
        <ele>123</ele>
        <time>2024-04-09T16:48:40Z</time>
      </trkpt>
      <trkpt lat="43.66216" lon="1.40463">
        <ele>123</ele>
        <time>2024-04-09T16:48:41Z</time>
      </trkpt>
      <trkpt lat="43.66211" lon="1.40468">
        <ele>123</ele>
        <time>2024-04-09T16:48:42Z</time>
      </trkpt>
      <trkpt lat="43.6621" lon="1.4047">
        <ele>123</ele>
        <time>2024-04-09T16:48:43Z</time>
      </trkpt>
      <trkpt lat="43.6621" lon="1.4047">
        <ele>122</ele>
        <time>2024-04-09T16:48:44Z</time>
      </trkpt>
      <trkpt lat="43.66208" lon="1.40472">
        <ele>122</ele>
        <time>2024-04-09T16:48:45Z</time>
      </trkpt>
      <trkpt lat="43.66205" lon="1.40473">
        <ele>122</ele>
        <time>2024-04-09T16:48:46Z</time>
      </trkpt>
      <trkpt lat="43.66204" lon="1.40474">
        <ele>122</ele>
        <time>2024-04-09T16:48:47Z</time>
      </trkpt>
      <trkpt lat="43.66202" lon="1.40475">
        <ele>122</ele>
        <time>2024-04-09T16:48:48Z</time>
      </trkpt>
      <trkpt lat="43.662" lon="1.40476">
        <ele>122</ele>
        <time>2024-04-09T16:48:49Z</time>
      </trkpt>
      <trkpt lat="43.66198" lon="1.40477">
        <ele>122</ele>
        <time>2024-04-09T16:48:50Z</time>
      </trkpt>
      <trkpt lat="43.66195" lon="1.40479">
        <ele>122</ele>
        <time>2024-04-09T16:48:51Z</time>
      </trkpt>
      <trkpt lat="43.66194" lon="1.40479">
        <ele>122</ele>
        <time>2024-04-09T16:48:52Z</time>
      </trkpt>
      <trkpt lat="43.66191" lon="1.40482">
        <ele>122</ele>
        <time>2024-04-09T16:48:53Z</time>
      </trkpt>
      <trkpt lat="43.6619" lon="1.40483">
        <ele>122</ele>
        <time>2024-04-09T16:48:54Z</time>
      </trkpt>
      <trkpt lat="43.66187" lon="1.40484">
        <ele>122</ele>
        <time>2024-04-09T16:48:55Z</time>
      </trkpt>
      <trkpt lat="43.66185" lon="1.40486">
        <ele>122</ele>
        <time>2024-04-09T16:48:56Z</time>
      </trkpt>
      <trkpt lat="43.66184" lon="1.40488">
        <ele>122</ele>
        <time>2024-04-09T16:48:57Z</time>
      </trkpt>
      <trkpt lat="43.6618" lon="1.40492">
        <ele>123</ele>
        <time>2024-04-09T16:48:58Z</time>
      </trkpt>
      <trkpt lat="43.6618" lon="1.40492">
        <ele>123</ele>
        <time>2024-04-09T16:48:59Z</time>
      </trkpt>
      <trkpt lat="43.66178" lon="1.40493">
        <ele>123</ele>
        <time>2024-04-09T16:49:00Z</time>
      </trkpt>
      <trkpt lat="43.66176" lon="1.40494">
        <ele>123</ele>
        <time>2024-04-09T16:49:01Z</time>
      </trkpt>
      <trkpt lat="43.6617" lon="1.40495">
        <ele>123</ele>
        <time>2024-04-09T16:49:02Z</time>
      </trkpt>
      <trkpt lat="43.6617" lon="1.40495">
        <ele>123</ele>
        <time>2024-04-09T16:49:03Z</time>
      </trkpt>
      <trkpt lat="43.66168" lon="1.40496">
        <ele>123</ele>
        <time>2024-04-09T16:49:04Z</time>
      </trkpt>
      <trkpt lat="43.66167" lon="1.40496">
        <ele>123</ele>
        <time>2024-04-09T16:49:05Z</time>
      </trkpt>
      <trkpt lat="43.66165" lon="1.40496">
        <ele>123</ele>
        <time>2024-04-09T16:49:06Z</time>
      </trkpt>
      <trkpt lat="43.66162" lon="1.40496">
        <ele>123</ele>
        <time>2024-04-09T16:49:07Z</time>
      </trkpt>
      <trkpt lat="43.6616" lon="1.40497">
        <ele>123</ele>
        <time>2024-04-09T16:49:08Z</time>
      </trkpt>
      <trkpt lat="43.66157" lon="1.40498">
        <ele>123</ele>
        <time>2024-04-09T16:49:09Z</time>
      </trkpt>
      <trkpt lat="43.66156" lon="1.40499">
        <ele>123</ele>
        <time>2024-04-09T16:49:10Z</time>
      </trkpt>
      <trkpt lat="43.66153" lon="1.40502">
        <ele>123</ele>
        <time>2024-04-09T16:49:11Z</time>
      </trkpt>
      <trkpt lat="43.66151" lon="1.40503">
        <ele>123</ele>
        <time>2024-04-09T16:49:12Z</time>
      </trkpt>
      <trkpt lat="43.66149" lon="1.40504">
        <ele>123</ele>
        <time>2024-04-09T16:49:13Z</time>
      </trkpt>
      <trkpt lat="43.66147" lon="1.40506">
        <ele>123</ele>
        <time>2024-04-09T16:49:14Z</time>
      </trkpt>
      <trkpt lat="43.66145" lon="1.40506">
        <ele>123</ele>
        <time>2024-04-09T16:49:15Z</time>
      </trkpt>
      <trkpt lat="43.66142" lon="1.40507">
        <ele>123</ele>
        <time>2024-04-09T16:49:16Z</time>
      </trkpt>
      <trkpt lat="43.6614" lon="1.40507">
        <ele>123</ele>
        <time>2024-04-09T16:49:17Z</time>
      </trkpt>
      <trkpt lat="43.66138" lon="1.40508">
        <ele>123</ele>
        <time>2024-04-09T16:49:18Z</time>
      </trkpt>
      <trkpt lat="43.66136" lon="1.40508">
        <ele>124</ele>
        <time>2024-04-09T16:49:19Z</time>
      </trkpt>
      <trkpt lat="43.66132" lon="1.40509">
        <ele>124</ele>
        <time>2024-04-09T16:49:20Z</time>
      </trkpt>
      <trkpt lat="43.6613" lon="1.40509">
        <ele>124</ele>
        <time>2024-04-09T16:49:21Z</time>
      </trkpt>
      <trkpt lat="43.6613" lon="1.40509">
        <ele>124</ele>
        <time>2024-04-09T16:49:22Z</time>
      </trkpt>
      <trkpt lat="43.66128" lon="1.40509">
        <ele>124</ele>
        <time>2024-04-09T16:49:23Z</time>
      </trkpt>
      <trkpt lat="43.66126" lon="1.40509">
        <ele>124</ele>
        <time>2024-04-09T16:49:24Z</time>
      </trkpt>
      <trkpt lat="43.66124" lon="1.40511">
        <ele>124</ele>
        <time>2024-04-09T16:49:25Z</time>
      </trkpt>
      <trkpt lat="43.66122" lon="1.40512">
        <ele>124</ele>
        <time>2024-04-09T16:49:26Z</time>
      </trkpt>
      <trkpt lat="43.6612" lon="1.40513">
        <ele>123</ele>
        <time>2024-04-09T16:49:27Z</time>
      </trkpt>
      <trkpt lat="43.66116" lon="1.40517">
        <ele>123</ele>
        <time>2024-04-09T16:49:28Z</time>
      </trkpt>
      <trkpt lat="43.66116" lon="1.40517">
        <ele>123</ele>
        <time>2024-04-09T16:49:29Z</time>
      </trkpt>
      <trkpt lat="43.66114" lon="1.40519">
        <ele>123</ele>
        <time>2024-04-09T16:49:30Z</time>
      </trkpt>
      <trkpt lat="43.66112" lon="1.4052">
        <ele>123</ele>
        <time>2024-04-09T16:49:31Z</time>
      </trkpt>
      <trkpt lat="43.66109" lon="1.40522">
        <ele>123</ele>
        <time>2024-04-09T16:49:32Z</time>
      </trkpt>
      <trkpt lat="43.66108" lon="1.40522">
        <ele>123</ele>
        <time>2024-04-09T16:49:33Z</time>
      </trkpt>
      <trkpt lat="43.66104" lon="1.40524">
        <ele>123</ele>
        <time>2024-04-09T16:49:34Z</time>
      </trkpt>
      <trkpt lat="43.66103" lon="1.40524">
        <ele>123</ele>
        <time>2024-04-09T16:49:35Z</time>
      </trkpt>
      <trkpt lat="43.66102" lon="1.40525">
        <ele>123</ele>
        <time>2024-04-09T16:49:36Z</time>
      </trkpt>
      <trkpt lat="43.66099" lon="1.40525">
        <ele>123</ele>
        <time>2024-04-09T16:49:37Z</time>
      </trkpt>
      <trkpt lat="43.66097" lon="1.40525">
        <ele>123</ele>
        <time>2024-04-09T16:49:38Z</time>
      </trkpt>
      <trkpt lat="43.66096" lon="1.40524">
        <ele>123</ele>
        <time>2024-04-09T16:49:39Z</time>
      </trkpt>
      <trkpt lat="43.66093" lon="1.40521">
        <ele>124</ele>
        <time>2024-04-09T16:49:40Z</time>
      </trkpt>
      <trkpt lat="43.66093" lon="1.40521">
        <ele>124</ele>
        <time>2024-04-09T16:49:41Z</time>
      </trkpt>
      <trkpt lat="43.6609" lon="1.40519">
        <ele>124</ele>
        <time>2024-04-09T16:49:42Z</time>
      </trkpt>
      <trkpt lat="43.66089" lon="1.40518">
        <ele>124</ele>
        <time>2024-04-09T16:49:43Z</time>
      </trkpt>
      <trkpt lat="43.66086" lon="1.40518">
        <ele>124</ele>
        <time>2024-04-09T16:49:44Z</time>
      </trkpt>
      <trkpt lat="43.66084" lon="1.40517">
        <ele>124</ele>
        <time>2024-04-09T16:49:45Z</time>
      </trkpt>
      <trkpt lat="43.66081" lon="1.40517">
        <ele>124</ele>
        <time>2024-04-09T16:49:46Z</time>
      </trkpt>
      <trkpt lat="43.6608" lon="1.40518">
        <ele>124</ele>
        <time>2024-04-09T16:49:47Z</time>
      </trkpt>
      <trkpt lat="43.66078" lon="1.40518">
        <ele>124</ele>
        <time>2024-04-09T16:49:48Z</time>
      </trkpt>
      <trkpt lat="43.66075" lon="1.40519">
        <ele>124</ele>
        <time>2024-04-09T16:49:49Z</time>
      </trkpt>
      <trkpt lat="43.66074" lon="1.4052">
        <ele>124</ele>
        <time>2024-04-09T16:49:50Z</time>
      </trkpt>
      <trkpt lat="43.66074" lon="1.4052">
        <ele>124</ele>
        <time>2024-04-09T16:49:51Z</time>
      </trkpt>
      <trkpt lat="43.66071" lon="1.40522">
        <ele>124</ele>
        <time>2024-04-09T16:49:52Z</time>
      </trkpt>
      <trkpt lat="43.66069" lon="1.40522">
        <ele>124</ele>
        <time>2024-04-09T16:49:53Z</time>
      </trkpt>
      <trkpt lat="43.66068" lon="1.40523">
        <ele>124</ele>
        <time>2024-04-09T16:49:54Z</time>
      </trkpt>
      <trkpt lat="43.66066" lon="1.40524">
        <ele>124</ele>
        <time>2024-04-09T16:49:55Z</time>
      </trkpt>
      <trkpt lat="43.66063" lon="1.40525">
        <ele>124</ele>
        <time>2024-04-09T16:49:56Z</time>
      </trkpt>
      <trkpt lat="43.66061" lon="1.40526">
        <ele>124</ele>
        <time>2024-04-09T16:49:57Z</time>
      </trkpt>
      <trkpt lat="43.66058" lon="1.40525">
        <ele>124</ele>
        <time>2024-04-09T16:49:58Z</time>
      </trkpt>
      <trkpt lat="43.66053" lon="1.40526">
        <ele>125</ele>
        <time>2024-04-09T16:49:59Z</time>
      </trkpt>
      <trkpt lat="43.66053" lon="1.40526">
        <ele>125</ele>
        <time>2024-04-09T16:50:00Z</time>
      </trkpt>
      <trkpt lat="43.66051" lon="1.40527">
        <ele>125</ele>
        <time>2024-04-09T16:50:01Z</time>
      </trkpt>
      <trkpt lat="43.66049" lon="1.40528">
        <ele>125</ele>
        <time>2024-04-09T16:50:02Z</time>
      </trkpt>
      <trkpt lat="43.66046" lon="1.40529">
        <ele>125</ele>
        <time>2024-04-09T16:50:03Z</time>
      </trkpt>
      <trkpt lat="43.66045" lon="1.40529">
        <ele>125</ele>
        <time>2024-04-09T16:50:04Z</time>
      </trkpt>
      <trkpt lat="43.66043" lon="1.4053">
        <ele>125</ele>
        <time>2024-04-09T16:50:05Z</time>
      </trkpt>
      <trkpt lat="43.6604" lon="1.4053">
        <ele>125</ele>
        <time>2024-04-09T16:50:06Z</time>
      </trkpt>
      <trkpt lat="43.66038" lon="1.40531">
        <ele>125</ele>
        <time>2024-04-09T16:50:07Z</time>
      </trkpt>
      <trkpt lat="43.66036" lon="1.40532">
        <ele>124</ele>
        <time>2024-04-09T16:50:08Z</time>
      </trkpt>
      <trkpt lat="43.66034" lon="1.40534">
        <ele>124</ele>
        <time>2024-04-09T16:50:09Z</time>
      </trkpt>
      <trkpt lat="43.66032" lon="1.40535">
        <ele>124</ele>
        <time>2024-04-09T16:50:10Z</time>
      </trkpt>
      <trkpt lat="43.6603" lon="1.40536">
        <ele>124</ele>
        <time>2024-04-09T16:50:11Z</time>
      </trkpt>
      <trkpt lat="43.66027" lon="1.40535">
        <ele>124</ele>
        <time>2024-04-09T16:50:12Z</time>
      </trkpt>
      <trkpt lat="43.66025" lon="1.40535">
        <ele>124</ele>
        <time>2024-04-09T16:50:13Z</time>
      </trkpt>
      <trkpt lat="43.66023" lon="1.40534">
        <ele>124</ele>
        <time>2024-04-09T16:50:14Z</time>
      </trkpt>
      <trkpt lat="43.66021" lon="1.40533">
        <ele>124</ele>
        <time>2024-04-09T16:50:15Z</time>
      </trkpt>
      <trkpt lat="43.66018" lon="1.40531">
        <ele>124</ele>
        <time>2024-04-09T16:50:16Z</time>
      </trkpt>
      <trkpt lat="43.66017" lon="1.40531">
        <ele>124</ele>
        <time>2024-04-09T16:50:17Z</time>
      </trkpt>
      <trkpt lat="43.66013" lon="1.40528">
        <ele>124</ele>
        <time>2024-04-09T16:50:18Z</time>
      </trkpt>
      <trkpt lat="43.66013" lon="1.40528">
        <ele>124</ele>
        <time>2024-04-09T16:50:19Z</time>
      </trkpt>
      <trkpt lat="43.66011" lon="1.40527">
        <ele>124</ele>
        <time>2024-04-09T16:50:20Z</time>
      </trkpt>
      <trkpt lat="43.66009" lon="1.40526">
        <ele>124</ele>
        <time>2024-04-09T16:50:21Z</time>
      </trkpt>
      <trkpt lat="43.66008" lon="1.40525">
        <ele>124</ele>
        <time>2024-04-09T16:50:22Z</time>
      </trkpt>
      <trkpt lat="43.66006" lon="1.40525">
        <ele>124</ele>
        <time>2024-04-09T16:50:23Z</time>
      </trkpt>
      <trkpt lat="43.66004" lon="1.40524">
        <ele>124</ele>
        <time>2024-04-09T16:50:24Z</time>
      </trkpt>
      <trkpt lat="43.66001" lon="1.40524">
        <ele>124</ele>
        <time>2024-04-09T16:50:25Z</time>
      </trkpt>
      <trkpt lat="43.65999" lon="1.40525">
        <ele>124</ele>
        <time>2024-04-09T16:50:26Z</time>
      </trkpt>
      <trkpt lat="43.65997" lon="1.40525">
        <ele>124</ele>
        <time>2024-04-09T16:50:27Z</time>
      </trkpt>
      <trkpt lat="43.65995" lon="1.40526">
        <ele>123</ele>
        <time>2024-04-09T16:50:28Z</time>
      </trkpt>
      <trkpt lat="43.65992" lon="1.40526">
        <ele>123</ele>
        <time>2024-04-09T16:50:29Z</time>
      </trkpt>
      <trkpt lat="43.65991" lon="1.40526">
        <ele>123</ele>
        <time>2024-04-09T16:50:30Z</time>
      </trkpt>
      <trkpt lat="43.65991" lon="1.40526">
        <ele>124</ele>
        <time>2024-04-09T16:50:31Z</time>
      </trkpt>
      <trkpt lat="43.65987" lon="1.40528">
        <ele>124</ele>
        <time>2024-04-09T16:50:32Z</time>
      </trkpt>
      <trkpt lat="43.65985" lon="1.40529">
        <ele>124</ele>
        <time>2024-04-09T16:50:33Z</time>
      </trkpt>
      <trkpt lat="43.65983" lon="1.4053">
        <ele>124</ele>
        <time>2024-04-09T16:50:34Z</time>
      </trkpt>
      <trkpt lat="43.65978" lon="1.40531">
        <ele>124</ele>
        <time>2024-04-09T16:50:35Z</time>
      </trkpt>
      <trkpt lat="43.65978" lon="1.40531">
        <ele>124</ele>
        <time>2024-04-09T16:50:36Z</time>
      </trkpt>
      <trkpt lat="43.65976" lon="1.40532">
        <ele>124</ele>
        <time>2024-04-09T16:50:37Z</time>
      </trkpt>
      <trkpt lat="43.65974" lon="1.40533">
        <ele>124</ele>
        <time>2024-04-09T16:50:38Z</time>
      </trkpt>
      <trkpt lat="43.65972" lon="1.40535">
        <ele>124</ele>
        <time>2024-04-09T16:50:39Z</time>
      </trkpt>
      <trkpt lat="43.65969" lon="1.40536">
        <ele>123</ele>
        <time>2024-04-09T16:50:40Z</time>
      </trkpt>
      <trkpt lat="43.65967" lon="1.40537">
        <ele>123</ele>
        <time>2024-04-09T16:50:41Z</time>
      </trkpt>
      <trkpt lat="43.65964" lon="1.40538">
        <ele>124</ele>
        <time>2024-04-09T16:50:42Z</time>
      </trkpt>
      <trkpt lat="43.65963" lon="1.40538">
        <ele>124</ele>
        <time>2024-04-09T16:50:43Z</time>
      </trkpt>
      <trkpt lat="43.6596" lon="1.40537">
        <ele>124</ele>
        <time>2024-04-09T16:50:44Z</time>
      </trkpt>
      <trkpt lat="43.65958" lon="1.40537">
        <ele>124</ele>
        <time>2024-04-09T16:50:45Z</time>
      </trkpt>
      <trkpt lat="43.65957" lon="1.40537">
        <ele>124</ele>
        <time>2024-04-09T16:50:46Z</time>
      </trkpt>
      <trkpt lat="43.65955" lon="1.40538">
        <ele>124</ele>
        <time>2024-04-09T16:50:47Z</time>
      </trkpt>
      <trkpt lat="43.65952" lon="1.40539">
        <ele>124</ele>
        <time>2024-04-09T16:50:48Z</time>
      </trkpt>
      <trkpt lat="43.65949" lon="1.4054">
        <ele>124</ele>
        <time>2024-04-09T16:50:49Z</time>
      </trkpt>
      <trkpt lat="43.65948" lon="1.4054">
        <ele>124</ele>
        <time>2024-04-09T16:50:50Z</time>
      </trkpt>
      <trkpt lat="43.65944" lon="1.40541">
        <ele>124</ele>
        <time>2024-04-09T16:50:51Z</time>
      </trkpt>
      <trkpt lat="43.65943" lon="1.40541">
        <ele>124</ele>
        <time>2024-04-09T16:50:52Z</time>
      </trkpt>
      <trkpt lat="43.6594" lon="1.40542">
        <ele>124</ele>
        <time>2024-04-09T16:50:53Z</time>
      </trkpt>
      <trkpt lat="43.65939" lon="1.40542">
        <ele>124</ele>
        <time>2024-04-09T16:50:54Z</time>
      </trkpt>
      <trkpt lat="43.65937" lon="1.40543">
        <ele>124</ele>
        <time>2024-04-09T16:50:55Z</time>
      </trkpt>
      <trkpt lat="43.65932" lon="1.40545">
        <ele>124</ele>
        <time>2024-04-09T16:50:56Z</time>
      </trkpt>
      <trkpt lat="43.65932" lon="1.40545">
        <ele>124</ele>
        <time>2024-04-09T16:50:57Z</time>
      </trkpt>
      <trkpt lat="43.6593" lon="1.40545">
        <ele>124</ele>
        <time>2024-04-09T16:50:58Z</time>
      </trkpt>
      <trkpt lat="43.65927" lon="1.40546">
        <ele>125</ele>
        <time>2024-04-09T16:50:59Z</time>
      </trkpt>
      <trkpt lat="43.65925" lon="1.40547">
        <ele>125</ele>
        <time>2024-04-09T16:51:00Z</time>
      </trkpt>
      <trkpt lat="43.65922" lon="1.40547">
        <ele>125</ele>
        <time>2024-04-09T16:51:01Z</time>
      </trkpt>
      <trkpt lat="43.6592" lon="1.40548">
        <ele>125</ele>
        <time>2024-04-09T16:51:02Z</time>
      </trkpt>
      <trkpt lat="43.65918" lon="1.40548">
        <ele>124</ele>
        <time>2024-04-09T16:51:03Z</time>
      </trkpt>
      <trkpt lat="43.65916" lon="1.40549">
        <ele>124</ele>
        <time>2024-04-09T16:51:04Z</time>
      </trkpt>
      <trkpt lat="43.65914" lon="1.4055">
        <ele>123</ele>
        <time>2024-04-09T16:51:05Z</time>
      </trkpt>
      <trkpt lat="43.65911" lon="1.4055">
        <ele>123</ele>
        <time>2024-04-09T16:51:06Z</time>
      </trkpt>
      <trkpt lat="43.65907" lon="1.4055">
        <ele>124</ele>
        <time>2024-04-09T16:51:07Z</time>
      </trkpt>
      <trkpt lat="43.65903" lon="1.40551">
        <ele>124</ele>
        <time>2024-04-09T16:51:08Z</time>
      </trkpt>
      <trkpt lat="43.65901" lon="1.40551">
        <ele>124</ele>
        <time>2024-04-09T16:51:09Z</time>
      </trkpt>
      <trkpt lat="43.65899" lon="1.40551">
        <ele>124</ele>
        <time>2024-04-09T16:51:10Z</time>
      </trkpt>
      <trkpt lat="43.65896" lon="1.40552">
        <ele>124</ele>
        <time>2024-04-09T16:51:11Z</time>
      </trkpt>
      <trkpt lat="43.65895" lon="1.40552">
        <ele>124</ele>
        <time>2024-04-09T16:51:12Z</time>
      </trkpt>
      <trkpt lat="43.65891" lon="1.40552">
        <ele>124</ele>
        <time>2024-04-09T16:51:13Z</time>
      </trkpt>
      <trkpt lat="43.6589" lon="1.40552">
        <ele>124</ele>
        <time>2024-04-09T16:51:14Z</time>
      </trkpt>
      <trkpt lat="43.65885" lon="1.40553">
        <ele>124</ele>
        <time>2024-04-09T16:51:15Z</time>
      </trkpt>
      <trkpt lat="43.65885" lon="1.40553">
        <ele>124</ele>
        <time>2024-04-09T16:51:16Z</time>
      </trkpt>
      <trkpt lat="43.65882" lon="1.40553">
        <ele>124</ele>
        <time>2024-04-09T16:51:17Z</time>
      </trkpt>
      <trkpt lat="43.65881" lon="1.40554">
        <ele>124</ele>
        <time>2024-04-09T16:51:18Z</time>
      </trkpt>
      <trkpt lat="43.65879" lon="1.40554">
        <ele>124</ele>
        <time>2024-04-09T16:51:19Z</time>
      </trkpt>
      <trkpt lat="43.65877" lon="1.40555">
        <ele>124</ele>
        <time>2024-04-09T16:51:20Z</time>
      </trkpt>
      <trkpt lat="43.65875" lon="1.40555">
        <ele>124</ele>
        <time>2024-04-09T16:51:21Z</time>
      </trkpt>
      <trkpt lat="43.65873" lon="1.40556">
        <ele>124</ele>
        <time>2024-04-09T16:51:22Z</time>
      </trkpt>
      <trkpt lat="43.6587" lon="1.40556">
        <ele>124</ele>
        <time>2024-04-09T16:51:23Z</time>
      </trkpt>
      <trkpt lat="43.65868" lon="1.40556">
        <ele>124</ele>
        <time>2024-04-09T16:51:24Z</time>
      </trkpt>
      <trkpt lat="43.65866" lon="1.40556">
        <ele>124</ele>
        <time>2024-04-09T16:51:25Z</time>
      </trkpt>
      <trkpt lat="43.65864" lon="1.40556">
        <ele>124</ele>
        <time>2024-04-09T16:51:26Z</time>
      </trkpt>
      <trkpt lat="43.6586" lon="1.40556">
        <ele>124</ele>
        <time>2024-04-09T16:51:27Z</time>
      </trkpt>
      <trkpt lat="43.65859" lon="1.40556">
        <ele>124</ele>
        <time>2024-04-09T16:51:28Z</time>
      </trkpt>
      <trkpt lat="43.65856" lon="1.40557">
        <ele>124</ele>
        <time>2024-04-09T16:51:29Z</time>
      </trkpt>
      <trkpt lat="43.65855" lon="1.40557">
        <ele>124</ele>
        <time>2024-04-09T16:51:30Z</time>
      </trkpt>
      <trkpt lat="43.65853" lon="1.40558">
        <ele>124</ele>
        <time>2024-04-09T16:51:31Z</time>
      </trkpt>
      <trkpt lat="43.65853" lon="1.40558">
        <ele>124</ele>
        <time>2024-04-09T16:51:32Z</time>
      </trkpt>
      <trkpt lat="43.65851" lon="1.40561">
        <ele>124</ele>
        <time>2024-04-09T16:51:33Z</time>
      </trkpt>
      <trkpt lat="43.6585" lon="1.40564">
        <ele>124</ele>
        <time>2024-04-09T16:51:34Z</time>
      </trkpt>
      <trkpt lat="43.6585" lon="1.40566">
        <ele>124</ele>
        <time>2024-04-09T16:51:35Z</time>
      </trkpt>
      <trkpt lat="43.6585" lon="1.40569">
        <ele>124</ele>
        <time>2024-04-09T16:51:36Z</time>
      </trkpt>
      <trkpt lat="43.6585" lon="1.40571">
        <ele>124</ele>
        <time>2024-04-09T16:51:37Z</time>
      </trkpt>
      <trkpt lat="43.65848" lon="1.40574">
        <ele>124</ele>
        <time>2024-04-09T16:51:38Z</time>
      </trkpt>
      <trkpt lat="43.65846" lon="1.40575">
        <ele>124</ele>
        <time>2024-04-09T16:51:39Z</time>
      </trkpt>
      <trkpt lat="43.65844" lon="1.40576">
        <ele>124</ele>
        <time>2024-04-09T16:51:40Z</time>
      </trkpt>
      <trkpt lat="43.65842" lon="1.40575">
        <ele>124</ele>
        <time>2024-04-09T16:51:41Z</time>
      </trkpt>
      <trkpt lat="43.6584" lon="1.40574">
        <ele>124</ele>
        <time>2024-04-09T16:51:42Z</time>
      </trkpt>
      <trkpt lat="43.65836" lon="1.40573">
        <ele>124</ele>
        <time>2024-04-09T16:51:43Z</time>
      </trkpt>
      <trkpt lat="43.65833" lon="1.40572">
        <ele>125</ele>
        <time>2024-04-09T16:51:44Z</time>
      </trkpt>
      <trkpt lat="43.65833" lon="1.40572">
        <ele>125</ele>
        <time>2024-04-09T16:51:45Z</time>
      </trkpt>
      <trkpt lat="43.65831" lon="1.40571">
        <ele>125</ele>
        <time>2024-04-09T16:51:46Z</time>
      </trkpt>
      <trkpt lat="43.65829" lon="1.4057">
        <ele>125</ele>
        <time>2024-04-09T16:51:47Z</time>
      </trkpt>
      <trkpt lat="43.65827" lon="1.4057">
        <ele>125</ele>
        <time>2024-04-09T16:51:48Z</time>
      </trkpt>
      <trkpt lat="43.65825" lon="1.40569">
        <ele>125</ele>
        <time>2024-04-09T16:51:49Z</time>
      </trkpt>
      <trkpt lat="43.65824" lon="1.40568">
        <ele>126</ele>
        <time>2024-04-09T16:51:50Z</time>
      </trkpt>
      <trkpt lat="43.65821" lon="1.40568">
        <ele>126</ele>
        <time>2024-04-09T16:51:51Z</time>
      </trkpt>
      <trkpt lat="43.65819" lon="1.40566">
        <ele>126</ele>
        <time>2024-04-09T16:51:52Z</time>
      </trkpt>
      <trkpt lat="43.65815" lon="1.40563">
        <ele>126</ele>
        <time>2024-04-09T16:51:53Z</time>
      </trkpt>
      <trkpt lat="43.65815" lon="1.40563">
        <ele>126</ele>
        <time>2024-04-09T16:51:54Z</time>
      </trkpt>
      <trkpt lat="43.65812" lon="1.40562">
        <ele>126</ele>
        <time>2024-04-09T16:51:55Z</time>
      </trkpt>
      <trkpt lat="43.65811" lon="1.40562">
        <ele>126</ele>
        <time>2024-04-09T16:51:56Z</time>
      </trkpt>
      <trkpt lat="43.65811" lon="1.40562">
        <ele>126</ele>
        <time>2024-04-09T16:51:57Z</time>
      </trkpt>
      <trkpt lat="43.65807" lon="1.40561">
        <ele>126</ele>
        <time>2024-04-09T16:51:58Z</time>
      </trkpt>
      <trkpt lat="43.65805" lon="1.40561">
        <ele>126</ele>
        <time>2024-04-09T16:51:59Z</time>
      </trkpt>
      <trkpt lat="43.65803" lon="1.40561">
        <ele>126</ele>
        <time>2024-04-09T16:52:00Z</time>
      </trkpt>
      <trkpt lat="43.65801" lon="1.4056">
        <ele>126</ele>
        <time>2024-04-09T16:52:01Z</time>
      </trkpt>
      <trkpt lat="43.65799" lon="1.4056">
        <ele>126</ele>
        <time>2024-04-09T16:52:02Z</time>
      </trkpt>
      <trkpt lat="43.65798" lon="1.40561">
        <ele>126</ele>
        <time>2024-04-09T16:52:03Z</time>
      </trkpt>
      <trkpt lat="43.65796" lon="1.40562">
        <ele>126</ele>
        <time>2024-04-09T16:52:04Z</time>
      </trkpt>
      <trkpt lat="43.65793" lon="1.40563">
        <ele>126</ele>
        <time>2024-04-09T16:52:05Z</time>
      </trkpt>
      <trkpt lat="43.65792" lon="1.40563">
        <ele>127</ele>
        <time>2024-04-09T16:52:06Z</time>
      </trkpt>
      <trkpt lat="43.6579" lon="1.40563">
        <ele>127</ele>
        <time>2024-04-09T16:52:07Z</time>
      </trkpt>
      <trkpt lat="43.65788" lon="1.40564">
        <ele>127</ele>
        <time>2024-04-09T16:52:08Z</time>
      </trkpt>
      <trkpt lat="43.65784" lon="1.40566">
        <ele>127</ele>
        <time>2024-04-09T16:52:09Z</time>
      </trkpt>
      <trkpt lat="43.65783" lon="1.40567">
        <ele>127</ele>
        <time>2024-04-09T16:52:10Z</time>
      </trkpt>
      <trkpt lat="43.65781" lon="1.40567">
        <ele>127</ele>
        <time>2024-04-09T16:52:11Z</time>
      </trkpt>
      <trkpt lat="43.65779" lon="1.40567">
        <ele>126</ele>
        <time>2024-04-09T16:52:12Z</time>
      </trkpt>
      <trkpt lat="43.65776" lon="1.40567">
        <ele>126</ele>
        <time>2024-04-09T16:52:13Z</time>
      </trkpt>
      <trkpt lat="43.65774" lon="1.40566">
        <ele>126</ele>
        <time>2024-04-09T16:52:14Z</time>
      </trkpt>
      <trkpt lat="43.65772" lon="1.40566">
        <ele>126</ele>
        <time>2024-04-09T16:52:15Z</time>
      </trkpt>
      <trkpt lat="43.6577" lon="1.40567">
        <ele>125</ele>
        <time>2024-04-09T16:52:16Z</time>
      </trkpt>
      <trkpt lat="43.65768" lon="1.40571">
        <ele>126</ele>
        <time>2024-04-09T16:52:17Z</time>
      </trkpt>
      <trkpt lat="43.65767" lon="1.40572">
        <ele>126</ele>
        <time>2024-04-09T16:52:18Z</time>
      </trkpt>
      <trkpt lat="43.65764" lon="1.40574">
        <ele>126</ele>
        <time>2024-04-09T16:52:19Z</time>
      </trkpt>
      <trkpt lat="43.65762" lon="1.40574">
        <ele>126</ele>
        <time>2024-04-09T16:52:20Z</time>
      </trkpt>
      <trkpt lat="43.65759" lon="1.40574">
        <ele>126</ele>
        <time>2024-04-09T16:52:21Z</time>
      </trkpt>
      <trkpt lat="43.65755" lon="1.40575">
        <ele>126</ele>
        <time>2024-04-09T16:52:22Z</time>
      </trkpt>
      <trkpt lat="43.65754" lon="1.40576">
        <ele>125</ele>
        <time>2024-04-09T16:52:23Z</time>
      </trkpt>
      <trkpt lat="43.65752" lon="1.40577">
        <ele>126</ele>
        <time>2024-04-09T16:52:24Z</time>
      </trkpt>
      <trkpt lat="43.65751" lon="1.4058">
        <ele>126</ele>
        <time>2024-04-09T16:52:25Z</time>
      </trkpt>
      <trkpt lat="43.6575" lon="1.40583">
        <ele>126</ele>
        <time>2024-04-09T16:52:26Z</time>
      </trkpt>
      <trkpt lat="43.65746" lon="1.40585">
        <ele>126</ele>
        <time>2024-04-09T16:52:27Z</time>
      </trkpt>
      <trkpt lat="43.65745" lon="1.40586">
        <ele>125</ele>
        <time>2024-04-09T16:52:28Z</time>
      </trkpt>
      <trkpt lat="43.65741" lon="1.40585">
        <ele>125</ele>
        <time>2024-04-09T16:52:29Z</time>
      </trkpt>
      <trkpt lat="43.6574" lon="1.40585">
        <ele>125</ele>
        <time>2024-04-09T16:52:30Z</time>
      </trkpt>
      <trkpt lat="43.65735" lon="1.40585">
        <ele>124</ele>
        <time>2024-04-09T16:52:31Z</time>
      </trkpt>
      <trkpt lat="43.65735" lon="1.40585">
        <ele>124</ele>
        <time>2024-04-09T16:52:32Z</time>
      </trkpt>
      <trkpt lat="43.65733" lon="1.40585">
        <ele>124</ele>
        <time>2024-04-09T16:52:33Z</time>
      </trkpt>
      <trkpt lat="43.65731" lon="1.40585">
        <ele>124</ele>
        <time>2024-04-09T16:52:34Z</time>
      </trkpt>
      <trkpt lat="43.65731" lon="1.40585">
        <ele>124</ele>
        <time>2024-04-09T16:52:35Z</time>
      </trkpt>
      <trkpt lat="43.65727" lon="1.40586">
        <ele>123</ele>
        <time>2024-04-09T16:52:36Z</time>
      </trkpt>
      <trkpt lat="43.65727" lon="1.40586">
        <ele>124</ele>
        <time>2024-04-09T16:52:37Z</time>
      </trkpt>
      <trkpt lat="43.65724" lon="1.40587">
        <ele>124</ele>
        <time>2024-04-09T16:52:38Z</time>
      </trkpt>
      <trkpt lat="43.65722" lon="1.40587">
        <ele>124</ele>
        <time>2024-04-09T16:52:39Z</time>
      </trkpt>
      <trkpt lat="43.65722" lon="1.40587">
        <ele>124</ele>
        <time>2024-04-09T16:52:40Z</time>
      </trkpt>
      <trkpt lat="43.65719" lon="1.40589">
        <ele>124</ele>
        <time>2024-04-09T16:52:41Z</time>
      </trkpt>
      <trkpt lat="43.65719" lon="1.40589">
        <ele>124</ele>
        <time>2024-04-09T16:52:42Z</time>
      </trkpt>
      <trkpt lat="43.65715" lon="1.4059">
        <ele>123</ele>
        <time>2024-04-09T16:52:43Z</time>
      </trkpt>
      <trkpt lat="43.65711" lon="1.4059">
        <ele>123</ele>
        <time>2024-04-09T16:52:44Z</time>
      </trkpt>
      <trkpt lat="43.65708" lon="1.40592">
        <ele>123</ele>
        <time>2024-04-09T16:52:45Z</time>
      </trkpt>
      <trkpt lat="43.65706" lon="1.40593">
        <ele>122</ele>
        <time>2024-04-09T16:52:46Z</time>
      </trkpt>
      <trkpt lat="43.65703" lon="1.40594">
        <ele>122</ele>
        <time>2024-04-09T16:52:47Z</time>
      </trkpt>
      <trkpt lat="43.657" lon="1.40595">
        <ele>122</ele>
        <time>2024-04-09T16:52:48Z</time>
      </trkpt>
      <trkpt lat="43.65698" lon="1.40595">
        <ele>122</ele>
        <time>2024-04-09T16:52:49Z</time>
      </trkpt>
      <trkpt lat="43.65695" lon="1.40595">
        <ele>122</ele>
        <time>2024-04-09T16:52:50Z</time>
      </trkpt>
      <trkpt lat="43.65695" lon="1.40595">
        <ele>121</ele>
        <time>2024-04-09T16:52:51Z</time>
      </trkpt>
      <trkpt lat="43.65692" lon="1.40595">
        <ele>121</ele>
        <time>2024-04-09T16:52:52Z</time>
      </trkpt>
      <trkpt lat="43.65692" lon="1.40595">
        <ele>121</ele>
        <time>2024-04-09T16:52:53Z</time>
      </trkpt>
      <trkpt lat="43.65689" lon="1.40593">
        <ele>121</ele>
        <time>2024-04-09T16:52:54Z</time>
      </trkpt>
      <trkpt lat="43.65687" lon="1.40591">
        <ele>122</ele>
        <time>2024-04-09T16:52:55Z</time>
      </trkpt>
      <trkpt lat="43.65687" lon="1.40591">
        <ele>122</ele>
        <time>2024-04-09T16:52:56Z</time>
      </trkpt>
      <trkpt lat="43.65684" lon="1.40588">
        <ele>122</ele>
        <time>2024-04-09T16:52:57Z</time>
      </trkpt>
      <trkpt lat="43.65684" lon="1.40588">
        <ele>123</ele>
        <time>2024-04-09T16:52:58Z</time>
      </trkpt>
      <trkpt lat="43.65682" lon="1.40587">
        <ele>123</ele>
        <time>2024-04-09T16:52:59Z</time>
      </trkpt>
      <trkpt lat="43.6568" lon="1.40588">
        <ele>123</ele>
        <time>2024-04-09T16:53:00Z</time>
      </trkpt>
      <trkpt lat="43.6568" lon="1.40588">
        <ele>123</ele>
        <time>2024-04-09T16:53:01Z</time>
      </trkpt>
      <trkpt lat="43.65677" lon="1.4059">
        <ele>123</ele>
        <time>2024-04-09T16:53:02Z</time>
      </trkpt>
      <trkpt lat="43.65675" lon="1.40591">
        <ele>124</ele>
        <time>2024-04-09T16:53:03Z</time>
      </trkpt>
      <trkpt lat="43.65673" lon="1.40593">
        <ele>124</ele>
        <time>2024-04-09T16:53:04Z</time>
      </trkpt>
      <trkpt lat="43.65671" lon="1.40594">
        <ele>124</ele>
        <time>2024-04-09T16:53:05Z</time>
      </trkpt>
      <trkpt lat="43.65669" lon="1.40595">
        <ele>123</ele>
        <time>2024-04-09T16:53:06Z</time>
      </trkpt>
      <trkpt lat="43.65667" lon="1.40596">
        <ele>123</ele>
        <time>2024-04-09T16:53:07Z</time>
      </trkpt>
      <trkpt lat="43.65665" lon="1.40596">
        <ele>123</ele>
        <time>2024-04-09T16:53:08Z</time>
      </trkpt>
      <trkpt lat="43.65662" lon="1.40596">
        <ele>123</ele>
        <time>2024-04-09T16:53:09Z</time>
      </trkpt>
      <trkpt lat="43.65662" lon="1.40596">
        <ele>123</ele>
        <time>2024-04-09T16:53:10Z</time>
      </trkpt>
      <trkpt lat="43.6566" lon="1.40595">
        <ele>123</ele>
        <time>2024-04-09T16:53:11Z</time>
      </trkpt>
      <trkpt lat="43.65658" lon="1.40595">
        <ele>123</ele>
        <time>2024-04-09T16:53:12Z</time>
      </trkpt>
      <trkpt lat="43.65656" lon="1.40595">
        <ele>123</ele>
        <time>2024-04-09T16:53:13Z</time>
      </trkpt>
      <trkpt lat="43.65656" lon="1.40595">
        <ele>123</ele>
        <time>2024-04-09T16:53:14Z</time>
      </trkpt>
      <trkpt lat="43.65652" lon="1.40595">
        <ele>123</ele>
        <time>2024-04-09T16:53:15Z</time>
      </trkpt>
      <trkpt lat="43.65651" lon="1.40595">
        <ele>123</ele>
        <time>2024-04-09T16:53:16Z</time>
      </trkpt>
      <trkpt lat="43.65649" lon="1.40595">
        <ele>123</ele>
        <time>2024-04-09T16:53:17Z</time>
      </trkpt>
      <trkpt lat="43.65647" lon="1.40596">
        <ele>123</ele>
        <time>2024-04-09T16:53:18Z</time>
      </trkpt>
      <trkpt lat="43.65645" lon="1.40596">
        <ele>123</ele>
        <time>2024-04-09T16:53:19Z</time>
      </trkpt>
      <trkpt lat="43.65643" lon="1.40596">
        <ele>123</ele>
        <time>2024-04-09T16:53:20Z</time>
      </trkpt>
      <trkpt lat="43.65641" lon="1.40597">
        <ele>122</ele>
        <time>2024-04-09T16:53:21Z</time>
      </trkpt>
      <trkpt lat="43.65639" lon="1.40597">
        <ele>122</ele>
        <time>2024-04-09T16:53:22Z</time>
      </trkpt>
      <trkpt lat="43.65637" lon="1.40597">
        <ele>123</ele>
        <time>2024-04-09T16:53:23Z</time>
      </trkpt>
      <trkpt lat="43.65633" lon="1.40598">
        <ele>123</ele>
        <time>2024-04-09T16:53:24Z</time>
      </trkpt>
      <trkpt lat="43.65632" lon="1.40598">
        <ele>123</ele>
        <time>2024-04-09T16:53:25Z</time>
      </trkpt>
      <trkpt lat="43.65628" lon="1.40598">
        <ele>123</ele>
        <time>2024-04-09T16:53:26Z</time>
      </trkpt>
      <trkpt lat="43.65627" lon="1.40598">
        <ele>123</ele>
        <time>2024-04-09T16:53:27Z</time>
      </trkpt>
      <trkpt lat="43.65625" lon="1.40597">
        <ele>122</ele>
        <time>2024-04-09T16:53:28Z</time>
      </trkpt>
      <trkpt lat="43.65623" lon="1.40597">
        <ele>123</ele>
        <time>2024-04-09T16:53:29Z</time>
      </trkpt>
      <trkpt lat="43.65621" lon="1.40598">
        <ele>123</ele>
        <time>2024-04-09T16:53:30Z</time>
      </trkpt>
      <trkpt lat="43.65619" lon="1.40598">
        <ele>123</ele>
        <time>2024-04-09T16:53:31Z</time>
      </trkpt>
      <trkpt lat="43.65617" lon="1.40598">
        <ele>123</ele>
        <time>2024-04-09T16:53:32Z</time>
      </trkpt>
      <trkpt lat="43.65615" lon="1.40597">
        <ele>123</ele>
        <time>2024-04-09T16:53:33Z</time>
      </trkpt>
      <trkpt lat="43.6561" lon="1.40596">
        <ele>123</ele>
        <time>2024-04-09T16:53:34Z</time>
      </trkpt>
      <trkpt lat="43.6561" lon="1.40596">
        <ele>123</ele>
        <time>2024-04-09T16:53:35Z</time>
      </trkpt>
      <trkpt lat="43.6561" lon="1.40596">
        <ele>123</ele>
        <time>2024-04-09T16:53:36Z</time>
      </trkpt>
      <trkpt lat="43.65607" lon="1.40595">
        <ele>123</ele>
        <time>2024-04-09T16:53:37Z</time>
      </trkpt>
      <trkpt lat="43.65607" lon="1.40595">
        <ele>123</ele>
        <time>2024-04-09T16:53:38Z</time>
      </trkpt>
      <trkpt lat="43.65603" lon="1.40595">
        <ele>123</ele>
        <time>2024-04-09T16:53:39Z</time>
      </trkpt>
      <trkpt lat="43.656" lon="1.40594">
        <ele>123</ele>
        <time>2024-04-09T16:53:40Z</time>
      </trkpt>
      <trkpt lat="43.65598" lon="1.40594">
        <ele>123</ele>
        <time>2024-04-09T16:53:41Z</time>
      </trkpt>
      <trkpt lat="43.65596" lon="1.40593">
        <ele>123</ele>
        <time>2024-04-09T16:53:42Z</time>
      </trkpt>
      <trkpt lat="43.65594" lon="1.40593">
        <ele>123</ele>
        <time>2024-04-09T16:53:43Z</time>
      </trkpt>
      <trkpt lat="43.6559" lon="1.40592">
        <ele>123</ele>
        <time>2024-04-09T16:53:44Z</time>
      </trkpt>
      <trkpt lat="43.65589" lon="1.40592">
        <ele>123</ele>
        <time>2024-04-09T16:53:45Z</time>
      </trkpt>
      <trkpt lat="43.65587" lon="1.40592">
        <ele>123</ele>
        <time>2024-04-09T16:53:46Z</time>
      </trkpt>
      <trkpt lat="43.65585" lon="1.40591">
        <ele>123</ele>
        <time>2024-04-09T16:53:47Z</time>
      </trkpt>
      <trkpt lat="43.65583" lon="1.4059">
        <ele>123</ele>
        <time>2024-04-09T16:53:48Z</time>
      </trkpt>
      <trkpt lat="43.6558" lon="1.4059">
        <ele>123</ele>
        <time>2024-04-09T16:53:49Z</time>
      </trkpt>
      <trkpt lat="43.65578" lon="1.40591">
        <ele>123</ele>
        <time>2024-04-09T16:53:50Z</time>
      </trkpt>
      <trkpt lat="43.65574" lon="1.40591">
        <ele>123</ele>
        <time>2024-04-09T16:53:51Z</time>
      </trkpt>
      <trkpt lat="43.65573" lon="1.40591">
        <ele>123</ele>
        <time>2024-04-09T16:53:52Z</time>
      </trkpt>
      <trkpt lat="43.65569" lon="1.40591">
        <ele>123</ele>
        <time>2024-04-09T16:53:53Z</time>
      </trkpt>
      <trkpt lat="43.65568" lon="1.40592">
        <ele>123</ele>
        <time>2024-04-09T16:53:54Z</time>
      </trkpt>
      <trkpt lat="43.65566" lon="1.40593">
        <ele>123</ele>
        <time>2024-04-09T16:53:55Z</time>
      </trkpt>
      <trkpt lat="43.65566" lon="1.40593">
        <ele>123</ele>
        <time>2024-04-09T16:53:56Z</time>
      </trkpt>
      <trkpt lat="43.65562" lon="1.40593">
        <ele>123</ele>
        <time>2024-04-09T16:53:57Z</time>
      </trkpt>
      <trkpt lat="43.6556" lon="1.40592">
        <ele>123</ele>
        <time>2024-04-09T16:53:58Z</time>
      </trkpt>
      <trkpt lat="43.65558" lon="1.40592">
        <ele>123</ele>
        <time>2024-04-09T16:53:59Z</time>
      </trkpt>
      <trkpt lat="43.65555" lon="1.40591">
        <ele>123</ele>
        <time>2024-04-09T16:54:00Z</time>
      </trkpt>
      <trkpt lat="43.65552" lon="1.40591">
        <ele>123</ele>
        <time>2024-04-09T16:54:01Z</time>
      </trkpt>
      <trkpt lat="43.65548" lon="1.4059">
        <ele>123</ele>
        <time>2024-04-09T16:54:02Z</time>
      </trkpt>
      <trkpt lat="43.65547" lon="1.40589">
        <ele>123</ele>
        <time>2024-04-09T16:54:03Z</time>
      </trkpt>
      <trkpt lat="43.65545" lon="1.40589">
        <ele>123</ele>
        <time>2024-04-09T16:54:04Z</time>
      </trkpt>
      <trkpt lat="43.65542" lon="1.40588">
        <ele>123</ele>
        <time>2024-04-09T16:54:05Z</time>
      </trkpt>
      <trkpt lat="43.65538" lon="1.40586">
        <ele>123</ele>
        <time>2024-04-09T16:54:06Z</time>
      </trkpt>
      <trkpt lat="43.65538" lon="1.40586">
        <ele>123</ele>
        <time>2024-04-09T16:54:07Z</time>
      </trkpt>
      <trkpt lat="43.65536" lon="1.40585">
        <ele>123</ele>
        <time>2024-04-09T16:54:08Z</time>
      </trkpt>
      <trkpt lat="43.65534" lon="1.40584">
        <ele>123</ele>
        <time>2024-04-09T16:54:09Z</time>
      </trkpt>
      <trkpt lat="43.65532" lon="1.40582">
        <ele>123</ele>
        <time>2024-04-09T16:54:10Z</time>
      </trkpt>
      <trkpt lat="43.6553" lon="1.40579">
        <ele>123</ele>
        <time>2024-04-09T16:54:11Z</time>
      </trkpt>
      <trkpt lat="43.65528" lon="1.40578">
        <ele>123</ele>
        <time>2024-04-09T16:54:12Z</time>
      </trkpt>
      <trkpt lat="43.65526" lon="1.40577">
        <ele>123</ele>
        <time>2024-04-09T16:54:13Z</time>
      </trkpt>
      <trkpt lat="43.65524" lon="1.40576">
        <ele>123</ele>
        <time>2024-04-09T16:54:14Z</time>
      </trkpt>
      <trkpt lat="43.65521" lon="1.40575">
        <ele>123</ele>
        <time>2024-04-09T16:54:15Z</time>
      </trkpt>
      <trkpt lat="43.6552" lon="1.40574">
        <ele>123</ele>
        <time>2024-04-09T16:54:16Z</time>
      </trkpt>
      <trkpt lat="43.65517" lon="1.40573">
        <ele>123</ele>
        <time>2024-04-09T16:54:17Z</time>
      </trkpt>
      <trkpt lat="43.65515" lon="1.40571">
        <ele>123</ele>
        <time>2024-04-09T16:54:18Z</time>
      </trkpt>
      <trkpt lat="43.65513" lon="1.40569">
        <ele>123</ele>
        <time>2024-04-09T16:54:19Z</time>
      </trkpt>
      <trkpt lat="43.65513" lon="1.40569">
        <ele>123</ele>
        <time>2024-04-09T16:54:20Z</time>
      </trkpt>
      <trkpt lat="43.65511" lon="1.40566">
        <ele>123</ele>
        <time>2024-04-09T16:54:21Z</time>
      </trkpt>
      <trkpt lat="43.65508" lon="1.40565">
        <ele>123</ele>
        <time>2024-04-09T16:54:22Z</time>
      </trkpt>
      <trkpt lat="43.65507" lon="1.40565">
        <ele>123</ele>
        <time>2024-04-09T16:54:23Z</time>
      </trkpt>
      <trkpt lat="43.65505" lon="1.40564">
        <ele>123</ele>
        <time>2024-04-09T16:54:24Z</time>
      </trkpt>
      <trkpt lat="43.65503" lon="1.40564">
        <ele>123</ele>
        <time>2024-04-09T16:54:25Z</time>
      </trkpt>
      <trkpt lat="43.65501" lon="1.40562">
        <ele>123</ele>
        <time>2024-04-09T16:54:26Z</time>
      </trkpt>
      <trkpt lat="43.65499" lon="1.40561">
        <ele>123</ele>
        <time>2024-04-09T16:54:27Z</time>
      </trkpt>
      <trkpt lat="43.65497" lon="1.4056">
        <ele>123</ele>
        <time>2024-04-09T16:54:28Z</time>
      </trkpt>
      <trkpt lat="43.65495" lon="1.40559">
        <ele>122</ele>
        <time>2024-04-09T16:54:29Z</time>
      </trkpt>
      <trkpt lat="43.65495" lon="1.40559">
        <ele>122</ele>
        <time>2024-04-09T16:54:30Z</time>
      </trkpt>
      <trkpt lat="43.65492" lon="1.40557">
        <ele>122</ele>
        <time>2024-04-09T16:54:31Z</time>
      </trkpt>
      <trkpt lat="43.6549" lon="1.40556">
        <ele>123</ele>
        <time>2024-04-09T16:54:32Z</time>
      </trkpt>
      <trkpt lat="43.65488" lon="1.40555">
        <ele>123</ele>
        <time>2024-04-09T16:54:33Z</time>
      </trkpt>
      <trkpt lat="43.65486" lon="1.40554">
        <ele>123</ele>
        <time>2024-04-09T16:54:34Z</time>
      </trkpt>
      <trkpt lat="43.65483" lon="1.40553">
        <ele>123</ele>
        <time>2024-04-09T16:54:35Z</time>
      </trkpt>
      <trkpt lat="43.65481" lon="1.40553">
        <ele>123</ele>
        <time>2024-04-09T16:54:36Z</time>
      </trkpt>
      <trkpt lat="43.65478" lon="1.40551">
        <ele>123</ele>
        <time>2024-04-09T16:54:37Z</time>
      </trkpt>
      <trkpt lat="43.65477" lon="1.40551">
        <ele>123</ele>
        <time>2024-04-09T16:54:38Z</time>
      </trkpt>
      <trkpt lat="43.65475" lon="1.4055">
        <ele>123</ele>
        <time>2024-04-09T16:54:39Z</time>
      </trkpt>
      <trkpt lat="43.65475" lon="1.4055">
        <ele>123</ele>
        <time>2024-04-09T16:54:40Z</time>
      </trkpt>
      <trkpt lat="43.65471" lon="1.40549">
        <ele>123</ele>
        <time>2024-04-09T16:54:41Z</time>
      </trkpt>
      <trkpt lat="43.65468" lon="1.40549">
        <ele>123</ele>
        <time>2024-04-09T16:54:42Z</time>
      </trkpt>
      <trkpt lat="43.65467" lon="1.40548">
        <ele>123</ele>
        <time>2024-04-09T16:54:43Z</time>
      </trkpt>
      <trkpt lat="43.65464" lon="1.40548">
        <ele>123</ele>
        <time>2024-04-09T16:54:44Z</time>
      </trkpt>
      <trkpt lat="43.65461" lon="1.40546">
        <ele>123</ele>
        <time>2024-04-09T16:54:45Z</time>
      </trkpt>
      <trkpt lat="43.6546" lon="1.40546">
        <ele>123</ele>
        <time>2024-04-09T16:54:46Z</time>
      </trkpt>
      <trkpt lat="43.65458" lon="1.40544">
        <ele>123</ele>
        <time>2024-04-09T16:54:47Z</time>
      </trkpt>
      <trkpt lat="43.65455" lon="1.40543">
        <ele>123</ele>
        <time>2024-04-09T16:54:48Z</time>
      </trkpt>
      <trkpt lat="43.65453" lon="1.40542">
        <ele>123</ele>
        <time>2024-04-09T16:54:49Z</time>
      </trkpt>
      <trkpt lat="43.65451" lon="1.40541">
        <ele>123</ele>
        <time>2024-04-09T16:54:50Z</time>
      </trkpt>
      <trkpt lat="43.65449" lon="1.4054">
        <ele>123</ele>
        <time>2024-04-09T16:54:51Z</time>
      </trkpt>
      <trkpt lat="43.65447" lon="1.40538">
        <ele>123</ele>
        <time>2024-04-09T16:54:52Z</time>
      </trkpt>
      <trkpt lat="43.65446" lon="1.40537">
        <ele>123</ele>
        <time>2024-04-09T16:54:53Z</time>
      </trkpt>
      <trkpt lat="43.65446" lon="1.40537">
        <ele>123</ele>
        <time>2024-04-09T16:54:54Z</time>
      </trkpt>
      <trkpt lat="43.65443" lon="1.40536">
        <ele>122</ele>
        <time>2024-04-09T16:54:55Z</time>
      </trkpt>
      <trkpt lat="43.65441" lon="1.40534">
        <ele>122</ele>
        <time>2024-04-09T16:54:56Z</time>
      </trkpt>
      <trkpt lat="43.65439" lon="1.40534">
        <ele>122</ele>
        <time>2024-04-09T16:54:57Z</time>
      </trkpt>
      <trkpt lat="43.65437" lon="1.40532">
        <ele>121</ele>
        <time>2024-04-09T16:54:58Z</time>
      </trkpt>
      <trkpt lat="43.65434" lon="1.4053">
        <ele>122</ele>
        <time>2024-04-09T16:54:59Z</time>
      </trkpt>
      <trkpt lat="43.65432" lon="1.40528">
        <ele>122</ele>
        <time>2024-04-09T16:55:00Z</time>
      </trkpt>
      <trkpt lat="43.6543" lon="1.40527">
        <ele>122</ele>
        <time>2024-04-09T16:55:01Z</time>
      </trkpt>
      <trkpt lat="43.65428" lon="1.40524">
        <ele>122</ele>
        <time>2024-04-09T16:55:02Z</time>
      </trkpt>
      <trkpt lat="43.65425" lon="1.4052">
        <ele>122</ele>
        <time>2024-04-09T16:55:03Z</time>
      </trkpt>
      <trkpt lat="43.65425" lon="1.4052">
        <ele>122</ele>
        <time>2024-04-09T16:55:04Z</time>
      </trkpt>
      <trkpt lat="43.65423" lon="1.40516">
        <ele>122</ele>
        <time>2024-04-09T16:55:05Z</time>
      </trkpt>
      <trkpt lat="43.65422" lon="1.40515">
        <ele>122</ele>
        <time>2024-04-09T16:55:06Z</time>
      </trkpt>
      <trkpt lat="43.6542" lon="1.40511">
        <ele>122</ele>
        <time>2024-04-09T16:55:07Z</time>
      </trkpt>
      <trkpt lat="43.65419" lon="1.4051">
        <ele>123</ele>
        <time>2024-04-09T16:55:08Z</time>
      </trkpt>
      <trkpt lat="43.65417" lon="1.40508">
        <ele>123</ele>
        <time>2024-04-09T16:55:09Z</time>
      </trkpt>
      <trkpt lat="43.65417" lon="1.40508">
        <ele>123</ele>
        <time>2024-04-09T16:55:10Z</time>
      </trkpt>
      <trkpt lat="43.65415" lon="1.40505">
        <ele>123</ele>
        <time>2024-04-09T16:55:11Z</time>
      </trkpt>
      <trkpt lat="43.65413" lon="1.40503">
        <ele>124</ele>
        <time>2024-04-09T16:55:12Z</time>
      </trkpt>
      <trkpt lat="43.65412" lon="1.405">
        <ele>124</ele>
        <time>2024-04-09T16:55:13Z</time>
      </trkpt>
      <trkpt lat="43.65409" lon="1.40498">
        <ele>124</ele>
        <time>2024-04-09T16:55:14Z</time>
      </trkpt>
      <trkpt lat="43.65407" lon="1.40496">
        <ele>124</ele>
        <time>2024-04-09T16:55:15Z</time>
      </trkpt>
      <trkpt lat="43.65406" lon="1.40495">
        <ele>124</ele>
        <time>2024-04-09T16:55:16Z</time>
      </trkpt>
      <trkpt lat="43.65403" lon="1.40493">
        <ele>124</ele>
        <time>2024-04-09T16:55:17Z</time>
      </trkpt>
      <trkpt lat="43.65401" lon="1.40492">
        <ele>124</ele>
        <time>2024-04-09T16:55:18Z</time>
      </trkpt>
      <trkpt lat="43.654" lon="1.40492">
        <ele>124</ele>
        <time>2024-04-09T16:55:19Z</time>
      </trkpt>
      <trkpt lat="43.65398" lon="1.40491">
        <ele>124</ele>
        <time>2024-04-09T16:55:20Z</time>
      </trkpt>
      <trkpt lat="43.65396" lon="1.40491">
        <ele>124</ele>
        <time>2024-04-09T16:55:21Z</time>
      </trkpt>
      <trkpt lat="43.65392" lon="1.4049">
        <ele>124</ele>
        <time>2024-04-09T16:55:22Z</time>
      </trkpt>
      <trkpt lat="43.65391" lon="1.4049">
        <ele>124</ele>
        <time>2024-04-09T16:55:23Z</time>
      </trkpt>
      <trkpt lat="43.65389" lon="1.40491">
        <ele>124</ele>
        <time>2024-04-09T16:55:24Z</time>
      </trkpt>
      <trkpt lat="43.65387" lon="1.40491">
        <ele>124</ele>
        <time>2024-04-09T16:55:25Z</time>
      </trkpt>
      <trkpt lat="43.65384" lon="1.40491">
        <ele>123</ele>
        <time>2024-04-09T16:55:26Z</time>
      </trkpt>
      <trkpt lat="43.65382" lon="1.4049">
        <ele>122</ele>
        <time>2024-04-09T16:55:27Z</time>
      </trkpt>
      <trkpt lat="43.65379" lon="1.40489">
        <ele>121</ele>
        <time>2024-04-09T16:55:28Z</time>
      </trkpt>
      <trkpt lat="43.65377" lon="1.40488">
        <ele>121</ele>
        <time>2024-04-09T16:55:29Z</time>
      </trkpt>
      <trkpt lat="43.65374" lon="1.40487">
        <ele>121</ele>
        <time>2024-04-09T16:55:30Z</time>
      </trkpt>
      <trkpt lat="43.65372" lon="1.40486">
        <ele>121</ele>
        <time>2024-04-09T16:55:31Z</time>
      </trkpt>
      <trkpt lat="43.6537" lon="1.40484">
        <ele>121</ele>
        <time>2024-04-09T16:55:32Z</time>
      </trkpt>
      <trkpt lat="43.65368" lon="1.40482">
        <ele>121</ele>
        <time>2024-04-09T16:55:33Z</time>
      </trkpt>
      <trkpt lat="43.65366" lon="1.40481">
        <ele>121</ele>
        <time>2024-04-09T16:55:34Z</time>
      </trkpt>
      <trkpt lat="43.65365" lon="1.4048">
        <ele>122</ele>
        <time>2024-04-09T16:55:35Z</time>
      </trkpt>
      <trkpt lat="43.65363" lon="1.40478">
        <ele>122</ele>
        <time>2024-04-09T16:55:36Z</time>
      </trkpt>
      <trkpt lat="43.65361" lon="1.40476">
        <ele>122</ele>
        <time>2024-04-09T16:55:37Z</time>
      </trkpt>
      <trkpt lat="43.65359" lon="1.40474">
        <ele>122</ele>
        <time>2024-04-09T16:55:38Z</time>
      </trkpt>
      <trkpt lat="43.65358" lon="1.40472">
        <ele>122</ele>
        <time>2024-04-09T16:55:39Z</time>
      </trkpt>
      <trkpt lat="43.65356" lon="1.4047">
        <ele>122</ele>
        <time>2024-04-09T16:55:40Z</time>
      </trkpt>
      <trkpt lat="43.65354" lon="1.40468">
        <ele>122</ele>
        <time>2024-04-09T16:55:41Z</time>
      </trkpt>
      <trkpt lat="43.65352" lon="1.40465">
        <ele>123</ele>
        <time>2024-04-09T16:55:42Z</time>
      </trkpt>
      <trkpt lat="43.6535" lon="1.40463">
        <ele>123</ele>
        <time>2024-04-09T16:55:43Z</time>
      </trkpt>
      <trkpt lat="43.65349" lon="1.40461">
        <ele>123</ele>
        <time>2024-04-09T16:55:44Z</time>
      </trkpt>
      <trkpt lat="43.65347" lon="1.40459">
        <ele>123</ele>
        <time>2024-04-09T16:55:45Z</time>
      </trkpt>
      <trkpt lat="43.65345" lon="1.40457">
        <ele>123</ele>
        <time>2024-04-09T16:55:46Z</time>
      </trkpt>
      <trkpt lat="43.65343" lon="1.40455">
        <ele>123</ele>
        <time>2024-04-09T16:55:47Z</time>
      </trkpt>
      <trkpt lat="43.65341" lon="1.40453">
        <ele>123</ele>
        <time>2024-04-09T16:55:48Z</time>
      </trkpt>
      <trkpt lat="43.65338" lon="1.40452">
        <ele>123</ele>
        <time>2024-04-09T16:55:49Z</time>
      </trkpt>
      <trkpt lat="43.65335" lon="1.40449">
        <ele>123</ele>
        <time>2024-04-09T16:55:50Z</time>
      </trkpt>
      <trkpt lat="43.65334" lon="1.40448">
        <ele>123</ele>
        <time>2024-04-09T16:55:51Z</time>
      </trkpt>
      <trkpt lat="43.65333" lon="1.40446">
        <ele>123</ele>
        <time>2024-04-09T16:55:52Z</time>
      </trkpt>
      <trkpt lat="43.65331" lon="1.40443">
        <ele>123</ele>
        <time>2024-04-09T16:55:53Z</time>
      </trkpt>
      <trkpt lat="43.65329" lon="1.40441">
        <ele>123</ele>
        <time>2024-04-09T16:55:54Z</time>
      </trkpt>
      <trkpt lat="43.65327" lon="1.40438">
        <ele>123</ele>
        <time>2024-04-09T16:55:55Z</time>
      </trkpt>
      <trkpt lat="43.65325" lon="1.40436">
        <ele>123</ele>
        <time>2024-04-09T16:55:56Z</time>
      </trkpt>
      <trkpt lat="43.65323" lon="1.40434">
        <ele>123</ele>
        <time>2024-04-09T16:55:57Z</time>
      </trkpt>
      <trkpt lat="43.65322" lon="1.40432">
        <ele>123</ele>
        <time>2024-04-09T16:55:58Z</time>
      </trkpt>
      <trkpt lat="43.65319" lon="1.40429">
        <ele>123</ele>
        <time>2024-04-09T16:55:59Z</time>
      </trkpt>
      <trkpt lat="43.65319" lon="1.40428">
        <ele>123</ele>
        <time>2024-04-09T16:56:00Z</time>
      </trkpt>
      <trkpt lat="43.65316" lon="1.40425">
        <ele>123</ele>
        <time>2024-04-09T16:56:01Z</time>
      </trkpt>
      <trkpt lat="43.65315" lon="1.40423">
        <ele>123</ele>
        <time>2024-04-09T16:56:02Z</time>
      </trkpt>
      <trkpt lat="43.65313" lon="1.4042">
        <ele>124</ele>
        <time>2024-04-09T16:56:03Z</time>
      </trkpt>
      <trkpt lat="43.65312" lon="1.40418">
        <ele>124</ele>
        <time>2024-04-09T16:56:04Z</time>
      </trkpt>
      <trkpt lat="43.6531" lon="1.40416">
        <ele>124</ele>
        <time>2024-04-09T16:56:05Z</time>
      </trkpt>
      <trkpt lat="43.65309" lon="1.40414">
        <ele>124</ele>
        <time>2024-04-09T16:56:06Z</time>
      </trkpt>
      <trkpt lat="43.65307" lon="1.40413">
        <ele>124</ele>
        <time>2024-04-09T16:56:07Z</time>
      </trkpt>
      <trkpt lat="43.65305" lon="1.40411">
        <ele>124</ele>
        <time>2024-04-09T16:56:08Z</time>
      </trkpt>
      <trkpt lat="43.65302" lon="1.4041">
        <ele>124</ele>
        <time>2024-04-09T16:56:09Z</time>
      </trkpt>
      <trkpt lat="43.653" lon="1.40408">
        <ele>124</ele>
        <time>2024-04-09T16:56:10Z</time>
      </trkpt>
      <trkpt lat="43.65298" lon="1.40406">
        <ele>124</ele>
        <time>2024-04-09T16:56:11Z</time>
      </trkpt>
      <trkpt lat="43.65296" lon="1.40404">
        <ele>124</ele>
        <time>2024-04-09T16:56:12Z</time>
      </trkpt>
      <trkpt lat="43.65294" lon="1.40403">
        <ele>124</ele>
        <time>2024-04-09T16:56:13Z</time>
      </trkpt>
      <trkpt lat="43.65289" lon="1.404">
        <ele>124</ele>
        <time>2024-04-09T16:56:14Z</time>
      </trkpt>
      <trkpt lat="43.65289" lon="1.404">
        <ele>124</ele>
        <time>2024-04-09T16:56:15Z</time>
      </trkpt>
      <trkpt lat="43.65287" lon="1.404">
        <ele>124</ele>
        <time>2024-04-09T16:56:16Z</time>
      </trkpt>
      <trkpt lat="43.65284" lon="1.40399">
        <ele>124</ele>
        <time>2024-04-09T16:56:17Z</time>
      </trkpt>
      <trkpt lat="43.65282" lon="1.40397">
        <ele>124</ele>
        <time>2024-04-09T16:56:18Z</time>
      </trkpt>
      <trkpt lat="43.65281" lon="1.40395">
        <ele>124</ele>
        <time>2024-04-09T16:56:19Z</time>
      </trkpt>
      <trkpt lat="43.65279" lon="1.40393">
        <ele>124</ele>
        <time>2024-04-09T16:56:20Z</time>
      </trkpt>
      <trkpt lat="43.65277" lon="1.40391">
        <ele>124</ele>
        <time>2024-04-09T16:56:21Z</time>
      </trkpt>
      <trkpt lat="43.65275" lon="1.40389">
        <ele>124</ele>
        <time>2024-04-09T16:56:22Z</time>
      </trkpt>
      <trkpt lat="43.65274" lon="1.40387">
        <ele>124</ele>
        <time>2024-04-09T16:56:23Z</time>
      </trkpt>
      <trkpt lat="43.65272" lon="1.40384">
        <ele>124</ele>
        <time>2024-04-09T16:56:24Z</time>
      </trkpt>
      <trkpt lat="43.65271" lon="1.40382">
        <ele>124</ele>
        <time>2024-04-09T16:56:25Z</time>
      </trkpt>
      <trkpt lat="43.65269" lon="1.4038">
        <ele>124</ele>
        <time>2024-04-09T16:56:26Z</time>
      </trkpt>
      <trkpt lat="43.65266" lon="1.40378">
        <ele>124</ele>
        <time>2024-04-09T16:56:27Z</time>
      </trkpt>
      <trkpt lat="43.65265" lon="1.40377">
        <ele>124</ele>
        <time>2024-04-09T16:56:28Z</time>
      </trkpt>
      <trkpt lat="43.65262" lon="1.40375">
        <ele>124</ele>
        <time>2024-04-09T16:56:29Z</time>
      </trkpt>
      <trkpt lat="43.6526" lon="1.40373">
        <ele>124</ele>
        <time>2024-04-09T16:56:30Z</time>
      </trkpt>
      <trkpt lat="43.65258" lon="1.40372">
        <ele>124</ele>
        <time>2024-04-09T16:56:31Z</time>
      </trkpt>
      <trkpt lat="43.65255" lon="1.40368">
        <ele>124</ele>
        <time>2024-04-09T16:56:32Z</time>
      </trkpt>
      <trkpt lat="43.65255" lon="1.40367">
        <ele>124</ele>
        <time>2024-04-09T16:56:33Z</time>
      </trkpt>
      <trkpt lat="43.65252" lon="1.40363">
        <ele>124</ele>
        <time>2024-04-09T16:56:34Z</time>
      </trkpt>
      <trkpt lat="43.65251" lon="1.40362">
        <ele>124</ele>
        <time>2024-04-09T16:56:35Z</time>
      </trkpt>
      <trkpt lat="43.6525" lon="1.4036">
        <ele>124</ele>
        <time>2024-04-09T16:56:36Z</time>
      </trkpt>
      <trkpt lat="43.65248" lon="1.40358">
        <ele>124</ele>
        <time>2024-04-09T16:56:37Z</time>
      </trkpt>
      <trkpt lat="43.65244" lon="1.40354">
        <ele>124</ele>
        <time>2024-04-09T16:56:38Z</time>
      </trkpt>
      <trkpt lat="43.65244" lon="1.40354">
        <ele>124</ele>
        <time>2024-04-09T16:56:39Z</time>
      </trkpt>
      <trkpt lat="43.65241" lon="1.40352">
        <ele>124</ele>
        <time>2024-04-09T16:56:40Z</time>
      </trkpt>
      <trkpt lat="43.6524" lon="1.40352">
        <ele>124</ele>
        <time>2024-04-09T16:56:41Z</time>
      </trkpt>
      <trkpt lat="43.65238" lon="1.4035">
        <ele>124</ele>
        <time>2024-04-09T16:56:42Z</time>
      </trkpt>
      <trkpt lat="43.65237" lon="1.40348">
        <ele>124</ele>
        <time>2024-04-09T16:56:43Z</time>
      </trkpt>
      <trkpt lat="43.65235" lon="1.40346">
        <ele>124</ele>
        <time>2024-04-09T16:56:44Z</time>
      </trkpt>
      <trkpt lat="43.65233" lon="1.40344">
        <ele>124</ele>
        <time>2024-04-09T16:56:45Z</time>
      </trkpt>
      <trkpt lat="43.65231" lon="1.40342">
        <ele>124</ele>
        <time>2024-04-09T16:56:46Z</time>
      </trkpt>
      <trkpt lat="43.65229" lon="1.40339">
        <ele>124</ele>
        <time>2024-04-09T16:56:47Z</time>
      </trkpt>
      <trkpt lat="43.65228" lon="1.40338">
        <ele>124</ele>
        <time>2024-04-09T16:56:48Z</time>
      </trkpt>
      <trkpt lat="43.65226" lon="1.40335">
        <ele>124</ele>
        <time>2024-04-09T16:56:49Z</time>
      </trkpt>
      <trkpt lat="43.65224" lon="1.40333">
        <ele>124</ele>
        <time>2024-04-09T16:56:50Z</time>
      </trkpt>
      <trkpt lat="43.65222" lon="1.40331">
        <ele>124</ele>
        <time>2024-04-09T16:56:51Z</time>
      </trkpt>
      <trkpt lat="43.6522" lon="1.40329">
        <ele>124</ele>
        <time>2024-04-09T16:56:52Z</time>
      </trkpt>
      <trkpt lat="43.65218" lon="1.40327">
        <ele>124</ele>
        <time>2024-04-09T16:56:53Z</time>
      </trkpt>
      <trkpt lat="43.65215" lon="1.40324">
        <ele>124</ele>
        <time>2024-04-09T16:56:54Z</time>
      </trkpt>
      <trkpt lat="43.65214" lon="1.40323">
        <ele>124</ele>
        <time>2024-04-09T16:56:55Z</time>
      </trkpt>
      <trkpt lat="43.65212" lon="1.4032">
        <ele>124</ele>
        <time>2024-04-09T16:56:56Z</time>
      </trkpt>
      <trkpt lat="43.65212" lon="1.40319">
        <ele>124</ele>
        <time>2024-04-09T16:56:57Z</time>
      </trkpt>
      <trkpt lat="43.6521" lon="1.40317">
        <ele>124</ele>
        <time>2024-04-09T16:56:58Z</time>
      </trkpt>
      <trkpt lat="43.65207" lon="1.40314">
        <ele>124</ele>
        <time>2024-04-09T16:56:59Z</time>
      </trkpt>
      <trkpt lat="43.65206" lon="1.40313">
        <ele>124</ele>
        <time>2024-04-09T16:57:00Z</time>
      </trkpt>
      <trkpt lat="43.65203" lon="1.4031">
        <ele>124</ele>
        <time>2024-04-09T16:57:01Z</time>
      </trkpt>
      <trkpt lat="43.65203" lon="1.40309">
        <ele>124</ele>
        <time>2024-04-09T16:57:02Z</time>
      </trkpt>
      <trkpt lat="43.65201" lon="1.40308">
        <ele>124</ele>
        <time>2024-04-09T16:57:03Z</time>
      </trkpt>
      <trkpt lat="43.65198" lon="1.40306">
        <ele>124</ele>
        <time>2024-04-09T16:57:04Z</time>
      </trkpt>
      <trkpt lat="43.65196" lon="1.40304">
        <ele>124</ele>
        <time>2024-04-09T16:57:05Z</time>
      </trkpt>
      <trkpt lat="43.65194" lon="1.40303">
        <ele>124</ele>
        <time>2024-04-09T16:57:06Z</time>
      </trkpt>
      <trkpt lat="43.65192" lon="1.40301">
        <ele>124</ele>
        <time>2024-04-09T16:57:07Z</time>
      </trkpt>
      <trkpt lat="43.6519" lon="1.40299">
        <ele>124</ele>
        <time>2024-04-09T16:57:08Z</time>
      </trkpt>
      <trkpt lat="43.65188" lon="1.40298">
        <ele>124</ele>
        <time>2024-04-09T16:57:09Z</time>
      </trkpt>
      <trkpt lat="43.65186" lon="1.40297">
        <ele>124</ele>
        <time>2024-04-09T16:57:10Z</time>
      </trkpt>
      <trkpt lat="43.65184" lon="1.40295">
        <ele>124</ele>
        <time>2024-04-09T16:57:11Z</time>
      </trkpt>
      <trkpt lat="43.65182" lon="1.40293">
        <ele>124</ele>
        <time>2024-04-09T16:57:12Z</time>
      </trkpt>
      <trkpt lat="43.6518" lon="1.40291">
        <ele>124</ele>
        <time>2024-04-09T16:57:13Z</time>
      </trkpt>
      <trkpt lat="43.65178" lon="1.40289">
        <ele>124</ele>
        <time>2024-04-09T16:57:14Z</time>
      </trkpt>
      <trkpt lat="43.65176" lon="1.40287">
        <ele>124</ele>
        <time>2024-04-09T16:57:15Z</time>
      </trkpt>
      <trkpt lat="43.65172" lon="1.40283">
        <ele>124</ele>
        <time>2024-04-09T16:57:16Z</time>
      </trkpt>
      <trkpt lat="43.65172" lon="1.40283">
        <ele>124</ele>
        <time>2024-04-09T16:57:17Z</time>
      </trkpt>
      <trkpt lat="43.65169" lon="1.4028">
        <ele>124</ele>
        <time>2024-04-09T16:57:18Z</time>
      </trkpt>
      <trkpt lat="43.65169" lon="1.40279">
        <ele>124</ele>
        <time>2024-04-09T16:57:19Z</time>
      </trkpt>
      <trkpt lat="43.65167" lon="1.40278">
        <ele>124</ele>
        <time>2024-04-09T16:57:20Z</time>
      </trkpt>
      <trkpt lat="43.65165" lon="1.40276">
        <ele>124</ele>
        <time>2024-04-09T16:57:21Z</time>
      </trkpt>
      <trkpt lat="43.65164" lon="1.40275">
        <ele>124</ele>
        <time>2024-04-09T16:57:22Z</time>
      </trkpt>
      <trkpt lat="43.65161" lon="1.40271">
        <ele>124</ele>
        <time>2024-04-09T16:57:23Z</time>
      </trkpt>
      <trkpt lat="43.6516" lon="1.4027">
        <ele>124</ele>
        <time>2024-04-09T16:57:24Z</time>
      </trkpt>
      <trkpt lat="43.65158" lon="1.40268">
        <ele>124</ele>
        <time>2024-04-09T16:57:25Z</time>
      </trkpt>
      <trkpt lat="43.65157" lon="1.40266">
        <ele>124</ele>
        <time>2024-04-09T16:57:26Z</time>
      </trkpt>
      <trkpt lat="43.65155" lon="1.40263">
        <ele>124</ele>
        <time>2024-04-09T16:57:27Z</time>
      </trkpt>
      <trkpt lat="43.65153" lon="1.40262">
        <ele>124</ele>
        <time>2024-04-09T16:57:28Z</time>
      </trkpt>
      <trkpt lat="43.65152" lon="1.4026">
        <ele>124</ele>
        <time>2024-04-09T16:57:29Z</time>
      </trkpt>
      <trkpt lat="43.6515" lon="1.40258">
        <ele>124</ele>
        <time>2024-04-09T16:57:30Z</time>
      </trkpt>
      <trkpt lat="43.65149" lon="1.40255">
        <ele>124</ele>
        <time>2024-04-09T16:57:31Z</time>
      </trkpt>
      <trkpt lat="43.65147" lon="1.40253">
        <ele>124</ele>
        <time>2024-04-09T16:57:32Z</time>
      </trkpt>
      <trkpt lat="43.65145" lon="1.4025">
        <ele>124</ele>
        <time>2024-04-09T16:57:33Z</time>
      </trkpt>
      <trkpt lat="43.65144" lon="1.40248">
        <ele>124</ele>
        <time>2024-04-09T16:57:34Z</time>
      </trkpt>
      <trkpt lat="43.6514" lon="1.40245">
        <ele>124</ele>
        <time>2024-04-09T16:57:35Z</time>
      </trkpt>
      <trkpt lat="43.6514" lon="1.40245">
        <ele>125</ele>
        <time>2024-04-09T16:57:36Z</time>
      </trkpt>
      <trkpt lat="43.65137" lon="1.40243">
        <ele>125</ele>
        <time>2024-04-09T16:57:37Z</time>
      </trkpt>
      <trkpt lat="43.65136" lon="1.40242">
        <ele>125</ele>
        <time>2024-04-09T16:57:38Z</time>
      </trkpt>
      <trkpt lat="43.65133" lon="1.4024">
        <ele>125</ele>
        <time>2024-04-09T16:57:39Z</time>
      </trkpt>
      <trkpt lat="43.65132" lon="1.40239">
        <ele>125</ele>
        <time>2024-04-09T16:57:40Z</time>
      </trkpt>
      <trkpt lat="43.6513" lon="1.40237">
        <ele>125</ele>
        <time>2024-04-09T16:57:41Z</time>
      </trkpt>
      <trkpt lat="43.65128" lon="1.40235">
        <ele>125</ele>
        <time>2024-04-09T16:57:42Z</time>
      </trkpt>
      <trkpt lat="43.65127" lon="1.40234">
        <ele>125</ele>
        <time>2024-04-09T16:57:43Z</time>
      </trkpt>
      <trkpt lat="43.65124" lon="1.40231">
        <ele>125</ele>
        <time>2024-04-09T16:57:44Z</time>
      </trkpt>
      <trkpt lat="43.65123" lon="1.4023">
        <ele>125</ele>
        <time>2024-04-09T16:57:45Z</time>
      </trkpt>
      <trkpt lat="43.65121" lon="1.40228">
        <ele>125</ele>
        <time>2024-04-09T16:57:46Z</time>
      </trkpt>
      <trkpt lat="43.65119" lon="1.40225">
        <ele>125</ele>
        <time>2024-04-09T16:57:47Z</time>
      </trkpt>
      <trkpt lat="43.65118" lon="1.40224">
        <ele>125</ele>
        <time>2024-04-09T16:57:48Z</time>
      </trkpt>
      <trkpt lat="43.65115" lon="1.40221">
        <ele>125</ele>
        <time>2024-04-09T16:57:49Z</time>
      </trkpt>
      <trkpt lat="43.65114" lon="1.40219">
        <ele>125</ele>
        <time>2024-04-09T16:57:50Z</time>
      </trkpt>
      <trkpt lat="43.65113" lon="1.40217">
        <ele>125</ele>
        <time>2024-04-09T16:57:51Z</time>
      </trkpt>
      <trkpt lat="43.6511" lon="1.40214">
        <ele>124</ele>
        <time>2024-04-09T16:57:52Z</time>
      </trkpt>
      <trkpt lat="43.65109" lon="1.40213">
        <ele>124</ele>
        <time>2024-04-09T16:57:53Z</time>
      </trkpt>
      <trkpt lat="43.65106" lon="1.40209">
        <ele>124</ele>
        <time>2024-04-09T16:57:54Z</time>
      </trkpt>
      <trkpt lat="43.65106" lon="1.40209">
        <ele>124</ele>
        <time>2024-04-09T16:57:55Z</time>
      </trkpt>
      <trkpt lat="43.65104" lon="1.40207">
        <ele>124</ele>
        <time>2024-04-09T16:57:56Z</time>
      </trkpt>
      <trkpt lat="43.65103" lon="1.40204">
        <ele>124</ele>
        <time>2024-04-09T16:57:57Z</time>
      </trkpt>
      <trkpt lat="43.65101" lon="1.40202">
        <ele>125</ele>
        <time>2024-04-09T16:57:58Z</time>
      </trkpt>
      <trkpt lat="43.651" lon="1.40199">
        <ele>125</ele>
        <time>2024-04-09T16:57:59Z</time>
      </trkpt>
      <trkpt lat="43.65098" lon="1.40197">
        <ele>125</ele>
        <time>2024-04-09T16:58:00Z</time>
      </trkpt>
      <trkpt lat="43.65097" lon="1.40196">
        <ele>125</ele>
        <time>2024-04-09T16:58:01Z</time>
      </trkpt>
      <trkpt lat="43.65095" lon="1.40194">
        <ele>125</ele>
        <time>2024-04-09T16:58:02Z</time>
      </trkpt>
      <trkpt lat="43.65093" lon="1.40192">
        <ele>125</ele>
        <time>2024-04-09T16:58:03Z</time>
      </trkpt>
      <trkpt lat="43.65093" lon="1.40192">
        <ele>125</ele>
        <time>2024-04-09T16:58:04Z</time>
      </trkpt>
      <trkpt lat="43.65089" lon="1.40189">
        <ele>125</ele>
        <time>2024-04-09T16:58:05Z</time>
      </trkpt>
      <trkpt lat="43.65088" lon="1.40188">
        <ele>125</ele>
        <time>2024-04-09T16:58:06Z</time>
      </trkpt>
      <trkpt lat="43.65086" lon="1.40188">
        <ele>125</ele>
        <time>2024-04-09T16:58:07Z</time>
      </trkpt>
      <trkpt lat="43.65085" lon="1.40186">
        <ele>125</ele>
        <time>2024-04-09T16:58:08Z</time>
      </trkpt>
      <trkpt lat="43.65083" lon="1.40184">
        <ele>125</ele>
        <time>2024-04-09T16:58:09Z</time>
      </trkpt>
      <trkpt lat="43.65081" lon="1.40183">
        <ele>125</ele>
        <time>2024-04-09T16:58:10Z</time>
      </trkpt>
      <trkpt lat="43.65079" lon="1.40182">
        <ele>124</ele>
        <time>2024-04-09T16:58:11Z</time>
      </trkpt>
      <trkpt lat="43.65076" lon="1.40178">
        <ele>124</ele>
        <time>2024-04-09T16:58:12Z</time>
      </trkpt>
      <trkpt lat="43.65074" lon="1.40176">
        <ele>124</ele>
        <time>2024-04-09T16:58:13Z</time>
      </trkpt>
      <trkpt lat="43.65074" lon="1.40176">
        <ele>124</ele>
        <time>2024-04-09T16:58:14Z</time>
      </trkpt>
      <trkpt lat="43.65072" lon="1.40173">
        <ele>124</ele>
        <time>2024-04-09T16:58:15Z</time>
      </trkpt>
      <trkpt lat="43.65071" lon="1.40171">
        <ele>124</ele>
        <time>2024-04-09T16:58:16Z</time>
      </trkpt>
      <trkpt lat="43.65069" lon="1.40169">
        <ele>125</ele>
        <time>2024-04-09T16:58:17Z</time>
      </trkpt>
      <trkpt lat="43.65067" lon="1.40167">
        <ele>125</ele>
        <time>2024-04-09T16:58:18Z</time>
      </trkpt>
      <trkpt lat="43.65065" lon="1.40166">
        <ele>125</ele>
        <time>2024-04-09T16:58:19Z</time>
      </trkpt>
      <trkpt lat="43.65063" lon="1.40164">
        <ele>125</ele>
        <time>2024-04-09T16:58:20Z</time>
      </trkpt>
      <trkpt lat="43.65063" lon="1.40164">
        <ele>125</ele>
        <time>2024-04-09T16:58:21Z</time>
      </trkpt>
      <trkpt lat="43.65061" lon="1.40161">
        <ele>124</ele>
        <time>2024-04-09T16:58:22Z</time>
      </trkpt>
      <trkpt lat="43.65059" lon="1.40159">
        <ele>124</ele>
        <time>2024-04-09T16:58:23Z</time>
      </trkpt>
      <trkpt lat="43.65058" lon="1.40158">
        <ele>124</ele>
        <time>2024-04-09T16:58:24Z</time>
      </trkpt>
      <trkpt lat="43.65058" lon="1.40158">
        <ele>124</ele>
        <time>2024-04-09T16:58:25Z</time>
      </trkpt>
      <trkpt lat="43.65053" lon="1.40154">
        <ele>124</ele>
        <time>2024-04-09T16:58:26Z</time>
      </trkpt>
      <trkpt lat="43.65052" lon="1.40153">
        <ele>124</ele>
        <time>2024-04-09T16:58:27Z</time>
      </trkpt>
      <trkpt lat="43.6505" lon="1.40152">
        <ele>124</ele>
        <time>2024-04-09T16:58:28Z</time>
      </trkpt>
      <trkpt lat="43.65047" lon="1.4015">
        <ele>124</ele>
        <time>2024-04-09T16:58:29Z</time>
      </trkpt>
      <trkpt lat="43.65046" lon="1.40149">
        <ele>124</ele>
        <time>2024-04-09T16:58:30Z</time>
      </trkpt>
      <trkpt lat="43.65044" lon="1.40148">
        <ele>124</ele>
        <time>2024-04-09T16:58:31Z</time>
      </trkpt>
      <trkpt lat="43.65039" lon="1.40145">
        <ele>124</ele>
        <time>2024-04-09T16:58:32Z</time>
      </trkpt>
      <trkpt lat="43.65039" lon="1.40145">
        <ele>123</ele>
        <time>2024-04-09T16:58:33Z</time>
      </trkpt>
      <trkpt lat="43.65037" lon="1.40143">
        <ele>123</ele>
        <time>2024-04-09T16:58:34Z</time>
      </trkpt>
      <trkpt lat="43.65035" lon="1.40141">
        <ele>123</ele>
        <time>2024-04-09T16:58:35Z</time>
      </trkpt>
      <trkpt lat="43.65034" lon="1.40139">
        <ele>123</ele>
        <time>2024-04-09T16:58:36Z</time>
      </trkpt>
      <trkpt lat="43.65033" lon="1.40136">
        <ele>123</ele>
        <time>2024-04-09T16:58:37Z</time>
      </trkpt>
      <trkpt lat="43.65031" lon="1.40134">
        <ele>123</ele>
        <time>2024-04-09T16:58:38Z</time>
      </trkpt>
      <trkpt lat="43.6503" lon="1.40131">
        <ele>123</ele>
        <time>2024-04-09T16:58:39Z</time>
      </trkpt>
      <trkpt lat="43.65029" lon="1.40129">
        <ele>123</ele>
        <time>2024-04-09T16:58:40Z</time>
      </trkpt>
      <trkpt lat="43.65029" lon="1.40129">
        <ele>123</ele>
        <time>2024-04-09T16:58:41Z</time>
      </trkpt>
      <trkpt lat="43.65027" lon="1.40126">
        <ele>123</ele>
        <time>2024-04-09T16:58:42Z</time>
      </trkpt>
      <trkpt lat="43.65025" lon="1.40124">
        <ele>123</ele>
        <time>2024-04-09T16:58:43Z</time>
      </trkpt>
      <trkpt lat="43.65023" lon="1.40122">
        <ele>124</ele>
        <time>2024-04-09T16:58:44Z</time>
      </trkpt>
      <trkpt lat="43.65021" lon="1.40119">
        <ele>124</ele>
        <time>2024-04-09T16:58:45Z</time>
      </trkpt>
      <trkpt lat="43.65019" lon="1.40116">
        <ele>124</ele>
        <time>2024-04-09T16:58:46Z</time>
      </trkpt>
      <trkpt lat="43.65017" lon="1.40113">
        <ele>124</ele>
        <time>2024-04-09T16:58:47Z</time>
      </trkpt>
      <trkpt lat="43.65016" lon="1.40111">
        <ele>124</ele>
        <time>2024-04-09T16:58:48Z</time>
      </trkpt>
      <trkpt lat="43.65014" lon="1.40109">
        <ele>124</ele>
        <time>2024-04-09T16:58:49Z</time>
      </trkpt>
      <trkpt lat="43.65013" lon="1.40107">
        <ele>124</ele>
        <time>2024-04-09T16:58:50Z</time>
      </trkpt>
      <trkpt lat="43.65011" lon="1.40105">
        <ele>124</ele>
        <time>2024-04-09T16:58:51Z</time>
      </trkpt>
      <trkpt lat="43.65009" lon="1.40103">
        <ele>124</ele>
        <time>2024-04-09T16:58:52Z</time>
      </trkpt>
      <trkpt lat="43.65007" lon="1.40101">
        <ele>124</ele>
        <time>2024-04-09T16:58:53Z</time>
      </trkpt>
      <trkpt lat="43.65005" lon="1.40099">
        <ele>125</ele>
        <time>2024-04-09T16:58:54Z</time>
      </trkpt>
      <trkpt lat="43.65003" lon="1.40098">
        <ele>125</ele>
        <time>2024-04-09T16:58:55Z</time>
      </trkpt>
      <trkpt lat="43.65002" lon="1.40096">
        <ele>125</ele>
        <time>2024-04-09T16:58:56Z</time>
      </trkpt>
      <trkpt lat="43.64998" lon="1.40094">
        <ele>125</ele>
        <time>2024-04-09T16:58:57Z</time>
      </trkpt>
      <trkpt lat="43.64997" lon="1.40094">
        <ele>125</ele>
        <time>2024-04-09T16:58:58Z</time>
      </trkpt>
      <trkpt lat="43.64995" lon="1.40093">
        <ele>124</ele>
        <time>2024-04-09T16:58:59Z</time>
      </trkpt>
      <trkpt lat="43.64995" lon="1.40093">
        <ele>124</ele>
        <time>2024-04-09T16:59:00Z</time>
      </trkpt>
      <trkpt lat="43.64991" lon="1.40091">
        <ele>124</ele>
        <time>2024-04-09T16:59:01Z</time>
      </trkpt>
      <trkpt lat="43.64991" lon="1.40091">
        <ele>124</ele>
        <time>2024-04-09T16:59:02Z</time>
      </trkpt>
      <trkpt lat="43.64989" lon="1.40089">
        <ele>124</ele>
        <time>2024-04-09T16:59:03Z</time>
      </trkpt>
      <trkpt lat="43.64989" lon="1.40089">
        <ele>123</ele>
        <time>2024-04-09T16:59:04Z</time>
      </trkpt>
      <trkpt lat="43.64986" lon="1.40087">
        <ele>123</ele>
        <time>2024-04-09T16:59:05Z</time>
      </trkpt>
      <trkpt lat="43.64985" lon="1.40086">
        <ele>123</ele>
        <time>2024-04-09T16:59:06Z</time>
      </trkpt>
      <trkpt lat="43.64983" lon="1.40084">
        <ele>123</ele>
        <time>2024-04-09T16:59:07Z</time>
      </trkpt>
      <trkpt lat="43.64982" lon="1.40082">
        <ele>123</ele>
        <time>2024-04-09T16:59:08Z</time>
      </trkpt>
      <trkpt lat="43.64982" lon="1.40082">
        <ele>123</ele>
        <time>2024-04-09T16:59:09Z</time>
      </trkpt>
      <trkpt lat="43.64977" lon="1.40079">
        <ele>123</ele>
        <time>2024-04-09T16:59:10Z</time>
      </trkpt>
      <trkpt lat="43.64976" lon="1.40078">
        <ele>123</ele>
        <time>2024-04-09T16:59:11Z</time>
      </trkpt>
      <trkpt lat="43.64973" lon="1.40077">
        <ele>123</ele>
        <time>2024-04-09T16:59:12Z</time>
      </trkpt>
      <trkpt lat="43.6497" lon="1.40076">
        <ele>123</ele>
        <time>2024-04-09T16:59:13Z</time>
      </trkpt>
      <trkpt lat="43.64968" lon="1.40075">
        <ele>123</ele>
        <time>2024-04-09T16:59:14Z</time>
      </trkpt>
      <trkpt lat="43.64964" lon="1.40073">
        <ele>123</ele>
        <time>2024-04-09T16:59:15Z</time>
      </trkpt>
      <trkpt lat="43.64963" lon="1.40072">
        <ele>122</ele>
        <time>2024-04-09T16:59:16Z</time>
      </trkpt>
      <trkpt lat="43.6496" lon="1.40072">
        <ele>122</ele>
        <time>2024-04-09T16:59:17Z</time>
      </trkpt>
      <trkpt lat="43.64957" lon="1.4007">
        <ele>122</ele>
        <time>2024-04-09T16:59:18Z</time>
      </trkpt>
      <trkpt lat="43.64956" lon="1.4007">
        <ele>122</ele>
        <time>2024-04-09T16:59:19Z</time>
      </trkpt>
      <trkpt lat="43.64953" lon="1.40068">
        <ele>122</ele>
        <time>2024-04-09T16:59:20Z</time>
      </trkpt>
      <trkpt lat="43.64952" lon="1.40067">
        <ele>122</ele>
        <time>2024-04-09T16:59:21Z</time>
      </trkpt>
      <trkpt lat="43.6495" lon="1.40065">
        <ele>121</ele>
        <time>2024-04-09T16:59:22Z</time>
      </trkpt>
      <trkpt lat="43.6495" lon="1.40065">
        <ele>121</ele>
        <time>2024-04-09T16:59:23Z</time>
      </trkpt>
      <trkpt lat="43.64947" lon="1.40063">
        <ele>121</ele>
        <time>2024-04-09T16:59:24Z</time>
      </trkpt>
      <trkpt lat="43.64945" lon="1.40062">
        <ele>121</ele>
        <time>2024-04-09T16:59:25Z</time>
      </trkpt>
      <trkpt lat="43.64943" lon="1.4006">
        <ele>121</ele>
        <time>2024-04-09T16:59:26Z</time>
      </trkpt>
      <trkpt lat="43.64942" lon="1.40059">
        <ele>121</ele>
        <time>2024-04-09T16:59:27Z</time>
      </trkpt>
      <trkpt lat="43.6494" lon="1.40058">
        <ele>121</ele>
        <time>2024-04-09T16:59:28Z</time>
      </trkpt>
      <trkpt lat="43.64938" lon="1.40058">
        <ele>121</ele>
        <time>2024-04-09T16:59:29Z</time>
      </trkpt>
      <trkpt lat="43.64936" lon="1.40057">
        <ele>121</ele>
        <time>2024-04-09T16:59:30Z</time>
      </trkpt>
      <trkpt lat="43.64934" lon="1.40056">
        <ele>121</ele>
        <time>2024-04-09T16:59:31Z</time>
      </trkpt>
      <trkpt lat="43.64932" lon="1.40056">
        <ele>121</ele>
        <time>2024-04-09T16:59:32Z</time>
      </trkpt>
      <trkpt lat="43.64928" lon="1.40054">
        <ele>122</ele>
        <time>2024-04-09T16:59:33Z</time>
      </trkpt>
      <trkpt lat="43.64927" lon="1.40053">
        <ele>122</ele>
        <time>2024-04-09T16:59:34Z</time>
      </trkpt>
      <trkpt lat="43.64925" lon="1.40052">
        <ele>122</ele>
        <time>2024-04-09T16:59:35Z</time>
      </trkpt>
      <trkpt lat="43.64923" lon="1.4005">
        <ele>121</ele>
        <time>2024-04-09T16:59:36Z</time>
      </trkpt>
      <trkpt lat="43.64921" lon="1.40049">
        <ele>121</ele>
        <time>2024-04-09T16:59:37Z</time>
      </trkpt>
      <trkpt lat="43.64919" lon="1.40048">
        <ele>121</ele>
        <time>2024-04-09T16:59:38Z</time>
      </trkpt>
      <trkpt lat="43.64917" lon="1.40046">
        <ele>122</ele>
        <time>2024-04-09T16:59:39Z</time>
      </trkpt>
      <trkpt lat="43.64915" lon="1.40044">
        <ele>122</ele>
        <time>2024-04-09T16:59:40Z</time>
      </trkpt>
      <trkpt lat="43.64914" lon="1.40043">
        <ele>122</ele>
        <time>2024-04-09T16:59:41Z</time>
      </trkpt>
      <trkpt lat="43.64912" lon="1.40042">
        <ele>122</ele>
        <time>2024-04-09T16:59:42Z</time>
      </trkpt>
      <trkpt lat="43.64909" lon="1.40039">
        <ele>122</ele>
        <time>2024-04-09T16:59:43Z</time>
      </trkpt>
      <trkpt lat="43.64908" lon="1.40039">
        <ele>122</ele>
        <time>2024-04-09T16:59:44Z</time>
      </trkpt>
      <trkpt lat="43.64906" lon="1.40037">
        <ele>122</ele>
        <time>2024-04-09T16:59:45Z</time>
      </trkpt>
      <trkpt lat="43.64906" lon="1.40037">
        <ele>122</ele>
        <time>2024-04-09T16:59:46Z</time>
      </trkpt>
      <trkpt lat="43.64903" lon="1.40034">
        <ele>122</ele>
        <time>2024-04-09T16:59:47Z</time>
      </trkpt>
      <trkpt lat="43.649" lon="1.4003">
        <ele>122</ele>
        <time>2024-04-09T16:59:48Z</time>
      </trkpt>
      <trkpt lat="43.649" lon="1.4003">
        <ele>122</ele>
        <time>2024-04-09T16:59:49Z</time>
      </trkpt>
      <trkpt lat="43.64898" lon="1.40028">
        <ele>122</ele>
        <time>2024-04-09T16:59:50Z</time>
      </trkpt>
      <trkpt lat="43.64897" lon="1.40026">
        <ele>122</ele>
        <time>2024-04-09T16:59:51Z</time>
      </trkpt>
      <trkpt lat="43.64895" lon="1.40025">
        <ele>122</ele>
        <time>2024-04-09T16:59:52Z</time>
      </trkpt>
      <trkpt lat="43.64893" lon="1.40024">
        <ele>122</ele>
        <time>2024-04-09T16:59:53Z</time>
      </trkpt>
      <trkpt lat="43.64891" lon="1.40022">
        <ele>122</ele>
        <time>2024-04-09T16:59:54Z</time>
      </trkpt>
      <trkpt lat="43.64889" lon="1.4002">
        <ele>122</ele>
        <time>2024-04-09T16:59:55Z</time>
      </trkpt>
      <trkpt lat="43.64888" lon="1.40019">
        <ele>122</ele>
        <time>2024-04-09T16:59:56Z</time>
      </trkpt>
      <trkpt lat="43.64885" lon="1.40017">
        <ele>122</ele>
        <time>2024-04-09T16:59:57Z</time>
      </trkpt>
      <trkpt lat="43.64884" lon="1.40016">
        <ele>122</ele>
        <time>2024-04-09T16:59:58Z</time>
      </trkpt>
      <trkpt lat="43.64881" lon="1.40014">
        <ele>123</ele>
        <time>2024-04-09T16:59:59Z</time>
      </trkpt>
      <trkpt lat="43.64879" lon="1.40014">
        <ele>123</ele>
        <time>2024-04-09T17:00:00Z</time>
      </trkpt>
      <trkpt lat="43.64878" lon="1.40012">
        <ele>123</ele>
        <time>2024-04-09T17:00:01Z</time>
      </trkpt>
      <trkpt lat="43.64876" lon="1.40011">
        <ele>123</ele>
        <time>2024-04-09T17:00:02Z</time>
      </trkpt>
      <trkpt lat="43.64876" lon="1.40011">
        <ele>123</ele>
        <time>2024-04-09T17:00:03Z</time>
      </trkpt>
      <trkpt lat="43.64871" lon="1.4001">
        <ele>123</ele>
        <time>2024-04-09T17:00:04Z</time>
      </trkpt>
      <trkpt lat="43.6487" lon="1.40009">
        <ele>122</ele>
        <time>2024-04-09T17:00:05Z</time>
      </trkpt>
      <trkpt lat="43.64865" lon="1.40007">
        <ele>122</ele>
        <time>2024-04-09T17:00:06Z</time>
      </trkpt>
      <trkpt lat="43.64863" lon="1.40007">
        <ele>122</ele>
        <time>2024-04-09T17:00:07Z</time>
      </trkpt>
      <trkpt lat="43.64863" lon="1.40007">
        <ele>123</ele>
        <time>2024-04-09T17:00:08Z</time>
      </trkpt>
      <trkpt lat="43.64859" lon="1.40005">
        <ele>123</ele>
        <time>2024-04-09T17:00:09Z</time>
      </trkpt>
      <trkpt lat="43.64858" lon="1.40004">
        <ele>123</ele>
        <time>2024-04-09T17:00:10Z</time>
      </trkpt>
      <trkpt lat="43.64856" lon="1.40003">
        <ele>122</ele>
        <time>2024-04-09T17:00:11Z</time>
      </trkpt>
      <trkpt lat="43.64856" lon="1.40003">
        <ele>123</ele>
        <time>2024-04-09T17:00:12Z</time>
      </trkpt>
      <trkpt lat="43.64852" lon="1.40001">
        <ele>123</ele>
        <time>2024-04-09T17:00:13Z</time>
      </trkpt>
      <trkpt lat="43.64851" lon="1.4">
        <ele>123</ele>
        <time>2024-04-09T17:00:14Z</time>
      </trkpt>
      <trkpt lat="43.64849" lon="1.39999">
        <ele>123</ele>
        <time>2024-04-09T17:00:15Z</time>
      </trkpt>
      <trkpt lat="43.64847" lon="1.39998">
        <ele>122</ele>
        <time>2024-04-09T17:00:16Z</time>
      </trkpt>
      <trkpt lat="43.64845" lon="1.39996">
        <ele>122</ele>
        <time>2024-04-09T17:00:17Z</time>
      </trkpt>
      <trkpt lat="43.64842" lon="1.39994">
        <ele>122</ele>
        <time>2024-04-09T17:00:18Z</time>
      </trkpt>
      <trkpt lat="43.64841" lon="1.39994">
        <ele>122</ele>
        <time>2024-04-09T17:00:19Z</time>
      </trkpt>
      <trkpt lat="43.64838" lon="1.39992">
        <ele>122</ele>
        <time>2024-04-09T17:00:20Z</time>
      </trkpt>
      <trkpt lat="43.64837" lon="1.39992">
        <ele>122</ele>
        <time>2024-04-09T17:00:21Z</time>
      </trkpt>
      <trkpt lat="43.64835" lon="1.39991">
        <ele>123</ele>
        <time>2024-04-09T17:00:22Z</time>
      </trkpt>
      <trkpt lat="43.64834" lon="1.39989">
        <ele>123</ele>
        <time>2024-04-09T17:00:23Z</time>
      </trkpt>
      <trkpt lat="43.64832" lon="1.39988">
        <ele>123</ele>
        <time>2024-04-09T17:00:24Z</time>
      </trkpt>
      <trkpt lat="43.6483" lon="1.39987">
        <ele>122</ele>
        <time>2024-04-09T17:00:25Z</time>
      </trkpt>
      <trkpt lat="43.64828" lon="1.39987">
        <ele>122</ele>
        <time>2024-04-09T17:00:26Z</time>
      </trkpt>
      <trkpt lat="43.64827" lon="1.39986">
        <ele>122</ele>
        <time>2024-04-09T17:00:27Z</time>
      </trkpt>
      <trkpt lat="43.64825" lon="1.39985">
        <ele>122</ele>
        <time>2024-04-09T17:00:28Z</time>
      </trkpt>
      <trkpt lat="43.64823" lon="1.39984">
        <ele>122</ele>
        <time>2024-04-09T17:00:29Z</time>
      </trkpt>
      <trkpt lat="43.64821" lon="1.39982">
        <ele>123</ele>
        <time>2024-04-09T17:00:30Z</time>
      </trkpt>
      <trkpt lat="43.6482" lon="1.39981">
        <ele>123</ele>
        <time>2024-04-09T17:00:31Z</time>
      </trkpt>
      <trkpt lat="43.64818" lon="1.39981">
        <ele>123</ele>
        <time>2024-04-09T17:00:32Z</time>
      </trkpt>
      <trkpt lat="43.64816" lon="1.3998">
        <ele>124</ele>
        <time>2024-04-09T17:00:33Z</time>
      </trkpt>
      <trkpt lat="43.64812" lon="1.39979">
        <ele>124</ele>
        <time>2024-04-09T17:00:34Z</time>
      </trkpt>
      <trkpt lat="43.64811" lon="1.39979">
        <ele>124</ele>
        <time>2024-04-09T17:00:35Z</time>
      </trkpt>
      <trkpt lat="43.64808" lon="1.39977">
        <ele>124</ele>
        <time>2024-04-09T17:00:36Z</time>
      </trkpt>
      <trkpt lat="43.64807" lon="1.39977">
        <ele>124</ele>
        <time>2024-04-09T17:00:37Z</time>
      </trkpt>
      <trkpt lat="43.64803" lon="1.39975">
        <ele>124</ele>
        <time>2024-04-09T17:00:38Z</time>
      </trkpt>
      <trkpt lat="43.64802" lon="1.39975">
        <ele>123</ele>
        <time>2024-04-09T17:00:39Z</time>
      </trkpt>
      <trkpt lat="43.648" lon="1.39974">
        <ele>123</ele>
        <time>2024-04-09T17:00:40Z</time>
      </trkpt>
      <trkpt lat="43.64798" lon="1.39973">
        <ele>123</ele>
        <time>2024-04-09T17:00:41Z</time>
      </trkpt>
      <trkpt lat="43.64796" lon="1.39971">
        <ele>123</ele>
        <time>2024-04-09T17:00:42Z</time>
      </trkpt>
      <trkpt lat="43.64794" lon="1.3997">
        <ele>123</ele>
        <time>2024-04-09T17:00:43Z</time>
      </trkpt>
      <trkpt lat="43.64792" lon="1.3997">
        <ele>123</ele>
        <time>2024-04-09T17:00:44Z</time>
      </trkpt>
      <trkpt lat="43.6479" lon="1.39969">
        <ele>123</ele>
        <time>2024-04-09T17:00:45Z</time>
      </trkpt>
      <trkpt lat="43.64787" lon="1.39968">
        <ele>123</ele>
        <time>2024-04-09T17:00:46Z</time>
      </trkpt>
      <trkpt lat="43.64785" lon="1.39967">
        <ele>123</ele>
        <time>2024-04-09T17:00:47Z</time>
      </trkpt>
      <trkpt lat="43.64782" lon="1.39967">
        <ele>123</ele>
        <time>2024-04-09T17:00:48Z</time>
      </trkpt>
      <trkpt lat="43.64779" lon="1.39967">
        <ele>123</ele>
        <time>2024-04-09T17:00:49Z</time>
      </trkpt>
      <trkpt lat="43.64776" lon="1.39966">
        <ele>123</ele>
        <time>2024-04-09T17:00:50Z</time>
      </trkpt>
      <trkpt lat="43.64773" lon="1.39966">
        <ele>123</ele>
        <time>2024-04-09T17:00:51Z</time>
      </trkpt>
      <trkpt lat="43.64771" lon="1.39967">
        <ele>123</ele>
        <time>2024-04-09T17:00:52Z</time>
      </trkpt>
      <trkpt lat="43.64767" lon="1.39966">
        <ele>123</ele>
        <time>2024-04-09T17:00:53Z</time>
      </trkpt>
      <trkpt lat="43.64766" lon="1.39965">
        <ele>123</ele>
        <time>2024-04-09T17:00:54Z</time>
      </trkpt>
      <trkpt lat="43.64764" lon="1.39965">
        <ele>123</ele>
        <time>2024-04-09T17:00:55Z</time>
      </trkpt>
      <trkpt lat="43.64761" lon="1.39963">
        <ele>123</ele>
        <time>2024-04-09T17:00:56Z</time>
      </trkpt>
      <trkpt lat="43.6476" lon="1.39962">
        <ele>123</ele>
        <time>2024-04-09T17:00:57Z</time>
      </trkpt>
      <trkpt lat="43.64757" lon="1.3996">
        <ele>123</ele>
        <time>2024-04-09T17:00:58Z</time>
      </trkpt>
      <trkpt lat="43.64756" lon="1.39959">
        <ele>123</ele>
        <time>2024-04-09T17:00:59Z</time>
      </trkpt>
      <trkpt lat="43.64754" lon="1.39958">
        <ele>123</ele>
        <time>2024-04-09T17:01:00Z</time>
      </trkpt>
      <trkpt lat="43.64752" lon="1.39957">
        <ele>124</ele>
        <time>2024-04-09T17:01:01Z</time>
      </trkpt>
      <trkpt lat="43.6475" lon="1.39955">
        <ele>124</ele>
        <time>2024-04-09T17:01:02Z</time>
      </trkpt>
      <trkpt lat="43.64748" lon="1.39955">
        <ele>124</ele>
        <time>2024-04-09T17:01:03Z</time>
      </trkpt>
      <trkpt lat="43.64746" lon="1.39956">
        <ele>124</ele>
        <time>2024-04-09T17:01:04Z</time>
      </trkpt>
      <trkpt lat="43.64744" lon="1.39956">
        <ele>124</ele>
        <time>2024-04-09T17:01:05Z</time>
      </trkpt>
      <trkpt lat="43.64742" lon="1.39956">
        <ele>124</ele>
        <time>2024-04-09T17:01:06Z</time>
      </trkpt>
      <trkpt lat="43.6474" lon="1.39955">
        <ele>124</ele>
        <time>2024-04-09T17:01:07Z</time>
      </trkpt>
      <trkpt lat="43.64738" lon="1.39954">
        <ele>124</ele>
        <time>2024-04-09T17:01:08Z</time>
      </trkpt>
      <trkpt lat="43.64738" lon="1.39954">
        <ele>124</ele>
        <time>2024-04-09T17:01:09Z</time>
      </trkpt>
      <trkpt lat="43.64735" lon="1.39953">
        <ele>124</ele>
        <time>2024-04-09T17:01:10Z</time>
      </trkpt>
      <trkpt lat="43.64733" lon="1.39953">
        <ele>124</ele>
        <time>2024-04-09T17:01:11Z</time>
      </trkpt>
      <trkpt lat="43.64731" lon="1.39953">
        <ele>124</ele>
        <time>2024-04-09T17:01:12Z</time>
      </trkpt>
      <trkpt lat="43.64729" lon="1.39952">
        <ele>124</ele>
        <time>2024-04-09T17:01:13Z</time>
      </trkpt>
      <trkpt lat="43.64729" lon="1.39952">
        <ele>124</ele>
        <time>2024-04-09T17:01:14Z</time>
      </trkpt>
      <trkpt lat="43.64726" lon="1.39952">
        <ele>124</ele>
        <time>2024-04-09T17:01:15Z</time>
      </trkpt>
      <trkpt lat="43.64726" lon="1.39952">
        <ele>124</ele>
        <time>2024-04-09T17:01:16Z</time>
      </trkpt>
      <trkpt lat="43.64722" lon="1.39952">
        <ele>124</ele>
        <time>2024-04-09T17:01:17Z</time>
      </trkpt>
      <trkpt lat="43.6472" lon="1.39951">
        <ele>124</ele>
        <time>2024-04-09T17:01:18Z</time>
      </trkpt>
      <trkpt lat="43.64718" lon="1.39951">
        <ele>124</ele>
        <time>2024-04-09T17:01:19Z</time>
      </trkpt>
      <trkpt lat="43.64716" lon="1.39951">
        <ele>124</ele>
        <time>2024-04-09T17:01:20Z</time>
      </trkpt>
      <trkpt lat="43.64714" lon="1.39951">
        <ele>124</ele>
        <time>2024-04-09T17:01:21Z</time>
      </trkpt>
      <trkpt lat="43.64711" lon="1.39952">
        <ele>124</ele>
        <time>2024-04-09T17:01:22Z</time>
      </trkpt>
      <trkpt lat="43.64706" lon="1.39951">
        <ele>124</ele>
        <time>2024-04-09T17:01:23Z</time>
      </trkpt>
      <trkpt lat="43.64706" lon="1.39951">
        <ele>124</ele>
        <time>2024-04-09T17:01:24Z</time>
      </trkpt>
      <trkpt lat="43.64704" lon="1.39951">
        <ele>124</ele>
        <time>2024-04-09T17:01:25Z</time>
      </trkpt>
      <trkpt lat="43.64701" lon="1.3995">
        <ele>124</ele>
        <time>2024-04-09T17:01:26Z</time>
      </trkpt>
      <trkpt lat="43.64699" lon="1.3995">
        <ele>124</ele>
        <time>2024-04-09T17:01:27Z</time>
      </trkpt>
      <trkpt lat="43.64696" lon="1.39949">
        <ele>124</ele>
        <time>2024-04-09T17:01:28Z</time>
      </trkpt>
      <trkpt lat="43.64695" lon="1.39948">
        <ele>125</ele>
        <time>2024-04-09T17:01:29Z</time>
      </trkpt>
      <trkpt lat="43.64695" lon="1.39948">
        <ele>125</ele>
        <time>2024-04-09T17:01:30Z</time>
      </trkpt>
      <trkpt lat="43.64691" lon="1.39947">
        <ele>125</ele>
        <time>2024-04-09T17:01:31Z</time>
      </trkpt>
      <trkpt lat="43.64689" lon="1.39946">
        <ele>126</ele>
        <time>2024-04-09T17:01:32Z</time>
      </trkpt>
      <trkpt lat="43.64689" lon="1.39946">
        <ele>127</ele>
        <time>2024-04-09T17:01:33Z</time>
      </trkpt>
      <trkpt lat="43.64685" lon="1.39945">
        <ele>127</ele>
        <time>2024-04-09T17:01:34Z</time>
      </trkpt>
      <trkpt lat="43.64684" lon="1.39945">
        <ele>127</ele>
        <time>2024-04-09T17:01:35Z</time>
      </trkpt>
      <trkpt lat="43.64682" lon="1.39945">
        <ele>127</ele>
        <time>2024-04-09T17:01:36Z</time>
      </trkpt>
      <trkpt lat="43.64678" lon="1.39944">
        <ele>127</ele>
        <time>2024-04-09T17:01:37Z</time>
      </trkpt>
      <trkpt lat="43.64677" lon="1.39944">
        <ele>127</ele>
        <time>2024-04-09T17:01:38Z</time>
      </trkpt>
      <trkpt lat="43.64675" lon="1.39943">
        <ele>127</ele>
        <time>2024-04-09T17:01:39Z</time>
      </trkpt>
      <trkpt lat="43.64675" lon="1.39943">
        <ele>127</ele>
        <time>2024-04-09T17:01:40Z</time>
      </trkpt>
      <trkpt lat="43.64672" lon="1.39942">
        <ele>127</ele>
        <time>2024-04-09T17:01:41Z</time>
      </trkpt>
      <trkpt lat="43.6467" lon="1.39943">
        <ele>127</ele>
        <time>2024-04-09T17:01:42Z</time>
      </trkpt>
      <trkpt lat="43.64668" lon="1.39942">
        <ele>127</ele>
        <time>2024-04-09T17:01:43Z</time>
      </trkpt>
      <trkpt lat="43.64666" lon="1.39942">
        <ele>127</ele>
        <time>2024-04-09T17:01:44Z</time>
      </trkpt>
      <trkpt lat="43.64664" lon="1.39941">
        <ele>127</ele>
        <time>2024-04-09T17:01:45Z</time>
      </trkpt>
      <trkpt lat="43.64662" lon="1.39941">
        <ele>127</ele>
        <time>2024-04-09T17:01:46Z</time>
      </trkpt>
      <trkpt lat="43.64658" lon="1.39939">
        <ele>127</ele>
        <time>2024-04-09T17:01:47Z</time>
      </trkpt>
      <trkpt lat="43.64657" lon="1.39939">
        <ele>127</ele>
        <time>2024-04-09T17:01:48Z</time>
      </trkpt>
      <trkpt lat="43.64655" lon="1.39939">
        <ele>127</ele>
        <time>2024-04-09T17:01:49Z</time>
      </trkpt>
      <trkpt lat="43.64653" lon="1.39938">
        <ele>127</ele>
        <time>2024-04-09T17:01:50Z</time>
      </trkpt>
      <trkpt lat="43.64651" lon="1.39938">
        <ele>127</ele>
        <time>2024-04-09T17:01:51Z</time>
      </trkpt>
      <trkpt lat="43.64648" lon="1.39938">
        <ele>127</ele>
        <time>2024-04-09T17:01:52Z</time>
      </trkpt>
      <trkpt lat="43.64646" lon="1.39937">
        <ele>127</ele>
        <time>2024-04-09T17:01:53Z</time>
      </trkpt>
      <trkpt lat="43.64644" lon="1.39937">
        <ele>127</ele>
        <time>2024-04-09T17:01:54Z</time>
      </trkpt>
      <trkpt lat="43.64644" lon="1.39937">
        <ele>127</ele>
        <time>2024-04-09T17:01:55Z</time>
      </trkpt>
      <trkpt lat="43.64641" lon="1.39937">
        <ele>127</ele>
        <time>2024-04-09T17:01:56Z</time>
      </trkpt>
      <trkpt lat="43.64641" lon="1.39937">
        <ele>127</ele>
        <time>2024-04-09T17:01:57Z</time>
      </trkpt>
      <trkpt lat="43.64637" lon="1.39936">
        <ele>127</ele>
        <time>2024-04-09T17:01:58Z</time>
      </trkpt>
      <trkpt lat="43.64634" lon="1.39935">
        <ele>127</ele>
        <time>2024-04-09T17:01:59Z</time>
      </trkpt>
      <trkpt lat="43.64633" lon="1.39935">
        <ele>127</ele>
        <time>2024-04-09T17:02:00Z</time>
      </trkpt>
      <trkpt lat="43.64631" lon="1.39935">
        <ele>127</ele>
        <time>2024-04-09T17:02:01Z</time>
      </trkpt>
      <trkpt lat="43.64631" lon="1.39935">
        <ele>127</ele>
        <time>2024-04-09T17:02:02Z</time>
      </trkpt>
      <trkpt lat="43.64628" lon="1.39935">
        <ele>127</ele>
        <time>2024-04-09T17:02:03Z</time>
      </trkpt>
      <trkpt lat="43.64625" lon="1.39936">
        <ele>127</ele>
        <time>2024-04-09T17:02:04Z</time>
      </trkpt>
      <trkpt lat="43.64624" lon="1.39936">
        <ele>127</ele>
        <time>2024-04-09T17:02:05Z</time>
      </trkpt>
      <trkpt lat="43.64622" lon="1.39936">
        <ele>127</ele>
        <time>2024-04-09T17:02:06Z</time>
      </trkpt>
      <trkpt lat="43.6462" lon="1.39937">
        <ele>127</ele>
        <time>2024-04-09T17:02:07Z</time>
      </trkpt>
      <trkpt lat="43.64618" lon="1.39937">
        <ele>127</ele>
        <time>2024-04-09T17:02:08Z</time>
      </trkpt>
      <trkpt lat="43.64616" lon="1.39938">
        <ele>127</ele>
        <time>2024-04-09T17:02:09Z</time>
      </trkpt>
      <trkpt lat="43.64614" lon="1.39939">
        <ele>127</ele>
        <time>2024-04-09T17:02:10Z</time>
      </trkpt>
      <trkpt lat="43.64612" lon="1.3994">
        <ele>127</ele>
        <time>2024-04-09T17:02:11Z</time>
      </trkpt>
      <trkpt lat="43.6461" lon="1.39941">
        <ele>127</ele>
        <time>2024-04-09T17:02:12Z</time>
      </trkpt>
      <trkpt lat="43.64607" lon="1.39942">
        <ele>127</ele>
        <time>2024-04-09T17:02:13Z</time>
      </trkpt>
      <trkpt lat="43.64605" lon="1.39943">
        <ele>127</ele>
        <time>2024-04-09T17:02:14Z</time>
      </trkpt>
      <trkpt lat="43.64601" lon="1.39945">
        <ele>127</ele>
        <time>2024-04-09T17:02:15Z</time>
      </trkpt>
      <trkpt lat="43.64599" lon="1.39946">
        <ele>127</ele>
        <time>2024-04-09T17:02:16Z</time>
      </trkpt>
      <trkpt lat="43.64596" lon="1.39948">
        <ele>127</ele>
        <time>2024-04-09T17:02:17Z</time>
      </trkpt>
      <trkpt lat="43.64594" lon="1.39949">
        <ele>127</ele>
        <time>2024-04-09T17:02:18Z</time>
      </trkpt>
      <trkpt lat="43.64591" lon="1.3995">
        <ele>127</ele>
        <time>2024-04-09T17:02:19Z</time>
      </trkpt>
      <trkpt lat="43.64589" lon="1.39951">
        <ele>127</ele>
        <time>2024-04-09T17:02:20Z</time>
      </trkpt>
      <trkpt lat="43.64587" lon="1.39952">
        <ele>127</ele>
        <time>2024-04-09T17:02:21Z</time>
      </trkpt>
      <trkpt lat="43.64583" lon="1.39954">
        <ele>127</ele>
        <time>2024-04-09T17:02:22Z</time>
      </trkpt>
      <trkpt lat="43.64582" lon="1.39954">
        <ele>127</ele>
        <time>2024-04-09T17:02:23Z</time>
      </trkpt>
      <trkpt lat="43.6458" lon="1.39955">
        <ele>127</ele>
        <time>2024-04-09T17:02:24Z</time>
      </trkpt>
      <trkpt lat="43.64578" lon="1.39956">
        <ele>127</ele>
        <time>2024-04-09T17:02:25Z</time>
      </trkpt>
      <trkpt lat="43.64576" lon="1.39958">
        <ele>127</ele>
        <time>2024-04-09T17:02:26Z</time>
      </trkpt>
      <trkpt lat="43.64573" lon="1.39959">
        <ele>127</ele>
        <time>2024-04-09T17:02:27Z</time>
      </trkpt>
      <trkpt lat="43.64572" lon="1.3996">
        <ele>127</ele>
        <time>2024-04-09T17:02:28Z</time>
      </trkpt>
      <trkpt lat="43.64569" lon="1.39961">
        <ele>127</ele>
        <time>2024-04-09T17:02:29Z</time>
      </trkpt>
      <trkpt lat="43.64567" lon="1.39961">
        <ele>127</ele>
        <time>2024-04-09T17:02:30Z</time>
      </trkpt>
      <trkpt lat="43.64564" lon="1.39961">
        <ele>127</ele>
        <time>2024-04-09T17:02:31Z</time>
      </trkpt>
      <trkpt lat="43.64562" lon="1.39961">
        <ele>127</ele>
        <time>2024-04-09T17:02:32Z</time>
      </trkpt>
      <trkpt lat="43.6456" lon="1.39962">
        <ele>127</ele>
        <time>2024-04-09T17:02:33Z</time>
      </trkpt>
      <trkpt lat="43.64557" lon="1.39963">
        <ele>127</ele>
        <time>2024-04-09T17:02:34Z</time>
      </trkpt>
      <trkpt lat="43.64556" lon="1.39963">
        <ele>127</ele>
        <time>2024-04-09T17:02:35Z</time>
      </trkpt>
      <trkpt lat="43.64554" lon="1.39964">
        <ele>127</ele>
        <time>2024-04-09T17:02:36Z</time>
      </trkpt>
      <trkpt lat="43.64551" lon="1.39964">
        <ele>127</ele>
        <time>2024-04-09T17:02:37Z</time>
      </trkpt>
      <trkpt lat="43.64549" lon="1.39964">
        <ele>128</ele>
        <time>2024-04-09T17:02:38Z</time>
      </trkpt>
      <trkpt lat="43.64547" lon="1.39963">
        <ele>128</ele>
        <time>2024-04-09T17:02:39Z</time>
      </trkpt>
      <trkpt lat="43.64545" lon="1.39963">
        <ele>128</ele>
        <time>2024-04-09T17:02:40Z</time>
      </trkpt>
      <trkpt lat="43.64542" lon="1.39963">
        <ele>128</ele>
        <time>2024-04-09T17:02:41Z</time>
      </trkpt>
      <trkpt lat="43.6454" lon="1.39963">
        <ele>127</ele>
        <time>2024-04-09T17:02:42Z</time>
      </trkpt>
      <trkpt lat="43.64536" lon="1.39963">
        <ele>127</ele>
        <time>2024-04-09T17:02:43Z</time>
      </trkpt>
      <trkpt lat="43.64534" lon="1.39963">
        <ele>128</ele>
        <time>2024-04-09T17:02:44Z</time>
      </trkpt>
      <trkpt lat="43.64532" lon="1.39964">
        <ele>128</ele>
        <time>2024-04-09T17:02:45Z</time>
      </trkpt>
      <trkpt lat="43.6453" lon="1.39964">
        <ele>128</ele>
        <time>2024-04-09T17:02:46Z</time>
      </trkpt>
      <trkpt lat="43.64528" lon="1.39964">
        <ele>128</ele>
        <time>2024-04-09T17:02:47Z</time>
      </trkpt>
      <trkpt lat="43.64528" lon="1.39964">
        <ele>128</ele>
        <time>2024-04-09T17:02:48Z</time>
      </trkpt>
      <trkpt lat="43.64524" lon="1.39964">
        <ele>127</ele>
        <time>2024-04-09T17:02:49Z</time>
      </trkpt>
      <trkpt lat="43.64523" lon="1.39964">
        <ele>128</ele>
        <time>2024-04-09T17:02:50Z</time>
      </trkpt>
      <trkpt lat="43.6452" lon="1.39964">
        <ele>128</ele>
        <time>2024-04-09T17:02:51Z</time>
      </trkpt>
      <trkpt lat="43.64519" lon="1.39962">
        <ele>128</ele>
        <time>2024-04-09T17:02:52Z</time>
      </trkpt>
      <trkpt lat="43.64517" lon="1.39961">
        <ele>128</ele>
        <time>2024-04-09T17:02:53Z</time>
      </trkpt>
      <trkpt lat="43.64515" lon="1.39961">
        <ele>128</ele>
        <time>2024-04-09T17:02:54Z</time>
      </trkpt>
      <trkpt lat="43.64513" lon="1.3996">
        <ele>128</ele>
        <time>2024-04-09T17:02:55Z</time>
      </trkpt>
      <trkpt lat="43.64511" lon="1.39959">
        <ele>128</ele>
        <time>2024-04-09T17:02:56Z</time>
      </trkpt>
      <trkpt lat="43.64507" lon="1.39958">
        <ele>128</ele>
        <time>2024-04-09T17:02:57Z</time>
      </trkpt>
      <trkpt lat="43.64506" lon="1.39957">
        <ele>129</ele>
        <time>2024-04-09T17:02:58Z</time>
      </trkpt>
      <trkpt lat="43.64506" lon="1.39957">
        <ele>129</ele>
        <time>2024-04-09T17:02:59Z</time>
      </trkpt>
      <trkpt lat="43.64494" lon="1.39953">
        <ele>128</ele>
        <time>2024-04-09T17:03:59Z</time>
      </trkpt>
      <trkpt lat="43.64493" lon="1.39953">
        <ele>129</ele>
        <time>2024-04-09T17:04:00Z</time>
      </trkpt>
      <trkpt lat="43.64493" lon="1.39953">
        <ele>129</ele>
        <time>2024-04-09T17:04:01Z</time>
      </trkpt>
      <trkpt lat="43.6449" lon="1.39953">
        <ele>129</ele>
        <time>2024-04-09T17:04:02Z</time>
      </trkpt>
      <trkpt lat="43.6449" lon="1.39953">
        <ele>129</ele>
        <time>2024-04-09T17:04:03Z</time>
      </trkpt>
      <trkpt lat="43.64487" lon="1.39954">
        <ele>129</ele>
        <time>2024-04-09T17:04:04Z</time>
      </trkpt>
      <trkpt lat="43.64485" lon="1.39954">
        <ele>129</ele>
        <time>2024-04-09T17:04:05Z</time>
      </trkpt>
      <trkpt lat="43.64483" lon="1.39955">
        <ele>129</ele>
        <time>2024-04-09T17:04:06Z</time>
      </trkpt>
      <trkpt lat="43.64481" lon="1.39957">
        <ele>129</ele>
        <time>2024-04-09T17:04:07Z</time>
      </trkpt>
      <trkpt lat="43.64478" lon="1.39958">
        <ele>128</ele>
        <time>2024-04-09T17:04:08Z</time>
      </trkpt>
      <trkpt lat="43.64476" lon="1.3996">
        <ele>127</ele>
        <time>2024-04-09T17:04:09Z</time>
      </trkpt>
      <trkpt lat="43.64473" lon="1.3996">
        <ele>127</ele>
        <time>2024-04-09T17:04:10Z</time>
      </trkpt>
      <trkpt lat="43.64471" lon="1.39961">
        <ele>127</ele>
        <time>2024-04-09T17:04:11Z</time>
      </trkpt>
      <trkpt lat="43.64469" lon="1.39962">
        <ele>127</ele>
        <time>2024-04-09T17:04:12Z</time>
      </trkpt>
      <trkpt lat="43.64467" lon="1.39962">
        <ele>127</ele>
        <time>2024-04-09T17:04:13Z</time>
      </trkpt>
      <trkpt lat="43.64465" lon="1.39962">
        <ele>127</ele>
        <time>2024-04-09T17:04:14Z</time>
      </trkpt>
      <trkpt lat="43.64465" lon="1.39962">
        <ele>126</ele>
        <time>2024-04-09T17:04:15Z</time>
      </trkpt>
      <trkpt lat="43.64461" lon="1.39962">
        <ele>126</ele>
        <time>2024-04-09T17:04:16Z</time>
      </trkpt>
      <trkpt lat="43.64459" lon="1.39962">
        <ele>126</ele>
        <time>2024-04-09T17:04:17Z</time>
      </trkpt>
      <trkpt lat="43.64456" lon="1.39963">
        <ele>126</ele>
        <time>2024-04-09T17:04:18Z</time>
      </trkpt>
      <trkpt lat="43.64454" lon="1.39963">
        <ele>126</ele>
        <time>2024-04-09T17:04:19Z</time>
      </trkpt>
      <trkpt lat="43.64452" lon="1.39963">
        <ele>126</ele>
        <time>2024-04-09T17:04:20Z</time>
      </trkpt>
      <trkpt lat="43.64448" lon="1.39964">
        <ele>126</ele>
        <time>2024-04-09T17:04:21Z</time>
      </trkpt>
      <trkpt lat="43.64447" lon="1.39964">
        <ele>126</ele>
        <time>2024-04-09T17:04:22Z</time>
      </trkpt>
      <trkpt lat="43.64445" lon="1.39964">
        <ele>126</ele>
        <time>2024-04-09T17:04:23Z</time>
      </trkpt>
      <trkpt lat="43.64443" lon="1.39965">
        <ele>126</ele>
        <time>2024-04-09T17:04:24Z</time>
      </trkpt>
      <trkpt lat="43.64441" lon="1.39965">
        <ele>126</ele>
        <time>2024-04-09T17:04:25Z</time>
      </trkpt>
      <trkpt lat="43.64439" lon="1.39965">
        <ele>126</ele>
        <time>2024-04-09T17:04:26Z</time>
      </trkpt>
      <trkpt lat="43.64437" lon="1.39965">
        <ele>126</ele>
        <time>2024-04-09T17:04:27Z</time>
      </trkpt>
      <trkpt lat="43.64434" lon="1.39965">
        <ele>126</ele>
        <time>2024-04-09T17:04:28Z</time>
      </trkpt>
      <trkpt lat="43.64432" lon="1.39965">
        <ele>126</ele>
        <time>2024-04-09T17:04:29Z</time>
      </trkpt>
      <trkpt lat="43.6443" lon="1.39964">
        <ele>126</ele>
        <time>2024-04-09T17:04:30Z</time>
      </trkpt>
      <trkpt lat="43.64428" lon="1.39964">
        <ele>126</ele>
        <time>2024-04-09T17:04:31Z</time>
      </trkpt>
      <trkpt lat="43.64426" lon="1.39964">
        <ele>126</ele>
        <time>2024-04-09T17:04:32Z</time>
      </trkpt>
      <trkpt lat="43.64423" lon="1.39964">
        <ele>126</ele>
        <time>2024-04-09T17:04:33Z</time>
      </trkpt>
      <trkpt lat="43.64421" lon="1.39964">
        <ele>126</ele>
        <time>2024-04-09T17:04:34Z</time>
      </trkpt>
      <trkpt lat="43.64418" lon="1.39964">
        <ele>126</ele>
        <time>2024-04-09T17:04:35Z</time>
      </trkpt>
      <trkpt lat="43.64415" lon="1.39964">
        <ele>126</ele>
        <time>2024-04-09T17:04:36Z</time>
      </trkpt>
      <trkpt lat="43.64412" lon="1.39963">
        <ele>126</ele>
        <time>2024-04-09T17:04:37Z</time>
      </trkpt>
      <trkpt lat="43.6441" lon="1.39962">
        <ele>126</ele>
        <time>2024-04-09T17:04:38Z</time>
      </trkpt>
      <trkpt lat="43.64408" lon="1.39962">
        <ele>126</ele>
        <time>2024-04-09T17:04:39Z</time>
      </trkpt>
      <trkpt lat="43.64405" lon="1.39962">
        <ele>126</ele>
        <time>2024-04-09T17:04:40Z</time>
      </trkpt>
      <trkpt lat="43.64403" lon="1.39962">
        <ele>126</ele>
        <time>2024-04-09T17:04:41Z</time>
      </trkpt>
      <trkpt lat="43.644" lon="1.39962">
        <ele>126</ele>
        <time>2024-04-09T17:04:42Z</time>
      </trkpt>
      <trkpt lat="43.64398" lon="1.39962">
        <ele>126</ele>
        <time>2024-04-09T17:04:43Z</time>
      </trkpt>
      <trkpt lat="43.64393" lon="1.39962">
        <ele>126</ele>
        <time>2024-04-09T17:04:44Z</time>
      </trkpt>
      <trkpt lat="43.64391" lon="1.39963">
        <ele>126</ele>
        <time>2024-04-09T17:04:45Z</time>
      </trkpt>
      <trkpt lat="43.64391" lon="1.39963">
        <ele>126</ele>
        <time>2024-04-09T17:04:46Z</time>
      </trkpt>
      <trkpt lat="43.64387" lon="1.39963">
        <ele>126</ele>
        <time>2024-04-09T17:04:47Z</time>
      </trkpt>
      <trkpt lat="43.64386" lon="1.39963">
        <ele>126</ele>
        <time>2024-04-09T17:04:48Z</time>
      </trkpt>
      <trkpt lat="43.64384" lon="1.39962">
        <ele>126</ele>
        <time>2024-04-09T17:04:49Z</time>
      </trkpt>
      <trkpt lat="43.64382" lon="1.39962">
        <ele>127</ele>
        <time>2024-04-09T17:04:50Z</time>
      </trkpt>
      <trkpt lat="43.6438" lon="1.39961">
        <ele>127</ele>
        <time>2024-04-09T17:04:51Z</time>
      </trkpt>
      <trkpt lat="43.64378" lon="1.39961">
        <ele>127</ele>
        <time>2024-04-09T17:04:52Z</time>
      </trkpt>
      <trkpt lat="43.64376" lon="1.39961">
        <ele>127</ele>
        <time>2024-04-09T17:04:53Z</time>
      </trkpt>
      <trkpt lat="43.64373" lon="1.3996">
        <ele>127</ele>
        <time>2024-04-09T17:04:54Z</time>
      </trkpt>
      <trkpt lat="43.6437" lon="1.39959">
        <ele>127</ele>
        <time>2024-04-09T17:04:55Z</time>
      </trkpt>
      <trkpt lat="43.64368" lon="1.39959">
        <ele>127</ele>
        <time>2024-04-09T17:04:56Z</time>
      </trkpt>
      <trkpt lat="43.64362" lon="1.39958">
        <ele>127</ele>
        <time>2024-04-09T17:04:57Z</time>
      </trkpt>
      <trkpt lat="43.64362" lon="1.39958">
        <ele>127</ele>
        <time>2024-04-09T17:04:58Z</time>
      </trkpt>
      <trkpt lat="43.64359" lon="1.39957">
        <ele>127</ele>
        <time>2024-04-09T17:04:59Z</time>
      </trkpt>
      <trkpt lat="43.64357" lon="1.39956">
        <ele>127</ele>
        <time>2024-04-09T17:05:00Z</time>
      </trkpt>
      <trkpt lat="43.64354" lon="1.39954">
        <ele>127</ele>
        <time>2024-04-09T17:05:01Z</time>
      </trkpt>
      <trkpt lat="43.64351" lon="1.39954">
        <ele>127</ele>
        <time>2024-04-09T17:05:02Z</time>
      </trkpt>
      <trkpt lat="43.64349" lon="1.39953">
        <ele>127</ele>
        <time>2024-04-09T17:05:03Z</time>
      </trkpt>
      <trkpt lat="43.64347" lon="1.39953">
        <ele>127</ele>
        <time>2024-04-09T17:05:04Z</time>
      </trkpt>
      <trkpt lat="43.64344" lon="1.39952">
        <ele>126</ele>
        <time>2024-04-09T17:05:05Z</time>
      </trkpt>
      <trkpt lat="43.64342" lon="1.39952">
        <ele>126</ele>
        <time>2024-04-09T17:05:06Z</time>
      </trkpt>
      <trkpt lat="43.6434" lon="1.39951">
        <ele>126</ele>
        <time>2024-04-09T17:05:07Z</time>
      </trkpt>
      <trkpt lat="43.64338" lon="1.3995">
        <ele>126</ele>
        <time>2024-04-09T17:05:08Z</time>
      </trkpt>
      <trkpt lat="43.64335" lon="1.3995">
        <ele>127</ele>
        <time>2024-04-09T17:05:09Z</time>
      </trkpt>
      <trkpt lat="43.64334" lon="1.3995">
        <ele>127</ele>
        <time>2024-04-09T17:05:10Z</time>
      </trkpt>
      <trkpt lat="43.64331" lon="1.39949">
        <ele>127</ele>
        <time>2024-04-09T17:05:11Z</time>
      </trkpt>
      <trkpt lat="43.64329" lon="1.39948">
        <ele>127</ele>
        <time>2024-04-09T17:05:12Z</time>
      </trkpt>
      <trkpt lat="43.64326" lon="1.39947">
        <ele>127</ele>
        <time>2024-04-09T17:05:13Z</time>
      </trkpt>
      <trkpt lat="43.64323" lon="1.39946">
        <ele>127</ele>
        <time>2024-04-09T17:05:14Z</time>
      </trkpt>
      <trkpt lat="43.64322" lon="1.39946">
        <ele>127</ele>
        <time>2024-04-09T17:05:15Z</time>
      </trkpt>
      <trkpt lat="43.64319" lon="1.39945">
        <ele>127</ele>
        <time>2024-04-09T17:05:16Z</time>
      </trkpt>
      <trkpt lat="43.64317" lon="1.39945">
        <ele>127</ele>
        <time>2024-04-09T17:05:17Z</time>
      </trkpt>
      <trkpt lat="43.64315" lon="1.39944">
        <ele>127</ele>
        <time>2024-04-09T17:05:18Z</time>
      </trkpt>
      <trkpt lat="43.64312" lon="1.39943">
        <ele>127</ele>
        <time>2024-04-09T17:05:19Z</time>
      </trkpt>
      <trkpt lat="43.6431" lon="1.39942">
        <ele>127</ele>
        <time>2024-04-09T17:05:20Z</time>
      </trkpt>
      <trkpt lat="43.64307" lon="1.39941">
        <ele>127</ele>
        <time>2024-04-09T17:05:21Z</time>
      </trkpt>
      <trkpt lat="43.64305" lon="1.39941">
        <ele>127</ele>
        <time>2024-04-09T17:05:22Z</time>
      </trkpt>
      <trkpt lat="43.64302" lon="1.3994">
        <ele>127</ele>
        <time>2024-04-09T17:05:23Z</time>
      </trkpt>
      <trkpt lat="43.643" lon="1.3994">
        <ele>127</ele>
        <time>2024-04-09T17:05:24Z</time>
      </trkpt>
      <trkpt lat="43.64297" lon="1.39939">
        <ele>127</ele>
        <time>2024-04-09T17:05:25Z</time>
      </trkpt>
      <trkpt lat="43.64294" lon="1.39939">
        <ele>127</ele>
        <time>2024-04-09T17:05:26Z</time>
      </trkpt>
      <trkpt lat="43.64292" lon="1.39939">
        <ele>127</ele>
        <time>2024-04-09T17:05:27Z</time>
      </trkpt>
      <trkpt lat="43.6429" lon="1.39938">
        <ele>127</ele>
        <time>2024-04-09T17:05:28Z</time>
      </trkpt>
      <trkpt lat="43.64288" lon="1.39936">
        <ele>127</ele>
        <time>2024-04-09T17:05:29Z</time>
      </trkpt>
      <trkpt lat="43.64286" lon="1.39936">
        <ele>127</ele>
        <time>2024-04-09T17:05:30Z</time>
      </trkpt>
      <trkpt lat="43.64284" lon="1.39935">
        <ele>127</ele>
        <time>2024-04-09T17:05:31Z</time>
      </trkpt>
      <trkpt lat="43.64282" lon="1.39934">
        <ele>127</ele>
        <time>2024-04-09T17:05:32Z</time>
      </trkpt>
      <trkpt lat="43.64282" lon="1.39934">
        <ele>127</ele>
        <time>2024-04-09T17:05:33Z</time>
      </trkpt>
      <trkpt lat="43.64278" lon="1.39933">
        <ele>127</ele>
        <time>2024-04-09T17:05:34Z</time>
      </trkpt>
      <trkpt lat="43.64276" lon="1.39933">
        <ele>127</ele>
        <time>2024-04-09T17:05:35Z</time>
      </trkpt>
      <trkpt lat="43.64274" lon="1.39932">
        <ele>127</ele>
        <time>2024-04-09T17:05:36Z</time>
      </trkpt>
      <trkpt lat="43.64272" lon="1.39932">
        <ele>127</ele>
        <time>2024-04-09T17:05:37Z</time>
      </trkpt>
      <trkpt lat="43.64269" lon="1.39932">
        <ele>127</ele>
        <time>2024-04-09T17:05:38Z</time>
      </trkpt>
      <trkpt lat="43.64266" lon="1.39932">
        <ele>127</ele>
        <time>2024-04-09T17:05:39Z</time>
      </trkpt>
      <trkpt lat="43.64263" lon="1.39931">
        <ele>127</ele>
        <time>2024-04-09T17:05:40Z</time>
      </trkpt>
      <trkpt lat="43.64261" lon="1.39931">
        <ele>127</ele>
        <time>2024-04-09T17:05:41Z</time>
      </trkpt>
      <trkpt lat="43.64258" lon="1.39931">
        <ele>127</ele>
        <time>2024-04-09T17:05:42Z</time>
      </trkpt>
      <trkpt lat="43.64255" lon="1.39931">
        <ele>127</ele>
        <time>2024-04-09T17:05:43Z</time>
      </trkpt>
      <trkpt lat="43.64253" lon="1.39931">
        <ele>127</ele>
        <time>2024-04-09T17:05:44Z</time>
      </trkpt>
      <trkpt lat="43.6425" lon="1.39931">
        <ele>127</ele>
        <time>2024-04-09T17:05:45Z</time>
      </trkpt>
      <trkpt lat="43.64248" lon="1.3993">
        <ele>127</ele>
        <time>2024-04-09T17:05:46Z</time>
      </trkpt>
      <trkpt lat="43.64246" lon="1.3993">
        <ele>127</ele>
        <time>2024-04-09T17:05:47Z</time>
      </trkpt>
      <trkpt lat="43.64244" lon="1.39931">
        <ele>127</ele>
        <time>2024-04-09T17:05:48Z</time>
      </trkpt>
      <trkpt lat="43.64242" lon="1.39931">
        <ele>127</ele>
        <time>2024-04-09T17:05:49Z</time>
      </trkpt>
      <trkpt lat="43.6424" lon="1.39932">
        <ele>127</ele>
        <time>2024-04-09T17:05:50Z</time>
      </trkpt>
      <trkpt lat="43.64237" lon="1.39933">
        <ele>127</ele>
        <time>2024-04-09T17:05:51Z</time>
      </trkpt>
      <trkpt lat="43.64236" lon="1.39934">
        <ele>127</ele>
        <time>2024-04-09T17:05:52Z</time>
      </trkpt>
      <trkpt lat="43.64236" lon="1.39934">
        <ele>127</ele>
        <time>2024-04-09T17:05:53Z</time>
      </trkpt>
      <trkpt lat="43.64231" lon="1.39936">
        <ele>127</ele>
        <time>2024-04-09T17:05:54Z</time>
      </trkpt>
      <trkpt lat="43.6423" lon="1.39936">
        <ele>127</ele>
        <time>2024-04-09T17:05:55Z</time>
      </trkpt>
      <trkpt lat="43.64228" lon="1.39937">
        <ele>127</ele>
        <time>2024-04-09T17:05:56Z</time>
      </trkpt>
      <trkpt lat="43.64226" lon="1.39939">
        <ele>127</ele>
        <time>2024-04-09T17:05:57Z</time>
      </trkpt>
      <trkpt lat="43.64224" lon="1.3994">
        <ele>127</ele>
        <time>2024-04-09T17:05:58Z</time>
      </trkpt>
      <trkpt lat="43.64222" lon="1.39942">
        <ele>127</ele>
        <time>2024-04-09T17:05:59Z</time>
      </trkpt>
      <trkpt lat="43.64219" lon="1.39945">
        <ele>127</ele>
        <time>2024-04-09T17:06:00Z</time>
      </trkpt>
      <trkpt lat="43.64218" lon="1.39946">
        <ele>127</ele>
        <time>2024-04-09T17:06:01Z</time>
      </trkpt>
      <trkpt lat="43.64216" lon="1.39948">
        <ele>127</ele>
        <time>2024-04-09T17:06:02Z</time>
      </trkpt>
      <trkpt lat="43.64214" lon="1.39951">
        <ele>127</ele>
        <time>2024-04-09T17:06:03Z</time>
      </trkpt>
      <trkpt lat="43.64212" lon="1.39953">
        <ele>127</ele>
        <time>2024-04-09T17:06:04Z</time>
      </trkpt>
      <trkpt lat="43.64209" lon="1.39955">
        <ele>127</ele>
        <time>2024-04-09T17:06:05Z</time>
      </trkpt>
      <trkpt lat="43.64208" lon="1.39956">
        <ele>127</ele>
        <time>2024-04-09T17:06:06Z</time>
      </trkpt>
      <trkpt lat="43.64206" lon="1.39959">
        <ele>127</ele>
        <time>2024-04-09T17:06:07Z</time>
      </trkpt>
      <trkpt lat="43.64205" lon="1.3996">
        <ele>127</ele>
        <time>2024-04-09T17:06:08Z</time>
      </trkpt>
      <trkpt lat="43.64202" lon="1.39963">
        <ele>127</ele>
        <time>2024-04-09T17:06:09Z</time>
      </trkpt>
      <trkpt lat="43.64201" lon="1.39964">
        <ele>127</ele>
        <time>2024-04-09T17:06:10Z</time>
      </trkpt>
      <trkpt lat="43.64199" lon="1.39966">
        <ele>127</ele>
        <time>2024-04-09T17:06:11Z</time>
      </trkpt>
      <trkpt lat="43.64197" lon="1.39967">
        <ele>127</ele>
        <time>2024-04-09T17:06:12Z</time>
      </trkpt>
      <trkpt lat="43.64193" lon="1.39969">
        <ele>127</ele>
        <time>2024-04-09T17:06:13Z</time>
      </trkpt>
      <trkpt lat="43.64193" lon="1.39969">
        <ele>127</ele>
        <time>2024-04-09T17:06:14Z</time>
      </trkpt>
      <trkpt lat="43.64191" lon="1.39971">
        <ele>127</ele>
        <time>2024-04-09T17:06:15Z</time>
      </trkpt>
      <trkpt lat="43.64189" lon="1.39972">
        <ele>127</ele>
        <time>2024-04-09T17:06:16Z</time>
      </trkpt>
      <trkpt lat="43.64187" lon="1.39972">
        <ele>127</ele>
        <time>2024-04-09T17:06:17Z</time>
      </trkpt>
      <trkpt lat="43.64185" lon="1.39973">
        <ele>127</ele>
        <time>2024-04-09T17:06:18Z</time>
      </trkpt>
      <trkpt lat="43.64181" lon="1.39974">
        <ele>127</ele>
        <time>2024-04-09T17:06:19Z</time>
      </trkpt>
      <trkpt lat="43.6418" lon="1.39975">
        <ele>127</ele>
        <time>2024-04-09T17:06:20Z</time>
      </trkpt>
      <trkpt lat="43.64177" lon="1.39976">
        <ele>127</ele>
        <time>2024-04-09T17:06:21Z</time>
      </trkpt>
      <trkpt lat="43.64176" lon="1.39977">
        <ele>127</ele>
        <time>2024-04-09T17:06:22Z</time>
      </trkpt>
      <trkpt lat="43.64173" lon="1.39977">
        <ele>127</ele>
        <time>2024-04-09T17:06:23Z</time>
      </trkpt>
      <trkpt lat="43.6417" lon="1.39978">
        <ele>127</ele>
        <time>2024-04-09T17:06:24Z</time>
      </trkpt>
      <trkpt lat="43.64169" lon="1.39978">
        <ele>127</ele>
        <time>2024-04-09T17:06:25Z</time>
      </trkpt>
      <trkpt lat="43.64166" lon="1.3998">
        <ele>127</ele>
        <time>2024-04-09T17:06:26Z</time>
      </trkpt>
      <trkpt lat="43.64165" lon="1.3998">
        <ele>127</ele>
        <time>2024-04-09T17:06:27Z</time>
      </trkpt>
      <trkpt lat="43.64163" lon="1.39981">
        <ele>127</ele>
        <time>2024-04-09T17:06:28Z</time>
      </trkpt>
      <trkpt lat="43.6416" lon="1.39981">
        <ele>127</ele>
        <time>2024-04-09T17:06:29Z</time>
      </trkpt>
      <trkpt lat="43.64158" lon="1.39982">
        <ele>127</ele>
        <time>2024-04-09T17:06:30Z</time>
      </trkpt>
      <trkpt lat="43.64156" lon="1.39983">
        <ele>127</ele>
        <time>2024-04-09T17:06:31Z</time>
      </trkpt>
      <trkpt lat="43.64154" lon="1.39984">
        <ele>127</ele>
        <time>2024-04-09T17:06:32Z</time>
      </trkpt>
      <trkpt lat="43.64151" lon="1.39984">
        <ele>127</ele>
        <time>2024-04-09T17:06:33Z</time>
      </trkpt>
      <trkpt lat="43.64149" lon="1.39984">
        <ele>127</ele>
        <time>2024-04-09T17:06:34Z</time>
      </trkpt>
      <trkpt lat="43.64146" lon="1.39985">
        <ele>127</ele>
        <time>2024-04-09T17:06:35Z</time>
      </trkpt>
      <trkpt lat="43.64144" lon="1.39986">
        <ele>127</ele>
        <time>2024-04-09T17:06:36Z</time>
      </trkpt>
      <trkpt lat="43.64142" lon="1.39986">
        <ele>127</ele>
        <time>2024-04-09T17:06:37Z</time>
      </trkpt>
      <trkpt lat="43.6414" lon="1.39986">
        <ele>127</ele>
        <time>2024-04-09T17:06:38Z</time>
      </trkpt>
      <trkpt lat="43.64137" lon="1.39987">
        <ele>127</ele>
        <time>2024-04-09T17:06:39Z</time>
      </trkpt>
      <trkpt lat="43.64136" lon="1.39987">
        <ele>128</ele>
        <time>2024-04-09T17:06:40Z</time>
      </trkpt>
      <trkpt lat="43.64136" lon="1.39987">
        <ele>128</ele>
        <time>2024-04-09T17:06:41Z</time>
      </trkpt>
      <trkpt lat="43.64134" lon="1.39988">
        <ele>128</ele>
        <time>2024-04-09T17:06:42Z</time>
      </trkpt>
      <trkpt lat="43.64134" lon="1.39988">
        <ele>128</ele>
        <time>2024-04-09T17:06:43Z</time>
      </trkpt>
      <trkpt lat="43.64131" lon="1.39989">
        <ele>128</ele>
        <time>2024-04-09T17:06:44Z</time>
      </trkpt>
      <trkpt lat="43.64128" lon="1.3999">
        <ele>128</ele>
        <time>2024-04-09T17:06:45Z</time>
      </trkpt>
      <trkpt lat="43.64124" lon="1.39991">
        <ele>128</ele>
        <time>2024-04-09T17:06:46Z</time>
      </trkpt>
      <trkpt lat="43.64123" lon="1.39992">
        <ele>128</ele>
        <time>2024-04-09T17:06:47Z</time>
      </trkpt>
      <trkpt lat="43.64121" lon="1.39997">
        <ele>128</ele>
        <time>2024-04-09T17:06:48Z</time>
      </trkpt>
      <trkpt lat="43.6412" lon="1.39998">
        <ele>128</ele>
        <time>2024-04-09T17:06:49Z</time>
      </trkpt>
      <trkpt lat="43.64119" lon="1.4">
        <ele>128</ele>
        <time>2024-04-09T17:06:50Z</time>
      </trkpt>
      <trkpt lat="43.64118" lon="1.40003">
        <ele>128</ele>
        <time>2024-04-09T17:06:51Z</time>
      </trkpt>
      <trkpt lat="43.64117" lon="1.40006">
        <ele>129</ele>
        <time>2024-04-09T17:06:52Z</time>
      </trkpt>
      <trkpt lat="43.64116" lon="1.40007">
        <ele>129</ele>
        <time>2024-04-09T17:06:53Z</time>
      </trkpt>
      <trkpt lat="43.64114" lon="1.4001">
        <ele>129</ele>
        <time>2024-04-09T17:06:54Z</time>
      </trkpt>
      <trkpt lat="43.64113" lon="1.40013">
        <ele>129</ele>
        <time>2024-04-09T17:06:55Z</time>
      </trkpt>
      <trkpt lat="43.64112" lon="1.40015">
        <ele>129</ele>
        <time>2024-04-09T17:06:56Z</time>
      </trkpt>
      <trkpt lat="43.64111" lon="1.40018">
        <ele>129</ele>
        <time>2024-04-09T17:06:57Z</time>
      </trkpt>
      <trkpt lat="43.6411" lon="1.4002">
        <ele>129</ele>
        <time>2024-04-09T17:06:58Z</time>
      </trkpt>
      <trkpt lat="43.64108" lon="1.40026">
        <ele>129</ele>
        <time>2024-04-09T17:06:59Z</time>
      </trkpt>
      <trkpt lat="43.64108" lon="1.40026">
        <ele>129</ele>
        <time>2024-04-09T17:07:00Z</time>
      </trkpt>
      <trkpt lat="43.64106" lon="1.4003">
        <ele>129</ele>
        <time>2024-04-09T17:07:01Z</time>
      </trkpt>
      <trkpt lat="43.64105" lon="1.40031">
        <ele>129</ele>
        <time>2024-04-09T17:07:02Z</time>
      </trkpt>
      <trkpt lat="43.64103" lon="1.40033">
        <ele>129</ele>
        <time>2024-04-09T17:07:03Z</time>
      </trkpt>
      <trkpt lat="43.64102" lon="1.40036">
        <ele>129</ele>
        <time>2024-04-09T17:07:04Z</time>
      </trkpt>
      <trkpt lat="43.64101" lon="1.40039">
        <ele>129</ele>
        <time>2024-04-09T17:07:05Z</time>
      </trkpt>
      <trkpt lat="43.641" lon="1.40041">
        <ele>129</ele>
        <time>2024-04-09T17:07:06Z</time>
      </trkpt>
      <trkpt lat="43.64099" lon="1.40044">
        <ele>129</ele>
        <time>2024-04-09T17:07:07Z</time>
      </trkpt>
      <trkpt lat="43.64097" lon="1.40047">
        <ele>129</ele>
        <time>2024-04-09T17:07:08Z</time>
      </trkpt>
      <trkpt lat="43.64096" lon="1.4005">
        <ele>129</ele>
        <time>2024-04-09T17:07:09Z</time>
      </trkpt>
      <trkpt lat="43.64094" lon="1.40055">
        <ele>129</ele>
        <time>2024-04-09T17:07:10Z</time>
      </trkpt>
      <trkpt lat="43.64094" lon="1.40055">
        <ele>129</ele>
        <time>2024-04-09T17:07:11Z</time>
      </trkpt>
      <trkpt lat="43.64091" lon="1.40059">
        <ele>129</ele>
        <time>2024-04-09T17:07:12Z</time>
      </trkpt>
      <trkpt lat="43.64091" lon="1.4006">
        <ele>129</ele>
        <time>2024-04-09T17:07:13Z</time>
      </trkpt>
      <trkpt lat="43.64088" lon="1.40064">
        <ele>129</ele>
        <time>2024-04-09T17:07:14Z</time>
      </trkpt>
      <trkpt lat="43.64088" lon="1.40065">
        <ele>129</ele>
        <time>2024-04-09T17:07:15Z</time>
      </trkpt>
      <trkpt lat="43.64085" lon="1.40069">
        <ele>129</ele>
        <time>2024-04-09T17:07:16Z</time>
      </trkpt>
      <trkpt lat="43.64084" lon="1.4007">
        <ele>129</ele>
        <time>2024-04-09T17:07:17Z</time>
      </trkpt>
      <trkpt lat="43.64082" lon="1.40072">
        <ele>129</ele>
        <time>2024-04-09T17:07:18Z</time>
      </trkpt>
      <trkpt lat="43.6408" lon="1.40076">
        <ele>129</ele>
        <time>2024-04-09T17:07:19Z</time>
      </trkpt>
      <trkpt lat="43.64079" lon="1.40077">
        <ele>129</ele>
        <time>2024-04-09T17:07:20Z</time>
      </trkpt>
      <trkpt lat="43.64077" lon="1.40079">
        <ele>129</ele>
        <time>2024-04-09T17:07:21Z</time>
      </trkpt>
      <trkpt lat="43.64075" lon="1.40081">
        <ele>129</ele>
        <time>2024-04-09T17:07:22Z</time>
      </trkpt>
      <trkpt lat="43.64073" lon="1.40083">
        <ele>129</ele>
        <time>2024-04-09T17:07:23Z</time>
      </trkpt>
      <trkpt lat="43.64071" lon="1.40086">
        <ele>129</ele>
        <time>2024-04-09T17:07:24Z</time>
      </trkpt>
      <trkpt lat="43.6407" lon="1.40086">
        <ele>129</ele>
        <time>2024-04-09T17:07:25Z</time>
      </trkpt>
      <trkpt lat="43.64067" lon="1.40089">
        <ele>129</ele>
        <time>2024-04-09T17:07:26Z</time>
      </trkpt>
      <trkpt lat="43.64066" lon="1.4009">
        <ele>129</ele>
        <time>2024-04-09T17:07:27Z</time>
      </trkpt>
      <trkpt lat="43.64064" lon="1.40092">
        <ele>129</ele>
        <time>2024-04-09T17:07:28Z</time>
      </trkpt>
      <trkpt lat="43.64062" lon="1.40093">
        <ele>129</ele>
        <time>2024-04-09T17:07:29Z</time>
      </trkpt>
      <trkpt lat="43.6406" lon="1.40095">
        <ele>129</ele>
        <time>2024-04-09T17:07:30Z</time>
      </trkpt>
      <trkpt lat="43.64058" lon="1.40097">
        <ele>129</ele>
        <time>2024-04-09T17:07:31Z</time>
      </trkpt>
      <trkpt lat="43.64056" lon="1.40099">
        <ele>129</ele>
        <time>2024-04-09T17:07:32Z</time>
      </trkpt>
      <trkpt lat="43.64053" lon="1.40102">
        <ele>129</ele>
        <time>2024-04-09T17:07:33Z</time>
      </trkpt>
      <trkpt lat="43.64053" lon="1.40102">
        <ele>129</ele>
        <time>2024-04-09T17:07:34Z</time>
      </trkpt>
      <trkpt lat="43.6405" lon="1.40105">
        <ele>129</ele>
        <time>2024-04-09T17:07:35Z</time>
      </trkpt>
      <trkpt lat="43.64049" lon="1.40106">
        <ele>129</ele>
        <time>2024-04-09T17:07:36Z</time>
      </trkpt>
      <trkpt lat="43.64047" lon="1.40108">
        <ele>129</ele>
        <time>2024-04-09T17:07:37Z</time>
      </trkpt>
      <trkpt lat="43.64045" lon="1.40111">
        <ele>129</ele>
        <time>2024-04-09T17:07:38Z</time>
      </trkpt>
      <trkpt lat="43.64043" lon="1.40113">
        <ele>129</ele>
        <time>2024-04-09T17:07:39Z</time>
      </trkpt>
      <trkpt lat="43.64041" lon="1.40114">
        <ele>129</ele>
        <time>2024-04-09T17:07:40Z</time>
      </trkpt>
      <trkpt lat="43.64039" lon="1.40117">
        <ele>129</ele>
        <time>2024-04-09T17:07:41Z</time>
      </trkpt>
      <trkpt lat="43.64037" lon="1.40119">
        <ele>129</ele>
        <time>2024-04-09T17:07:42Z</time>
      </trkpt>
      <trkpt lat="43.64036" lon="1.40121">
        <ele>129</ele>
        <time>2024-04-09T17:07:43Z</time>
      </trkpt>
      <trkpt lat="43.64034" lon="1.40122">
        <ele>129</ele>
        <time>2024-04-09T17:07:44Z</time>
      </trkpt>
      <trkpt lat="43.64032" lon="1.40124">
        <ele>129</ele>
        <time>2024-04-09T17:07:45Z</time>
      </trkpt>
      <trkpt lat="43.6403" lon="1.40126">
        <ele>129</ele>
        <time>2024-04-09T17:07:46Z</time>
      </trkpt>
      <trkpt lat="43.64026" lon="1.40129">
        <ele>129</ele>
        <time>2024-04-09T17:07:47Z</time>
      </trkpt>
      <trkpt lat="43.64024" lon="1.40131">
        <ele>129</ele>
        <time>2024-04-09T17:07:48Z</time>
      </trkpt>
      <trkpt lat="43.64024" lon="1.40131">
        <ele>129</ele>
        <time>2024-04-09T17:07:49Z</time>
      </trkpt>
      <trkpt lat="43.64022" lon="1.40132">
        <ele>129</ele>
        <time>2024-04-09T17:07:50Z</time>
      </trkpt>
      <trkpt lat="43.6402" lon="1.40135">
        <ele>129</ele>
        <time>2024-04-09T17:07:51Z</time>
      </trkpt>
      <trkpt lat="43.64019" lon="1.40137">
        <ele>129</ele>
        <time>2024-04-09T17:07:52Z</time>
      </trkpt>
      <trkpt lat="43.64017" lon="1.40139">
        <ele>129</ele>
        <time>2024-04-09T17:07:53Z</time>
      </trkpt>
      <trkpt lat="43.64014" lon="1.40142">
        <ele>129</ele>
        <time>2024-04-09T17:07:54Z</time>
      </trkpt>
      <trkpt lat="43.64013" lon="1.40143">
        <ele>129</ele>
        <time>2024-04-09T17:07:55Z</time>
      </trkpt>
      <trkpt lat="43.6401" lon="1.40146">
        <ele>129</ele>
        <time>2024-04-09T17:07:56Z</time>
      </trkpt>
      <trkpt lat="43.64009" lon="1.40146">
        <ele>129</ele>
        <time>2024-04-09T17:07:57Z</time>
      </trkpt>
      <trkpt lat="43.64007" lon="1.40148">
        <ele>129</ele>
        <time>2024-04-09T17:07:58Z</time>
      </trkpt>
      <trkpt lat="43.64005" lon="1.40149">
        <ele>129</ele>
        <time>2024-04-09T17:07:59Z</time>
      </trkpt>
      <trkpt lat="43.64003" lon="1.40151">
        <ele>129</ele>
        <time>2024-04-09T17:08:00Z</time>
      </trkpt>
      <trkpt lat="43.64001" lon="1.40152">
        <ele>129</ele>
        <time>2024-04-09T17:08:01Z</time>
      </trkpt>
      <trkpt lat="43.63999" lon="1.40154">
        <ele>129</ele>
        <time>2024-04-09T17:08:02Z</time>
      </trkpt>
      <trkpt lat="43.63997" lon="1.40156">
        <ele>129</ele>
        <time>2024-04-09T17:08:03Z</time>
      </trkpt>
      <trkpt lat="43.63995" lon="1.40158">
        <ele>129</ele>
        <time>2024-04-09T17:08:04Z</time>
      </trkpt>
      <trkpt lat="43.63993" lon="1.40159">
        <ele>129</ele>
        <time>2024-04-09T17:08:05Z</time>
      </trkpt>
      <trkpt lat="43.63991" lon="1.40161">
        <ele>129</ele>
        <time>2024-04-09T17:08:06Z</time>
      </trkpt>
      <trkpt lat="43.63989" lon="1.40162">
        <ele>129</ele>
        <time>2024-04-09T17:08:07Z</time>
      </trkpt>
      <trkpt lat="43.63986" lon="1.40164">
        <ele>129</ele>
        <time>2024-04-09T17:08:08Z</time>
      </trkpt>
      <trkpt lat="43.63984" lon="1.40166">
        <ele>129</ele>
        <time>2024-04-09T17:08:09Z</time>
      </trkpt>
      <trkpt lat="43.63982" lon="1.40168">
        <ele>129</ele>
        <time>2024-04-09T17:08:10Z</time>
      </trkpt>
      <trkpt lat="43.63981" lon="1.4017">
        <ele>129</ele>
        <time>2024-04-09T17:08:11Z</time>
      </trkpt>
      <trkpt lat="43.63979" lon="1.40172">
        <ele>129</ele>
        <time>2024-04-09T17:08:12Z</time>
      </trkpt>
      <trkpt lat="43.63977" lon="1.40174">
        <ele>129</ele>
        <time>2024-04-09T17:08:13Z</time>
      </trkpt>
      <trkpt lat="43.63975" lon="1.40175">
        <ele>129</ele>
        <time>2024-04-09T17:08:14Z</time>
      </trkpt>
      <trkpt lat="43.63973" lon="1.40177">
        <ele>129</ele>
        <time>2024-04-09T17:08:15Z</time>
      </trkpt>
      <trkpt lat="43.63971" lon="1.40179">
        <ele>129</ele>
        <time>2024-04-09T17:08:16Z</time>
      </trkpt>
      <trkpt lat="43.63969" lon="1.4018">
        <ele>129</ele>
        <time>2024-04-09T17:08:17Z</time>
      </trkpt>
      <trkpt lat="43.63966" lon="1.40182">
        <ele>129</ele>
        <time>2024-04-09T17:08:18Z</time>
      </trkpt>
      <trkpt lat="43.63964" lon="1.40184">
        <ele>129</ele>
        <time>2024-04-09T17:08:19Z</time>
      </trkpt>
      <trkpt lat="43.63962" lon="1.40185">
        <ele>129</ele>
        <time>2024-04-09T17:08:20Z</time>
      </trkpt>
      <trkpt lat="43.6396" lon="1.40187">
        <ele>129</ele>
        <time>2024-04-09T17:08:21Z</time>
      </trkpt>
      <trkpt lat="43.63958" lon="1.40189">
        <ele>129</ele>
        <time>2024-04-09T17:08:22Z</time>
      </trkpt>
      <trkpt lat="43.63956" lon="1.4019">
        <ele>129</ele>
        <time>2024-04-09T17:08:23Z</time>
      </trkpt>
      <trkpt lat="43.63953" lon="1.40193">
        <ele>130</ele>
        <time>2024-04-09T17:08:24Z</time>
      </trkpt>
      <trkpt lat="43.63952" lon="1.40194">
        <ele>130</ele>
        <time>2024-04-09T17:08:25Z</time>
      </trkpt>
      <trkpt lat="43.6395" lon="1.40195">
        <ele>130</ele>
        <time>2024-04-09T17:08:26Z</time>
      </trkpt>
      <trkpt lat="43.63948" lon="1.40197">
        <ele>130</ele>
        <time>2024-04-09T17:08:27Z</time>
      </trkpt>
      <trkpt lat="43.63946" lon="1.40198">
        <ele>130</ele>
        <time>2024-04-09T17:08:28Z</time>
      </trkpt>
      <trkpt lat="43.63944" lon="1.402">
        <ele>130</ele>
        <time>2024-04-09T17:08:29Z</time>
      </trkpt>
      <trkpt lat="43.63942" lon="1.40201">
        <ele>130</ele>
        <time>2024-04-09T17:08:30Z</time>
      </trkpt>
      <trkpt lat="43.6394" lon="1.40203">
        <ele>130</ele>
        <time>2024-04-09T17:08:31Z</time>
      </trkpt>
      <trkpt lat="43.63938" lon="1.40204">
        <ele>130</ele>
        <time>2024-04-09T17:08:32Z</time>
      </trkpt>
      <trkpt lat="43.63936" lon="1.40206">
        <ele>130</ele>
        <time>2024-04-09T17:08:33Z</time>
      </trkpt>
      <trkpt lat="43.63932" lon="1.40208">
        <ele>130</ele>
        <time>2024-04-09T17:08:34Z</time>
      </trkpt>
      <trkpt lat="43.63932" lon="1.40208">
        <ele>130</ele>
        <time>2024-04-09T17:08:35Z</time>
      </trkpt>
      <trkpt lat="43.6393" lon="1.4021">
        <ele>130</ele>
        <time>2024-04-09T17:08:36Z</time>
      </trkpt>
      <trkpt lat="43.63929" lon="1.40211">
        <ele>130</ele>
        <time>2024-04-09T17:08:37Z</time>
      </trkpt>
      <trkpt lat="43.63927" lon="1.40212">
        <ele>130</ele>
        <time>2024-04-09T17:08:38Z</time>
      </trkpt>
      <trkpt lat="43.63925" lon="1.40213">
        <ele>130</ele>
        <time>2024-04-09T17:08:39Z</time>
      </trkpt>
      <trkpt lat="43.63922" lon="1.40214">
        <ele>130</ele>
        <time>2024-04-09T17:08:40Z</time>
      </trkpt>
      <trkpt lat="43.63921" lon="1.40215">
        <ele>130</ele>
        <time>2024-04-09T17:08:41Z</time>
      </trkpt>
      <trkpt lat="43.63921" lon="1.40215">
        <ele>130</ele>
        <time>2024-04-09T17:08:42Z</time>
      </trkpt>
      <trkpt lat="43.63918" lon="1.40217">
        <ele>130</ele>
        <time>2024-04-09T17:08:43Z</time>
      </trkpt>
      <trkpt lat="43.63916" lon="1.40218">
        <ele>130</ele>
        <time>2024-04-09T17:08:44Z</time>
      </trkpt>
      <trkpt lat="43.63912" lon="1.4022">
        <ele>130</ele>
        <time>2024-04-09T17:08:45Z</time>
      </trkpt>
      <trkpt lat="43.63912" lon="1.4022">
        <ele>130</ele>
        <time>2024-04-09T17:08:46Z</time>
      </trkpt>
      <trkpt lat="43.63911" lon="1.40222">
        <ele>130</ele>
        <time>2024-04-09T17:08:47Z</time>
      </trkpt>
      <trkpt lat="43.63908" lon="1.40223">
        <ele>130</ele>
        <time>2024-04-09T17:08:48Z</time>
      </trkpt>
      <trkpt lat="43.63906" lon="1.40224">
        <ele>129</ele>
        <time>2024-04-09T17:08:49Z</time>
      </trkpt>
      <trkpt lat="43.63905" lon="1.40225">
        <ele>129</ele>
        <time>2024-04-09T17:08:50Z</time>
      </trkpt>
      <trkpt lat="43.63905" lon="1.40225">
        <ele>129</ele>
        <time>2024-04-09T17:08:51Z</time>
      </trkpt>
      <trkpt lat="43.63901" lon="1.40227">
        <ele>129</ele>
        <time>2024-04-09T17:08:52Z</time>
      </trkpt>
      <trkpt lat="43.63898" lon="1.40228">
        <ele>129</ele>
        <time>2024-04-09T17:08:53Z</time>
      </trkpt>
      <trkpt lat="43.63897" lon="1.40229">
        <ele>129</ele>
        <time>2024-04-09T17:08:54Z</time>
      </trkpt>
      <trkpt lat="43.63894" lon="1.4023">
        <ele>129</ele>
        <time>2024-04-09T17:08:55Z</time>
      </trkpt>
      <trkpt lat="43.63893" lon="1.4023">
        <ele>129</ele>
        <time>2024-04-09T17:08:56Z</time>
      </trkpt>
      <trkpt lat="43.6389" lon="1.40231">
        <ele>129</ele>
        <time>2024-04-09T17:08:57Z</time>
      </trkpt>
      <trkpt lat="43.63888" lon="1.40232">
        <ele>130</ele>
        <time>2024-04-09T17:08:58Z</time>
      </trkpt>
      <trkpt lat="43.63886" lon="1.40233">
        <ele>130</ele>
        <time>2024-04-09T17:08:59Z</time>
      </trkpt>
      <trkpt lat="43.63882" lon="1.40235">
        <ele>130</ele>
        <time>2024-04-09T17:09:00Z</time>
      </trkpt>
      <trkpt lat="43.63881" lon="1.40235">
        <ele>130</ele>
        <time>2024-04-09T17:09:01Z</time>
      </trkpt>
      <trkpt lat="43.63879" lon="1.40235">
        <ele>130</ele>
        <time>2024-04-09T17:09:02Z</time>
      </trkpt>
      <trkpt lat="43.63877" lon="1.40236">
        <ele>130</ele>
        <time>2024-04-09T17:09:03Z</time>
      </trkpt>
      <trkpt lat="43.63875" lon="1.40237">
        <ele>130</ele>
        <time>2024-04-09T17:09:04Z</time>
      </trkpt>
      <trkpt lat="43.63873" lon="1.40238">
        <ele>130</ele>
        <time>2024-04-09T17:09:05Z</time>
      </trkpt>
      <trkpt lat="43.6387" lon="1.40238">
        <ele>130</ele>
        <time>2024-04-09T17:09:06Z</time>
      </trkpt>
      <trkpt lat="43.63868" lon="1.40239">
        <ele>130</ele>
        <time>2024-04-09T17:09:07Z</time>
      </trkpt>
      <trkpt lat="43.63866" lon="1.4024">
        <ele>130</ele>
        <time>2024-04-09T17:09:08Z</time>
      </trkpt>
      <trkpt lat="43.63863" lon="1.4024">
        <ele>130</ele>
        <time>2024-04-09T17:09:09Z</time>
      </trkpt>
      <trkpt lat="43.63861" lon="1.40241">
        <ele>130</ele>
        <time>2024-04-09T17:09:10Z</time>
      </trkpt>
      <trkpt lat="43.63859" lon="1.40242">
        <ele>130</ele>
        <time>2024-04-09T17:09:11Z</time>
      </trkpt>
      <trkpt lat="43.63856" lon="1.40243">
        <ele>130</ele>
        <time>2024-04-09T17:09:12Z</time>
      </trkpt>
      <trkpt lat="43.63853" lon="1.40244">
        <ele>130</ele>
        <time>2024-04-09T17:09:13Z</time>
      </trkpt>
      <trkpt lat="43.63851" lon="1.40244">
        <ele>130</ele>
        <time>2024-04-09T17:09:14Z</time>
      </trkpt>
      <trkpt lat="43.63849" lon="1.40244">
        <ele>130</ele>
        <time>2024-04-09T17:09:15Z</time>
      </trkpt>
      <trkpt lat="43.63847" lon="1.40246">
        <ele>130</ele>
        <time>2024-04-09T17:09:16Z</time>
      </trkpt>
      <trkpt lat="43.63845" lon="1.40247">
        <ele>130</ele>
        <time>2024-04-09T17:09:17Z</time>
      </trkpt>
      <trkpt lat="43.63842" lon="1.40248">
        <ele>130</ele>
        <time>2024-04-09T17:09:18Z</time>
      </trkpt>
      <trkpt lat="43.6384" lon="1.40248">
        <ele>130</ele>
        <time>2024-04-09T17:09:19Z</time>
      </trkpt>
      <trkpt lat="43.63837" lon="1.40249">
        <ele>130</ele>
        <time>2024-04-09T17:09:20Z</time>
      </trkpt>
      <trkpt lat="43.63835" lon="1.40249">
        <ele>130</ele>
        <time>2024-04-09T17:09:21Z</time>
      </trkpt>
      <trkpt lat="43.63833" lon="1.4025">
        <ele>130</ele>
        <time>2024-04-09T17:09:22Z</time>
      </trkpt>
      <trkpt lat="43.6383" lon="1.40251">
        <ele>130</ele>
        <time>2024-04-09T17:09:23Z</time>
      </trkpt>
      <trkpt lat="43.63827" lon="1.40252">
        <ele>129</ele>
        <time>2024-04-09T17:09:24Z</time>
      </trkpt>
      <trkpt lat="43.63825" lon="1.40253">
        <ele>129</ele>
        <time>2024-04-09T17:09:25Z</time>
      </trkpt>
      <trkpt lat="43.63823" lon="1.40253">
        <ele>129</ele>
        <time>2024-04-09T17:09:26Z</time>
      </trkpt>
      <trkpt lat="43.6382" lon="1.40254">
        <ele>129</ele>
        <time>2024-04-09T17:09:27Z</time>
      </trkpt>
      <trkpt lat="43.63818" lon="1.40255">
        <ele>129</ele>
        <time>2024-04-09T17:09:28Z</time>
      </trkpt>
      <trkpt lat="43.63815" lon="1.40255">
        <ele>129</ele>
        <time>2024-04-09T17:09:29Z</time>
      </trkpt>
      <trkpt lat="43.63813" lon="1.40256">
        <ele>129</ele>
        <time>2024-04-09T17:09:30Z</time>
      </trkpt>
      <trkpt lat="43.6381" lon="1.40257">
        <ele>129</ele>
        <time>2024-04-09T17:09:31Z</time>
      </trkpt>
      <trkpt lat="43.63807" lon="1.40258">
        <ele>129</ele>
        <time>2024-04-09T17:09:32Z</time>
      </trkpt>
      <trkpt lat="43.63804" lon="1.40258">
        <ele>129</ele>
        <time>2024-04-09T17:09:33Z</time>
      </trkpt>
      <trkpt lat="43.63802" lon="1.40258">
        <ele>129</ele>
        <time>2024-04-09T17:09:34Z</time>
      </trkpt>
      <trkpt lat="43.63799" lon="1.40259">
        <ele>129</ele>
        <time>2024-04-09T17:09:35Z</time>
      </trkpt>
      <trkpt lat="43.63796" lon="1.40259">
        <ele>129</ele>
        <time>2024-04-09T17:09:36Z</time>
      </trkpt>
      <trkpt lat="43.63794" lon="1.4026">
        <ele>129</ele>
        <time>2024-04-09T17:09:37Z</time>
      </trkpt>
      <trkpt lat="43.63791" lon="1.4026">
        <ele>129</ele>
        <time>2024-04-09T17:09:38Z</time>
      </trkpt>
      <trkpt lat="43.63789" lon="1.4026">
        <ele>129</ele>
        <time>2024-04-09T17:09:39Z</time>
      </trkpt>
      <trkpt lat="43.63785" lon="1.4026">
        <ele>129</ele>
        <time>2024-04-09T17:09:40Z</time>
      </trkpt>
      <trkpt lat="43.63784" lon="1.4026">
        <ele>129</ele>
        <time>2024-04-09T17:09:41Z</time>
      </trkpt>
      <trkpt lat="43.63781" lon="1.40261">
        <ele>129</ele>
        <time>2024-04-09T17:09:42Z</time>
      </trkpt>
      <trkpt lat="43.63779" lon="1.40262">
        <ele>129</ele>
        <time>2024-04-09T17:09:43Z</time>
      </trkpt>
      <trkpt lat="43.63777" lon="1.40263">
        <ele>129</ele>
        <time>2024-04-09T17:09:44Z</time>
      </trkpt>
      <trkpt lat="43.63774" lon="1.40263">
        <ele>129</ele>
        <time>2024-04-09T17:09:45Z</time>
      </trkpt>
      <trkpt lat="43.63772" lon="1.40263">
        <ele>129</ele>
        <time>2024-04-09T17:09:46Z</time>
      </trkpt>
      <trkpt lat="43.63769" lon="1.40263">
        <ele>129</ele>
        <time>2024-04-09T17:09:47Z</time>
      </trkpt>
      <trkpt lat="43.63767" lon="1.40263">
        <ele>129</ele>
        <time>2024-04-09T17:09:48Z</time>
      </trkpt>
      <trkpt lat="43.63765" lon="1.40264">
        <ele>129</ele>
        <time>2024-04-09T17:09:49Z</time>
      </trkpt>
      <trkpt lat="43.63762" lon="1.40264">
        <ele>129</ele>
        <time>2024-04-09T17:09:50Z</time>
      </trkpt>
      <trkpt lat="43.6376" lon="1.40265">
        <ele>129</ele>
        <time>2024-04-09T17:09:51Z</time>
      </trkpt>
      <trkpt lat="43.63758" lon="1.40265">
        <ele>129</ele>
        <time>2024-04-09T17:09:52Z</time>
      </trkpt>
      <trkpt lat="43.63755" lon="1.40265">
        <ele>129</ele>
        <time>2024-04-09T17:09:53Z</time>
      </trkpt>
      <trkpt lat="43.63753" lon="1.40266">
        <ele>129</ele>
        <time>2024-04-09T17:09:54Z</time>
      </trkpt>
      <trkpt lat="43.63751" lon="1.40266">
        <ele>129</ele>
        <time>2024-04-09T17:09:55Z</time>
      </trkpt>
      <trkpt lat="43.63748" lon="1.40267">
        <ele>129</ele>
        <time>2024-04-09T17:09:56Z</time>
      </trkpt>
      <trkpt lat="43.63746" lon="1.40267">
        <ele>129</ele>
        <time>2024-04-09T17:09:57Z</time>
      </trkpt>
      <trkpt lat="43.63744" lon="1.40267">
        <ele>129</ele>
        <time>2024-04-09T17:09:58Z</time>
      </trkpt>
      <trkpt lat="43.63742" lon="1.40268">
        <ele>129</ele>
        <time>2024-04-09T17:09:59Z</time>
      </trkpt>
      <trkpt lat="43.6374" lon="1.40268">
        <ele>129</ele>
        <time>2024-04-09T17:10:00Z</time>
      </trkpt>
      <trkpt lat="43.63738" lon="1.40268">
        <ele>129</ele>
        <time>2024-04-09T17:10:01Z</time>
      </trkpt>
      <trkpt lat="43.63736" lon="1.40269">
        <ele>129</ele>
        <time>2024-04-09T17:10:02Z</time>
      </trkpt>
      <trkpt lat="43.63734" lon="1.40269">
        <ele>129</ele>
        <time>2024-04-09T17:10:03Z</time>
      </trkpt>
      <trkpt lat="43.63731" lon="1.4027">
        <ele>129</ele>
        <time>2024-04-09T17:10:04Z</time>
      </trkpt>
      <trkpt lat="43.63729" lon="1.4027">
        <ele>129</ele>
        <time>2024-04-09T17:10:05Z</time>
      </trkpt>
      <trkpt lat="43.63727" lon="1.4027">
        <ele>129</ele>
        <time>2024-04-09T17:10:06Z</time>
      </trkpt>
      <trkpt lat="43.63725" lon="1.40271">
        <ele>129</ele>
        <time>2024-04-09T17:10:07Z</time>
      </trkpt>
      <trkpt lat="43.63723" lon="1.4027">
        <ele>129</ele>
        <time>2024-04-09T17:10:08Z</time>
      </trkpt>
      <trkpt lat="43.63721" lon="1.40271">
        <ele>129</ele>
        <time>2024-04-09T17:10:09Z</time>
      </trkpt>
      <trkpt lat="43.63719" lon="1.40271">
        <ele>129</ele>
        <time>2024-04-09T17:10:10Z</time>
      </trkpt>
      <trkpt lat="43.63715" lon="1.40272">
        <ele>129</ele>
        <time>2024-04-09T17:10:11Z</time>
      </trkpt>
      <trkpt lat="43.63714" lon="1.40272">
        <ele>129</ele>
        <time>2024-04-09T17:10:12Z</time>
      </trkpt>
      <trkpt lat="43.63712" lon="1.40272">
        <ele>129</ele>
        <time>2024-04-09T17:10:13Z</time>
      </trkpt>
      <trkpt lat="43.6371" lon="1.40273">
        <ele>129</ele>
        <time>2024-04-09T17:10:14Z</time>
      </trkpt>
      <trkpt lat="43.63707" lon="1.40273">
        <ele>129</ele>
        <time>2024-04-09T17:10:15Z</time>
      </trkpt>
      <trkpt lat="43.63705" lon="1.40274">
        <ele>129</ele>
        <time>2024-04-09T17:10:16Z</time>
      </trkpt>
      <trkpt lat="43.63703" lon="1.40274">
        <ele>129</ele>
        <time>2024-04-09T17:10:17Z</time>
      </trkpt>
      <trkpt lat="43.63701" lon="1.40275">
        <ele>129</ele>
        <time>2024-04-09T17:10:18Z</time>
      </trkpt>
      <trkpt lat="43.63698" lon="1.40275">
        <ele>129</ele>
        <time>2024-04-09T17:10:19Z</time>
      </trkpt>
      <trkpt lat="43.63694" lon="1.40276">
        <ele>129</ele>
        <time>2024-04-09T17:10:20Z</time>
      </trkpt>
      <trkpt lat="43.63694" lon="1.40276">
        <ele>129</ele>
        <time>2024-04-09T17:10:21Z</time>
      </trkpt>
      <trkpt lat="43.63692" lon="1.40277">
        <ele>129</ele>
        <time>2024-04-09T17:10:22Z</time>
      </trkpt>
      <trkpt lat="43.6369" lon="1.40277">
        <ele>129</ele>
        <time>2024-04-09T17:10:23Z</time>
      </trkpt>
      <trkpt lat="43.63687" lon="1.40277">
        <ele>129</ele>
        <time>2024-04-09T17:10:24Z</time>
      </trkpt>
      <trkpt lat="43.63685" lon="1.40278">
        <ele>129</ele>
        <time>2024-04-09T17:10:25Z</time>
      </trkpt>
      <trkpt lat="43.63681" lon="1.40278">
        <ele>129</ele>
        <time>2024-04-09T17:10:26Z</time>
      </trkpt>
      <trkpt lat="43.6368" lon="1.40278">
        <ele>129</ele>
        <time>2024-04-09T17:10:27Z</time>
      </trkpt>
      <trkpt lat="43.63678" lon="1.40278">
        <ele>129</ele>
        <time>2024-04-09T17:10:28Z</time>
      </trkpt>
      <trkpt lat="43.63676" lon="1.40278">
        <ele>129</ele>
        <time>2024-04-09T17:10:29Z</time>
      </trkpt>
      <trkpt lat="43.63673" lon="1.40278">
        <ele>129</ele>
        <time>2024-04-09T17:10:30Z</time>
      </trkpt>
      <trkpt lat="43.63671" lon="1.40278">
        <ele>129</ele>
        <time>2024-04-09T17:10:31Z</time>
      </trkpt>
      <trkpt lat="43.63668" lon="1.40278">
        <ele>129</ele>
        <time>2024-04-09T17:10:32Z</time>
      </trkpt>
      <trkpt lat="43.63666" lon="1.40278">
        <ele>129</ele>
        <time>2024-04-09T17:10:33Z</time>
      </trkpt>
      <trkpt lat="43.63664" lon="1.40279">
        <ele>129</ele>
        <time>2024-04-09T17:10:34Z</time>
      </trkpt>
      <trkpt lat="43.63662" lon="1.40279">
        <ele>130</ele>
        <time>2024-04-09T17:10:35Z</time>
      </trkpt>
      <trkpt lat="43.63659" lon="1.40279">
        <ele>130</ele>
        <time>2024-04-09T17:10:36Z</time>
      </trkpt>
      <trkpt lat="43.63657" lon="1.40279">
        <ele>130</ele>
        <time>2024-04-09T17:10:37Z</time>
      </trkpt>
      <trkpt lat="43.63652" lon="1.4028">
        <ele>130</ele>
        <time>2024-04-09T17:10:38Z</time>
      </trkpt>
      <trkpt lat="43.6365" lon="1.4028">
        <ele>130</ele>
        <time>2024-04-09T17:10:39Z</time>
      </trkpt>
      <trkpt lat="43.6365" lon="1.4028">
        <ele>130</ele>
        <time>2024-04-09T17:10:40Z</time>
      </trkpt>
      <trkpt lat="43.63647" lon="1.4028">
        <ele>130</ele>
        <time>2024-04-09T17:10:41Z</time>
      </trkpt>
      <trkpt lat="43.63645" lon="1.4028">
        <ele>129</ele>
        <time>2024-04-09T17:10:42Z</time>
      </trkpt>
      <trkpt lat="43.63643" lon="1.40281">
        <ele>129</ele>
        <time>2024-04-09T17:10:43Z</time>
      </trkpt>
      <trkpt lat="43.6364" lon="1.40281">
        <ele>129</ele>
        <time>2024-04-09T17:10:44Z</time>
      </trkpt>
      <trkpt lat="43.63638" lon="1.40281">
        <ele>129</ele>
        <time>2024-04-09T17:10:45Z</time>
      </trkpt>
      <trkpt lat="43.63636" lon="1.40281">
        <ele>130</ele>
        <time>2024-04-09T17:10:46Z</time>
      </trkpt>
      <trkpt lat="43.63634" lon="1.40283">
        <ele>130</ele>
        <time>2024-04-09T17:10:47Z</time>
      </trkpt>
      <trkpt lat="43.63631" lon="1.40283">
        <ele>130</ele>
        <time>2024-04-09T17:10:48Z</time>
      </trkpt>
      <trkpt lat="43.6363" lon="1.40283">
        <ele>130</ele>
        <time>2024-04-09T17:10:49Z</time>
      </trkpt>
      <trkpt lat="43.63627" lon="1.40283">
        <ele>130</ele>
        <time>2024-04-09T17:10:50Z</time>
      </trkpt>
      <trkpt lat="43.63625" lon="1.40283">
        <ele>130</ele>
        <time>2024-04-09T17:10:51Z</time>
      </trkpt>
      <trkpt lat="43.63622" lon="1.40282">
        <ele>130</ele>
        <time>2024-04-09T17:10:52Z</time>
      </trkpt>
      <trkpt lat="43.6362" lon="1.40282">
        <ele>130</ele>
        <time>2024-04-09T17:10:53Z</time>
      </trkpt>
      <trkpt lat="43.63618" lon="1.40282">
        <ele>130</ele>
        <time>2024-04-09T17:10:54Z</time>
      </trkpt>
      <trkpt lat="43.63615" lon="1.40282">
        <ele>130</ele>
        <time>2024-04-09T17:10:55Z</time>
      </trkpt>
      <trkpt lat="43.63614" lon="1.40282">
        <ele>130</ele>
        <time>2024-04-09T17:10:56Z</time>
      </trkpt>
      <trkpt lat="43.63609" lon="1.40281">
        <ele>130</ele>
        <time>2024-04-09T17:10:57Z</time>
      </trkpt>
      <trkpt lat="43.63607" lon="1.40281">
        <ele>130</ele>
        <time>2024-04-09T17:10:58Z</time>
      </trkpt>
      <trkpt lat="43.63607" lon="1.40281">
        <ele>130</ele>
        <time>2024-04-09T17:10:59Z</time>
      </trkpt>
      <trkpt lat="43.63604" lon="1.40281">
        <ele>130</ele>
        <time>2024-04-09T17:11:00Z</time>
      </trkpt>
      <trkpt lat="43.63601" lon="1.4028">
        <ele>130</ele>
        <time>2024-04-09T17:11:01Z</time>
      </trkpt>
      <trkpt lat="43.63599" lon="1.4028">
        <ele>130</ele>
        <time>2024-04-09T17:11:02Z</time>
      </trkpt>
      <trkpt lat="43.63597" lon="1.40279">
        <ele>130</ele>
        <time>2024-04-09T17:11:03Z</time>
      </trkpt>
      <trkpt lat="43.63594" lon="1.40279">
        <ele>130</ele>
        <time>2024-04-09T17:11:04Z</time>
      </trkpt>
      <trkpt lat="43.63592" lon="1.40278">
        <ele>130</ele>
        <time>2024-04-09T17:11:05Z</time>
      </trkpt>
      <trkpt lat="43.6359" lon="1.40277">
        <ele>130</ele>
        <time>2024-04-09T17:11:06Z</time>
      </trkpt>
      <trkpt lat="43.63588" lon="1.40276">
        <ele>130</ele>
        <time>2024-04-09T17:11:07Z</time>
      </trkpt>
      <trkpt lat="43.63586" lon="1.40276">
        <ele>130</ele>
        <time>2024-04-09T17:11:08Z</time>
      </trkpt>
      <trkpt lat="43.63584" lon="1.40276">
        <ele>130</ele>
        <time>2024-04-09T17:11:09Z</time>
      </trkpt>
      <trkpt lat="43.63581" lon="1.40275">
        <ele>130</ele>
        <time>2024-04-09T17:11:10Z</time>
      </trkpt>
      <trkpt lat="43.63579" lon="1.40275">
        <ele>130</ele>
        <time>2024-04-09T17:11:11Z</time>
      </trkpt>
      <trkpt lat="43.63577" lon="1.40275">
        <ele>130</ele>
        <time>2024-04-09T17:11:12Z</time>
      </trkpt>
      <trkpt lat="43.63575" lon="1.40275">
        <ele>130</ele>
        <time>2024-04-09T17:11:13Z</time>
      </trkpt>
      <trkpt lat="43.63572" lon="1.40275">
        <ele>130</ele>
        <time>2024-04-09T17:11:14Z</time>
      </trkpt>
      <trkpt lat="43.6357" lon="1.40275">
        <ele>130</ele>
        <time>2024-04-09T17:11:15Z</time>
      </trkpt>
      <trkpt lat="43.63568" lon="1.40275">
        <ele>130</ele>
        <time>2024-04-09T17:11:16Z</time>
      </trkpt>
      <trkpt lat="43.63564" lon="1.40273">
        <ele>130</ele>
        <time>2024-04-09T17:11:17Z</time>
      </trkpt>
      <trkpt lat="43.63564" lon="1.40273">
        <ele>130</ele>
        <time>2024-04-09T17:11:18Z</time>
      </trkpt>
      <trkpt lat="43.6356" lon="1.40273">
        <ele>130</ele>
        <time>2024-04-09T17:11:19Z</time>
      </trkpt>
      <trkpt lat="43.63559" lon="1.40272">
        <ele>130</ele>
        <time>2024-04-09T17:11:20Z</time>
      </trkpt>
      <trkpt lat="43.63556" lon="1.40272">
        <ele>130</ele>
        <time>2024-04-09T17:11:21Z</time>
      </trkpt>
      <trkpt lat="43.63554" lon="1.40271">
        <ele>130</ele>
        <time>2024-04-09T17:11:22Z</time>
      </trkpt>
      <trkpt lat="43.63551" lon="1.40271">
        <ele>130</ele>
        <time>2024-04-09T17:11:23Z</time>
      </trkpt>
      <trkpt lat="43.63549" lon="1.40271">
        <ele>130</ele>
        <time>2024-04-09T17:11:24Z</time>
      </trkpt>
      <trkpt lat="43.63545" lon="1.4027">
        <ele>130</ele>
        <time>2024-04-09T17:11:25Z</time>
      </trkpt>
      <trkpt lat="43.63544" lon="1.4027">
        <ele>130</ele>
        <time>2024-04-09T17:11:26Z</time>
      </trkpt>
      <trkpt lat="43.63541" lon="1.4027">
        <ele>130</ele>
        <time>2024-04-09T17:11:27Z</time>
      </trkpt>
      <trkpt lat="43.63538" lon="1.40269">
        <ele>130</ele>
        <time>2024-04-09T17:11:28Z</time>
      </trkpt>
      <trkpt lat="43.63537" lon="1.40269">
        <ele>130</ele>
        <time>2024-04-09T17:11:29Z</time>
      </trkpt>
      <trkpt lat="43.63533" lon="1.40267">
        <ele>130</ele>
        <time>2024-04-09T17:11:30Z</time>
      </trkpt>
      <trkpt lat="43.63532" lon="1.40267">
        <ele>130</ele>
        <time>2024-04-09T17:11:31Z</time>
      </trkpt>
      <trkpt lat="43.63529" lon="1.40266">
        <ele>130</ele>
        <time>2024-04-09T17:11:32Z</time>
      </trkpt>
      <trkpt lat="43.63528" lon="1.40266">
        <ele>130</ele>
        <time>2024-04-09T17:11:33Z</time>
      </trkpt>
      <trkpt lat="43.63525" lon="1.40265">
        <ele>131</ele>
        <time>2024-04-09T17:11:34Z</time>
      </trkpt>
      <trkpt lat="43.63523" lon="1.40264">
        <ele>131</ele>
        <time>2024-04-09T17:11:35Z</time>
      </trkpt>
      <trkpt lat="43.63521" lon="1.40264">
        <ele>130</ele>
        <time>2024-04-09T17:11:36Z</time>
      </trkpt>
      <trkpt lat="43.63519" lon="1.40263">
        <ele>130</ele>
        <time>2024-04-09T17:11:37Z</time>
      </trkpt>
      <trkpt lat="43.63517" lon="1.40262">
        <ele>130</ele>
        <time>2024-04-09T17:11:38Z</time>
      </trkpt>
      <trkpt lat="43.63514" lon="1.40262">
        <ele>130</ele>
        <time>2024-04-09T17:11:39Z</time>
      </trkpt>
      <trkpt lat="43.63512" lon="1.40262">
        <ele>130</ele>
        <time>2024-04-09T17:11:40Z</time>
      </trkpt>
      <trkpt lat="43.6351" lon="1.40261">
        <ele>130</ele>
        <time>2024-04-09T17:11:41Z</time>
      </trkpt>
      <trkpt lat="43.63507" lon="1.4026">
        <ele>130</ele>
        <time>2024-04-09T17:11:42Z</time>
      </trkpt>
      <trkpt lat="43.63505" lon="1.40259">
        <ele>130</ele>
        <time>2024-04-09T17:11:43Z</time>
      </trkpt>
      <trkpt lat="43.63503" lon="1.40258">
        <ele>130</ele>
        <time>2024-04-09T17:11:44Z</time>
      </trkpt>
      <trkpt lat="43.63501" lon="1.40258">
        <ele>130</ele>
        <time>2024-04-09T17:11:45Z</time>
      </trkpt>
      <trkpt lat="43.63499" lon="1.40257">
        <ele>130</ele>
        <time>2024-04-09T17:11:46Z</time>
      </trkpt>
      <trkpt lat="43.63496" lon="1.40256">
        <ele>130</ele>
        <time>2024-04-09T17:11:47Z</time>
      </trkpt>
      <trkpt lat="43.63494" lon="1.40255">
        <ele>130</ele>
        <time>2024-04-09T17:11:48Z</time>
      </trkpt>
      <trkpt lat="43.63492" lon="1.40254">
        <ele>130</ele>
        <time>2024-04-09T17:11:49Z</time>
      </trkpt>
      <trkpt lat="43.6349" lon="1.40253">
        <ele>130</ele>
        <time>2024-04-09T17:11:50Z</time>
      </trkpt>
      <trkpt lat="43.63487" lon="1.40253">
        <ele>130</ele>
        <time>2024-04-09T17:11:51Z</time>
      </trkpt>
      <trkpt lat="43.63485" lon="1.40252">
        <ele>130</ele>
        <time>2024-04-09T17:11:52Z</time>
      </trkpt>
      <trkpt lat="43.63482" lon="1.40252">
        <ele>130</ele>
        <time>2024-04-09T17:11:53Z</time>
      </trkpt>
      <trkpt lat="43.6348" lon="1.40251">
        <ele>130</ele>
        <time>2024-04-09T17:11:54Z</time>
      </trkpt>
      <trkpt lat="43.63475" lon="1.4025">
        <ele>130</ele>
        <time>2024-04-09T17:11:55Z</time>
      </trkpt>
      <trkpt lat="43.63475" lon="1.4025">
        <ele>130</ele>
        <time>2024-04-09T17:11:56Z</time>
      </trkpt>
      <trkpt lat="43.63471" lon="1.4025">
        <ele>130</ele>
        <time>2024-04-09T17:11:57Z</time>
      </trkpt>
      <trkpt lat="43.63469" lon="1.40249">
        <ele>130</ele>
        <time>2024-04-09T17:11:58Z</time>
      </trkpt>
      <trkpt lat="43.63467" lon="1.40249">
        <ele>130</ele>
        <time>2024-04-09T17:11:59Z</time>
      </trkpt>
      <trkpt lat="43.63464" lon="1.40248">
        <ele>130</ele>
        <time>2024-04-09T17:12:00Z</time>
      </trkpt>
      <trkpt lat="43.63462" lon="1.40248">
        <ele>130</ele>
        <time>2024-04-09T17:12:01Z</time>
      </trkpt>
      <trkpt lat="43.6346" lon="1.40247">
        <ele>130</ele>
        <time>2024-04-09T17:12:02Z</time>
      </trkpt>
      <trkpt lat="43.63457" lon="1.40246">
        <ele>130</ele>
        <time>2024-04-09T17:12:03Z</time>
      </trkpt>
      <trkpt lat="43.63455" lon="1.40245">
        <ele>130</ele>
        <time>2024-04-09T17:12:04Z</time>
      </trkpt>
      <trkpt lat="43.63452" lon="1.40245">
        <ele>130</ele>
        <time>2024-04-09T17:12:05Z</time>
      </trkpt>
      <trkpt lat="43.6345" lon="1.40244">
        <ele>130</ele>
        <time>2024-04-09T17:12:06Z</time>
      </trkpt>
      <trkpt lat="43.63447" lon="1.40243">
        <ele>130</ele>
        <time>2024-04-09T17:12:07Z</time>
      </trkpt>
      <trkpt lat="43.63445" lon="1.40242">
        <ele>130</ele>
        <time>2024-04-09T17:12:08Z</time>
      </trkpt>
      <trkpt lat="43.63443" lon="1.40241">
        <ele>130</ele>
        <time>2024-04-09T17:12:09Z</time>
      </trkpt>
      <trkpt lat="43.6344" lon="1.4024">
        <ele>130</ele>
        <time>2024-04-09T17:12:10Z</time>
      </trkpt>
      <trkpt lat="43.63438" lon="1.40239">
        <ele>130</ele>
        <time>2024-04-09T17:12:11Z</time>
      </trkpt>
      <trkpt lat="43.63436" lon="1.40238">
        <ele>130</ele>
        <time>2024-04-09T17:12:12Z</time>
      </trkpt>
      <trkpt lat="43.63433" lon="1.40237">
        <ele>130</ele>
        <time>2024-04-09T17:12:13Z</time>
      </trkpt>
      <trkpt lat="43.63428" lon="1.40236">
        <ele>130</ele>
        <time>2024-04-09T17:12:14Z</time>
      </trkpt>
      <trkpt lat="43.63428" lon="1.40236">
        <ele>130</ele>
        <time>2024-04-09T17:12:15Z</time>
      </trkpt>
      <trkpt lat="43.63426" lon="1.40234">
        <ele>130</ele>
        <time>2024-04-09T17:12:16Z</time>
      </trkpt>
      <trkpt lat="43.63424" lon="1.40233">
        <ele>130</ele>
        <time>2024-04-09T17:12:17Z</time>
      </trkpt>
      <trkpt lat="43.63422" lon="1.40232">
        <ele>130</ele>
        <time>2024-04-09T17:12:18Z</time>
      </trkpt>
      <trkpt lat="43.63418" lon="1.40231">
        <ele>130</ele>
        <time>2024-04-09T17:12:19Z</time>
      </trkpt>
      <trkpt lat="43.63417" lon="1.40231">
        <ele>130</ele>
        <time>2024-04-09T17:12:20Z</time>
      </trkpt>
      <trkpt lat="43.63415" lon="1.4023">
        <ele>130</ele>
        <time>2024-04-09T17:12:21Z</time>
      </trkpt>
      <trkpt lat="43.63411" lon="1.40229">
        <ele>130</ele>
        <time>2024-04-09T17:12:22Z</time>
      </trkpt>
      <trkpt lat="43.6341" lon="1.40229">
        <ele>130</ele>
        <time>2024-04-09T17:12:23Z</time>
      </trkpt>
      <trkpt lat="43.63406" lon="1.40228">
        <ele>130</ele>
        <time>2024-04-09T17:12:24Z</time>
      </trkpt>
      <trkpt lat="43.63405" lon="1.40228">
        <ele>130</ele>
        <time>2024-04-09T17:12:25Z</time>
      </trkpt>
      <trkpt lat="43.63402" lon="1.40226">
        <ele>130</ele>
        <time>2024-04-09T17:12:26Z</time>
      </trkpt>
      <trkpt lat="43.63401" lon="1.40225">
        <ele>130</ele>
        <time>2024-04-09T17:12:27Z</time>
      </trkpt>
      <trkpt lat="43.63399" lon="1.40224">
        <ele>130</ele>
        <time>2024-04-09T17:12:28Z</time>
      </trkpt>
      <trkpt lat="43.63396" lon="1.40223">
        <ele>130</ele>
        <time>2024-04-09T17:12:29Z</time>
      </trkpt>
      <trkpt lat="43.63394" lon="1.40222">
        <ele>130</ele>
        <time>2024-04-09T17:12:30Z</time>
      </trkpt>
      <trkpt lat="43.63391" lon="1.4022">
        <ele>130</ele>
        <time>2024-04-09T17:12:31Z</time>
      </trkpt>
      <trkpt lat="43.6339" lon="1.4022">
        <ele>130</ele>
        <time>2024-04-09T17:12:32Z</time>
      </trkpt>
      <trkpt lat="43.63386" lon="1.40218">
        <ele>130</ele>
        <time>2024-04-09T17:12:33Z</time>
      </trkpt>
      <trkpt lat="43.63386" lon="1.40218">
        <ele>130</ele>
        <time>2024-04-09T17:12:34Z</time>
      </trkpt>
      <trkpt lat="43.63384" lon="1.40218">
        <ele>130</ele>
        <time>2024-04-09T17:12:35Z</time>
      </trkpt>
      <trkpt lat="43.63382" lon="1.40217">
        <ele>131</ele>
        <time>2024-04-09T17:12:36Z</time>
      </trkpt>
      <trkpt lat="43.6338" lon="1.40216">
        <ele>131</ele>
        <time>2024-04-09T17:12:37Z</time>
      </trkpt>
      <trkpt lat="43.63377" lon="1.40215">
        <ele>131</ele>
        <time>2024-04-09T17:12:38Z</time>
      </trkpt>
      <trkpt lat="43.63375" lon="1.40214">
        <ele>131</ele>
        <time>2024-04-09T17:12:39Z</time>
      </trkpt>
      <trkpt lat="43.63372" lon="1.40213">
        <ele>131</ele>
        <time>2024-04-09T17:12:40Z</time>
      </trkpt>
      <trkpt lat="43.63369" lon="1.40212">
        <ele>131</ele>
        <time>2024-04-09T17:12:41Z</time>
      </trkpt>
      <trkpt lat="43.63368" lon="1.40211">
        <ele>131</ele>
        <time>2024-04-09T17:12:42Z</time>
      </trkpt>
      <trkpt lat="43.63366" lon="1.4021">
        <ele>131</ele>
        <time>2024-04-09T17:12:43Z</time>
      </trkpt>
      <trkpt lat="43.63364" lon="1.40208">
        <ele>131</ele>
        <time>2024-04-09T17:12:44Z</time>
      </trkpt>
      <trkpt lat="43.63361" lon="1.40207">
        <ele>131</ele>
        <time>2024-04-09T17:12:45Z</time>
      </trkpt>
      <trkpt lat="43.63358" lon="1.40206">
        <ele>131</ele>
        <time>2024-04-09T17:12:46Z</time>
      </trkpt>
      <trkpt lat="43.63357" lon="1.40206">
        <ele>131</ele>
        <time>2024-04-09T17:12:47Z</time>
      </trkpt>
      <trkpt lat="43.63354" lon="1.40205">
        <ele>131</ele>
        <time>2024-04-09T17:12:48Z</time>
      </trkpt>
      <trkpt lat="43.63352" lon="1.40204">
        <ele>131</ele>
        <time>2024-04-09T17:12:49Z</time>
      </trkpt>
      <trkpt lat="43.6335" lon="1.40203">
        <ele>130</ele>
        <time>2024-04-09T17:12:50Z</time>
      </trkpt>
      <trkpt lat="43.63348" lon="1.40202">
        <ele>130</ele>
        <time>2024-04-09T17:12:51Z</time>
      </trkpt>
      <trkpt lat="43.63344" lon="1.402">
        <ele>130</ele>
        <time>2024-04-09T17:12:52Z</time>
      </trkpt>
      <trkpt lat="43.63344" lon="1.402">
        <ele>130</ele>
        <time>2024-04-09T17:12:53Z</time>
      </trkpt>
      <trkpt lat="43.63341" lon="1.402">
        <ele>130</ele>
        <time>2024-04-09T17:12:54Z</time>
      </trkpt>
      <trkpt lat="43.63339" lon="1.40199">
        <ele>131</ele>
        <time>2024-04-09T17:12:55Z</time>
      </trkpt>
      <trkpt lat="43.63337" lon="1.40197">
        <ele>131</ele>
        <time>2024-04-09T17:12:56Z</time>
      </trkpt>
      <trkpt lat="43.63335" lon="1.40196">
        <ele>131</ele>
        <time>2024-04-09T17:12:57Z</time>
      </trkpt>
      <trkpt lat="43.63332" lon="1.40196">
        <ele>131</ele>
        <time>2024-04-09T17:12:58Z</time>
      </trkpt>
      <trkpt lat="43.6333" lon="1.40195">
        <ele>131</ele>
        <time>2024-04-09T17:12:59Z</time>
      </trkpt>
      <trkpt lat="43.63327" lon="1.40194">
        <ele>131</ele>
        <time>2024-04-09T17:13:00Z</time>
      </trkpt>
      <trkpt lat="43.63325" lon="1.40193">
        <ele>131</ele>
        <time>2024-04-09T17:13:01Z</time>
      </trkpt>
      <trkpt lat="43.63322" lon="1.40192">
        <ele>131</ele>
        <time>2024-04-09T17:13:02Z</time>
      </trkpt>
      <trkpt lat="43.6332" lon="1.40191">
        <ele>131</ele>
        <time>2024-04-09T17:13:03Z</time>
      </trkpt>
      <trkpt lat="43.63316" lon="1.40189">
        <ele>131</ele>
        <time>2024-04-09T17:13:04Z</time>
      </trkpt>
      <trkpt lat="43.63315" lon="1.40189">
        <ele>131</ele>
        <time>2024-04-09T17:13:05Z</time>
      </trkpt>
      <trkpt lat="43.63312" lon="1.40188">
        <ele>131</ele>
        <time>2024-04-09T17:13:06Z</time>
      </trkpt>
      <trkpt lat="43.6331" lon="1.40187">
        <ele>131</ele>
        <time>2024-04-09T17:13:07Z</time>
      </trkpt>
      <trkpt lat="43.63307" lon="1.40186">
        <ele>131</ele>
        <time>2024-04-09T17:13:08Z</time>
      </trkpt>
      <trkpt lat="43.63305" lon="1.40185">
        <ele>131</ele>
        <time>2024-04-09T17:13:09Z</time>
      </trkpt>
      <trkpt lat="43.63303" lon="1.40184">
        <ele>131</ele>
        <time>2024-04-09T17:13:10Z</time>
      </trkpt>
      <trkpt lat="43.633" lon="1.40183">
        <ele>131</ele>
        <time>2024-04-09T17:13:11Z</time>
      </trkpt>
      <trkpt lat="43.63298" lon="1.40183">
        <ele>131</ele>
        <time>2024-04-09T17:13:12Z</time>
      </trkpt>
      <trkpt lat="43.63296" lon="1.40182">
        <ele>131</ele>
        <time>2024-04-09T17:13:13Z</time>
      </trkpt>
      <trkpt lat="43.63294" lon="1.40182">
        <ele>131</ele>
        <time>2024-04-09T17:13:14Z</time>
      </trkpt>
      <trkpt lat="43.63292" lon="1.40181">
        <ele>131</ele>
        <time>2024-04-09T17:13:15Z</time>
      </trkpt>
      <trkpt lat="43.63289" lon="1.40179">
        <ele>131</ele>
        <time>2024-04-09T17:13:16Z</time>
      </trkpt>
      <trkpt lat="43.63287" lon="1.40179">
        <ele>131</ele>
        <time>2024-04-09T17:13:17Z</time>
      </trkpt>
      <trkpt lat="43.63285" lon="1.40178">
        <ele>131</ele>
        <time>2024-04-09T17:13:18Z</time>
      </trkpt>
      <trkpt lat="43.63283" lon="1.40177">
        <ele>132</ele>
        <time>2024-04-09T17:13:19Z</time>
      </trkpt>
      <trkpt lat="43.63281" lon="1.40176">
        <ele>132</ele>
        <time>2024-04-09T17:13:20Z</time>
      </trkpt>
      <trkpt lat="43.63279" lon="1.40175">
        <ele>132</ele>
        <time>2024-04-09T17:13:21Z</time>
      </trkpt>
      <trkpt lat="43.63277" lon="1.40174">
        <ele>132</ele>
        <time>2024-04-09T17:13:22Z</time>
      </trkpt>
      <trkpt lat="43.63275" lon="1.40173">
        <ele>132</ele>
        <time>2024-04-09T17:13:23Z</time>
      </trkpt>
      <trkpt lat="43.63273" lon="1.40172">
        <ele>132</ele>
        <time>2024-04-09T17:13:24Z</time>
      </trkpt>
      <trkpt lat="43.6327" lon="1.40171">
        <ele>132</ele>
        <time>2024-04-09T17:13:25Z</time>
      </trkpt>
      <trkpt lat="43.63268" lon="1.4017">
        <ele>132</ele>
        <time>2024-04-09T17:13:26Z</time>
      </trkpt>
      <trkpt lat="43.63266" lon="1.40169">
        <ele>131</ele>
        <time>2024-04-09T17:13:27Z</time>
      </trkpt>
      <trkpt lat="43.63264" lon="1.40169">
        <ele>131</ele>
        <time>2024-04-09T17:13:28Z</time>
      </trkpt>
      <trkpt lat="43.63261" lon="1.40168">
        <ele>131</ele>
        <time>2024-04-09T17:13:29Z</time>
      </trkpt>
      <trkpt lat="43.6326" lon="1.40167">
        <ele>131</ele>
        <time>2024-04-09T17:13:30Z</time>
      </trkpt>
      <trkpt lat="43.63256" lon="1.40166">
        <ele>131</ele>
        <time>2024-04-09T17:13:31Z</time>
      </trkpt>
      <trkpt lat="43.63255" lon="1.40166">
        <ele>131</ele>
        <time>2024-04-09T17:13:32Z</time>
      </trkpt>
      <trkpt lat="43.63252" lon="1.40166">
        <ele>131</ele>
        <time>2024-04-09T17:13:33Z</time>
      </trkpt>
      <trkpt lat="43.6325" lon="1.40165">
        <ele>131</ele>
        <time>2024-04-09T17:13:34Z</time>
      </trkpt>
      <trkpt lat="43.63247" lon="1.40164">
        <ele>131</ele>
        <time>2024-04-09T17:13:35Z</time>
      </trkpt>
      <trkpt lat="43.63245" lon="1.40163">
        <ele>131</ele>
        <time>2024-04-09T17:13:36Z</time>
      </trkpt>
      <trkpt lat="43.63243" lon="1.40162">
        <ele>131</ele>
        <time>2024-04-09T17:13:37Z</time>
      </trkpt>
      <trkpt lat="43.63239" lon="1.40161">
        <ele>131</ele>
        <time>2024-04-09T17:13:38Z</time>
      </trkpt>
      <trkpt lat="43.63238" lon="1.40161">
        <ele>131</ele>
        <time>2024-04-09T17:13:39Z</time>
      </trkpt>
      <trkpt lat="43.63235" lon="1.4016">
        <ele>131</ele>
        <time>2024-04-09T17:13:40Z</time>
      </trkpt>
      <trkpt lat="43.63233" lon="1.40159">
        <ele>131</ele>
        <time>2024-04-09T17:13:41Z</time>
      </trkpt>
      <trkpt lat="43.6323" lon="1.40158">
        <ele>131</ele>
        <time>2024-04-09T17:13:42Z</time>
      </trkpt>
      <trkpt lat="43.63228" lon="1.40157">
        <ele>131</ele>
        <time>2024-04-09T17:13:43Z</time>
      </trkpt>
      <trkpt lat="43.63225" lon="1.40157">
        <ele>131</ele>
        <time>2024-04-09T17:13:44Z</time>
      </trkpt>
      <trkpt lat="43.63223" lon="1.40156">
        <ele>131</ele>
        <time>2024-04-09T17:13:45Z</time>
      </trkpt>
      <trkpt lat="43.63221" lon="1.40154">
        <ele>131</ele>
        <time>2024-04-09T17:13:46Z</time>
      </trkpt>
      <trkpt lat="43.63218" lon="1.40153">
        <ele>131</ele>
        <time>2024-04-09T17:13:47Z</time>
      </trkpt>
      <trkpt lat="43.63215" lon="1.40152">
        <ele>131</ele>
        <time>2024-04-09T17:13:48Z</time>
      </trkpt>
      <trkpt lat="43.6321" lon="1.4015">
        <ele>131</ele>
        <time>2024-04-09T17:13:49Z</time>
      </trkpt>
      <trkpt lat="43.6321" lon="1.4015">
        <ele>131</ele>
        <time>2024-04-09T17:13:50Z</time>
      </trkpt>
      <trkpt lat="43.63207" lon="1.40148">
        <ele>131</ele>
        <time>2024-04-09T17:13:51Z</time>
      </trkpt>
      <trkpt lat="43.63206" lon="1.40147">
        <ele>131</ele>
        <time>2024-04-09T17:13:52Z</time>
      </trkpt>
      <trkpt lat="43.63202" lon="1.40146">
        <ele>131</ele>
        <time>2024-04-09T17:13:53Z</time>
      </trkpt>
      <trkpt lat="43.63201" lon="1.40146">
        <ele>131</ele>
        <time>2024-04-09T17:13:54Z</time>
      </trkpt>
      <trkpt lat="43.63197" lon="1.40145">
        <ele>131</ele>
        <time>2024-04-09T17:13:55Z</time>
      </trkpt>
      <trkpt lat="43.63196" lon="1.40145">
        <ele>130</ele>
        <time>2024-04-09T17:13:56Z</time>
      </trkpt>
      <trkpt lat="43.63194" lon="1.40144">
        <ele>131</ele>
        <time>2024-04-09T17:13:57Z</time>
      </trkpt>
      <trkpt lat="43.63192" lon="1.40143">
        <ele>131</ele>
        <time>2024-04-09T17:13:58Z</time>
      </trkpt>
      <trkpt lat="43.6319" lon="1.40142">
        <ele>131</ele>
        <time>2024-04-09T17:13:59Z</time>
      </trkpt>
      <trkpt lat="43.63186" lon="1.40141">
        <ele>131</ele>
        <time>2024-04-09T17:14:00Z</time>
      </trkpt>
      <trkpt lat="43.63185" lon="1.4014">
        <ele>132</ele>
        <time>2024-04-09T17:14:01Z</time>
      </trkpt>
      <trkpt lat="43.63183" lon="1.40139">
        <ele>132</ele>
        <time>2024-04-09T17:14:02Z</time>
      </trkpt>
      <trkpt lat="43.6318" lon="1.40138">
        <ele>132</ele>
        <time>2024-04-09T17:14:03Z</time>
      </trkpt>
      <trkpt lat="43.63179" lon="1.40137">
        <ele>132</ele>
        <time>2024-04-09T17:14:04Z</time>
      </trkpt>
      <trkpt lat="43.63177" lon="1.40136">
        <ele>132</ele>
        <time>2024-04-09T17:14:05Z</time>
      </trkpt>
      <trkpt lat="43.63175" lon="1.40136">
        <ele>132</ele>
        <time>2024-04-09T17:14:06Z</time>
      </trkpt>
      <trkpt lat="43.63173" lon="1.40134">
        <ele>131</ele>
        <time>2024-04-09T17:14:07Z</time>
      </trkpt>
      <trkpt lat="43.63168" lon="1.40133">
        <ele>131</ele>
        <time>2024-04-09T17:14:08Z</time>
      </trkpt>
      <trkpt lat="43.63168" lon="1.40133">
        <ele>131</ele>
        <time>2024-04-09T17:14:09Z</time>
      </trkpt>
      <trkpt lat="43.63166" lon="1.40132">
        <ele>131</ele>
        <time>2024-04-09T17:14:10Z</time>
      </trkpt>
      <trkpt lat="43.63163" lon="1.40132">
        <ele>131</ele>
        <time>2024-04-09T17:14:11Z</time>
      </trkpt>
      <trkpt lat="43.63161" lon="1.40131">
        <ele>131</ele>
        <time>2024-04-09T17:14:12Z</time>
      </trkpt>
      <trkpt lat="43.63158" lon="1.4013">
        <ele>131</ele>
        <time>2024-04-09T17:14:13Z</time>
      </trkpt>
      <trkpt lat="43.63156" lon="1.4013">
        <ele>131</ele>
        <time>2024-04-09T17:14:14Z</time>
      </trkpt>
      <trkpt lat="43.63153" lon="1.40129">
        <ele>131</ele>
        <time>2024-04-09T17:14:15Z</time>
      </trkpt>
      <trkpt lat="43.63152" lon="1.40129">
        <ele>131</ele>
        <time>2024-04-09T17:14:16Z</time>
      </trkpt>
      <trkpt lat="43.63149" lon="1.40128">
        <ele>131</ele>
        <time>2024-04-09T17:14:17Z</time>
      </trkpt>
      <trkpt lat="43.63147" lon="1.40127">
        <ele>131</ele>
        <time>2024-04-09T17:14:18Z</time>
      </trkpt>
      <trkpt lat="43.63145" lon="1.40127">
        <ele>131</ele>
        <time>2024-04-09T17:14:19Z</time>
      </trkpt>
      <trkpt lat="43.63143" lon="1.40126">
        <ele>131</ele>
        <time>2024-04-09T17:14:20Z</time>
      </trkpt>
      <trkpt lat="43.63139" lon="1.40125">
        <ele>131</ele>
        <time>2024-04-09T17:14:21Z</time>
      </trkpt>
      <trkpt lat="43.63138" lon="1.40125">
        <ele>131</ele>
        <time>2024-04-09T17:14:22Z</time>
      </trkpt>
      <trkpt lat="43.63136" lon="1.40124">
        <ele>131</ele>
        <time>2024-04-09T17:14:23Z</time>
      </trkpt>
      <trkpt lat="43.63133" lon="1.40124">
        <ele>131</ele>
        <time>2024-04-09T17:14:24Z</time>
      </trkpt>
      <trkpt lat="43.63131" lon="1.40123">
        <ele>131</ele>
        <time>2024-04-09T17:14:25Z</time>
      </trkpt>
      <trkpt lat="43.63128" lon="1.40122">
        <ele>131</ele>
        <time>2024-04-09T17:14:26Z</time>
      </trkpt>
      <trkpt lat="43.63124" lon="1.4012">
        <ele>130</ele>
        <time>2024-04-09T17:14:27Z</time>
      </trkpt>
      <trkpt lat="43.63124" lon="1.4012">
        <ele>130</ele>
        <time>2024-04-09T17:14:28Z</time>
      </trkpt>
      <trkpt lat="43.63122" lon="1.4012">
        <ele>130</ele>
        <time>2024-04-09T17:14:29Z</time>
      </trkpt>
      <trkpt lat="43.6312" lon="1.40119">
        <ele>130</ele>
        <time>2024-04-09T17:14:30Z</time>
      </trkpt>
      <trkpt lat="43.63118" lon="1.40118">
        <ele>131</ele>
        <time>2024-04-09T17:14:31Z</time>
      </trkpt>
      <trkpt lat="43.63116" lon="1.40118">
        <ele>131</ele>
        <time>2024-04-09T17:14:32Z</time>
      </trkpt>
      <trkpt lat="43.63113" lon="1.40117">
        <ele>131</ele>
        <time>2024-04-09T17:14:33Z</time>
      </trkpt>
      <trkpt lat="43.63111" lon="1.40118">
        <ele>131</ele>
        <time>2024-04-09T17:14:34Z</time>
      </trkpt>
      <trkpt lat="43.63108" lon="1.40117">
        <ele>131</ele>
        <time>2024-04-09T17:14:35Z</time>
      </trkpt>
      <trkpt lat="43.63106" lon="1.40117">
        <ele>131</ele>
        <time>2024-04-09T17:14:36Z</time>
      </trkpt>
      <trkpt lat="43.63103" lon="1.40116">
        <ele>131</ele>
        <time>2024-04-09T17:14:37Z</time>
      </trkpt>
      <trkpt lat="43.63101" lon="1.40116">
        <ele>131</ele>
        <time>2024-04-09T17:14:38Z</time>
      </trkpt>
      <trkpt lat="43.63099" lon="1.40115">
        <ele>131</ele>
        <time>2024-04-09T17:14:39Z</time>
      </trkpt>
      <trkpt lat="43.63095" lon="1.40114">
        <ele>131</ele>
        <time>2024-04-09T17:14:40Z</time>
      </trkpt>
      <trkpt lat="43.63094" lon="1.40114">
        <ele>131</ele>
        <time>2024-04-09T17:14:41Z</time>
      </trkpt>
      <trkpt lat="43.63092" lon="1.40113">
        <ele>131</ele>
        <time>2024-04-09T17:14:42Z</time>
      </trkpt>
      <trkpt lat="43.6309" lon="1.40113">
        <ele>131</ele>
        <time>2024-04-09T17:14:43Z</time>
      </trkpt>
      <trkpt lat="43.63088" lon="1.40112">
        <ele>131</ele>
        <time>2024-04-09T17:14:44Z</time>
      </trkpt>
      <trkpt lat="43.63085" lon="1.40111">
        <ele>132</ele>
        <time>2024-04-09T17:14:45Z</time>
      </trkpt>
      <trkpt lat="43.63081" lon="1.4011">
        <ele>132</ele>
        <time>2024-04-09T17:14:46Z</time>
      </trkpt>
      <trkpt lat="43.63081" lon="1.4011">
        <ele>132</ele>
        <time>2024-04-09T17:14:47Z</time>
      </trkpt>
      <trkpt lat="43.63077" lon="1.40108">
        <ele>132</ele>
        <time>2024-04-09T17:14:48Z</time>
      </trkpt>
      <trkpt lat="43.63076" lon="1.40108">
        <ele>132</ele>
        <time>2024-04-09T17:14:49Z</time>
      </trkpt>
      <trkpt lat="43.63073" lon="1.40107">
        <ele>132</ele>
        <time>2024-04-09T17:14:50Z</time>
      </trkpt>
      <trkpt lat="43.63072" lon="1.40107">
        <ele>132</ele>
        <time>2024-04-09T17:14:51Z</time>
      </trkpt>
      <trkpt lat="43.6307" lon="1.40105">
        <ele>132</ele>
        <time>2024-04-09T17:14:52Z</time>
      </trkpt>
      <trkpt lat="43.63069" lon="1.40104">
        <ele>132</ele>
        <time>2024-04-09T17:14:53Z</time>
      </trkpt>
      <trkpt lat="43.63067" lon="1.40103">
        <ele>132</ele>
        <time>2024-04-09T17:14:54Z</time>
      </trkpt>
      <trkpt lat="43.63065" lon="1.40102">
        <ele>132</ele>
        <time>2024-04-09T17:14:55Z</time>
      </trkpt>
      <trkpt lat="43.63063" lon="1.40102">
        <ele>132</ele>
        <time>2024-04-09T17:14:56Z</time>
      </trkpt>
      <trkpt lat="43.63061" lon="1.40101">
        <ele>132</ele>
        <time>2024-04-09T17:14:57Z</time>
      </trkpt>
      <trkpt lat="43.63059" lon="1.40101">
        <ele>132</ele>
        <time>2024-04-09T17:14:58Z</time>
      </trkpt>
      <trkpt lat="43.63057" lon="1.401">
        <ele>132</ele>
        <time>2024-04-09T17:14:59Z</time>
      </trkpt>
      <trkpt lat="43.63054" lon="1.40099">
        <ele>132</ele>
        <time>2024-04-09T17:15:00Z</time>
      </trkpt>
      <trkpt lat="43.63052" lon="1.40099">
        <ele>132</ele>
        <time>2024-04-09T17:15:01Z</time>
      </trkpt>
      <trkpt lat="43.63051" lon="1.40098">
        <ele>132</ele>
        <time>2024-04-09T17:15:02Z</time>
      </trkpt>
      <trkpt lat="43.63048" lon="1.40098">
        <ele>132</ele>
        <time>2024-04-09T17:15:03Z</time>
      </trkpt>
      <trkpt lat="43.63048" lon="1.40098">
        <ele>132</ele>
        <time>2024-04-09T17:15:04Z</time>
      </trkpt>
      <trkpt lat="43.63045" lon="1.40096">
        <ele>132</ele>
        <time>2024-04-09T17:15:05Z</time>
      </trkpt>
      <trkpt lat="43.63043" lon="1.40096">
        <ele>132</ele>
        <time>2024-04-09T17:15:06Z</time>
      </trkpt>
      <trkpt lat="43.63041" lon="1.40095">
        <ele>132</ele>
        <time>2024-04-09T17:15:07Z</time>
      </trkpt>
      <trkpt lat="43.63038" lon="1.40094">
        <ele>132</ele>
        <time>2024-04-09T17:15:08Z</time>
      </trkpt>
      <trkpt lat="43.63036" lon="1.40094">
        <ele>132</ele>
        <time>2024-04-09T17:15:09Z</time>
      </trkpt>
      <trkpt lat="43.63033" lon="1.40094">
        <ele>132</ele>
        <time>2024-04-09T17:15:10Z</time>
      </trkpt>
      <trkpt lat="43.63031" lon="1.40093">
        <ele>132</ele>
        <time>2024-04-09T17:15:11Z</time>
      </trkpt>
      <trkpt lat="43.63029" lon="1.40093">
        <ele>132</ele>
        <time>2024-04-09T17:15:12Z</time>
      </trkpt>
      <trkpt lat="43.63026" lon="1.40093">
        <ele>132</ele>
        <time>2024-04-09T17:15:13Z</time>
      </trkpt>
      <trkpt lat="43.63024" lon="1.40092">
        <ele>132</ele>
        <time>2024-04-09T17:15:14Z</time>
      </trkpt>
      <trkpt lat="43.63022" lon="1.40092">
        <ele>132</ele>
        <time>2024-04-09T17:15:15Z</time>
      </trkpt>
      <trkpt lat="43.6302" lon="1.40091">
        <ele>132</ele>
        <time>2024-04-09T17:15:16Z</time>
      </trkpt>
      <trkpt lat="43.63017" lon="1.4009">
        <ele>132</ele>
        <time>2024-04-09T17:15:17Z</time>
      </trkpt>
      <trkpt lat="43.63015" lon="1.40089">
        <ele>132</ele>
        <time>2024-04-09T17:15:18Z</time>
      </trkpt>
      <trkpt lat="43.63013" lon="1.40088">
        <ele>132</ele>
        <time>2024-04-09T17:15:19Z</time>
      </trkpt>
      <trkpt lat="43.63011" lon="1.40088">
        <ele>132</ele>
        <time>2024-04-09T17:15:20Z</time>
      </trkpt>
      <trkpt lat="43.63009" lon="1.40087">
        <ele>132</ele>
        <time>2024-04-09T17:15:21Z</time>
      </trkpt>
      <trkpt lat="43.63007" lon="1.40087">
        <ele>132</ele>
        <time>2024-04-09T17:15:22Z</time>
      </trkpt>
      <trkpt lat="43.63004" lon="1.40086">
        <ele>132</ele>
        <time>2024-04-09T17:15:23Z</time>
      </trkpt>
      <trkpt lat="43.63002" lon="1.40086">
        <ele>132</ele>
        <time>2024-04-09T17:15:24Z</time>
      </trkpt>
      <trkpt lat="43.62999" lon="1.40085">
        <ele>132</ele>
        <time>2024-04-09T17:15:25Z</time>
      </trkpt>
      <trkpt lat="43.62997" lon="1.40084">
        <ele>132</ele>
        <time>2024-04-09T17:15:26Z</time>
      </trkpt>
      <trkpt lat="43.62995" lon="1.40084">
        <ele>133</ele>
        <time>2024-04-09T17:15:27Z</time>
      </trkpt>
      <trkpt lat="43.62992" lon="1.40083">
        <ele>133</ele>
        <time>2024-04-09T17:15:28Z</time>
      </trkpt>
      <trkpt lat="43.6299" lon="1.40083">
        <ele>133</ele>
        <time>2024-04-09T17:15:29Z</time>
      </trkpt>
      <trkpt lat="43.62987" lon="1.40083">
        <ele>133</ele>
        <time>2024-04-09T17:15:30Z</time>
      </trkpt>
      <trkpt lat="43.62984" lon="1.40082">
        <ele>133</ele>
        <time>2024-04-09T17:15:31Z</time>
      </trkpt>
      <trkpt lat="43.62982" lon="1.40081">
        <ele>133</ele>
        <time>2024-04-09T17:15:32Z</time>
      </trkpt>
      <trkpt lat="43.6298" lon="1.4008">
        <ele>133</ele>
        <time>2024-04-09T17:15:33Z</time>
      </trkpt>
      <trkpt lat="43.6298" lon="1.4008">
        <ele>133</ele>
        <time>2024-04-09T17:15:34Z</time>
      </trkpt>
      <trkpt lat="43.6298" lon="1.40076">
        <ele>132</ele>
        <time>2024-04-09T17:15:35Z</time>
      </trkpt>
      <trkpt lat="43.62982" lon="1.40074">
        <ele>132</ele>
        <time>2024-04-09T17:15:36Z</time>
      </trkpt>
      <trkpt lat="43.62982" lon="1.40074">
        <ele>132</ele>
        <time>2024-04-09T17:15:37Z</time>
      </trkpt>
      <trkpt lat="43.62985" lon="1.40073">
        <ele>132</ele>
        <time>2024-04-09T17:15:38Z</time>
      </trkpt>
      <trkpt lat="43.62987" lon="1.40072">
        <ele>132</ele>
        <time>2024-04-09T17:15:39Z</time>
      </trkpt>
      <trkpt lat="43.6299" lon="1.40072">
        <ele>132</ele>
        <time>2024-04-09T17:15:40Z</time>
      </trkpt>
      <trkpt lat="43.62992" lon="1.40072">
        <ele>132</ele>
        <time>2024-04-09T17:15:41Z</time>
      </trkpt>
      <trkpt lat="43.62995" lon="1.40072">
        <ele>132</ele>
        <time>2024-04-09T17:15:42Z</time>
      </trkpt>
      <trkpt lat="43.62997" lon="1.40072">
        <ele>132</ele>
        <time>2024-04-09T17:15:43Z</time>
      </trkpt>
      <trkpt lat="43.63" lon="1.40072">
        <ele>132</ele>
        <time>2024-04-09T17:15:44Z</time>
      </trkpt>
      <trkpt lat="43.63002" lon="1.40072">
        <ele>132</ele>
        <time>2024-04-09T17:15:45Z</time>
      </trkpt>
      <trkpt lat="43.63004" lon="1.40072">
        <ele>131</ele>
        <time>2024-04-09T17:15:46Z</time>
      </trkpt>
      <trkpt lat="43.63006" lon="1.40071">
        <ele>131</ele>
        <time>2024-04-09T17:15:47Z</time>
      </trkpt>
      <trkpt lat="43.63008" lon="1.4007">
        <ele>130</ele>
        <time>2024-04-09T17:15:48Z</time>
      </trkpt>
      <trkpt lat="43.63011" lon="1.40068">
        <ele>130</ele>
        <time>2024-04-09T17:15:49Z</time>
      </trkpt>
      <trkpt lat="43.63013" lon="1.40067">
        <ele>130</ele>
        <time>2024-04-09T17:15:50Z</time>
      </trkpt>
      <trkpt lat="43.63015" lon="1.40066">
        <ele>130</ele>
        <time>2024-04-09T17:15:51Z</time>
      </trkpt>
      <trkpt lat="43.63017" lon="1.40065">
        <ele>130</ele>
        <time>2024-04-09T17:15:52Z</time>
      </trkpt>
      <trkpt lat="43.63019" lon="1.40064">
        <ele>130</ele>
        <time>2024-04-09T17:15:53Z</time>
      </trkpt>
      <trkpt lat="43.63021" lon="1.40064">
        <ele>130</ele>
        <time>2024-04-09T17:15:54Z</time>
      </trkpt>
      <trkpt lat="43.63023" lon="1.40063">
        <ele>130</ele>
        <time>2024-04-09T17:15:55Z</time>
      </trkpt>
      <trkpt lat="43.63024" lon="1.40063">
        <ele>130</ele>
        <time>2024-04-09T17:15:56Z</time>
      </trkpt>
      <trkpt lat="43.63026" lon="1.40062">
        <ele>129</ele>
        <time>2024-04-09T17:15:57Z</time>
      </trkpt>
      <trkpt lat="43.63029" lon="1.40062">
        <ele>129</ele>
        <time>2024-04-09T17:15:58Z</time>
      </trkpt>
      <trkpt lat="43.63031" lon="1.40062">
        <ele>129</ele>
        <time>2024-04-09T17:15:59Z</time>
      </trkpt>
      <trkpt lat="43.63033" lon="1.40062">
        <ele>129</ele>
        <time>2024-04-09T17:16:00Z</time>
      </trkpt>
      <trkpt lat="43.63035" lon="1.40062">
        <ele>129</ele>
        <time>2024-04-09T17:16:01Z</time>
      </trkpt>
      <trkpt lat="43.63037" lon="1.40062">
        <ele>129</ele>
        <time>2024-04-09T17:16:02Z</time>
      </trkpt>
      <trkpt lat="43.63039" lon="1.40062">
        <ele>129</ele>
        <time>2024-04-09T17:16:03Z</time>
      </trkpt>
      <trkpt lat="43.63042" lon="1.40063">
        <ele>129</ele>
        <time>2024-04-09T17:16:04Z</time>
      </trkpt>
      <trkpt lat="43.63044" lon="1.40063">
        <ele>129</ele>
        <time>2024-04-09T17:16:05Z</time>
      </trkpt>
      <trkpt lat="43.63046" lon="1.40063">
        <ele>129</ele>
        <time>2024-04-09T17:16:06Z</time>
      </trkpt>
      <trkpt lat="43.63049" lon="1.40063">
        <ele>128</ele>
        <time>2024-04-09T17:16:07Z</time>
      </trkpt>
      <trkpt lat="43.63051" lon="1.40063">
        <ele>128</ele>
        <time>2024-04-09T17:16:08Z</time>
      </trkpt>
      <trkpt lat="43.63053" lon="1.40063">
        <ele>128</ele>
        <time>2024-04-09T17:16:09Z</time>
      </trkpt>
      <trkpt lat="43.63055" lon="1.40063">
        <ele>128</ele>
        <time>2024-04-09T17:16:10Z</time>
      </trkpt>
      <trkpt lat="43.63058" lon="1.40063">
        <ele>128</ele>
        <time>2024-04-09T17:16:11Z</time>
      </trkpt>
      <trkpt lat="43.6306" lon="1.40064">
        <ele>128</ele>
        <time>2024-04-09T17:16:12Z</time>
      </trkpt>
      <trkpt lat="43.63062" lon="1.40064">
        <ele>128</ele>
        <time>2024-04-09T17:16:13Z</time>
      </trkpt>
      <trkpt lat="43.63064" lon="1.40064">
        <ele>128</ele>
        <time>2024-04-09T17:16:14Z</time>
      </trkpt>
      <trkpt lat="43.63066" lon="1.40064">
        <ele>128</ele>
        <time>2024-04-09T17:16:15Z</time>
      </trkpt>
      <trkpt lat="43.63069" lon="1.40064">
        <ele>128</ele>
        <time>2024-04-09T17:16:16Z</time>
      </trkpt>
      <trkpt lat="43.63071" lon="1.40064">
        <ele>128</ele>
        <time>2024-04-09T17:16:17Z</time>
      </trkpt>
      <trkpt lat="43.63073" lon="1.40064">
        <ele>128</ele>
        <time>2024-04-09T17:16:18Z</time>
      </trkpt>
      <trkpt lat="43.63075" lon="1.40064">
        <ele>128</ele>
        <time>2024-04-09T17:16:19Z</time>
      </trkpt>
      <trkpt lat="43.63077" lon="1.40064">
        <ele>129</ele>
        <time>2024-04-09T17:16:20Z</time>
      </trkpt>
      <trkpt lat="43.63079" lon="1.40064">
        <ele>129</ele>
        <time>2024-04-09T17:16:21Z</time>
      </trkpt>
      <trkpt lat="43.63082" lon="1.40065">
        <ele>129</ele>
        <time>2024-04-09T17:16:22Z</time>
      </trkpt>
      <trkpt lat="43.63084" lon="1.40065">
        <ele>129</ele>
        <time>2024-04-09T17:16:23Z</time>
      </trkpt>
      <trkpt lat="43.63086" lon="1.40065">
        <ele>129</ele>
        <time>2024-04-09T17:16:24Z</time>
      </trkpt>
      <trkpt lat="43.63089" lon="1.40066">
        <ele>129</ele>
        <time>2024-04-09T17:16:25Z</time>
      </trkpt>
      <trkpt lat="43.63091" lon="1.40066">
        <ele>129</ele>
        <time>2024-04-09T17:16:26Z</time>
      </trkpt>
      <trkpt lat="43.63094" lon="1.40066">
        <ele>129</ele>
        <time>2024-04-09T17:16:27Z</time>
      </trkpt>
      <trkpt lat="43.63096" lon="1.40066">
        <ele>129</ele>
        <time>2024-04-09T17:16:28Z</time>
      </trkpt>
      <trkpt lat="43.63099" lon="1.40066">
        <ele>129</ele>
        <time>2024-04-09T17:16:29Z</time>
      </trkpt>
      <trkpt lat="43.63101" lon="1.40067">
        <ele>129</ele>
        <time>2024-04-09T17:16:30Z</time>
      </trkpt>
      <trkpt lat="43.63104" lon="1.40067">
        <ele>129</ele>
        <time>2024-04-09T17:16:31Z</time>
      </trkpt>
      <trkpt lat="43.63106" lon="1.40067">
        <ele>129</ele>
        <time>2024-04-09T17:16:32Z</time>
      </trkpt>
      <trkpt lat="43.63108" lon="1.40067">
        <ele>129</ele>
        <time>2024-04-09T17:16:33Z</time>
      </trkpt>
      <trkpt lat="43.6311" lon="1.40068">
        <ele>129</ele>
        <time>2024-04-09T17:16:34Z</time>
      </trkpt>
      <trkpt lat="43.63113" lon="1.40067">
        <ele>129</ele>
        <time>2024-04-09T17:16:35Z</time>
      </trkpt>
      <trkpt lat="43.63115" lon="1.40067">
        <ele>129</ele>
        <time>2024-04-09T17:16:36Z</time>
      </trkpt>
      <trkpt lat="43.63118" lon="1.40067">
        <ele>129</ele>
        <time>2024-04-09T17:16:37Z</time>
      </trkpt>
      <trkpt lat="43.6312" lon="1.40067">
        <ele>129</ele>
        <time>2024-04-09T17:16:38Z</time>
      </trkpt>
      <trkpt lat="43.63122" lon="1.40068">
        <ele>129</ele>
        <time>2024-04-09T17:16:39Z</time>
      </trkpt>
      <trkpt lat="43.63124" lon="1.40068">
        <ele>129</ele>
        <time>2024-04-09T17:16:40Z</time>
      </trkpt>
      <trkpt lat="43.63126" lon="1.40068">
        <ele>129</ele>
        <time>2024-04-09T17:16:41Z</time>
      </trkpt>
      <trkpt lat="43.63128" lon="1.40068">
        <ele>129</ele>
        <time>2024-04-09T17:16:42Z</time>
      </trkpt>
      <trkpt lat="43.6313" lon="1.40068">
        <ele>129</ele>
        <time>2024-04-09T17:16:43Z</time>
      </trkpt>
      <trkpt lat="43.63132" lon="1.40068">
        <ele>129</ele>
        <time>2024-04-09T17:16:44Z</time>
      </trkpt>
      <trkpt lat="43.63134" lon="1.40068">
        <ele>129</ele>
        <time>2024-04-09T17:16:45Z</time>
      </trkpt>
      <trkpt lat="43.63137" lon="1.40068">
        <ele>129</ele>
        <time>2024-04-09T17:16:46Z</time>
      </trkpt>
      <trkpt lat="43.63139" lon="1.40068">
        <ele>129</ele>
        <time>2024-04-09T17:16:47Z</time>
      </trkpt>
      <trkpt lat="43.63141" lon="1.40068">
        <ele>129</ele>
        <time>2024-04-09T17:16:48Z</time>
      </trkpt>
      <trkpt lat="43.63143" lon="1.40067">
        <ele>129</ele>
        <time>2024-04-09T17:16:49Z</time>
      </trkpt>
      <trkpt lat="43.63146" lon="1.40068">
        <ele>129</ele>
        <time>2024-04-09T17:16:50Z</time>
      </trkpt>
      <trkpt lat="43.63148" lon="1.40068">
        <ele>129</ele>
        <time>2024-04-09T17:16:51Z</time>
      </trkpt>
      <trkpt lat="43.6315" lon="1.40068">
        <ele>129</ele>
        <time>2024-04-09T17:16:52Z</time>
      </trkpt>
      <trkpt lat="43.63153" lon="1.40068">
        <ele>129</ele>
        <time>2024-04-09T17:16:53Z</time>
      </trkpt>
      <trkpt lat="43.63155" lon="1.40068">
        <ele>129</ele>
        <time>2024-04-09T17:16:54Z</time>
      </trkpt>
      <trkpt lat="43.63157" lon="1.40068">
        <ele>129</ele>
        <time>2024-04-09T17:16:55Z</time>
      </trkpt>
      <trkpt lat="43.63159" lon="1.40067">
        <ele>129</ele>
        <time>2024-04-09T17:16:56Z</time>
      </trkpt>
      <trkpt lat="43.63161" lon="1.40067">
        <ele>129</ele>
        <time>2024-04-09T17:16:57Z</time>
      </trkpt>
      <trkpt lat="43.63164" lon="1.40066">
        <ele>128</ele>
        <time>2024-04-09T17:16:58Z</time>
      </trkpt>
      <trkpt lat="43.63164" lon="1.40066">
        <ele>129</ele>
        <time>2024-04-09T17:16:59Z</time>
      </trkpt>
      <trkpt lat="43.63169" lon="1.40065">
        <ele>128</ele>
        <time>2024-04-09T17:17:00Z</time>
      </trkpt>
      <trkpt lat="43.63171" lon="1.40065">
        <ele>128</ele>
        <time>2024-04-09T17:17:01Z</time>
      </trkpt>
      <trkpt lat="43.63173" lon="1.40066">
        <ele>128</ele>
        <time>2024-04-09T17:17:02Z</time>
      </trkpt>
      <trkpt lat="43.63175" lon="1.40066">
        <ele>128</ele>
        <time>2024-04-09T17:17:03Z</time>
      </trkpt>
      <trkpt lat="43.63178" lon="1.40066">
        <ele>129</ele>
        <time>2024-04-09T17:17:04Z</time>
      </trkpt>
      <trkpt lat="43.6318" lon="1.40066">
        <ele>129</ele>
        <time>2024-04-09T17:17:05Z</time>
      </trkpt>
      <trkpt lat="43.63182" lon="1.40067">
        <ele>129</ele>
        <time>2024-04-09T17:17:06Z</time>
      </trkpt>
      <trkpt lat="43.63185" lon="1.40067">
        <ele>129</ele>
        <time>2024-04-09T17:17:07Z</time>
      </trkpt>
      <trkpt lat="43.63187" lon="1.40067">
        <ele>129</ele>
        <time>2024-04-09T17:17:08Z</time>
      </trkpt>
      <trkpt lat="43.63189" lon="1.40066">
        <ele>129</ele>
        <time>2024-04-09T17:17:09Z</time>
      </trkpt>
      <trkpt lat="43.63192" lon="1.40066">
        <ele>129</ele>
        <time>2024-04-09T17:17:10Z</time>
      </trkpt>
      <trkpt lat="43.63194" lon="1.40065">
        <ele>128</ele>
        <time>2024-04-09T17:17:11Z</time>
      </trkpt>
      <trkpt lat="43.63197" lon="1.40064">
        <ele>129</ele>
        <time>2024-04-09T17:17:12Z</time>
      </trkpt>
      <trkpt lat="43.63199" lon="1.40064">
        <ele>129</ele>
        <time>2024-04-09T17:17:13Z</time>
      </trkpt>
      <trkpt lat="43.63201" lon="1.40065">
        <ele>129</ele>
        <time>2024-04-09T17:17:14Z</time>
      </trkpt>
      <trkpt lat="43.63203" lon="1.40065">
        <ele>129</ele>
        <time>2024-04-09T17:17:15Z</time>
      </trkpt>
      <trkpt lat="43.63206" lon="1.40065">
        <ele>129</ele>
        <time>2024-04-09T17:17:16Z</time>
      </trkpt>
      <trkpt lat="43.63208" lon="1.40065">
        <ele>129</ele>
        <time>2024-04-09T17:17:17Z</time>
      </trkpt>
      <trkpt lat="43.6321" lon="1.40065">
        <ele>129</ele>
        <time>2024-04-09T17:17:18Z</time>
      </trkpt>
      <trkpt lat="43.63212" lon="1.40065">
        <ele>129</ele>
        <time>2024-04-09T17:17:19Z</time>
      </trkpt>
      <trkpt lat="43.63214" lon="1.40064">
        <ele>129</ele>
        <time>2024-04-09T17:17:20Z</time>
      </trkpt>
      <trkpt lat="43.63216" lon="1.40064">
        <ele>129</ele>
        <time>2024-04-09T17:17:21Z</time>
      </trkpt>
      <trkpt lat="43.63218" lon="1.40064">
        <ele>129</ele>
        <time>2024-04-09T17:17:22Z</time>
      </trkpt>
      <trkpt lat="43.6322" lon="1.40064">
        <ele>129</ele>
        <time>2024-04-09T17:17:23Z</time>
      </trkpt>
      <trkpt lat="43.63223" lon="1.40063">
        <ele>129</ele>
        <time>2024-04-09T17:17:24Z</time>
      </trkpt>
      <trkpt lat="43.63225" lon="1.40064">
        <ele>129</ele>
        <time>2024-04-09T17:17:25Z</time>
      </trkpt>
      <trkpt lat="43.63228" lon="1.40064">
        <ele>129</ele>
        <time>2024-04-09T17:17:26Z</time>
      </trkpt>
      <trkpt lat="43.6323" lon="1.40064">
        <ele>129</ele>
        <time>2024-04-09T17:17:27Z</time>
      </trkpt>
      <trkpt lat="43.63232" lon="1.40064">
        <ele>129</ele>
        <time>2024-04-09T17:17:28Z</time>
      </trkpt>
      <trkpt lat="43.63234" lon="1.40065">
        <ele>129</ele>
        <time>2024-04-09T17:17:29Z</time>
      </trkpt>
      <trkpt lat="43.63237" lon="1.40065">
        <ele>129</ele>
        <time>2024-04-09T17:17:30Z</time>
      </trkpt>
      <trkpt lat="43.63239" lon="1.40066">
        <ele>130</ele>
        <time>2024-04-09T17:17:31Z</time>
      </trkpt>
      <trkpt lat="43.63242" lon="1.40066">
        <ele>130</ele>
        <time>2024-04-09T17:17:32Z</time>
      </trkpt>
      <trkpt lat="43.63244" lon="1.40066">
        <ele>130</ele>
        <time>2024-04-09T17:17:33Z</time>
      </trkpt>
      <trkpt lat="43.63246" lon="1.40066">
        <ele>130</ele>
        <time>2024-04-09T17:17:34Z</time>
      </trkpt>
      <trkpt lat="43.63249" lon="1.40065">
        <ele>130</ele>
        <time>2024-04-09T17:17:35Z</time>
      </trkpt>
      <trkpt lat="43.63251" lon="1.40065">
        <ele>130</ele>
        <time>2024-04-09T17:17:36Z</time>
      </trkpt>
      <trkpt lat="43.63253" lon="1.40065">
        <ele>130</ele>
        <time>2024-04-09T17:17:37Z</time>
      </trkpt>
      <trkpt lat="43.63256" lon="1.40065">
        <ele>130</ele>
        <time>2024-04-09T17:17:38Z</time>
      </trkpt>
      <trkpt lat="43.63258" lon="1.40064">
        <ele>130</ele>
        <time>2024-04-09T17:17:39Z</time>
      </trkpt>
      <trkpt lat="43.6326" lon="1.40065">
        <ele>129</ele>
        <time>2024-04-09T17:17:40Z</time>
      </trkpt>
      <trkpt lat="43.63263" lon="1.40065">
        <ele>130</ele>
        <time>2024-04-09T17:17:41Z</time>
      </trkpt>
      <trkpt lat="43.63265" lon="1.40065">
        <ele>130</ele>
        <time>2024-04-09T17:17:42Z</time>
      </trkpt>
      <trkpt lat="43.63267" lon="1.40065">
        <ele>130</ele>
        <time>2024-04-09T17:17:43Z</time>
      </trkpt>
      <trkpt lat="43.6327" lon="1.40064">
        <ele>130</ele>
        <time>2024-04-09T17:17:44Z</time>
      </trkpt>
      <trkpt lat="43.63272" lon="1.40064">
        <ele>130</ele>
        <time>2024-04-09T17:17:45Z</time>
      </trkpt>
      <trkpt lat="43.63274" lon="1.40064">
        <ele>130</ele>
        <time>2024-04-09T17:17:46Z</time>
      </trkpt>
      <trkpt lat="43.63277" lon="1.40063">
        <ele>130</ele>
        <time>2024-04-09T17:17:47Z</time>
      </trkpt>
      <trkpt lat="43.63279" lon="1.40063">
        <ele>130</ele>
        <time>2024-04-09T17:17:48Z</time>
      </trkpt>
      <trkpt lat="43.63281" lon="1.40063">
        <ele>130</ele>
        <time>2024-04-09T17:17:49Z</time>
      </trkpt>
      <trkpt lat="43.63284" lon="1.40063">
        <ele>130</ele>
        <time>2024-04-09T17:17:50Z</time>
      </trkpt>
      <trkpt lat="43.63286" lon="1.40063">
        <ele>130</ele>
        <time>2024-04-09T17:17:51Z</time>
      </trkpt>
      <trkpt lat="43.63289" lon="1.40063">
        <ele>130</ele>
        <time>2024-04-09T17:17:52Z</time>
      </trkpt>
      <trkpt lat="43.63292" lon="1.40064">
        <ele>130</ele>
        <time>2024-04-09T17:17:53Z</time>
      </trkpt>
      <trkpt lat="43.63295" lon="1.40064">
        <ele>130</ele>
        <time>2024-04-09T17:17:54Z</time>
      </trkpt>
      <trkpt lat="43.63298" lon="1.40064">
        <ele>130</ele>
        <time>2024-04-09T17:17:55Z</time>
      </trkpt>
      <trkpt lat="43.633" lon="1.40064">
        <ele>130</ele>
        <time>2024-04-09T17:17:56Z</time>
      </trkpt>
      <trkpt lat="43.63303" lon="1.40064">
        <ele>130</ele>
        <time>2024-04-09T17:17:57Z</time>
      </trkpt>
      <trkpt lat="43.63305" lon="1.40064">
        <ele>130</ele>
        <time>2024-04-09T17:17:58Z</time>
      </trkpt>
      <trkpt lat="43.63307" lon="1.40064">
        <ele>130</ele>
        <time>2024-04-09T17:17:59Z</time>
      </trkpt>
      <trkpt lat="43.6331" lon="1.40064">
        <ele>130</ele>
        <time>2024-04-09T17:18:00Z</time>
      </trkpt>
      <trkpt lat="43.63312" lon="1.40064">
        <ele>130</ele>
        <time>2024-04-09T17:18:01Z</time>
      </trkpt>
      <trkpt lat="43.63314" lon="1.40064">
        <ele>130</ele>
        <time>2024-04-09T17:18:02Z</time>
      </trkpt>
      <trkpt lat="43.63317" lon="1.40065">
        <ele>130</ele>
        <time>2024-04-09T17:18:03Z</time>
      </trkpt>
      <trkpt lat="43.6332" lon="1.40064">
        <ele>130</ele>
        <time>2024-04-09T17:18:04Z</time>
      </trkpt>
      <trkpt lat="43.63323" lon="1.40065">
        <ele>130</ele>
        <time>2024-04-09T17:18:05Z</time>
      </trkpt>
      <trkpt lat="43.63325" lon="1.40065">
        <ele>130</ele>
        <time>2024-04-09T17:18:06Z</time>
      </trkpt>
      <trkpt lat="43.63328" lon="1.40065">
        <ele>130</ele>
        <time>2024-04-09T17:18:07Z</time>
      </trkpt>
      <trkpt lat="43.6333" lon="1.40064">
        <ele>130</ele>
        <time>2024-04-09T17:18:08Z</time>
      </trkpt>
      <trkpt lat="43.63332" lon="1.40064">
        <ele>130</ele>
        <time>2024-04-09T17:18:09Z</time>
      </trkpt>
      <trkpt lat="43.63335" lon="1.40064">
        <ele>130</ele>
        <time>2024-04-09T17:18:10Z</time>
      </trkpt>
      <trkpt lat="43.63337" lon="1.40065">
        <ele>130</ele>
        <time>2024-04-09T17:18:11Z</time>
      </trkpt>
      <trkpt lat="43.6334" lon="1.40065">
        <ele>130</ele>
        <time>2024-04-09T17:18:12Z</time>
      </trkpt>
      <trkpt lat="43.63342" lon="1.40065">
        <ele>130</ele>
        <time>2024-04-09T17:18:13Z</time>
      </trkpt>
      <trkpt lat="43.63345" lon="1.40065">
        <ele>130</ele>
        <time>2024-04-09T17:18:14Z</time>
      </trkpt>
      <trkpt lat="43.63347" lon="1.40064">
        <ele>130</ele>
        <time>2024-04-09T17:18:15Z</time>
      </trkpt>
      <trkpt lat="43.63349" lon="1.40064">
        <ele>130</ele>
        <time>2024-04-09T17:18:16Z</time>
      </trkpt>
      <trkpt lat="43.63351" lon="1.40063">
        <ele>130</ele>
        <time>2024-04-09T17:18:17Z</time>
      </trkpt>
      <trkpt lat="43.63353" lon="1.40063">
        <ele>130</ele>
        <time>2024-04-09T17:18:18Z</time>
      </trkpt>
      <trkpt lat="43.63356" lon="1.40062">
        <ele>130</ele>
        <time>2024-04-09T17:18:19Z</time>
      </trkpt>
      <trkpt lat="43.63358" lon="1.40062">
        <ele>130</ele>
        <time>2024-04-09T17:18:20Z</time>
      </trkpt>
      <trkpt lat="43.6336" lon="1.40062">
        <ele>130</ele>
        <time>2024-04-09T17:18:21Z</time>
      </trkpt>
      <trkpt lat="43.63362" lon="1.40061">
        <ele>130</ele>
        <time>2024-04-09T17:18:22Z</time>
      </trkpt>
      <trkpt lat="43.63364" lon="1.40061">
        <ele>130</ele>
        <time>2024-04-09T17:18:23Z</time>
      </trkpt>
      <trkpt lat="43.63366" lon="1.4006">
        <ele>130</ele>
        <time>2024-04-09T17:18:24Z</time>
      </trkpt>
      <trkpt lat="43.63369" lon="1.4006">
        <ele>130</ele>
        <time>2024-04-09T17:18:25Z</time>
      </trkpt>
      <trkpt lat="43.63371" lon="1.4006">
        <ele>130</ele>
        <time>2024-04-09T17:18:26Z</time>
      </trkpt>
      <trkpt lat="43.63373" lon="1.4006">
        <ele>130</ele>
        <time>2024-04-09T17:18:27Z</time>
      </trkpt>
      <trkpt lat="43.63376" lon="1.40059">
        <ele>130</ele>
        <time>2024-04-09T17:18:28Z</time>
      </trkpt>
      <trkpt lat="43.63378" lon="1.40059">
        <ele>130</ele>
        <time>2024-04-09T17:18:29Z</time>
      </trkpt>
      <trkpt lat="43.63381" lon="1.40059">
        <ele>130</ele>
        <time>2024-04-09T17:18:30Z</time>
      </trkpt>
      <trkpt lat="43.63383" lon="1.40059">
        <ele>130</ele>
        <time>2024-04-09T17:18:31Z</time>
      </trkpt>
      <trkpt lat="43.63386" lon="1.40059">
        <ele>130</ele>
        <time>2024-04-09T17:18:32Z</time>
      </trkpt>
      <trkpt lat="43.63389" lon="1.40059">
        <ele>130</ele>
        <time>2024-04-09T17:18:33Z</time>
      </trkpt>
      <trkpt lat="43.63391" lon="1.4006">
        <ele>130</ele>
        <time>2024-04-09T17:18:34Z</time>
      </trkpt>
      <trkpt lat="43.63394" lon="1.4006">
        <ele>130</ele>
        <time>2024-04-09T17:18:35Z</time>
      </trkpt>
      <trkpt lat="43.63396" lon="1.40059">
        <ele>130</ele>
        <time>2024-04-09T17:18:36Z</time>
      </trkpt>
      <trkpt lat="43.63398" lon="1.40059">
        <ele>130</ele>
        <time>2024-04-09T17:18:37Z</time>
      </trkpt>
      <trkpt lat="43.634" lon="1.40059">
        <ele>130</ele>
        <time>2024-04-09T17:18:38Z</time>
      </trkpt>
      <trkpt lat="43.63403" lon="1.40059">
        <ele>130</ele>
        <time>2024-04-09T17:18:39Z</time>
      </trkpt>
      <trkpt lat="43.63406" lon="1.40059">
        <ele>130</ele>
        <time>2024-04-09T17:18:40Z</time>
      </trkpt>
      <trkpt lat="43.63408" lon="1.40059">
        <ele>130</ele>
        <time>2024-04-09T17:18:41Z</time>
      </trkpt>
      <trkpt lat="43.6341" lon="1.40059">
        <ele>130</ele>
        <time>2024-04-09T17:18:42Z</time>
      </trkpt>
      <trkpt lat="43.63413" lon="1.40058">
        <ele>130</ele>
        <time>2024-04-09T17:18:43Z</time>
      </trkpt>
      <trkpt lat="43.63415" lon="1.40058">
        <ele>130</ele>
        <time>2024-04-09T17:18:44Z</time>
      </trkpt>
      <trkpt lat="43.63418" lon="1.40057">
        <ele>130</ele>
        <time>2024-04-09T17:18:45Z</time>
      </trkpt>
      <trkpt lat="43.6342" lon="1.40056">
        <ele>130</ele>
        <time>2024-04-09T17:18:46Z</time>
      </trkpt>
      <trkpt lat="43.63423" lon="1.40057">
        <ele>130</ele>
        <time>2024-04-09T17:18:47Z</time>
      </trkpt>
      <trkpt lat="43.63426" lon="1.40057">
        <ele>130</ele>
        <time>2024-04-09T17:18:48Z</time>
      </trkpt>
      <trkpt lat="43.63428" lon="1.40056">
        <ele>130</ele>
        <time>2024-04-09T17:18:49Z</time>
      </trkpt>
      <trkpt lat="43.63431" lon="1.40056">
        <ele>130</ele>
        <time>2024-04-09T17:18:50Z</time>
      </trkpt>
      <trkpt lat="43.63434" lon="1.40055">
        <ele>130</ele>
        <time>2024-04-09T17:18:51Z</time>
      </trkpt>
      <trkpt lat="43.63436" lon="1.40056">
        <ele>130</ele>
        <time>2024-04-09T17:18:52Z</time>
      </trkpt>
      <trkpt lat="43.63439" lon="1.40056">
        <ele>130</ele>
        <time>2024-04-09T17:18:53Z</time>
      </trkpt>
      <trkpt lat="43.63442" lon="1.40056">
        <ele>130</ele>
        <time>2024-04-09T17:18:54Z</time>
      </trkpt>
      <trkpt lat="43.63444" lon="1.40056">
        <ele>130</ele>
        <time>2024-04-09T17:18:55Z</time>
      </trkpt>
      <trkpt lat="43.63447" lon="1.40055">
        <ele>130</ele>
        <time>2024-04-09T17:18:56Z</time>
      </trkpt>
      <trkpt lat="43.6345" lon="1.40055">
        <ele>129</ele>
        <time>2024-04-09T17:18:57Z</time>
      </trkpt>
      <trkpt lat="43.63452" lon="1.40055">
        <ele>129</ele>
        <time>2024-04-09T17:18:58Z</time>
      </trkpt>
      <trkpt lat="43.63455" lon="1.40055">
        <ele>130</ele>
        <time>2024-04-09T17:18:59Z</time>
      </trkpt>
      <trkpt lat="43.63458" lon="1.40056">
        <ele>129</ele>
        <time>2024-04-09T17:19:00Z</time>
      </trkpt>
      <trkpt lat="43.6346" lon="1.40056">
        <ele>129</ele>
        <time>2024-04-09T17:19:01Z</time>
      </trkpt>
      <trkpt lat="43.63463" lon="1.40056">
        <ele>129</ele>
        <time>2024-04-09T17:19:02Z</time>
      </trkpt>
      <trkpt lat="43.63465" lon="1.40056">
        <ele>130</ele>
        <time>2024-04-09T17:19:03Z</time>
      </trkpt>
      <trkpt lat="43.63468" lon="1.40057">
        <ele>130</ele>
        <time>2024-04-09T17:19:04Z</time>
      </trkpt>
      <trkpt lat="43.6347" lon="1.40057">
        <ele>130</ele>
        <time>2024-04-09T17:19:05Z</time>
      </trkpt>
      <trkpt lat="43.63472" lon="1.40058">
        <ele>130</ele>
        <time>2024-04-09T17:19:06Z</time>
      </trkpt>
      <trkpt lat="43.63474" lon="1.40058">
        <ele>130</ele>
        <time>2024-04-09T17:19:07Z</time>
      </trkpt>
      <trkpt lat="43.63477" lon="1.40058">
        <ele>130</ele>
        <time>2024-04-09T17:19:08Z</time>
      </trkpt>
      <trkpt lat="43.63479" lon="1.40058">
        <ele>130</ele>
        <time>2024-04-09T17:19:09Z</time>
      </trkpt>
      <trkpt lat="43.63481" lon="1.40057">
        <ele>130</ele>
        <time>2024-04-09T17:19:10Z</time>
      </trkpt>
      <trkpt lat="43.63482" lon="1.40056">
        <ele>130</ele>
        <time>2024-04-09T17:19:11Z</time>
      </trkpt>
      <trkpt lat="43.63484" lon="1.40054">
        <ele>131</ele>
        <time>2024-04-09T17:19:12Z</time>
      </trkpt>
      <trkpt lat="43.63484" lon="1.40054">
        <ele>131</ele>
        <time>2024-04-09T17:19:13Z</time>
      </trkpt>
      <trkpt lat="43.63486" lon="1.40052">
        <ele>131</ele>
        <time>2024-04-09T17:19:14Z</time>
      </trkpt>
      <trkpt lat="43.63486" lon="1.40052">
        <ele>131</ele>
        <time>2024-04-09T17:19:15Z</time>
      </trkpt>
      <trkpt lat="43.63487" lon="1.40054">
        <ele>130</ele>
        <time>2024-04-09T17:19:16Z</time>
      </trkpt>
      <trkpt lat="43.63487" lon="1.40054">
        <ele>131</ele>
        <time>2024-04-09T17:19:17Z</time>
      </trkpt>
      <trkpt lat="43.63489" lon="1.40052">
        <ele>131</ele>
        <time>2024-04-09T17:19:18Z</time>
      </trkpt>
      <trkpt lat="43.63491" lon="1.4005">
        <ele>131</ele>
        <time>2024-04-09T17:19:19Z</time>
      </trkpt>
      <trkpt lat="43.63491" lon="1.4005">
        <ele>131</ele>
        <time>2024-04-09T17:19:20Z</time>
      </trkpt>
      <trkpt lat="43.63495" lon="1.40049">
        <ele>131</ele>
        <time>2024-04-09T17:19:21Z</time>
      </trkpt>
      <trkpt lat="43.63496" lon="1.4005">
        <ele>131</ele>
        <time>2024-04-09T17:19:22Z</time>
      </trkpt>
      <trkpt lat="43.63496" lon="1.4005">
        <ele>132</ele>
        <time>2024-04-09T17:19:23Z</time>
      </trkpt>
      <trkpt lat="43.635" lon="1.4005">
        <ele>132</ele>
        <time>2024-04-09T17:19:24Z</time>
      </trkpt>
      <trkpt lat="43.635" lon="1.4005">
        <ele>132</ele>
        <time>2024-04-09T17:19:25Z</time>
      </trkpt>
      <trkpt lat="43.63503" lon="1.4005">
        <ele>132</ele>
        <time>2024-04-09T17:19:26Z</time>
      </trkpt>
      <trkpt lat="43.63505" lon="1.40049">
        <ele>132</ele>
        <time>2024-04-09T17:19:27Z</time>
      </trkpt>
      <trkpt lat="43.63507" lon="1.40049">
        <ele>132</ele>
        <time>2024-04-09T17:19:28Z</time>
      </trkpt>
      <trkpt lat="43.63509" lon="1.40048">
        <ele>132</ele>
        <time>2024-04-09T17:19:29Z</time>
      </trkpt>
      <trkpt lat="43.63511" lon="1.40047">
        <ele>132</ele>
        <time>2024-04-09T17:19:30Z</time>
      </trkpt>
      <trkpt lat="43.63513" lon="1.40046">
        <ele>132</ele>
        <time>2024-04-09T17:19:31Z</time>
      </trkpt>
      <trkpt lat="43.63515" lon="1.40046">
        <ele>132</ele>
        <time>2024-04-09T17:19:32Z</time>
      </trkpt>
      <trkpt lat="43.63517" lon="1.40045">
        <ele>132</ele>
        <time>2024-04-09T17:19:33Z</time>
      </trkpt>
      <trkpt lat="43.6352" lon="1.40045">
        <ele>132</ele>
        <time>2024-04-09T17:19:34Z</time>
      </trkpt>
      <trkpt lat="43.63522" lon="1.40044">
        <ele>131</ele>
        <time>2024-04-09T17:19:35Z</time>
      </trkpt>
      <trkpt lat="43.63524" lon="1.40043">
        <ele>132</ele>
        <time>2024-04-09T17:19:36Z</time>
      </trkpt>
      <trkpt lat="43.63527" lon="1.40042">
        <ele>132</ele>
        <time>2024-04-09T17:19:37Z</time>
      </trkpt>
      <trkpt lat="43.63529" lon="1.40042">
        <ele>132</ele>
        <time>2024-04-09T17:19:38Z</time>
      </trkpt>
      <trkpt lat="43.63531" lon="1.40042">
        <ele>132</ele>
        <time>2024-04-09T17:19:39Z</time>
      </trkpt>
      <trkpt lat="43.63533" lon="1.40042">
        <ele>132</ele>
        <time>2024-04-09T17:19:40Z</time>
      </trkpt>
      <trkpt lat="43.63535" lon="1.40042">
        <ele>132</ele>
        <time>2024-04-09T17:19:41Z</time>
      </trkpt>
      <trkpt lat="43.63537" lon="1.40042">
        <ele>132</ele>
        <time>2024-04-09T17:19:42Z</time>
      </trkpt>
      <trkpt lat="43.63539" lon="1.40041">
        <ele>132</ele>
        <time>2024-04-09T17:19:43Z</time>
      </trkpt>
      <trkpt lat="43.63539" lon="1.40041">
        <ele>132</ele>
        <time>2024-04-09T17:19:44Z</time>
      </trkpt>
      <trkpt lat="43.63543" lon="1.40041">
        <ele>132</ele>
        <time>2024-04-09T17:19:45Z</time>
      </trkpt>
      <trkpt lat="43.63545" lon="1.40041">
        <ele>132</ele>
        <time>2024-04-09T17:19:46Z</time>
      </trkpt>
      <trkpt lat="43.63547" lon="1.4004">
        <ele>131</ele>
        <time>2024-04-09T17:19:47Z</time>
      </trkpt>
      <trkpt lat="43.63549" lon="1.4004">
        <ele>131</ele>
        <time>2024-04-09T17:19:48Z</time>
      </trkpt>
      <trkpt lat="43.63552" lon="1.4004">
        <ele>131</ele>
        <time>2024-04-09T17:19:49Z</time>
      </trkpt>
      <trkpt lat="43.63554" lon="1.4004">
        <ele>131</ele>
        <time>2024-04-09T17:19:50Z</time>
      </trkpt>
      <trkpt lat="43.63557" lon="1.4004">
        <ele>131</ele>
        <time>2024-04-09T17:19:51Z</time>
      </trkpt>
      <trkpt lat="43.63559" lon="1.4004">
        <ele>131</ele>
        <time>2024-04-09T17:19:52Z</time>
      </trkpt>
      <trkpt lat="43.63562" lon="1.4004">
        <ele>131</ele>
        <time>2024-04-09T17:19:53Z</time>
      </trkpt>
      <trkpt lat="43.63564" lon="1.40041">
        <ele>131</ele>
        <time>2024-04-09T17:19:54Z</time>
      </trkpt>
      <trkpt lat="43.63566" lon="1.40041">
        <ele>131</ele>
        <time>2024-04-09T17:19:55Z</time>
      </trkpt>
      <trkpt lat="43.63569" lon="1.40041">
        <ele>131</ele>
        <time>2024-04-09T17:19:56Z</time>
      </trkpt>
      <trkpt lat="43.63571" lon="1.40042">
        <ele>132</ele>
        <time>2024-04-09T17:19:57Z</time>
      </trkpt>
      <trkpt lat="43.63573" lon="1.40043">
        <ele>132</ele>
        <time>2024-04-09T17:19:58Z</time>
      </trkpt>
      <trkpt lat="43.63575" lon="1.40044">
        <ele>132</ele>
        <time>2024-04-09T17:19:59Z</time>
      </trkpt>
      <trkpt lat="43.63577" lon="1.40045">
        <ele>131</ele>
        <time>2024-04-09T17:20:00Z</time>
      </trkpt>
      <trkpt lat="43.6358" lon="1.40048">
        <ele>131</ele>
        <time>2024-04-09T17:20:01Z</time>
      </trkpt>
      <trkpt lat="43.63582" lon="1.40048">
        <ele>131</ele>
        <time>2024-04-09T17:20:02Z</time>
      </trkpt>
      <trkpt lat="43.63584" lon="1.40048">
        <ele>131</ele>
        <time>2024-04-09T17:20:03Z</time>
      </trkpt>
      <trkpt lat="43.63587" lon="1.40047">
        <ele>130</ele>
        <time>2024-04-09T17:20:04Z</time>
      </trkpt>
      <trkpt lat="43.6359" lon="1.40047">
        <ele>130</ele>
        <time>2024-04-09T17:20:05Z</time>
      </trkpt>
      <trkpt lat="43.63593" lon="1.40046">
        <ele>130</ele>
        <time>2024-04-09T17:20:06Z</time>
      </trkpt>
      <trkpt lat="43.63595" lon="1.40046">
        <ele>131</ele>
        <time>2024-04-09T17:20:07Z</time>
      </trkpt>
      <trkpt lat="43.63598" lon="1.40046">
        <ele>131</ele>
        <time>2024-04-09T17:20:08Z</time>
      </trkpt>
      <trkpt lat="43.636" lon="1.40046">
        <ele>130</ele>
        <time>2024-04-09T17:20:09Z</time>
      </trkpt>
      <trkpt lat="43.63603" lon="1.40045">
        <ele>130</ele>
        <time>2024-04-09T17:20:10Z</time>
      </trkpt>
      <trkpt lat="43.63604" lon="1.40042">
        <ele>130</ele>
        <time>2024-04-09T17:20:11Z</time>
      </trkpt>
      <trkpt lat="43.63606" lon="1.4004">
        <ele>130</ele>
        <time>2024-04-09T17:20:12Z</time>
      </trkpt>
      <trkpt lat="43.63608" lon="1.40037">
        <ele>131</ele>
        <time>2024-04-09T17:20:13Z</time>
      </trkpt>
      <trkpt lat="43.63609" lon="1.40033">
        <ele>131</ele>
        <time>2024-04-09T17:20:14Z</time>
      </trkpt>
      <trkpt lat="43.63611" lon="1.4003">
        <ele>131</ele>
        <time>2024-04-09T17:20:15Z</time>
      </trkpt>
      <trkpt lat="43.63612" lon="1.40027">
        <ele>131</ele>
        <time>2024-04-09T17:20:16Z</time>
      </trkpt>
      <trkpt lat="43.63614" lon="1.40025">
        <ele>131</ele>
        <time>2024-04-09T17:20:17Z</time>
      </trkpt>
      <trkpt lat="43.63616" lon="1.40022">
        <ele>131</ele>
        <time>2024-04-09T17:20:18Z</time>
      </trkpt>
      <trkpt lat="43.63617" lon="1.4002">
        <ele>131</ele>
        <time>2024-04-09T17:20:19Z</time>
      </trkpt>
      <trkpt lat="43.63619" lon="1.40019">
        <ele>131</ele>
        <time>2024-04-09T17:20:20Z</time>
      </trkpt>
      <trkpt lat="43.63621" lon="1.40018">
        <ele>131</ele>
        <time>2024-04-09T17:20:21Z</time>
      </trkpt>
      <trkpt lat="43.63623" lon="1.40017">
        <ele>131</ele>
        <time>2024-04-09T17:20:22Z</time>
      </trkpt>
      <trkpt lat="43.63626" lon="1.40017">
        <ele>131</ele>
        <time>2024-04-09T17:20:23Z</time>
      </trkpt>
      <trkpt lat="43.63628" lon="1.40016">
        <ele>131</ele>
        <time>2024-04-09T17:20:24Z</time>
      </trkpt>
      <trkpt lat="43.6363" lon="1.40015">
        <ele>131</ele>
        <time>2024-04-09T17:20:25Z</time>
      </trkpt>
      <trkpt lat="43.63632" lon="1.40015">
        <ele>131</ele>
        <time>2024-04-09T17:20:26Z</time>
      </trkpt>
      <trkpt lat="43.63635" lon="1.40014">
        <ele>131</ele>
        <time>2024-04-09T17:20:27Z</time>
      </trkpt>
      <trkpt lat="43.63637" lon="1.40015">
        <ele>131</ele>
        <time>2024-04-09T17:20:28Z</time>
      </trkpt>
      <trkpt lat="43.6364" lon="1.40017">
        <ele>131</ele>
        <time>2024-04-09T17:20:29Z</time>
      </trkpt>
      <trkpt lat="43.63642" lon="1.40018">
        <ele>131</ele>
        <time>2024-04-09T17:20:30Z</time>
      </trkpt>
      <trkpt lat="43.63642" lon="1.40018">
        <ele>131</ele>
        <time>2024-04-09T17:20:31Z</time>
      </trkpt>
      <trkpt lat="43.63644" lon="1.4002">
        <ele>131</ele>
        <time>2024-04-09T17:20:32Z</time>
      </trkpt>
      <trkpt lat="43.63644" lon="1.4002">
        <ele>131</ele>
        <time>2024-04-09T17:20:33Z</time>
      </trkpt>
      <trkpt lat="43.63649" lon="1.40021">
        <ele>131</ele>
        <time>2024-04-09T17:20:34Z</time>
      </trkpt>
      <trkpt lat="43.6365" lon="1.40021">
        <ele>131</ele>
        <time>2024-04-09T17:20:35Z</time>
      </trkpt>
      <trkpt lat="43.63652" lon="1.40022">
        <ele>132</ele>
        <time>2024-04-09T17:20:36Z</time>
      </trkpt>
      <trkpt lat="43.63654" lon="1.40022">
        <ele>132</ele>
        <time>2024-04-09T17:20:37Z</time>
      </trkpt>
      <trkpt lat="43.63656" lon="1.40021">
        <ele>132</ele>
        <time>2024-04-09T17:20:38Z</time>
      </trkpt>
      <trkpt lat="43.63658" lon="1.40021">
        <ele>132</ele>
        <time>2024-04-09T17:20:39Z</time>
      </trkpt>
      <trkpt lat="43.6366" lon="1.40021">
        <ele>132</ele>
        <time>2024-04-09T17:20:40Z</time>
      </trkpt>
      <trkpt lat="43.63663" lon="1.40021">
        <ele>132</ele>
        <time>2024-04-09T17:20:41Z</time>
      </trkpt>
      <trkpt lat="43.63665" lon="1.40021">
        <ele>132</ele>
        <time>2024-04-09T17:20:42Z</time>
      </trkpt>
      <trkpt lat="43.63668" lon="1.40021">
        <ele>132</ele>
        <time>2024-04-09T17:20:43Z</time>
      </trkpt>
      <trkpt lat="43.6367" lon="1.40021">
        <ele>132</ele>
        <time>2024-04-09T17:20:44Z</time>
      </trkpt>
      <trkpt lat="43.63673" lon="1.4002">
        <ele>132</ele>
        <time>2024-04-09T17:20:45Z</time>
      </trkpt>
      <trkpt lat="43.63676" lon="1.40019">
        <ele>132</ele>
        <time>2024-04-09T17:20:46Z</time>
      </trkpt>
      <trkpt lat="43.63678" lon="1.40018">
        <ele>133</ele>
        <time>2024-04-09T17:20:47Z</time>
      </trkpt>
      <trkpt lat="43.63681" lon="1.40018">
        <ele>133</ele>
        <time>2024-04-09T17:20:48Z</time>
      </trkpt>
      <trkpt lat="43.63684" lon="1.40018">
        <ele>133</ele>
        <time>2024-04-09T17:20:49Z</time>
      </trkpt>
      <trkpt lat="43.63687" lon="1.40018">
        <ele>132</ele>
        <time>2024-04-09T17:20:50Z</time>
      </trkpt>
      <trkpt lat="43.63689" lon="1.40017">
        <ele>132</ele>
        <time>2024-04-09T17:20:51Z</time>
      </trkpt>
      <trkpt lat="43.63691" lon="1.40016">
        <ele>131</ele>
        <time>2024-04-09T17:20:52Z</time>
      </trkpt>
      <trkpt lat="43.63694" lon="1.40015">
        <ele>131</ele>
        <time>2024-04-09T17:20:53Z</time>
      </trkpt>
      <trkpt lat="43.63696" lon="1.40014">
        <ele>131</ele>
        <time>2024-04-09T17:20:54Z</time>
      </trkpt>
      <trkpt lat="43.63699" lon="1.40013">
        <ele>131</ele>
        <time>2024-04-09T17:20:55Z</time>
      </trkpt>
      <trkpt lat="43.63701" lon="1.40012">
        <ele>131</ele>
        <time>2024-04-09T17:20:56Z</time>
      </trkpt>
      <trkpt lat="43.63703" lon="1.40011">
        <ele>131</ele>
        <time>2024-04-09T17:20:57Z</time>
      </trkpt>
      <trkpt lat="43.63706" lon="1.4001">
        <ele>132</ele>
        <time>2024-04-09T17:20:58Z</time>
      </trkpt>
      <trkpt lat="43.63708" lon="1.40009">
        <ele>132</ele>
        <time>2024-04-09T17:20:59Z</time>
      </trkpt>
      <trkpt lat="43.6371" lon="1.40008">
        <ele>132</ele>
        <time>2024-04-09T17:21:00Z</time>
      </trkpt>
      <trkpt lat="43.63713" lon="1.40008">
        <ele>132</ele>
        <time>2024-04-09T17:21:01Z</time>
      </trkpt>
      <trkpt lat="43.63716" lon="1.40009">
        <ele>132</ele>
        <time>2024-04-09T17:21:02Z</time>
      </trkpt>
      <trkpt lat="43.63719" lon="1.40009">
        <ele>132</ele>
        <time>2024-04-09T17:21:03Z</time>
      </trkpt>
      <trkpt lat="43.63721" lon="1.40009">
        <ele>132</ele>
        <time>2024-04-09T17:21:04Z</time>
      </trkpt>
      <trkpt lat="43.63724" lon="1.40009">
        <ele>132</ele>
        <time>2024-04-09T17:21:05Z</time>
      </trkpt>
      <trkpt lat="43.63726" lon="1.40009">
        <ele>132</ele>
        <time>2024-04-09T17:21:06Z</time>
      </trkpt>
      <trkpt lat="43.63729" lon="1.40009">
        <ele>132</ele>
        <time>2024-04-09T17:21:07Z</time>
      </trkpt>
      <trkpt lat="43.63731" lon="1.40009">
        <ele>132</ele>
        <time>2024-04-09T17:21:08Z</time>
      </trkpt>
      <trkpt lat="43.63733" lon="1.40009">
        <ele>132</ele>
        <time>2024-04-09T17:21:09Z</time>
      </trkpt>
      <trkpt lat="43.63736" lon="1.40009">
        <ele>132</ele>
        <time>2024-04-09T17:21:10Z</time>
      </trkpt>
      <trkpt lat="43.63738" lon="1.40009">
        <ele>132</ele>
        <time>2024-04-09T17:21:11Z</time>
      </trkpt>
      <trkpt lat="43.63741" lon="1.40008">
        <ele>132</ele>
        <time>2024-04-09T17:21:12Z</time>
      </trkpt>
      <trkpt lat="43.63743" lon="1.40008">
        <ele>132</ele>
        <time>2024-04-09T17:21:13Z</time>
      </trkpt>
      <trkpt lat="43.63746" lon="1.40008">
        <ele>132</ele>
        <time>2024-04-09T17:21:14Z</time>
      </trkpt>
      <trkpt lat="43.63748" lon="1.40008">
        <ele>132</ele>
        <time>2024-04-09T17:21:15Z</time>
      </trkpt>
      <trkpt lat="43.6375" lon="1.40008">
        <ele>132</ele>
        <time>2024-04-09T17:21:16Z</time>
      </trkpt>
      <trkpt lat="43.63753" lon="1.40008">
        <ele>132</ele>
        <time>2024-04-09T17:21:17Z</time>
      </trkpt>
      <trkpt lat="43.63755" lon="1.40008">
        <ele>132</ele>
        <time>2024-04-09T17:21:18Z</time>
      </trkpt>
      <trkpt lat="43.63758" lon="1.40008">
        <ele>132</ele>
        <time>2024-04-09T17:21:19Z</time>
      </trkpt>
      <trkpt lat="43.63761" lon="1.40007">
        <ele>132</ele>
        <time>2024-04-09T17:21:20Z</time>
      </trkpt>
      <trkpt lat="43.63763" lon="1.40007">
        <ele>132</ele>
        <time>2024-04-09T17:21:21Z</time>
      </trkpt>
      <trkpt lat="43.63765" lon="1.40006">
        <ele>131</ele>
        <time>2024-04-09T17:21:22Z</time>
      </trkpt>
      <trkpt lat="43.63768" lon="1.40006">
        <ele>132</ele>
        <time>2024-04-09T17:21:23Z</time>
      </trkpt>
      <trkpt lat="43.6377" lon="1.40006">
        <ele>132</ele>
        <time>2024-04-09T17:21:24Z</time>
      </trkpt>
      <trkpt lat="43.63772" lon="1.40006">
        <ele>132</ele>
        <time>2024-04-09T17:21:25Z</time>
      </trkpt>
      <trkpt lat="43.63775" lon="1.40006">
        <ele>132</ele>
        <time>2024-04-09T17:21:26Z</time>
      </trkpt>
      <trkpt lat="43.63778" lon="1.40006">
        <ele>132</ele>
        <time>2024-04-09T17:21:27Z</time>
      </trkpt>
      <trkpt lat="43.6378" lon="1.40006">
        <ele>132</ele>
        <time>2024-04-09T17:21:28Z</time>
      </trkpt>
      <trkpt lat="43.63783" lon="1.40006">
        <ele>132</ele>
        <time>2024-04-09T17:21:29Z</time>
      </trkpt>
      <trkpt lat="43.63785" lon="1.40006">
        <ele>132</ele>
        <time>2024-04-09T17:21:30Z</time>
      </trkpt>
      <trkpt lat="43.63788" lon="1.40006">
        <ele>132</ele>
        <time>2024-04-09T17:21:31Z</time>
      </trkpt>
      <trkpt lat="43.6379" lon="1.40005">
        <ele>132</ele>
        <time>2024-04-09T17:21:32Z</time>
      </trkpt>
      <trkpt lat="43.63793" lon="1.40005">
        <ele>132</ele>
        <time>2024-04-09T17:21:33Z</time>
      </trkpt>
      <trkpt lat="43.63795" lon="1.40004">
        <ele>132</ele>
        <time>2024-04-09T17:21:34Z</time>
      </trkpt>
      <trkpt lat="43.63798" lon="1.40004">
        <ele>132</ele>
        <time>2024-04-09T17:21:35Z</time>
      </trkpt>
      <trkpt lat="43.638" lon="1.40003">
        <ele>132</ele>
        <time>2024-04-09T17:21:36Z</time>
      </trkpt>
      <trkpt lat="43.63802" lon="1.40003">
        <ele>132</ele>
        <time>2024-04-09T17:21:37Z</time>
      </trkpt>
      <trkpt lat="43.63805" lon="1.40002">
        <ele>131</ele>
        <time>2024-04-09T17:21:38Z</time>
      </trkpt>
      <trkpt lat="43.63807" lon="1.40001">
        <ele>132</ele>
        <time>2024-04-09T17:21:39Z</time>
      </trkpt>
      <trkpt lat="43.63809" lon="1.40001">
        <ele>132</ele>
        <time>2024-04-09T17:21:40Z</time>
      </trkpt>
      <trkpt lat="43.63812" lon="1.4">
        <ele>132</ele>
        <time>2024-04-09T17:21:41Z</time>
      </trkpt>
      <trkpt lat="43.63814" lon="1.4">
        <ele>132</ele>
        <time>2024-04-09T17:21:42Z</time>
      </trkpt>
      <trkpt lat="43.63816" lon="1.39999">
        <ele>132</ele>
        <time>2024-04-09T17:21:43Z</time>
      </trkpt>
      <trkpt lat="43.63819" lon="1.39999">
        <ele>132</ele>
        <time>2024-04-09T17:21:44Z</time>
      </trkpt>
      <trkpt lat="43.63821" lon="1.39999">
        <ele>132</ele>
        <time>2024-04-09T17:21:45Z</time>
      </trkpt>
      <trkpt lat="43.63824" lon="1.39999">
        <ele>132</ele>
        <time>2024-04-09T17:21:46Z</time>
      </trkpt>
      <trkpt lat="43.63826" lon="1.4">
        <ele>132</ele>
        <time>2024-04-09T17:21:47Z</time>
      </trkpt>
      <trkpt lat="43.63829" lon="1.4">
        <ele>132</ele>
        <time>2024-04-09T17:21:48Z</time>
      </trkpt>
      <trkpt lat="43.63831" lon="1.4">
        <ele>132</ele>
        <time>2024-04-09T17:21:49Z</time>
      </trkpt>
      <trkpt lat="43.63834" lon="1.4">
        <ele>132</ele>
        <time>2024-04-09T17:21:50Z</time>
      </trkpt>
      <trkpt lat="43.63836" lon="1.4">
        <ele>132</ele>
        <time>2024-04-09T17:21:51Z</time>
      </trkpt>
      <trkpt lat="43.63838" lon="1.39999">
        <ele>132</ele>
        <time>2024-04-09T17:21:52Z</time>
      </trkpt>
      <trkpt lat="43.6384" lon="1.4">
        <ele>132</ele>
        <time>2024-04-09T17:21:53Z</time>
      </trkpt>
      <trkpt lat="43.63842" lon="1.4">
        <ele>132</ele>
        <time>2024-04-09T17:21:54Z</time>
      </trkpt>
      <trkpt lat="43.63844" lon="1.4">
        <ele>132</ele>
        <time>2024-04-09T17:21:55Z</time>
      </trkpt>
      <trkpt lat="43.63847" lon="1.4">
        <ele>132</ele>
        <time>2024-04-09T17:21:56Z</time>
      </trkpt>
      <trkpt lat="43.63849" lon="1.4">
        <ele>132</ele>
        <time>2024-04-09T17:21:57Z</time>
      </trkpt>
      <trkpt lat="43.63851" lon="1.4">
        <ele>132</ele>
        <time>2024-04-09T17:21:58Z</time>
      </trkpt>
      <trkpt lat="43.63854" lon="1.39999">
        <ele>132</ele>
        <time>2024-04-09T17:21:59Z</time>
      </trkpt>
      <trkpt lat="43.63856" lon="1.39999">
        <ele>132</ele>
        <time>2024-04-09T17:22:00Z</time>
      </trkpt>
      <trkpt lat="43.63858" lon="1.39999">
        <ele>133</ele>
        <time>2024-04-09T17:22:01Z</time>
      </trkpt>
      <trkpt lat="43.6386" lon="1.39999">
        <ele>133</ele>
        <time>2024-04-09T17:22:02Z</time>
      </trkpt>
      <trkpt lat="43.63862" lon="1.39998">
        <ele>132</ele>
        <time>2024-04-09T17:22:03Z</time>
      </trkpt>
      <trkpt lat="43.63865" lon="1.39998">
        <ele>132</ele>
        <time>2024-04-09T17:22:04Z</time>
      </trkpt>
      <trkpt lat="43.63867" lon="1.39997">
        <ele>132</ele>
        <time>2024-04-09T17:22:05Z</time>
      </trkpt>
      <trkpt lat="43.6387" lon="1.39997">
        <ele>132</ele>
        <time>2024-04-09T17:22:06Z</time>
      </trkpt>
      <trkpt lat="43.63872" lon="1.39997">
        <ele>132</ele>
        <time>2024-04-09T17:22:07Z</time>
      </trkpt>
      <trkpt lat="43.63875" lon="1.39997">
        <ele>132</ele>
        <time>2024-04-09T17:22:08Z</time>
      </trkpt>
      <trkpt lat="43.63877" lon="1.39996">
        <ele>132</ele>
        <time>2024-04-09T17:22:09Z</time>
      </trkpt>
      <trkpt lat="43.63879" lon="1.39997">
        <ele>132</ele>
        <time>2024-04-09T17:22:10Z</time>
      </trkpt>
      <trkpt lat="43.63882" lon="1.39998">
        <ele>132</ele>
        <time>2024-04-09T17:22:11Z</time>
      </trkpt>
      <trkpt lat="43.63884" lon="1.39998">
        <ele>132</ele>
        <time>2024-04-09T17:22:12Z</time>
      </trkpt>
      <trkpt lat="43.63887" lon="1.39998">
        <ele>132</ele>
        <time>2024-04-09T17:22:13Z</time>
      </trkpt>
      <trkpt lat="43.63889" lon="1.39999">
        <ele>131</ele>
        <time>2024-04-09T17:22:14Z</time>
      </trkpt>
      <trkpt lat="43.63891" lon="1.39999">
        <ele>131</ele>
        <time>2024-04-09T17:22:15Z</time>
      </trkpt>
      <trkpt lat="43.63893" lon="1.39999">
        <ele>131</ele>
        <time>2024-04-09T17:22:16Z</time>
      </trkpt>
      <trkpt lat="43.63895" lon="1.39998">
        <ele>131</ele>
        <time>2024-04-09T17:22:17Z</time>
      </trkpt>
      <trkpt lat="43.63897" lon="1.39998">
        <ele>131</ele>
        <time>2024-04-09T17:22:18Z</time>
      </trkpt>
      <trkpt lat="43.63899" lon="1.39997">
        <ele>131</ele>
        <time>2024-04-09T17:22:19Z</time>
      </trkpt>
      <trkpt lat="43.63901" lon="1.39996">
        <ele>131</ele>
        <time>2024-04-09T17:22:20Z</time>
      </trkpt>
      <trkpt lat="43.63903" lon="1.39995">
        <ele>131</ele>
        <time>2024-04-09T17:22:21Z</time>
      </trkpt>
      <trkpt lat="43.63906" lon="1.39995">
        <ele>131</ele>
        <time>2024-04-09T17:22:22Z</time>
      </trkpt>
      <trkpt lat="43.63908" lon="1.39994">
        <ele>131</ele>
        <time>2024-04-09T17:22:23Z</time>
      </trkpt>
      <trkpt lat="43.6391" lon="1.39994">
        <ele>131</ele>
        <time>2024-04-09T17:22:24Z</time>
      </trkpt>
      <trkpt lat="43.63912" lon="1.39994">
        <ele>131</ele>
        <time>2024-04-09T17:22:25Z</time>
      </trkpt>
      <trkpt lat="43.63915" lon="1.39993">
        <ele>131</ele>
        <time>2024-04-09T17:22:26Z</time>
      </trkpt>
      <trkpt lat="43.63918" lon="1.39994">
        <ele>132</ele>
        <time>2024-04-09T17:22:27Z</time>
      </trkpt>
      <trkpt lat="43.6392" lon="1.39993">
        <ele>132</ele>
        <time>2024-04-09T17:22:28Z</time>
      </trkpt>
      <trkpt lat="43.63922" lon="1.39993">
        <ele>132</ele>
        <time>2024-04-09T17:22:29Z</time>
      </trkpt>
      <trkpt lat="43.63924" lon="1.39993">
        <ele>132</ele>
        <time>2024-04-09T17:22:30Z</time>
      </trkpt>
      <trkpt lat="43.63927" lon="1.39993">
        <ele>132</ele>
        <time>2024-04-09T17:22:31Z</time>
      </trkpt>
      <trkpt lat="43.63929" lon="1.39994">
        <ele>132</ele>
        <time>2024-04-09T17:22:32Z</time>
      </trkpt>
      <trkpt lat="43.63931" lon="1.39994">
        <ele>132</ele>
        <time>2024-04-09T17:22:33Z</time>
      </trkpt>
      <trkpt lat="43.63934" lon="1.39994">
        <ele>132</ele>
        <time>2024-04-09T17:22:34Z</time>
      </trkpt>
      <trkpt lat="43.63936" lon="1.39995">
        <ele>132</ele>
        <time>2024-04-09T17:22:35Z</time>
      </trkpt>
      <trkpt lat="43.63938" lon="1.39995">
        <ele>132</ele>
        <time>2024-04-09T17:22:36Z</time>
      </trkpt>
      <trkpt lat="43.6394" lon="1.39995">
        <ele>133</ele>
        <time>2024-04-09T17:22:37Z</time>
      </trkpt>
      <trkpt lat="43.63943" lon="1.39995">
        <ele>133</ele>
        <time>2024-04-09T17:22:38Z</time>
      </trkpt>
      <trkpt lat="43.63945" lon="1.39995">
        <ele>133</ele>
        <time>2024-04-09T17:22:39Z</time>
      </trkpt>
      <trkpt lat="43.63947" lon="1.39994">
        <ele>133</ele>
        <time>2024-04-09T17:22:40Z</time>
      </trkpt>
      <trkpt lat="43.63949" lon="1.39994">
        <ele>133</ele>
        <time>2024-04-09T17:22:41Z</time>
      </trkpt>
      <trkpt lat="43.63952" lon="1.39995">
        <ele>133</ele>
        <time>2024-04-09T17:22:42Z</time>
      </trkpt>
      <trkpt lat="43.63954" lon="1.39995">
        <ele>133</ele>
        <time>2024-04-09T17:22:43Z</time>
      </trkpt>
      <trkpt lat="43.63956" lon="1.39996">
        <ele>132</ele>
        <time>2024-04-09T17:22:44Z</time>
      </trkpt>
      <trkpt lat="43.63958" lon="1.39995">
        <ele>132</ele>
        <time>2024-04-09T17:22:45Z</time>
      </trkpt>
      <trkpt lat="43.6396" lon="1.39995">
        <ele>133</ele>
        <time>2024-04-09T17:22:46Z</time>
      </trkpt>
      <trkpt lat="43.63963" lon="1.39996">
        <ele>133</ele>
        <time>2024-04-09T17:22:47Z</time>
      </trkpt>
      <trkpt lat="43.63965" lon="1.39996">
        <ele>133</ele>
        <time>2024-04-09T17:22:48Z</time>
      </trkpt>
      <trkpt lat="43.63967" lon="1.39996">
        <ele>133</ele>
        <time>2024-04-09T17:22:49Z</time>
      </trkpt>
      <trkpt lat="43.63969" lon="1.39995">
        <ele>133</ele>
        <time>2024-04-09T17:22:50Z</time>
      </trkpt>
      <trkpt lat="43.63972" lon="1.39995">
        <ele>133</ele>
        <time>2024-04-09T17:22:51Z</time>
      </trkpt>
      <trkpt lat="43.63974" lon="1.39995">
        <ele>133</ele>
        <time>2024-04-09T17:22:52Z</time>
      </trkpt>
      <trkpt lat="43.63976" lon="1.39995">
        <ele>133</ele>
        <time>2024-04-09T17:22:53Z</time>
      </trkpt>
      <trkpt lat="43.63979" lon="1.39994">
        <ele>133</ele>
        <time>2024-04-09T17:22:54Z</time>
      </trkpt>
      <trkpt lat="43.63981" lon="1.39994">
        <ele>133</ele>
        <time>2024-04-09T17:22:55Z</time>
      </trkpt>
      <trkpt lat="43.63983" lon="1.39994">
        <ele>133</ele>
        <time>2024-04-09T17:22:56Z</time>
      </trkpt>
      <trkpt lat="43.63985" lon="1.39994">
        <ele>134</ele>
        <time>2024-04-09T17:22:57Z</time>
      </trkpt>
      <trkpt lat="43.63988" lon="1.39994">
        <ele>134</ele>
        <time>2024-04-09T17:22:58Z</time>
      </trkpt>
      <trkpt lat="43.6399" lon="1.39994">
        <ele>134</ele>
        <time>2024-04-09T17:22:59Z</time>
      </trkpt>
      <trkpt lat="43.63992" lon="1.39994">
        <ele>134</ele>
        <time>2024-04-09T17:23:00Z</time>
      </trkpt>
      <trkpt lat="43.63995" lon="1.39994">
        <ele>134</ele>
        <time>2024-04-09T17:23:01Z</time>
      </trkpt>
      <trkpt lat="43.63997" lon="1.39994">
        <ele>134</ele>
        <time>2024-04-09T17:23:02Z</time>
      </trkpt>
      <trkpt lat="43.63999" lon="1.39994">
        <ele>134</ele>
        <time>2024-04-09T17:23:03Z</time>
      </trkpt>
      <trkpt lat="43.64002" lon="1.39994">
        <ele>134</ele>
        <time>2024-04-09T17:23:04Z</time>
      </trkpt>
      <trkpt lat="43.64004" lon="1.39994">
        <ele>133</ele>
        <time>2024-04-09T17:23:05Z</time>
      </trkpt>
      <trkpt lat="43.64007" lon="1.39994">
        <ele>133</ele>
        <time>2024-04-09T17:23:06Z</time>
      </trkpt>
      <trkpt lat="43.64009" lon="1.39994">
        <ele>133</ele>
        <time>2024-04-09T17:23:07Z</time>
      </trkpt>
      <trkpt lat="43.64011" lon="1.39994">
        <ele>134</ele>
        <time>2024-04-09T17:23:08Z</time>
      </trkpt>
      <trkpt lat="43.64014" lon="1.39994">
        <ele>134</ele>
        <time>2024-04-09T17:23:09Z</time>
      </trkpt>
      <trkpt lat="43.64017" lon="1.39994">
        <ele>134</ele>
        <time>2024-04-09T17:23:10Z</time>
      </trkpt>
      <trkpt lat="43.64019" lon="1.39994">
        <ele>133</ele>
        <time>2024-04-09T17:23:11Z</time>
      </trkpt>
      <trkpt lat="43.64021" lon="1.39994">
        <ele>133</ele>
        <time>2024-04-09T17:23:12Z</time>
      </trkpt>
      <trkpt lat="43.64023" lon="1.39994">
        <ele>133</ele>
        <time>2024-04-09T17:23:13Z</time>
      </trkpt>
      <trkpt lat="43.64025" lon="1.39994">
        <ele>133</ele>
        <time>2024-04-09T17:23:14Z</time>
      </trkpt>
      <trkpt lat="43.64028" lon="1.39993">
        <ele>133</ele>
        <time>2024-04-09T17:23:15Z</time>
      </trkpt>
      <trkpt lat="43.6403" lon="1.39993">
        <ele>133</ele>
        <time>2024-04-09T17:23:16Z</time>
      </trkpt>
      <trkpt lat="43.64033" lon="1.39993">
        <ele>133</ele>
        <time>2024-04-09T17:23:17Z</time>
      </trkpt>
      <trkpt lat="43.64035" lon="1.39993">
        <ele>133</ele>
        <time>2024-04-09T17:23:18Z</time>
      </trkpt>
      <trkpt lat="43.64038" lon="1.39993">
        <ele>133</ele>
        <time>2024-04-09T17:23:19Z</time>
      </trkpt>
      <trkpt lat="43.6404" lon="1.39993">
        <ele>133</ele>
        <time>2024-04-09T17:23:20Z</time>
      </trkpt>
      <trkpt lat="43.64043" lon="1.39992">
        <ele>133</ele>
        <time>2024-04-09T17:23:21Z</time>
      </trkpt>
      <trkpt lat="43.64045" lon="1.39992">
        <ele>133</ele>
        <time>2024-04-09T17:23:22Z</time>
      </trkpt>
      <trkpt lat="43.64047" lon="1.39992">
        <ele>133</ele>
        <time>2024-04-09T17:23:23Z</time>
      </trkpt>
      <trkpt lat="43.6405" lon="1.39992">
        <ele>133</ele>
        <time>2024-04-09T17:23:24Z</time>
      </trkpt>
      <trkpt lat="43.64052" lon="1.39991">
        <ele>133</ele>
        <time>2024-04-09T17:23:25Z</time>
      </trkpt>
      <trkpt lat="43.64055" lon="1.39991">
        <ele>133</ele>
        <time>2024-04-09T17:23:26Z</time>
      </trkpt>
      <trkpt lat="43.64057" lon="1.39991">
        <ele>133</ele>
        <time>2024-04-09T17:23:27Z</time>
      </trkpt>
      <trkpt lat="43.64059" lon="1.3999">
        <ele>133</ele>
        <time>2024-04-09T17:23:28Z</time>
      </trkpt>
      <trkpt lat="43.64062" lon="1.3999">
        <ele>133</ele>
        <time>2024-04-09T17:23:29Z</time>
      </trkpt>
      <trkpt lat="43.64064" lon="1.39989">
        <ele>133</ele>
        <time>2024-04-09T17:23:30Z</time>
      </trkpt>
      <trkpt lat="43.64067" lon="1.39989">
        <ele>133</ele>
        <time>2024-04-09T17:23:31Z</time>
      </trkpt>
      <trkpt lat="43.64069" lon="1.39988">
        <ele>133</ele>
        <time>2024-04-09T17:23:32Z</time>
      </trkpt>
      <trkpt lat="43.64071" lon="1.39988">
        <ele>133</ele>
        <time>2024-04-09T17:23:33Z</time>
      </trkpt>
      <trkpt lat="43.64074" lon="1.39988">
        <ele>134</ele>
        <time>2024-04-09T17:23:34Z</time>
      </trkpt>
      <trkpt lat="43.64076" lon="1.39988">
        <ele>134</ele>
        <time>2024-04-09T17:23:35Z</time>
      </trkpt>
      <trkpt lat="43.64078" lon="1.39988">
        <ele>134</ele>
        <time>2024-04-09T17:23:36Z</time>
      </trkpt>
      <trkpt lat="43.6408" lon="1.39988">
        <ele>134</ele>
        <time>2024-04-09T17:23:37Z</time>
      </trkpt>
      <trkpt lat="43.64082" lon="1.39988">
        <ele>134</ele>
        <time>2024-04-09T17:23:38Z</time>
      </trkpt>
      <trkpt lat="43.64085" lon="1.39988">
        <ele>134</ele>
        <time>2024-04-09T17:23:39Z</time>
      </trkpt>
      <trkpt lat="43.64087" lon="1.39988">
        <ele>134</ele>
        <time>2024-04-09T17:23:40Z</time>
      </trkpt>
      <trkpt lat="43.64089" lon="1.39988">
        <ele>134</ele>
        <time>2024-04-09T17:23:41Z</time>
      </trkpt>
      <trkpt lat="43.64091" lon="1.39988">
        <ele>134</ele>
        <time>2024-04-09T17:23:42Z</time>
      </trkpt>
      <trkpt lat="43.64093" lon="1.39988">
        <ele>134</ele>
        <time>2024-04-09T17:23:43Z</time>
      </trkpt>
      <trkpt lat="43.64096" lon="1.39987">
        <ele>134</ele>
        <time>2024-04-09T17:23:44Z</time>
      </trkpt>
      <trkpt lat="43.64098" lon="1.39987">
        <ele>134</ele>
        <time>2024-04-09T17:23:45Z</time>
      </trkpt>
      <trkpt lat="43.641" lon="1.39987">
        <ele>134</ele>
        <time>2024-04-09T17:23:46Z</time>
      </trkpt>
      <trkpt lat="43.64103" lon="1.39986">
        <ele>134</ele>
        <time>2024-04-09T17:23:47Z</time>
      </trkpt>
      <trkpt lat="43.64105" lon="1.39986">
        <ele>134</ele>
        <time>2024-04-09T17:23:48Z</time>
      </trkpt>
      <trkpt lat="43.64107" lon="1.39985">
        <ele>134</ele>
        <time>2024-04-09T17:23:49Z</time>
      </trkpt>
      <trkpt lat="43.6411" lon="1.39984">
        <ele>134</ele>
        <time>2024-04-09T17:23:50Z</time>
      </trkpt>
      <trkpt lat="43.64112" lon="1.39983">
        <ele>133</ele>
        <time>2024-04-09T17:23:51Z</time>
      </trkpt>
      <trkpt lat="43.64114" lon="1.39982">
        <ele>134</ele>
        <time>2024-04-09T17:23:52Z</time>
      </trkpt>
      <trkpt lat="43.64117" lon="1.39982">
        <ele>134</ele>
        <time>2024-04-09T17:23:53Z</time>
      </trkpt>
      <trkpt lat="43.64119" lon="1.39981">
        <ele>134</ele>
        <time>2024-04-09T17:23:54Z</time>
      </trkpt>
      <trkpt lat="43.64121" lon="1.39981">
        <ele>134</ele>
        <time>2024-04-09T17:23:55Z</time>
      </trkpt>
      <trkpt lat="43.64123" lon="1.3998">
        <ele>134</ele>
        <time>2024-04-09T17:23:56Z</time>
      </trkpt>
      <trkpt lat="43.64125" lon="1.3998">
        <ele>134</ele>
        <time>2024-04-09T17:23:57Z</time>
      </trkpt>
      <trkpt lat="43.64128" lon="1.39979">
        <ele>134</ele>
        <time>2024-04-09T17:23:58Z</time>
      </trkpt>
      <trkpt lat="43.6413" lon="1.39979">
        <ele>134</ele>
        <time>2024-04-09T17:23:59Z</time>
      </trkpt>
      <trkpt lat="43.64132" lon="1.39978">
        <ele>133</ele>
        <time>2024-04-09T17:24:00Z</time>
      </trkpt>
      <trkpt lat="43.64135" lon="1.39977">
        <ele>133</ele>
        <time>2024-04-09T17:24:01Z</time>
      </trkpt>
      <trkpt lat="43.64137" lon="1.39976">
        <ele>133</ele>
        <time>2024-04-09T17:24:02Z</time>
      </trkpt>
      <trkpt lat="43.64139" lon="1.39975">
        <ele>133</ele>
        <time>2024-04-09T17:24:03Z</time>
      </trkpt>
      <trkpt lat="43.64142" lon="1.39975">
        <ele>133</ele>
        <time>2024-04-09T17:24:04Z</time>
      </trkpt>
      <trkpt lat="43.64144" lon="1.39974">
        <ele>133</ele>
        <time>2024-04-09T17:24:05Z</time>
      </trkpt>
      <trkpt lat="43.64147" lon="1.39974">
        <ele>133</ele>
        <time>2024-04-09T17:24:06Z</time>
      </trkpt>
      <trkpt lat="43.64149" lon="1.39974">
        <ele>133</ele>
        <time>2024-04-09T17:24:07Z</time>
      </trkpt>
      <trkpt lat="43.64152" lon="1.39973">
        <ele>133</ele>
        <time>2024-04-09T17:24:08Z</time>
      </trkpt>
      <trkpt lat="43.64154" lon="1.39973">
        <ele>133</ele>
        <time>2024-04-09T17:24:09Z</time>
      </trkpt>
      <trkpt lat="43.64156" lon="1.39972">
        <ele>133</ele>
        <time>2024-04-09T17:24:10Z</time>
      </trkpt>
      <trkpt lat="43.64159" lon="1.39971">
        <ele>133</ele>
        <time>2024-04-09T17:24:11Z</time>
      </trkpt>
      <trkpt lat="43.64161" lon="1.3997">
        <ele>132</ele>
        <time>2024-04-09T17:24:12Z</time>
      </trkpt>
      <trkpt lat="43.64163" lon="1.3997">
        <ele>132</ele>
        <time>2024-04-09T17:24:13Z</time>
      </trkpt>
      <trkpt lat="43.64166" lon="1.39969">
        <ele>132</ele>
        <time>2024-04-09T17:24:14Z</time>
      </trkpt>
      <trkpt lat="43.64168" lon="1.39968">
        <ele>132</ele>
        <time>2024-04-09T17:24:15Z</time>
      </trkpt>
      <trkpt lat="43.6417" lon="1.39967">
        <ele>131</ele>
        <time>2024-04-09T17:24:16Z</time>
      </trkpt>
      <trkpt lat="43.64172" lon="1.39967">
        <ele>131</ele>
        <time>2024-04-09T17:24:17Z</time>
      </trkpt>
      <trkpt lat="43.64175" lon="1.39966">
        <ele>131</ele>
        <time>2024-04-09T17:24:18Z</time>
      </trkpt>
      <trkpt lat="43.64177" lon="1.39966">
        <ele>131</ele>
        <time>2024-04-09T17:24:19Z</time>
      </trkpt>
      <trkpt lat="43.64179" lon="1.39965">
        <ele>131</ele>
        <time>2024-04-09T17:24:20Z</time>
      </trkpt>
      <trkpt lat="43.64181" lon="1.39964">
        <ele>132</ele>
        <time>2024-04-09T17:24:21Z</time>
      </trkpt>
      <trkpt lat="43.64184" lon="1.39964">
        <ele>132</ele>
        <time>2024-04-09T17:24:22Z</time>
      </trkpt>
      <trkpt lat="43.64186" lon="1.39963">
        <ele>131</ele>
        <time>2024-04-09T17:24:23Z</time>
      </trkpt>
      <trkpt lat="43.64188" lon="1.39963">
        <ele>132</ele>
        <time>2024-04-09T17:24:24Z</time>
      </trkpt>
      <trkpt lat="43.6419" lon="1.39962">
        <ele>132</ele>
        <time>2024-04-09T17:24:25Z</time>
      </trkpt>
      <trkpt lat="43.64192" lon="1.39961">
        <ele>132</ele>
        <time>2024-04-09T17:24:26Z</time>
      </trkpt>
      <trkpt lat="43.64194" lon="1.3996">
        <ele>132</ele>
        <time>2024-04-09T17:24:27Z</time>
      </trkpt>
      <trkpt lat="43.64196" lon="1.39959">
        <ele>132</ele>
        <time>2024-04-09T17:24:28Z</time>
      </trkpt>
      <trkpt lat="43.64199" lon="1.39958">
        <ele>132</ele>
        <time>2024-04-09T17:24:29Z</time>
      </trkpt>
      <trkpt lat="43.64201" lon="1.39957">
        <ele>132</ele>
        <time>2024-04-09T17:24:30Z</time>
      </trkpt>
      <trkpt lat="43.64202" lon="1.39955">
        <ele>132</ele>
        <time>2024-04-09T17:24:31Z</time>
      </trkpt>
      <trkpt lat="43.64204" lon="1.39953">
        <ele>132</ele>
        <time>2024-04-09T17:24:32Z</time>
      </trkpt>
      <trkpt lat="43.64206" lon="1.39951">
        <ele>132</ele>
        <time>2024-04-09T17:24:33Z</time>
      </trkpt>
      <trkpt lat="43.64208" lon="1.39949">
        <ele>132</ele>
        <time>2024-04-09T17:24:34Z</time>
      </trkpt>
      <trkpt lat="43.64209" lon="1.39947">
        <ele>132</ele>
        <time>2024-04-09T17:24:35Z</time>
      </trkpt>
      <trkpt lat="43.64211" lon="1.39945">
        <ele>132</ele>
        <time>2024-04-09T17:24:36Z</time>
      </trkpt>
      <trkpt lat="43.64213" lon="1.39942">
        <ele>132</ele>
        <time>2024-04-09T17:24:37Z</time>
      </trkpt>
      <trkpt lat="43.64214" lon="1.3994">
        <ele>132</ele>
        <time>2024-04-09T17:24:38Z</time>
      </trkpt>
      <trkpt lat="43.64216" lon="1.39939">
        <ele>132</ele>
        <time>2024-04-09T17:24:39Z</time>
      </trkpt>
      <trkpt lat="43.64218" lon="1.39937">
        <ele>131</ele>
        <time>2024-04-09T17:24:40Z</time>
      </trkpt>
      <trkpt lat="43.6422" lon="1.39935">
        <ele>131</ele>
        <time>2024-04-09T17:24:41Z</time>
      </trkpt>
      <trkpt lat="43.64222" lon="1.39933">
        <ele>131</ele>
        <time>2024-04-09T17:24:42Z</time>
      </trkpt>
      <trkpt lat="43.64224" lon="1.39931">
        <ele>131</ele>
        <time>2024-04-09T17:24:43Z</time>
      </trkpt>
      <trkpt lat="43.64226" lon="1.3993">
        <ele>131</ele>
        <time>2024-04-09T17:24:44Z</time>
      </trkpt>
      <trkpt lat="43.64228" lon="1.39928">
        <ele>131</ele>
        <time>2024-04-09T17:24:45Z</time>
      </trkpt>
      <trkpt lat="43.64229" lon="1.39927">
        <ele>131</ele>
        <time>2024-04-09T17:24:46Z</time>
      </trkpt>
      <trkpt lat="43.64231" lon="1.39925">
        <ele>132</ele>
        <time>2024-04-09T17:24:47Z</time>
      </trkpt>
      <trkpt lat="43.64233" lon="1.39924">
        <ele>132</ele>
        <time>2024-04-09T17:24:48Z</time>
      </trkpt>
      <trkpt lat="43.64235" lon="1.39923">
        <ele>132</ele>
        <time>2024-04-09T17:24:49Z</time>
      </trkpt>
      <trkpt lat="43.64237" lon="1.39922">
        <ele>132</ele>
        <time>2024-04-09T17:24:50Z</time>
      </trkpt>
      <trkpt lat="43.6424" lon="1.39921">
        <ele>132</ele>
        <time>2024-04-09T17:24:51Z</time>
      </trkpt>
      <trkpt lat="43.64242" lon="1.39921">
        <ele>132</ele>
        <time>2024-04-09T17:24:52Z</time>
      </trkpt>
      <trkpt lat="43.64244" lon="1.3992">
        <ele>132</ele>
        <time>2024-04-09T17:24:53Z</time>
      </trkpt>
      <trkpt lat="43.64246" lon="1.39919">
        <ele>132</ele>
        <time>2024-04-09T17:24:54Z</time>
      </trkpt>
      <trkpt lat="43.64249" lon="1.39919">
        <ele>132</ele>
        <time>2024-04-09T17:24:55Z</time>
      </trkpt>
      <trkpt lat="43.64251" lon="1.39918">
        <ele>132</ele>
        <time>2024-04-09T17:24:56Z</time>
      </trkpt>
      <trkpt lat="43.64254" lon="1.39918">
        <ele>132</ele>
        <time>2024-04-09T17:24:57Z</time>
      </trkpt>
      <trkpt lat="43.64257" lon="1.39918">
        <ele>132</ele>
        <time>2024-04-09T17:24:58Z</time>
      </trkpt>
      <trkpt lat="43.64259" lon="1.39918">
        <ele>132</ele>
        <time>2024-04-09T17:24:59Z</time>
      </trkpt>
      <trkpt lat="43.64262" lon="1.39917">
        <ele>132</ele>
        <time>2024-04-09T17:25:00Z</time>
      </trkpt>
      <trkpt lat="43.64264" lon="1.39917">
        <ele>132</ele>
        <time>2024-04-09T17:25:01Z</time>
      </trkpt>
      <trkpt lat="43.64267" lon="1.39917">
        <ele>132</ele>
        <time>2024-04-09T17:25:02Z</time>
      </trkpt>
      <trkpt lat="43.6427" lon="1.39917">
        <ele>132</ele>
        <time>2024-04-09T17:25:03Z</time>
      </trkpt>
      <trkpt lat="43.64272" lon="1.39917">
        <ele>132</ele>
        <time>2024-04-09T17:25:04Z</time>
      </trkpt>
      <trkpt lat="43.64274" lon="1.39918">
        <ele>132</ele>
        <time>2024-04-09T17:25:05Z</time>
      </trkpt>
      <trkpt lat="43.64277" lon="1.39918">
        <ele>132</ele>
        <time>2024-04-09T17:25:06Z</time>
      </trkpt>
      <trkpt lat="43.64279" lon="1.39918">
        <ele>132</ele>
        <time>2024-04-09T17:25:07Z</time>
      </trkpt>
      <trkpt lat="43.64282" lon="1.39919">
        <ele>132</ele>
        <time>2024-04-09T17:25:08Z</time>
      </trkpt>
      <trkpt lat="43.64284" lon="1.3992">
        <ele>132</ele>
        <time>2024-04-09T17:25:09Z</time>
      </trkpt>
      <trkpt lat="43.64286" lon="1.39921">
        <ele>132</ele>
        <time>2024-04-09T17:25:10Z</time>
      </trkpt>
      <trkpt lat="43.64289" lon="1.39922">
        <ele>132</ele>
        <time>2024-04-09T17:25:11Z</time>
      </trkpt>
      <trkpt lat="43.64291" lon="1.39923">
        <ele>132</ele>
        <time>2024-04-09T17:25:12Z</time>
      </trkpt>
      <trkpt lat="43.64293" lon="1.39924">
        <ele>132</ele>
        <time>2024-04-09T17:25:13Z</time>
      </trkpt>
      <trkpt lat="43.64295" lon="1.39925">
        <ele>131</ele>
        <time>2024-04-09T17:25:14Z</time>
      </trkpt>
      <trkpt lat="43.64298" lon="1.39926">
        <ele>131</ele>
        <time>2024-04-09T17:25:15Z</time>
      </trkpt>
      <trkpt lat="43.643" lon="1.39927">
        <ele>131</ele>
        <time>2024-04-09T17:25:16Z</time>
      </trkpt>
      <trkpt lat="43.64302" lon="1.39929">
        <ele>131</ele>
        <time>2024-04-09T17:25:17Z</time>
      </trkpt>
      <trkpt lat="43.64304" lon="1.3993">
        <ele>131</ele>
        <time>2024-04-09T17:25:18Z</time>
      </trkpt>
      <trkpt lat="43.64306" lon="1.39931">
        <ele>131</ele>
        <time>2024-04-09T17:25:19Z</time>
      </trkpt>
      <trkpt lat="43.64308" lon="1.39933">
        <ele>131</ele>
        <time>2024-04-09T17:25:20Z</time>
      </trkpt>
      <trkpt lat="43.6431" lon="1.39934">
        <ele>131</ele>
        <time>2024-04-09T17:25:21Z</time>
      </trkpt>
      <trkpt lat="43.64312" lon="1.39935">
        <ele>131</ele>
        <time>2024-04-09T17:25:22Z</time>
      </trkpt>
      <trkpt lat="43.64314" lon="1.39936">
        <ele>131</ele>
        <time>2024-04-09T17:25:23Z</time>
      </trkpt>
      <trkpt lat="43.64317" lon="1.39937">
        <ele>131</ele>
        <time>2024-04-09T17:25:24Z</time>
      </trkpt>
      <trkpt lat="43.64319" lon="1.39938">
        <ele>131</ele>
        <time>2024-04-09T17:25:25Z</time>
      </trkpt>
      <trkpt lat="43.64321" lon="1.39938">
        <ele>131</ele>
        <time>2024-04-09T17:25:26Z</time>
      </trkpt>
      <trkpt lat="43.64324" lon="1.39939">
        <ele>131</ele>
        <time>2024-04-09T17:25:27Z</time>
      </trkpt>
      <trkpt lat="43.64326" lon="1.39939">
        <ele>131</ele>
        <time>2024-04-09T17:25:28Z</time>
      </trkpt>
      <trkpt lat="43.64329" lon="1.3994">
        <ele>131</ele>
        <time>2024-04-09T17:25:29Z</time>
      </trkpt>
      <trkpt lat="43.64331" lon="1.3994">
        <ele>131</ele>
        <time>2024-04-09T17:25:30Z</time>
      </trkpt>
      <trkpt lat="43.64333" lon="1.39941">
        <ele>131</ele>
        <time>2024-04-09T17:25:31Z</time>
      </trkpt>
      <trkpt lat="43.64336" lon="1.39941">
        <ele>131</ele>
        <time>2024-04-09T17:25:32Z</time>
      </trkpt>
      <trkpt lat="43.64338" lon="1.39942">
        <ele>131</ele>
        <time>2024-04-09T17:25:33Z</time>
      </trkpt>
      <trkpt lat="43.6434" lon="1.39942">
        <ele>131</ele>
        <time>2024-04-09T17:25:34Z</time>
      </trkpt>
      <trkpt lat="43.64342" lon="1.39943">
        <ele>131</ele>
        <time>2024-04-09T17:25:35Z</time>
      </trkpt>
      <trkpt lat="43.64344" lon="1.39944">
        <ele>131</ele>
        <time>2024-04-09T17:25:36Z</time>
      </trkpt>
      <trkpt lat="43.64346" lon="1.39944">
        <ele>131</ele>
        <time>2024-04-09T17:25:37Z</time>
      </trkpt>
      <trkpt lat="43.64348" lon="1.39944">
        <ele>131</ele>
        <time>2024-04-09T17:25:38Z</time>
      </trkpt>
      <trkpt lat="43.64351" lon="1.39945">
        <ele>131</ele>
        <time>2024-04-09T17:25:39Z</time>
      </trkpt>
      <trkpt lat="43.64353" lon="1.39945">
        <ele>131</ele>
        <time>2024-04-09T17:25:40Z</time>
      </trkpt>
      <trkpt lat="43.64355" lon="1.39946">
        <ele>131</ele>
        <time>2024-04-09T17:25:41Z</time>
      </trkpt>
      <trkpt lat="43.64357" lon="1.39946">
        <ele>131</ele>
        <time>2024-04-09T17:25:42Z</time>
      </trkpt>
      <trkpt lat="43.64359" lon="1.39947">
        <ele>131</ele>
        <time>2024-04-09T17:25:43Z</time>
      </trkpt>
      <trkpt lat="43.64361" lon="1.39947">
        <ele>131</ele>
        <time>2024-04-09T17:25:44Z</time>
      </trkpt>
      <trkpt lat="43.64364" lon="1.39947">
        <ele>131</ele>
        <time>2024-04-09T17:25:45Z</time>
      </trkpt>
      <trkpt lat="43.64366" lon="1.39947">
        <ele>132</ele>
        <time>2024-04-09T17:25:46Z</time>
      </trkpt>
      <trkpt lat="43.64369" lon="1.39947">
        <ele>132</ele>
        <time>2024-04-09T17:25:47Z</time>
      </trkpt>
      <trkpt lat="43.64371" lon="1.39947">
        <ele>131</ele>
        <time>2024-04-09T17:25:48Z</time>
      </trkpt>
      <trkpt lat="43.64374" lon="1.39948">
        <ele>132</ele>
        <time>2024-04-09T17:25:49Z</time>
      </trkpt>
      <trkpt lat="43.64377" lon="1.39948">
        <ele>132</ele>
        <time>2024-04-09T17:25:50Z</time>
      </trkpt>
      <trkpt lat="43.64379" lon="1.39948">
        <ele>132</ele>
        <time>2024-04-09T17:25:51Z</time>
      </trkpt>
      <trkpt lat="43.64382" lon="1.39949">
        <ele>132</ele>
        <time>2024-04-09T17:25:52Z</time>
      </trkpt>
      <trkpt lat="43.64384" lon="1.39949">
        <ele>132</ele>
        <time>2024-04-09T17:25:53Z</time>
      </trkpt>
      <trkpt lat="43.64387" lon="1.39949">
        <ele>132</ele>
        <time>2024-04-09T17:25:54Z</time>
      </trkpt>
      <trkpt lat="43.64389" lon="1.39949">
        <ele>131</ele>
        <time>2024-04-09T17:25:55Z</time>
      </trkpt>
      <trkpt lat="43.64392" lon="1.39949">
        <ele>131</ele>
        <time>2024-04-09T17:25:56Z</time>
      </trkpt>
      <trkpt lat="43.64395" lon="1.39949">
        <ele>131</ele>
        <time>2024-04-09T17:25:57Z</time>
      </trkpt>
      <trkpt lat="43.64397" lon="1.39949">
        <ele>131</ele>
        <time>2024-04-09T17:25:58Z</time>
      </trkpt>
      <trkpt lat="43.644" lon="1.39949">
        <ele>131</ele>
        <time>2024-04-09T17:25:59Z</time>
      </trkpt>
      <trkpt lat="43.64402" lon="1.3995">
        <ele>131</ele>
        <time>2024-04-09T17:26:00Z</time>
      </trkpt>
      <trkpt lat="43.64405" lon="1.3995">
        <ele>131</ele>
        <time>2024-04-09T17:26:01Z</time>
      </trkpt>
      <trkpt lat="43.64407" lon="1.3995">
        <ele>131</ele>
        <time>2024-04-09T17:26:02Z</time>
      </trkpt>
      <trkpt lat="43.6441" lon="1.39951">
        <ele>131</ele>
        <time>2024-04-09T17:26:03Z</time>
      </trkpt>
      <trkpt lat="43.64412" lon="1.39952">
        <ele>131</ele>
        <time>2024-04-09T17:26:04Z</time>
      </trkpt>
      <trkpt lat="43.64415" lon="1.39952">
        <ele>131</ele>
        <time>2024-04-09T17:26:05Z</time>
      </trkpt>
      <trkpt lat="43.64417" lon="1.39952">
        <ele>131</ele>
        <time>2024-04-09T17:26:06Z</time>
      </trkpt>
      <trkpt lat="43.6442" lon="1.39952">
        <ele>131</ele>
        <time>2024-04-09T17:26:07Z</time>
      </trkpt>
      <trkpt lat="43.64422" lon="1.39952">
        <ele>131</ele>
        <time>2024-04-09T17:26:08Z</time>
      </trkpt>
      <trkpt lat="43.64424" lon="1.39952">
        <ele>131</ele>
        <time>2024-04-09T17:26:09Z</time>
      </trkpt>
      <trkpt lat="43.64427" lon="1.39952">
        <ele>131</ele>
        <time>2024-04-09T17:26:10Z</time>
      </trkpt>
      <trkpt lat="43.64429" lon="1.39952">
        <ele>131</ele>
        <time>2024-04-09T17:26:11Z</time>
      </trkpt>
      <trkpt lat="43.64432" lon="1.39952">
        <ele>131</ele>
        <time>2024-04-09T17:26:12Z</time>
      </trkpt>
      <trkpt lat="43.64434" lon="1.39952">
        <ele>131</ele>
        <time>2024-04-09T17:26:13Z</time>
      </trkpt>
      <trkpt lat="43.64436" lon="1.39952">
        <ele>131</ele>
        <time>2024-04-09T17:26:14Z</time>
      </trkpt>
      <trkpt lat="43.64438" lon="1.39952">
        <ele>131</ele>
        <time>2024-04-09T17:26:15Z</time>
      </trkpt>
      <trkpt lat="43.64441" lon="1.39952">
        <ele>131</ele>
        <time>2024-04-09T17:26:16Z</time>
      </trkpt>
      <trkpt lat="43.64443" lon="1.39952">
        <ele>131</ele>
        <time>2024-04-09T17:26:17Z</time>
      </trkpt>
      <trkpt lat="43.64445" lon="1.39952">
        <ele>131</ele>
        <time>2024-04-09T17:26:18Z</time>
      </trkpt>
      <trkpt lat="43.64448" lon="1.39953">
        <ele>131</ele>
        <time>2024-04-09T17:26:19Z</time>
      </trkpt>
      <trkpt lat="43.6445" lon="1.39953">
        <ele>131</ele>
        <time>2024-04-09T17:26:20Z</time>
      </trkpt>
      <trkpt lat="43.64452" lon="1.39953">
        <ele>131</ele>
        <time>2024-04-09T17:26:21Z</time>
      </trkpt>
      <trkpt lat="43.64454" lon="1.39953">
        <ele>131</ele>
        <time>2024-04-09T17:26:22Z</time>
      </trkpt>
      <trkpt lat="43.64456" lon="1.39953">
        <ele>131</ele>
        <time>2024-04-09T17:26:23Z</time>
      </trkpt>
      <trkpt lat="43.64459" lon="1.39953">
        <ele>131</ele>
        <time>2024-04-09T17:26:24Z</time>
      </trkpt>
      <trkpt lat="43.64461" lon="1.39953">
        <ele>131</ele>
        <time>2024-04-09T17:26:25Z</time>
      </trkpt>
      <trkpt lat="43.64464" lon="1.39953">
        <ele>131</ele>
        <time>2024-04-09T17:26:26Z</time>
      </trkpt>
      <trkpt lat="43.64466" lon="1.39953">
        <ele>131</ele>
        <time>2024-04-09T17:26:27Z</time>
      </trkpt>
      <trkpt lat="43.64468" lon="1.39952">
        <ele>131</ele>
        <time>2024-04-09T17:26:28Z</time>
      </trkpt>
      <trkpt lat="43.6447" lon="1.39952">
        <ele>131</ele>
        <time>2024-04-09T17:26:29Z</time>
      </trkpt>
      <trkpt lat="43.64472" lon="1.39952">
        <ele>131</ele>
        <time>2024-04-09T17:26:30Z</time>
      </trkpt>
      <trkpt lat="43.64474" lon="1.39951">
        <ele>131</ele>
        <time>2024-04-09T17:26:31Z</time>
      </trkpt>
      <trkpt lat="43.64477" lon="1.39951">
        <ele>132</ele>
        <time>2024-04-09T17:26:32Z</time>
      </trkpt>
      <trkpt lat="43.64479" lon="1.3995">
        <ele>132</ele>
        <time>2024-04-09T17:26:33Z</time>
      </trkpt>
      <trkpt lat="43.64481" lon="1.3995">
        <ele>132</ele>
        <time>2024-04-09T17:26:34Z</time>
      </trkpt>
      <trkpt lat="43.64483" lon="1.39949">
        <ele>132</ele>
        <time>2024-04-09T17:26:35Z</time>
      </trkpt>
      <trkpt lat="43.64485" lon="1.39949">
        <ele>133</ele>
        <time>2024-04-09T17:26:36Z</time>
      </trkpt>
      <trkpt lat="43.64488" lon="1.39948">
        <ele>133</ele>
        <time>2024-04-09T17:26:37Z</time>
      </trkpt>
      <trkpt lat="43.6449" lon="1.39947">
        <ele>133</ele>
        <time>2024-04-09T17:26:38Z</time>
      </trkpt>
      <trkpt lat="43.64492" lon="1.39946">
        <ele>133</ele>
        <time>2024-04-09T17:26:39Z</time>
      </trkpt>
      <trkpt lat="43.64494" lon="1.39946">
        <ele>133</ele>
        <time>2024-04-09T17:26:40Z</time>
      </trkpt>
      <trkpt lat="43.64496" lon="1.39945">
        <ele>133</ele>
        <time>2024-04-09T17:26:41Z</time>
      </trkpt>
      <trkpt lat="43.64498" lon="1.39944">
        <ele>133</ele>
        <time>2024-04-09T17:26:42Z</time>
      </trkpt>
      <trkpt lat="43.645" lon="1.39943">
        <ele>133</ele>
        <time>2024-04-09T17:26:43Z</time>
      </trkpt>
      <trkpt lat="43.64502" lon="1.39942">
        <ele>133</ele>
        <time>2024-04-09T17:26:44Z</time>
      </trkpt>
      <trkpt lat="43.64502" lon="1.39942">
        <ele>133</ele>
        <time>2024-04-09T17:26:45Z</time>
      </trkpt>
      <trkpt lat="43.64504" lon="1.39939">
        <ele>134</ele>
        <time>2024-04-09T17:26:46Z</time>
      </trkpt>
      <trkpt lat="43.64504" lon="1.39939">
        <ele>134</ele>
        <time>2024-04-09T17:26:47Z</time>
      </trkpt>
      <trkpt lat="43.64505" lon="1.39936">
        <ele>134</ele>
        <time>2024-04-09T17:26:48Z</time>
      </trkpt>
      <trkpt lat="43.64505" lon="1.39936">
        <ele>134</ele>
        <time>2024-04-09T17:26:49Z</time>
      </trkpt>
      <trkpt lat="43.64506" lon="1.39933">
        <ele>134</ele>
        <time>2024-04-09T17:26:50Z</time>
      </trkpt>
      <trkpt lat="43.64506" lon="1.39933">
        <ele>134</ele>
        <time>2024-04-09T17:26:51Z</time>
      </trkpt>
      <trkpt lat="43.64505" lon="1.39929">
        <ele>134</ele>
        <time>2024-04-09T17:26:52Z</time>
      </trkpt>
      <trkpt lat="43.64504" lon="1.39927">
        <ele>134</ele>
        <time>2024-04-09T17:26:53Z</time>
      </trkpt>
      <trkpt lat="43.64503" lon="1.39925">
        <ele>134</ele>
        <time>2024-04-09T17:26:54Z</time>
      </trkpt>
      <trkpt lat="43.64501" lon="1.39923">
        <ele>134</ele>
        <time>2024-04-09T17:26:55Z</time>
      </trkpt>
      <trkpt lat="43.64499" lon="1.39922">
        <ele>134</ele>
        <time>2024-04-09T17:26:56Z</time>
      </trkpt>
      <trkpt lat="43.64497" lon="1.39919">
        <ele>135</ele>
        <time>2024-04-09T17:26:57Z</time>
      </trkpt>
      <trkpt lat="43.64496" lon="1.39916">
        <ele>135</ele>
        <time>2024-04-09T17:26:58Z</time>
      </trkpt>
      <trkpt lat="43.64495" lon="1.39913">
        <ele>135</ele>
        <time>2024-04-09T17:26:59Z</time>
      </trkpt>
      <trkpt lat="43.64494" lon="1.3991">
        <ele>135</ele>
        <time>2024-04-09T17:27:00Z</time>
      </trkpt>
      <trkpt lat="43.64494" lon="1.39907">
        <ele>135</ele>
        <time>2024-04-09T17:27:01Z</time>
      </trkpt>
      <trkpt lat="43.64494" lon="1.39904">
        <ele>135</ele>
        <time>2024-04-09T17:27:02Z</time>
      </trkpt>
      <trkpt lat="43.64494" lon="1.39901">
        <ele>135</ele>
        <time>2024-04-09T17:27:03Z</time>
      </trkpt>
      <trkpt lat="43.64494" lon="1.39898">
        <ele>135</ele>
        <time>2024-04-09T17:27:04Z</time>
      </trkpt>
      <trkpt lat="43.64494" lon="1.39895">
        <ele>134</ele>
        <time>2024-04-09T17:27:05Z</time>
      </trkpt>
      <trkpt lat="43.64494" lon="1.39891">
        <ele>134</ele>
        <time>2024-04-09T17:27:06Z</time>
      </trkpt>
      <trkpt lat="43.64494" lon="1.39888">
        <ele>134</ele>
        <time>2024-04-09T17:27:07Z</time>
      </trkpt>
      <trkpt lat="43.64494" lon="1.39885">
        <ele>134</ele>
        <time>2024-04-09T17:27:08Z</time>
      </trkpt>
      <trkpt lat="43.64494" lon="1.39882">
        <ele>134</ele>
        <time>2024-04-09T17:27:09Z</time>
      </trkpt>
      <trkpt lat="43.64494" lon="1.39879">
        <ele>134</ele>
        <time>2024-04-09T17:27:10Z</time>
      </trkpt>
      <trkpt lat="43.64494" lon="1.39876">
        <ele>134</ele>
        <time>2024-04-09T17:27:11Z</time>
      </trkpt>
      <trkpt lat="43.64494" lon="1.39873">
        <ele>134</ele>
        <time>2024-04-09T17:27:12Z</time>
      </trkpt>
      <trkpt lat="43.64494" lon="1.39869">
        <ele>134</ele>
        <time>2024-04-09T17:27:13Z</time>
      </trkpt>
      <trkpt lat="43.64494" lon="1.39866">
        <ele>134</ele>
        <time>2024-04-09T17:27:14Z</time>
      </trkpt>
      <trkpt lat="43.64494" lon="1.39863">
        <ele>134</ele>
        <time>2024-04-09T17:27:15Z</time>
      </trkpt>
      <trkpt lat="43.64495" lon="1.3986">
        <ele>134</ele>
        <time>2024-04-09T17:27:16Z</time>
      </trkpt>
      <trkpt lat="43.64495" lon="1.39857">
        <ele>134</ele>
        <time>2024-04-09T17:27:17Z</time>
      </trkpt>
      <trkpt lat="43.64495" lon="1.39853">
        <ele>134</ele>
        <time>2024-04-09T17:27:18Z</time>
      </trkpt>
      <trkpt lat="43.64495" lon="1.3985">
        <ele>134</ele>
        <time>2024-04-09T17:27:19Z</time>
      </trkpt>
      <trkpt lat="43.64495" lon="1.39847">
        <ele>134</ele>
        <time>2024-04-09T17:27:20Z</time>
      </trkpt>
      <trkpt lat="43.64495" lon="1.39843">
        <ele>134</ele>
        <time>2024-04-09T17:27:21Z</time>
      </trkpt>
      <trkpt lat="43.64495" lon="1.3984">
        <ele>134</ele>
        <time>2024-04-09T17:27:22Z</time>
      </trkpt>
      <trkpt lat="43.64495" lon="1.39837">
        <ele>134</ele>
        <time>2024-04-09T17:27:23Z</time>
      </trkpt>
      <trkpt lat="43.64495" lon="1.39833">
        <ele>134</ele>
        <time>2024-04-09T17:27:24Z</time>
      </trkpt>
      <trkpt lat="43.64495" lon="1.3983">
        <ele>134</ele>
        <time>2024-04-09T17:27:25Z</time>
      </trkpt>
      <trkpt lat="43.64495" lon="1.39827">
        <ele>134</ele>
        <time>2024-04-09T17:27:26Z</time>
      </trkpt>
      <trkpt lat="43.64495" lon="1.39823">
        <ele>134</ele>
        <time>2024-04-09T17:27:27Z</time>
      </trkpt>
      <trkpt lat="43.64495" lon="1.3982">
        <ele>134</ele>
        <time>2024-04-09T17:27:28Z</time>
      </trkpt>
      <trkpt lat="43.64495" lon="1.39817">
        <ele>134</ele>
        <time>2024-04-09T17:27:29Z</time>
      </trkpt>
      <trkpt lat="43.64495" lon="1.39814">
        <ele>134</ele>
        <time>2024-04-09T17:27:30Z</time>
      </trkpt>
      <trkpt lat="43.64495" lon="1.3981">
        <ele>134</ele>
        <time>2024-04-09T17:27:31Z</time>
      </trkpt>
      <trkpt lat="43.64495" lon="1.39807">
        <ele>134</ele>
        <time>2024-04-09T17:27:32Z</time>
      </trkpt>
      <trkpt lat="43.64495" lon="1.39804">
        <ele>134</ele>
        <time>2024-04-09T17:27:33Z</time>
      </trkpt>
      <trkpt lat="43.64495" lon="1.39801">
        <ele>134</ele>
        <time>2024-04-09T17:27:34Z</time>
      </trkpt>
      <trkpt lat="43.64495" lon="1.39797">
        <ele>134</ele>
        <time>2024-04-09T17:27:35Z</time>
      </trkpt>
      <trkpt lat="43.64495" lon="1.39794">
        <ele>134</ele>
        <time>2024-04-09T17:27:36Z</time>
      </trkpt>
      <trkpt lat="43.64495" lon="1.39791">
        <ele>134</ele>
        <time>2024-04-09T17:27:37Z</time>
      </trkpt>
      <trkpt lat="43.64495" lon="1.39787">
        <ele>135</ele>
        <time>2024-04-09T17:27:38Z</time>
      </trkpt>
      <trkpt lat="43.64495" lon="1.39784">
        <ele>135</ele>
        <time>2024-04-09T17:27:39Z</time>
      </trkpt>
      <trkpt lat="43.64495" lon="1.3978">
        <ele>134</ele>
        <time>2024-04-09T17:27:40Z</time>
      </trkpt>
      <trkpt lat="43.64495" lon="1.39777">
        <ele>134</ele>
        <time>2024-04-09T17:27:41Z</time>
      </trkpt>
      <trkpt lat="43.64495" lon="1.39774">
        <ele>134</ele>
        <time>2024-04-09T17:27:42Z</time>
      </trkpt>
      <trkpt lat="43.64495" lon="1.3977">
        <ele>134</ele>
        <time>2024-04-09T17:27:43Z</time>
      </trkpt>
      <trkpt lat="43.64495" lon="1.39767">
        <ele>134</ele>
        <time>2024-04-09T17:27:44Z</time>
      </trkpt>
      <trkpt lat="43.64496" lon="1.39763">
        <ele>134</ele>
        <time>2024-04-09T17:27:45Z</time>
      </trkpt>
      <trkpt lat="43.64496" lon="1.3976">
        <ele>134</ele>
        <time>2024-04-09T17:27:46Z</time>
      </trkpt>
      <trkpt lat="43.64496" lon="1.39756">
        <ele>134</ele>
        <time>2024-04-09T17:27:47Z</time>
      </trkpt>
      <trkpt lat="43.64496" lon="1.39753">
        <ele>134</ele>
        <time>2024-04-09T17:27:48Z</time>
      </trkpt>
      <trkpt lat="43.64496" lon="1.3975">
        <ele>134</ele>
        <time>2024-04-09T17:27:49Z</time>
      </trkpt>
      <trkpt lat="43.64496" lon="1.39746">
        <ele>134</ele>
        <time>2024-04-09T17:27:50Z</time>
      </trkpt>
      <trkpt lat="43.64496" lon="1.39743">
        <ele>134</ele>
        <time>2024-04-09T17:27:51Z</time>
      </trkpt>
      <trkpt lat="43.64496" lon="1.3974">
        <ele>134</ele>
        <time>2024-04-09T17:27:52Z</time>
      </trkpt>
      <trkpt lat="43.64496" lon="1.39736">
        <ele>134</ele>
        <time>2024-04-09T17:27:53Z</time>
      </trkpt>
      <trkpt lat="43.64496" lon="1.39733">
        <ele>134</ele>
        <time>2024-04-09T17:27:54Z</time>
      </trkpt>
      <trkpt lat="43.64496" lon="1.39729">
        <ele>134</ele>
        <time>2024-04-09T17:27:55Z</time>
      </trkpt>
      <trkpt lat="43.64496" lon="1.39726">
        <ele>134</ele>
        <time>2024-04-09T17:27:56Z</time>
      </trkpt>
      <trkpt lat="43.64496" lon="1.39722">
        <ele>135</ele>
        <time>2024-04-09T17:27:57Z</time>
      </trkpt>
      <trkpt lat="43.64496" lon="1.39719">
        <ele>135</ele>
        <time>2024-04-09T17:27:58Z</time>
      </trkpt>
      <trkpt lat="43.64496" lon="1.39715">
        <ele>135</ele>
        <time>2024-04-09T17:27:59Z</time>
      </trkpt>
      <trkpt lat="43.64497" lon="1.39712">
        <ele>135</ele>
        <time>2024-04-09T17:28:00Z</time>
      </trkpt>
      <trkpt lat="43.64497" lon="1.39708">
        <ele>135</ele>
        <time>2024-04-09T17:28:01Z</time>
      </trkpt>
      <trkpt lat="43.64497" lon="1.39706">
        <ele>135</ele>
        <time>2024-04-09T17:28:02Z</time>
      </trkpt>
      <trkpt lat="43.64497" lon="1.39702">
        <ele>135</ele>
        <time>2024-04-09T17:28:03Z</time>
      </trkpt>
      <trkpt lat="43.64497" lon="1.39699">
        <ele>134</ele>
        <time>2024-04-09T17:28:04Z</time>
      </trkpt>
      <trkpt lat="43.64498" lon="1.39696">
        <ele>134</ele>
        <time>2024-04-09T17:28:05Z</time>
      </trkpt>
      <trkpt lat="43.64498" lon="1.39693">
        <ele>134</ele>
        <time>2024-04-09T17:28:06Z</time>
      </trkpt>
      <trkpt lat="43.64498" lon="1.3969">
        <ele>134</ele>
        <time>2024-04-09T17:28:07Z</time>
      </trkpt>
      <trkpt lat="43.64498" lon="1.39687">
        <ele>135</ele>
        <time>2024-04-09T17:28:08Z</time>
      </trkpt>
      <trkpt lat="43.64498" lon="1.39684">
        <ele>135</ele>
        <time>2024-04-09T17:28:09Z</time>
      </trkpt>
      <trkpt lat="43.64498" lon="1.39681">
        <ele>135</ele>
        <time>2024-04-09T17:28:10Z</time>
      </trkpt>
      <trkpt lat="43.64498" lon="1.39678">
        <ele>135</ele>
        <time>2024-04-09T17:28:11Z</time>
      </trkpt>
      <trkpt lat="43.64498" lon="1.39675">
        <ele>135</ele>
        <time>2024-04-09T17:28:12Z</time>
      </trkpt>
      <trkpt lat="43.64498" lon="1.39671">
        <ele>135</ele>
        <time>2024-04-09T17:28:13Z</time>
      </trkpt>
      <trkpt lat="43.64498" lon="1.39668">
        <ele>135</ele>
        <time>2024-04-09T17:28:14Z</time>
      </trkpt>
      <trkpt lat="43.64498" lon="1.39665">
        <ele>135</ele>
        <time>2024-04-09T17:28:15Z</time>
      </trkpt>
      <trkpt lat="43.64498" lon="1.39661">
        <ele>134</ele>
        <time>2024-04-09T17:28:16Z</time>
      </trkpt>
      <trkpt lat="43.64498" lon="1.39658">
        <ele>134</ele>
        <time>2024-04-09T17:28:17Z</time>
      </trkpt>
      <trkpt lat="43.64499" lon="1.39655">
        <ele>134</ele>
        <time>2024-04-09T17:28:18Z</time>
      </trkpt>
      <trkpt lat="43.64499" lon="1.39651">
        <ele>134</ele>
        <time>2024-04-09T17:28:19Z</time>
      </trkpt>
      <trkpt lat="43.64499" lon="1.39648">
        <ele>134</ele>
        <time>2024-04-09T17:28:20Z</time>
      </trkpt>
      <trkpt lat="43.64499" lon="1.39644">
        <ele>134</ele>
        <time>2024-04-09T17:28:21Z</time>
      </trkpt>
      <trkpt lat="43.64499" lon="1.3964">
        <ele>134</ele>
        <time>2024-04-09T17:28:22Z</time>
      </trkpt>
      <trkpt lat="43.64498" lon="1.39637">
        <ele>134</ele>
        <time>2024-04-09T17:28:23Z</time>
      </trkpt>
      <trkpt lat="43.64498" lon="1.39634">
        <ele>134</ele>
        <time>2024-04-09T17:28:24Z</time>
      </trkpt>
      <trkpt lat="43.64498" lon="1.3963">
        <ele>134</ele>
        <time>2024-04-09T17:28:25Z</time>
      </trkpt>
      <trkpt lat="43.64498" lon="1.39627">
        <ele>134</ele>
        <time>2024-04-09T17:28:26Z</time>
      </trkpt>
      <trkpt lat="43.64498" lon="1.39623">
        <ele>134</ele>
        <time>2024-04-09T17:28:27Z</time>
      </trkpt>
      <trkpt lat="43.64498" lon="1.3962">
        <ele>134</ele>
        <time>2024-04-09T17:28:28Z</time>
      </trkpt>
      <trkpt lat="43.64498" lon="1.39616">
        <ele>134</ele>
        <time>2024-04-09T17:28:29Z</time>
      </trkpt>
      <trkpt lat="43.64498" lon="1.39613">
        <ele>134</ele>
        <time>2024-04-09T17:28:30Z</time>
      </trkpt>
      <trkpt lat="43.64498" lon="1.3961">
        <ele>134</ele>
        <time>2024-04-09T17:28:31Z</time>
      </trkpt>
      <trkpt lat="43.64498" lon="1.39606">
        <ele>134</ele>
        <time>2024-04-09T17:28:32Z</time>
      </trkpt>
      <trkpt lat="43.64498" lon="1.39603">
        <ele>135</ele>
        <time>2024-04-09T17:28:33Z</time>
      </trkpt>
      <trkpt lat="43.64498" lon="1.396">
        <ele>135</ele>
        <time>2024-04-09T17:28:34Z</time>
      </trkpt>
      <trkpt lat="43.64498" lon="1.39597">
        <ele>135</ele>
        <time>2024-04-09T17:28:35Z</time>
      </trkpt>
      <trkpt lat="43.64497" lon="1.39594">
        <ele>135</ele>
        <time>2024-04-09T17:28:36Z</time>
      </trkpt>
      <trkpt lat="43.64497" lon="1.3959">
        <ele>135</ele>
        <time>2024-04-09T17:28:37Z</time>
      </trkpt>
      <trkpt lat="43.64497" lon="1.39587">
        <ele>135</ele>
        <time>2024-04-09T17:28:38Z</time>
      </trkpt>
      <trkpt lat="43.64496" lon="1.39583">
        <ele>135</ele>
        <time>2024-04-09T17:28:39Z</time>
      </trkpt>
      <trkpt lat="43.64496" lon="1.3958">
        <ele>135</ele>
        <time>2024-04-09T17:28:40Z</time>
      </trkpt>
      <trkpt lat="43.64496" lon="1.39576">
        <ele>135</ele>
        <time>2024-04-09T17:28:41Z</time>
      </trkpt>
      <trkpt lat="43.64496" lon="1.39573">
        <ele>135</ele>
        <time>2024-04-09T17:28:42Z</time>
      </trkpt>
      <trkpt lat="43.64496" lon="1.39569">
        <ele>135</ele>
        <time>2024-04-09T17:28:43Z</time>
      </trkpt>
      <trkpt lat="43.64495" lon="1.39566">
        <ele>135</ele>
        <time>2024-04-09T17:28:44Z</time>
      </trkpt>
      <trkpt lat="43.64495" lon="1.39563">
        <ele>135</ele>
        <time>2024-04-09T17:28:45Z</time>
      </trkpt>
      <trkpt lat="43.64495" lon="1.39559">
        <ele>135</ele>
        <time>2024-04-09T17:28:46Z</time>
      </trkpt>
      <trkpt lat="43.64494" lon="1.39556">
        <ele>135</ele>
        <time>2024-04-09T17:28:47Z</time>
      </trkpt>
      <trkpt lat="43.64494" lon="1.39553">
        <ele>135</ele>
        <time>2024-04-09T17:28:48Z</time>
      </trkpt>
      <trkpt lat="43.64493" lon="1.3955">
        <ele>135</ele>
        <time>2024-04-09T17:28:49Z</time>
      </trkpt>
      <trkpt lat="43.64493" lon="1.39547">
        <ele>135</ele>
        <time>2024-04-09T17:28:50Z</time>
      </trkpt>
      <trkpt lat="43.64493" lon="1.39543">
        <ele>135</ele>
        <time>2024-04-09T17:28:51Z</time>
      </trkpt>
      <trkpt lat="43.64492" lon="1.3954">
        <ele>135</ele>
        <time>2024-04-09T17:28:52Z</time>
      </trkpt>
      <trkpt lat="43.64492" lon="1.39537">
        <ele>135</ele>
        <time>2024-04-09T17:28:53Z</time>
      </trkpt>
      <trkpt lat="43.64492" lon="1.39533">
        <ele>135</ele>
        <time>2024-04-09T17:28:54Z</time>
      </trkpt>
      <trkpt lat="43.64491" lon="1.39529">
        <ele>134</ele>
        <time>2024-04-09T17:28:55Z</time>
      </trkpt>
      <trkpt lat="43.64491" lon="1.39526">
        <ele>135</ele>
        <time>2024-04-09T17:28:56Z</time>
      </trkpt>
      <trkpt lat="43.6449" lon="1.39522">
        <ele>135</ele>
        <time>2024-04-09T17:28:57Z</time>
      </trkpt>
      <trkpt lat="43.6449" lon="1.39519">
        <ele>135</ele>
        <time>2024-04-09T17:28:58Z</time>
      </trkpt>
      <trkpt lat="43.64489" lon="1.39516">
        <ele>135</ele>
        <time>2024-04-09T17:28:59Z</time>
      </trkpt>
      <trkpt lat="43.64488" lon="1.39512">
        <ele>135</ele>
        <time>2024-04-09T17:29:00Z</time>
      </trkpt>
      <trkpt lat="43.64488" lon="1.39508">
        <ele>135</ele>
        <time>2024-04-09T17:29:01Z</time>
      </trkpt>
      <trkpt lat="43.64487" lon="1.39505">
        <ele>135</ele>
        <time>2024-04-09T17:29:02Z</time>
      </trkpt>
      <trkpt lat="43.64487" lon="1.39502">
        <ele>135</ele>
        <time>2024-04-09T17:29:03Z</time>
      </trkpt>
      <trkpt lat="43.64486" lon="1.39498">
        <ele>135</ele>
        <time>2024-04-09T17:29:04Z</time>
      </trkpt>
      <trkpt lat="43.64486" lon="1.39495">
        <ele>135</ele>
        <time>2024-04-09T17:29:05Z</time>
      </trkpt>
      <trkpt lat="43.64485" lon="1.39492">
        <ele>135</ele>
        <time>2024-04-09T17:29:06Z</time>
      </trkpt>
      <trkpt lat="43.64485" lon="1.39489">
        <ele>135</ele>
        <time>2024-04-09T17:29:07Z</time>
      </trkpt>
      <trkpt lat="43.64484" lon="1.39485">
        <ele>135</ele>
        <time>2024-04-09T17:29:08Z</time>
      </trkpt>
      <trkpt lat="43.64484" lon="1.39482">
        <ele>135</ele>
        <time>2024-04-09T17:29:09Z</time>
      </trkpt>
      <trkpt lat="43.64483" lon="1.39478">
        <ele>135</ele>
        <time>2024-04-09T17:29:10Z</time>
      </trkpt>
      <trkpt lat="43.64482" lon="1.39475">
        <ele>135</ele>
        <time>2024-04-09T17:29:11Z</time>
      </trkpt>
      <trkpt lat="43.64482" lon="1.39471">
        <ele>134</ele>
        <time>2024-04-09T17:29:12Z</time>
      </trkpt>
      <trkpt lat="43.64481" lon="1.39468">
        <ele>134</ele>
        <time>2024-04-09T17:29:13Z</time>
      </trkpt>
      <trkpt lat="43.6448" lon="1.39465">
        <ele>135</ele>
        <time>2024-04-09T17:29:14Z</time>
      </trkpt>
      <trkpt lat="43.6448" lon="1.39461">
        <ele>135</ele>
        <time>2024-04-09T17:29:15Z</time>
      </trkpt>
      <trkpt lat="43.6448" lon="1.39458">
        <ele>135</ele>
        <time>2024-04-09T17:29:16Z</time>
      </trkpt>
      <trkpt lat="43.64479" lon="1.39455">
        <ele>135</ele>
        <time>2024-04-09T17:29:17Z</time>
      </trkpt>
      <trkpt lat="43.64479" lon="1.39452">
        <ele>135</ele>
        <time>2024-04-09T17:29:18Z</time>
      </trkpt>
      <trkpt lat="43.64478" lon="1.39449">
        <ele>135</ele>
        <time>2024-04-09T17:29:19Z</time>
      </trkpt>
      <trkpt lat="43.64478" lon="1.39446">
        <ele>135</ele>
        <time>2024-04-09T17:29:20Z</time>
      </trkpt>
      <trkpt lat="43.64477" lon="1.39442">
        <ele>135</ele>
        <time>2024-04-09T17:29:21Z</time>
      </trkpt>
      <trkpt lat="43.64477" lon="1.3944">
        <ele>135</ele>
        <time>2024-04-09T17:29:22Z</time>
      </trkpt>
      <trkpt lat="43.64476" lon="1.39437">
        <ele>135</ele>
        <time>2024-04-09T17:29:23Z</time>
      </trkpt>
      <trkpt lat="43.64476" lon="1.39434">
        <ele>135</ele>
        <time>2024-04-09T17:29:24Z</time>
      </trkpt>
      <trkpt lat="43.64475" lon="1.39431">
        <ele>135</ele>
        <time>2024-04-09T17:29:25Z</time>
      </trkpt>
      <trkpt lat="43.64475" lon="1.39428">
        <ele>135</ele>
        <time>2024-04-09T17:29:26Z</time>
      </trkpt>
      <trkpt lat="43.64475" lon="1.39425">
        <ele>135</ele>
        <time>2024-04-09T17:29:27Z</time>
      </trkpt>
      <trkpt lat="43.64474" lon="1.39421">
        <ele>135</ele>
        <time>2024-04-09T17:29:28Z</time>
      </trkpt>
      <trkpt lat="43.64473" lon="1.39418">
        <ele>135</ele>
        <time>2024-04-09T17:29:29Z</time>
      </trkpt>
      <trkpt lat="43.64473" lon="1.39414">
        <ele>135</ele>
        <time>2024-04-09T17:29:30Z</time>
      </trkpt>
      <trkpt lat="43.64472" lon="1.39411">
        <ele>135</ele>
        <time>2024-04-09T17:29:31Z</time>
      </trkpt>
      <trkpt lat="43.64472" lon="1.39408">
        <ele>135</ele>
        <time>2024-04-09T17:29:32Z</time>
      </trkpt>
      <trkpt lat="43.64471" lon="1.39405">
        <ele>135</ele>
        <time>2024-04-09T17:29:33Z</time>
      </trkpt>
      <trkpt lat="43.6447" lon="1.39402">
        <ele>135</ele>
        <time>2024-04-09T17:29:34Z</time>
      </trkpt>
      <trkpt lat="43.6447" lon="1.39398">
        <ele>135</ele>
        <time>2024-04-09T17:29:35Z</time>
      </trkpt>
      <trkpt lat="43.64469" lon="1.39395">
        <ele>135</ele>
        <time>2024-04-09T17:29:36Z</time>
      </trkpt>
      <trkpt lat="43.64469" lon="1.39392">
        <ele>135</ele>
        <time>2024-04-09T17:29:37Z</time>
      </trkpt>
      <trkpt lat="43.64468" lon="1.39389">
        <ele>135</ele>
        <time>2024-04-09T17:29:38Z</time>
      </trkpt>
      <trkpt lat="43.64468" lon="1.39386">
        <ele>135</ele>
        <time>2024-04-09T17:29:39Z</time>
      </trkpt>
      <trkpt lat="43.64467" lon="1.39383">
        <ele>135</ele>
        <time>2024-04-09T17:29:40Z</time>
      </trkpt>
      <trkpt lat="43.64466" lon="1.39379">
        <ele>135</ele>
        <time>2024-04-09T17:29:41Z</time>
      </trkpt>
      <trkpt lat="43.64466" lon="1.39375">
        <ele>135</ele>
        <time>2024-04-09T17:29:42Z</time>
      </trkpt>
      <trkpt lat="43.64465" lon="1.39372">
        <ele>135</ele>
        <time>2024-04-09T17:29:43Z</time>
      </trkpt>
      <trkpt lat="43.64464" lon="1.39369">
        <ele>135</ele>
        <time>2024-04-09T17:29:44Z</time>
      </trkpt>
      <trkpt lat="43.64464" lon="1.39366">
        <ele>135</ele>
        <time>2024-04-09T17:29:45Z</time>
      </trkpt>
      <trkpt lat="43.64463" lon="1.39362">
        <ele>135</ele>
        <time>2024-04-09T17:29:46Z</time>
      </trkpt>
      <trkpt lat="43.64463" lon="1.39359">
        <ele>135</ele>
        <time>2024-04-09T17:29:47Z</time>
      </trkpt>
      <trkpt lat="43.64463" lon="1.39355">
        <ele>135</ele>
        <time>2024-04-09T17:29:48Z</time>
      </trkpt>
      <trkpt lat="43.64462" lon="1.39352">
        <ele>135</ele>
        <time>2024-04-09T17:29:49Z</time>
      </trkpt>
      <trkpt lat="43.64462" lon="1.39349">
        <ele>134</ele>
        <time>2024-04-09T17:29:50Z</time>
      </trkpt>
      <trkpt lat="43.64461" lon="1.39346">
        <ele>134</ele>
        <time>2024-04-09T17:29:51Z</time>
      </trkpt>
      <trkpt lat="43.6446" lon="1.39342">
        <ele>134</ele>
        <time>2024-04-09T17:29:52Z</time>
      </trkpt>
      <trkpt lat="43.64459" lon="1.39338">
        <ele>135</ele>
        <time>2024-04-09T17:29:53Z</time>
      </trkpt>
      <trkpt lat="43.64459" lon="1.39335">
        <ele>135</ele>
        <time>2024-04-09T17:29:54Z</time>
      </trkpt>
      <trkpt lat="43.64458" lon="1.39333">
        <ele>135</ele>
        <time>2024-04-09T17:29:55Z</time>
      </trkpt>
      <trkpt lat="43.64458" lon="1.3933">
        <ele>135</ele>
        <time>2024-04-09T17:29:56Z</time>
      </trkpt>
      <trkpt lat="43.64457" lon="1.39327">
        <ele>134</ele>
        <time>2024-04-09T17:29:57Z</time>
      </trkpt>
      <trkpt lat="43.64457" lon="1.39327">
        <ele>134</ele>
        <time>2024-04-09T17:29:58Z</time>
      </trkpt>
      <trkpt lat="43.64456" lon="1.39319">
        <ele>134</ele>
        <time>2024-04-09T17:29:59Z</time>
      </trkpt>
      <trkpt lat="43.64455" lon="1.39318">
        <ele>134</ele>
        <time>2024-04-09T17:30:00Z</time>
      </trkpt>
      <trkpt lat="43.64456" lon="1.39315">
        <ele>134</ele>
        <time>2024-04-09T17:30:01Z</time>
      </trkpt>
      <trkpt lat="43.64457" lon="1.39311">
        <ele>134</ele>
        <time>2024-04-09T17:30:02Z</time>
      </trkpt>
      <trkpt lat="43.64459" lon="1.39309">
        <ele>133</ele>
        <time>2024-04-09T17:30:03Z</time>
      </trkpt>
      <trkpt lat="43.64462" lon="1.39307">
        <ele>134</ele>
        <time>2024-04-09T17:30:04Z</time>
      </trkpt>
      <trkpt lat="43.64464" lon="1.39306">
        <ele>134</ele>
        <time>2024-04-09T17:30:05Z</time>
      </trkpt>
      <trkpt lat="43.64467" lon="1.39305">
        <ele>134</ele>
        <time>2024-04-09T17:30:06Z</time>
      </trkpt>
      <trkpt lat="43.6447" lon="1.39304">
        <ele>133</ele>
        <time>2024-04-09T17:30:07Z</time>
      </trkpt>
      <trkpt lat="43.64472" lon="1.39303">
        <ele>133</ele>
        <time>2024-04-09T17:30:08Z</time>
      </trkpt>
      <trkpt lat="43.64475" lon="1.39303">
        <ele>134</ele>
        <time>2024-04-09T17:30:09Z</time>
      </trkpt>
      <trkpt lat="43.64478" lon="1.39303">
        <ele>134</ele>
        <time>2024-04-09T17:30:10Z</time>
      </trkpt>
      <trkpt lat="43.6448" lon="1.39303">
        <ele>134</ele>
        <time>2024-04-09T17:30:11Z</time>
      </trkpt>
      <trkpt lat="43.64482" lon="1.39302">
        <ele>134</ele>
        <time>2024-04-09T17:30:12Z</time>
      </trkpt>
      <trkpt lat="43.64485" lon="1.39301">
        <ele>133</ele>
        <time>2024-04-09T17:30:13Z</time>
      </trkpt>
      <trkpt lat="43.64487" lon="1.39301">
        <ele>133</ele>
        <time>2024-04-09T17:30:14Z</time>
      </trkpt>
      <trkpt lat="43.6449" lon="1.39301">
        <ele>133</ele>
        <time>2024-04-09T17:30:15Z</time>
      </trkpt>
      <trkpt lat="43.64492" lon="1.39301">
        <ele>132</ele>
        <time>2024-04-09T17:30:16Z</time>
      </trkpt>
      <trkpt lat="43.64495" lon="1.393">
        <ele>132</ele>
        <time>2024-04-09T17:30:17Z</time>
      </trkpt>
      <trkpt lat="43.64497" lon="1.393">
        <ele>132</ele>
        <time>2024-04-09T17:30:18Z</time>
      </trkpt>
      <trkpt lat="43.645" lon="1.393">
        <ele>132</ele>
        <time>2024-04-09T17:30:19Z</time>
      </trkpt>
      <trkpt lat="43.64503" lon="1.393">
        <ele>132</ele>
        <time>2024-04-09T17:30:20Z</time>
      </trkpt>
      <trkpt lat="43.64506" lon="1.393">
        <ele>132</ele>
        <time>2024-04-09T17:30:21Z</time>
      </trkpt>
      <trkpt lat="43.64508" lon="1.39299">
        <ele>132</ele>
        <time>2024-04-09T17:30:22Z</time>
      </trkpt>
      <trkpt lat="43.64511" lon="1.39299">
        <ele>132</ele>
        <time>2024-04-09T17:30:23Z</time>
      </trkpt>
      <trkpt lat="43.64513" lon="1.39299">
        <ele>131</ele>
        <time>2024-04-09T17:30:24Z</time>
      </trkpt>
      <trkpt lat="43.64516" lon="1.39299">
        <ele>131</ele>
        <time>2024-04-09T17:30:25Z</time>
      </trkpt>
      <trkpt lat="43.64518" lon="1.39298">
        <ele>131</ele>
        <time>2024-04-09T17:30:26Z</time>
      </trkpt>
      <trkpt lat="43.6452" lon="1.39297">
        <ele>131</ele>
        <time>2024-04-09T17:30:27Z</time>
      </trkpt>
      <trkpt lat="43.64523" lon="1.39296">
        <ele>131</ele>
        <time>2024-04-09T17:30:28Z</time>
      </trkpt>
      <trkpt lat="43.64525" lon="1.39296">
        <ele>131</ele>
        <time>2024-04-09T17:30:29Z</time>
      </trkpt>
      <trkpt lat="43.64528" lon="1.39295">
        <ele>131</ele>
        <time>2024-04-09T17:30:30Z</time>
      </trkpt>
      <trkpt lat="43.6453" lon="1.39294">
        <ele>131</ele>
        <time>2024-04-09T17:30:31Z</time>
      </trkpt>
      <trkpt lat="43.64533" lon="1.39294">
        <ele>131</ele>
        <time>2024-04-09T17:30:32Z</time>
      </trkpt>
      <trkpt lat="43.64535" lon="1.39293">
        <ele>131</ele>
        <time>2024-04-09T17:30:33Z</time>
      </trkpt>
      <trkpt lat="43.64538" lon="1.39292">
        <ele>131</ele>
        <time>2024-04-09T17:30:34Z</time>
      </trkpt>
      <trkpt lat="43.6454" lon="1.39292">
        <ele>131</ele>
        <time>2024-04-09T17:30:35Z</time>
      </trkpt>
      <trkpt lat="43.64542" lon="1.39291">
        <ele>131</ele>
        <time>2024-04-09T17:30:36Z</time>
      </trkpt>
      <trkpt lat="43.64545" lon="1.3929">
        <ele>131</ele>
        <time>2024-04-09T17:30:37Z</time>
      </trkpt>
      <trkpt lat="43.64547" lon="1.3929">
        <ele>131</ele>
        <time>2024-04-09T17:30:38Z</time>
      </trkpt>
      <trkpt lat="43.64549" lon="1.39289">
        <ele>131</ele>
        <time>2024-04-09T17:30:39Z</time>
      </trkpt>
      <trkpt lat="43.64552" lon="1.39288">
        <ele>131</ele>
        <time>2024-04-09T17:30:40Z</time>
      </trkpt>
      <trkpt lat="43.64554" lon="1.39288">
        <ele>131</ele>
        <time>2024-04-09T17:30:41Z</time>
      </trkpt>
      <trkpt lat="43.64556" lon="1.39287">
        <ele>131</ele>
        <time>2024-04-09T17:30:42Z</time>
      </trkpt>
      <trkpt lat="43.64559" lon="1.39287">
        <ele>131</ele>
        <time>2024-04-09T17:30:43Z</time>
      </trkpt>
      <trkpt lat="43.64561" lon="1.39286">
        <ele>131</ele>
        <time>2024-04-09T17:30:44Z</time>
      </trkpt>
      <trkpt lat="43.64563" lon="1.39285">
        <ele>131</ele>
        <time>2024-04-09T17:30:45Z</time>
      </trkpt>
      <trkpt lat="43.64566" lon="1.39285">
        <ele>131</ele>
        <time>2024-04-09T17:30:46Z</time>
      </trkpt>
      <trkpt lat="43.64568" lon="1.39284">
        <ele>131</ele>
        <time>2024-04-09T17:30:47Z</time>
      </trkpt>
      <trkpt lat="43.6457" lon="1.39283">
        <ele>131</ele>
        <time>2024-04-09T17:30:48Z</time>
      </trkpt>
      <trkpt lat="43.64573" lon="1.39283">
        <ele>131</ele>
        <time>2024-04-09T17:30:49Z</time>
      </trkpt>
      <trkpt lat="43.64575" lon="1.39282">
        <ele>132</ele>
        <time>2024-04-09T17:30:50Z</time>
      </trkpt>
      <trkpt lat="43.64577" lon="1.39281">
        <ele>132</ele>
        <time>2024-04-09T17:30:51Z</time>
      </trkpt>
      <trkpt lat="43.64579" lon="1.3928">
        <ele>132</ele>
        <time>2024-04-09T17:30:52Z</time>
      </trkpt>
      <trkpt lat="43.64582" lon="1.3928">
        <ele>132</ele>
        <time>2024-04-09T17:30:53Z</time>
      </trkpt>
      <trkpt lat="43.64584" lon="1.39279">
        <ele>132</ele>
        <time>2024-04-09T17:30:54Z</time>
      </trkpt>
      <trkpt lat="43.64587" lon="1.39278">
        <ele>132</ele>
        <time>2024-04-09T17:30:55Z</time>
      </trkpt>
      <trkpt lat="43.64589" lon="1.39277">
        <ele>132</ele>
        <time>2024-04-09T17:30:56Z</time>
      </trkpt>
      <trkpt lat="43.64592" lon="1.39276">
        <ele>132</ele>
        <time>2024-04-09T17:30:57Z</time>
      </trkpt>
      <trkpt lat="43.64594" lon="1.39275">
        <ele>132</ele>
        <time>2024-04-09T17:30:58Z</time>
      </trkpt>
      <trkpt lat="43.64597" lon="1.39274">
        <ele>131</ele>
        <time>2024-04-09T17:30:59Z</time>
      </trkpt>
      <trkpt lat="43.64599" lon="1.39273">
        <ele>131</ele>
        <time>2024-04-09T17:31:00Z</time>
      </trkpt>
      <trkpt lat="43.64601" lon="1.39272">
        <ele>131</ele>
        <time>2024-04-09T17:31:01Z</time>
      </trkpt>
      <trkpt lat="43.64603" lon="1.39272">
        <ele>131</ele>
        <time>2024-04-09T17:31:02Z</time>
      </trkpt>
      <trkpt lat="43.64606" lon="1.39271">
        <ele>131</ele>
        <time>2024-04-09T17:31:03Z</time>
      </trkpt>
      <trkpt lat="43.64608" lon="1.3927">
        <ele>131</ele>
        <time>2024-04-09T17:31:04Z</time>
      </trkpt>
      <trkpt lat="43.6461" lon="1.39268">
        <ele>131</ele>
        <time>2024-04-09T17:31:05Z</time>
      </trkpt>
      <trkpt lat="43.64612" lon="1.39267">
        <ele>131</ele>
        <time>2024-04-09T17:31:06Z</time>
      </trkpt>
      <trkpt lat="43.64615" lon="1.39266">
        <ele>131</ele>
        <time>2024-04-09T17:31:07Z</time>
      </trkpt>
      <trkpt lat="43.64617" lon="1.39265">
        <ele>131</ele>
        <time>2024-04-09T17:31:08Z</time>
      </trkpt>
      <trkpt lat="43.64619" lon="1.39264">
        <ele>131</ele>
        <time>2024-04-09T17:31:09Z</time>
      </trkpt>
      <trkpt lat="43.64621" lon="1.39263">
        <ele>131</ele>
        <time>2024-04-09T17:31:10Z</time>
      </trkpt>
      <trkpt lat="43.64623" lon="1.39262">
        <ele>131</ele>
        <time>2024-04-09T17:31:11Z</time>
      </trkpt>
      <trkpt lat="43.64626" lon="1.39261">
        <ele>131</ele>
        <time>2024-04-09T17:31:12Z</time>
      </trkpt>
      <trkpt lat="43.64628" lon="1.3926">
        <ele>131</ele>
        <time>2024-04-09T17:31:13Z</time>
      </trkpt>
      <trkpt lat="43.6463" lon="1.39258">
        <ele>131</ele>
        <time>2024-04-09T17:31:14Z</time>
      </trkpt>
      <trkpt lat="43.64632" lon="1.39257">
        <ele>131</ele>
        <time>2024-04-09T17:31:15Z</time>
      </trkpt>
      <trkpt lat="43.64635" lon="1.39256">
        <ele>131</ele>
        <time>2024-04-09T17:31:16Z</time>
      </trkpt>
      <trkpt lat="43.64637" lon="1.39255">
        <ele>131</ele>
        <time>2024-04-09T17:31:17Z</time>
      </trkpt>
      <trkpt lat="43.64639" lon="1.39254">
        <ele>131</ele>
        <time>2024-04-09T17:31:18Z</time>
      </trkpt>
      <trkpt lat="43.64641" lon="1.39253">
        <ele>131</ele>
        <time>2024-04-09T17:31:19Z</time>
      </trkpt>
      <trkpt lat="43.64643" lon="1.39252">
        <ele>131</ele>
        <time>2024-04-09T17:31:20Z</time>
      </trkpt>
      <trkpt lat="43.64646" lon="1.39251">
        <ele>130</ele>
        <time>2024-04-09T17:31:21Z</time>
      </trkpt>
      <trkpt lat="43.64648" lon="1.39249">
        <ele>130</ele>
        <time>2024-04-09T17:31:22Z</time>
      </trkpt>
      <trkpt lat="43.6465" lon="1.39248">
        <ele>131</ele>
        <time>2024-04-09T17:31:23Z</time>
      </trkpt>
      <trkpt lat="43.64653" lon="1.39247">
        <ele>131</ele>
        <time>2024-04-09T17:31:24Z</time>
      </trkpt>
      <trkpt lat="43.64655" lon="1.39245">
        <ele>130</ele>
        <time>2024-04-09T17:31:25Z</time>
      </trkpt>
      <trkpt lat="43.64657" lon="1.39245">
        <ele>130</ele>
        <time>2024-04-09T17:31:26Z</time>
      </trkpt>
      <trkpt lat="43.64659" lon="1.39243">
        <ele>130</ele>
        <time>2024-04-09T17:31:27Z</time>
      </trkpt>
      <trkpt lat="43.64662" lon="1.39242">
        <ele>130</ele>
        <time>2024-04-09T17:31:28Z</time>
      </trkpt>
      <trkpt lat="43.64664" lon="1.3924">
        <ele>130</ele>
        <time>2024-04-09T17:31:29Z</time>
      </trkpt>
      <trkpt lat="43.64667" lon="1.39239">
        <ele>130</ele>
        <time>2024-04-09T17:31:30Z</time>
      </trkpt>
      <trkpt lat="43.64669" lon="1.39238">
        <ele>130</ele>
        <time>2024-04-09T17:31:31Z</time>
      </trkpt>
      <trkpt lat="43.64671" lon="1.39236">
        <ele>130</ele>
        <time>2024-04-09T17:31:32Z</time>
      </trkpt>
      <trkpt lat="43.64673" lon="1.39235">
        <ele>129</ele>
        <time>2024-04-09T17:31:33Z</time>
      </trkpt>
      <trkpt lat="43.64676" lon="1.39234">
        <ele>130</ele>
        <time>2024-04-09T17:31:34Z</time>
      </trkpt>
      <trkpt lat="43.64678" lon="1.39232">
        <ele>130</ele>
        <time>2024-04-09T17:31:35Z</time>
      </trkpt>
      <trkpt lat="43.6468" lon="1.39231">
        <ele>131</ele>
        <time>2024-04-09T17:31:36Z</time>
      </trkpt>
      <trkpt lat="43.64683" lon="1.3923">
        <ele>131</ele>
        <time>2024-04-09T17:31:37Z</time>
      </trkpt>
      <trkpt lat="43.64685" lon="1.39229">
        <ele>131</ele>
        <time>2024-04-09T17:31:38Z</time>
      </trkpt>
      <trkpt lat="43.64688" lon="1.39228">
        <ele>131</ele>
        <time>2024-04-09T17:31:39Z</time>
      </trkpt>
      <trkpt lat="43.6469" lon="1.39226">
        <ele>131</ele>
        <time>2024-04-09T17:31:40Z</time>
      </trkpt>
      <trkpt lat="43.64692" lon="1.39225">
        <ele>130</ele>
        <time>2024-04-09T17:31:41Z</time>
      </trkpt>
      <trkpt lat="43.64695" lon="1.39224">
        <ele>130</ele>
        <time>2024-04-09T17:31:42Z</time>
      </trkpt>
      <trkpt lat="43.64697" lon="1.39223">
        <ele>130</ele>
        <time>2024-04-09T17:31:43Z</time>
      </trkpt>
      <trkpt lat="43.64699" lon="1.39221">
        <ele>130</ele>
        <time>2024-04-09T17:31:44Z</time>
      </trkpt>
      <trkpt lat="43.64701" lon="1.39219">
        <ele>130</ele>
        <time>2024-04-09T17:31:45Z</time>
      </trkpt>
      <trkpt lat="43.64703" lon="1.39218">
        <ele>130</ele>
        <time>2024-04-09T17:31:46Z</time>
      </trkpt>
      <trkpt lat="43.64706" lon="1.39217">
        <ele>130</ele>
        <time>2024-04-09T17:31:47Z</time>
      </trkpt>
      <trkpt lat="43.64708" lon="1.39215">
        <ele>130</ele>
        <time>2024-04-09T17:31:48Z</time>
      </trkpt>
      <trkpt lat="43.6471" lon="1.39214">
        <ele>130</ele>
        <time>2024-04-09T17:31:49Z</time>
      </trkpt>
      <trkpt lat="43.64712" lon="1.39213">
        <ele>130</ele>
        <time>2024-04-09T17:31:50Z</time>
      </trkpt>
      <trkpt lat="43.64715" lon="1.39212">
        <ele>130</ele>
        <time>2024-04-09T17:31:51Z</time>
      </trkpt>
      <trkpt lat="43.64717" lon="1.39211">
        <ele>130</ele>
        <time>2024-04-09T17:31:52Z</time>
      </trkpt>
      <trkpt lat="43.64719" lon="1.39209">
        <ele>129</ele>
        <time>2024-04-09T17:31:53Z</time>
      </trkpt>
      <trkpt lat="43.6472" lon="1.39208">
        <ele>129</ele>
        <time>2024-04-09T17:31:54Z</time>
      </trkpt>
      <trkpt lat="43.64722" lon="1.39206">
        <ele>129</ele>
        <time>2024-04-09T17:31:55Z</time>
      </trkpt>
      <trkpt lat="43.64724" lon="1.39204">
        <ele>129</ele>
        <time>2024-04-09T17:31:56Z</time>
      </trkpt>
      <trkpt lat="43.64725" lon="1.39203">
        <ele>129</ele>
        <time>2024-04-09T17:31:57Z</time>
      </trkpt>
      <trkpt lat="43.64727" lon="1.39202">
        <ele>129</ele>
        <time>2024-04-09T17:31:58Z</time>
      </trkpt>
      <trkpt lat="43.6473" lon="1.39201">
        <ele>129</ele>
        <time>2024-04-09T17:31:59Z</time>
      </trkpt>
      <trkpt lat="43.64732" lon="1.392">
        <ele>130</ele>
        <time>2024-04-09T17:32:00Z</time>
      </trkpt>
      <trkpt lat="43.64734" lon="1.39199">
        <ele>130</ele>
        <time>2024-04-09T17:32:01Z</time>
      </trkpt>
      <trkpt lat="43.64736" lon="1.39197">
        <ele>130</ele>
        <time>2024-04-09T17:32:02Z</time>
      </trkpt>
      <trkpt lat="43.64738" lon="1.39195">
        <ele>130</ele>
        <time>2024-04-09T17:32:03Z</time>
      </trkpt>
      <trkpt lat="43.6474" lon="1.39194">
        <ele>130</ele>
        <time>2024-04-09T17:32:04Z</time>
      </trkpt>
      <trkpt lat="43.64742" lon="1.39193">
        <ele>130</ele>
        <time>2024-04-09T17:32:05Z</time>
      </trkpt>
      <trkpt lat="43.64744" lon="1.39191">
        <ele>130</ele>
        <time>2024-04-09T17:32:06Z</time>
      </trkpt>
      <trkpt lat="43.64747" lon="1.3919">
        <ele>130</ele>
        <time>2024-04-09T17:32:07Z</time>
      </trkpt>
      <trkpt lat="43.64749" lon="1.39188">
        <ele>130</ele>
        <time>2024-04-09T17:32:08Z</time>
      </trkpt>
      <trkpt lat="43.64751" lon="1.39187">
        <ele>130</ele>
        <time>2024-04-09T17:32:09Z</time>
      </trkpt>
      <trkpt lat="43.64753" lon="1.39187">
        <ele>130</ele>
        <time>2024-04-09T17:32:10Z</time>
      </trkpt>
      <trkpt lat="43.64756" lon="1.39186">
        <ele>130</ele>
        <time>2024-04-09T17:32:11Z</time>
      </trkpt>
      <trkpt lat="43.64758" lon="1.39184">
        <ele>130</ele>
        <time>2024-04-09T17:32:12Z</time>
      </trkpt>
      <trkpt lat="43.6476" lon="1.39183">
        <ele>130</ele>
        <time>2024-04-09T17:32:13Z</time>
      </trkpt>
      <trkpt lat="43.64762" lon="1.39181">
        <ele>130</ele>
        <time>2024-04-09T17:32:14Z</time>
      </trkpt>
      <trkpt lat="43.64765" lon="1.3918">
        <ele>130</ele>
        <time>2024-04-09T17:32:15Z</time>
      </trkpt>
      <trkpt lat="43.64767" lon="1.39179">
        <ele>130</ele>
        <time>2024-04-09T17:32:16Z</time>
      </trkpt>
      <trkpt lat="43.64769" lon="1.39177">
        <ele>130</ele>
        <time>2024-04-09T17:32:17Z</time>
      </trkpt>
      <trkpt lat="43.64771" lon="1.39175">
        <ele>130</ele>
        <time>2024-04-09T17:32:18Z</time>
      </trkpt>
      <trkpt lat="43.64774" lon="1.39174">
        <ele>130</ele>
        <time>2024-04-09T17:32:19Z</time>
      </trkpt>
      <trkpt lat="43.64776" lon="1.39173">
        <ele>130</ele>
        <time>2024-04-09T17:32:20Z</time>
      </trkpt>
      <trkpt lat="43.64778" lon="1.39171">
        <ele>130</ele>
        <time>2024-04-09T17:32:21Z</time>
      </trkpt>
      <trkpt lat="43.6478" lon="1.3917">
        <ele>130</ele>
        <time>2024-04-09T17:32:22Z</time>
      </trkpt>
      <trkpt lat="43.64782" lon="1.39168">
        <ele>130</ele>
        <time>2024-04-09T17:32:23Z</time>
      </trkpt>
      <trkpt lat="43.64785" lon="1.39167">
        <ele>130</ele>
        <time>2024-04-09T17:32:24Z</time>
      </trkpt>
      <trkpt lat="43.64787" lon="1.39165">
        <ele>130</ele>
        <time>2024-04-09T17:32:25Z</time>
      </trkpt>
      <trkpt lat="43.64789" lon="1.39164">
        <ele>130</ele>
        <time>2024-04-09T17:32:26Z</time>
      </trkpt>
      <trkpt lat="43.64791" lon="1.39163">
        <ele>130</ele>
        <time>2024-04-09T17:32:27Z</time>
      </trkpt>
      <trkpt lat="43.64794" lon="1.39161">
        <ele>130</ele>
        <time>2024-04-09T17:32:28Z</time>
      </trkpt>
      <trkpt lat="43.64796" lon="1.3916">
        <ele>130</ele>
        <time>2024-04-09T17:32:29Z</time>
      </trkpt>
      <trkpt lat="43.64798" lon="1.39158">
        <ele>130</ele>
        <time>2024-04-09T17:32:30Z</time>
      </trkpt>
      <trkpt lat="43.64801" lon="1.39157">
        <ele>130</ele>
        <time>2024-04-09T17:32:31Z</time>
      </trkpt>
      <trkpt lat="43.64803" lon="1.39155">
        <ele>130</ele>
        <time>2024-04-09T17:32:32Z</time>
      </trkpt>
      <trkpt lat="43.64806" lon="1.39154">
        <ele>130</ele>
        <time>2024-04-09T17:32:33Z</time>
      </trkpt>
      <trkpt lat="43.64808" lon="1.39152">
        <ele>130</ele>
        <time>2024-04-09T17:32:34Z</time>
      </trkpt>
      <trkpt lat="43.6481" lon="1.3915">
        <ele>129</ele>
        <time>2024-04-09T17:32:35Z</time>
      </trkpt>
      <trkpt lat="43.64812" lon="1.39149">
        <ele>129</ele>
        <time>2024-04-09T17:32:36Z</time>
      </trkpt>
      <trkpt lat="43.64814" lon="1.39148">
        <ele>129</ele>
        <time>2024-04-09T17:32:37Z</time>
      </trkpt>
      <trkpt lat="43.64816" lon="1.39146">
        <ele>130</ele>
        <time>2024-04-09T17:32:38Z</time>
      </trkpt>
      <trkpt lat="43.64818" lon="1.39145">
        <ele>130</ele>
        <time>2024-04-09T17:32:39Z</time>
      </trkpt>
      <trkpt lat="43.6482" lon="1.39143">
        <ele>130</ele>
        <time>2024-04-09T17:32:40Z</time>
      </trkpt>
      <trkpt lat="43.64822" lon="1.39141">
        <ele>131</ele>
        <time>2024-04-09T17:32:41Z</time>
      </trkpt>
      <trkpt lat="43.64825" lon="1.3914">
        <ele>131</ele>
        <time>2024-04-09T17:32:42Z</time>
      </trkpt>
      <trkpt lat="43.64827" lon="1.39139">
        <ele>130</ele>
        <time>2024-04-09T17:32:43Z</time>
      </trkpt>
      <trkpt lat="43.64829" lon="1.39137">
        <ele>130</ele>
        <time>2024-04-09T17:32:44Z</time>
      </trkpt>
      <trkpt lat="43.64831" lon="1.39136">
        <ele>130</ele>
        <time>2024-04-09T17:32:45Z</time>
      </trkpt>
      <trkpt lat="43.64833" lon="1.39134">
        <ele>130</ele>
        <time>2024-04-09T17:32:46Z</time>
      </trkpt>
      <trkpt lat="43.64836" lon="1.39133">
        <ele>130</ele>
        <time>2024-04-09T17:32:47Z</time>
      </trkpt>
      <trkpt lat="43.64838" lon="1.39131">
        <ele>130</ele>
        <time>2024-04-09T17:32:48Z</time>
      </trkpt>
      <trkpt lat="43.6484" lon="1.3913">
        <ele>130</ele>
        <time>2024-04-09T17:32:49Z</time>
      </trkpt>
      <trkpt lat="43.64842" lon="1.39128">
        <ele>130</ele>
        <time>2024-04-09T17:32:50Z</time>
      </trkpt>
      <trkpt lat="43.64845" lon="1.39127">
        <ele>130</ele>
        <time>2024-04-09T17:32:51Z</time>
      </trkpt>
      <trkpt lat="43.64847" lon="1.39126">
        <ele>129</ele>
        <time>2024-04-09T17:32:52Z</time>
      </trkpt>
      <trkpt lat="43.64849" lon="1.39125">
        <ele>129</ele>
        <time>2024-04-09T17:32:53Z</time>
      </trkpt>
      <trkpt lat="43.64852" lon="1.39124">
        <ele>129</ele>
        <time>2024-04-09T17:32:54Z</time>
      </trkpt>
      <trkpt lat="43.64854" lon="1.39123">
        <ele>129</ele>
        <time>2024-04-09T17:32:55Z</time>
      </trkpt>
      <trkpt lat="43.64857" lon="1.39122">
        <ele>129</ele>
        <time>2024-04-09T17:32:56Z</time>
      </trkpt>
      <trkpt lat="43.64859" lon="1.39122">
        <ele>129</ele>
        <time>2024-04-09T17:32:57Z</time>
      </trkpt>
      <trkpt lat="43.64861" lon="1.39121">
        <ele>129</ele>
        <time>2024-04-09T17:32:58Z</time>
      </trkpt>
      <trkpt lat="43.64864" lon="1.3912">
        <ele>129</ele>
        <time>2024-04-09T17:32:59Z</time>
      </trkpt>
      <trkpt lat="43.64867" lon="1.3912">
        <ele>129</ele>
        <time>2024-04-09T17:33:00Z</time>
      </trkpt>
      <trkpt lat="43.64869" lon="1.39119">
        <ele>129</ele>
        <time>2024-04-09T17:33:01Z</time>
      </trkpt>
      <trkpt lat="43.64871" lon="1.39118">
        <ele>129</ele>
        <time>2024-04-09T17:33:02Z</time>
      </trkpt>
      <trkpt lat="43.64874" lon="1.39117">
        <ele>130</ele>
        <time>2024-04-09T17:33:03Z</time>
      </trkpt>
      <trkpt lat="43.64876" lon="1.39117">
        <ele>130</ele>
        <time>2024-04-09T17:33:04Z</time>
      </trkpt>
      <trkpt lat="43.64879" lon="1.39116">
        <ele>130</ele>
        <time>2024-04-09T17:33:05Z</time>
      </trkpt>
      <trkpt lat="43.64881" lon="1.39116">
        <ele>130</ele>
        <time>2024-04-09T17:33:06Z</time>
      </trkpt>
      <trkpt lat="43.64884" lon="1.39115">
        <ele>130</ele>
        <time>2024-04-09T17:33:07Z</time>
      </trkpt>
      <trkpt lat="43.64886" lon="1.39114">
        <ele>130</ele>
        <time>2024-04-09T17:33:08Z</time>
      </trkpt>
      <trkpt lat="43.64889" lon="1.39114">
        <ele>130</ele>
        <time>2024-04-09T17:33:09Z</time>
      </trkpt>
      <trkpt lat="43.64891" lon="1.39113">
        <ele>130</ele>
        <time>2024-04-09T17:33:10Z</time>
      </trkpt>
      <trkpt lat="43.64894" lon="1.39113">
        <ele>130</ele>
        <time>2024-04-09T17:33:11Z</time>
      </trkpt>
      <trkpt lat="43.64896" lon="1.39112">
        <ele>129</ele>
        <time>2024-04-09T17:33:12Z</time>
      </trkpt>
      <trkpt lat="43.64899" lon="1.39112">
        <ele>129</ele>
        <time>2024-04-09T17:33:13Z</time>
      </trkpt>
      <trkpt lat="43.64901" lon="1.39111">
        <ele>129</ele>
        <time>2024-04-09T17:33:14Z</time>
      </trkpt>
      <trkpt lat="43.64904" lon="1.39111">
        <ele>129</ele>
        <time>2024-04-09T17:33:15Z</time>
      </trkpt>
      <trkpt lat="43.64906" lon="1.39111">
        <ele>129</ele>
        <time>2024-04-09T17:33:16Z</time>
      </trkpt>
      <trkpt lat="43.64909" lon="1.3911">
        <ele>129</ele>
        <time>2024-04-09T17:33:17Z</time>
      </trkpt>
      <trkpt lat="43.64911" lon="1.3911">
        <ele>129</ele>
        <time>2024-04-09T17:33:18Z</time>
      </trkpt>
      <trkpt lat="43.64914" lon="1.3911">
        <ele>129</ele>
        <time>2024-04-09T17:33:19Z</time>
      </trkpt>
      <trkpt lat="43.64916" lon="1.39111">
        <ele>129</ele>
        <time>2024-04-09T17:33:20Z</time>
      </trkpt>
      <trkpt lat="43.64918" lon="1.39111">
        <ele>129</ele>
        <time>2024-04-09T17:33:21Z</time>
      </trkpt>
      <trkpt lat="43.6492" lon="1.39112">
        <ele>129</ele>
        <time>2024-04-09T17:33:22Z</time>
      </trkpt>
      <trkpt lat="43.64922" lon="1.39112">
        <ele>130</ele>
        <time>2024-04-09T17:33:23Z</time>
      </trkpt>
      <trkpt lat="43.64924" lon="1.39112">
        <ele>130</ele>
        <time>2024-04-09T17:33:24Z</time>
      </trkpt>
      <trkpt lat="43.64927" lon="1.39112">
        <ele>130</ele>
        <time>2024-04-09T17:33:25Z</time>
      </trkpt>
      <trkpt lat="43.64929" lon="1.39112">
        <ele>130</ele>
        <time>2024-04-09T17:33:26Z</time>
      </trkpt>
      <trkpt lat="43.64932" lon="1.39112">
        <ele>130</ele>
        <time>2024-04-09T17:33:27Z</time>
      </trkpt>
      <trkpt lat="43.64934" lon="1.39112">
        <ele>130</ele>
        <time>2024-04-09T17:33:28Z</time>
      </trkpt>
      <trkpt lat="43.64937" lon="1.39113">
        <ele>130</ele>
        <time>2024-04-09T17:33:29Z</time>
      </trkpt>
      <trkpt lat="43.64939" lon="1.39113">
        <ele>130</ele>
        <time>2024-04-09T17:33:30Z</time>
      </trkpt>
      <trkpt lat="43.64942" lon="1.39115">
        <ele>129</ele>
        <time>2024-04-09T17:33:31Z</time>
      </trkpt>
      <trkpt lat="43.64945" lon="1.39117">
        <ele>129</ele>
        <time>2024-04-09T17:33:32Z</time>
      </trkpt>
      <trkpt lat="43.64947" lon="1.39121">
        <ele>129</ele>
        <time>2024-04-09T17:33:33Z</time>
      </trkpt>
      <trkpt lat="43.64948" lon="1.39124">
        <ele>129</ele>
        <time>2024-04-09T17:33:34Z</time>
      </trkpt>
      <trkpt lat="43.6495" lon="1.39128">
        <ele>129</ele>
        <time>2024-04-09T17:33:35Z</time>
      </trkpt>
      <trkpt lat="43.64951" lon="1.39132">
        <ele>129</ele>
        <time>2024-04-09T17:33:36Z</time>
      </trkpt>
      <trkpt lat="43.64951" lon="1.39135">
        <ele>129</ele>
        <time>2024-04-09T17:33:37Z</time>
      </trkpt>
      <trkpt lat="43.64952" lon="1.39138">
        <ele>129</ele>
        <time>2024-04-09T17:33:38Z</time>
      </trkpt>
      <trkpt lat="43.64954" lon="1.39142">
        <ele>129</ele>
        <time>2024-04-09T17:33:39Z</time>
      </trkpt>
      <trkpt lat="43.64955" lon="1.39146">
        <ele>129</ele>
        <time>2024-04-09T17:33:40Z</time>
      </trkpt>
      <trkpt lat="43.64956" lon="1.39149">
        <ele>129</ele>
        <time>2024-04-09T17:33:41Z</time>
      </trkpt>
      <trkpt lat="43.64958" lon="1.39153">
        <ele>129</ele>
        <time>2024-04-09T17:33:42Z</time>
      </trkpt>
      <trkpt lat="43.64959" lon="1.39156">
        <ele>129</ele>
        <time>2024-04-09T17:33:43Z</time>
      </trkpt>
      <trkpt lat="43.64961" lon="1.39158">
        <ele>129</ele>
        <time>2024-04-09T17:33:44Z</time>
      </trkpt>
      <trkpt lat="43.64963" lon="1.39158">
        <ele>129</ele>
        <time>2024-04-09T17:33:45Z</time>
      </trkpt>
      <trkpt lat="43.64966" lon="1.39158">
        <ele>129</ele>
        <time>2024-04-09T17:33:46Z</time>
      </trkpt>
      <trkpt lat="43.64968" lon="1.39157">
        <ele>129</ele>
        <time>2024-04-09T17:33:47Z</time>
      </trkpt>
      <trkpt lat="43.64971" lon="1.39157">
        <ele>129</ele>
        <time>2024-04-09T17:33:48Z</time>
      </trkpt>
      <trkpt lat="43.64973" lon="1.39156">
        <ele>129</ele>
        <time>2024-04-09T17:33:49Z</time>
      </trkpt>
      <trkpt lat="43.64975" lon="1.39155">
        <ele>129</ele>
        <time>2024-04-09T17:33:50Z</time>
      </trkpt>
      <trkpt lat="43.64978" lon="1.39155">
        <ele>129</ele>
        <time>2024-04-09T17:33:51Z</time>
      </trkpt>
      <trkpt lat="43.6498" lon="1.39154">
        <ele>129</ele>
        <time>2024-04-09T17:33:52Z</time>
      </trkpt>
      <trkpt lat="43.64982" lon="1.39153">
        <ele>129</ele>
        <time>2024-04-09T17:33:53Z</time>
      </trkpt>
      <trkpt lat="43.64985" lon="1.39152">
        <ele>129</ele>
        <time>2024-04-09T17:33:54Z</time>
      </trkpt>
      <trkpt lat="43.64988" lon="1.39152">
        <ele>129</ele>
        <time>2024-04-09T17:33:55Z</time>
      </trkpt>
      <trkpt lat="43.6499" lon="1.39151">
        <ele>129</ele>
        <time>2024-04-09T17:33:56Z</time>
      </trkpt>
      <trkpt lat="43.64992" lon="1.39151">
        <ele>129</ele>
        <time>2024-04-09T17:33:57Z</time>
      </trkpt>
      <trkpt lat="43.64994" lon="1.3915">
        <ele>129</ele>
        <time>2024-04-09T17:33:58Z</time>
      </trkpt>
      <trkpt lat="43.64997" lon="1.3915">
        <ele>129</ele>
        <time>2024-04-09T17:33:59Z</time>
      </trkpt>
      <trkpt lat="43.64999" lon="1.39149">
        <ele>129</ele>
        <time>2024-04-09T17:34:00Z</time>
      </trkpt>
      <trkpt lat="43.65002" lon="1.39148">
        <ele>129</ele>
        <time>2024-04-09T17:34:01Z</time>
      </trkpt>
      <trkpt lat="43.65004" lon="1.39148">
        <ele>129</ele>
        <time>2024-04-09T17:34:02Z</time>
      </trkpt>
      <trkpt lat="43.65007" lon="1.39147">
        <ele>130</ele>
        <time>2024-04-09T17:34:03Z</time>
      </trkpt>
      <trkpt lat="43.6501" lon="1.39147">
        <ele>130</ele>
        <time>2024-04-09T17:34:04Z</time>
      </trkpt>
      <trkpt lat="43.65012" lon="1.39146">
        <ele>129</ele>
        <time>2024-04-09T17:34:05Z</time>
      </trkpt>
      <trkpt lat="43.65015" lon="1.39146">
        <ele>130</ele>
        <time>2024-04-09T17:34:06Z</time>
      </trkpt>
      <trkpt lat="43.65018" lon="1.39145">
        <ele>130</ele>
        <time>2024-04-09T17:34:07Z</time>
      </trkpt>
      <trkpt lat="43.6502" lon="1.39144">
        <ele>130</ele>
        <time>2024-04-09T17:34:08Z</time>
      </trkpt>
      <trkpt lat="43.65022" lon="1.39144">
        <ele>129</ele>
        <time>2024-04-09T17:34:09Z</time>
      </trkpt>
      <trkpt lat="43.65025" lon="1.39144">
        <ele>129</ele>
        <time>2024-04-09T17:34:10Z</time>
      </trkpt>
      <trkpt lat="43.65027" lon="1.39144">
        <ele>129</ele>
        <time>2024-04-09T17:34:11Z</time>
      </trkpt>
      <trkpt lat="43.6503" lon="1.39143">
        <ele>129</ele>
        <time>2024-04-09T17:34:12Z</time>
      </trkpt>
      <trkpt lat="43.65032" lon="1.39142">
        <ele>130</ele>
        <time>2024-04-09T17:34:13Z</time>
      </trkpt>
      <trkpt lat="43.65035" lon="1.39141">
        <ele>130</ele>
        <time>2024-04-09T17:34:14Z</time>
      </trkpt>
      <trkpt lat="43.65037" lon="1.3914">
        <ele>129</ele>
        <time>2024-04-09T17:34:15Z</time>
      </trkpt>
      <trkpt lat="43.6504" lon="1.39139">
        <ele>129</ele>
        <time>2024-04-09T17:34:16Z</time>
      </trkpt>
      <trkpt lat="43.65043" lon="1.39139">
        <ele>129</ele>
        <time>2024-04-09T17:34:17Z</time>
      </trkpt>
      <trkpt lat="43.65045" lon="1.39138">
        <ele>130</ele>
        <time>2024-04-09T17:34:18Z</time>
      </trkpt>
      <trkpt lat="43.65048" lon="1.39137">
        <ele>130</ele>
        <time>2024-04-09T17:34:19Z</time>
      </trkpt>
      <trkpt lat="43.65051" lon="1.39137">
        <ele>129</ele>
        <time>2024-04-09T17:34:20Z</time>
      </trkpt>
      <trkpt lat="43.65053" lon="1.39136">
        <ele>130</ele>
        <time>2024-04-09T17:34:21Z</time>
      </trkpt>
      <trkpt lat="43.65055" lon="1.39135">
        <ele>130</ele>
        <time>2024-04-09T17:34:22Z</time>
      </trkpt>
      <trkpt lat="43.65058" lon="1.39134">
        <ele>130</ele>
        <time>2024-04-09T17:34:23Z</time>
      </trkpt>
      <trkpt lat="43.6506" lon="1.39133">
        <ele>130</ele>
        <time>2024-04-09T17:34:24Z</time>
      </trkpt>
      <trkpt lat="43.65062" lon="1.39131">
        <ele>130</ele>
        <time>2024-04-09T17:34:25Z</time>
      </trkpt>
      <trkpt lat="43.65064" lon="1.39129">
        <ele>130</ele>
        <time>2024-04-09T17:34:26Z</time>
      </trkpt>
      <trkpt lat="43.65066" lon="1.39126">
        <ele>130</ele>
        <time>2024-04-09T17:34:27Z</time>
      </trkpt>
      <trkpt lat="43.65068" lon="1.39123">
        <ele>130</ele>
        <time>2024-04-09T17:34:28Z</time>
      </trkpt>
      <trkpt lat="43.65069" lon="1.3912">
        <ele>130</ele>
        <time>2024-04-09T17:34:29Z</time>
      </trkpt>
      <trkpt lat="43.6507" lon="1.39117">
        <ele>130</ele>
        <time>2024-04-09T17:34:30Z</time>
      </trkpt>
      <trkpt lat="43.6507" lon="1.39114">
        <ele>129</ele>
        <time>2024-04-09T17:34:31Z</time>
      </trkpt>
      <trkpt lat="43.65071" lon="1.39111">
        <ele>129</ele>
        <time>2024-04-09T17:34:32Z</time>
      </trkpt>
      <trkpt lat="43.65072" lon="1.39108">
        <ele>129</ele>
        <time>2024-04-09T17:34:33Z</time>
      </trkpt>
      <trkpt lat="43.65072" lon="1.39105">
        <ele>129</ele>
        <time>2024-04-09T17:34:34Z</time>
      </trkpt>
      <trkpt lat="43.65072" lon="1.39102">
        <ele>129</ele>
        <time>2024-04-09T17:34:35Z</time>
      </trkpt>
      <trkpt lat="43.65072" lon="1.39099">
        <ele>129</ele>
        <time>2024-04-09T17:34:36Z</time>
      </trkpt>
      <trkpt lat="43.65072" lon="1.39096">
        <ele>129</ele>
        <time>2024-04-09T17:34:37Z</time>
      </trkpt>
      <trkpt lat="43.65071" lon="1.39093">
        <ele>129</ele>
        <time>2024-04-09T17:34:38Z</time>
      </trkpt>
      <trkpt lat="43.65071" lon="1.3909">
        <ele>129</ele>
        <time>2024-04-09T17:34:39Z</time>
      </trkpt>
      <trkpt lat="43.65071" lon="1.39087">
        <ele>129</ele>
        <time>2024-04-09T17:34:40Z</time>
      </trkpt>
      <trkpt lat="43.65071" lon="1.39085">
        <ele>129</ele>
        <time>2024-04-09T17:34:41Z</time>
      </trkpt>
      <trkpt lat="43.65071" lon="1.39082">
        <ele>129</ele>
        <time>2024-04-09T17:34:42Z</time>
      </trkpt>
      <trkpt lat="43.6507" lon="1.39079">
        <ele>129</ele>
        <time>2024-04-09T17:34:43Z</time>
      </trkpt>
      <trkpt lat="43.6507" lon="1.39076">
        <ele>129</ele>
        <time>2024-04-09T17:34:44Z</time>
      </trkpt>
      <trkpt lat="43.65069" lon="1.39073">
        <ele>129</ele>
        <time>2024-04-09T17:34:45Z</time>
      </trkpt>
      <trkpt lat="43.65069" lon="1.39069">
        <ele>129</ele>
        <time>2024-04-09T17:34:46Z</time>
      </trkpt>
      <trkpt lat="43.65069" lon="1.39066">
        <ele>129</ele>
        <time>2024-04-09T17:34:47Z</time>
      </trkpt>
      <trkpt lat="43.65068" lon="1.39062">
        <ele>129</ele>
        <time>2024-04-09T17:34:48Z</time>
      </trkpt>
      <trkpt lat="43.65068" lon="1.39059">
        <ele>129</ele>
        <time>2024-04-09T17:34:49Z</time>
      </trkpt>
      <trkpt lat="43.65068" lon="1.39055">
        <ele>129</ele>
        <time>2024-04-09T17:34:50Z</time>
      </trkpt>
      <trkpt lat="43.65068" lon="1.39052">
        <ele>129</ele>
        <time>2024-04-09T17:34:51Z</time>
      </trkpt>
      <trkpt lat="43.65068" lon="1.39048">
        <ele>129</ele>
        <time>2024-04-09T17:34:52Z</time>
      </trkpt>
      <trkpt lat="43.65068" lon="1.39045">
        <ele>129</ele>
        <time>2024-04-09T17:34:53Z</time>
      </trkpt>
      <trkpt lat="43.65069" lon="1.39041">
        <ele>129</ele>
        <time>2024-04-09T17:34:54Z</time>
      </trkpt>
      <trkpt lat="43.6507" lon="1.39038">
        <ele>129</ele>
        <time>2024-04-09T17:34:55Z</time>
      </trkpt>
      <trkpt lat="43.65071" lon="1.39035">
        <ele>129</ele>
        <time>2024-04-09T17:34:56Z</time>
      </trkpt>
      <trkpt lat="43.65073" lon="1.39033">
        <ele>129</ele>
        <time>2024-04-09T17:34:57Z</time>
      </trkpt>
      <trkpt lat="43.65075" lon="1.39031">
        <ele>129</ele>
        <time>2024-04-09T17:34:58Z</time>
      </trkpt>
      <trkpt lat="43.65078" lon="1.39028">
        <ele>129</ele>
        <time>2024-04-09T17:34:59Z</time>
      </trkpt>
      <trkpt lat="43.6508" lon="1.39026">
        <ele>129</ele>
        <time>2024-04-09T17:35:00Z</time>
      </trkpt>
      <trkpt lat="43.65082" lon="1.39024">
        <ele>129</ele>
        <time>2024-04-09T17:35:01Z</time>
      </trkpt>
      <trkpt lat="43.65085" lon="1.39022">
        <ele>129</ele>
        <time>2024-04-09T17:35:02Z</time>
      </trkpt>
      <trkpt lat="43.65087" lon="1.3902">
        <ele>129</ele>
        <time>2024-04-09T17:35:03Z</time>
      </trkpt>
      <trkpt lat="43.65089" lon="1.39019">
        <ele>129</ele>
        <time>2024-04-09T17:35:04Z</time>
      </trkpt>
      <trkpt lat="43.65092" lon="1.39017">
        <ele>129</ele>
        <time>2024-04-09T17:35:05Z</time>
      </trkpt>
      <trkpt lat="43.65094" lon="1.39016">
        <ele>129</ele>
        <time>2024-04-09T17:35:06Z</time>
      </trkpt>
      <trkpt lat="43.65097" lon="1.39015">
        <ele>129</ele>
        <time>2024-04-09T17:35:07Z</time>
      </trkpt>
      <trkpt lat="43.65099" lon="1.39014">
        <ele>129</ele>
        <time>2024-04-09T17:35:08Z</time>
      </trkpt>
      <trkpt lat="43.65102" lon="1.39013">
        <ele>129</ele>
        <time>2024-04-09T17:35:09Z</time>
      </trkpt>
      <trkpt lat="43.65104" lon="1.39013">
        <ele>129</ele>
        <time>2024-04-09T17:35:10Z</time>
      </trkpt>
      <trkpt lat="43.65107" lon="1.39013">
        <ele>129</ele>
        <time>2024-04-09T17:35:11Z</time>
      </trkpt>
      <trkpt lat="43.6511" lon="1.39013">
        <ele>129</ele>
        <time>2024-04-09T17:35:12Z</time>
      </trkpt>
      <trkpt lat="43.65112" lon="1.39012">
        <ele>129</ele>
        <time>2024-04-09T17:35:13Z</time>
      </trkpt>
      <trkpt lat="43.65115" lon="1.39012">
        <ele>129</ele>
        <time>2024-04-09T17:35:14Z</time>
      </trkpt>
      <trkpt lat="43.65117" lon="1.39012">
        <ele>129</ele>
        <time>2024-04-09T17:35:15Z</time>
      </trkpt>
      <trkpt lat="43.6512" lon="1.39012">
        <ele>129</ele>
        <time>2024-04-09T17:35:16Z</time>
      </trkpt>
      <trkpt lat="43.65122" lon="1.39012">
        <ele>129</ele>
        <time>2024-04-09T17:35:17Z</time>
      </trkpt>
      <trkpt lat="43.65125" lon="1.39012">
        <ele>129</ele>
        <time>2024-04-09T17:35:18Z</time>
      </trkpt>
      <trkpt lat="43.65127" lon="1.39012">
        <ele>129</ele>
        <time>2024-04-09T17:35:19Z</time>
      </trkpt>
      <trkpt lat="43.6513" lon="1.39012">
        <ele>129</ele>
        <time>2024-04-09T17:35:20Z</time>
      </trkpt>
      <trkpt lat="43.65133" lon="1.39012">
        <ele>129</ele>
        <time>2024-04-09T17:35:21Z</time>
      </trkpt>
      <trkpt lat="43.65135" lon="1.39012">
        <ele>129</ele>
        <time>2024-04-09T17:35:22Z</time>
      </trkpt>
      <trkpt lat="43.65138" lon="1.39011">
        <ele>129</ele>
        <time>2024-04-09T17:35:23Z</time>
      </trkpt>
      <trkpt lat="43.6514" lon="1.39011">
        <ele>129</ele>
        <time>2024-04-09T17:35:24Z</time>
      </trkpt>
      <trkpt lat="43.65143" lon="1.39011">
        <ele>129</ele>
        <time>2024-04-09T17:35:25Z</time>
      </trkpt>
      <trkpt lat="43.65145" lon="1.39011">
        <ele>129</ele>
        <time>2024-04-09T17:35:26Z</time>
      </trkpt>
      <trkpt lat="43.65148" lon="1.39011">
        <ele>129</ele>
        <time>2024-04-09T17:35:27Z</time>
      </trkpt>
      <trkpt lat="43.6515" lon="1.39011">
        <ele>129</ele>
        <time>2024-04-09T17:35:28Z</time>
      </trkpt>
      <trkpt lat="43.65152" lon="1.39011">
        <ele>129</ele>
        <time>2024-04-09T17:35:29Z</time>
      </trkpt>
      <trkpt lat="43.65154" lon="1.39011">
        <ele>129</ele>
        <time>2024-04-09T17:35:30Z</time>
      </trkpt>
      <trkpt lat="43.65156" lon="1.3901">
        <ele>129</ele>
        <time>2024-04-09T17:35:31Z</time>
      </trkpt>
      <trkpt lat="43.65159" lon="1.3901">
        <ele>129</ele>
        <time>2024-04-09T17:35:32Z</time>
      </trkpt>
      <trkpt lat="43.65161" lon="1.3901">
        <ele>129</ele>
        <time>2024-04-09T17:35:33Z</time>
      </trkpt>
      <trkpt lat="43.65164" lon="1.3901">
        <ele>129</ele>
        <time>2024-04-09T17:35:34Z</time>
      </trkpt>
      <trkpt lat="43.65166" lon="1.39011">
        <ele>129</ele>
        <time>2024-04-09T17:35:35Z</time>
      </trkpt>
      <trkpt lat="43.65169" lon="1.39011">
        <ele>129</ele>
        <time>2024-04-09T17:35:36Z</time>
      </trkpt>
      <trkpt lat="43.65171" lon="1.39011">
        <ele>129</ele>
        <time>2024-04-09T17:35:37Z</time>
      </trkpt>
      <trkpt lat="43.65173" lon="1.39011">
        <ele>129</ele>
        <time>2024-04-09T17:35:38Z</time>
      </trkpt>
      <trkpt lat="43.65175" lon="1.39011">
        <ele>129</ele>
        <time>2024-04-09T17:35:39Z</time>
      </trkpt>
      <trkpt lat="43.65177" lon="1.39011">
        <ele>129</ele>
        <time>2024-04-09T17:35:40Z</time>
      </trkpt>
      <trkpt lat="43.6518" lon="1.39012">
        <ele>128</ele>
        <time>2024-04-09T17:35:41Z</time>
      </trkpt>
      <trkpt lat="43.65182" lon="1.39011">
        <ele>128</ele>
        <time>2024-04-09T17:35:42Z</time>
      </trkpt>
      <trkpt lat="43.65184" lon="1.39012">
        <ele>128</ele>
        <time>2024-04-09T17:35:43Z</time>
      </trkpt>
      <trkpt lat="43.65187" lon="1.39012">
        <ele>128</ele>
        <time>2024-04-09T17:35:44Z</time>
      </trkpt>
      <trkpt lat="43.6519" lon="1.39012">
        <ele>128</ele>
        <time>2024-04-09T17:35:45Z</time>
      </trkpt>
      <trkpt lat="43.65192" lon="1.39012">
        <ele>129</ele>
        <time>2024-04-09T17:35:46Z</time>
      </trkpt>
      <trkpt lat="43.65195" lon="1.39012">
        <ele>129</ele>
        <time>2024-04-09T17:35:47Z</time>
      </trkpt>
      <trkpt lat="43.65198" lon="1.39012">
        <ele>128</ele>
        <time>2024-04-09T17:35:48Z</time>
      </trkpt>
      <trkpt lat="43.652" lon="1.39012">
        <ele>129</ele>
        <time>2024-04-09T17:35:49Z</time>
      </trkpt>
      <trkpt lat="43.65202" lon="1.39012">
        <ele>129</ele>
        <time>2024-04-09T17:35:50Z</time>
      </trkpt>
      <trkpt lat="43.65204" lon="1.39013">
        <ele>129</ele>
        <time>2024-04-09T17:35:51Z</time>
      </trkpt>
      <trkpt lat="43.65206" lon="1.39013">
        <ele>129</ele>
        <time>2024-04-09T17:35:52Z</time>
      </trkpt>
      <trkpt lat="43.65208" lon="1.39012">
        <ele>129</ele>
        <time>2024-04-09T17:35:53Z</time>
      </trkpt>
      <trkpt lat="43.6521" lon="1.39013">
        <ele>129</ele>
        <time>2024-04-09T17:35:54Z</time>
      </trkpt>
      <trkpt lat="43.65212" lon="1.39013">
        <ele>128</ele>
        <time>2024-04-09T17:35:55Z</time>
      </trkpt>
      <trkpt lat="43.65215" lon="1.39014">
        <ele>128</ele>
        <time>2024-04-09T17:35:56Z</time>
      </trkpt>
      <trkpt lat="43.65218" lon="1.39016">
        <ele>128</ele>
        <time>2024-04-09T17:35:57Z</time>
      </trkpt>
      <trkpt lat="43.6522" lon="1.39017">
        <ele>128</ele>
        <time>2024-04-09T17:35:58Z</time>
      </trkpt>
      <trkpt lat="43.65223" lon="1.39019">
        <ele>128</ele>
        <time>2024-04-09T17:35:59Z</time>
      </trkpt>
      <trkpt lat="43.65226" lon="1.39021">
        <ele>128</ele>
        <time>2024-04-09T17:36:00Z</time>
      </trkpt>
      <trkpt lat="43.65228" lon="1.39023">
        <ele>128</ele>
        <time>2024-04-09T17:36:01Z</time>
      </trkpt>
      <trkpt lat="43.6523" lon="1.39025">
        <ele>129</ele>
        <time>2024-04-09T17:36:02Z</time>
      </trkpt>
      <trkpt lat="43.65233" lon="1.39026">
        <ele>129</ele>
        <time>2024-04-09T17:36:03Z</time>
      </trkpt>
      <trkpt lat="43.65235" lon="1.39028">
        <ele>129</ele>
        <time>2024-04-09T17:36:04Z</time>
      </trkpt>
      <trkpt lat="43.65238" lon="1.3903">
        <ele>129</ele>
        <time>2024-04-09T17:36:05Z</time>
      </trkpt>
      <trkpt lat="43.6524" lon="1.39031">
        <ele>129</ele>
        <time>2024-04-09T17:36:06Z</time>
      </trkpt>
      <trkpt lat="43.65242" lon="1.39031">
        <ele>129</ele>
        <time>2024-04-09T17:36:07Z</time>
      </trkpt>
      <trkpt lat="43.65245" lon="1.39032">
        <ele>129</ele>
        <time>2024-04-09T17:36:08Z</time>
      </trkpt>
      <trkpt lat="43.65247" lon="1.39032">
        <ele>129</ele>
        <time>2024-04-09T17:36:09Z</time>
      </trkpt>
      <trkpt lat="43.65249" lon="1.39032">
        <ele>129</ele>
        <time>2024-04-09T17:36:10Z</time>
      </trkpt>
      <trkpt lat="43.65251" lon="1.39032">
        <ele>129</ele>
        <time>2024-04-09T17:36:11Z</time>
      </trkpt>
      <trkpt lat="43.65254" lon="1.39031">
        <ele>129</ele>
        <time>2024-04-09T17:36:12Z</time>
      </trkpt>
      <trkpt lat="43.65256" lon="1.39031">
        <ele>129</ele>
        <time>2024-04-09T17:36:13Z</time>
      </trkpt>
      <trkpt lat="43.65259" lon="1.39031">
        <ele>129</ele>
        <time>2024-04-09T17:36:14Z</time>
      </trkpt>
      <trkpt lat="43.65261" lon="1.39031">
        <ele>129</ele>
        <time>2024-04-09T17:36:15Z</time>
      </trkpt>
      <trkpt lat="43.65264" lon="1.39031">
        <ele>129</ele>
        <time>2024-04-09T17:36:16Z</time>
      </trkpt>
      <trkpt lat="43.65267" lon="1.39031">
        <ele>129</ele>
        <time>2024-04-09T17:36:17Z</time>
      </trkpt>
      <trkpt lat="43.65269" lon="1.39031">
        <ele>129</ele>
        <time>2024-04-09T17:36:18Z</time>
      </trkpt>
      <trkpt lat="43.65271" lon="1.39032">
        <ele>129</ele>
        <time>2024-04-09T17:36:19Z</time>
      </trkpt>
      <trkpt lat="43.65274" lon="1.39032">
        <ele>129</ele>
        <time>2024-04-09T17:36:20Z</time>
      </trkpt>
      <trkpt lat="43.65276" lon="1.39033">
        <ele>129</ele>
        <time>2024-04-09T17:36:21Z</time>
      </trkpt>
      <trkpt lat="43.65279" lon="1.39033">
        <ele>129</ele>
        <time>2024-04-09T17:36:22Z</time>
      </trkpt>
      <trkpt lat="43.65282" lon="1.39034">
        <ele>129</ele>
        <time>2024-04-09T17:36:23Z</time>
      </trkpt>
      <trkpt lat="43.65284" lon="1.39035">
        <ele>129</ele>
        <time>2024-04-09T17:36:24Z</time>
      </trkpt>
      <trkpt lat="43.65286" lon="1.39036">
        <ele>129</ele>
        <time>2024-04-09T17:36:25Z</time>
      </trkpt>
      <trkpt lat="43.65288" lon="1.39036">
        <ele>128</ele>
        <time>2024-04-09T17:36:26Z</time>
      </trkpt>
      <trkpt lat="43.65291" lon="1.39037">
        <ele>128</ele>
        <time>2024-04-09T17:36:27Z</time>
      </trkpt>
      <trkpt lat="43.65293" lon="1.39036">
        <ele>128</ele>
        <time>2024-04-09T17:36:28Z</time>
      </trkpt>
      <trkpt lat="43.65296" lon="1.39036">
        <ele>128</ele>
        <time>2024-04-09T17:36:29Z</time>
      </trkpt>
      <trkpt lat="43.65299" lon="1.39035">
        <ele>128</ele>
        <time>2024-04-09T17:36:30Z</time>
      </trkpt>
      <trkpt lat="43.65302" lon="1.39033">
        <ele>128</ele>
        <time>2024-04-09T17:36:31Z</time>
      </trkpt>
      <trkpt lat="43.65304" lon="1.3903">
        <ele>128</ele>
        <time>2024-04-09T17:36:32Z</time>
      </trkpt>
      <trkpt lat="43.65306" lon="1.39028">
        <ele>128</ele>
        <time>2024-04-09T17:36:33Z</time>
      </trkpt>
      <trkpt lat="43.65307" lon="1.39025">
        <ele>128</ele>
        <time>2024-04-09T17:36:34Z</time>
      </trkpt>
      <trkpt lat="43.65309" lon="1.39023">
        <ele>128</ele>
        <time>2024-04-09T17:36:35Z</time>
      </trkpt>
      <trkpt lat="43.6531" lon="1.3902">
        <ele>128</ele>
        <time>2024-04-09T17:36:36Z</time>
      </trkpt>
      <trkpt lat="43.65311" lon="1.39018">
        <ele>128</ele>
        <time>2024-04-09T17:36:37Z</time>
      </trkpt>
      <trkpt lat="43.65312" lon="1.39016">
        <ele>128</ele>
        <time>2024-04-09T17:36:38Z</time>
      </trkpt>
      <trkpt lat="43.65313" lon="1.39013">
        <ele>128</ele>
        <time>2024-04-09T17:36:39Z</time>
      </trkpt>
      <trkpt lat="43.65314" lon="1.3901">
        <ele>128</ele>
        <time>2024-04-09T17:36:40Z</time>
      </trkpt>
      <trkpt lat="43.65316" lon="1.39007">
        <ele>128</ele>
        <time>2024-04-09T17:36:41Z</time>
      </trkpt>
      <trkpt lat="43.65317" lon="1.39004">
        <ele>128</ele>
        <time>2024-04-09T17:36:42Z</time>
      </trkpt>
      <trkpt lat="43.65318" lon="1.39">
        <ele>128</ele>
        <time>2024-04-09T17:36:43Z</time>
      </trkpt>
      <trkpt lat="43.6532" lon="1.38997">
        <ele>129</ele>
        <time>2024-04-09T17:36:44Z</time>
      </trkpt>
      <trkpt lat="43.65321" lon="1.38994">
        <ele>129</ele>
        <time>2024-04-09T17:36:45Z</time>
      </trkpt>
      <trkpt lat="43.65322" lon="1.38991">
        <ele>129</ele>
        <time>2024-04-09T17:36:46Z</time>
      </trkpt>
      <trkpt lat="43.65323" lon="1.38989">
        <ele>129</ele>
        <time>2024-04-09T17:36:47Z</time>
      </trkpt>
      <trkpt lat="43.6534" lon="1.38984">
        <ele>129</ele>
        <time>2024-04-09T17:38:23Z</time>
      </trkpt>
      <trkpt lat="43.65342" lon="1.38984">
        <ele>129</ele>
        <time>2024-04-09T17:38:24Z</time>
      </trkpt>
      <trkpt lat="43.65344" lon="1.38984">
        <ele>129</ele>
        <time>2024-04-09T17:38:25Z</time>
      </trkpt>
      <trkpt lat="43.65346" lon="1.38983">
        <ele>129</ele>
        <time>2024-04-09T17:38:26Z</time>
      </trkpt>
      <trkpt lat="43.65349" lon="1.38983">
        <ele>129</ele>
        <time>2024-04-09T17:38:27Z</time>
      </trkpt>
      <trkpt lat="43.65352" lon="1.38983">
        <ele>129</ele>
        <time>2024-04-09T17:38:28Z</time>
      </trkpt>
      <trkpt lat="43.65355" lon="1.38983">
        <ele>129</ele>
        <time>2024-04-09T17:38:29Z</time>
      </trkpt>
      <trkpt lat="43.65357" lon="1.38983">
        <ele>129</ele>
        <time>2024-04-09T17:38:30Z</time>
      </trkpt>
      <trkpt lat="43.6536" lon="1.38984">
        <ele>129</ele>
        <time>2024-04-09T17:38:31Z</time>
      </trkpt>
      <trkpt lat="43.65363" lon="1.38984">
        <ele>129</ele>
        <time>2024-04-09T17:38:32Z</time>
      </trkpt>
      <trkpt lat="43.65365" lon="1.38983">
        <ele>129</ele>
        <time>2024-04-09T17:38:33Z</time>
      </trkpt>
      <trkpt lat="43.65368" lon="1.38983">
        <ele>129</ele>
        <time>2024-04-09T17:38:34Z</time>
      </trkpt>
      <trkpt lat="43.6537" lon="1.38984">
        <ele>129</ele>
        <time>2024-04-09T17:38:35Z</time>
      </trkpt>
      <trkpt lat="43.65373" lon="1.38985">
        <ele>129</ele>
        <time>2024-04-09T17:38:36Z</time>
      </trkpt>
      <trkpt lat="43.65374" lon="1.38985">
        <ele>129</ele>
        <time>2024-04-09T17:38:37Z</time>
      </trkpt>
      <trkpt lat="43.65374" lon="1.38985">
        <ele>129</ele>
        <time>2024-04-09T17:38:38Z</time>
      </trkpt>
      <trkpt lat="43.65378" lon="1.38985">
        <ele>129</ele>
        <time>2024-04-09T17:38:39Z</time>
      </trkpt>
      <trkpt lat="43.6538" lon="1.38985">
        <ele>129</ele>
        <time>2024-04-09T17:38:40Z</time>
      </trkpt>
      <trkpt lat="43.65382" lon="1.38985">
        <ele>129</ele>
        <time>2024-04-09T17:38:41Z</time>
      </trkpt>
      <trkpt lat="43.65384" lon="1.38984">
        <ele>128</ele>
        <time>2024-04-09T17:38:42Z</time>
      </trkpt>
      <trkpt lat="43.65386" lon="1.38984">
        <ele>128</ele>
        <time>2024-04-09T17:38:43Z</time>
      </trkpt>
      <trkpt lat="43.65388" lon="1.38984">
        <ele>128</ele>
        <time>2024-04-09T17:38:44Z</time>
      </trkpt>
      <trkpt lat="43.6539" lon="1.38984">
        <ele>128</ele>
        <time>2024-04-09T17:38:45Z</time>
      </trkpt>
      <trkpt lat="43.65392" lon="1.38985">
        <ele>129</ele>
        <time>2024-04-09T17:38:46Z</time>
      </trkpt>
      <trkpt lat="43.65394" lon="1.38986">
        <ele>129</ele>
        <time>2024-04-09T17:38:47Z</time>
      </trkpt>
      <trkpt lat="43.65396" lon="1.38987">
        <ele>129</ele>
        <time>2024-04-09T17:38:48Z</time>
      </trkpt>
      <trkpt lat="43.65398" lon="1.38988">
        <ele>129</ele>
        <time>2024-04-09T17:38:49Z</time>
      </trkpt>
      <trkpt lat="43.654" lon="1.3899">
        <ele>129</ele>
        <time>2024-04-09T17:38:50Z</time>
      </trkpt>
      <trkpt lat="43.65402" lon="1.38991">
        <ele>129</ele>
        <time>2024-04-09T17:38:51Z</time>
      </trkpt>
      <trkpt lat="43.65404" lon="1.38992">
        <ele>129</ele>
        <time>2024-04-09T17:38:52Z</time>
      </trkpt>
      <trkpt lat="43.65406" lon="1.38992">
        <ele>129</ele>
        <time>2024-04-09T17:38:53Z</time>
      </trkpt>
      <trkpt lat="43.65408" lon="1.38993">
        <ele>128</ele>
        <time>2024-04-09T17:38:54Z</time>
      </trkpt>
      <trkpt lat="43.6541" lon="1.38994">
        <ele>129</ele>
        <time>2024-04-09T17:38:55Z</time>
      </trkpt>
      <trkpt lat="43.65413" lon="1.38995">
        <ele>129</ele>
        <time>2024-04-09T17:38:56Z</time>
      </trkpt>
      <trkpt lat="43.65415" lon="1.38995">
        <ele>128</ele>
        <time>2024-04-09T17:38:57Z</time>
      </trkpt>
      <trkpt lat="43.65417" lon="1.38994">
        <ele>128</ele>
        <time>2024-04-09T17:38:58Z</time>
      </trkpt>
      <trkpt lat="43.6542" lon="1.38992">
        <ele>128</ele>
        <time>2024-04-09T17:38:59Z</time>
      </trkpt>
      <trkpt lat="43.65423" lon="1.38991">
        <ele>128</ele>
        <time>2024-04-09T17:39:00Z</time>
      </trkpt>
      <trkpt lat="43.65424" lon="1.3899">
        <ele>128</ele>
        <time>2024-04-09T17:39:01Z</time>
      </trkpt>
      <trkpt lat="43.65426" lon="1.38989">
        <ele>128</ele>
        <time>2024-04-09T17:39:02Z</time>
      </trkpt>
      <trkpt lat="43.65428" lon="1.38987">
        <ele>129</ele>
        <time>2024-04-09T17:39:03Z</time>
      </trkpt>
      <trkpt lat="43.6543" lon="1.38985">
        <ele>129</ele>
        <time>2024-04-09T17:39:04Z</time>
      </trkpt>
      <trkpt lat="43.65432" lon="1.38985">
        <ele>129</ele>
        <time>2024-04-09T17:39:05Z</time>
      </trkpt>
      <trkpt lat="43.65432" lon="1.38985">
        <ele>129</ele>
        <time>2024-04-09T17:39:06Z</time>
      </trkpt>
      <trkpt lat="43.65435" lon="1.38986">
        <ele>129</ele>
        <time>2024-04-09T17:39:07Z</time>
      </trkpt>
      <trkpt lat="43.65435" lon="1.38986">
        <ele>129</ele>
        <time>2024-04-09T17:39:08Z</time>
      </trkpt>
      <trkpt lat="43.65439" lon="1.38986">
        <ele>129</ele>
        <time>2024-04-09T17:39:09Z</time>
      </trkpt>
      <trkpt lat="43.65441" lon="1.38988">
        <ele>129</ele>
        <time>2024-04-09T17:39:10Z</time>
      </trkpt>
      <trkpt lat="43.65443" lon="1.3899">
        <ele>129</ele>
        <time>2024-04-09T17:39:11Z</time>
      </trkpt>
      <trkpt lat="43.65445" lon="1.38992">
        <ele>129</ele>
        <time>2024-04-09T17:39:12Z</time>
      </trkpt>
      <trkpt lat="43.65447" lon="1.38993">
        <ele>129</ele>
        <time>2024-04-09T17:39:13Z</time>
      </trkpt>
      <trkpt lat="43.65448" lon="1.38994">
        <ele>129</ele>
        <time>2024-04-09T17:39:14Z</time>
      </trkpt>
      <trkpt lat="43.6545" lon="1.38996">
        <ele>129</ele>
        <time>2024-04-09T17:39:15Z</time>
      </trkpt>
      <trkpt lat="43.6545" lon="1.38996">
        <ele>129</ele>
        <time>2024-04-09T17:39:16Z</time>
      </trkpt>
      <trkpt lat="43.65452" lon="1.38999">
        <ele>129</ele>
        <time>2024-04-09T17:39:17Z</time>
      </trkpt>
      <trkpt lat="43.65452" lon="1.38999">
        <ele>129</ele>
        <time>2024-04-09T17:39:18Z</time>
      </trkpt>
      <trkpt lat="43.65455" lon="1.39">
        <ele>129</ele>
        <time>2024-04-09T17:39:19Z</time>
      </trkpt>
      <trkpt lat="43.65455" lon="1.39">
        <ele>129</ele>
        <time>2024-04-09T17:39:20Z</time>
      </trkpt>
      <trkpt lat="43.65455" lon="1.39">
        <ele>129</ele>
        <time>2024-04-09T17:39:21Z</time>
      </trkpt>
      <trkpt lat="43.65455" lon="1.39">
        <ele>129</ele>
        <time>2024-04-09T17:39:22Z</time>
      </trkpt>
      <trkpt lat="43.65455" lon="1.39">
        <ele>129</ele>
        <time>2024-04-09T17:39:23Z</time>
      </trkpt>
      <trkpt lat="43.65457" lon="1.39">
        <ele>129</ele>
        <time>2024-04-09T17:39:24Z</time>
      </trkpt>
      <trkpt lat="43.65457" lon="1.39">
        <ele>129</ele>
        <time>2024-04-09T17:39:25Z</time>
      </trkpt>
      <trkpt lat="43.65458" lon="1.38999">
        <ele>129</ele>
        <time>2024-04-09T17:39:26Z</time>
      </trkpt>
      <trkpt lat="43.65458" lon="1.38999">
        <ele>129</ele>
        <time>2024-04-09T17:39:27Z</time>
      </trkpt>
      <trkpt lat="43.65458" lon="1.38999">
        <ele>129</ele>
        <time>2024-04-09T17:39:28Z</time>
      </trkpt>
      <trkpt lat="43.65458" lon="1.38999">
        <ele>129</ele>
        <time>2024-04-09T17:39:29Z</time>
      </trkpt>
      <trkpt lat="43.65459" lon="1.38997">
        <ele>129</ele>
        <time>2024-04-09T17:39:30Z</time>
      </trkpt>
      <trkpt lat="43.65459" lon="1.38997">
        <ele>129</ele>
        <time>2024-04-09T17:39:31Z</time>
      </trkpt>
      <trkpt lat="43.65459" lon="1.38997">
        <ele>129</ele>
        <time>2024-04-09T17:39:32Z</time>
      </trkpt>
      <trkpt lat="43.65459" lon="1.38997">
        <ele>129</ele>
        <time>2024-04-09T17:39:33Z</time>
      </trkpt>
      <trkpt lat="43.65461" lon="1.38995">
        <ele>129</ele>
        <time>2024-04-09T17:39:34Z</time>
      </trkpt>
      <trkpt lat="43.65461" lon="1.38995">
        <ele>129</ele>
        <time>2024-04-09T17:39:35Z</time>
      </trkpt>
      <trkpt lat="43.65461" lon="1.38995">
        <ele>129</ele>
        <time>2024-04-09T17:39:36Z</time>
      </trkpt>
      <trkpt lat="43.65463" lon="1.38992">
        <ele>129</ele>
        <time>2024-04-09T17:39:37Z</time>
      </trkpt>
      <trkpt lat="43.65463" lon="1.38992">
        <ele>129</ele>
        <time>2024-04-09T17:39:38Z</time>
      </trkpt>
      <trkpt lat="43.65465" lon="1.38992">
        <ele>129</ele>
        <time>2024-04-09T17:39:39Z</time>
      </trkpt>
      <trkpt lat="43.65465" lon="1.38992">
        <ele>129</ele>
        <time>2024-04-09T17:39:40Z</time>
      </trkpt>
      <trkpt lat="43.65468" lon="1.38992">
        <ele>129</ele>
        <time>2024-04-09T17:39:41Z</time>
      </trkpt>
      <trkpt lat="43.65468" lon="1.38992">
        <ele>129</ele>
        <time>2024-04-09T17:39:42Z</time>
      </trkpt>
      <trkpt lat="43.65469" lon="1.38992">
        <ele>129</ele>
        <time>2024-04-09T17:39:43Z</time>
      </trkpt>
      <trkpt lat="43.65469" lon="1.38992">
        <ele>129</ele>
        <time>2024-04-09T17:39:44Z</time>
      </trkpt>
      <trkpt lat="43.65469" lon="1.38992">
        <ele>129</ele>
        <time>2024-04-09T17:39:45Z</time>
      </trkpt>
      <trkpt lat="43.65471" lon="1.38993">
        <ele>129</ele>
        <time>2024-04-09T17:39:46Z</time>
      </trkpt>
      <trkpt lat="43.65471" lon="1.38993">
        <ele>129</ele>
        <time>2024-04-09T17:39:47Z</time>
      </trkpt>
      <trkpt lat="43.65473" lon="1.38996">
        <ele>129</ele>
        <time>2024-04-09T17:39:48Z</time>
      </trkpt>
      <trkpt lat="43.65474" lon="1.38998">
        <ele>129</ele>
        <time>2024-04-09T17:39:49Z</time>
      </trkpt>
      <trkpt lat="43.65476" lon="1.39">
        <ele>129</ele>
        <time>2024-04-09T17:39:50Z</time>
      </trkpt>
      <trkpt lat="43.65477" lon="1.39001">
        <ele>129</ele>
        <time>2024-04-09T17:39:51Z</time>
      </trkpt>
      <trkpt lat="43.65479" lon="1.39003">
        <ele>129</ele>
        <time>2024-04-09T17:39:52Z</time>
      </trkpt>
      <trkpt lat="43.65481" lon="1.39004">
        <ele>129</ele>
        <time>2024-04-09T17:39:53Z</time>
      </trkpt>
      <trkpt lat="43.65483" lon="1.39006">
        <ele>129</ele>
        <time>2024-04-09T17:39:54Z</time>
      </trkpt>
      <trkpt lat="43.65485" lon="1.39007">
        <ele>129</ele>
        <time>2024-04-09T17:39:55Z</time>
      </trkpt>
      <trkpt lat="43.65487" lon="1.39009">
        <ele>129</ele>
        <time>2024-04-09T17:39:56Z</time>
      </trkpt>
      <trkpt lat="43.65489" lon="1.3901">
        <ele>129</ele>
        <time>2024-04-09T17:39:57Z</time>
      </trkpt>
      <trkpt lat="43.65491" lon="1.39011">
        <ele>129</ele>
        <time>2024-04-09T17:39:58Z</time>
      </trkpt>
      <trkpt lat="43.65493" lon="1.39013">
        <ele>129</ele>
        <time>2024-04-09T17:39:59Z</time>
      </trkpt>
      <trkpt lat="43.65495" lon="1.39014">
        <ele>129</ele>
        <time>2024-04-09T17:40:00Z</time>
      </trkpt>
      <trkpt lat="43.65497" lon="1.39015">
        <ele>129</ele>
        <time>2024-04-09T17:40:01Z</time>
      </trkpt>
      <trkpt lat="43.65499" lon="1.39015">
        <ele>129</ele>
        <time>2024-04-09T17:40:02Z</time>
      </trkpt>
      <trkpt lat="43.65501" lon="1.39017">
        <ele>129</ele>
        <time>2024-04-09T17:40:03Z</time>
      </trkpt>
      <trkpt lat="43.65503" lon="1.39018">
        <ele>129</ele>
        <time>2024-04-09T17:40:04Z</time>
      </trkpt>
      <trkpt lat="43.65505" lon="1.39019">
        <ele>129</ele>
        <time>2024-04-09T17:40:05Z</time>
      </trkpt>
      <trkpt lat="43.65507" lon="1.39019">
        <ele>129</ele>
        <time>2024-04-09T17:40:06Z</time>
      </trkpt>
      <trkpt lat="43.65509" lon="1.3902">
        <ele>129</ele>
        <time>2024-04-09T17:40:07Z</time>
      </trkpt>
      <trkpt lat="43.6551" lon="1.39022">
        <ele>128</ele>
        <time>2024-04-09T17:40:08Z</time>
      </trkpt>
      <trkpt lat="43.65512" lon="1.39024">
        <ele>128</ele>
        <time>2024-04-09T17:40:09Z</time>
      </trkpt>
      <trkpt lat="43.65514" lon="1.39025">
        <ele>128</ele>
        <time>2024-04-09T17:40:10Z</time>
      </trkpt>
      <trkpt lat="43.65516" lon="1.39026">
        <ele>128</ele>
        <time>2024-04-09T17:40:11Z</time>
      </trkpt>
      <trkpt lat="43.65518" lon="1.39027">
        <ele>128</ele>
        <time>2024-04-09T17:40:12Z</time>
      </trkpt>
      <trkpt lat="43.6552" lon="1.39029">
        <ele>128</ele>
        <time>2024-04-09T17:40:13Z</time>
      </trkpt>
      <trkpt lat="43.65522" lon="1.3903">
        <ele>128</ele>
        <time>2024-04-09T17:40:14Z</time>
      </trkpt>
      <trkpt lat="43.65525" lon="1.39031">
        <ele>128</ele>
        <time>2024-04-09T17:40:15Z</time>
      </trkpt>
      <trkpt lat="43.65527" lon="1.39033">
        <ele>128</ele>
        <time>2024-04-09T17:40:16Z</time>
      </trkpt>
      <trkpt lat="43.65529" lon="1.39034">
        <ele>128</ele>
        <time>2024-04-09T17:40:17Z</time>
      </trkpt>
      <trkpt lat="43.65532" lon="1.39034">
        <ele>128</ele>
        <time>2024-04-09T17:40:18Z</time>
      </trkpt>
      <trkpt lat="43.65534" lon="1.39035">
        <ele>128</ele>
        <time>2024-04-09T17:40:19Z</time>
      </trkpt>
      <trkpt lat="43.65536" lon="1.39036">
        <ele>128</ele>
        <time>2024-04-09T17:40:20Z</time>
      </trkpt>
      <trkpt lat="43.65538" lon="1.39037">
        <ele>128</ele>
        <time>2024-04-09T17:40:21Z</time>
      </trkpt>
      <trkpt lat="43.6554" lon="1.39039">
        <ele>128</ele>
        <time>2024-04-09T17:40:22Z</time>
      </trkpt>
      <trkpt lat="43.65542" lon="1.3904">
        <ele>128</ele>
        <time>2024-04-09T17:40:23Z</time>
      </trkpt>
      <trkpt lat="43.65544" lon="1.39042">
        <ele>128</ele>
        <time>2024-04-09T17:40:24Z</time>
      </trkpt>
      <trkpt lat="43.65546" lon="1.39044">
        <ele>128</ele>
        <time>2024-04-09T17:40:25Z</time>
      </trkpt>
      <trkpt lat="43.65548" lon="1.39046">
        <ele>128</ele>
        <time>2024-04-09T17:40:26Z</time>
      </trkpt>
      <trkpt lat="43.6555" lon="1.39047">
        <ele>128</ele>
        <time>2024-04-09T17:40:27Z</time>
      </trkpt>
      <trkpt lat="43.65552" lon="1.39049">
        <ele>128</ele>
        <time>2024-04-09T17:40:28Z</time>
      </trkpt>
      <trkpt lat="43.65554" lon="1.3905">
        <ele>128</ele>
        <time>2024-04-09T17:40:29Z</time>
      </trkpt>
      <trkpt lat="43.65556" lon="1.39052">
        <ele>128</ele>
        <time>2024-04-09T17:40:30Z</time>
      </trkpt>
      <trkpt lat="43.65558" lon="1.39053">
        <ele>128</ele>
        <time>2024-04-09T17:40:31Z</time>
      </trkpt>
      <trkpt lat="43.6556" lon="1.39054">
        <ele>128</ele>
        <time>2024-04-09T17:40:32Z</time>
      </trkpt>
      <trkpt lat="43.65562" lon="1.39056">
        <ele>128</ele>
        <time>2024-04-09T17:40:33Z</time>
      </trkpt>
      <trkpt lat="43.65564" lon="1.39057">
        <ele>128</ele>
        <time>2024-04-09T17:40:34Z</time>
      </trkpt>
      <trkpt lat="43.65566" lon="1.39059">
        <ele>128</ele>
        <time>2024-04-09T17:40:35Z</time>
      </trkpt>
      <trkpt lat="43.65568" lon="1.3906">
        <ele>128</ele>
        <time>2024-04-09T17:40:36Z</time>
      </trkpt>
      <trkpt lat="43.6557" lon="1.39062">
        <ele>128</ele>
        <time>2024-04-09T17:40:37Z</time>
      </trkpt>
      <trkpt lat="43.65572" lon="1.39063">
        <ele>128</ele>
        <time>2024-04-09T17:40:38Z</time>
      </trkpt>
      <trkpt lat="43.65574" lon="1.39065">
        <ele>128</ele>
        <time>2024-04-09T17:40:39Z</time>
      </trkpt>
      <trkpt lat="43.65576" lon="1.39067">
        <ele>128</ele>
        <time>2024-04-09T17:40:40Z</time>
      </trkpt>
      <trkpt lat="43.65578" lon="1.39068">
        <ele>128</ele>
        <time>2024-04-09T17:40:41Z</time>
      </trkpt>
      <trkpt lat="43.6558" lon="1.3907">
        <ele>128</ele>
        <time>2024-04-09T17:40:42Z</time>
      </trkpt>
      <trkpt lat="43.65583" lon="1.39071">
        <ele>128</ele>
        <time>2024-04-09T17:40:43Z</time>
      </trkpt>
      <trkpt lat="43.65585" lon="1.39072">
        <ele>128</ele>
        <time>2024-04-09T17:40:44Z</time>
      </trkpt>
      <trkpt lat="43.65587" lon="1.39073">
        <ele>128</ele>
        <time>2024-04-09T17:40:45Z</time>
      </trkpt>
      <trkpt lat="43.6559" lon="1.39074">
        <ele>128</ele>
        <time>2024-04-09T17:40:46Z</time>
      </trkpt>
      <trkpt lat="43.65592" lon="1.39075">
        <ele>128</ele>
        <time>2024-04-09T17:40:47Z</time>
      </trkpt>
      <trkpt lat="43.65594" lon="1.39076">
        <ele>128</ele>
        <time>2024-04-09T17:40:48Z</time>
      </trkpt>
      <trkpt lat="43.65596" lon="1.39076">
        <ele>128</ele>
        <time>2024-04-09T17:40:49Z</time>
      </trkpt>
      <trkpt lat="43.65598" lon="1.39077">
        <ele>128</ele>
        <time>2024-04-09T17:40:50Z</time>
      </trkpt>
      <trkpt lat="43.65601" lon="1.39078">
        <ele>128</ele>
        <time>2024-04-09T17:40:51Z</time>
      </trkpt>
      <trkpt lat="43.65603" lon="1.39079">
        <ele>128</ele>
        <time>2024-04-09T17:40:52Z</time>
      </trkpt>
      <trkpt lat="43.65605" lon="1.39081">
        <ele>128</ele>
        <time>2024-04-09T17:40:53Z</time>
      </trkpt>
      <trkpt lat="43.65607" lon="1.39083">
        <ele>128</ele>
        <time>2024-04-09T17:40:54Z</time>
      </trkpt>
      <trkpt lat="43.65609" lon="1.39085">
        <ele>128</ele>
        <time>2024-04-09T17:40:55Z</time>
      </trkpt>
      <trkpt lat="43.65611" lon="1.39086">
        <ele>128</ele>
        <time>2024-04-09T17:40:56Z</time>
      </trkpt>
      <trkpt lat="43.65613" lon="1.39087">
        <ele>128</ele>
        <time>2024-04-09T17:40:57Z</time>
      </trkpt>
      <trkpt lat="43.65615" lon="1.39089">
        <ele>128</ele>
        <time>2024-04-09T17:40:58Z</time>
      </trkpt>
      <trkpt lat="43.65617" lon="1.3909">
        <ele>128</ele>
        <time>2024-04-09T17:40:59Z</time>
      </trkpt>
      <trkpt lat="43.6562" lon="1.39092">
        <ele>128</ele>
        <time>2024-04-09T17:41:00Z</time>
      </trkpt>
      <trkpt lat="43.65622" lon="1.39093">
        <ele>128</ele>
        <time>2024-04-09T17:41:01Z</time>
      </trkpt>
      <trkpt lat="43.65625" lon="1.39094">
        <ele>128</ele>
        <time>2024-04-09T17:41:02Z</time>
      </trkpt>
      <trkpt lat="43.65627" lon="1.39096">
        <ele>128</ele>
        <time>2024-04-09T17:41:03Z</time>
      </trkpt>
      <trkpt lat="43.65629" lon="1.39097">
        <ele>128</ele>
        <time>2024-04-09T17:41:04Z</time>
      </trkpt>
      <trkpt lat="43.65631" lon="1.39099">
        <ele>127</ele>
        <time>2024-04-09T17:41:05Z</time>
      </trkpt>
      <trkpt lat="43.65633" lon="1.391">
        <ele>127</ele>
        <time>2024-04-09T17:41:06Z</time>
      </trkpt>
      <trkpt lat="43.65635" lon="1.39101">
        <ele>127</ele>
        <time>2024-04-09T17:41:07Z</time>
      </trkpt>
      <trkpt lat="43.65637" lon="1.39102">
        <ele>127</ele>
        <time>2024-04-09T17:41:08Z</time>
      </trkpt>
      <trkpt lat="43.65639" lon="1.39103">
        <ele>127</ele>
        <time>2024-04-09T17:41:09Z</time>
      </trkpt>
      <trkpt lat="43.65641" lon="1.39104">
        <ele>127</ele>
        <time>2024-04-09T17:41:10Z</time>
      </trkpt>
      <trkpt lat="43.65644" lon="1.39105">
        <ele>127</ele>
        <time>2024-04-09T17:41:11Z</time>
      </trkpt>
      <trkpt lat="43.65646" lon="1.39107">
        <ele>127</ele>
        <time>2024-04-09T17:41:12Z</time>
      </trkpt>
      <trkpt lat="43.65649" lon="1.39109">
        <ele>127</ele>
        <time>2024-04-09T17:41:13Z</time>
      </trkpt>
      <trkpt lat="43.65651" lon="1.39111">
        <ele>127</ele>
        <time>2024-04-09T17:41:14Z</time>
      </trkpt>
      <trkpt lat="43.65654" lon="1.39112">
        <ele>127</ele>
        <time>2024-04-09T17:41:15Z</time>
      </trkpt>
      <trkpt lat="43.65656" lon="1.39115">
        <ele>127</ele>
        <time>2024-04-09T17:41:16Z</time>
      </trkpt>
      <trkpt lat="43.65658" lon="1.39116">
        <ele>127</ele>
        <time>2024-04-09T17:41:17Z</time>
      </trkpt>
      <trkpt lat="43.6566" lon="1.39118">
        <ele>127</ele>
        <time>2024-04-09T17:41:18Z</time>
      </trkpt>
      <trkpt lat="43.65662" lon="1.39119">
        <ele>127</ele>
        <time>2024-04-09T17:41:19Z</time>
      </trkpt>
      <trkpt lat="43.65665" lon="1.39121">
        <ele>127</ele>
        <time>2024-04-09T17:41:20Z</time>
      </trkpt>
      <trkpt lat="43.65667" lon="1.39122">
        <ele>127</ele>
        <time>2024-04-09T17:41:21Z</time>
      </trkpt>
      <trkpt lat="43.65668" lon="1.39123">
        <ele>127</ele>
        <time>2024-04-09T17:41:22Z</time>
      </trkpt>
      <trkpt lat="43.6567" lon="1.39125">
        <ele>127</ele>
        <time>2024-04-09T17:41:23Z</time>
      </trkpt>
      <trkpt lat="43.65672" lon="1.39126">
        <ele>127</ele>
        <time>2024-04-09T17:41:24Z</time>
      </trkpt>
      <trkpt lat="43.65674" lon="1.39127">
        <ele>127</ele>
        <time>2024-04-09T17:41:25Z</time>
      </trkpt>
      <trkpt lat="43.65677" lon="1.39129">
        <ele>127</ele>
        <time>2024-04-09T17:41:26Z</time>
      </trkpt>
      <trkpt lat="43.65678" lon="1.3913">
        <ele>126</ele>
        <time>2024-04-09T17:41:27Z</time>
      </trkpt>
      <trkpt lat="43.65678" lon="1.3913">
        <ele>126</ele>
        <time>2024-04-09T17:41:28Z</time>
      </trkpt>
      <trkpt lat="43.65682" lon="1.39131">
        <ele>127</ele>
        <time>2024-04-09T17:41:29Z</time>
      </trkpt>
      <trkpt lat="43.65683" lon="1.39132">
        <ele>127</ele>
        <time>2024-04-09T17:41:30Z</time>
      </trkpt>
      <trkpt lat="43.65686" lon="1.39133">
        <ele>127</ele>
        <time>2024-04-09T17:41:31Z</time>
      </trkpt>
      <trkpt lat="43.65688" lon="1.39135">
        <ele>127</ele>
        <time>2024-04-09T17:41:32Z</time>
      </trkpt>
      <trkpt lat="43.6569" lon="1.39137">
        <ele>127</ele>
        <time>2024-04-09T17:41:33Z</time>
      </trkpt>
      <trkpt lat="43.65692" lon="1.39139">
        <ele>127</ele>
        <time>2024-04-09T17:41:34Z</time>
      </trkpt>
      <trkpt lat="43.65694" lon="1.3914">
        <ele>126</ele>
        <time>2024-04-09T17:41:35Z</time>
      </trkpt>
      <trkpt lat="43.65696" lon="1.39142">
        <ele>126</ele>
        <time>2024-04-09T17:41:36Z</time>
      </trkpt>
      <trkpt lat="43.65698" lon="1.39143">
        <ele>126</ele>
        <time>2024-04-09T17:41:37Z</time>
      </trkpt>
      <trkpt lat="43.657" lon="1.39145">
        <ele>126</ele>
        <time>2024-04-09T17:41:38Z</time>
      </trkpt>
      <trkpt lat="43.65702" lon="1.39146">
        <ele>126</ele>
        <time>2024-04-09T17:41:39Z</time>
      </trkpt>
      <trkpt lat="43.65704" lon="1.39148">
        <ele>126</ele>
        <time>2024-04-09T17:41:40Z</time>
      </trkpt>
      <trkpt lat="43.65706" lon="1.3915">
        <ele>126</ele>
        <time>2024-04-09T17:41:41Z</time>
      </trkpt>
      <trkpt lat="43.65707" lon="1.39152">
        <ele>127</ele>
        <time>2024-04-09T17:41:42Z</time>
      </trkpt>
      <trkpt lat="43.65709" lon="1.39153">
        <ele>127</ele>
        <time>2024-04-09T17:41:43Z</time>
      </trkpt>
      <trkpt lat="43.65711" lon="1.39155">
        <ele>127</ele>
        <time>2024-04-09T17:41:44Z</time>
      </trkpt>
      <trkpt lat="43.65712" lon="1.39156">
        <ele>126</ele>
        <time>2024-04-09T17:41:45Z</time>
      </trkpt>
      <trkpt lat="43.65714" lon="1.39158">
        <ele>126</ele>
        <time>2024-04-09T17:41:46Z</time>
      </trkpt>
      <trkpt lat="43.65716" lon="1.3916">
        <ele>126</ele>
        <time>2024-04-09T17:41:47Z</time>
      </trkpt>
      <trkpt lat="43.65718" lon="1.39162">
        <ele>126</ele>
        <time>2024-04-09T17:41:48Z</time>
      </trkpt>
      <trkpt lat="43.6572" lon="1.39164">
        <ele>126</ele>
        <time>2024-04-09T17:41:49Z</time>
      </trkpt>
      <trkpt lat="43.65722" lon="1.39166">
        <ele>126</ele>
        <time>2024-04-09T17:41:50Z</time>
      </trkpt>
      <trkpt lat="43.65724" lon="1.39167">
        <ele>127</ele>
        <time>2024-04-09T17:41:51Z</time>
      </trkpt>
      <trkpt lat="43.65726" lon="1.39169">
        <ele>127</ele>
        <time>2024-04-09T17:41:52Z</time>
      </trkpt>
      <trkpt lat="43.65728" lon="1.39169">
        <ele>127</ele>
        <time>2024-04-09T17:41:53Z</time>
      </trkpt>
      <trkpt lat="43.6573" lon="1.3917">
        <ele>127</ele>
        <time>2024-04-09T17:41:54Z</time>
      </trkpt>
      <trkpt lat="43.65732" lon="1.3917">
        <ele>127</ele>
        <time>2024-04-09T17:41:55Z</time>
      </trkpt>
      <trkpt lat="43.65735" lon="1.39172">
        <ele>127</ele>
        <time>2024-04-09T17:41:56Z</time>
      </trkpt>
      <trkpt lat="43.65735" lon="1.39172">
        <ele>127</ele>
        <time>2024-04-09T17:41:57Z</time>
      </trkpt>
      <trkpt lat="43.65739" lon="1.39175">
        <ele>127</ele>
        <time>2024-04-09T17:41:58Z</time>
      </trkpt>
      <trkpt lat="43.65739" lon="1.39175">
        <ele>127</ele>
        <time>2024-04-09T17:41:59Z</time>
      </trkpt>
      <trkpt lat="43.65742" lon="1.39177">
        <ele>127</ele>
        <time>2024-04-09T17:42:00Z</time>
      </trkpt>
      <trkpt lat="43.65744" lon="1.39179">
        <ele>127</ele>
        <time>2024-04-09T17:42:01Z</time>
      </trkpt>
      <trkpt lat="43.65747" lon="1.39181">
        <ele>127</ele>
        <time>2024-04-09T17:42:02Z</time>
      </trkpt>
      <trkpt lat="43.65751" lon="1.39182">
        <ele>128</ele>
        <time>2024-04-09T17:42:03Z</time>
      </trkpt>
      <trkpt lat="43.65754" lon="1.39183">
        <ele>128</ele>
        <time>2024-04-09T17:42:04Z</time>
      </trkpt>
      <trkpt lat="43.65756" lon="1.39184">
        <ele>128</ele>
        <time>2024-04-09T17:42:05Z</time>
      </trkpt>
      <trkpt lat="43.65759" lon="1.39186">
        <ele>128</ele>
        <time>2024-04-09T17:42:06Z</time>
      </trkpt>
      <trkpt lat="43.65761" lon="1.39189">
        <ele>127</ele>
        <time>2024-04-09T17:42:07Z</time>
      </trkpt>
      <trkpt lat="43.65764" lon="1.39191">
        <ele>127</ele>
        <time>2024-04-09T17:42:08Z</time>
      </trkpt>
      <trkpt lat="43.65766" lon="1.39193">
        <ele>127</ele>
        <time>2024-04-09T17:42:09Z</time>
      </trkpt>
      <trkpt lat="43.65768" lon="1.39194">
        <ele>127</ele>
        <time>2024-04-09T17:42:10Z</time>
      </trkpt>
      <trkpt lat="43.6577" lon="1.39196">
        <ele>127</ele>
        <time>2024-04-09T17:42:11Z</time>
      </trkpt>
      <trkpt lat="43.65772" lon="1.39198">
        <ele>127</ele>
        <time>2024-04-09T17:42:12Z</time>
      </trkpt>
      <trkpt lat="43.65774" lon="1.39201">
        <ele>127</ele>
        <time>2024-04-09T17:42:13Z</time>
      </trkpt>
      <trkpt lat="43.65776" lon="1.39203">
        <ele>127</ele>
        <time>2024-04-09T17:42:14Z</time>
      </trkpt>
      <trkpt lat="43.65778" lon="1.39205">
        <ele>127</ele>
        <time>2024-04-09T17:42:15Z</time>
      </trkpt>
      <trkpt lat="43.6578" lon="1.39208">
        <ele>127</ele>
        <time>2024-04-09T17:42:16Z</time>
      </trkpt>
      <trkpt lat="43.65782" lon="1.39209">
        <ele>127</ele>
        <time>2024-04-09T17:42:17Z</time>
      </trkpt>
      <trkpt lat="43.65784" lon="1.3921">
        <ele>127</ele>
        <time>2024-04-09T17:42:18Z</time>
      </trkpt>
      <trkpt lat="43.65786" lon="1.39211">
        <ele>126</ele>
        <time>2024-04-09T17:42:19Z</time>
      </trkpt>
      <trkpt lat="43.65789" lon="1.39212">
        <ele>126</ele>
        <time>2024-04-09T17:42:20Z</time>
      </trkpt>
      <trkpt lat="43.65791" lon="1.39212">
        <ele>126</ele>
        <time>2024-04-09T17:42:21Z</time>
      </trkpt>
      <trkpt lat="43.65794" lon="1.39213">
        <ele>125</ele>
        <time>2024-04-09T17:42:22Z</time>
      </trkpt>
      <trkpt lat="43.65794" lon="1.39213">
        <ele>125</ele>
        <time>2024-04-09T17:42:23Z</time>
      </trkpt>
      <trkpt lat="43.65797" lon="1.39212">
        <ele>125</ele>
        <time>2024-04-09T17:42:24Z</time>
      </trkpt>
      <trkpt lat="43.65799" lon="1.39212">
        <ele>125</ele>
        <time>2024-04-09T17:42:25Z</time>
      </trkpt>
      <trkpt lat="43.65799" lon="1.39212">
        <ele>125</ele>
        <time>2024-04-09T17:42:26Z</time>
      </trkpt>
      <trkpt lat="43.65802" lon="1.39213">
        <ele>125</ele>
        <time>2024-04-09T17:42:27Z</time>
      </trkpt>
      <trkpt lat="43.65804" lon="1.39214">
        <ele>125</ele>
        <time>2024-04-09T17:42:28Z</time>
      </trkpt>
      <trkpt lat="43.65806" lon="1.39216">
        <ele>125</ele>
        <time>2024-04-09T17:42:29Z</time>
      </trkpt>
      <trkpt lat="43.65808" lon="1.39217">
        <ele>125</ele>
        <time>2024-04-09T17:42:30Z</time>
      </trkpt>
      <trkpt lat="43.6581" lon="1.39219">
        <ele>125</ele>
        <time>2024-04-09T17:42:31Z</time>
      </trkpt>
      <trkpt lat="43.65812" lon="1.39221">
        <ele>125</ele>
        <time>2024-04-09T17:42:32Z</time>
      </trkpt>
      <trkpt lat="43.65814" lon="1.39222">
        <ele>125</ele>
        <time>2024-04-09T17:42:33Z</time>
      </trkpt>
      <trkpt lat="43.65814" lon="1.39222">
        <ele>125</ele>
        <time>2024-04-09T17:42:34Z</time>
      </trkpt>
      <trkpt lat="43.65817" lon="1.39223">
        <ele>125</ele>
        <time>2024-04-09T17:42:35Z</time>
      </trkpt>
      <trkpt lat="43.65819" lon="1.39224">
        <ele>125</ele>
        <time>2024-04-09T17:42:36Z</time>
      </trkpt>
      <trkpt lat="43.65821" lon="1.39224">
        <ele>125</ele>
        <time>2024-04-09T17:42:37Z</time>
      </trkpt>
      <trkpt lat="43.65824" lon="1.39224">
        <ele>125</ele>
        <time>2024-04-09T17:42:38Z</time>
      </trkpt>
      <trkpt lat="43.65826" lon="1.39225">
        <ele>125</ele>
        <time>2024-04-09T17:42:39Z</time>
      </trkpt>
      <trkpt lat="43.65828" lon="1.39227">
        <ele>125</ele>
        <time>2024-04-09T17:42:40Z</time>
      </trkpt>
      <trkpt lat="43.65831" lon="1.39228">
        <ele>125</ele>
        <time>2024-04-09T17:42:41Z</time>
      </trkpt>
      <trkpt lat="43.65833" lon="1.39229">
        <ele>125</ele>
        <time>2024-04-09T17:42:42Z</time>
      </trkpt>
      <trkpt lat="43.65835" lon="1.39231">
        <ele>126</ele>
        <time>2024-04-09T17:42:43Z</time>
      </trkpt>
      <trkpt lat="43.65837" lon="1.39233">
        <ele>126</ele>
        <time>2024-04-09T17:42:44Z</time>
      </trkpt>
      <trkpt lat="43.65839" lon="1.39235">
        <ele>126</ele>
        <time>2024-04-09T17:42:45Z</time>
      </trkpt>
      <trkpt lat="43.65841" lon="1.39237">
        <ele>125</ele>
        <time>2024-04-09T17:42:46Z</time>
      </trkpt>
      <trkpt lat="43.65842" lon="1.39239">
        <ele>125</ele>
        <time>2024-04-09T17:42:47Z</time>
      </trkpt>
      <trkpt lat="43.65844" lon="1.3924">
        <ele>125</ele>
        <time>2024-04-09T17:42:48Z</time>
      </trkpt>
      <trkpt lat="43.65844" lon="1.3924">
        <ele>124</ele>
        <time>2024-04-09T17:42:49Z</time>
      </trkpt>
      <trkpt lat="43.65846" lon="1.39244">
        <ele>124</ele>
        <time>2024-04-09T17:42:50Z</time>
      </trkpt>
      <trkpt lat="43.65848" lon="1.39246">
        <ele>125</ele>
        <time>2024-04-09T17:42:51Z</time>
      </trkpt>
      <trkpt lat="43.6585" lon="1.39247">
        <ele>125</ele>
        <time>2024-04-09T17:42:52Z</time>
      </trkpt>
      <trkpt lat="43.65852" lon="1.39249">
        <ele>125</ele>
        <time>2024-04-09T17:42:53Z</time>
      </trkpt>
      <trkpt lat="43.65854" lon="1.3925">
        <ele>124</ele>
        <time>2024-04-09T17:42:54Z</time>
      </trkpt>
      <trkpt lat="43.65856" lon="1.39251">
        <ele>124</ele>
        <time>2024-04-09T17:42:55Z</time>
      </trkpt>
      <trkpt lat="43.65858" lon="1.39251">
        <ele>124</ele>
        <time>2024-04-09T17:42:56Z</time>
      </trkpt>
      <trkpt lat="43.65861" lon="1.39251">
        <ele>125</ele>
        <time>2024-04-09T17:42:57Z</time>
      </trkpt>
      <trkpt lat="43.65863" lon="1.39251">
        <ele>125</ele>
        <time>2024-04-09T17:42:58Z</time>
      </trkpt>
      <trkpt lat="43.65866" lon="1.39252">
        <ele>124</ele>
        <time>2024-04-09T17:42:59Z</time>
      </trkpt>
      <trkpt lat="43.65868" lon="1.39251">
        <ele>124</ele>
        <time>2024-04-09T17:43:00Z</time>
      </trkpt>
      <trkpt lat="43.65871" lon="1.39251">
        <ele>124</ele>
        <time>2024-04-09T17:43:01Z</time>
      </trkpt>
      <trkpt lat="43.65874" lon="1.39252">
        <ele>124</ele>
        <time>2024-04-09T17:43:02Z</time>
      </trkpt>
      <trkpt lat="43.65877" lon="1.39252">
        <ele>124</ele>
        <time>2024-04-09T17:43:03Z</time>
      </trkpt>
      <trkpt lat="43.65879" lon="1.39252">
        <ele>124</ele>
        <time>2024-04-09T17:43:04Z</time>
      </trkpt>
      <trkpt lat="43.65881" lon="1.39252">
        <ele>124</ele>
        <time>2024-04-09T17:43:05Z</time>
      </trkpt>
      <trkpt lat="43.65884" lon="1.39253">
        <ele>124</ele>
        <time>2024-04-09T17:43:06Z</time>
      </trkpt>
      <trkpt lat="43.65886" lon="1.39254">
        <ele>124</ele>
        <time>2024-04-09T17:43:07Z</time>
      </trkpt>
      <trkpt lat="43.65888" lon="1.39256">
        <ele>124</ele>
        <time>2024-04-09T17:43:08Z</time>
      </trkpt>
      <trkpt lat="43.6589" lon="1.39256">
        <ele>124</ele>
        <time>2024-04-09T17:43:09Z</time>
      </trkpt>
      <trkpt lat="43.65892" lon="1.39256">
        <ele>124</ele>
        <time>2024-04-09T17:43:10Z</time>
      </trkpt>
      <trkpt lat="43.65894" lon="1.39257">
        <ele>124</ele>
        <time>2024-04-09T17:43:11Z</time>
      </trkpt>
      <trkpt lat="43.65896" lon="1.39258">
        <ele>124</ele>
        <time>2024-04-09T17:43:12Z</time>
      </trkpt>
      <trkpt lat="43.65899" lon="1.39259">
        <ele>124</ele>
        <time>2024-04-09T17:43:13Z</time>
      </trkpt>
      <trkpt lat="43.65901" lon="1.3926">
        <ele>124</ele>
        <time>2024-04-09T17:43:14Z</time>
      </trkpt>
      <trkpt lat="43.65903" lon="1.3926">
        <ele>124</ele>
        <time>2024-04-09T17:43:15Z</time>
      </trkpt>
      <trkpt lat="43.65905" lon="1.3926">
        <ele>124</ele>
        <time>2024-04-09T17:43:16Z</time>
      </trkpt>
      <trkpt lat="43.65907" lon="1.3926">
        <ele>124</ele>
        <time>2024-04-09T17:43:17Z</time>
      </trkpt>
      <trkpt lat="43.6591" lon="1.3926">
        <ele>124</ele>
        <time>2024-04-09T17:43:18Z</time>
      </trkpt>
      <trkpt lat="43.65912" lon="1.39259">
        <ele>124</ele>
        <time>2024-04-09T17:43:19Z</time>
      </trkpt>
      <trkpt lat="43.65915" lon="1.39259">
        <ele>124</ele>
        <time>2024-04-09T17:43:20Z</time>
      </trkpt>
      <trkpt lat="43.65917" lon="1.39258">
        <ele>124</ele>
        <time>2024-04-09T17:43:21Z</time>
      </trkpt>
      <trkpt lat="43.6592" lon="1.39257">
        <ele>123</ele>
        <time>2024-04-09T17:43:22Z</time>
      </trkpt>
      <trkpt lat="43.65923" lon="1.39256">
        <ele>123</ele>
        <time>2024-04-09T17:43:23Z</time>
      </trkpt>
      <trkpt lat="43.65926" lon="1.39255">
        <ele>123</ele>
        <time>2024-04-09T17:43:24Z</time>
      </trkpt>
      <trkpt lat="43.65928" lon="1.39255">
        <ele>123</ele>
        <time>2024-04-09T17:43:25Z</time>
      </trkpt>
      <trkpt lat="43.65931" lon="1.39254">
        <ele>123</ele>
        <time>2024-04-09T17:43:26Z</time>
      </trkpt>
      <trkpt lat="43.65933" lon="1.39254">
        <ele>123</ele>
        <time>2024-04-09T17:43:27Z</time>
      </trkpt>
      <trkpt lat="43.65935" lon="1.39254">
        <ele>123</ele>
        <time>2024-04-09T17:43:28Z</time>
      </trkpt>
      <trkpt lat="43.65937" lon="1.39254">
        <ele>123</ele>
        <time>2024-04-09T17:43:29Z</time>
      </trkpt>
      <trkpt lat="43.6594" lon="1.39253">
        <ele>123</ele>
        <time>2024-04-09T17:43:30Z</time>
      </trkpt>
      <trkpt lat="43.65942" lon="1.39252">
        <ele>123</ele>
        <time>2024-04-09T17:43:31Z</time>
      </trkpt>
      <trkpt lat="43.65942" lon="1.39252">
        <ele>123</ele>
        <time>2024-04-09T17:43:32Z</time>
      </trkpt>
      <trkpt lat="43.65945" lon="1.39252">
        <ele>123</ele>
        <time>2024-04-09T17:43:33Z</time>
      </trkpt>
      <trkpt lat="43.65947" lon="1.39252">
        <ele>123</ele>
        <time>2024-04-09T17:43:34Z</time>
      </trkpt>
      <trkpt lat="43.6595" lon="1.39251">
        <ele>123</ele>
        <time>2024-04-09T17:43:35Z</time>
      </trkpt>
      <trkpt lat="43.65952" lon="1.3925">
        <ele>123</ele>
        <time>2024-04-09T17:43:36Z</time>
      </trkpt>
      <trkpt lat="43.65954" lon="1.3925">
        <ele>123</ele>
        <time>2024-04-09T17:43:37Z</time>
      </trkpt>
      <trkpt lat="43.65957" lon="1.39249">
        <ele>123</ele>
        <time>2024-04-09T17:43:38Z</time>
      </trkpt>
      <trkpt lat="43.65958" lon="1.39248">
        <ele>123</ele>
        <time>2024-04-09T17:43:39Z</time>
      </trkpt>
      <trkpt lat="43.65958" lon="1.39248">
        <ele>123</ele>
        <time>2024-04-09T17:43:40Z</time>
      </trkpt>
      <trkpt lat="43.65962" lon="1.39246">
        <ele>123</ele>
        <time>2024-04-09T17:43:41Z</time>
      </trkpt>
      <trkpt lat="43.65964" lon="1.39245">
        <ele>123</ele>
        <time>2024-04-09T17:43:42Z</time>
      </trkpt>
      <trkpt lat="43.65966" lon="1.39245">
        <ele>123</ele>
        <time>2024-04-09T17:43:43Z</time>
      </trkpt>
      <trkpt lat="43.65968" lon="1.39244">
        <ele>123</ele>
        <time>2024-04-09T17:43:44Z</time>
      </trkpt>
      <trkpt lat="43.65968" lon="1.39244">
        <ele>123</ele>
        <time>2024-04-09T17:43:45Z</time>
      </trkpt>
      <trkpt lat="43.65971" lon="1.39244">
        <ele>123</ele>
        <time>2024-04-09T17:43:46Z</time>
      </trkpt>
      <trkpt lat="43.65973" lon="1.39245">
        <ele>123</ele>
        <time>2024-04-09T17:43:47Z</time>
      </trkpt>
      <trkpt lat="43.65976" lon="1.39245">
        <ele>123</ele>
        <time>2024-04-09T17:43:48Z</time>
      </trkpt>
      <trkpt lat="43.65978" lon="1.39244">
        <ele>123</ele>
        <time>2024-04-09T17:43:49Z</time>
      </trkpt>
      <trkpt lat="43.65981" lon="1.39243">
        <ele>123</ele>
        <time>2024-04-09T17:43:50Z</time>
      </trkpt>
      <trkpt lat="43.65983" lon="1.39242">
        <ele>123</ele>
        <time>2024-04-09T17:43:51Z</time>
      </trkpt>
      <trkpt lat="43.65985" lon="1.39241">
        <ele>123</ele>
        <time>2024-04-09T17:43:52Z</time>
      </trkpt>
      <trkpt lat="43.65987" lon="1.3924">
        <ele>123</ele>
        <time>2024-04-09T17:43:53Z</time>
      </trkpt>
      <trkpt lat="43.6599" lon="1.39239">
        <ele>123</ele>
        <time>2024-04-09T17:43:54Z</time>
      </trkpt>
      <trkpt lat="43.65992" lon="1.39237">
        <ele>123</ele>
        <time>2024-04-09T17:43:55Z</time>
      </trkpt>
      <trkpt lat="43.65994" lon="1.39235">
        <ele>123</ele>
        <time>2024-04-09T17:43:56Z</time>
      </trkpt>
      <trkpt lat="43.65994" lon="1.39235">
        <ele>123</ele>
        <time>2024-04-09T17:43:57Z</time>
      </trkpt>
      <trkpt lat="43.65997" lon="1.39233">
        <ele>123</ele>
        <time>2024-04-09T17:43:58Z</time>
      </trkpt>
      <trkpt lat="43.65997" lon="1.39233">
        <ele>123</ele>
        <time>2024-04-09T17:43:59Z</time>
      </trkpt>
      <trkpt lat="43.65999" lon="1.39232">
        <ele>123</ele>
        <time>2024-04-09T17:44:00Z</time>
      </trkpt>
      <trkpt lat="43.65999" lon="1.39232">
        <ele>123</ele>
        <time>2024-04-09T17:44:01Z</time>
      </trkpt>
      <trkpt lat="43.66003" lon="1.3923">
        <ele>123</ele>
        <time>2024-04-09T17:44:02Z</time>
      </trkpt>
      <trkpt lat="43.66005" lon="1.3923">
        <ele>123</ele>
        <time>2024-04-09T17:44:03Z</time>
      </trkpt>
      <trkpt lat="43.66008" lon="1.39228">
        <ele>123</ele>
        <time>2024-04-09T17:44:04Z</time>
      </trkpt>
      <trkpt lat="43.6601" lon="1.39226">
        <ele>123</ele>
        <time>2024-04-09T17:44:05Z</time>
      </trkpt>
      <trkpt lat="43.66013" lon="1.39224">
        <ele>123</ele>
        <time>2024-04-09T17:44:06Z</time>
      </trkpt>
      <trkpt lat="43.66015" lon="1.39222">
        <ele>123</ele>
        <time>2024-04-09T17:44:07Z</time>
      </trkpt>
      <trkpt lat="43.66018" lon="1.39221">
        <ele>123</ele>
        <time>2024-04-09T17:44:08Z</time>
      </trkpt>
      <trkpt lat="43.66021" lon="1.39219">
        <ele>123</ele>
        <time>2024-04-09T17:44:09Z</time>
      </trkpt>
      <trkpt lat="43.66024" lon="1.39217">
        <ele>123</ele>
        <time>2024-04-09T17:44:10Z</time>
      </trkpt>
      <trkpt lat="43.66027" lon="1.39216">
        <ele>123</ele>
        <time>2024-04-09T17:44:11Z</time>
      </trkpt>
      <trkpt lat="43.6603" lon="1.39216">
        <ele>123</ele>
        <time>2024-04-09T17:44:12Z</time>
      </trkpt>
      <trkpt lat="43.66033" lon="1.39215">
        <ele>123</ele>
        <time>2024-04-09T17:44:13Z</time>
      </trkpt>
      <trkpt lat="43.66035" lon="1.39215">
        <ele>123</ele>
        <time>2024-04-09T17:44:14Z</time>
      </trkpt>
      <trkpt lat="43.66038" lon="1.39215">
        <ele>123</ele>
        <time>2024-04-09T17:44:15Z</time>
      </trkpt>
      <trkpt lat="43.6604" lon="1.39215">
        <ele>123</ele>
        <time>2024-04-09T17:44:16Z</time>
      </trkpt>
      <trkpt lat="43.66041" lon="1.39213">
        <ele>123</ele>
        <time>2024-04-09T17:44:17Z</time>
      </trkpt>
      <trkpt lat="43.66043" lon="1.39213">
        <ele>123</ele>
        <time>2024-04-09T17:44:18Z</time>
      </trkpt>
      <trkpt lat="43.66043" lon="1.39213">
        <ele>123</ele>
        <time>2024-04-09T17:44:19Z</time>
      </trkpt>
      <trkpt lat="43.66049" lon="1.39211">
        <ele>123</ele>
        <time>2024-04-09T17:44:20Z</time>
      </trkpt>
      <trkpt lat="43.6605" lon="1.39211">
        <ele>123</ele>
        <time>2024-04-09T17:44:21Z</time>
      </trkpt>
      <trkpt lat="43.66053" lon="1.3921">
        <ele>123</ele>
        <time>2024-04-09T17:44:22Z</time>
      </trkpt>
      <trkpt lat="43.66056" lon="1.3921">
        <ele>123</ele>
        <time>2024-04-09T17:44:23Z</time>
      </trkpt>
      <trkpt lat="43.66058" lon="1.3921">
        <ele>123</ele>
        <time>2024-04-09T17:44:24Z</time>
      </trkpt>
      <trkpt lat="43.66061" lon="1.3921">
        <ele>123</ele>
        <time>2024-04-09T17:44:25Z</time>
      </trkpt>
      <trkpt lat="43.66063" lon="1.3921">
        <ele>123</ele>
        <time>2024-04-09T17:44:26Z</time>
      </trkpt>
      <trkpt lat="43.66065" lon="1.3921">
        <ele>123</ele>
        <time>2024-04-09T17:44:27Z</time>
      </trkpt>
      <trkpt lat="43.66067" lon="1.3921">
        <ele>123</ele>
        <time>2024-04-09T17:44:28Z</time>
      </trkpt>
      <trkpt lat="43.66069" lon="1.3921">
        <ele>123</ele>
        <time>2024-04-09T17:44:29Z</time>
      </trkpt>
      <trkpt lat="43.66069" lon="1.3921">
        <ele>123</ele>
        <time>2024-04-09T17:44:30Z</time>
      </trkpt>
      <trkpt lat="43.66072" lon="1.39208">
        <ele>123</ele>
        <time>2024-04-09T17:44:31Z</time>
      </trkpt>
      <trkpt lat="43.66074" lon="1.39206">
        <ele>123</ele>
        <time>2024-04-09T17:44:32Z</time>
      </trkpt>
      <trkpt lat="43.66076" lon="1.39205">
        <ele>123</ele>
        <time>2024-04-09T17:44:33Z</time>
      </trkpt>
      <trkpt lat="43.66078" lon="1.39204">
        <ele>123</ele>
        <time>2024-04-09T17:44:34Z</time>
      </trkpt>
      <trkpt lat="43.6608" lon="1.39203">
        <ele>123</ele>
        <time>2024-04-09T17:44:35Z</time>
      </trkpt>
      <trkpt lat="43.66082" lon="1.39202">
        <ele>123</ele>
        <time>2024-04-09T17:44:36Z</time>
      </trkpt>
      <trkpt lat="43.66084" lon="1.39202">
        <ele>123</ele>
        <time>2024-04-09T17:44:37Z</time>
      </trkpt>
      <trkpt lat="43.66086" lon="1.392">
        <ele>123</ele>
        <time>2024-04-09T17:44:38Z</time>
      </trkpt>
      <trkpt lat="43.66088" lon="1.39199">
        <ele>123</ele>
        <time>2024-04-09T17:44:39Z</time>
      </trkpt>
      <trkpt lat="43.6609" lon="1.39197">
        <ele>123</ele>
        <time>2024-04-09T17:44:40Z</time>
      </trkpt>
      <trkpt lat="43.6609" lon="1.39197">
        <ele>123</ele>
        <time>2024-04-09T17:44:41Z</time>
      </trkpt>
      <trkpt lat="43.66093" lon="1.39196">
        <ele>124</ele>
        <time>2024-04-09T17:44:42Z</time>
      </trkpt>
      <trkpt lat="43.66095" lon="1.39196">
        <ele>124</ele>
        <time>2024-04-09T17:44:43Z</time>
      </trkpt>
      <trkpt lat="43.66097" lon="1.39195">
        <ele>124</ele>
        <time>2024-04-09T17:44:44Z</time>
      </trkpt>
      <trkpt lat="43.66097" lon="1.39195">
        <ele>124</ele>
        <time>2024-04-09T17:44:45Z</time>
      </trkpt>
      <trkpt lat="43.66101" lon="1.39196">
        <ele>124</ele>
        <time>2024-04-09T17:44:46Z</time>
      </trkpt>
      <trkpt lat="43.66103" lon="1.39196">
        <ele>124</ele>
        <time>2024-04-09T17:44:47Z</time>
      </trkpt>
      <trkpt lat="43.66106" lon="1.39195">
        <ele>124</ele>
        <time>2024-04-09T17:44:48Z</time>
      </trkpt>
      <trkpt lat="43.66106" lon="1.39195">
        <ele>124</ele>
        <time>2024-04-09T17:44:49Z</time>
      </trkpt>
      <trkpt lat="43.66112" lon="1.39194">
        <ele>123</ele>
        <time>2024-04-09T17:44:50Z</time>
      </trkpt>
      <trkpt lat="43.66113" lon="1.39193">
        <ele>123</ele>
        <time>2024-04-09T17:44:51Z</time>
      </trkpt>
      <trkpt lat="43.66116" lon="1.39192">
        <ele>123</ele>
        <time>2024-04-09T17:44:52Z</time>
      </trkpt>
      <trkpt lat="43.66119" lon="1.39191">
        <ele>123</ele>
        <time>2024-04-09T17:44:53Z</time>
      </trkpt>
      <trkpt lat="43.66121" lon="1.3919">
        <ele>124</ele>
        <time>2024-04-09T17:44:54Z</time>
      </trkpt>
      <trkpt lat="43.66124" lon="1.39189">
        <ele>124</ele>
        <time>2024-04-09T17:44:55Z</time>
      </trkpt>
      <trkpt lat="43.66126" lon="1.39189">
        <ele>124</ele>
        <time>2024-04-09T17:44:56Z</time>
      </trkpt>
      <trkpt lat="43.66128" lon="1.39188">
        <ele>124</ele>
        <time>2024-04-09T17:44:57Z</time>
      </trkpt>
      <trkpt lat="43.66131" lon="1.39186">
        <ele>125</ele>
        <time>2024-04-09T17:44:58Z</time>
      </trkpt>
      <trkpt lat="43.66133" lon="1.39185">
        <ele>125</ele>
        <time>2024-04-09T17:44:59Z</time>
      </trkpt>
      <trkpt lat="43.66133" lon="1.39185">
        <ele>125</ele>
        <time>2024-04-09T17:45:00Z</time>
      </trkpt>
      <trkpt lat="43.66135" lon="1.39184">
        <ele>125</ele>
        <time>2024-04-09T17:45:01Z</time>
      </trkpt>
      <trkpt lat="43.66138" lon="1.39182">
        <ele>125</ele>
        <time>2024-04-09T17:45:02Z</time>
      </trkpt>
      <trkpt lat="43.66141" lon="1.39181">
        <ele>125</ele>
        <time>2024-04-09T17:45:03Z</time>
      </trkpt>
      <trkpt lat="43.66143" lon="1.39179">
        <ele>125</ele>
        <time>2024-04-09T17:45:04Z</time>
      </trkpt>
      <trkpt lat="43.66146" lon="1.39178">
        <ele>125</ele>
        <time>2024-04-09T17:45:05Z</time>
      </trkpt>
      <trkpt lat="43.66148" lon="1.39177">
        <ele>125</ele>
        <time>2024-04-09T17:45:06Z</time>
      </trkpt>
      <trkpt lat="43.66148" lon="1.39177">
        <ele>124</ele>
        <time>2024-04-09T17:45:07Z</time>
      </trkpt>
      <trkpt lat="43.66153" lon="1.39174">
        <ele>124</ele>
        <time>2024-04-09T17:45:08Z</time>
      </trkpt>
      <trkpt lat="43.66154" lon="1.39173">
        <ele>124</ele>
        <time>2024-04-09T17:45:09Z</time>
      </trkpt>
      <trkpt lat="43.66154" lon="1.39173">
        <ele>124</ele>
        <time>2024-04-09T17:45:10Z</time>
      </trkpt>
      <trkpt lat="43.66157" lon="1.39172">
        <ele>124</ele>
        <time>2024-04-09T17:45:11Z</time>
      </trkpt>
      <trkpt lat="43.66159" lon="1.3917">
        <ele>124</ele>
        <time>2024-04-09T17:45:12Z</time>
      </trkpt>
      <trkpt lat="43.66159" lon="1.3917">
        <ele>124</ele>
        <time>2024-04-09T17:45:13Z</time>
      </trkpt>
      <trkpt lat="43.66161" lon="1.39168">
        <ele>124</ele>
        <time>2024-04-09T17:45:14Z</time>
      </trkpt>
      <trkpt lat="43.66164" lon="1.39165">
        <ele>124</ele>
        <time>2024-04-09T17:45:15Z</time>
      </trkpt>
      <trkpt lat="43.66166" lon="1.39162">
        <ele>124</ele>
        <time>2024-04-09T17:45:16Z</time>
      </trkpt>
      <trkpt lat="43.66169" lon="1.3916">
        <ele>124</ele>
        <time>2024-04-09T17:45:17Z</time>
      </trkpt>
      <trkpt lat="43.6617" lon="1.39158">
        <ele>124</ele>
        <time>2024-04-09T17:45:18Z</time>
      </trkpt>
      <trkpt lat="43.66172" lon="1.39156">
        <ele>124</ele>
        <time>2024-04-09T17:45:19Z</time>
      </trkpt>
      <trkpt lat="43.66173" lon="1.39154">
        <ele>124</ele>
        <time>2024-04-09T17:45:20Z</time>
      </trkpt>
      <trkpt lat="43.66175" lon="1.39152">
        <ele>124</ele>
        <time>2024-04-09T17:45:21Z</time>
      </trkpt>
      <trkpt lat="43.66175" lon="1.39152">
        <ele>124</ele>
        <time>2024-04-09T17:45:22Z</time>
      </trkpt>
      <trkpt lat="43.66177" lon="1.3915">
        <ele>124</ele>
        <time>2024-04-09T17:45:23Z</time>
      </trkpt>
      <trkpt lat="43.66179" lon="1.39148">
        <ele>124</ele>
        <time>2024-04-09T17:45:24Z</time>
      </trkpt>
      <trkpt lat="43.66181" lon="1.39145">
        <ele>124</ele>
        <time>2024-04-09T17:45:25Z</time>
      </trkpt>
      <trkpt lat="43.66183" lon="1.39143">
        <ele>124</ele>
        <time>2024-04-09T17:45:26Z</time>
      </trkpt>
      <trkpt lat="43.66185" lon="1.39142">
        <ele>124</ele>
        <time>2024-04-09T17:45:27Z</time>
      </trkpt>
      <trkpt lat="43.66188" lon="1.3914">
        <ele>124</ele>
        <time>2024-04-09T17:45:28Z</time>
      </trkpt>
      <trkpt lat="43.6619" lon="1.39139">
        <ele>124</ele>
        <time>2024-04-09T17:45:29Z</time>
      </trkpt>
      <trkpt lat="43.66192" lon="1.39137">
        <ele>124</ele>
        <time>2024-04-09T17:45:30Z</time>
      </trkpt>
      <trkpt lat="43.66195" lon="1.39136">
        <ele>124</ele>
        <time>2024-04-09T17:45:31Z</time>
      </trkpt>
      <trkpt lat="43.66199" lon="1.39134">
        <ele>124</ele>
        <time>2024-04-09T17:45:32Z</time>
      </trkpt>
      <trkpt lat="43.66202" lon="1.39133">
        <ele>124</ele>
        <time>2024-04-09T17:45:33Z</time>
      </trkpt>
      <trkpt lat="43.66206" lon="1.39132">
        <ele>124</ele>
        <time>2024-04-09T17:45:34Z</time>
      </trkpt>
      <trkpt lat="43.66209" lon="1.39132">
        <ele>124</ele>
        <time>2024-04-09T17:45:35Z</time>
      </trkpt>
      <trkpt lat="43.6621" lon="1.39133">
        <ele>124</ele>
        <time>2024-04-09T17:45:36Z</time>
      </trkpt>
      <trkpt lat="43.66213" lon="1.39135">
        <ele>124</ele>
        <time>2024-04-09T17:45:37Z</time>
      </trkpt>
      <trkpt lat="43.66215" lon="1.39137">
        <ele>124</ele>
        <time>2024-04-09T17:45:38Z</time>
      </trkpt>
      <trkpt lat="43.66217" lon="1.39139">
        <ele>124</ele>
        <time>2024-04-09T17:45:39Z</time>
      </trkpt>
      <trkpt lat="43.66219" lon="1.39141">
        <ele>124</ele>
        <time>2024-04-09T17:45:40Z</time>
      </trkpt>
      <trkpt lat="43.66221" lon="1.39143">
        <ele>124</ele>
        <time>2024-04-09T17:45:41Z</time>
      </trkpt>
      <trkpt lat="43.66223" lon="1.39146">
        <ele>124</ele>
        <time>2024-04-09T17:45:42Z</time>
      </trkpt>
      <trkpt lat="43.66225" lon="1.39149">
        <ele>124</ele>
        <time>2024-04-09T17:45:43Z</time>
      </trkpt>
      <trkpt lat="43.66227" lon="1.39152">
        <ele>124</ele>
        <time>2024-04-09T17:45:44Z</time>
      </trkpt>
      <trkpt lat="43.66229" lon="1.39155">
        <ele>124</ele>
        <time>2024-04-09T17:45:45Z</time>
      </trkpt>
      <trkpt lat="43.66231" lon="1.39157">
        <ele>124</ele>
        <time>2024-04-09T17:45:46Z</time>
      </trkpt>
      <trkpt lat="43.66233" lon="1.39159">
        <ele>124</ele>
        <time>2024-04-09T17:45:47Z</time>
      </trkpt>
      <trkpt lat="43.66236" lon="1.39161">
        <ele>124</ele>
        <time>2024-04-09T17:45:48Z</time>
      </trkpt>
      <trkpt lat="43.66237" lon="1.39162">
        <ele>124</ele>
        <time>2024-04-09T17:45:49Z</time>
      </trkpt>
      <trkpt lat="43.66239" lon="1.39163">
        <ele>124</ele>
        <time>2024-04-09T17:45:50Z</time>
      </trkpt>
      <trkpt lat="43.66241" lon="1.39165">
        <ele>124</ele>
        <time>2024-04-09T17:45:51Z</time>
      </trkpt>
      <trkpt lat="43.66241" lon="1.39165">
        <ele>124</ele>
        <time>2024-04-09T17:45:52Z</time>
      </trkpt>
      <trkpt lat="43.66243" lon="1.39168">
        <ele>124</ele>
        <time>2024-04-09T17:45:53Z</time>
      </trkpt>
      <trkpt lat="43.66243" lon="1.39168">
        <ele>124</ele>
        <time>2024-04-09T17:45:54Z</time>
      </trkpt>
      <trkpt lat="43.66246" lon="1.39165">
        <ele>124</ele>
        <time>2024-04-09T17:45:55Z</time>
      </trkpt>
      <trkpt lat="43.66248" lon="1.39164">
        <ele>124</ele>
        <time>2024-04-09T17:45:56Z</time>
      </trkpt>
      <trkpt lat="43.6625" lon="1.39162">
        <ele>124</ele>
        <time>2024-04-09T17:45:57Z</time>
      </trkpt>
      <trkpt lat="43.66252" lon="1.3916">
        <ele>124</ele>
        <time>2024-04-09T17:45:58Z</time>
      </trkpt>
      <trkpt lat="43.66254" lon="1.39159">
        <ele>124</ele>
        <time>2024-04-09T17:45:59Z</time>
      </trkpt>
      <trkpt lat="43.66254" lon="1.39159">
        <ele>124</ele>
        <time>2024-04-09T17:46:00Z</time>
      </trkpt>
      <trkpt lat="43.66258" lon="1.39158">
        <ele>124</ele>
        <time>2024-04-09T17:46:01Z</time>
      </trkpt>
      <trkpt lat="43.6626" lon="1.39158">
        <ele>124</ele>
        <time>2024-04-09T17:46:02Z</time>
      </trkpt>
      <trkpt lat="43.66262" lon="1.39159">
        <ele>124</ele>
        <time>2024-04-09T17:46:03Z</time>
      </trkpt>
      <trkpt lat="43.66265" lon="1.3916">
        <ele>124</ele>
        <time>2024-04-09T17:46:04Z</time>
      </trkpt>
      <trkpt lat="43.66267" lon="1.39162">
        <ele>124</ele>
        <time>2024-04-09T17:46:05Z</time>
      </trkpt>
      <trkpt lat="43.66268" lon="1.39164">
        <ele>124</ele>
        <time>2024-04-09T17:46:06Z</time>
      </trkpt>
      <trkpt lat="43.66268" lon="1.39164">
        <ele>124</ele>
        <time>2024-04-09T17:46:07Z</time>
      </trkpt>
      <trkpt lat="43.66271" lon="1.39167">
        <ele>124</ele>
        <time>2024-04-09T17:46:08Z</time>
      </trkpt>
      <trkpt lat="43.66272" lon="1.39169">
        <ele>124</ele>
        <time>2024-04-09T17:46:09Z</time>
      </trkpt>
      <trkpt lat="43.66273" lon="1.39171">
        <ele>124</ele>
        <time>2024-04-09T17:46:10Z</time>
      </trkpt>
      <trkpt lat="43.66273" lon="1.39171">
        <ele>124</ele>
        <time>2024-04-09T17:46:11Z</time>
      </trkpt>
      <trkpt lat="43.66275" lon="1.39176">
        <ele>124</ele>
        <time>2024-04-09T17:46:12Z</time>
      </trkpt>
      <trkpt lat="43.66276" lon="1.39179">
        <ele>124</ele>
        <time>2024-04-09T17:46:13Z</time>
      </trkpt>
      <trkpt lat="43.66277" lon="1.39182">
        <ele>124</ele>
        <time>2024-04-09T17:46:14Z</time>
      </trkpt>
      <trkpt lat="43.66278" lon="1.39184">
        <ele>124</ele>
        <time>2024-04-09T17:46:15Z</time>
      </trkpt>
      <trkpt lat="43.66279" lon="1.39187">
        <ele>124</ele>
        <time>2024-04-09T17:46:16Z</time>
      </trkpt>
      <trkpt lat="43.6628" lon="1.39191">
        <ele>123</ele>
        <time>2024-04-09T17:46:17Z</time>
      </trkpt>
      <trkpt lat="43.66281" lon="1.39195">
        <ele>123</ele>
        <time>2024-04-09T17:46:18Z</time>
      </trkpt>
      <trkpt lat="43.66282" lon="1.39198">
        <ele>123</ele>
        <time>2024-04-09T17:46:19Z</time>
      </trkpt>
      <trkpt lat="43.66283" lon="1.39201">
        <ele>123</ele>
        <time>2024-04-09T17:46:20Z</time>
      </trkpt>
      <trkpt lat="43.66284" lon="1.39203">
        <ele>123</ele>
        <time>2024-04-09T17:46:21Z</time>
      </trkpt>
      <trkpt lat="43.66284" lon="1.39206">
        <ele>123</ele>
        <time>2024-04-09T17:46:22Z</time>
      </trkpt>
      <trkpt lat="43.66285" lon="1.39209">
        <ele>123</ele>
        <time>2024-04-09T17:46:23Z</time>
      </trkpt>
      <trkpt lat="43.66286" lon="1.39212">
        <ele>123</ele>
        <time>2024-04-09T17:46:24Z</time>
      </trkpt>
      <trkpt lat="43.66286" lon="1.39212">
        <ele>123</ele>
        <time>2024-04-09T17:46:25Z</time>
      </trkpt>
      <trkpt lat="43.66287" lon="1.39216">
        <ele>123</ele>
        <time>2024-04-09T17:46:26Z</time>
      </trkpt>
      <trkpt lat="43.66289" lon="1.3922">
        <ele>123</ele>
        <time>2024-04-09T17:46:27Z</time>
      </trkpt>
      <trkpt lat="43.6629" lon="1.39224">
        <ele>123</ele>
        <time>2024-04-09T17:46:28Z</time>
      </trkpt>
      <trkpt lat="43.66291" lon="1.39228">
        <ele>123</ele>
        <time>2024-04-09T17:46:29Z</time>
      </trkpt>
      <trkpt lat="43.66291" lon="1.3923">
        <ele>123</ele>
        <time>2024-04-09T17:46:30Z</time>
      </trkpt>
      <trkpt lat="43.66293" lon="1.39236">
        <ele>123</ele>
        <time>2024-04-09T17:46:31Z</time>
      </trkpt>
      <trkpt lat="43.66295" lon="1.39242">
        <ele>124</ele>
        <time>2024-04-09T17:46:32Z</time>
      </trkpt>
      <trkpt lat="43.66297" lon="1.39247">
        <ele>124</ele>
        <time>2024-04-09T17:46:33Z</time>
      </trkpt>
      <trkpt lat="43.66298" lon="1.39251">
        <ele>124</ele>
        <time>2024-04-09T17:46:34Z</time>
      </trkpt>
      <trkpt lat="43.663" lon="1.39255">
        <ele>124</ele>
        <time>2024-04-09T17:46:35Z</time>
      </trkpt>
      <trkpt lat="43.66301" lon="1.39259">
        <ele>124</ele>
        <time>2024-04-09T17:46:36Z</time>
      </trkpt>
      <trkpt lat="43.66302" lon="1.39262">
        <ele>124</ele>
        <time>2024-04-09T17:46:37Z</time>
      </trkpt>
      <trkpt lat="43.66303" lon="1.39265">
        <ele>124</ele>
        <time>2024-04-09T17:46:38Z</time>
      </trkpt>
      <trkpt lat="43.66305" lon="1.39267">
        <ele>124</ele>
        <time>2024-04-09T17:46:39Z</time>
      </trkpt>
      <trkpt lat="43.66307" lon="1.39269">
        <ele>124</ele>
        <time>2024-04-09T17:46:40Z</time>
      </trkpt>
      <trkpt lat="43.66309" lon="1.39271">
        <ele>124</ele>
        <time>2024-04-09T17:46:41Z</time>
      </trkpt>
      <trkpt lat="43.6631" lon="1.39273">
        <ele>124</ele>
        <time>2024-04-09T17:46:42Z</time>
      </trkpt>
      <trkpt lat="43.66312" lon="1.39275">
        <ele>124</ele>
        <time>2024-04-09T17:46:43Z</time>
      </trkpt>
      <trkpt lat="43.66314" lon="1.39277">
        <ele>124</ele>
        <time>2024-04-09T17:46:44Z</time>
      </trkpt>
      <trkpt lat="43.66316" lon="1.39278">
        <ele>124</ele>
        <time>2024-04-09T17:46:45Z</time>
      </trkpt>
      <trkpt lat="43.66318" lon="1.39279">
        <ele>124</ele>
        <time>2024-04-09T17:46:46Z</time>
      </trkpt>
      <trkpt lat="43.66318" lon="1.39279">
        <ele>124</ele>
        <time>2024-04-09T17:46:47Z</time>
      </trkpt>
      <trkpt lat="43.66322" lon="1.3928">
        <ele>124</ele>
        <time>2024-04-09T17:46:48Z</time>
      </trkpt>
      <trkpt lat="43.66322" lon="1.3928">
        <ele>124</ele>
        <time>2024-04-09T17:46:49Z</time>
      </trkpt>
      <trkpt lat="43.66325" lon="1.3928">
        <ele>124</ele>
        <time>2024-04-09T17:46:50Z</time>
      </trkpt>
      <trkpt lat="43.66327" lon="1.3928">
        <ele>124</ele>
        <time>2024-04-09T17:46:51Z</time>
      </trkpt>
      <trkpt lat="43.66329" lon="1.39279">
        <ele>124</ele>
        <time>2024-04-09T17:46:52Z</time>
      </trkpt>
      <trkpt lat="43.66329" lon="1.39279">
        <ele>123</ele>
        <time>2024-04-09T17:46:53Z</time>
      </trkpt>
      <trkpt lat="43.66333" lon="1.39278">
        <ele>123</ele>
        <time>2024-04-09T17:46:54Z</time>
      </trkpt>
      <trkpt lat="43.66335" lon="1.39277">
        <ele>123</ele>
        <time>2024-04-09T17:46:55Z</time>
      </trkpt>
      <trkpt lat="43.66335" lon="1.39277">
        <ele>123</ele>
        <time>2024-04-09T17:46:56Z</time>
      </trkpt>
      <trkpt lat="43.66337" lon="1.39276">
        <ele>123</ele>
        <time>2024-04-09T17:46:57Z</time>
      </trkpt>
      <trkpt lat="43.66339" lon="1.39273">
        <ele>123</ele>
        <time>2024-04-09T17:46:58Z</time>
      </trkpt>
      <trkpt lat="43.66341" lon="1.39272">
        <ele>124</ele>
        <time>2024-04-09T17:46:59Z</time>
      </trkpt>
      <trkpt lat="43.66343" lon="1.39272">
        <ele>124</ele>
        <time>2024-04-09T17:47:00Z</time>
      </trkpt>
      <trkpt lat="43.66345" lon="1.39271">
        <ele>124</ele>
        <time>2024-04-09T17:47:01Z</time>
      </trkpt>
      <trkpt lat="43.66348" lon="1.3927">
        <ele>124</ele>
        <time>2024-04-09T17:47:02Z</time>
      </trkpt>
      <trkpt lat="43.6635" lon="1.39268">
        <ele>124</ele>
        <time>2024-04-09T17:47:03Z</time>
      </trkpt>
      <trkpt lat="43.66352" lon="1.39267">
        <ele>124</ele>
        <time>2024-04-09T17:47:04Z</time>
      </trkpt>
      <trkpt lat="43.66355" lon="1.39268">
        <ele>124</ele>
        <time>2024-04-09T17:47:05Z</time>
      </trkpt>
      <trkpt lat="43.66358" lon="1.39269">
        <ele>124</ele>
        <time>2024-04-09T17:47:06Z</time>
      </trkpt>
      <trkpt lat="43.66361" lon="1.3927">
        <ele>124</ele>
        <time>2024-04-09T17:47:07Z</time>
      </trkpt>
      <trkpt lat="43.66364" lon="1.39271">
        <ele>124</ele>
        <time>2024-04-09T17:47:08Z</time>
      </trkpt>
      <trkpt lat="43.66367" lon="1.39272">
        <ele>124</ele>
        <time>2024-04-09T17:47:09Z</time>
      </trkpt>
      <trkpt lat="43.66369" lon="1.39274">
        <ele>124</ele>
        <time>2024-04-09T17:47:10Z</time>
      </trkpt>
      <trkpt lat="43.66371" lon="1.39276">
        <ele>123</ele>
        <time>2024-04-09T17:47:11Z</time>
      </trkpt>
      <trkpt lat="43.66374" lon="1.39278">
        <ele>123</ele>
        <time>2024-04-09T17:47:12Z</time>
      </trkpt>
      <trkpt lat="43.66376" lon="1.3928">
        <ele>123</ele>
        <time>2024-04-09T17:47:13Z</time>
      </trkpt>
      <trkpt lat="43.66378" lon="1.39282">
        <ele>123</ele>
        <time>2024-04-09T17:47:14Z</time>
      </trkpt>
      <trkpt lat="43.6638" lon="1.39284">
        <ele>123</ele>
        <time>2024-04-09T17:47:15Z</time>
      </trkpt>
      <trkpt lat="43.66382" lon="1.39286">
        <ele>124</ele>
        <time>2024-04-09T17:47:16Z</time>
      </trkpt>
      <trkpt lat="43.66384" lon="1.39288">
        <ele>124</ele>
        <time>2024-04-09T17:47:17Z</time>
      </trkpt>
      <trkpt lat="43.66387" lon="1.3929">
        <ele>124</ele>
        <time>2024-04-09T17:47:18Z</time>
      </trkpt>
      <trkpt lat="43.66389" lon="1.39292">
        <ele>124</ele>
        <time>2024-04-09T17:47:19Z</time>
      </trkpt>
      <trkpt lat="43.66391" lon="1.39294">
        <ele>124</ele>
        <time>2024-04-09T17:47:20Z</time>
      </trkpt>
      <trkpt lat="43.66393" lon="1.39296">
        <ele>124</ele>
        <time>2024-04-09T17:47:21Z</time>
      </trkpt>
      <trkpt lat="43.66394" lon="1.39297">
        <ele>124</ele>
        <time>2024-04-09T17:47:22Z</time>
      </trkpt>
      <trkpt lat="43.66396" lon="1.39299">
        <ele>124</ele>
        <time>2024-04-09T17:47:23Z</time>
      </trkpt>
      <trkpt lat="43.66399" lon="1.39301">
        <ele>124</ele>
        <time>2024-04-09T17:47:24Z</time>
      </trkpt>
      <trkpt lat="43.66401" lon="1.39302">
        <ele>124</ele>
        <time>2024-04-09T17:47:25Z</time>
      </trkpt>
      <trkpt lat="43.66403" lon="1.39304">
        <ele>124</ele>
        <time>2024-04-09T17:47:26Z</time>
      </trkpt>
      <trkpt lat="43.66405" lon="1.39306">
        <ele>124</ele>
        <time>2024-04-09T17:47:27Z</time>
      </trkpt>
      <trkpt lat="43.66407" lon="1.39307">
        <ele>124</ele>
        <time>2024-04-09T17:47:28Z</time>
      </trkpt>
      <trkpt lat="43.66409" lon="1.39309">
        <ele>124</ele>
        <time>2024-04-09T17:47:29Z</time>
      </trkpt>
      <trkpt lat="43.66411" lon="1.3931">
        <ele>124</ele>
        <time>2024-04-09T17:47:30Z</time>
      </trkpt>
      <trkpt lat="43.66413" lon="1.39312">
        <ele>124</ele>
        <time>2024-04-09T17:47:31Z</time>
      </trkpt>
      <trkpt lat="43.66415" lon="1.39312">
        <ele>124</ele>
        <time>2024-04-09T17:47:32Z</time>
      </trkpt>
      <trkpt lat="43.66418" lon="1.39313">
        <ele>124</ele>
        <time>2024-04-09T17:47:33Z</time>
      </trkpt>
      <trkpt lat="43.6642" lon="1.39314">
        <ele>124</ele>
        <time>2024-04-09T17:47:34Z</time>
      </trkpt>
      <trkpt lat="43.66422" lon="1.39315">
        <ele>124</ele>
        <time>2024-04-09T17:47:35Z</time>
      </trkpt>
      <trkpt lat="43.66425" lon="1.39316">
        <ele>124</ele>
        <time>2024-04-09T17:47:36Z</time>
      </trkpt>
      <trkpt lat="43.66427" lon="1.39316">
        <ele>124</ele>
        <time>2024-04-09T17:47:37Z</time>
      </trkpt>
      <trkpt lat="43.6643" lon="1.39317">
        <ele>124</ele>
        <time>2024-04-09T17:47:38Z</time>
      </trkpt>
      <trkpt lat="43.66432" lon="1.39317">
        <ele>124</ele>
        <time>2024-04-09T17:47:39Z</time>
      </trkpt>
      <trkpt lat="43.66435" lon="1.39317">
        <ele>124</ele>
        <time>2024-04-09T17:47:40Z</time>
      </trkpt>
      <trkpt lat="43.66437" lon="1.39317">
        <ele>124</ele>
        <time>2024-04-09T17:47:41Z</time>
      </trkpt>
      <trkpt lat="43.6644" lon="1.39317">
        <ele>124</ele>
        <time>2024-04-09T17:47:42Z</time>
      </trkpt>
      <trkpt lat="43.66442" lon="1.39317">
        <ele>124</ele>
        <time>2024-04-09T17:47:43Z</time>
      </trkpt>
      <trkpt lat="43.66445" lon="1.39317">
        <ele>124</ele>
        <time>2024-04-09T17:47:44Z</time>
      </trkpt>
      <trkpt lat="43.66447" lon="1.39318">
        <ele>124</ele>
        <time>2024-04-09T17:47:45Z</time>
      </trkpt>
      <trkpt lat="43.6645" lon="1.39317">
        <ele>124</ele>
        <time>2024-04-09T17:47:46Z</time>
      </trkpt>
      <trkpt lat="43.66453" lon="1.39317">
        <ele>124</ele>
        <time>2024-04-09T17:47:47Z</time>
      </trkpt>
      <trkpt lat="43.66455" lon="1.39317">
        <ele>124</ele>
        <time>2024-04-09T17:47:48Z</time>
      </trkpt>
      <trkpt lat="43.66458" lon="1.39317">
        <ele>124</ele>
        <time>2024-04-09T17:47:49Z</time>
      </trkpt>
      <trkpt lat="43.6646" lon="1.39317">
        <ele>124</ele>
        <time>2024-04-09T17:47:50Z</time>
      </trkpt>
      <trkpt lat="43.66462" lon="1.39316">
        <ele>124</ele>
        <time>2024-04-09T17:47:51Z</time>
      </trkpt>
      <trkpt lat="43.66464" lon="1.39316">
        <ele>124</ele>
        <time>2024-04-09T17:47:52Z</time>
      </trkpt>
      <trkpt lat="43.66466" lon="1.39315">
        <ele>124</ele>
        <time>2024-04-09T17:47:53Z</time>
      </trkpt>
      <trkpt lat="43.66469" lon="1.39315">
        <ele>124</ele>
        <time>2024-04-09T17:47:54Z</time>
      </trkpt>
      <trkpt lat="43.66471" lon="1.39314">
        <ele>124</ele>
        <time>2024-04-09T17:47:55Z</time>
      </trkpt>
      <trkpt lat="43.66473" lon="1.39313">
        <ele>124</ele>
        <time>2024-04-09T17:47:56Z</time>
      </trkpt>
      <trkpt lat="43.66475" lon="1.39311">
        <ele>124</ele>
        <time>2024-04-09T17:47:57Z</time>
      </trkpt>
      <trkpt lat="43.66477" lon="1.3931">
        <ele>124</ele>
        <time>2024-04-09T17:47:58Z</time>
      </trkpt>
      <trkpt lat="43.6648" lon="1.39309">
        <ele>124</ele>
        <time>2024-04-09T17:47:59Z</time>
      </trkpt>
      <trkpt lat="43.66482" lon="1.39307">
        <ele>124</ele>
        <time>2024-04-09T17:48:00Z</time>
      </trkpt>
      <trkpt lat="43.66484" lon="1.39306">
        <ele>124</ele>
        <time>2024-04-09T17:48:01Z</time>
      </trkpt>
      <trkpt lat="43.66486" lon="1.39305">
        <ele>124</ele>
        <time>2024-04-09T17:48:02Z</time>
      </trkpt>
      <trkpt lat="43.66488" lon="1.39303">
        <ele>123</ele>
        <time>2024-04-09T17:48:03Z</time>
      </trkpt>
      <trkpt lat="43.6649" lon="1.39301">
        <ele>123</ele>
        <time>2024-04-09T17:48:04Z</time>
      </trkpt>
      <trkpt lat="43.66492" lon="1.39299">
        <ele>123</ele>
        <time>2024-04-09T17:48:05Z</time>
      </trkpt>
      <trkpt lat="43.66493" lon="1.39297">
        <ele>123</ele>
        <time>2024-04-09T17:48:06Z</time>
      </trkpt>
      <trkpt lat="43.66494" lon="1.39295">
        <ele>123</ele>
        <time>2024-04-09T17:48:07Z</time>
      </trkpt>
      <trkpt lat="43.66496" lon="1.39292">
        <ele>122</ele>
        <time>2024-04-09T17:48:08Z</time>
      </trkpt>
      <trkpt lat="43.66498" lon="1.3929">
        <ele>122</ele>
        <time>2024-04-09T17:48:09Z</time>
      </trkpt>
      <trkpt lat="43.66499" lon="1.39286">
        <ele>122</ele>
        <time>2024-04-09T17:48:10Z</time>
      </trkpt>
      <trkpt lat="43.66501" lon="1.39283">
        <ele>122</ele>
        <time>2024-04-09T17:48:11Z</time>
      </trkpt>
      <trkpt lat="43.66502" lon="1.3928">
        <ele>122</ele>
        <time>2024-04-09T17:48:12Z</time>
      </trkpt>
      <trkpt lat="43.66503" lon="1.39277">
        <ele>122</ele>
        <time>2024-04-09T17:48:13Z</time>
      </trkpt>
      <trkpt lat="43.66504" lon="1.39274">
        <ele>122</ele>
        <time>2024-04-09T17:48:14Z</time>
      </trkpt>
      <trkpt lat="43.66505" lon="1.39272">
        <ele>122</ele>
        <time>2024-04-09T17:48:15Z</time>
      </trkpt>
      <trkpt lat="43.66506" lon="1.39269">
        <ele>122</ele>
        <time>2024-04-09T17:48:16Z</time>
      </trkpt>
      <trkpt lat="43.66507" lon="1.39266">
        <ele>122</ele>
        <time>2024-04-09T17:48:17Z</time>
      </trkpt>
      <trkpt lat="43.66509" lon="1.39263">
        <ele>122</ele>
        <time>2024-04-09T17:48:18Z</time>
      </trkpt>
      <trkpt lat="43.66511" lon="1.39261">
        <ele>122</ele>
        <time>2024-04-09T17:48:19Z</time>
      </trkpt>
      <trkpt lat="43.66514" lon="1.39259">
        <ele>122</ele>
        <time>2024-04-09T17:48:20Z</time>
      </trkpt>
      <trkpt lat="43.66517" lon="1.39258">
        <ele>121</ele>
        <time>2024-04-09T17:48:21Z</time>
      </trkpt>
      <trkpt lat="43.6652" lon="1.39257">
        <ele>121</ele>
        <time>2024-04-09T17:48:22Z</time>
      </trkpt>
      <trkpt lat="43.66522" lon="1.39256">
        <ele>121</ele>
        <time>2024-04-09T17:48:23Z</time>
      </trkpt>
      <trkpt lat="43.66525" lon="1.39255">
        <ele>121</ele>
        <time>2024-04-09T17:48:24Z</time>
      </trkpt>
      <trkpt lat="43.66527" lon="1.39253">
        <ele>121</ele>
        <time>2024-04-09T17:48:25Z</time>
      </trkpt>
      <trkpt lat="43.66529" lon="1.39252">
        <ele>121</ele>
        <time>2024-04-09T17:48:26Z</time>
      </trkpt>
      <trkpt lat="43.66529" lon="1.3926">
        <ele>121</ele>
        <time>2024-04-09T17:52:44Z</time>
      </trkpt>
      <trkpt lat="43.66526" lon="1.39261">
        <ele>122</ele>
        <time>2024-04-09T17:52:45Z</time>
      </trkpt>
      <trkpt lat="43.66524" lon="1.39261">
        <ele>122</ele>
        <time>2024-04-09T17:52:46Z</time>
      </trkpt>
      <trkpt lat="43.66522" lon="1.39262">
        <ele>122</ele>
        <time>2024-04-09T17:52:47Z</time>
      </trkpt>
      <trkpt lat="43.66519" lon="1.39263">
        <ele>122</ele>
        <time>2024-04-09T17:52:48Z</time>
      </trkpt>
      <trkpt lat="43.66517" lon="1.39264">
        <ele>122</ele>
        <time>2024-04-09T17:52:49Z</time>
      </trkpt>
      <trkpt lat="43.66516" lon="1.39266">
        <ele>122</ele>
        <time>2024-04-09T17:52:50Z</time>
      </trkpt>
      <trkpt lat="43.66516" lon="1.39266">
        <ele>122</ele>
        <time>2024-04-09T17:52:51Z</time>
      </trkpt>
      <trkpt lat="43.66514" lon="1.39271">
        <ele>122</ele>
        <time>2024-04-09T17:52:52Z</time>
      </trkpt>
      <trkpt lat="43.66513" lon="1.39274">
        <ele>121</ele>
        <time>2024-04-09T17:52:53Z</time>
      </trkpt>
      <trkpt lat="43.66512" lon="1.39279">
        <ele>121</ele>
        <time>2024-04-09T17:52:54Z</time>
      </trkpt>
      <trkpt lat="43.66511" lon="1.39282">
        <ele>121</ele>
        <time>2024-04-09T17:52:55Z</time>
      </trkpt>
      <trkpt lat="43.6651" lon="1.39286">
        <ele>121</ele>
        <time>2024-04-09T17:52:56Z</time>
      </trkpt>
      <trkpt lat="43.66508" lon="1.39289">
        <ele>121</ele>
        <time>2024-04-09T17:52:57Z</time>
      </trkpt>
      <trkpt lat="43.66507" lon="1.39293">
        <ele>121</ele>
        <time>2024-04-09T17:52:58Z</time>
      </trkpt>
      <trkpt lat="43.66505" lon="1.39297">
        <ele>121</ele>
        <time>2024-04-09T17:52:59Z</time>
      </trkpt>
      <trkpt lat="43.66503" lon="1.39301">
        <ele>121</ele>
        <time>2024-04-09T17:53:00Z</time>
      </trkpt>
      <trkpt lat="43.66502" lon="1.39304">
        <ele>121</ele>
        <time>2024-04-09T17:53:01Z</time>
      </trkpt>
      <trkpt lat="43.665" lon="1.39307">
        <ele>121</ele>
        <time>2024-04-09T17:53:02Z</time>
      </trkpt>
      <trkpt lat="43.66498" lon="1.3931">
        <ele>121</ele>
        <time>2024-04-09T17:53:03Z</time>
      </trkpt>
      <trkpt lat="43.66495" lon="1.39311">
        <ele>121</ele>
        <time>2024-04-09T17:53:04Z</time>
      </trkpt>
      <trkpt lat="43.66492" lon="1.39313">
        <ele>122</ele>
        <time>2024-04-09T17:53:05Z</time>
      </trkpt>
      <trkpt lat="43.6649" lon="1.39315">
        <ele>122</ele>
        <time>2024-04-09T17:53:06Z</time>
      </trkpt>
      <trkpt lat="43.66486" lon="1.39317">
        <ele>122</ele>
        <time>2024-04-09T17:53:07Z</time>
      </trkpt>
      <trkpt lat="43.66483" lon="1.39318">
        <ele>122</ele>
        <time>2024-04-09T17:53:08Z</time>
      </trkpt>
      <trkpt lat="43.66481" lon="1.39319">
        <ele>122</ele>
        <time>2024-04-09T17:53:09Z</time>
      </trkpt>
      <trkpt lat="43.66479" lon="1.3932">
        <ele>122</ele>
        <time>2024-04-09T17:53:10Z</time>
      </trkpt>
      <trkpt lat="43.66477" lon="1.39322">
        <ele>122</ele>
        <time>2024-04-09T17:53:11Z</time>
      </trkpt>
      <trkpt lat="43.66474" lon="1.39323">
        <ele>122</ele>
        <time>2024-04-09T17:53:12Z</time>
      </trkpt>
      <trkpt lat="43.66471" lon="1.39324">
        <ele>122</ele>
        <time>2024-04-09T17:53:13Z</time>
      </trkpt>
      <trkpt lat="43.66469" lon="1.39324">
        <ele>122</ele>
        <time>2024-04-09T17:53:14Z</time>
      </trkpt>
      <trkpt lat="43.66466" lon="1.39324">
        <ele>122</ele>
        <time>2024-04-09T17:53:15Z</time>
      </trkpt>
      <trkpt lat="43.66463" lon="1.39324">
        <ele>122</ele>
        <time>2024-04-09T17:53:16Z</time>
      </trkpt>
      <trkpt lat="43.6646" lon="1.39325">
        <ele>122</ele>
        <time>2024-04-09T17:53:17Z</time>
      </trkpt>
      <trkpt lat="43.66457" lon="1.39325">
        <ele>122</ele>
        <time>2024-04-09T17:53:18Z</time>
      </trkpt>
      <trkpt lat="43.66454" lon="1.39325">
        <ele>122</ele>
        <time>2024-04-09T17:53:19Z</time>
      </trkpt>
      <trkpt lat="43.66451" lon="1.39325">
        <ele>122</ele>
        <time>2024-04-09T17:53:20Z</time>
      </trkpt>
      <trkpt lat="43.66448" lon="1.39325">
        <ele>122</ele>
        <time>2024-04-09T17:53:21Z</time>
      </trkpt>
      <trkpt lat="43.66445" lon="1.39324">
        <ele>122</ele>
        <time>2024-04-09T17:53:22Z</time>
      </trkpt>
      <trkpt lat="43.66442" lon="1.39324">
        <ele>122</ele>
        <time>2024-04-09T17:53:23Z</time>
      </trkpt>
      <trkpt lat="43.66439" lon="1.39324">
        <ele>122</ele>
        <time>2024-04-09T17:53:24Z</time>
      </trkpt>
      <trkpt lat="43.66437" lon="1.39324">
        <ele>122</ele>
        <time>2024-04-09T17:53:25Z</time>
      </trkpt>
      <trkpt lat="43.66434" lon="1.39324">
        <ele>122</ele>
        <time>2024-04-09T17:53:26Z</time>
      </trkpt>
      <trkpt lat="43.66431" lon="1.39324">
        <ele>122</ele>
        <time>2024-04-09T17:53:27Z</time>
      </trkpt>
      <trkpt lat="43.66428" lon="1.39323">
        <ele>122</ele>
        <time>2024-04-09T17:53:28Z</time>
      </trkpt>
      <trkpt lat="43.66425" lon="1.39322">
        <ele>122</ele>
        <time>2024-04-09T17:53:29Z</time>
      </trkpt>
      <trkpt lat="43.66423" lon="1.39321">
        <ele>122</ele>
        <time>2024-04-09T17:53:30Z</time>
      </trkpt>
      <trkpt lat="43.6642" lon="1.3932">
        <ele>122</ele>
        <time>2024-04-09T17:53:31Z</time>
      </trkpt>
      <trkpt lat="43.66418" lon="1.39319">
        <ele>122</ele>
        <time>2024-04-09T17:53:32Z</time>
      </trkpt>
      <trkpt lat="43.66416" lon="1.39318">
        <ele>122</ele>
        <time>2024-04-09T17:53:33Z</time>
      </trkpt>
      <trkpt lat="43.66413" lon="1.39318">
        <ele>122</ele>
        <time>2024-04-09T17:53:34Z</time>
      </trkpt>
      <trkpt lat="43.66411" lon="1.39317">
        <ele>122</ele>
        <time>2024-04-09T17:53:35Z</time>
      </trkpt>
      <trkpt lat="43.66409" lon="1.39316">
        <ele>122</ele>
        <time>2024-04-09T17:53:36Z</time>
      </trkpt>
      <trkpt lat="43.66406" lon="1.39315">
        <ele>122</ele>
        <time>2024-04-09T17:53:37Z</time>
      </trkpt>
      <trkpt lat="43.66404" lon="1.39314">
        <ele>122</ele>
        <time>2024-04-09T17:53:38Z</time>
      </trkpt>
      <trkpt lat="43.66402" lon="1.39312">
        <ele>122</ele>
        <time>2024-04-09T17:53:39Z</time>
      </trkpt>
      <trkpt lat="43.664" lon="1.39311">
        <ele>122</ele>
        <time>2024-04-09T17:53:40Z</time>
      </trkpt>
      <trkpt lat="43.66398" lon="1.39309">
        <ele>122</ele>
        <time>2024-04-09T17:53:41Z</time>
      </trkpt>
      <trkpt lat="43.66397" lon="1.39307">
        <ele>122</ele>
        <time>2024-04-09T17:53:42Z</time>
      </trkpt>
      <trkpt lat="43.66394" lon="1.39306">
        <ele>122</ele>
        <time>2024-04-09T17:53:43Z</time>
      </trkpt>
      <trkpt lat="43.66392" lon="1.39304">
        <ele>122</ele>
        <time>2024-04-09T17:53:44Z</time>
      </trkpt>
      <trkpt lat="43.66389" lon="1.39302">
        <ele>122</ele>
        <time>2024-04-09T17:53:45Z</time>
      </trkpt>
      <trkpt lat="43.66386" lon="1.39301">
        <ele>122</ele>
        <time>2024-04-09T17:53:46Z</time>
      </trkpt>
      <trkpt lat="43.66384" lon="1.39299">
        <ele>122</ele>
        <time>2024-04-09T17:53:47Z</time>
      </trkpt>
      <trkpt lat="43.66382" lon="1.39297">
        <ele>122</ele>
        <time>2024-04-09T17:53:48Z</time>
      </trkpt>
      <trkpt lat="43.66379" lon="1.39295">
        <ele>122</ele>
        <time>2024-04-09T17:53:49Z</time>
      </trkpt>
      <trkpt lat="43.66377" lon="1.39294">
        <ele>122</ele>
        <time>2024-04-09T17:53:50Z</time>
      </trkpt>
      <trkpt lat="43.66374" lon="1.39292">
        <ele>122</ele>
        <time>2024-04-09T17:53:51Z</time>
      </trkpt>
      <trkpt lat="43.66372" lon="1.3929">
        <ele>122</ele>
        <time>2024-04-09T17:53:52Z</time>
      </trkpt>
      <trkpt lat="43.66369" lon="1.39289">
        <ele>122</ele>
        <time>2024-04-09T17:53:53Z</time>
      </trkpt>
      <trkpt lat="43.66366" lon="1.39287">
        <ele>122</ele>
        <time>2024-04-09T17:53:54Z</time>
      </trkpt>
      <trkpt lat="43.66364" lon="1.39285">
        <ele>122</ele>
        <time>2024-04-09T17:53:55Z</time>
      </trkpt>
      <trkpt lat="43.66361" lon="1.39284">
        <ele>122</ele>
        <time>2024-04-09T17:53:56Z</time>
      </trkpt>
      <trkpt lat="43.66359" lon="1.39283">
        <ele>122</ele>
        <time>2024-04-09T17:53:57Z</time>
      </trkpt>
      <trkpt lat="43.66356" lon="1.39283">
        <ele>122</ele>
        <time>2024-04-09T17:53:58Z</time>
      </trkpt>
      <trkpt lat="43.66354" lon="1.39283">
        <ele>122</ele>
        <time>2024-04-09T17:53:59Z</time>
      </trkpt>
      <trkpt lat="43.66352" lon="1.39284">
        <ele>122</ele>
        <time>2024-04-09T17:54:00Z</time>
      </trkpt>
      <trkpt lat="43.66349" lon="1.39284">
        <ele>122</ele>
        <time>2024-04-09T17:54:01Z</time>
      </trkpt>
      <trkpt lat="43.66348" lon="1.39285">
        <ele>122</ele>
        <time>2024-04-09T17:54:02Z</time>
      </trkpt>
      <trkpt lat="43.66345" lon="1.39286">
        <ele>122</ele>
        <time>2024-04-09T17:54:03Z</time>
      </trkpt>
      <trkpt lat="43.66343" lon="1.39287">
        <ele>122</ele>
        <time>2024-04-09T17:54:04Z</time>
      </trkpt>
      <trkpt lat="43.6634" lon="1.39289">
        <ele>122</ele>
        <time>2024-04-09T17:54:05Z</time>
      </trkpt>
      <trkpt lat="43.66339" lon="1.3929">
        <ele>122</ele>
        <time>2024-04-09T17:54:06Z</time>
      </trkpt>
      <trkpt lat="43.66336" lon="1.39292">
        <ele>122</ele>
        <time>2024-04-09T17:54:07Z</time>
      </trkpt>
      <trkpt lat="43.66334" lon="1.39294">
        <ele>122</ele>
        <time>2024-04-09T17:54:08Z</time>
      </trkpt>
      <trkpt lat="43.66334" lon="1.39294">
        <ele>122</ele>
        <time>2024-04-09T17:54:09Z</time>
      </trkpt>
      <trkpt lat="43.6633" lon="1.39294">
        <ele>122</ele>
        <time>2024-04-09T17:54:10Z</time>
      </trkpt>
      <trkpt lat="43.66327" lon="1.39295">
        <ele>122</ele>
        <time>2024-04-09T17:54:11Z</time>
      </trkpt>
      <trkpt lat="43.66323" lon="1.39295">
        <ele>122</ele>
        <time>2024-04-09T17:54:12Z</time>
      </trkpt>
      <trkpt lat="43.66319" lon="1.39294">
        <ele>122</ele>
        <time>2024-04-09T17:54:13Z</time>
      </trkpt>
      <trkpt lat="43.66315" lon="1.39292">
        <ele>122</ele>
        <time>2024-04-09T17:54:14Z</time>
      </trkpt>
      <trkpt lat="43.66312" lon="1.39291">
        <ele>122</ele>
        <time>2024-04-09T17:54:15Z</time>
      </trkpt>
      <trkpt lat="43.66309" lon="1.39289">
        <ele>122</ele>
        <time>2024-04-09T17:54:16Z</time>
      </trkpt>
      <trkpt lat="43.66306" lon="1.39288">
        <ele>122</ele>
        <time>2024-04-09T17:54:17Z</time>
      </trkpt>
      <trkpt lat="43.66304" lon="1.39286">
        <ele>122</ele>
        <time>2024-04-09T17:54:18Z</time>
      </trkpt>
      <trkpt lat="43.66302" lon="1.39284">
        <ele>122</ele>
        <time>2024-04-09T17:54:19Z</time>
      </trkpt>
      <trkpt lat="43.663" lon="1.39281">
        <ele>122</ele>
        <time>2024-04-09T17:54:20Z</time>
      </trkpt>
      <trkpt lat="43.66298" lon="1.39279">
        <ele>122</ele>
        <time>2024-04-09T17:54:21Z</time>
      </trkpt>
      <trkpt lat="43.66295" lon="1.39277">
        <ele>122</ele>
        <time>2024-04-09T17:54:22Z</time>
      </trkpt>
      <trkpt lat="43.66293" lon="1.39274">
        <ele>122</ele>
        <time>2024-04-09T17:54:23Z</time>
      </trkpt>
      <trkpt lat="43.66291" lon="1.39271">
        <ele>122</ele>
        <time>2024-04-09T17:54:24Z</time>
      </trkpt>
      <trkpt lat="43.6629" lon="1.39268">
        <ele>122</ele>
        <time>2024-04-09T17:54:25Z</time>
      </trkpt>
      <trkpt lat="43.66289" lon="1.39265">
        <ele>122</ele>
        <time>2024-04-09T17:54:26Z</time>
      </trkpt>
      <trkpt lat="43.66287" lon="1.39261">
        <ele>122</ele>
        <time>2024-04-09T17:54:27Z</time>
      </trkpt>
      <trkpt lat="43.66286" lon="1.39258">
        <ele>122</ele>
        <time>2024-04-09T17:54:28Z</time>
      </trkpt>
      <trkpt lat="43.66285" lon="1.39254">
        <ele>122</ele>
        <time>2024-04-09T17:54:29Z</time>
      </trkpt>
      <trkpt lat="43.66285" lon="1.39251">
        <ele>122</ele>
        <time>2024-04-09T17:54:30Z</time>
      </trkpt>
      <trkpt lat="43.66284" lon="1.39248">
        <ele>122</ele>
        <time>2024-04-09T17:54:31Z</time>
      </trkpt>
      <trkpt lat="43.66284" lon="1.39245">
        <ele>122</ele>
        <time>2024-04-09T17:54:32Z</time>
      </trkpt>
      <trkpt lat="43.66283" lon="1.39242">
        <ele>122</ele>
        <time>2024-04-09T17:54:33Z</time>
      </trkpt>
      <trkpt lat="43.66282" lon="1.39239">
        <ele>122</ele>
        <time>2024-04-09T17:54:34Z</time>
      </trkpt>
      <trkpt lat="43.66281" lon="1.39235">
        <ele>123</ele>
        <time>2024-04-09T17:54:35Z</time>
      </trkpt>
      <trkpt lat="43.66281" lon="1.39231">
        <ele>123</ele>
        <time>2024-04-09T17:54:36Z</time>
      </trkpt>
      <trkpt lat="43.6628" lon="1.39228">
        <ele>123</ele>
        <time>2024-04-09T17:54:37Z</time>
      </trkpt>
      <trkpt lat="43.66278" lon="1.39224">
        <ele>123</ele>
        <time>2024-04-09T17:54:38Z</time>
      </trkpt>
      <trkpt lat="43.66278" lon="1.3922">
        <ele>122</ele>
        <time>2024-04-09T17:54:39Z</time>
      </trkpt>
      <trkpt lat="43.66277" lon="1.39216">
        <ele>122</ele>
        <time>2024-04-09T17:54:40Z</time>
      </trkpt>
      <trkpt lat="43.66277" lon="1.39211">
        <ele>122</ele>
        <time>2024-04-09T17:54:41Z</time>
      </trkpt>
      <trkpt lat="43.66276" lon="1.39207">
        <ele>122</ele>
        <time>2024-04-09T17:54:42Z</time>
      </trkpt>
      <trkpt lat="43.66275" lon="1.39203">
        <ele>122</ele>
        <time>2024-04-09T17:54:43Z</time>
      </trkpt>
      <trkpt lat="43.66275" lon="1.39201">
        <ele>122</ele>
        <time>2024-04-09T17:54:44Z</time>
      </trkpt>
      <trkpt lat="43.66274" lon="1.39198">
        <ele>122</ele>
        <time>2024-04-09T17:54:45Z</time>
      </trkpt>
      <trkpt lat="43.66273" lon="1.39194">
        <ele>122</ele>
        <time>2024-04-09T17:54:46Z</time>
      </trkpt>
      <trkpt lat="43.66272" lon="1.39191">
        <ele>123</ele>
        <time>2024-04-09T17:54:47Z</time>
      </trkpt>
      <trkpt lat="43.66271" lon="1.39188">
        <ele>123</ele>
        <time>2024-04-09T17:54:48Z</time>
      </trkpt>
      <trkpt lat="43.6627" lon="1.39185">
        <ele>123</ele>
        <time>2024-04-09T17:54:49Z</time>
      </trkpt>
      <trkpt lat="43.66268" lon="1.39183">
        <ele>123</ele>
        <time>2024-04-09T17:54:50Z</time>
      </trkpt>
      <trkpt lat="43.66266" lon="1.39181">
        <ele>123</ele>
        <time>2024-04-09T17:54:51Z</time>
      </trkpt>
      <trkpt lat="43.66265" lon="1.39179">
        <ele>123</ele>
        <time>2024-04-09T17:54:52Z</time>
      </trkpt>
      <trkpt lat="43.66263" lon="1.39177">
        <ele>123</ele>
        <time>2024-04-09T17:54:53Z</time>
      </trkpt>
      <trkpt lat="43.66261" lon="1.39175">
        <ele>123</ele>
        <time>2024-04-09T17:54:54Z</time>
      </trkpt>
      <trkpt lat="43.66258" lon="1.39174">
        <ele>123</ele>
        <time>2024-04-09T17:54:55Z</time>
      </trkpt>
      <trkpt lat="43.66258" lon="1.39174">
        <ele>123</ele>
        <time>2024-04-09T17:54:56Z</time>
      </trkpt>
      <trkpt lat="43.66254" lon="1.39174">
        <ele>123</ele>
        <time>2024-04-09T17:54:57Z</time>
      </trkpt>
      <trkpt lat="43.66252" lon="1.39175">
        <ele>123</ele>
        <time>2024-04-09T17:54:58Z</time>
      </trkpt>
      <trkpt lat="43.6625" lon="1.39175">
        <ele>122</ele>
        <time>2024-04-09T17:54:59Z</time>
      </trkpt>
      <trkpt lat="43.66248" lon="1.39176">
        <ele>123</ele>
        <time>2024-04-09T17:55:00Z</time>
      </trkpt>
      <trkpt lat="43.66245" lon="1.39177">
        <ele>123</ele>
        <time>2024-04-09T17:55:01Z</time>
      </trkpt>
      <trkpt lat="43.66243" lon="1.39177">
        <ele>123</ele>
        <time>2024-04-09T17:55:02Z</time>
      </trkpt>
      <trkpt lat="43.6624" lon="1.39176">
        <ele>123</ele>
        <time>2024-04-09T17:55:03Z</time>
      </trkpt>
      <trkpt lat="43.66237" lon="1.39175">
        <ele>123</ele>
        <time>2024-04-09T17:55:04Z</time>
      </trkpt>
      <trkpt lat="43.66235" lon="1.39174">
        <ele>123</ele>
        <time>2024-04-09T17:55:05Z</time>
      </trkpt>
      <trkpt lat="43.66232" lon="1.39173">
        <ele>123</ele>
        <time>2024-04-09T17:55:06Z</time>
      </trkpt>
      <trkpt lat="43.66229" lon="1.39172">
        <ele>123</ele>
        <time>2024-04-09T17:55:07Z</time>
      </trkpt>
      <trkpt lat="43.66227" lon="1.39171">
        <ele>123</ele>
        <time>2024-04-09T17:55:08Z</time>
      </trkpt>
      <trkpt lat="43.66225" lon="1.39169">
        <ele>123</ele>
        <time>2024-04-09T17:55:09Z</time>
      </trkpt>
      <trkpt lat="43.66223" lon="1.39168">
        <ele>123</ele>
        <time>2024-04-09T17:55:10Z</time>
      </trkpt>
      <trkpt lat="43.66221" lon="1.39165">
        <ele>123</ele>
        <time>2024-04-09T17:55:11Z</time>
      </trkpt>
      <trkpt lat="43.66219" lon="1.39162">
        <ele>123</ele>
        <time>2024-04-09T17:55:12Z</time>
      </trkpt>
      <trkpt lat="43.66218" lon="1.39159">
        <ele>122</ele>
        <time>2024-04-09T17:55:13Z</time>
      </trkpt>
      <trkpt lat="43.66217" lon="1.39156">
        <ele>122</ele>
        <time>2024-04-09T17:55:14Z</time>
      </trkpt>
      <trkpt lat="43.66216" lon="1.39152">
        <ele>123</ele>
        <time>2024-04-09T17:55:15Z</time>
      </trkpt>
      <trkpt lat="43.66214" lon="1.39149">
        <ele>123</ele>
        <time>2024-04-09T17:55:16Z</time>
      </trkpt>
      <trkpt lat="43.66214" lon="1.39149">
        <ele>123</ele>
        <time>2024-04-09T17:55:17Z</time>
      </trkpt>
      <trkpt lat="43.66211" lon="1.39146">
        <ele>123</ele>
        <time>2024-04-09T17:55:18Z</time>
      </trkpt>
      <trkpt lat="43.66208" lon="1.39146">
        <ele>123</ele>
        <time>2024-04-09T17:55:19Z</time>
      </trkpt>
      <trkpt lat="43.66206" lon="1.39147">
        <ele>123</ele>
        <time>2024-04-09T17:55:20Z</time>
      </trkpt>
      <trkpt lat="43.66204" lon="1.39149">
        <ele>123</ele>
        <time>2024-04-09T17:55:21Z</time>
      </trkpt>
      <trkpt lat="43.66202" lon="1.3915">
        <ele>122</ele>
        <time>2024-04-09T17:55:22Z</time>
      </trkpt>
      <trkpt lat="43.66202" lon="1.3915">
        <ele>122</ele>
        <time>2024-04-09T17:55:23Z</time>
      </trkpt>
      <trkpt lat="43.66199" lon="1.39152">
        <ele>122</ele>
        <time>2024-04-09T17:55:24Z</time>
      </trkpt>
      <trkpt lat="43.66199" lon="1.39152">
        <ele>122</ele>
        <time>2024-04-09T17:55:25Z</time>
      </trkpt>
      <trkpt lat="43.66196" lon="1.39155">
        <ele>122</ele>
        <time>2024-04-09T17:55:26Z</time>
      </trkpt>
      <trkpt lat="43.66194" lon="1.39155">
        <ele>122</ele>
        <time>2024-04-09T17:55:27Z</time>
      </trkpt>
      <trkpt lat="43.66192" lon="1.39156">
        <ele>122</ele>
        <time>2024-04-09T17:55:28Z</time>
      </trkpt>
      <trkpt lat="43.66192" lon="1.39156">
        <ele>122</ele>
        <time>2024-04-09T17:55:29Z</time>
      </trkpt>
      <trkpt lat="43.66191" lon="1.39158">
        <ele>122</ele>
        <time>2024-04-09T17:55:30Z</time>
      </trkpt>
      <trkpt lat="43.66189" lon="1.3916">
        <ele>122</ele>
        <time>2024-04-09T17:55:31Z</time>
      </trkpt>
      <trkpt lat="43.66188" lon="1.39162">
        <ele>122</ele>
        <time>2024-04-09T17:55:32Z</time>
      </trkpt>
      <trkpt lat="43.66187" lon="1.39164">
        <ele>122</ele>
        <time>2024-04-09T17:55:33Z</time>
      </trkpt>
      <trkpt lat="43.66185" lon="1.39166">
        <ele>122</ele>
        <time>2024-04-09T17:55:34Z</time>
      </trkpt>
      <trkpt lat="43.66183" lon="1.39167">
        <ele>123</ele>
        <time>2024-04-09T17:55:35Z</time>
      </trkpt>
      <trkpt lat="43.66181" lon="1.39169">
        <ele>123</ele>
        <time>2024-04-09T17:55:36Z</time>
      </trkpt>
      <trkpt lat="43.66179" lon="1.3917">
        <ele>123</ele>
        <time>2024-04-09T17:55:37Z</time>
      </trkpt>
      <trkpt lat="43.66177" lon="1.39171">
        <ele>123</ele>
        <time>2024-04-09T17:55:38Z</time>
      </trkpt>
      <trkpt lat="43.66174" lon="1.39173">
        <ele>122</ele>
        <time>2024-04-09T17:55:39Z</time>
      </trkpt>
      <trkpt lat="43.66171" lon="1.39174">
        <ele>122</ele>
        <time>2024-04-09T17:55:40Z</time>
      </trkpt>
      <trkpt lat="43.66168" lon="1.39175">
        <ele>122</ele>
        <time>2024-04-09T17:55:41Z</time>
      </trkpt>
      <trkpt lat="43.66165" lon="1.39177">
        <ele>123</ele>
        <time>2024-04-09T17:55:42Z</time>
      </trkpt>
      <trkpt lat="43.66163" lon="1.39178">
        <ele>123</ele>
        <time>2024-04-09T17:55:43Z</time>
      </trkpt>
      <trkpt lat="43.6616" lon="1.3918">
        <ele>123</ele>
        <time>2024-04-09T17:55:44Z</time>
      </trkpt>
      <trkpt lat="43.66157" lon="1.39182">
        <ele>123</ele>
        <time>2024-04-09T17:55:45Z</time>
      </trkpt>
      <trkpt lat="43.66155" lon="1.39183">
        <ele>123</ele>
        <time>2024-04-09T17:55:46Z</time>
      </trkpt>
      <trkpt lat="43.66152" lon="1.39185">
        <ele>123</ele>
        <time>2024-04-09T17:55:47Z</time>
      </trkpt>
      <trkpt lat="43.6615" lon="1.39187">
        <ele>123</ele>
        <time>2024-04-09T17:55:48Z</time>
      </trkpt>
      <trkpt lat="43.66147" lon="1.39189">
        <ele>123</ele>
        <time>2024-04-09T17:55:49Z</time>
      </trkpt>
      <trkpt lat="43.66144" lon="1.3919">
        <ele>123</ele>
        <time>2024-04-09T17:55:50Z</time>
      </trkpt>
      <trkpt lat="43.66141" lon="1.39192">
        <ele>123</ele>
        <time>2024-04-09T17:55:51Z</time>
      </trkpt>
      <trkpt lat="43.66138" lon="1.39192">
        <ele>123</ele>
        <time>2024-04-09T17:55:52Z</time>
      </trkpt>
      <trkpt lat="43.66138" lon="1.39192">
        <ele>123</ele>
        <time>2024-04-09T17:55:53Z</time>
      </trkpt>
      <trkpt lat="43.66137" lon="1.39193">
        <ele>123</ele>
        <time>2024-04-09T17:55:54Z</time>
      </trkpt>
      <trkpt lat="43.66135" lon="1.39193">
        <ele>123</ele>
        <time>2024-04-09T17:55:55Z</time>
      </trkpt>
      <trkpt lat="43.66133" lon="1.39194">
        <ele>123</ele>
        <time>2024-04-09T17:55:56Z</time>
      </trkpt>
      <trkpt lat="43.66131" lon="1.39194">
        <ele>123</ele>
        <time>2024-04-09T17:55:57Z</time>
      </trkpt>
      <trkpt lat="43.66129" lon="1.39195">
        <ele>123</ele>
        <time>2024-04-09T17:55:58Z</time>
      </trkpt>
      <trkpt lat="43.66126" lon="1.39195">
        <ele>123</ele>
        <time>2024-04-09T17:55:59Z</time>
      </trkpt>
      <trkpt lat="43.66123" lon="1.39195">
        <ele>123</ele>
        <time>2024-04-09T17:56:00Z</time>
      </trkpt>
      <trkpt lat="43.6612" lon="1.39195">
        <ele>123</ele>
        <time>2024-04-09T17:56:01Z</time>
      </trkpt>
      <trkpt lat="43.66118" lon="1.39195">
        <ele>123</ele>
        <time>2024-04-09T17:56:02Z</time>
      </trkpt>
      <trkpt lat="43.66115" lon="1.39195">
        <ele>123</ele>
        <time>2024-04-09T17:56:03Z</time>
      </trkpt>
      <trkpt lat="43.66113" lon="1.39195">
        <ele>123</ele>
        <time>2024-04-09T17:56:04Z</time>
      </trkpt>
      <trkpt lat="43.66111" lon="1.39195">
        <ele>123</ele>
        <time>2024-04-09T17:56:05Z</time>
      </trkpt>
      <trkpt lat="43.66108" lon="1.39196">
        <ele>123</ele>
        <time>2024-04-09T17:56:06Z</time>
      </trkpt>
      <trkpt lat="43.66106" lon="1.39198">
        <ele>123</ele>
        <time>2024-04-09T17:56:07Z</time>
      </trkpt>
      <trkpt lat="43.66104" lon="1.392">
        <ele>123</ele>
        <time>2024-04-09T17:56:08Z</time>
      </trkpt>
      <trkpt lat="43.66102" lon="1.39202">
        <ele>123</ele>
        <time>2024-04-09T17:56:09Z</time>
      </trkpt>
      <trkpt lat="43.661" lon="1.39204">
        <ele>123</ele>
        <time>2024-04-09T17:56:10Z</time>
      </trkpt>
      <trkpt lat="43.66097" lon="1.39206">
        <ele>123</ele>
        <time>2024-04-09T17:56:11Z</time>
      </trkpt>
      <trkpt lat="43.66095" lon="1.39207">
        <ele>123</ele>
        <time>2024-04-09T17:56:12Z</time>
      </trkpt>
      <trkpt lat="43.66093" lon="1.39209">
        <ele>123</ele>
        <time>2024-04-09T17:56:13Z</time>
      </trkpt>
      <trkpt lat="43.66091" lon="1.39211">
        <ele>123</ele>
        <time>2024-04-09T17:56:14Z</time>
      </trkpt>
      <trkpt lat="43.66088" lon="1.39212">
        <ele>123</ele>
        <time>2024-04-09T17:56:15Z</time>
      </trkpt>
      <trkpt lat="43.66085" lon="1.39214">
        <ele>123</ele>
        <time>2024-04-09T17:56:16Z</time>
      </trkpt>
      <trkpt lat="43.66083" lon="1.39215">
        <ele>123</ele>
        <time>2024-04-09T17:56:17Z</time>
      </trkpt>
      <trkpt lat="43.66079" lon="1.39216">
        <ele>123</ele>
        <time>2024-04-09T17:56:18Z</time>
      </trkpt>
      <trkpt lat="43.66075" lon="1.39217">
        <ele>123</ele>
        <time>2024-04-09T17:56:19Z</time>
      </trkpt>
      <trkpt lat="43.66071" lon="1.39218">
        <ele>123</ele>
        <time>2024-04-09T17:56:20Z</time>
      </trkpt>
      <trkpt lat="43.66068" lon="1.39218">
        <ele>123</ele>
        <time>2024-04-09T17:56:21Z</time>
      </trkpt>
      <trkpt lat="43.66065" lon="1.39219">
        <ele>123</ele>
        <time>2024-04-09T17:56:22Z</time>
      </trkpt>
      <trkpt lat="43.66062" lon="1.3922">
        <ele>123</ele>
        <time>2024-04-09T17:56:23Z</time>
      </trkpt>
      <trkpt lat="43.66058" lon="1.39221">
        <ele>123</ele>
        <time>2024-04-09T17:56:24Z</time>
      </trkpt>
      <trkpt lat="43.66055" lon="1.39222">
        <ele>123</ele>
        <time>2024-04-09T17:56:25Z</time>
      </trkpt>
      <trkpt lat="43.66052" lon="1.39223">
        <ele>123</ele>
        <time>2024-04-09T17:56:26Z</time>
      </trkpt>
      <trkpt lat="43.6605" lon="1.39224">
        <ele>123</ele>
        <time>2024-04-09T17:56:27Z</time>
      </trkpt>
      <trkpt lat="43.66047" lon="1.39225">
        <ele>123</ele>
        <time>2024-04-09T17:56:28Z</time>
      </trkpt>
      <trkpt lat="43.66044" lon="1.39225">
        <ele>123</ele>
        <time>2024-04-09T17:56:29Z</time>
      </trkpt>
      <trkpt lat="43.66042" lon="1.39226">
        <ele>123</ele>
        <time>2024-04-09T17:56:30Z</time>
      </trkpt>
      <trkpt lat="43.66039" lon="1.39227">
        <ele>123</ele>
        <time>2024-04-09T17:56:31Z</time>
      </trkpt>
      <trkpt lat="43.66036" lon="1.39228">
        <ele>123</ele>
        <time>2024-04-09T17:56:32Z</time>
      </trkpt>
      <trkpt lat="43.66033" lon="1.39229">
        <ele>123</ele>
        <time>2024-04-09T17:56:33Z</time>
      </trkpt>
      <trkpt lat="43.66031" lon="1.3923">
        <ele>123</ele>
        <time>2024-04-09T17:56:34Z</time>
      </trkpt>
      <trkpt lat="43.66028" lon="1.39231">
        <ele>123</ele>
        <time>2024-04-09T17:56:35Z</time>
      </trkpt>
      <trkpt lat="43.66026" lon="1.39232">
        <ele>123</ele>
        <time>2024-04-09T17:56:36Z</time>
      </trkpt>
      <trkpt lat="43.66024" lon="1.39233">
        <ele>123</ele>
        <time>2024-04-09T17:56:37Z</time>
      </trkpt>
      <trkpt lat="43.66022" lon="1.39233">
        <ele>123</ele>
        <time>2024-04-09T17:56:38Z</time>
      </trkpt>
      <trkpt lat="43.66022" lon="1.39233">
        <ele>123</ele>
        <time>2024-04-09T17:56:39Z</time>
      </trkpt>
      <trkpt lat="43.66019" lon="1.39234">
        <ele>123</ele>
        <time>2024-04-09T17:56:40Z</time>
      </trkpt>
      <trkpt lat="43.66019" lon="1.39234">
        <ele>123</ele>
        <time>2024-04-09T17:56:41Z</time>
      </trkpt>
      <trkpt lat="43.66015" lon="1.39237">
        <ele>123</ele>
        <time>2024-04-09T17:56:42Z</time>
      </trkpt>
      <trkpt lat="43.66013" lon="1.39238">
        <ele>123</ele>
        <time>2024-04-09T17:56:43Z</time>
      </trkpt>
      <trkpt lat="43.66011" lon="1.3924">
        <ele>123</ele>
        <time>2024-04-09T17:56:44Z</time>
      </trkpt>
      <trkpt lat="43.66009" lon="1.39241">
        <ele>123</ele>
        <time>2024-04-09T17:56:45Z</time>
      </trkpt>
      <trkpt lat="43.66007" lon="1.39242">
        <ele>123</ele>
        <time>2024-04-09T17:56:46Z</time>
      </trkpt>
      <trkpt lat="43.66005" lon="1.39244">
        <ele>123</ele>
        <time>2024-04-09T17:56:47Z</time>
      </trkpt>
      <trkpt lat="43.66003" lon="1.39245">
        <ele>123</ele>
        <time>2024-04-09T17:56:48Z</time>
      </trkpt>
      <trkpt lat="43.66001" lon="1.39247">
        <ele>123</ele>
        <time>2024-04-09T17:56:49Z</time>
      </trkpt>
      <trkpt lat="43.65998" lon="1.39248">
        <ele>123</ele>
        <time>2024-04-09T17:56:50Z</time>
      </trkpt>
      <trkpt lat="43.65996" lon="1.3925">
        <ele>123</ele>
        <time>2024-04-09T17:56:51Z</time>
      </trkpt>
      <trkpt lat="43.65993" lon="1.39251">
        <ele>123</ele>
        <time>2024-04-09T17:56:52Z</time>
      </trkpt>
      <trkpt lat="43.6599" lon="1.39251">
        <ele>123</ele>
        <time>2024-04-09T17:56:53Z</time>
      </trkpt>
      <trkpt lat="43.65988" lon="1.39251">
        <ele>123</ele>
        <time>2024-04-09T17:56:54Z</time>
      </trkpt>
      <trkpt lat="43.65985" lon="1.39251">
        <ele>123</ele>
        <time>2024-04-09T17:56:55Z</time>
      </trkpt>
      <trkpt lat="43.65983" lon="1.39251">
        <ele>123</ele>
        <time>2024-04-09T17:56:56Z</time>
      </trkpt>
      <trkpt lat="43.6598" lon="1.39252">
        <ele>123</ele>
        <time>2024-04-09T17:56:57Z</time>
      </trkpt>
      <trkpt lat="43.65978" lon="1.39254">
        <ele>123</ele>
        <time>2024-04-09T17:56:58Z</time>
      </trkpt>
      <trkpt lat="43.65976" lon="1.39255">
        <ele>123</ele>
        <time>2024-04-09T17:56:59Z</time>
      </trkpt>
      <trkpt lat="43.65973" lon="1.39256">
        <ele>123</ele>
        <time>2024-04-09T17:57:00Z</time>
      </trkpt>
      <trkpt lat="43.6597" lon="1.39257">
        <ele>123</ele>
        <time>2024-04-09T17:57:01Z</time>
      </trkpt>
      <trkpt lat="43.65967" lon="1.39257">
        <ele>123</ele>
        <time>2024-04-09T17:57:02Z</time>
      </trkpt>
      <trkpt lat="43.65964" lon="1.39257">
        <ele>123</ele>
        <time>2024-04-09T17:57:03Z</time>
      </trkpt>
      <trkpt lat="43.65962" lon="1.39256">
        <ele>123</ele>
        <time>2024-04-09T17:57:04Z</time>
      </trkpt>
      <trkpt lat="43.65959" lon="1.39256">
        <ele>123</ele>
        <time>2024-04-09T17:57:05Z</time>
      </trkpt>
      <trkpt lat="43.65957" lon="1.39256">
        <ele>123</ele>
        <time>2024-04-09T17:57:06Z</time>
      </trkpt>
      <trkpt lat="43.65954" lon="1.39256">
        <ele>123</ele>
        <time>2024-04-09T17:57:07Z</time>
      </trkpt>
      <trkpt lat="43.65952" lon="1.39255">
        <ele>123</ele>
        <time>2024-04-09T17:57:08Z</time>
      </trkpt>
      <trkpt lat="43.65949" lon="1.39254">
        <ele>123</ele>
        <time>2024-04-09T17:57:09Z</time>
      </trkpt>
      <trkpt lat="43.65947" lon="1.39254">
        <ele>123</ele>
        <time>2024-04-09T17:57:10Z</time>
      </trkpt>
      <trkpt lat="43.65944" lon="1.39254">
        <ele>123</ele>
        <time>2024-04-09T17:57:11Z</time>
      </trkpt>
      <trkpt lat="43.65942" lon="1.39254">
        <ele>123</ele>
        <time>2024-04-09T17:57:12Z</time>
      </trkpt>
      <trkpt lat="43.65941" lon="1.39254">
        <ele>123</ele>
        <time>2024-04-09T17:57:13Z</time>
      </trkpt>
      <trkpt lat="43.65938" lon="1.39254">
        <ele>123</ele>
        <time>2024-04-09T17:57:14Z</time>
      </trkpt>
      <trkpt lat="43.65935" lon="1.39255">
        <ele>123</ele>
        <time>2024-04-09T17:57:15Z</time>
      </trkpt>
      <trkpt lat="43.65932" lon="1.39255">
        <ele>123</ele>
        <time>2024-04-09T17:57:16Z</time>
      </trkpt>
      <trkpt lat="43.65929" lon="1.39255">
        <ele>123</ele>
        <time>2024-04-09T17:57:17Z</time>
      </trkpt>
      <trkpt lat="43.65926" lon="1.39256">
        <ele>123</ele>
        <time>2024-04-09T17:57:18Z</time>
      </trkpt>
      <trkpt lat="43.65924" lon="1.39256">
        <ele>123</ele>
        <time>2024-04-09T17:57:19Z</time>
      </trkpt>
      <trkpt lat="43.65921" lon="1.39257">
        <ele>123</ele>
        <time>2024-04-09T17:57:20Z</time>
      </trkpt>
      <trkpt lat="43.65919" lon="1.39257">
        <ele>123</ele>
        <time>2024-04-09T17:57:21Z</time>
      </trkpt>
      <trkpt lat="43.65916" lon="1.39256">
        <ele>123</ele>
        <time>2024-04-09T17:57:22Z</time>
      </trkpt>
      <trkpt lat="43.65914" lon="1.39255">
        <ele>123</ele>
        <time>2024-04-09T17:57:23Z</time>
      </trkpt>
      <trkpt lat="43.65912" lon="1.39255">
        <ele>123</ele>
        <time>2024-04-09T17:57:24Z</time>
      </trkpt>
      <trkpt lat="43.65909" lon="1.39254">
        <ele>123</ele>
        <time>2024-04-09T17:57:25Z</time>
      </trkpt>
      <trkpt lat="43.65907" lon="1.39254">
        <ele>123</ele>
        <time>2024-04-09T17:57:26Z</time>
      </trkpt>
      <trkpt lat="43.65907" lon="1.39254">
        <ele>123</ele>
        <time>2024-04-09T17:57:27Z</time>
      </trkpt>
      <trkpt lat="43.65903" lon="1.39254">
        <ele>123</ele>
        <time>2024-04-09T17:57:28Z</time>
      </trkpt>
      <trkpt lat="43.659" lon="1.39254">
        <ele>123</ele>
        <time>2024-04-09T17:57:29Z</time>
      </trkpt>
      <trkpt lat="43.65896" lon="1.39255">
        <ele>123</ele>
        <time>2024-04-09T17:57:30Z</time>
      </trkpt>
      <trkpt lat="43.65893" lon="1.39255">
        <ele>123</ele>
        <time>2024-04-09T17:57:31Z</time>
      </trkpt>
      <trkpt lat="43.6589" lon="1.39255">
        <ele>123</ele>
        <time>2024-04-09T17:57:32Z</time>
      </trkpt>
      <trkpt lat="43.65888" lon="1.39255">
        <ele>123</ele>
        <time>2024-04-09T17:57:33Z</time>
      </trkpt>
      <trkpt lat="43.65885" lon="1.39255">
        <ele>123</ele>
        <time>2024-04-09T17:57:34Z</time>
      </trkpt>
      <trkpt lat="43.65881" lon="1.39255">
        <ele>123</ele>
        <time>2024-04-09T17:57:35Z</time>
      </trkpt>
      <trkpt lat="43.65878" lon="1.39255">
        <ele>123</ele>
        <time>2024-04-09T17:57:36Z</time>
      </trkpt>
      <trkpt lat="43.65875" lon="1.39255">
        <ele>123</ele>
        <time>2024-04-09T17:57:37Z</time>
      </trkpt>
      <trkpt lat="43.65873" lon="1.39256">
        <ele>123</ele>
        <time>2024-04-09T17:57:38Z</time>
      </trkpt>
      <trkpt lat="43.6587" lon="1.39255">
        <ele>123</ele>
        <time>2024-04-09T17:57:39Z</time>
      </trkpt>
      <trkpt lat="43.65868" lon="1.39254">
        <ele>123</ele>
        <time>2024-04-09T17:57:40Z</time>
      </trkpt>
      <trkpt lat="43.65865" lon="1.39254">
        <ele>123</ele>
        <time>2024-04-09T17:57:41Z</time>
      </trkpt>
      <trkpt lat="43.65863" lon="1.39253">
        <ele>123</ele>
        <time>2024-04-09T17:57:42Z</time>
      </trkpt>
      <trkpt lat="43.65861" lon="1.39252">
        <ele>123</ele>
        <time>2024-04-09T17:57:43Z</time>
      </trkpt>
      <trkpt lat="43.65858" lon="1.3925">
        <ele>123</ele>
        <time>2024-04-09T17:57:44Z</time>
      </trkpt>
      <trkpt lat="43.65856" lon="1.39248">
        <ele>123</ele>
        <time>2024-04-09T17:57:45Z</time>
      </trkpt>
      <trkpt lat="43.65853" lon="1.39247">
        <ele>123</ele>
        <time>2024-04-09T17:57:46Z</time>
      </trkpt>
      <trkpt lat="43.65851" lon="1.39245">
        <ele>123</ele>
        <time>2024-04-09T17:57:47Z</time>
      </trkpt>
      <trkpt lat="43.65848" lon="1.39244">
        <ele>123</ele>
        <time>2024-04-09T17:57:48Z</time>
      </trkpt>
      <trkpt lat="43.65846" lon="1.39242">
        <ele>123</ele>
        <time>2024-04-09T17:57:49Z</time>
      </trkpt>
      <trkpt lat="43.65844" lon="1.3924">
        <ele>123</ele>
        <time>2024-04-09T17:57:50Z</time>
      </trkpt>
      <trkpt lat="43.65841" lon="1.3924">
        <ele>123</ele>
        <time>2024-04-09T17:57:51Z</time>
      </trkpt>
      <trkpt lat="43.65839" lon="1.39239">
        <ele>123</ele>
        <time>2024-04-09T17:57:52Z</time>
      </trkpt>
      <trkpt lat="43.65838" lon="1.39238">
        <ele>123</ele>
        <time>2024-04-09T17:57:53Z</time>
      </trkpt>
      <trkpt lat="43.65836" lon="1.39237">
        <ele>123</ele>
        <time>2024-04-09T17:57:54Z</time>
      </trkpt>
      <trkpt lat="43.65833" lon="1.39236">
        <ele>123</ele>
        <time>2024-04-09T17:57:55Z</time>
      </trkpt>
      <trkpt lat="43.65831" lon="1.39235">
        <ele>124</ele>
        <time>2024-04-09T17:57:56Z</time>
      </trkpt>
      <trkpt lat="43.65829" lon="1.39235">
        <ele>124</ele>
        <time>2024-04-09T17:57:57Z</time>
      </trkpt>
      <trkpt lat="43.65827" lon="1.39235">
        <ele>124</ele>
        <time>2024-04-09T17:57:58Z</time>
      </trkpt>
      <trkpt lat="43.65824" lon="1.39234">
        <ele>124</ele>
        <time>2024-04-09T17:57:59Z</time>
      </trkpt>
      <trkpt lat="43.65821" lon="1.39233">
        <ele>123</ele>
        <time>2024-04-09T17:58:00Z</time>
      </trkpt>
      <trkpt lat="43.65818" lon="1.39232">
        <ele>123</ele>
        <time>2024-04-09T17:58:01Z</time>
      </trkpt>
      <trkpt lat="43.65816" lon="1.39231">
        <ele>123</ele>
        <time>2024-04-09T17:58:02Z</time>
      </trkpt>
      <trkpt lat="43.65814" lon="1.39229">
        <ele>123</ele>
        <time>2024-04-09T17:58:03Z</time>
      </trkpt>
      <trkpt lat="43.65811" lon="1.39228">
        <ele>123</ele>
        <time>2024-04-09T17:58:04Z</time>
      </trkpt>
      <trkpt lat="43.65809" lon="1.39227">
        <ele>123</ele>
        <time>2024-04-09T17:58:05Z</time>
      </trkpt>
      <trkpt lat="43.65806" lon="1.39227">
        <ele>123</ele>
        <time>2024-04-09T17:58:06Z</time>
      </trkpt>
      <trkpt lat="43.65803" lon="1.39226">
        <ele>123</ele>
        <time>2024-04-09T17:58:07Z</time>
      </trkpt>
      <trkpt lat="43.65801" lon="1.39226">
        <ele>123</ele>
        <time>2024-04-09T17:58:08Z</time>
      </trkpt>
      <trkpt lat="43.65798" lon="1.39225">
        <ele>123</ele>
        <time>2024-04-09T17:58:09Z</time>
      </trkpt>
      <trkpt lat="43.65795" lon="1.39224">
        <ele>123</ele>
        <time>2024-04-09T17:58:10Z</time>
      </trkpt>
      <trkpt lat="43.65792" lon="1.39224">
        <ele>123</ele>
        <time>2024-04-09T17:58:11Z</time>
      </trkpt>
      <trkpt lat="43.6579" lon="1.39223">
        <ele>123</ele>
        <time>2024-04-09T17:58:12Z</time>
      </trkpt>
      <trkpt lat="43.65788" lon="1.39222">
        <ele>123</ele>
        <time>2024-04-09T17:58:13Z</time>
      </trkpt>
      <trkpt lat="43.65786" lon="1.3922">
        <ele>123</ele>
        <time>2024-04-09T17:58:14Z</time>
      </trkpt>
      <trkpt lat="43.65784" lon="1.39218">
        <ele>124</ele>
        <time>2024-04-09T17:58:15Z</time>
      </trkpt>
      <trkpt lat="43.65782" lon="1.39216">
        <ele>124</ele>
        <time>2024-04-09T17:58:16Z</time>
      </trkpt>
      <trkpt lat="43.6578" lon="1.39214">
        <ele>124</ele>
        <time>2024-04-09T17:58:17Z</time>
      </trkpt>
      <trkpt lat="43.65778" lon="1.39213">
        <ele>124</ele>
        <time>2024-04-09T17:58:18Z</time>
      </trkpt>
      <trkpt lat="43.65776" lon="1.39211">
        <ele>124</ele>
        <time>2024-04-09T17:58:19Z</time>
      </trkpt>
      <trkpt lat="43.65774" lon="1.39208">
        <ele>124</ele>
        <time>2024-04-09T17:58:20Z</time>
      </trkpt>
      <trkpt lat="43.65771" lon="1.39205">
        <ele>124</ele>
        <time>2024-04-09T17:58:21Z</time>
      </trkpt>
      <trkpt lat="43.65769" lon="1.39203">
        <ele>124</ele>
        <time>2024-04-09T17:58:22Z</time>
      </trkpt>
      <trkpt lat="43.65767" lon="1.39201">
        <ele>124</ele>
        <time>2024-04-09T17:58:23Z</time>
      </trkpt>
      <trkpt lat="43.65765" lon="1.392">
        <ele>124</ele>
        <time>2024-04-09T17:58:24Z</time>
      </trkpt>
      <trkpt lat="43.65762" lon="1.39198">
        <ele>124</ele>
        <time>2024-04-09T17:58:25Z</time>
      </trkpt>
      <trkpt lat="43.6576" lon="1.39197">
        <ele>125</ele>
        <time>2024-04-09T17:58:26Z</time>
      </trkpt>
      <trkpt lat="43.65757" lon="1.39196">
        <ele>125</ele>
        <time>2024-04-09T17:58:27Z</time>
      </trkpt>
      <trkpt lat="43.65755" lon="1.39194">
        <ele>125</ele>
        <time>2024-04-09T17:58:28Z</time>
      </trkpt>
      <trkpt lat="43.65752" lon="1.39193">
        <ele>125</ele>
        <time>2024-04-09T17:58:29Z</time>
      </trkpt>
      <trkpt lat="43.6575" lon="1.39192">
        <ele>125</ele>
        <time>2024-04-09T17:58:30Z</time>
      </trkpt>
      <trkpt lat="43.65748" lon="1.39191">
        <ele>125</ele>
        <time>2024-04-09T17:58:31Z</time>
      </trkpt>
      <trkpt lat="43.65746" lon="1.39189">
        <ele>125</ele>
        <time>2024-04-09T17:58:32Z</time>
      </trkpt>
      <trkpt lat="43.65744" lon="1.39187">
        <ele>125</ele>
        <time>2024-04-09T17:58:33Z</time>
      </trkpt>
      <trkpt lat="43.65741" lon="1.39186">
        <ele>125</ele>
        <time>2024-04-09T17:58:34Z</time>
      </trkpt>
      <trkpt lat="43.65739" lon="1.39185">
        <ele>124</ele>
        <time>2024-04-09T17:58:35Z</time>
      </trkpt>
      <trkpt lat="43.65737" lon="1.39183">
        <ele>124</ele>
        <time>2024-04-09T17:58:36Z</time>
      </trkpt>
      <trkpt lat="43.65735" lon="1.39181">
        <ele>124</ele>
        <time>2024-04-09T17:58:37Z</time>
      </trkpt>
      <trkpt lat="43.65733" lon="1.3918">
        <ele>124</ele>
        <time>2024-04-09T17:58:38Z</time>
      </trkpt>
      <trkpt lat="43.6573" lon="1.39178">
        <ele>124</ele>
        <time>2024-04-09T17:58:39Z</time>
      </trkpt>
      <trkpt lat="43.65728" lon="1.39176">
        <ele>124</ele>
        <time>2024-04-09T17:58:40Z</time>
      </trkpt>
      <trkpt lat="43.65726" lon="1.39174">
        <ele>124</ele>
        <time>2024-04-09T17:58:41Z</time>
      </trkpt>
      <trkpt lat="43.65724" lon="1.39172">
        <ele>124</ele>
        <time>2024-04-09T17:58:42Z</time>
      </trkpt>
      <trkpt lat="43.65722" lon="1.39171">
        <ele>123</ele>
        <time>2024-04-09T17:58:43Z</time>
      </trkpt>
      <trkpt lat="43.6572" lon="1.39169">
        <ele>123</ele>
        <time>2024-04-09T17:58:44Z</time>
      </trkpt>
      <trkpt lat="43.65718" lon="1.39167">
        <ele>124</ele>
        <time>2024-04-09T17:58:45Z</time>
      </trkpt>
      <trkpt lat="43.65716" lon="1.39166">
        <ele>124</ele>
        <time>2024-04-09T17:58:46Z</time>
      </trkpt>
      <trkpt lat="43.65714" lon="1.39163">
        <ele>124</ele>
        <time>2024-04-09T17:58:47Z</time>
      </trkpt>
      <trkpt lat="43.65712" lon="1.3916">
        <ele>124</ele>
        <time>2024-04-09T17:58:48Z</time>
      </trkpt>
      <trkpt lat="43.6571" lon="1.39158">
        <ele>124</ele>
        <time>2024-04-09T17:58:49Z</time>
      </trkpt>
      <trkpt lat="43.65708" lon="1.39156">
        <ele>124</ele>
        <time>2024-04-09T17:58:50Z</time>
      </trkpt>
      <trkpt lat="43.65705" lon="1.39153">
        <ele>124</ele>
        <time>2024-04-09T17:58:51Z</time>
      </trkpt>
      <trkpt lat="43.65702" lon="1.39151">
        <ele>124</ele>
        <time>2024-04-09T17:58:52Z</time>
      </trkpt>
      <trkpt lat="43.657" lon="1.39149">
        <ele>124</ele>
        <time>2024-04-09T17:58:53Z</time>
      </trkpt>
      <trkpt lat="43.65697" lon="1.39146">
        <ele>124</ele>
        <time>2024-04-09T17:58:54Z</time>
      </trkpt>
      <trkpt lat="43.65695" lon="1.39144">
        <ele>124</ele>
        <time>2024-04-09T17:58:55Z</time>
      </trkpt>
      <trkpt lat="43.65692" lon="1.39141">
        <ele>124</ele>
        <time>2024-04-09T17:58:56Z</time>
      </trkpt>
      <trkpt lat="43.6569" lon="1.39139">
        <ele>124</ele>
        <time>2024-04-09T17:58:57Z</time>
      </trkpt>
      <trkpt lat="43.65688" lon="1.39137">
        <ele>124</ele>
        <time>2024-04-09T17:58:58Z</time>
      </trkpt>
      <trkpt lat="43.65686" lon="1.39135">
        <ele>124</ele>
        <time>2024-04-09T17:58:59Z</time>
      </trkpt>
      <trkpt lat="43.65684" lon="1.39134">
        <ele>124</ele>
        <time>2024-04-09T17:59:00Z</time>
      </trkpt>
      <trkpt lat="43.65681" lon="1.39133">
        <ele>124</ele>
        <time>2024-04-09T17:59:01Z</time>
      </trkpt>
      <trkpt lat="43.65679" lon="1.39132">
        <ele>124</ele>
        <time>2024-04-09T17:59:02Z</time>
      </trkpt>
      <trkpt lat="43.65676" lon="1.39131">
        <ele>124</ele>
        <time>2024-04-09T17:59:03Z</time>
      </trkpt>
      <trkpt lat="43.65673" lon="1.39131">
        <ele>124</ele>
        <time>2024-04-09T17:59:04Z</time>
      </trkpt>
      <trkpt lat="43.6567" lon="1.39131">
        <ele>124</ele>
        <time>2024-04-09T17:59:05Z</time>
      </trkpt>
      <trkpt lat="43.65667" lon="1.39131">
        <ele>124</ele>
        <time>2024-04-09T17:59:06Z</time>
      </trkpt>
      <trkpt lat="43.65664" lon="1.39131">
        <ele>124</ele>
        <time>2024-04-09T17:59:07Z</time>
      </trkpt>
      <trkpt lat="43.65662" lon="1.3913">
        <ele>124</ele>
        <time>2024-04-09T17:59:08Z</time>
      </trkpt>
      <trkpt lat="43.65659" lon="1.39128">
        <ele>124</ele>
        <time>2024-04-09T17:59:09Z</time>
      </trkpt>
      <trkpt lat="43.65657" lon="1.39126">
        <ele>124</ele>
        <time>2024-04-09T17:59:10Z</time>
      </trkpt>
      <trkpt lat="43.65654" lon="1.39124">
        <ele>124</ele>
        <time>2024-04-09T17:59:11Z</time>
      </trkpt>
      <trkpt lat="43.65652" lon="1.39123">
        <ele>124</ele>
        <time>2024-04-09T17:59:12Z</time>
      </trkpt>
      <trkpt lat="43.6565" lon="1.39121">
        <ele>124</ele>
        <time>2024-04-09T17:59:13Z</time>
      </trkpt>
      <trkpt lat="43.65647" lon="1.39119">
        <ele>124</ele>
        <time>2024-04-09T17:59:14Z</time>
      </trkpt>
      <trkpt lat="43.65645" lon="1.39117">
        <ele>125</ele>
        <time>2024-04-09T17:59:15Z</time>
      </trkpt>
      <trkpt lat="43.65643" lon="1.39116">
        <ele>125</ele>
        <time>2024-04-09T17:59:16Z</time>
      </trkpt>
      <trkpt lat="43.6564" lon="1.39114">
        <ele>125</ele>
        <time>2024-04-09T17:59:17Z</time>
      </trkpt>
      <trkpt lat="43.65638" lon="1.39113">
        <ele>125</ele>
        <time>2024-04-09T17:59:18Z</time>
      </trkpt>
      <trkpt lat="43.65635" lon="1.39111">
        <ele>125</ele>
        <time>2024-04-09T17:59:19Z</time>
      </trkpt>
      <trkpt lat="43.65633" lon="1.39109">
        <ele>125</ele>
        <time>2024-04-09T17:59:20Z</time>
      </trkpt>
      <trkpt lat="43.65631" lon="1.39108">
        <ele>125</ele>
        <time>2024-04-09T17:59:21Z</time>
      </trkpt>
      <trkpt lat="43.65628" lon="1.39106">
        <ele>124</ele>
        <time>2024-04-09T17:59:22Z</time>
      </trkpt>
      <trkpt lat="43.65626" lon="1.39104">
        <ele>124</ele>
        <time>2024-04-09T17:59:23Z</time>
      </trkpt>
      <trkpt lat="43.65624" lon="1.39101">
        <ele>125</ele>
        <time>2024-04-09T17:59:24Z</time>
      </trkpt>
      <trkpt lat="43.65624" lon="1.39101">
        <ele>125</ele>
        <time>2024-04-09T17:59:25Z</time>
      </trkpt>
      <trkpt lat="43.65619" lon="1.39097">
        <ele>125</ele>
        <time>2024-04-09T17:59:26Z</time>
      </trkpt>
      <trkpt lat="43.65617" lon="1.39095">
        <ele>125</ele>
        <time>2024-04-09T17:59:27Z</time>
      </trkpt>
      <trkpt lat="43.65614" lon="1.39093">
        <ele>124</ele>
        <time>2024-04-09T17:59:28Z</time>
      </trkpt>
      <trkpt lat="43.65612" lon="1.39092">
        <ele>124</ele>
        <time>2024-04-09T17:59:29Z</time>
      </trkpt>
      <trkpt lat="43.6561" lon="1.3909">
        <ele>124</ele>
        <time>2024-04-09T17:59:30Z</time>
      </trkpt>
      <trkpt lat="43.65607" lon="1.39089">
        <ele>124</ele>
        <time>2024-04-09T17:59:31Z</time>
      </trkpt>
      <trkpt lat="43.65605" lon="1.39088">
        <ele>124</ele>
        <time>2024-04-09T17:59:32Z</time>
      </trkpt>
      <trkpt lat="43.65602" lon="1.39086">
        <ele>124</ele>
        <time>2024-04-09T17:59:33Z</time>
      </trkpt>
      <trkpt lat="43.65599" lon="1.39085">
        <ele>124</ele>
        <time>2024-04-09T17:59:34Z</time>
      </trkpt>
      <trkpt lat="43.65597" lon="1.39084">
        <ele>124</ele>
        <time>2024-04-09T17:59:35Z</time>
      </trkpt>
      <trkpt lat="43.65594" lon="1.39083">
        <ele>124</ele>
        <time>2024-04-09T17:59:36Z</time>
      </trkpt>
      <trkpt lat="43.65592" lon="1.39082">
        <ele>124</ele>
        <time>2024-04-09T17:59:37Z</time>
      </trkpt>
      <trkpt lat="43.6559" lon="1.3908">
        <ele>124</ele>
        <time>2024-04-09T17:59:38Z</time>
      </trkpt>
      <trkpt lat="43.65587" lon="1.39078">
        <ele>124</ele>
        <time>2024-04-09T17:59:39Z</time>
      </trkpt>
      <trkpt lat="43.65585" lon="1.39077">
        <ele>124</ele>
        <time>2024-04-09T17:59:40Z</time>
      </trkpt>
      <trkpt lat="43.65582" lon="1.39076">
        <ele>124</ele>
        <time>2024-04-09T17:59:41Z</time>
      </trkpt>
      <trkpt lat="43.6558" lon="1.39074">
        <ele>124</ele>
        <time>2024-04-09T17:59:42Z</time>
      </trkpt>
      <trkpt lat="43.65577" lon="1.39072">
        <ele>124</ele>
        <time>2024-04-09T17:59:43Z</time>
      </trkpt>
      <trkpt lat="43.65575" lon="1.3907">
        <ele>124</ele>
        <time>2024-04-09T17:59:44Z</time>
      </trkpt>
      <trkpt lat="43.65573" lon="1.39068">
        <ele>125</ele>
        <time>2024-04-09T17:59:45Z</time>
      </trkpt>
      <trkpt lat="43.6557" lon="1.39066">
        <ele>125</ele>
        <time>2024-04-09T17:59:46Z</time>
      </trkpt>
      <trkpt lat="43.65568" lon="1.39064">
        <ele>125</ele>
        <time>2024-04-09T17:59:47Z</time>
      </trkpt>
      <trkpt lat="43.65566" lon="1.39061">
        <ele>125</ele>
        <time>2024-04-09T17:59:48Z</time>
      </trkpt>
      <trkpt lat="43.65563" lon="1.39059">
        <ele>125</ele>
        <time>2024-04-09T17:59:49Z</time>
      </trkpt>
      <trkpt lat="43.65561" lon="1.39056">
        <ele>125</ele>
        <time>2024-04-09T17:59:50Z</time>
      </trkpt>
      <trkpt lat="43.65559" lon="1.39054">
        <ele>125</ele>
        <time>2024-04-09T17:59:51Z</time>
      </trkpt>
      <trkpt lat="43.65557" lon="1.39052">
        <ele>125</ele>
        <time>2024-04-09T17:59:52Z</time>
      </trkpt>
      <trkpt lat="43.65555" lon="1.3905">
        <ele>125</ele>
        <time>2024-04-09T17:59:53Z</time>
      </trkpt>
      <trkpt lat="43.65553" lon="1.39048">
        <ele>125</ele>
        <time>2024-04-09T17:59:54Z</time>
      </trkpt>
      <trkpt lat="43.6555" lon="1.39047">
        <ele>125</ele>
        <time>2024-04-09T17:59:55Z</time>
      </trkpt>
      <trkpt lat="43.65548" lon="1.39044">
        <ele>125</ele>
        <time>2024-04-09T17:59:56Z</time>
      </trkpt>
      <trkpt lat="43.65546" lon="1.39042">
        <ele>125</ele>
        <time>2024-04-09T17:59:57Z</time>
      </trkpt>
      <trkpt lat="43.65544" lon="1.3904">
        <ele>125</ele>
        <time>2024-04-09T17:59:58Z</time>
      </trkpt>
      <trkpt lat="43.65541" lon="1.39039">
        <ele>125</ele>
        <time>2024-04-09T17:59:59Z</time>
      </trkpt>
      <trkpt lat="43.65539" lon="1.39037">
        <ele>125</ele>
        <time>2024-04-09T18:00:00Z</time>
      </trkpt>
      <trkpt lat="43.65537" lon="1.39035">
        <ele>125</ele>
        <time>2024-04-09T18:00:01Z</time>
      </trkpt>
      <trkpt lat="43.65535" lon="1.39034">
        <ele>125</ele>
        <time>2024-04-09T18:00:02Z</time>
      </trkpt>
      <trkpt lat="43.65532" lon="1.39033">
        <ele>125</ele>
        <time>2024-04-09T18:00:03Z</time>
      </trkpt>
      <trkpt lat="43.6553" lon="1.39032">
        <ele>125</ele>
        <time>2024-04-09T18:00:04Z</time>
      </trkpt>
      <trkpt lat="43.65528" lon="1.39031">
        <ele>125</ele>
        <time>2024-04-09T18:00:05Z</time>
      </trkpt>
      <trkpt lat="43.65525" lon="1.3903">
        <ele>125</ele>
        <time>2024-04-09T18:00:06Z</time>
      </trkpt>
      <trkpt lat="43.65523" lon="1.39029">
        <ele>125</ele>
        <time>2024-04-09T18:00:07Z</time>
      </trkpt>
      <trkpt lat="43.6552" lon="1.39028">
        <ele>125</ele>
        <time>2024-04-09T18:00:08Z</time>
      </trkpt>
      <trkpt lat="43.65518" lon="1.39026">
        <ele>125</ele>
        <time>2024-04-09T18:00:09Z</time>
      </trkpt>
      <trkpt lat="43.65516" lon="1.39025">
        <ele>125</ele>
        <time>2024-04-09T18:00:10Z</time>
      </trkpt>
      <trkpt lat="43.65514" lon="1.39024">
        <ele>125</ele>
        <time>2024-04-09T18:00:11Z</time>
      </trkpt>
      <trkpt lat="43.65512" lon="1.39023">
        <ele>125</ele>
        <time>2024-04-09T18:00:12Z</time>
      </trkpt>
      <trkpt lat="43.65509" lon="1.39023">
        <ele>125</ele>
        <time>2024-04-09T18:00:13Z</time>
      </trkpt>
      <trkpt lat="43.65507" lon="1.39023">
        <ele>125</ele>
        <time>2024-04-09T18:00:14Z</time>
      </trkpt>
      <trkpt lat="43.65504" lon="1.39023">
        <ele>125</ele>
        <time>2024-04-09T18:00:15Z</time>
      </trkpt>
      <trkpt lat="43.65501" lon="1.39022">
        <ele>125</ele>
        <time>2024-04-09T18:00:16Z</time>
      </trkpt>
      <trkpt lat="43.65498" lon="1.39022">
        <ele>125</ele>
        <time>2024-04-09T18:00:17Z</time>
      </trkpt>
      <trkpt lat="43.65496" lon="1.39021">
        <ele>125</ele>
        <time>2024-04-09T18:00:18Z</time>
      </trkpt>
      <trkpt lat="43.65494" lon="1.3902">
        <ele>125</ele>
        <time>2024-04-09T18:00:19Z</time>
      </trkpt>
      <trkpt lat="43.65492" lon="1.39018">
        <ele>125</ele>
        <time>2024-04-09T18:00:20Z</time>
      </trkpt>
      <trkpt lat="43.65489" lon="1.39016">
        <ele>126</ele>
        <time>2024-04-09T18:00:21Z</time>
      </trkpt>
      <trkpt lat="43.65487" lon="1.39014">
        <ele>126</ele>
        <time>2024-04-09T18:00:22Z</time>
      </trkpt>
      <trkpt lat="43.65485" lon="1.39013">
        <ele>126</ele>
        <time>2024-04-09T18:00:23Z</time>
      </trkpt>
      <trkpt lat="43.65483" lon="1.39011">
        <ele>126</ele>
        <time>2024-04-09T18:00:24Z</time>
      </trkpt>
      <trkpt lat="43.65481" lon="1.39009">
        <ele>126</ele>
        <time>2024-04-09T18:00:25Z</time>
      </trkpt>
      <trkpt lat="43.6548" lon="1.39007">
        <ele>127</ele>
        <time>2024-04-09T18:00:26Z</time>
      </trkpt>
      <trkpt lat="43.65478" lon="1.39005">
        <ele>127</ele>
        <time>2024-04-09T18:00:27Z</time>
      </trkpt>
      <trkpt lat="43.65476" lon="1.39004">
        <ele>127</ele>
        <time>2024-04-09T18:00:28Z</time>
      </trkpt>
      <trkpt lat="43.65474" lon="1.39002">
        <ele>127</ele>
        <time>2024-04-09T18:00:29Z</time>
      </trkpt>
      <trkpt lat="43.65472" lon="1.39001">
        <ele>127</ele>
        <time>2024-04-09T18:00:30Z</time>
      </trkpt>
      <trkpt lat="43.6547" lon="1.38999">
        <ele>127</ele>
        <time>2024-04-09T18:00:31Z</time>
      </trkpt>
      <trkpt lat="43.65468" lon="1.38996">
        <ele>127</ele>
        <time>2024-04-09T18:00:32Z</time>
      </trkpt>
      <trkpt lat="43.65466" lon="1.38993">
        <ele>127</ele>
        <time>2024-04-09T18:00:33Z</time>
      </trkpt>
      <trkpt lat="43.65465" lon="1.3899">
        <ele>127</ele>
        <time>2024-04-09T18:00:34Z</time>
      </trkpt>
      <trkpt lat="43.65463" lon="1.38987">
        <ele>127</ele>
        <time>2024-04-09T18:00:35Z</time>
      </trkpt>
      <trkpt lat="43.65462" lon="1.38984">
        <ele>127</ele>
        <time>2024-04-09T18:00:36Z</time>
      </trkpt>
      <trkpt lat="43.65461" lon="1.38982">
        <ele>127</ele>
        <time>2024-04-09T18:00:37Z</time>
      </trkpt>
      <trkpt lat="43.6546" lon="1.38979">
        <ele>127</ele>
        <time>2024-04-09T18:00:38Z</time>
      </trkpt>
      <trkpt lat="43.65459" lon="1.38976">
        <ele>127</ele>
        <time>2024-04-09T18:00:39Z</time>
      </trkpt>
      <trkpt lat="43.65458" lon="1.38973">
        <ele>127</ele>
        <time>2024-04-09T18:00:40Z</time>
      </trkpt>
      <trkpt lat="43.65457" lon="1.3897">
        <ele>128</ele>
        <time>2024-04-09T18:00:41Z</time>
      </trkpt>
      <trkpt lat="43.65456" lon="1.38966">
        <ele>128</ele>
        <time>2024-04-09T18:00:42Z</time>
      </trkpt>
      <trkpt lat="43.65454" lon="1.38963">
        <ele>128</ele>
        <time>2024-04-09T18:00:43Z</time>
      </trkpt>
      <trkpt lat="43.65453" lon="1.3896">
        <ele>128</ele>
        <time>2024-04-09T18:00:44Z</time>
      </trkpt>
      <trkpt lat="43.65452" lon="1.38958">
        <ele>128</ele>
        <time>2024-04-09T18:00:45Z</time>
      </trkpt>
      <trkpt lat="43.65451" lon="1.38957">
        <ele>128</ele>
        <time>2024-04-09T18:00:46Z</time>
      </trkpt>
      <trkpt lat="43.65449" lon="1.38955">
        <ele>128</ele>
        <time>2024-04-09T18:00:47Z</time>
      </trkpt>
      <trkpt lat="43.65448" lon="1.38953">
        <ele>128</ele>
        <time>2024-04-09T18:00:48Z</time>
      </trkpt>
      <trkpt lat="43.65447" lon="1.38951">
        <ele>128</ele>
        <time>2024-04-09T18:00:49Z</time>
      </trkpt>
      <trkpt lat="43.65447" lon="1.38951">
        <ele>128</ele>
        <time>2024-04-09T18:00:50Z</time>
      </trkpt>
      <trkpt lat="43.65444" lon="1.38947">
        <ele>129</ele>
        <time>2024-04-09T18:00:51Z</time>
      </trkpt>
      <trkpt lat="43.65444" lon="1.38947">
        <ele>129</ele>
        <time>2024-04-09T18:00:52Z</time>
      </trkpt>
      <trkpt lat="43.65442" lon="1.38944">
        <ele>129</ele>
        <time>2024-04-09T18:00:53Z</time>
      </trkpt>
      <trkpt lat="43.65442" lon="1.38944">
        <ele>129</ele>
        <time>2024-04-09T18:00:54Z</time>
      </trkpt>
      <trkpt lat="43.6544" lon="1.38942">
        <ele>129</ele>
        <time>2024-04-09T18:00:55Z</time>
      </trkpt>
      <trkpt lat="43.6544" lon="1.38942">
        <ele>130</ele>
        <time>2024-04-09T18:00:56Z</time>
      </trkpt>
      <trkpt lat="43.65439" lon="1.38938">
        <ele>130</ele>
        <time>2024-04-09T18:00:57Z</time>
      </trkpt>
      <trkpt lat="43.65439" lon="1.38938">
        <ele>130</ele>
        <time>2024-04-09T18:00:58Z</time>
      </trkpt>
      <trkpt lat="43.65438" lon="1.38935">
        <ele>131</ele>
        <time>2024-04-09T18:00:59Z</time>
      </trkpt>
      <trkpt lat="43.65438" lon="1.38935">
        <ele>131</ele>
        <time>2024-04-09T18:01:00Z</time>
      </trkpt>
      <trkpt lat="43.65436" lon="1.38932">
        <ele>131</ele>
        <time>2024-04-09T18:01:01Z</time>
      </trkpt>
      <trkpt lat="43.65436" lon="1.38932">
        <ele>132</ele>
        <time>2024-04-09T18:01:02Z</time>
      </trkpt>
      <trkpt lat="43.65434" lon="1.38928">
        <ele>132</ele>
        <time>2024-04-09T18:01:03Z</time>
      </trkpt>
      <trkpt lat="43.65434" lon="1.38928">
        <ele>133</ele>
        <time>2024-04-09T18:01:04Z</time>
      </trkpt>
      <trkpt lat="43.65432" lon="1.38925">
        <ele>133</ele>
        <time>2024-04-09T18:01:05Z</time>
      </trkpt>
      <trkpt lat="43.65432" lon="1.38925">
        <ele>133</ele>
        <time>2024-04-09T18:01:06Z</time>
      </trkpt>
      <trkpt lat="43.6543" lon="1.38921">
        <ele>133</ele>
        <time>2024-04-09T18:01:07Z</time>
      </trkpt>
      <trkpt lat="43.6543" lon="1.38921">
        <ele>133</ele>
        <time>2024-04-09T18:01:08Z</time>
      </trkpt>
      <trkpt lat="43.65428" lon="1.38918">
        <ele>134</ele>
        <time>2024-04-09T18:01:09Z</time>
      </trkpt>
      <trkpt lat="43.65428" lon="1.38918">
        <ele>134</ele>
        <time>2024-04-09T18:01:10Z</time>
      </trkpt>
      <trkpt lat="43.65427" lon="1.38914">
        <ele>134</ele>
        <time>2024-04-09T18:01:11Z</time>
      </trkpt>
      <trkpt lat="43.65427" lon="1.38914">
        <ele>134</ele>
        <time>2024-04-09T18:01:12Z</time>
      </trkpt>
      <trkpt lat="43.65425" lon="1.38911">
        <ele>134</ele>
        <time>2024-04-09T18:01:13Z</time>
      </trkpt>
      <trkpt lat="43.65425" lon="1.38911">
        <ele>134</ele>
        <time>2024-04-09T18:01:14Z</time>
      </trkpt>
      <trkpt lat="43.65423" lon="1.38907">
        <ele>134</ele>
        <time>2024-04-09T18:01:15Z</time>
      </trkpt>
      <trkpt lat="43.65423" lon="1.38907">
        <ele>134</ele>
        <time>2024-04-09T18:01:16Z</time>
      </trkpt>
      <trkpt lat="43.65422" lon="1.38904">
        <ele>135</ele>
        <time>2024-04-09T18:01:17Z</time>
      </trkpt>
      <trkpt lat="43.65421" lon="1.38901">
        <ele>135</ele>
        <time>2024-04-09T18:01:18Z</time>
      </trkpt>
      <trkpt lat="43.6542" lon="1.38899">
        <ele>135</ele>
        <time>2024-04-09T18:01:19Z</time>
      </trkpt>
      <trkpt lat="43.65419" lon="1.38896">
        <ele>135</ele>
        <time>2024-04-09T18:01:20Z</time>
      </trkpt>
      <trkpt lat="43.65418" lon="1.38894">
        <ele>135</ele>
        <time>2024-04-09T18:01:21Z</time>
      </trkpt>
      <trkpt lat="43.65418" lon="1.38892">
        <ele>135</ele>
        <time>2024-04-09T18:01:22Z</time>
      </trkpt>
      <trkpt lat="43.65417" lon="1.38889">
        <ele>135</ele>
        <time>2024-04-09T18:01:23Z</time>
      </trkpt>
      <trkpt lat="43.65417" lon="1.38886">
        <ele>135</ele>
        <time>2024-04-09T18:01:24Z</time>
      </trkpt>
      <trkpt lat="43.65416" lon="1.38883">
        <ele>136</ele>
        <time>2024-04-09T18:01:25Z</time>
      </trkpt>
      <trkpt lat="43.65416" lon="1.3888">
        <ele>136</ele>
        <time>2024-04-09T18:01:26Z</time>
      </trkpt>
      <trkpt lat="43.65415" lon="1.38877">
        <ele>136</ele>
        <time>2024-04-09T18:01:27Z</time>
      </trkpt>
      <trkpt lat="43.65414" lon="1.38873">
        <ele>136</ele>
        <time>2024-04-09T18:01:28Z</time>
      </trkpt>
      <trkpt lat="43.65414" lon="1.3887">
        <ele>136</ele>
        <time>2024-04-09T18:01:29Z</time>
      </trkpt>
      <trkpt lat="43.65413" lon="1.38867">
        <ele>137</ele>
        <time>2024-04-09T18:01:30Z</time>
      </trkpt>
      <trkpt lat="43.65412" lon="1.38864">
        <ele>137</ele>
        <time>2024-04-09T18:01:31Z</time>
      </trkpt>
      <trkpt lat="43.65411" lon="1.38862">
        <ele>138</ele>
        <time>2024-04-09T18:01:32Z</time>
      </trkpt>
      <trkpt lat="43.65409" lon="1.3886">
        <ele>138</ele>
        <time>2024-04-09T18:01:33Z</time>
      </trkpt>
      <trkpt lat="43.65407" lon="1.38859">
        <ele>138</ele>
        <time>2024-04-09T18:01:34Z</time>
      </trkpt>
      <trkpt lat="43.65406" lon="1.38858">
        <ele>138</ele>
        <time>2024-04-09T18:01:35Z</time>
      </trkpt>
      <trkpt lat="43.65404" lon="1.38858">
        <ele>138</ele>
        <time>2024-04-09T18:01:36Z</time>
      </trkpt>
      <trkpt lat="43.65404" lon="1.38858">
        <ele>139</ele>
        <time>2024-04-09T18:01:37Z</time>
      </trkpt>
      <trkpt lat="43.65399" lon="1.38857">
        <ele>139</ele>
        <time>2024-04-09T18:01:38Z</time>
      </trkpt>
      <trkpt lat="43.65397" lon="1.38857">
        <ele>139</ele>
        <time>2024-04-09T18:01:39Z</time>
      </trkpt>
      <trkpt lat="43.65395" lon="1.38858">
        <ele>139</ele>
        <time>2024-04-09T18:01:40Z</time>
      </trkpt>
      <trkpt lat="43.65392" lon="1.38859">
        <ele>139</ele>
        <time>2024-04-09T18:01:41Z</time>
      </trkpt>
      <trkpt lat="43.65389" lon="1.38859">
        <ele>139</ele>
        <time>2024-04-09T18:01:42Z</time>
      </trkpt>
      <trkpt lat="43.65386" lon="1.38858">
        <ele>139</ele>
        <time>2024-04-09T18:01:43Z</time>
      </trkpt>
      <trkpt lat="43.65384" lon="1.38858">
        <ele>139</ele>
        <time>2024-04-09T18:01:44Z</time>
      </trkpt>
      <trkpt lat="43.65382" lon="1.38857">
        <ele>139</ele>
        <time>2024-04-09T18:01:45Z</time>
      </trkpt>
      <trkpt lat="43.65379" lon="1.38856">
        <ele>139</ele>
        <time>2024-04-09T18:01:46Z</time>
      </trkpt>
      <trkpt lat="43.65377" lon="1.38855">
        <ele>139</ele>
        <time>2024-04-09T18:01:47Z</time>
      </trkpt>
      <trkpt lat="43.65375" lon="1.38854">
        <ele>139</ele>
        <time>2024-04-09T18:01:48Z</time>
      </trkpt>
      <trkpt lat="43.65372" lon="1.38853">
        <ele>139</ele>
        <time>2024-04-09T18:01:49Z</time>
      </trkpt>
      <trkpt lat="43.6537" lon="1.38851">
        <ele>140</ele>
        <time>2024-04-09T18:01:50Z</time>
      </trkpt>
      <trkpt lat="43.65367" lon="1.3885">
        <ele>140</ele>
        <time>2024-04-09T18:01:51Z</time>
      </trkpt>
      <trkpt lat="43.65365" lon="1.38849">
        <ele>140</ele>
        <time>2024-04-09T18:01:52Z</time>
      </trkpt>
      <trkpt lat="43.65363" lon="1.38847">
        <ele>140</ele>
        <time>2024-04-09T18:01:53Z</time>
      </trkpt>
      <trkpt lat="43.65361" lon="1.38845">
        <ele>140</ele>
        <time>2024-04-09T18:01:54Z</time>
      </trkpt>
      <trkpt lat="43.65358" lon="1.38843">
        <ele>140</ele>
        <time>2024-04-09T18:01:55Z</time>
      </trkpt>
      <trkpt lat="43.65357" lon="1.38841">
        <ele>140</ele>
        <time>2024-04-09T18:01:56Z</time>
      </trkpt>
      <trkpt lat="43.65355" lon="1.38839">
        <ele>141</ele>
        <time>2024-04-09T18:01:57Z</time>
      </trkpt>
      <trkpt lat="43.65353" lon="1.38837">
        <ele>141</ele>
        <time>2024-04-09T18:01:58Z</time>
      </trkpt>
      <trkpt lat="43.65351" lon="1.38835">
        <ele>141</ele>
        <time>2024-04-09T18:01:59Z</time>
      </trkpt>
      <trkpt lat="43.65349" lon="1.38833">
        <ele>140</ele>
        <time>2024-04-09T18:02:00Z</time>
      </trkpt>
      <trkpt lat="43.65347" lon="1.3883">
        <ele>141</ele>
        <time>2024-04-09T18:02:01Z</time>
      </trkpt>
      <trkpt lat="43.65345" lon="1.38827">
        <ele>141</ele>
        <time>2024-04-09T18:02:02Z</time>
      </trkpt>
      <trkpt lat="43.65343" lon="1.38824">
        <ele>141</ele>
        <time>2024-04-09T18:02:03Z</time>
      </trkpt>
      <trkpt lat="43.65342" lon="1.38822">
        <ele>141</ele>
        <time>2024-04-09T18:02:04Z</time>
      </trkpt>
      <trkpt lat="43.6534" lon="1.38819">
        <ele>141</ele>
        <time>2024-04-09T18:02:05Z</time>
      </trkpt>
      <trkpt lat="43.65339" lon="1.38816">
        <ele>141</ele>
        <time>2024-04-09T18:02:06Z</time>
      </trkpt>
      <trkpt lat="43.65338" lon="1.38813">
        <ele>141</ele>
        <time>2024-04-09T18:02:07Z</time>
      </trkpt>
      <trkpt lat="43.65337" lon="1.3881">
        <ele>141</ele>
        <time>2024-04-09T18:02:08Z</time>
      </trkpt>
      <trkpt lat="43.65335" lon="1.38807">
        <ele>141</ele>
        <time>2024-04-09T18:02:09Z</time>
      </trkpt>
      <trkpt lat="43.65335" lon="1.38804">
        <ele>141</ele>
        <time>2024-04-09T18:02:10Z</time>
      </trkpt>
      <trkpt lat="43.65334" lon="1.38802">
        <ele>141</ele>
        <time>2024-04-09T18:02:11Z</time>
      </trkpt>
      <trkpt lat="43.65333" lon="1.38799">
        <ele>141</ele>
        <time>2024-04-09T18:02:12Z</time>
      </trkpt>
      <trkpt lat="43.65332" lon="1.38795">
        <ele>141</ele>
        <time>2024-04-09T18:02:13Z</time>
      </trkpt>
      <trkpt lat="43.65331" lon="1.38792">
        <ele>141</ele>
        <time>2024-04-09T18:02:14Z</time>
      </trkpt>
      <trkpt lat="43.65329" lon="1.38788">
        <ele>141</ele>
        <time>2024-04-09T18:02:15Z</time>
      </trkpt>
      <trkpt lat="43.65328" lon="1.38784">
        <ele>141</ele>
        <time>2024-04-09T18:02:16Z</time>
      </trkpt>
      <trkpt lat="43.65327" lon="1.3878">
        <ele>141</ele>
        <time>2024-04-09T18:02:17Z</time>
      </trkpt>
      <trkpt lat="43.65325" lon="1.38776">
        <ele>141</ele>
        <time>2024-04-09T18:02:18Z</time>
      </trkpt>
      <trkpt lat="43.65324" lon="1.38772">
        <ele>141</ele>
        <time>2024-04-09T18:02:19Z</time>
      </trkpt>
      <trkpt lat="43.65323" lon="1.38769">
        <ele>141</ele>
        <time>2024-04-09T18:02:20Z</time>
      </trkpt>
      <trkpt lat="43.65322" lon="1.38765">
        <ele>141</ele>
        <time>2024-04-09T18:02:21Z</time>
      </trkpt>
      <trkpt lat="43.65322" lon="1.38761">
        <ele>140</ele>
        <time>2024-04-09T18:02:22Z</time>
      </trkpt>
      <trkpt lat="43.65321" lon="1.38757">
        <ele>140</ele>
        <time>2024-04-09T18:02:23Z</time>
      </trkpt>
      <trkpt lat="43.6532" lon="1.38754">
        <ele>139</ele>
        <time>2024-04-09T18:02:24Z</time>
      </trkpt>
      <trkpt lat="43.65319" lon="1.38751">
        <ele>139</ele>
        <time>2024-04-09T18:02:25Z</time>
      </trkpt>
      <trkpt lat="43.65318" lon="1.38749">
        <ele>139</ele>
        <time>2024-04-09T18:02:26Z</time>
      </trkpt>
      <trkpt lat="43.65317" lon="1.38746">
        <ele>139</ele>
        <time>2024-04-09T18:02:27Z</time>
      </trkpt>
      <trkpt lat="43.65316" lon="1.38743">
        <ele>139</ele>
        <time>2024-04-09T18:02:28Z</time>
      </trkpt>
      <trkpt lat="43.65315" lon="1.3874">
        <ele>139</ele>
        <time>2024-04-09T18:02:29Z</time>
      </trkpt>
      <trkpt lat="43.65315" lon="1.38736">
        <ele>139</ele>
        <time>2024-04-09T18:02:30Z</time>
      </trkpt>
      <trkpt lat="43.65314" lon="1.38732">
        <ele>139</ele>
        <time>2024-04-09T18:02:31Z</time>
      </trkpt>
      <trkpt lat="43.65313" lon="1.38729">
        <ele>139</ele>
        <time>2024-04-09T18:02:32Z</time>
      </trkpt>
      <trkpt lat="43.65312" lon="1.38725">
        <ele>139</ele>
        <time>2024-04-09T18:02:33Z</time>
      </trkpt>
      <trkpt lat="43.65311" lon="1.38722">
        <ele>139</ele>
        <time>2024-04-09T18:02:34Z</time>
      </trkpt>
      <trkpt lat="43.6531" lon="1.38719">
        <ele>139</ele>
        <time>2024-04-09T18:02:35Z</time>
      </trkpt>
      <trkpt lat="43.65309" lon="1.38716">
        <ele>139</ele>
        <time>2024-04-09T18:02:36Z</time>
      </trkpt>
      <trkpt lat="43.65308" lon="1.38713">
        <ele>139</ele>
        <time>2024-04-09T18:02:37Z</time>
      </trkpt>
      <trkpt lat="43.65306" lon="1.3871">
        <ele>139</ele>
        <time>2024-04-09T18:02:38Z</time>
      </trkpt>
      <trkpt lat="43.65306" lon="1.38708">
        <ele>139</ele>
        <time>2024-04-09T18:02:39Z</time>
      </trkpt>
      <trkpt lat="43.65304" lon="1.38705">
        <ele>139</ele>
        <time>2024-04-09T18:02:40Z</time>
      </trkpt>
      <trkpt lat="43.65303" lon="1.38702">
        <ele>139</ele>
        <time>2024-04-09T18:02:41Z</time>
      </trkpt>
      <trkpt lat="43.65302" lon="1.38699">
        <ele>139</ele>
        <time>2024-04-09T18:02:42Z</time>
      </trkpt>
      <trkpt lat="43.65301" lon="1.38695">
        <ele>139</ele>
        <time>2024-04-09T18:02:43Z</time>
      </trkpt>
      <trkpt lat="43.653" lon="1.38692">
        <ele>139</ele>
        <time>2024-04-09T18:02:44Z</time>
      </trkpt>
      <trkpt lat="43.65298" lon="1.38688">
        <ele>139</ele>
        <time>2024-04-09T18:02:45Z</time>
      </trkpt>
      <trkpt lat="43.65297" lon="1.38685">
        <ele>138</ele>
        <time>2024-04-09T18:02:46Z</time>
      </trkpt>
      <trkpt lat="43.65296" lon="1.38681">
        <ele>138</ele>
        <time>2024-04-09T18:02:47Z</time>
      </trkpt>
      <trkpt lat="43.65295" lon="1.38677">
        <ele>138</ele>
        <time>2024-04-09T18:02:48Z</time>
      </trkpt>
      <trkpt lat="43.65294" lon="1.38674">
        <ele>139</ele>
        <time>2024-04-09T18:02:49Z</time>
      </trkpt>
      <trkpt lat="43.65292" lon="1.3867">
        <ele>139</ele>
        <time>2024-04-09T18:02:50Z</time>
      </trkpt>
      <trkpt lat="43.65291" lon="1.38666">
        <ele>139</ele>
        <time>2024-04-09T18:02:51Z</time>
      </trkpt>
      <trkpt lat="43.6529" lon="1.38663">
        <ele>139</ele>
        <time>2024-04-09T18:02:52Z</time>
      </trkpt>
      <trkpt lat="43.65289" lon="1.38659">
        <ele>139</ele>
        <time>2024-04-09T18:02:53Z</time>
      </trkpt>
      <trkpt lat="43.65288" lon="1.38656">
        <ele>139</ele>
        <time>2024-04-09T18:02:54Z</time>
      </trkpt>
      <trkpt lat="43.65286" lon="1.38652">
        <ele>139</ele>
        <time>2024-04-09T18:02:55Z</time>
      </trkpt>
      <trkpt lat="43.65285" lon="1.38649">
        <ele>139</ele>
        <time>2024-04-09T18:02:56Z</time>
      </trkpt>
      <trkpt lat="43.65283" lon="1.38647">
        <ele>138</ele>
        <time>2024-04-09T18:02:57Z</time>
      </trkpt>
      <trkpt lat="43.65281" lon="1.38644">
        <ele>139</ele>
        <time>2024-04-09T18:02:58Z</time>
      </trkpt>
      <trkpt lat="43.65279" lon="1.38641">
        <ele>139</ele>
        <time>2024-04-09T18:02:59Z</time>
      </trkpt>
      <trkpt lat="43.65278" lon="1.38639">
        <ele>139</ele>
        <time>2024-04-09T18:03:00Z</time>
      </trkpt>
      <trkpt lat="43.65276" lon="1.38637">
        <ele>139</ele>
        <time>2024-04-09T18:03:01Z</time>
      </trkpt>
      <trkpt lat="43.65275" lon="1.38634">
        <ele>139</ele>
        <time>2024-04-09T18:03:02Z</time>
      </trkpt>
      <trkpt lat="43.65273" lon="1.38631">
        <ele>139</ele>
        <time>2024-04-09T18:03:03Z</time>
      </trkpt>
      <trkpt lat="43.65271" lon="1.38628">
        <ele>139</ele>
        <time>2024-04-09T18:03:04Z</time>
      </trkpt>
      <trkpt lat="43.65269" lon="1.38625">
        <ele>139</ele>
        <time>2024-04-09T18:03:05Z</time>
      </trkpt>
      <trkpt lat="43.65267" lon="1.38622">
        <ele>139</ele>
        <time>2024-04-09T18:03:06Z</time>
      </trkpt>
      <trkpt lat="43.65265" lon="1.38618">
        <ele>139</ele>
        <time>2024-04-09T18:03:07Z</time>
      </trkpt>
      <trkpt lat="43.65264" lon="1.38615">
        <ele>138</ele>
        <time>2024-04-09T18:03:08Z</time>
      </trkpt>
      <trkpt lat="43.65262" lon="1.38612">
        <ele>138</ele>
        <time>2024-04-09T18:03:09Z</time>
      </trkpt>
      <trkpt lat="43.6526" lon="1.38609">
        <ele>138</ele>
        <time>2024-04-09T18:03:10Z</time>
      </trkpt>
      <trkpt lat="43.65259" lon="1.38606">
        <ele>138</ele>
        <time>2024-04-09T18:03:11Z</time>
      </trkpt>
      <trkpt lat="43.65259" lon="1.38606">
        <ele>138</ele>
        <time>2024-04-09T18:03:12Z</time>
      </trkpt>
      <trkpt lat="43.65256" lon="1.38601">
        <ele>138</ele>
        <time>2024-04-09T18:03:13Z</time>
      </trkpt>
      <trkpt lat="43.65255" lon="1.38598">
        <ele>138</ele>
        <time>2024-04-09T18:03:14Z</time>
      </trkpt>
      <trkpt lat="43.65254" lon="1.38595">
        <ele>138</ele>
        <time>2024-04-09T18:03:15Z</time>
      </trkpt>
      <trkpt lat="43.65253" lon="1.38591">
        <ele>138</ele>
        <time>2024-04-09T18:03:16Z</time>
      </trkpt>
      <trkpt lat="43.65252" lon="1.38588">
        <ele>138</ele>
        <time>2024-04-09T18:03:17Z</time>
      </trkpt>
      <trkpt lat="43.65251" lon="1.38584">
        <ele>138</ele>
        <time>2024-04-09T18:03:18Z</time>
      </trkpt>
      <trkpt lat="43.6525" lon="1.38581">
        <ele>138</ele>
        <time>2024-04-09T18:03:19Z</time>
      </trkpt>
      <trkpt lat="43.65249" lon="1.38577">
        <ele>138</ele>
        <time>2024-04-09T18:03:20Z</time>
      </trkpt>
      <trkpt lat="43.65249" lon="1.38574">
        <ele>138</ele>
        <time>2024-04-09T18:03:21Z</time>
      </trkpt>
      <trkpt lat="43.65248" lon="1.38571">
        <ele>138</ele>
        <time>2024-04-09T18:03:22Z</time>
      </trkpt>
      <trkpt lat="43.65247" lon="1.38568">
        <ele>138</ele>
        <time>2024-04-09T18:03:23Z</time>
      </trkpt>
      <trkpt lat="43.65246" lon="1.38565">
        <ele>138</ele>
        <time>2024-04-09T18:03:24Z</time>
      </trkpt>
      <trkpt lat="43.65245" lon="1.38562">
        <ele>138</ele>
        <time>2024-04-09T18:03:25Z</time>
      </trkpt>
      <trkpt lat="43.65244" lon="1.38559">
        <ele>139</ele>
        <time>2024-04-09T18:03:26Z</time>
      </trkpt>
      <trkpt lat="43.65243" lon="1.38556">
        <ele>139</ele>
        <time>2024-04-09T18:03:27Z</time>
      </trkpt>
      <trkpt lat="43.65242" lon="1.38553">
        <ele>139</ele>
        <time>2024-04-09T18:03:28Z</time>
      </trkpt>
      <trkpt lat="43.65242" lon="1.38549">
        <ele>139</ele>
        <time>2024-04-09T18:03:29Z</time>
      </trkpt>
      <trkpt lat="43.65241" lon="1.38545">
        <ele>139</ele>
        <time>2024-04-09T18:03:30Z</time>
      </trkpt>
      <trkpt lat="43.6524" lon="1.38541">
        <ele>139</ele>
        <time>2024-04-09T18:03:31Z</time>
      </trkpt>
      <trkpt lat="43.65239" lon="1.38537">
        <ele>139</ele>
        <time>2024-04-09T18:03:32Z</time>
      </trkpt>
      <trkpt lat="43.65238" lon="1.38533">
        <ele>139</ele>
        <time>2024-04-09T18:03:33Z</time>
      </trkpt>
      <trkpt lat="43.65238" lon="1.3853">
        <ele>139</ele>
        <time>2024-04-09T18:03:34Z</time>
      </trkpt>
      <trkpt lat="43.65236" lon="1.38526">
        <ele>138</ele>
        <time>2024-04-09T18:03:35Z</time>
      </trkpt>
      <trkpt lat="43.65235" lon="1.38522">
        <ele>138</ele>
        <time>2024-04-09T18:03:36Z</time>
      </trkpt>
      <trkpt lat="43.65234" lon="1.38517">
        <ele>138</ele>
        <time>2024-04-09T18:03:37Z</time>
      </trkpt>
      <trkpt lat="43.65233" lon="1.38513">
        <ele>138</ele>
        <time>2024-04-09T18:03:38Z</time>
      </trkpt>
      <trkpt lat="43.65232" lon="1.38509">
        <ele>139</ele>
        <time>2024-04-09T18:03:39Z</time>
      </trkpt>
      <trkpt lat="43.65231" lon="1.38505">
        <ele>139</ele>
        <time>2024-04-09T18:03:40Z</time>
      </trkpt>
      <trkpt lat="43.65229" lon="1.38501">
        <ele>139</ele>
        <time>2024-04-09T18:03:41Z</time>
      </trkpt>
      <trkpt lat="43.65228" lon="1.38498">
        <ele>139</ele>
        <time>2024-04-09T18:03:42Z</time>
      </trkpt>
      <trkpt lat="43.65227" lon="1.38495">
        <ele>139</ele>
        <time>2024-04-09T18:03:43Z</time>
      </trkpt>
      <trkpt lat="43.65225" lon="1.38491">
        <ele>139</ele>
        <time>2024-04-09T18:03:44Z</time>
      </trkpt>
      <trkpt lat="43.65224" lon="1.38487">
        <ele>139</ele>
        <time>2024-04-09T18:03:45Z</time>
      </trkpt>
      <trkpt lat="43.65223" lon="1.38483">
        <ele>139</ele>
        <time>2024-04-09T18:03:46Z</time>
      </trkpt>
      <trkpt lat="43.65222" lon="1.38479">
        <ele>139</ele>
        <time>2024-04-09T18:03:47Z</time>
      </trkpt>
      <trkpt lat="43.65222" lon="1.38475">
        <ele>139</ele>
        <time>2024-04-09T18:03:48Z</time>
      </trkpt>
      <trkpt lat="43.65221" lon="1.3847">
        <ele>139</ele>
        <time>2024-04-09T18:03:49Z</time>
      </trkpt>
      <trkpt lat="43.65219" lon="1.38467">
        <ele>139</ele>
        <time>2024-04-09T18:03:50Z</time>
      </trkpt>
      <trkpt lat="43.65218" lon="1.38463">
        <ele>139</ele>
        <time>2024-04-09T18:03:51Z</time>
      </trkpt>
      <trkpt lat="43.65217" lon="1.38461">
        <ele>139</ele>
        <time>2024-04-09T18:03:52Z</time>
      </trkpt>
      <trkpt lat="43.65215" lon="1.38457">
        <ele>139</ele>
        <time>2024-04-09T18:03:53Z</time>
      </trkpt>
      <trkpt lat="43.65214" lon="1.38454">
        <ele>139</ele>
        <time>2024-04-09T18:03:54Z</time>
      </trkpt>
      <trkpt lat="43.65213" lon="1.3845">
        <ele>139</ele>
        <time>2024-04-09T18:03:55Z</time>
      </trkpt>
      <trkpt lat="43.65212" lon="1.38445">
        <ele>139</ele>
        <time>2024-04-09T18:03:56Z</time>
      </trkpt>
      <trkpt lat="43.65212" lon="1.38441">
        <ele>140</ele>
        <time>2024-04-09T18:03:57Z</time>
      </trkpt>
      <trkpt lat="43.65211" lon="1.38437">
        <ele>140</ele>
        <time>2024-04-09T18:03:58Z</time>
      </trkpt>
      <trkpt lat="43.6521" lon="1.38434">
        <ele>140</ele>
        <time>2024-04-09T18:03:59Z</time>
      </trkpt>
      <trkpt lat="43.65208" lon="1.3843">
        <ele>140</ele>
        <time>2024-04-09T18:04:00Z</time>
      </trkpt>
      <trkpt lat="43.65207" lon="1.38426">
        <ele>140</ele>
        <time>2024-04-09T18:04:01Z</time>
      </trkpt>
      <trkpt lat="43.65206" lon="1.38422">
        <ele>140</ele>
        <time>2024-04-09T18:04:02Z</time>
      </trkpt>
      <trkpt lat="43.65204" lon="1.38419">
        <ele>140</ele>
        <time>2024-04-09T18:04:03Z</time>
      </trkpt>
      <trkpt lat="43.65203" lon="1.38415">
        <ele>140</ele>
        <time>2024-04-09T18:04:04Z</time>
      </trkpt>
      <trkpt lat="43.65201" lon="1.38412">
        <ele>140</ele>
        <time>2024-04-09T18:04:05Z</time>
      </trkpt>
      <trkpt lat="43.652" lon="1.38409">
        <ele>140</ele>
        <time>2024-04-09T18:04:06Z</time>
      </trkpt>
      <trkpt lat="43.65198" lon="1.38405">
        <ele>140</ele>
        <time>2024-04-09T18:04:07Z</time>
      </trkpt>
      <trkpt lat="43.65196" lon="1.38403">
        <ele>141</ele>
        <time>2024-04-09T18:04:08Z</time>
      </trkpt>
      <trkpt lat="43.65195" lon="1.384">
        <ele>141</ele>
        <time>2024-04-09T18:04:09Z</time>
      </trkpt>
      <trkpt lat="43.65193" lon="1.38398">
        <ele>141</ele>
        <time>2024-04-09T18:04:10Z</time>
      </trkpt>
      <trkpt lat="43.65192" lon="1.38395">
        <ele>141</ele>
        <time>2024-04-09T18:04:11Z</time>
      </trkpt>
      <trkpt lat="43.65191" lon="1.38392">
        <ele>141</ele>
        <time>2024-04-09T18:04:12Z</time>
      </trkpt>
      <trkpt lat="43.65189" lon="1.38389">
        <ele>141</ele>
        <time>2024-04-09T18:04:13Z</time>
      </trkpt>
      <trkpt lat="43.65188" lon="1.38386">
        <ele>141</ele>
        <time>2024-04-09T18:04:14Z</time>
      </trkpt>
      <trkpt lat="43.65187" lon="1.38382">
        <ele>141</ele>
        <time>2024-04-09T18:04:15Z</time>
      </trkpt>
      <trkpt lat="43.65187" lon="1.38379">
        <ele>142</ele>
        <time>2024-04-09T18:04:16Z</time>
      </trkpt>
      <trkpt lat="43.65186" lon="1.38375">
        <ele>142</ele>
        <time>2024-04-09T18:04:17Z</time>
      </trkpt>
      <trkpt lat="43.65185" lon="1.38371">
        <ele>143</ele>
        <time>2024-04-09T18:04:18Z</time>
      </trkpt>
      <trkpt lat="43.65185" lon="1.38367">
        <ele>143</ele>
        <time>2024-04-09T18:04:19Z</time>
      </trkpt>
      <trkpt lat="43.65184" lon="1.38363">
        <ele>143</ele>
        <time>2024-04-09T18:04:20Z</time>
      </trkpt>
      <trkpt lat="43.65184" lon="1.38359">
        <ele>143</ele>
        <time>2024-04-09T18:04:21Z</time>
      </trkpt>
      <trkpt lat="43.65184" lon="1.38355">
        <ele>143</ele>
        <time>2024-04-09T18:04:22Z</time>
      </trkpt>
      <trkpt lat="43.65183" lon="1.38351">
        <ele>143</ele>
        <time>2024-04-09T18:04:23Z</time>
      </trkpt>
      <trkpt lat="43.65183" lon="1.38347">
        <ele>143</ele>
        <time>2024-04-09T18:04:24Z</time>
      </trkpt>
      <trkpt lat="43.65182" lon="1.38344">
        <ele>143</ele>
        <time>2024-04-09T18:04:25Z</time>
      </trkpt>
      <trkpt lat="43.65182" lon="1.3834">
        <ele>143</ele>
        <time>2024-04-09T18:04:26Z</time>
      </trkpt>
      <trkpt lat="43.65181" lon="1.38336">
        <ele>143</ele>
        <time>2024-04-09T18:04:27Z</time>
      </trkpt>
      <trkpt lat="43.65181" lon="1.38333">
        <ele>143</ele>
        <time>2024-04-09T18:04:28Z</time>
      </trkpt>
      <trkpt lat="43.65181" lon="1.38329">
        <ele>143</ele>
        <time>2024-04-09T18:04:29Z</time>
      </trkpt>
      <trkpt lat="43.6518" lon="1.38326">
        <ele>143</ele>
        <time>2024-04-09T18:04:30Z</time>
      </trkpt>
      <trkpt lat="43.6518" lon="1.38322">
        <ele>143</ele>
        <time>2024-04-09T18:04:31Z</time>
      </trkpt>
      <trkpt lat="43.6518" lon="1.38319">
        <ele>143</ele>
        <time>2024-04-09T18:04:32Z</time>
      </trkpt>
      <trkpt lat="43.65179" lon="1.38315">
        <ele>143</ele>
        <time>2024-04-09T18:04:33Z</time>
      </trkpt>
      <trkpt lat="43.65179" lon="1.38311">
        <ele>143</ele>
        <time>2024-04-09T18:04:34Z</time>
      </trkpt>
      <trkpt lat="43.65179" lon="1.38307">
        <ele>143</ele>
        <time>2024-04-09T18:04:35Z</time>
      </trkpt>
      <trkpt lat="43.65178" lon="1.38304">
        <ele>143</ele>
        <time>2024-04-09T18:04:36Z</time>
      </trkpt>
      <trkpt lat="43.65178" lon="1.383">
        <ele>143</ele>
        <time>2024-04-09T18:04:37Z</time>
      </trkpt>
      <trkpt lat="43.65177" lon="1.38296">
        <ele>143</ele>
        <time>2024-04-09T18:04:38Z</time>
      </trkpt>
      <trkpt lat="43.65176" lon="1.38293">
        <ele>143</ele>
        <time>2024-04-09T18:04:39Z</time>
      </trkpt>
      <trkpt lat="43.65176" lon="1.38289">
        <ele>143</ele>
        <time>2024-04-09T18:04:40Z</time>
      </trkpt>
      <trkpt lat="43.65175" lon="1.38285">
        <ele>143</ele>
        <time>2024-04-09T18:04:41Z</time>
      </trkpt>
      <trkpt lat="43.65174" lon="1.38282">
        <ele>143</ele>
        <time>2024-04-09T18:04:42Z</time>
      </trkpt>
      <trkpt lat="43.65173" lon="1.38278">
        <ele>143</ele>
        <time>2024-04-09T18:04:43Z</time>
      </trkpt>
      <trkpt lat="43.65172" lon="1.38275">
        <ele>143</ele>
        <time>2024-04-09T18:04:44Z</time>
      </trkpt>
      <trkpt lat="43.65172" lon="1.38272">
        <ele>142</ele>
        <time>2024-04-09T18:04:45Z</time>
      </trkpt>
      <trkpt lat="43.65171" lon="1.38268">
        <ele>143</ele>
        <time>2024-04-09T18:04:46Z</time>
      </trkpt>
      <trkpt lat="43.65171" lon="1.38265">
        <ele>143</ele>
        <time>2024-04-09T18:04:47Z</time>
      </trkpt>
      <trkpt lat="43.6517" lon="1.38262">
        <ele>143</ele>
        <time>2024-04-09T18:04:48Z</time>
      </trkpt>
      <trkpt lat="43.65169" lon="1.38258">
        <ele>143</ele>
        <time>2024-04-09T18:04:49Z</time>
      </trkpt>
      <trkpt lat="43.65168" lon="1.38255">
        <ele>143</ele>
        <time>2024-04-09T18:04:50Z</time>
      </trkpt>
      <trkpt lat="43.65168" lon="1.38251">
        <ele>143</ele>
        <time>2024-04-09T18:04:51Z</time>
      </trkpt>
      <trkpt lat="43.65167" lon="1.38248">
        <ele>143</ele>
        <time>2024-04-09T18:04:52Z</time>
      </trkpt>
      <trkpt lat="43.65166" lon="1.38244">
        <ele>143</ele>
        <time>2024-04-09T18:04:53Z</time>
      </trkpt>
      <trkpt lat="43.65166" lon="1.38241">
        <ele>143</ele>
        <time>2024-04-09T18:04:54Z</time>
      </trkpt>
      <trkpt lat="43.65165" lon="1.38237">
        <ele>143</ele>
        <time>2024-04-09T18:04:55Z</time>
      </trkpt>
      <trkpt lat="43.65165" lon="1.38234">
        <ele>143</ele>
        <time>2024-04-09T18:04:56Z</time>
      </trkpt>
      <trkpt lat="43.65164" lon="1.3823">
        <ele>143</ele>
        <time>2024-04-09T18:04:57Z</time>
      </trkpt>
      <trkpt lat="43.65164" lon="1.38226">
        <ele>143</ele>
        <time>2024-04-09T18:04:58Z</time>
      </trkpt>
      <trkpt lat="43.65164" lon="1.38222">
        <ele>143</ele>
        <time>2024-04-09T18:04:59Z</time>
      </trkpt>
      <trkpt lat="43.65164" lon="1.38219">
        <ele>142</ele>
        <time>2024-04-09T18:05:00Z</time>
      </trkpt>
      <trkpt lat="43.65164" lon="1.38215">
        <ele>142</ele>
        <time>2024-04-09T18:05:01Z</time>
      </trkpt>
      <trkpt lat="43.65164" lon="1.38212">
        <ele>142</ele>
        <time>2024-04-09T18:05:02Z</time>
      </trkpt>
      <trkpt lat="43.65164" lon="1.38208">
        <ele>142</ele>
        <time>2024-04-09T18:05:03Z</time>
      </trkpt>
      <trkpt lat="43.65164" lon="1.38204">
        <ele>143</ele>
        <time>2024-04-09T18:05:04Z</time>
      </trkpt>
      <trkpt lat="43.65164" lon="1.382">
        <ele>143</ele>
        <time>2024-04-09T18:05:05Z</time>
      </trkpt>
      <trkpt lat="43.65165" lon="1.38196">
        <ele>143</ele>
        <time>2024-04-09T18:05:06Z</time>
      </trkpt>
      <trkpt lat="43.65166" lon="1.38193">
        <ele>143</ele>
        <time>2024-04-09T18:05:07Z</time>
      </trkpt>
      <trkpt lat="43.65167" lon="1.3819">
        <ele>143</ele>
        <time>2024-04-09T18:05:08Z</time>
      </trkpt>
      <trkpt lat="43.6517" lon="1.38187">
        <ele>143</ele>
        <time>2024-04-09T18:05:09Z</time>
      </trkpt>
      <trkpt lat="43.65172" lon="1.38185">
        <ele>143</ele>
        <time>2024-04-09T18:05:10Z</time>
      </trkpt>
      <trkpt lat="43.65174" lon="1.38182">
        <ele>143</ele>
        <time>2024-04-09T18:05:11Z</time>
      </trkpt>
      <trkpt lat="43.65176" lon="1.3818">
        <ele>143</ele>
        <time>2024-04-09T18:05:12Z</time>
      </trkpt>
      <trkpt lat="43.65178" lon="1.38178">
        <ele>143</ele>
        <time>2024-04-09T18:05:13Z</time>
      </trkpt>
      <trkpt lat="43.6518" lon="1.38175">
        <ele>143</ele>
        <time>2024-04-09T18:05:14Z</time>
      </trkpt>
      <trkpt lat="43.65182" lon="1.38173">
        <ele>143</ele>
        <time>2024-04-09T18:05:15Z</time>
      </trkpt>
      <trkpt lat="43.65185" lon="1.38171">
        <ele>143</ele>
        <time>2024-04-09T18:05:16Z</time>
      </trkpt>
      <trkpt lat="43.65187" lon="1.38169">
        <ele>143</ele>
        <time>2024-04-09T18:05:17Z</time>
      </trkpt>
      <trkpt lat="43.65189" lon="1.38166">
        <ele>143</ele>
        <time>2024-04-09T18:05:18Z</time>
      </trkpt>
      <trkpt lat="43.65191" lon="1.38164">
        <ele>143</ele>
        <time>2024-04-09T18:05:19Z</time>
      </trkpt>
      <trkpt lat="43.65194" lon="1.38162">
        <ele>144</ele>
        <time>2024-04-09T18:05:20Z</time>
      </trkpt>
      <trkpt lat="43.65196" lon="1.38161">
        <ele>144</ele>
        <time>2024-04-09T18:05:21Z</time>
      </trkpt>
      <trkpt lat="43.65198" lon="1.38159">
        <ele>144</ele>
        <time>2024-04-09T18:05:22Z</time>
      </trkpt>
      <trkpt lat="43.652" lon="1.38156">
        <ele>144</ele>
        <time>2024-04-09T18:05:23Z</time>
      </trkpt>
      <trkpt lat="43.65202" lon="1.38154">
        <ele>144</ele>
        <time>2024-04-09T18:05:24Z</time>
      </trkpt>
      <trkpt lat="43.65205" lon="1.38152">
        <ele>144</ele>
        <time>2024-04-09T18:05:25Z</time>
      </trkpt>
      <trkpt lat="43.65207" lon="1.3815">
        <ele>144</ele>
        <time>2024-04-09T18:05:26Z</time>
      </trkpt>
      <trkpt lat="43.6521" lon="1.38148">
        <ele>144</ele>
        <time>2024-04-09T18:05:27Z</time>
      </trkpt>
      <trkpt lat="43.65212" lon="1.38147">
        <ele>144</ele>
        <time>2024-04-09T18:05:28Z</time>
      </trkpt>
      <trkpt lat="43.65215" lon="1.38145">
        <ele>144</ele>
        <time>2024-04-09T18:05:29Z</time>
      </trkpt>
      <trkpt lat="43.65217" lon="1.38143">
        <ele>144</ele>
        <time>2024-04-09T18:05:30Z</time>
      </trkpt>
      <trkpt lat="43.6522" lon="1.38142">
        <ele>144</ele>
        <time>2024-04-09T18:05:31Z</time>
      </trkpt>
      <trkpt lat="43.65222" lon="1.3814">
        <ele>144</ele>
        <time>2024-04-09T18:05:32Z</time>
      </trkpt>
      <trkpt lat="43.65225" lon="1.38138">
        <ele>144</ele>
        <time>2024-04-09T18:05:33Z</time>
      </trkpt>
      <trkpt lat="43.65227" lon="1.38136">
        <ele>144</ele>
        <time>2024-04-09T18:05:34Z</time>
      </trkpt>
      <trkpt lat="43.6523" lon="1.38134">
        <ele>144</ele>
        <time>2024-04-09T18:05:35Z</time>
      </trkpt>
      <trkpt lat="43.65232" lon="1.38133">
        <ele>144</ele>
        <time>2024-04-09T18:05:36Z</time>
      </trkpt>
      <trkpt lat="43.65235" lon="1.38131">
        <ele>144</ele>
        <time>2024-04-09T18:05:37Z</time>
      </trkpt>
      <trkpt lat="43.65237" lon="1.3813">
        <ele>144</ele>
        <time>2024-04-09T18:05:38Z</time>
      </trkpt>
      <trkpt lat="43.6524" lon="1.38129">
        <ele>144</ele>
        <time>2024-04-09T18:05:39Z</time>
      </trkpt>
      <trkpt lat="43.65242" lon="1.38127">
        <ele>144</ele>
        <time>2024-04-09T18:05:40Z</time>
      </trkpt>
      <trkpt lat="43.65243" lon="1.38124">
        <ele>145</ele>
        <time>2024-04-09T18:05:41Z</time>
      </trkpt>
      <trkpt lat="43.65244" lon="1.38122">
        <ele>145</ele>
        <time>2024-04-09T18:05:42Z</time>
      </trkpt>
      <trkpt lat="43.65245" lon="1.38118">
        <ele>145</ele>
        <time>2024-04-09T18:05:43Z</time>
      </trkpt>
      <trkpt lat="43.65244" lon="1.38115">
        <ele>145</ele>
        <time>2024-04-09T18:05:44Z</time>
      </trkpt>
      <trkpt lat="43.65243" lon="1.38112">
        <ele>145</ele>
        <time>2024-04-09T18:05:45Z</time>
      </trkpt>
      <trkpt lat="43.65242" lon="1.38108">
        <ele>145</ele>
        <time>2024-04-09T18:05:46Z</time>
      </trkpt>
      <trkpt lat="43.6524" lon="1.38105">
        <ele>145</ele>
        <time>2024-04-09T18:05:47Z</time>
      </trkpt>
      <trkpt lat="43.65239" lon="1.38102">
        <ele>145</ele>
        <time>2024-04-09T18:05:48Z</time>
      </trkpt>
      <trkpt lat="43.65239" lon="1.38099">
        <ele>145</ele>
        <time>2024-04-09T18:05:49Z</time>
      </trkpt>
      <trkpt lat="43.65238" lon="1.38095">
        <ele>145</ele>
        <time>2024-04-09T18:05:50Z</time>
      </trkpt>
      <trkpt lat="43.65237" lon="1.38092">
        <ele>145</ele>
        <time>2024-04-09T18:05:51Z</time>
      </trkpt>
      <trkpt lat="43.65235" lon="1.38089">
        <ele>145</ele>
        <time>2024-04-09T18:05:52Z</time>
      </trkpt>
      <trkpt lat="43.65234" lon="1.38085">
        <ele>146</ele>
        <time>2024-04-09T18:05:53Z</time>
      </trkpt>
      <trkpt lat="43.65233" lon="1.38082">
        <ele>146</ele>
        <time>2024-04-09T18:05:54Z</time>
      </trkpt>
      <trkpt lat="43.65231" lon="1.38079">
        <ele>145</ele>
        <time>2024-04-09T18:05:55Z</time>
      </trkpt>
      <trkpt lat="43.6523" lon="1.38075">
        <ele>145</ele>
        <time>2024-04-09T18:05:56Z</time>
      </trkpt>
      <trkpt lat="43.65229" lon="1.38072">
        <ele>145</ele>
        <time>2024-04-09T18:05:57Z</time>
      </trkpt>
      <trkpt lat="43.65227" lon="1.38069">
        <ele>146</ele>
        <time>2024-04-09T18:05:58Z</time>
      </trkpt>
      <trkpt lat="43.65226" lon="1.38065">
        <ele>146</ele>
        <time>2024-04-09T18:05:59Z</time>
      </trkpt>
      <trkpt lat="43.65225" lon="1.38062">
        <ele>146</ele>
        <time>2024-04-09T18:06:00Z</time>
      </trkpt>
      <trkpt lat="43.65224" lon="1.38059">
        <ele>146</ele>
        <time>2024-04-09T18:06:01Z</time>
      </trkpt>
      <trkpt lat="43.65223" lon="1.38055">
        <ele>145</ele>
        <time>2024-04-09T18:06:02Z</time>
      </trkpt>
      <trkpt lat="43.65222" lon="1.38052">
        <ele>145</ele>
        <time>2024-04-09T18:06:03Z</time>
      </trkpt>
      <trkpt lat="43.65221" lon="1.38049">
        <ele>145</ele>
        <time>2024-04-09T18:06:04Z</time>
      </trkpt>
      <trkpt lat="43.6522" lon="1.38046">
        <ele>145</ele>
        <time>2024-04-09T18:06:05Z</time>
      </trkpt>
      <trkpt lat="43.65219" lon="1.38043">
        <ele>145</ele>
        <time>2024-04-09T18:06:06Z</time>
      </trkpt>
      <trkpt lat="43.65219" lon="1.3804">
        <ele>146</ele>
        <time>2024-04-09T18:06:07Z</time>
      </trkpt>
      <trkpt lat="43.65218" lon="1.38038">
        <ele>146</ele>
        <time>2024-04-09T18:06:08Z</time>
      </trkpt>
      <trkpt lat="43.65217" lon="1.38036">
        <ele>146</ele>
        <time>2024-04-09T18:06:09Z</time>
      </trkpt>
      <trkpt lat="43.65216" lon="1.38034">
        <ele>146</ele>
        <time>2024-04-09T18:06:10Z</time>
      </trkpt>
      <trkpt lat="43.65214" lon="1.38032">
        <ele>146</ele>
        <time>2024-04-09T18:06:11Z</time>
      </trkpt>
      <trkpt lat="43.65212" lon="1.38031">
        <ele>146</ele>
        <time>2024-04-09T18:06:12Z</time>
      </trkpt>
      <trkpt lat="43.65209" lon="1.3803">
        <ele>146</ele>
        <time>2024-04-09T18:06:13Z</time>
      </trkpt>
      <trkpt lat="43.65207" lon="1.38031">
        <ele>146</ele>
        <time>2024-04-09T18:06:14Z</time>
      </trkpt>
      <trkpt lat="43.65204" lon="1.38032">
        <ele>146</ele>
        <time>2024-04-09T18:06:15Z</time>
      </trkpt>
      <trkpt lat="43.65202" lon="1.38034">
        <ele>146</ele>
        <time>2024-04-09T18:06:16Z</time>
      </trkpt>
      <trkpt lat="43.65199" lon="1.38035">
        <ele>146</ele>
        <time>2024-04-09T18:06:17Z</time>
      </trkpt>
      <trkpt lat="43.65197" lon="1.38037">
        <ele>146</ele>
        <time>2024-04-09T18:06:18Z</time>
      </trkpt>
      <trkpt lat="43.65194" lon="1.3804">
        <ele>146</ele>
        <time>2024-04-09T18:06:19Z</time>
      </trkpt>
      <trkpt lat="43.65192" lon="1.38042">
        <ele>146</ele>
        <time>2024-04-09T18:06:20Z</time>
      </trkpt>
      <trkpt lat="43.6519" lon="1.38044">
        <ele>146</ele>
        <time>2024-04-09T18:06:21Z</time>
      </trkpt>
      <trkpt lat="43.65187" lon="1.38046">
        <ele>146</ele>
        <time>2024-04-09T18:06:22Z</time>
      </trkpt>
      <trkpt lat="43.65185" lon="1.38046">
        <ele>146</ele>
        <time>2024-04-09T18:06:23Z</time>
      </trkpt>
      <trkpt lat="43.65182" lon="1.38046">
        <ele>146</ele>
        <time>2024-04-09T18:06:24Z</time>
      </trkpt>
      <trkpt lat="43.6518" lon="1.38046">
        <ele>145</ele>
        <time>2024-04-09T18:06:25Z</time>
      </trkpt>
      <trkpt lat="43.65178" lon="1.38047">
        <ele>145</ele>
        <time>2024-04-09T18:06:26Z</time>
      </trkpt>
      <trkpt lat="43.65176" lon="1.38049">
        <ele>146</ele>
        <time>2024-04-09T18:06:27Z</time>
      </trkpt>
      <trkpt lat="43.65174" lon="1.3805">
        <ele>146</ele>
        <time>2024-04-09T18:06:28Z</time>
      </trkpt>
      <trkpt lat="43.65171" lon="1.38051">
        <ele>146</ele>
        <time>2024-04-09T18:06:29Z</time>
      </trkpt>
      <trkpt lat="43.65169" lon="1.38053">
        <ele>146</ele>
        <time>2024-04-09T18:06:30Z</time>
      </trkpt>
      <trkpt lat="43.65167" lon="1.38054">
        <ele>147</ele>
        <time>2024-04-09T18:06:31Z</time>
      </trkpt>
      <trkpt lat="43.65165" lon="1.38055">
        <ele>147</ele>
        <time>2024-04-09T18:06:32Z</time>
      </trkpt>
      <trkpt lat="43.65163" lon="1.38057">
        <ele>147</ele>
        <time>2024-04-09T18:06:33Z</time>
      </trkpt>
      <trkpt lat="43.65161" lon="1.38058">
        <ele>147</ele>
        <time>2024-04-09T18:06:34Z</time>
      </trkpt>
      <trkpt lat="43.65158" lon="1.38059">
        <ele>147</ele>
        <time>2024-04-09T18:06:35Z</time>
      </trkpt>
      <trkpt lat="43.65156" lon="1.38061">
        <ele>146</ele>
        <time>2024-04-09T18:06:36Z</time>
      </trkpt>
      <trkpt lat="43.65154" lon="1.38062">
        <ele>146</ele>
        <time>2024-04-09T18:06:37Z</time>
      </trkpt>
      <trkpt lat="43.65152" lon="1.38063">
        <ele>146</ele>
        <time>2024-04-09T18:06:38Z</time>
      </trkpt>
      <trkpt lat="43.65149" lon="1.38065">
        <ele>145</ele>
        <time>2024-04-09T18:06:39Z</time>
      </trkpt>
      <trkpt lat="43.65147" lon="1.38067">
        <ele>145</ele>
        <time>2024-04-09T18:06:40Z</time>
      </trkpt>
      <trkpt lat="43.65144" lon="1.38069">
        <ele>145</ele>
        <time>2024-04-09T18:06:41Z</time>
      </trkpt>
      <trkpt lat="43.65142" lon="1.3807">
        <ele>146</ele>
        <time>2024-04-09T18:06:42Z</time>
      </trkpt>
      <trkpt lat="43.6514" lon="1.38071">
        <ele>146</ele>
        <time>2024-04-09T18:06:43Z</time>
      </trkpt>
      <trkpt lat="43.65137" lon="1.38073">
        <ele>146</ele>
        <time>2024-04-09T18:06:44Z</time>
      </trkpt>
      <trkpt lat="43.65134" lon="1.38074">
        <ele>146</ele>
        <time>2024-04-09T18:06:45Z</time>
      </trkpt>
      <trkpt lat="43.65132" lon="1.38076">
        <ele>146</ele>
        <time>2024-04-09T18:06:46Z</time>
      </trkpt>
      <trkpt lat="43.65129" lon="1.38077">
        <ele>146</ele>
        <time>2024-04-09T18:06:47Z</time>
      </trkpt>
      <trkpt lat="43.65127" lon="1.38079">
        <ele>146</ele>
        <time>2024-04-09T18:06:48Z</time>
      </trkpt>
      <trkpt lat="43.65125" lon="1.38081">
        <ele>146</ele>
        <time>2024-04-09T18:06:49Z</time>
      </trkpt>
      <trkpt lat="43.65123" lon="1.38082">
        <ele>146</ele>
        <time>2024-04-09T18:06:50Z</time>
      </trkpt>
      <trkpt lat="43.6512" lon="1.38084">
        <ele>146</ele>
        <time>2024-04-09T18:06:51Z</time>
      </trkpt>
      <trkpt lat="43.65118" lon="1.38086">
        <ele>146</ele>
        <time>2024-04-09T18:06:52Z</time>
      </trkpt>
      <trkpt lat="43.65116" lon="1.38088">
        <ele>146</ele>
        <time>2024-04-09T18:06:53Z</time>
      </trkpt>
      <trkpt lat="43.65114" lon="1.3809">
        <ele>146</ele>
        <time>2024-04-09T18:06:54Z</time>
      </trkpt>
      <trkpt lat="43.65111" lon="1.38091">
        <ele>146</ele>
        <time>2024-04-09T18:06:55Z</time>
      </trkpt>
      <trkpt lat="43.65109" lon="1.38093">
        <ele>146</ele>
        <time>2024-04-09T18:06:56Z</time>
      </trkpt>
      <trkpt lat="43.65107" lon="1.38095">
        <ele>146</ele>
        <time>2024-04-09T18:06:57Z</time>
      </trkpt>
      <trkpt lat="43.65104" lon="1.38097">
        <ele>146</ele>
        <time>2024-04-09T18:06:58Z</time>
      </trkpt>
      <trkpt lat="43.65102" lon="1.38098">
        <ele>146</ele>
        <time>2024-04-09T18:06:59Z</time>
      </trkpt>
      <trkpt lat="43.651" lon="1.38099">
        <ele>146</ele>
        <time>2024-04-09T18:07:00Z</time>
      </trkpt>
      <trkpt lat="43.65097" lon="1.38101">
        <ele>146</ele>
        <time>2024-04-09T18:07:01Z</time>
      </trkpt>
      <trkpt lat="43.65095" lon="1.38102">
        <ele>146</ele>
        <time>2024-04-09T18:07:02Z</time>
      </trkpt>
      <trkpt lat="43.65093" lon="1.38103">
        <ele>146</ele>
        <time>2024-04-09T18:07:03Z</time>
      </trkpt>
      <trkpt lat="43.65091" lon="1.38105">
        <ele>145</ele>
        <time>2024-04-09T18:07:04Z</time>
      </trkpt>
      <trkpt lat="43.65089" lon="1.38106">
        <ele>146</ele>
        <time>2024-04-09T18:07:05Z</time>
      </trkpt>
      <trkpt lat="43.65087" lon="1.38108">
        <ele>146</ele>
        <time>2024-04-09T18:07:06Z</time>
      </trkpt>
      <trkpt lat="43.65085" lon="1.3811">
        <ele>146</ele>
        <time>2024-04-09T18:07:07Z</time>
      </trkpt>
      <trkpt lat="43.65083" lon="1.38111">
        <ele>146</ele>
        <time>2024-04-09T18:07:08Z</time>
      </trkpt>
      <trkpt lat="43.65081" lon="1.38112">
        <ele>146</ele>
        <time>2024-04-09T18:07:09Z</time>
      </trkpt>
      <trkpt lat="43.65079" lon="1.38113">
        <ele>146</ele>
        <time>2024-04-09T18:07:10Z</time>
      </trkpt>
      <trkpt lat="43.65077" lon="1.38114">
        <ele>145</ele>
        <time>2024-04-09T18:07:11Z</time>
      </trkpt>
      <trkpt lat="43.65074" lon="1.38115">
        <ele>145</ele>
        <time>2024-04-09T18:07:12Z</time>
      </trkpt>
      <trkpt lat="43.65071" lon="1.38116">
        <ele>145</ele>
        <time>2024-04-09T18:07:13Z</time>
      </trkpt>
      <trkpt lat="43.65069" lon="1.38115">
        <ele>145</ele>
        <time>2024-04-09T18:07:14Z</time>
      </trkpt>
      <trkpt lat="43.65067" lon="1.38113">
        <ele>145</ele>
        <time>2024-04-09T18:07:15Z</time>
      </trkpt>
      <trkpt lat="43.65065" lon="1.38111">
        <ele>145</ele>
        <time>2024-04-09T18:07:16Z</time>
      </trkpt>
      <trkpt lat="43.65063" lon="1.38108">
        <ele>145</ele>
        <time>2024-04-09T18:07:17Z</time>
      </trkpt>
      <trkpt lat="43.65061" lon="1.38106">
        <ele>144</ele>
        <time>2024-04-09T18:07:18Z</time>
      </trkpt>
      <trkpt lat="43.65059" lon="1.38104">
        <ele>144</ele>
        <time>2024-04-09T18:07:19Z</time>
      </trkpt>
      <trkpt lat="43.65058" lon="1.38102">
        <ele>144</ele>
        <time>2024-04-09T18:07:20Z</time>
      </trkpt>
      <trkpt lat="43.65056" lon="1.381">
        <ele>144</ele>
        <time>2024-04-09T18:07:21Z</time>
      </trkpt>
      <trkpt lat="43.65054" lon="1.38097">
        <ele>144</ele>
        <time>2024-04-09T18:07:22Z</time>
      </trkpt>
      <trkpt lat="43.65052" lon="1.38094">
        <ele>144</ele>
        <time>2024-04-09T18:07:23Z</time>
      </trkpt>
      <trkpt lat="43.6505" lon="1.38092">
        <ele>144</ele>
        <time>2024-04-09T18:07:24Z</time>
      </trkpt>
      <trkpt lat="43.65048" lon="1.38089">
        <ele>144</ele>
        <time>2024-04-09T18:07:25Z</time>
      </trkpt>
      <trkpt lat="43.65046" lon="1.38086">
        <ele>144</ele>
        <time>2024-04-09T18:07:26Z</time>
      </trkpt>
      <trkpt lat="43.65044" lon="1.38083">
        <ele>144</ele>
        <time>2024-04-09T18:07:27Z</time>
      </trkpt>
      <trkpt lat="43.65043" lon="1.38079">
        <ele>144</ele>
        <time>2024-04-09T18:07:28Z</time>
      </trkpt>
      <trkpt lat="43.65042" lon="1.38076">
        <ele>144</ele>
        <time>2024-04-09T18:07:29Z</time>
      </trkpt>
      <trkpt lat="43.6504" lon="1.38073">
        <ele>144</ele>
        <time>2024-04-09T18:07:30Z</time>
      </trkpt>
      <trkpt lat="43.65038" lon="1.38069">
        <ele>143</ele>
        <time>2024-04-09T18:07:31Z</time>
      </trkpt>
      <trkpt lat="43.65037" lon="1.38066">
        <ele>143</ele>
        <time>2024-04-09T18:07:32Z</time>
      </trkpt>
      <trkpt lat="43.65035" lon="1.38063">
        <ele>143</ele>
        <time>2024-04-09T18:07:33Z</time>
      </trkpt>
      <trkpt lat="43.65034" lon="1.3806">
        <ele>143</ele>
        <time>2024-04-09T18:07:34Z</time>
      </trkpt>
      <trkpt lat="43.65032" lon="1.38056">
        <ele>143</ele>
        <time>2024-04-09T18:07:35Z</time>
      </trkpt>
      <trkpt lat="43.65031" lon="1.38053">
        <ele>143</ele>
        <time>2024-04-09T18:07:36Z</time>
      </trkpt>
      <trkpt lat="43.65029" lon="1.3805">
        <ele>143</ele>
        <time>2024-04-09T18:07:37Z</time>
      </trkpt>
      <trkpt lat="43.65027" lon="1.38047">
        <ele>143</ele>
        <time>2024-04-09T18:07:38Z</time>
      </trkpt>
      <trkpt lat="43.65026" lon="1.38044">
        <ele>143</ele>
        <time>2024-04-09T18:07:39Z</time>
      </trkpt>
      <trkpt lat="43.65024" lon="1.38041">
        <ele>143</ele>
        <time>2024-04-09T18:07:40Z</time>
      </trkpt>
      <trkpt lat="43.65022" lon="1.38038">
        <ele>143</ele>
        <time>2024-04-09T18:07:41Z</time>
      </trkpt>
      <trkpt lat="43.6502" lon="1.38035">
        <ele>143</ele>
        <time>2024-04-09T18:07:42Z</time>
      </trkpt>
      <trkpt lat="43.65019" lon="1.38031">
        <ele>143</ele>
        <time>2024-04-09T18:07:43Z</time>
      </trkpt>
      <trkpt lat="43.65017" lon="1.38028">
        <ele>143</ele>
        <time>2024-04-09T18:07:44Z</time>
      </trkpt>
      <trkpt lat="43.65015" lon="1.38025">
        <ele>143</ele>
        <time>2024-04-09T18:07:45Z</time>
      </trkpt>
      <trkpt lat="43.65014" lon="1.38021">
        <ele>143</ele>
        <time>2024-04-09T18:07:46Z</time>
      </trkpt>
      <trkpt lat="43.65012" lon="1.38018">
        <ele>143</ele>
        <time>2024-04-09T18:07:47Z</time>
      </trkpt>
      <trkpt lat="43.6501" lon="1.38016">
        <ele>143</ele>
        <time>2024-04-09T18:07:48Z</time>
      </trkpt>
      <trkpt lat="43.65009" lon="1.38013">
        <ele>143</ele>
        <time>2024-04-09T18:07:49Z</time>
      </trkpt>
      <trkpt lat="43.65007" lon="1.3801">
        <ele>143</ele>
        <time>2024-04-09T18:07:50Z</time>
      </trkpt>
      <trkpt lat="43.65006" lon="1.38008">
        <ele>143</ele>
        <time>2024-04-09T18:07:51Z</time>
      </trkpt>
      <trkpt lat="43.65004" lon="1.38005">
        <ele>143</ele>
        <time>2024-04-09T18:07:52Z</time>
      </trkpt>
      <trkpt lat="43.65002" lon="1.38002">
        <ele>143</ele>
        <time>2024-04-09T18:07:53Z</time>
      </trkpt>
      <trkpt lat="43.65" lon="1.37999">
        <ele>143</ele>
        <time>2024-04-09T18:07:54Z</time>
      </trkpt>
      <trkpt lat="43.64999" lon="1.37997">
        <ele>143</ele>
        <time>2024-04-09T18:07:55Z</time>
      </trkpt>
      <trkpt lat="43.64996" lon="1.37994">
        <ele>143</ele>
        <time>2024-04-09T18:07:56Z</time>
      </trkpt>
      <trkpt lat="43.64994" lon="1.37992">
        <ele>144</ele>
        <time>2024-04-09T18:07:57Z</time>
      </trkpt>
      <trkpt lat="43.64993" lon="1.3799">
        <ele>144</ele>
        <time>2024-04-09T18:07:58Z</time>
      </trkpt>
      <trkpt lat="43.64991" lon="1.37987">
        <ele>144</ele>
        <time>2024-04-09T18:07:59Z</time>
      </trkpt>
      <trkpt lat="43.64989" lon="1.37985">
        <ele>143</ele>
        <time>2024-04-09T18:08:00Z</time>
      </trkpt>
      <trkpt lat="43.64987" lon="1.37982">
        <ele>143</ele>
        <time>2024-04-09T18:08:01Z</time>
      </trkpt>
      <trkpt lat="43.64985" lon="1.37979">
        <ele>143</ele>
        <time>2024-04-09T18:08:02Z</time>
      </trkpt>
      <trkpt lat="43.64984" lon="1.37976">
        <ele>143</ele>
        <time>2024-04-09T18:08:03Z</time>
      </trkpt>
      <trkpt lat="43.64982" lon="1.37973">
        <ele>143</ele>
        <time>2024-04-09T18:08:04Z</time>
      </trkpt>
      <trkpt lat="43.6498" lon="1.3797">
        <ele>143</ele>
        <time>2024-04-09T18:08:05Z</time>
      </trkpt>
      <trkpt lat="43.64978" lon="1.37967">
        <ele>143</ele>
        <time>2024-04-09T18:08:06Z</time>
      </trkpt>
      <trkpt lat="43.64976" lon="1.37964">
        <ele>143</ele>
        <time>2024-04-09T18:08:07Z</time>
      </trkpt>
      <trkpt lat="43.64975" lon="1.3796">
        <ele>143</ele>
        <time>2024-04-09T18:08:08Z</time>
      </trkpt>
      <trkpt lat="43.64973" lon="1.37958">
        <ele>143</ele>
        <time>2024-04-09T18:08:09Z</time>
      </trkpt>
      <trkpt lat="43.64971" lon="1.37955">
        <ele>143</ele>
        <time>2024-04-09T18:08:10Z</time>
      </trkpt>
      <trkpt lat="43.64969" lon="1.37952">
        <ele>143</ele>
        <time>2024-04-09T18:08:11Z</time>
      </trkpt>
      <trkpt lat="43.64968" lon="1.37949">
        <ele>143</ele>
        <time>2024-04-09T18:08:12Z</time>
      </trkpt>
      <trkpt lat="43.64966" lon="1.37945">
        <ele>143</ele>
        <time>2024-04-09T18:08:13Z</time>
      </trkpt>
      <trkpt lat="43.64964" lon="1.37943">
        <ele>143</ele>
        <time>2024-04-09T18:08:14Z</time>
      </trkpt>
      <trkpt lat="43.64963" lon="1.3794">
        <ele>143</ele>
        <time>2024-04-09T18:08:15Z</time>
      </trkpt>
      <trkpt lat="43.64961" lon="1.37938">
        <ele>144</ele>
        <time>2024-04-09T18:08:16Z</time>
      </trkpt>
      <trkpt lat="43.64959" lon="1.37935">
        <ele>144</ele>
        <time>2024-04-09T18:08:17Z</time>
      </trkpt>
      <trkpt lat="43.64958" lon="1.37933">
        <ele>144</ele>
        <time>2024-04-09T18:08:18Z</time>
      </trkpt>
      <trkpt lat="43.64956" lon="1.3793">
        <ele>145</ele>
        <time>2024-04-09T18:08:19Z</time>
      </trkpt>
      <trkpt lat="43.64954" lon="1.37927">
        <ele>145</ele>
        <time>2024-04-09T18:08:20Z</time>
      </trkpt>
      <trkpt lat="43.64953" lon="1.37924">
        <ele>144</ele>
        <time>2024-04-09T18:08:21Z</time>
      </trkpt>
      <trkpt lat="43.64952" lon="1.3792">
        <ele>144</ele>
        <time>2024-04-09T18:08:22Z</time>
      </trkpt>
      <trkpt lat="43.64951" lon="1.37917">
        <ele>144</ele>
        <time>2024-04-09T18:08:23Z</time>
      </trkpt>
      <trkpt lat="43.6495" lon="1.37914">
        <ele>145</ele>
        <time>2024-04-09T18:08:24Z</time>
      </trkpt>
      <trkpt lat="43.64949" lon="1.3791">
        <ele>145</ele>
        <time>2024-04-09T18:08:25Z</time>
      </trkpt>
      <trkpt lat="43.64948" lon="1.37906">
        <ele>145</ele>
        <time>2024-04-09T18:08:26Z</time>
      </trkpt>
      <trkpt lat="43.64948" lon="1.37902">
        <ele>145</ele>
        <time>2024-04-09T18:08:27Z</time>
      </trkpt>
      <trkpt lat="43.64947" lon="1.37897">
        <ele>145</ele>
        <time>2024-04-09T18:08:28Z</time>
      </trkpt>
      <trkpt lat="43.64946" lon="1.37893">
        <ele>145</ele>
        <time>2024-04-09T18:08:29Z</time>
      </trkpt>
      <trkpt lat="43.64945" lon="1.37889">
        <ele>145</ele>
        <time>2024-04-09T18:08:30Z</time>
      </trkpt>
      <trkpt lat="43.64944" lon="1.37886">
        <ele>145</ele>
        <time>2024-04-09T18:08:31Z</time>
      </trkpt>
      <trkpt lat="43.64942" lon="1.37883">
        <ele>145</ele>
        <time>2024-04-09T18:08:32Z</time>
      </trkpt>
      <trkpt lat="43.6494" lon="1.37881">
        <ele>145</ele>
        <time>2024-04-09T18:08:33Z</time>
      </trkpt>
      <trkpt lat="43.64937" lon="1.37879">
        <ele>146</ele>
        <time>2024-04-09T18:08:34Z</time>
      </trkpt>
      <trkpt lat="43.64935" lon="1.37877">
        <ele>146</ele>
        <time>2024-04-09T18:08:35Z</time>
      </trkpt>
      <trkpt lat="43.64932" lon="1.37875">
        <ele>146</ele>
        <time>2024-04-09T18:08:36Z</time>
      </trkpt>
      <trkpt lat="43.6493" lon="1.37873">
        <ele>146</ele>
        <time>2024-04-09T18:08:37Z</time>
      </trkpt>
      <trkpt lat="43.64928" lon="1.3787">
        <ele>146</ele>
        <time>2024-04-09T18:08:38Z</time>
      </trkpt>
      <trkpt lat="43.64925" lon="1.37868">
        <ele>145</ele>
        <time>2024-04-09T18:08:39Z</time>
      </trkpt>
      <trkpt lat="43.64923" lon="1.37866">
        <ele>146</ele>
        <time>2024-04-09T18:08:40Z</time>
      </trkpt>
      <trkpt lat="43.64922" lon="1.37862">
        <ele>146</ele>
        <time>2024-04-09T18:08:41Z</time>
      </trkpt>
      <trkpt lat="43.6492" lon="1.37858">
        <ele>146</ele>
        <time>2024-04-09T18:08:42Z</time>
      </trkpt>
      <trkpt lat="43.64919" lon="1.37854">
        <ele>146</ele>
        <time>2024-04-09T18:08:43Z</time>
      </trkpt>
      <trkpt lat="43.64918" lon="1.3785">
        <ele>146</ele>
        <time>2024-04-09T18:08:44Z</time>
      </trkpt>
      <trkpt lat="43.64917" lon="1.37846">
        <ele>146</ele>
        <time>2024-04-09T18:08:45Z</time>
      </trkpt>
      <trkpt lat="43.64917" lon="1.37841">
        <ele>146</ele>
        <time>2024-04-09T18:08:46Z</time>
      </trkpt>
      <trkpt lat="43.64916" lon="1.37837">
        <ele>146</ele>
        <time>2024-04-09T18:08:47Z</time>
      </trkpt>
      <trkpt lat="43.64915" lon="1.37834">
        <ele>146</ele>
        <time>2024-04-09T18:08:48Z</time>
      </trkpt>
      <trkpt lat="43.64914" lon="1.3783">
        <ele>146</ele>
        <time>2024-04-09T18:08:49Z</time>
      </trkpt>
      <trkpt lat="43.64914" lon="1.37827">
        <ele>146</ele>
        <time>2024-04-09T18:08:50Z</time>
      </trkpt>
      <trkpt lat="43.64913" lon="1.37823">
        <ele>146</ele>
        <time>2024-04-09T18:08:51Z</time>
      </trkpt>
      <trkpt lat="43.64912" lon="1.3782">
        <ele>146</ele>
        <time>2024-04-09T18:08:52Z</time>
      </trkpt>
      <trkpt lat="43.64911" lon="1.37816">
        <ele>146</ele>
        <time>2024-04-09T18:08:53Z</time>
      </trkpt>
      <trkpt lat="43.6491" lon="1.37812">
        <ele>146</ele>
        <time>2024-04-09T18:08:54Z</time>
      </trkpt>
      <trkpt lat="43.64909" lon="1.37808">
        <ele>147</ele>
        <time>2024-04-09T18:08:55Z</time>
      </trkpt>
      <trkpt lat="43.64908" lon="1.37804">
        <ele>147</ele>
        <time>2024-04-09T18:08:56Z</time>
      </trkpt>
      <trkpt lat="43.64907" lon="1.378">
        <ele>147</ele>
        <time>2024-04-09T18:08:57Z</time>
      </trkpt>
      <trkpt lat="43.64907" lon="1.37797">
        <ele>147</ele>
        <time>2024-04-09T18:08:58Z</time>
      </trkpt>
      <trkpt lat="43.64906" lon="1.37793">
        <ele>146</ele>
        <time>2024-04-09T18:08:59Z</time>
      </trkpt>
      <trkpt lat="43.64905" lon="1.3779">
        <ele>146</ele>
        <time>2024-04-09T18:09:00Z</time>
      </trkpt>
      <trkpt lat="43.64904" lon="1.37786">
        <ele>146</ele>
        <time>2024-04-09T18:09:01Z</time>
      </trkpt>
      <trkpt lat="43.64903" lon="1.37782">
        <ele>146</ele>
        <time>2024-04-09T18:09:02Z</time>
      </trkpt>
      <trkpt lat="43.64902" lon="1.37778">
        <ele>146</ele>
        <time>2024-04-09T18:09:03Z</time>
      </trkpt>
      <trkpt lat="43.64901" lon="1.37775">
        <ele>146</ele>
        <time>2024-04-09T18:09:04Z</time>
      </trkpt>
      <trkpt lat="43.64899" lon="1.37771">
        <ele>146</ele>
        <time>2024-04-09T18:09:05Z</time>
      </trkpt>
      <trkpt lat="43.64898" lon="1.37767">
        <ele>146</ele>
        <time>2024-04-09T18:09:06Z</time>
      </trkpt>
      <trkpt lat="43.64897" lon="1.37763">
        <ele>146</ele>
        <time>2024-04-09T18:09:07Z</time>
      </trkpt>
      <trkpt lat="43.64897" lon="1.37759">
        <ele>147</ele>
        <time>2024-04-09T18:09:08Z</time>
      </trkpt>
      <trkpt lat="43.64896" lon="1.37756">
        <ele>147</ele>
        <time>2024-04-09T18:09:09Z</time>
      </trkpt>
      <trkpt lat="43.64895" lon="1.37752">
        <ele>147</ele>
        <time>2024-04-09T18:09:10Z</time>
      </trkpt>
      <trkpt lat="43.64894" lon="1.37748">
        <ele>147</ele>
        <time>2024-04-09T18:09:11Z</time>
      </trkpt>
      <trkpt lat="43.64893" lon="1.37744">
        <ele>147</ele>
        <time>2024-04-09T18:09:12Z</time>
      </trkpt>
      <trkpt lat="43.64892" lon="1.3774">
        <ele>147</ele>
        <time>2024-04-09T18:09:13Z</time>
      </trkpt>
      <trkpt lat="43.64891" lon="1.37736">
        <ele>147</ele>
        <time>2024-04-09T18:09:14Z</time>
      </trkpt>
      <trkpt lat="43.6489" lon="1.37733">
        <ele>147</ele>
        <time>2024-04-09T18:09:15Z</time>
      </trkpt>
      <trkpt lat="43.64889" lon="1.37729">
        <ele>147</ele>
        <time>2024-04-09T18:09:16Z</time>
      </trkpt>
      <trkpt lat="43.64888" lon="1.37725">
        <ele>147</ele>
        <time>2024-04-09T18:09:17Z</time>
      </trkpt>
      <trkpt lat="43.64887" lon="1.37721">
        <ele>147</ele>
        <time>2024-04-09T18:09:18Z</time>
      </trkpt>
      <trkpt lat="43.64886" lon="1.37717">
        <ele>147</ele>
        <time>2024-04-09T18:09:19Z</time>
      </trkpt>
      <trkpt lat="43.64885" lon="1.37714">
        <ele>147</ele>
        <time>2024-04-09T18:09:20Z</time>
      </trkpt>
      <trkpt lat="43.64884" lon="1.3771">
        <ele>147</ele>
        <time>2024-04-09T18:09:21Z</time>
      </trkpt>
      <trkpt lat="43.64883" lon="1.37707">
        <ele>147</ele>
        <time>2024-04-09T18:09:22Z</time>
      </trkpt>
      <trkpt lat="43.64883" lon="1.37703">
        <ele>147</ele>
        <time>2024-04-09T18:09:23Z</time>
      </trkpt>
      <trkpt lat="43.64882" lon="1.37699">
        <ele>147</ele>
        <time>2024-04-09T18:09:24Z</time>
      </trkpt>
      <trkpt lat="43.64881" lon="1.37695">
        <ele>147</ele>
        <time>2024-04-09T18:09:25Z</time>
      </trkpt>
      <trkpt lat="43.64881" lon="1.37692">
        <ele>147</ele>
        <time>2024-04-09T18:09:26Z</time>
      </trkpt>
      <trkpt lat="43.6488" lon="1.37688">
        <ele>147</ele>
        <time>2024-04-09T18:09:27Z</time>
      </trkpt>
      <trkpt lat="43.64879" lon="1.37685">
        <ele>147</ele>
        <time>2024-04-09T18:09:28Z</time>
      </trkpt>
      <trkpt lat="43.64879" lon="1.37681">
        <ele>147</ele>
        <time>2024-04-09T18:09:29Z</time>
      </trkpt>
      <trkpt lat="43.64878" lon="1.37678">
        <ele>147</ele>
        <time>2024-04-09T18:09:30Z</time>
      </trkpt>
      <trkpt lat="43.64877" lon="1.37674">
        <ele>147</ele>
        <time>2024-04-09T18:09:31Z</time>
      </trkpt>
      <trkpt lat="43.64876" lon="1.3767">
        <ele>147</ele>
        <time>2024-04-09T18:09:32Z</time>
      </trkpt>
      <trkpt lat="43.64875" lon="1.37666">
        <ele>147</ele>
        <time>2024-04-09T18:09:33Z</time>
      </trkpt>
      <trkpt lat="43.64873" lon="1.37663">
        <ele>147</ele>
        <time>2024-04-09T18:09:34Z</time>
      </trkpt>
      <trkpt lat="43.64872" lon="1.3766">
        <ele>147</ele>
        <time>2024-04-09T18:09:35Z</time>
      </trkpt>
      <trkpt lat="43.6487" lon="1.37658">
        <ele>147</ele>
        <time>2024-04-09T18:09:36Z</time>
      </trkpt>
      <trkpt lat="43.64867" lon="1.37658">
        <ele>147</ele>
        <time>2024-04-09T18:09:37Z</time>
      </trkpt>
      <trkpt lat="43.64864" lon="1.37659">
        <ele>147</ele>
        <time>2024-04-09T18:09:38Z</time>
      </trkpt>
      <trkpt lat="43.64862" lon="1.3766">
        <ele>147</ele>
        <time>2024-04-09T18:09:39Z</time>
      </trkpt>
      <trkpt lat="43.6486" lon="1.37663">
        <ele>147</ele>
        <time>2024-04-09T18:09:40Z</time>
      </trkpt>
      <trkpt lat="43.64858" lon="1.37665">
        <ele>147</ele>
        <time>2024-04-09T18:09:41Z</time>
      </trkpt>
      <trkpt lat="43.64856" lon="1.37668">
        <ele>146</ele>
        <time>2024-04-09T18:09:42Z</time>
      </trkpt>
      <trkpt lat="43.64854" lon="1.3767">
        <ele>146</ele>
        <time>2024-04-09T18:09:43Z</time>
      </trkpt>
      <trkpt lat="43.64852" lon="1.37673">
        <ele>146</ele>
        <time>2024-04-09T18:09:44Z</time>
      </trkpt>
      <trkpt lat="43.64851" lon="1.37676">
        <ele>146</ele>
        <time>2024-04-09T18:09:45Z</time>
      </trkpt>
      <trkpt lat="43.64849" lon="1.37679">
        <ele>146</ele>
        <time>2024-04-09T18:09:46Z</time>
      </trkpt>
      <trkpt lat="43.64847" lon="1.37682">
        <ele>146</ele>
        <time>2024-04-09T18:09:47Z</time>
      </trkpt>
      <trkpt lat="43.64845" lon="1.37685">
        <ele>147</ele>
        <time>2024-04-09T18:09:48Z</time>
      </trkpt>
      <trkpt lat="43.64843" lon="1.37687">
        <ele>147</ele>
        <time>2024-04-09T18:09:49Z</time>
      </trkpt>
      <trkpt lat="43.64841" lon="1.3769">
        <ele>147</ele>
        <time>2024-04-09T18:09:50Z</time>
      </trkpt>
      <trkpt lat="43.6484" lon="1.37693">
        <ele>147</ele>
        <time>2024-04-09T18:09:51Z</time>
      </trkpt>
      <trkpt lat="43.64838" lon="1.37697">
        <ele>146</ele>
        <time>2024-04-09T18:09:52Z</time>
      </trkpt>
      <trkpt lat="43.64836" lon="1.377">
        <ele>146</ele>
        <time>2024-04-09T18:09:53Z</time>
      </trkpt>
      <trkpt lat="43.64835" lon="1.37703">
        <ele>146</ele>
        <time>2024-04-09T18:09:54Z</time>
      </trkpt>
      <trkpt lat="43.64833" lon="1.37706">
        <ele>146</ele>
        <time>2024-04-09T18:09:55Z</time>
      </trkpt>
      <trkpt lat="43.64832" lon="1.37709">
        <ele>146</ele>
        <time>2024-04-09T18:09:56Z</time>
      </trkpt>
      <trkpt lat="43.6483" lon="1.37712">
        <ele>146</ele>
        <time>2024-04-09T18:09:57Z</time>
      </trkpt>
      <trkpt lat="43.64828" lon="1.37716">
        <ele>146</ele>
        <time>2024-04-09T18:09:58Z</time>
      </trkpt>
      <trkpt lat="43.64826" lon="1.37719">
        <ele>146</ele>
        <time>2024-04-09T18:09:59Z</time>
      </trkpt>
      <trkpt lat="43.64825" lon="1.37722">
        <ele>145</ele>
        <time>2024-04-09T18:10:00Z</time>
      </trkpt>
      <trkpt lat="43.64823" lon="1.37725">
        <ele>146</ele>
        <time>2024-04-09T18:10:01Z</time>
      </trkpt>
      <trkpt lat="43.64821" lon="1.37728">
        <ele>146</ele>
        <time>2024-04-09T18:10:02Z</time>
      </trkpt>
      <trkpt lat="43.6482" lon="1.37731">
        <ele>146</ele>
        <time>2024-04-09T18:10:03Z</time>
      </trkpt>
      <trkpt lat="43.64818" lon="1.37734">
        <ele>146</ele>
        <time>2024-04-09T18:10:04Z</time>
      </trkpt>
      <trkpt lat="43.64816" lon="1.37737">
        <ele>146</ele>
        <time>2024-04-09T18:10:05Z</time>
      </trkpt>
      <trkpt lat="43.64815" lon="1.3774">
        <ele>146</ele>
        <time>2024-04-09T18:10:06Z</time>
      </trkpt>
      <trkpt lat="43.64813" lon="1.37743">
        <ele>146</ele>
        <time>2024-04-09T18:10:07Z</time>
      </trkpt>
      <trkpt lat="43.64811" lon="1.37746">
        <ele>145</ele>
        <time>2024-04-09T18:10:08Z</time>
      </trkpt>
      <trkpt lat="43.6481" lon="1.37749">
        <ele>145</ele>
        <time>2024-04-09T18:10:09Z</time>
      </trkpt>
      <trkpt lat="43.64808" lon="1.37753">
        <ele>145</ele>
        <time>2024-04-09T18:10:10Z</time>
      </trkpt>
      <trkpt lat="43.64807" lon="1.37756">
        <ele>145</ele>
        <time>2024-04-09T18:10:11Z</time>
      </trkpt>
      <trkpt lat="43.64805" lon="1.37759">
        <ele>145</ele>
        <time>2024-04-09T18:10:12Z</time>
      </trkpt>
      <trkpt lat="43.64804" lon="1.37763">
        <ele>145</ele>
        <time>2024-04-09T18:10:13Z</time>
      </trkpt>
      <trkpt lat="43.64802" lon="1.37766">
        <ele>145</ele>
        <time>2024-04-09T18:10:14Z</time>
      </trkpt>
      <trkpt lat="43.648" lon="1.3777">
        <ele>145</ele>
        <time>2024-04-09T18:10:15Z</time>
      </trkpt>
      <trkpt lat="43.64799" lon="1.37773">
        <ele>145</ele>
        <time>2024-04-09T18:10:16Z</time>
      </trkpt>
      <trkpt lat="43.64798" lon="1.37777">
        <ele>145</ele>
        <time>2024-04-09T18:10:17Z</time>
      </trkpt>
      <trkpt lat="43.64796" lon="1.3778">
        <ele>145</ele>
        <time>2024-04-09T18:10:18Z</time>
      </trkpt>
      <trkpt lat="43.64795" lon="1.37784">
        <ele>145</ele>
        <time>2024-04-09T18:10:19Z</time>
      </trkpt>
      <trkpt lat="43.64794" lon="1.37787">
        <ele>145</ele>
        <time>2024-04-09T18:10:20Z</time>
      </trkpt>
      <trkpt lat="43.64793" lon="1.3779">
        <ele>145</ele>
        <time>2024-04-09T18:10:21Z</time>
      </trkpt>
      <trkpt lat="43.64792" lon="1.37794">
        <ele>145</ele>
        <time>2024-04-09T18:10:22Z</time>
      </trkpt>
      <trkpt lat="43.6479" lon="1.37798">
        <ele>145</ele>
        <time>2024-04-09T18:10:23Z</time>
      </trkpt>
      <trkpt lat="43.64789" lon="1.37802">
        <ele>145</ele>
        <time>2024-04-09T18:10:24Z</time>
      </trkpt>
      <trkpt lat="43.64787" lon="1.37805">
        <ele>145</ele>
        <time>2024-04-09T18:10:25Z</time>
      </trkpt>
      <trkpt lat="43.64786" lon="1.37809">
        <ele>146</ele>
        <time>2024-04-09T18:10:26Z</time>
      </trkpt>
      <trkpt lat="43.64784" lon="1.37812">
        <ele>146</ele>
        <time>2024-04-09T18:10:27Z</time>
      </trkpt>
      <trkpt lat="43.64781" lon="1.37814">
        <ele>146</ele>
        <time>2024-04-09T18:10:28Z</time>
      </trkpt>
      <trkpt lat="43.64779" lon="1.37816">
        <ele>146</ele>
        <time>2024-04-09T18:10:29Z</time>
      </trkpt>
      <trkpt lat="43.64777" lon="1.37818">
        <ele>146</ele>
        <time>2024-04-09T18:10:30Z</time>
      </trkpt>
      <trkpt lat="43.64775" lon="1.3782">
        <ele>146</ele>
        <time>2024-04-09T18:10:31Z</time>
      </trkpt>
      <trkpt lat="43.64772" lon="1.37822">
        <ele>146</ele>
        <time>2024-04-09T18:10:32Z</time>
      </trkpt>
      <trkpt lat="43.64769" lon="1.37824">
        <ele>146</ele>
        <time>2024-04-09T18:10:33Z</time>
      </trkpt>
      <trkpt lat="43.64767" lon="1.37826">
        <ele>146</ele>
        <time>2024-04-09T18:10:34Z</time>
      </trkpt>
      <trkpt lat="43.64765" lon="1.37829">
        <ele>146</ele>
        <time>2024-04-09T18:10:35Z</time>
      </trkpt>
      <trkpt lat="43.64763" lon="1.37831">
        <ele>146</ele>
        <time>2024-04-09T18:10:36Z</time>
      </trkpt>
      <trkpt lat="43.64761" lon="1.37834">
        <ele>146</ele>
        <time>2024-04-09T18:10:37Z</time>
      </trkpt>
      <trkpt lat="43.6476" lon="1.37837">
        <ele>146</ele>
        <time>2024-04-09T18:10:38Z</time>
      </trkpt>
      <trkpt lat="43.64759" lon="1.37841">
        <ele>146</ele>
        <time>2024-04-09T18:10:39Z</time>
      </trkpt>
      <trkpt lat="43.64759" lon="1.37845">
        <ele>146</ele>
        <time>2024-04-09T18:10:40Z</time>
      </trkpt>
      <trkpt lat="43.64759" lon="1.37849">
        <ele>146</ele>
        <time>2024-04-09T18:10:41Z</time>
      </trkpt>
      <trkpt lat="43.6476" lon="1.37852">
        <ele>146</ele>
        <time>2024-04-09T18:10:42Z</time>
      </trkpt>
      <trkpt lat="43.6476" lon="1.37856">
        <ele>146</ele>
        <time>2024-04-09T18:10:43Z</time>
      </trkpt>
      <trkpt lat="43.64761" lon="1.3786">
        <ele>146</ele>
        <time>2024-04-09T18:10:44Z</time>
      </trkpt>
      <trkpt lat="43.6476" lon="1.37863">
        <ele>146</ele>
        <time>2024-04-09T18:10:45Z</time>
      </trkpt>
      <trkpt lat="43.64758" lon="1.37867">
        <ele>146</ele>
        <time>2024-04-09T18:10:46Z</time>
      </trkpt>
      <trkpt lat="43.64755" lon="1.3787">
        <ele>146</ele>
        <time>2024-04-09T18:10:47Z</time>
      </trkpt>
      <trkpt lat="43.64752" lon="1.37871">
        <ele>146</ele>
        <time>2024-04-09T18:10:48Z</time>
      </trkpt>
      <trkpt lat="43.64749" lon="1.37872">
        <ele>146</ele>
        <time>2024-04-09T18:10:49Z</time>
      </trkpt>
      <trkpt lat="43.64746" lon="1.37872">
        <ele>146</ele>
        <time>2024-04-09T18:10:50Z</time>
      </trkpt>
      <trkpt lat="43.64744" lon="1.37873">
        <ele>146</ele>
        <time>2024-04-09T18:10:51Z</time>
      </trkpt>
      <trkpt lat="43.64741" lon="1.37873">
        <ele>146</ele>
        <time>2024-04-09T18:10:52Z</time>
      </trkpt>
      <trkpt lat="43.64738" lon="1.37874">
        <ele>145</ele>
        <time>2024-04-09T18:10:53Z</time>
      </trkpt>
      <trkpt lat="43.64735" lon="1.37874">
        <ele>145</ele>
        <time>2024-04-09T18:10:54Z</time>
      </trkpt>
      <trkpt lat="43.64732" lon="1.37875">
        <ele>145</ele>
        <time>2024-04-09T18:10:55Z</time>
      </trkpt>
      <trkpt lat="43.64729" lon="1.37875">
        <ele>145</ele>
        <time>2024-04-09T18:10:56Z</time>
      </trkpt>
      <trkpt lat="43.64726" lon="1.37876">
        <ele>145</ele>
        <time>2024-04-09T18:10:57Z</time>
      </trkpt>
      <trkpt lat="43.64723" lon="1.37876">
        <ele>145</ele>
        <time>2024-04-09T18:10:58Z</time>
      </trkpt>
      <trkpt lat="43.6472" lon="1.37877">
        <ele>145</ele>
        <time>2024-04-09T18:10:59Z</time>
      </trkpt>
      <trkpt lat="43.64717" lon="1.37877">
        <ele>145</ele>
        <time>2024-04-09T18:11:00Z</time>
      </trkpt>
      <trkpt lat="43.64714" lon="1.37879">
        <ele>145</ele>
        <time>2024-04-09T18:11:01Z</time>
      </trkpt>
      <trkpt lat="43.64711" lon="1.3788">
        <ele>145</ele>
        <time>2024-04-09T18:11:02Z</time>
      </trkpt>
      <trkpt lat="43.64708" lon="1.3788">
        <ele>145</ele>
        <time>2024-04-09T18:11:03Z</time>
      </trkpt>
      <trkpt lat="43.64705" lon="1.3788">
        <ele>145</ele>
        <time>2024-04-09T18:11:04Z</time>
      </trkpt>
      <trkpt lat="43.64703" lon="1.37881">
        <ele>145</ele>
        <time>2024-04-09T18:11:05Z</time>
      </trkpt>
      <trkpt lat="43.647" lon="1.37881">
        <ele>145</ele>
        <time>2024-04-09T18:11:06Z</time>
      </trkpt>
      <trkpt lat="43.647" lon="1.37881">
        <ele>145</ele>
        <time>2024-04-09T18:11:07Z</time>
      </trkpt>
      <trkpt lat="43.64694" lon="1.37882">
        <ele>145</ele>
        <time>2024-04-09T18:11:08Z</time>
      </trkpt>
      <trkpt lat="43.64692" lon="1.37882">
        <ele>145</ele>
        <time>2024-04-09T18:11:09Z</time>
      </trkpt>
      <trkpt lat="43.64689" lon="1.37882">
        <ele>145</ele>
        <time>2024-04-09T18:11:10Z</time>
      </trkpt>
      <trkpt lat="43.64686" lon="1.37882">
        <ele>145</ele>
        <time>2024-04-09T18:11:11Z</time>
      </trkpt>
      <trkpt lat="43.64683" lon="1.37882">
        <ele>145</ele>
        <time>2024-04-09T18:11:12Z</time>
      </trkpt>
      <trkpt lat="43.64681" lon="1.37881">
        <ele>145</ele>
        <time>2024-04-09T18:11:13Z</time>
      </trkpt>
      <trkpt lat="43.64678" lon="1.37881">
        <ele>145</ele>
        <time>2024-04-09T18:11:14Z</time>
      </trkpt>
      <trkpt lat="43.64675" lon="1.37881">
        <ele>145</ele>
        <time>2024-04-09T18:11:15Z</time>
      </trkpt>
      <trkpt lat="43.64673" lon="1.3788">
        <ele>146</ele>
        <time>2024-04-09T18:11:16Z</time>
      </trkpt>
      <trkpt lat="43.6467" lon="1.3788">
        <ele>146</ele>
        <time>2024-04-09T18:11:17Z</time>
      </trkpt>
      <trkpt lat="43.64667" lon="1.3788">
        <ele>146</ele>
        <time>2024-04-09T18:11:18Z</time>
      </trkpt>
      <trkpt lat="43.64664" lon="1.3788">
        <ele>146</ele>
        <time>2024-04-09T18:11:19Z</time>
      </trkpt>
      <trkpt lat="43.64662" lon="1.3788">
        <ele>146</ele>
        <time>2024-04-09T18:11:20Z</time>
      </trkpt>
      <trkpt lat="43.64659" lon="1.3788">
        <ele>145</ele>
        <time>2024-04-09T18:11:21Z</time>
      </trkpt>
      <trkpt lat="43.64656" lon="1.37879">
        <ele>145</ele>
        <time>2024-04-09T18:11:22Z</time>
      </trkpt>
      <trkpt lat="43.64654" lon="1.37879">
        <ele>145</ele>
        <time>2024-04-09T18:11:23Z</time>
      </trkpt>
      <trkpt lat="43.64651" lon="1.37879">
        <ele>145</ele>
        <time>2024-04-09T18:11:24Z</time>
      </trkpt>
      <trkpt lat="43.64649" lon="1.37878">
        <ele>145</ele>
        <time>2024-04-09T18:11:25Z</time>
      </trkpt>
      <trkpt lat="43.64649" lon="1.37878">
        <ele>145</ele>
        <time>2024-04-09T18:11:26Z</time>
      </trkpt>
      <trkpt lat="43.64643" lon="1.37878">
        <ele>145</ele>
        <time>2024-04-09T18:11:27Z</time>
      </trkpt>
      <trkpt lat="43.64641" lon="1.37878">
        <ele>145</ele>
        <time>2024-04-09T18:11:28Z</time>
      </trkpt>
      <trkpt lat="43.64638" lon="1.37878">
        <ele>146</ele>
        <time>2024-04-09T18:11:29Z</time>
      </trkpt>
      <trkpt lat="43.64635" lon="1.37878">
        <ele>146</ele>
        <time>2024-04-09T18:11:30Z</time>
      </trkpt>
      <trkpt lat="43.64632" lon="1.37878">
        <ele>146</ele>
        <time>2024-04-09T18:11:31Z</time>
      </trkpt>
      <trkpt lat="43.64629" lon="1.37878">
        <ele>146</ele>
        <time>2024-04-09T18:11:32Z</time>
      </trkpt>
      <trkpt lat="43.64626" lon="1.37878">
        <ele>145</ele>
        <time>2024-04-09T18:11:33Z</time>
      </trkpt>
      <trkpt lat="43.64624" lon="1.37878">
        <ele>145</ele>
        <time>2024-04-09T18:11:34Z</time>
      </trkpt>
      <trkpt lat="43.64621" lon="1.37878">
        <ele>145</ele>
        <time>2024-04-09T18:11:35Z</time>
      </trkpt>
      <trkpt lat="43.64619" lon="1.37877">
        <ele>145</ele>
        <time>2024-04-09T18:11:36Z</time>
      </trkpt>
      <trkpt lat="43.64616" lon="1.37877">
        <ele>145</ele>
        <time>2024-04-09T18:11:37Z</time>
      </trkpt>
      <trkpt lat="43.64614" lon="1.37877">
        <ele>145</ele>
        <time>2024-04-09T18:11:38Z</time>
      </trkpt>
      <trkpt lat="43.64611" lon="1.37876">
        <ele>145</ele>
        <time>2024-04-09T18:11:39Z</time>
      </trkpt>
      <trkpt lat="43.64609" lon="1.37876">
        <ele>145</ele>
        <time>2024-04-09T18:11:40Z</time>
      </trkpt>
      <trkpt lat="43.64607" lon="1.37876">
        <ele>145</ele>
        <time>2024-04-09T18:11:41Z</time>
      </trkpt>
      <trkpt lat="43.64604" lon="1.37877">
        <ele>145</ele>
        <time>2024-04-09T18:11:42Z</time>
      </trkpt>
      <trkpt lat="43.64602" lon="1.37878">
        <ele>145</ele>
        <time>2024-04-09T18:11:43Z</time>
      </trkpt>
      <trkpt lat="43.646" lon="1.37881">
        <ele>145</ele>
        <time>2024-04-09T18:11:44Z</time>
      </trkpt>
      <trkpt lat="43.646" lon="1.37881">
        <ele>145</ele>
        <time>2024-04-09T18:11:45Z</time>
      </trkpt>
      <trkpt lat="43.64595" lon="1.37887">
        <ele>145</ele>
        <time>2024-04-09T18:11:46Z</time>
      </trkpt>
      <trkpt lat="43.64594" lon="1.37888">
        <ele>145</ele>
        <time>2024-04-09T18:11:47Z</time>
      </trkpt>
      <trkpt lat="43.64592" lon="1.37889">
        <ele>145</ele>
        <time>2024-04-09T18:11:48Z</time>
      </trkpt>
      <trkpt lat="43.64589" lon="1.37891">
        <ele>145</ele>
        <time>2024-04-09T18:11:49Z</time>
      </trkpt>
      <trkpt lat="43.64586" lon="1.37891">
        <ele>146</ele>
        <time>2024-04-09T18:11:50Z</time>
      </trkpt>
      <trkpt lat="43.64586" lon="1.37891">
        <ele>146</ele>
        <time>2024-04-09T18:11:51Z</time>
      </trkpt>
    </trkseg>
  </trk>
</gpx>